<?xml version='1.0' encoding='UTF-8'?><gpx version="1.1" creator="JPX - https://github.com/jenetics/jpx" xmlns="http://www.topografix.com/GPX/1/1"><trk><trkseg><trkpt lat="40.09446319427747" lon="15.35895259184944"><ele>66.0</ele><time>2026-04-26T07:04:35.998Z</time></trkpt><trkpt lat="40.09455634078216" lon="15.358932923062847"><ele>66.0</ele><time>2026-04-26T07:04:36.998Z</time></trkpt><trkpt lat="40.0946270429883" lon="15.358939442237887"><ele>66.0</ele><time>2026-04-26T07:04:37.998Z</time></trkpt><trkpt lat="40.09471973904151" lon="15.358985557793343"><ele>66.0</ele><time>2026-04-26T07:04:38.998Z</time></trkpt><trkpt lat="40.09484472685403" lon="15.359072127032194"><ele>66.0</ele><time>2026-04-26T07:04:39.998Z</time></trkpt><trkpt lat="40.09499281376601" lon="15.35919905804112"><ele>66.0</ele><time>2026-04-26T07:04:40.998Z</time></trkpt><trkpt lat="40.09510225033922" lon="15.359299948459771"><ele>66.0</ele><time>2026-04-26T07:04:41.998Z</time></trkpt><trkpt lat="40.0951859534944" lon="15.35936845091174"><ele>66.0</ele><time>2026-04-26T07:04:42.998Z</time></trkpt><trkpt lat="40.09525571811233" lon="15.359445109208526"><ele>66.0</ele><time>2026-04-26T07:04:43.998Z</time></trkpt><trkpt lat="40.09529341850141" lon="15.359579544350346"><ele>66.0</ele><time>2026-04-26T07:04:44.998Z</time></trkpt><trkpt lat="40.09533456370788" lon="15.359747503535994"><ele>66.0</ele><time>2026-04-26T07:04:45.998Z</time></trkpt><trkpt lat="40.095408885567615" lon="15.359983621575454"><ele>66.0</ele><time>2026-04-26T07:04:46.998Z</time></trkpt><trkpt lat="40.09549096328381" lon="15.360163478314602"><ele>66.0</ele><time>2026-04-26T07:04:47.998Z</time></trkpt><trkpt lat="40.09560135714837" lon="15.360288924080105"><ele>66.0</ele><time>2026-04-26T07:04:48.998Z</time></trkpt><trkpt lat="40.095625479413414" lon="15.36043840090799"><ele>66.0</ele><time>2026-04-26T07:04:49.998Z</time></trkpt><trkpt lat="40.09552797326741" lon="15.36058237127007"><ele>66.0</ele><time>2026-04-26T07:04:50.998Z</time></trkpt><trkpt lat="40.09544617452852" lon="15.360708836063404"><ele>66.0</ele><time>2026-04-26T07:04:51.998Z</time></trkpt><trkpt lat="40.095363811802684" lon="15.360839502450338"><ele>66.75</ele><time>2026-04-26T07:04:52.998Z</time></trkpt><trkpt lat="40.095347663642826" lon="15.36096826885494"><ele>67.5</ele><time>2026-04-26T07:04:53.998Z</time></trkpt><trkpt lat="40.09539274876867" lon="15.361107851501865"><ele>68.25</ele><time>2026-04-26T07:04:54.998Z</time></trkpt><trkpt lat="40.095487482100445" lon="15.361257241817286"><ele>69.0</ele><time>2026-04-26T07:04:55.998Z</time></trkpt><trkpt lat="40.095573954693556" lon="15.361401527576373"><ele>69.60000000000001</ele><time>2026-04-26T07:04:56.998Z</time></trkpt><trkpt lat="40.09562931023423" lon="15.361542085051898"><ele>70.2</ele><time>2026-04-26T07:04:57.998Z</time></trkpt><trkpt lat="40.09564128722213" lon="15.361692315054793"><ele>70.80000000000001</ele><time>2026-04-26T07:04:58.998Z</time></trkpt><trkpt lat="40.09556950895382" lon="15.361790779971297"><ele>71.4</ele><time>2026-04-26T07:04:59.998Z</time></trkpt><trkpt lat="40.09549416062853" lon="15.361866917690195"><ele>72.0</ele><time>2026-04-26T07:05:00.998Z</time></trkpt><trkpt lat="40.095399587044966" lon="15.362011778494425"><ele>72.0</ele><time>2026-04-26T07:05:01.998Z</time></trkpt><trkpt lat="40.095300740321335" lon="15.362163766974637"><ele>72.0</ele><time>2026-04-26T07:05:02.998Z</time></trkpt><trkpt lat="40.095208899621916" lon="15.362323164964428"><ele>72.0</ele><time>2026-04-26T07:05:03.998Z</time></trkpt><trkpt lat="40.09513546834002" lon="15.362433061948892"><ele>72.0</ele><time>2026-04-26T07:05:04.999Z</time></trkpt><trkpt lat="40.095085596473965" lon="15.362483968418175"><ele>72.0</ele><time>2026-04-26T07:05:05.999Z</time></trkpt><trkpt lat="40.09525610671017" lon="15.362404696717238"><ele>72.0</ele><time>2026-04-26T07:05:09.999Z</time></trkpt><trkpt lat="40.095223877893666" lon="15.362211261429984"><ele>72.0</ele><time>2026-04-26T07:05:11.999Z</time></trkpt><trkpt lat="40.09518039814484" lon="15.362119183195459"><ele>72.0</ele><time>2026-04-26T07:05:12.999Z</time></trkpt><trkpt lat="40.095091679634855" lon="15.362028974774713"><ele>72.0</ele><time>2026-04-26T07:05:13.999Z</time></trkpt><trkpt lat="40.094937811120914" lon="15.361896771974985"><ele>72.0</ele><time>2026-04-26T07:05:14.999Z</time></trkpt><trkpt lat="40.09477760580555" lon="15.361742106893214"><ele>72.0</ele><time>2026-04-26T07:05:15.999Z</time></trkpt><trkpt lat="40.09458983325972" lon="15.361561090003148"><ele>74.66666666666667</ele><time>2026-04-26T07:05:16.999Z</time></trkpt><trkpt lat="40.09439810351286" lon="15.361370332872694"><ele>77.33333333333334</ele><time>2026-04-26T07:05:17.999Z</time></trkpt><trkpt lat="40.0942708055793" lon="15.36119909406327"><ele>80.0</ele><time>2026-04-26T07:05:18.999Z</time></trkpt><trkpt lat="40.09415749601463" lon="15.360993476794773"><ele>83.0</ele><time>2026-04-26T07:05:19.999Z</time></trkpt><trkpt lat="40.09403692969349" lon="15.360818615810008"><ele>86.0</ele><time>2026-04-26T07:05:20.999Z</time></trkpt><trkpt lat="40.093893004932674" lon="15.360701195960583"><ele>89.0</ele><time>2026-04-26T07:05:21.999Z</time></trkpt><trkpt lat="40.093762574362216" lon="15.360611843460562"><ele>89.0</ele><time>2026-04-26T07:05:22.999Z</time></trkpt><trkpt lat="40.09364916358263" lon="15.360574955236403"><ele>89.0</ele><time>2026-04-26T07:05:23.999Z</time></trkpt><trkpt lat="40.09351021889155" lon="15.360583795945043"><ele>89.0</ele><time>2026-04-26T07:05:24.999Z</time></trkpt><trkpt lat="40.09333975351892" lon="15.360640653924587"><ele>89.0</ele><time>2026-04-26T07:05:25.999Z</time></trkpt><trkpt lat="40.09315089519327" lon="15.360715450566454"><ele>90.33333333333334</ele><time>2026-04-26T07:05:26.999Z</time></trkpt><trkpt lat="40.09299999776408" lon="15.360790101472887"><ele>91.66666666666667</ele><time>2026-04-26T07:05:27.999Z</time></trkpt><trkpt lat="40.09285587553294" lon="15.360910512249609"><ele>93.0</ele><time>2026-04-26T07:05:28.999Z</time></trkpt><trkpt lat="40.09268848925993" lon="15.361069307129435"><ele>93.0</ele><time>2026-04-26T07:05:29.999Z</time></trkpt><trkpt lat="40.09250499267444" lon="15.36124018664744"><ele>93.0</ele><time>2026-04-26T07:05:30.999Z</time></trkpt><trkpt lat="40.09234749883518" lon="15.36137972888466"><ele>93.0</ele><time>2026-04-26T07:05:31.999Z</time></trkpt><trkpt lat="40.09222714112913" lon="15.361487571269041"><ele>96.80000000000001</ele><time>2026-04-26T07:05:32.999Z</time></trkpt><trkpt lat="40.09214464591157" lon="15.361569802973674"><ele>100.6</ele><time>2026-04-26T07:05:33.999Z</time></trkpt><trkpt lat="40.092098854309164" lon="15.361646793794549"><ele>104.39999999999999</ele><time>2026-04-26T07:05:34.999Z</time></trkpt><trkpt lat="40.092111296398194" lon="15.361754177923093"><ele>108.19999999999999</ele><time>2026-04-26T07:05:35.999Z</time></trkpt><trkpt lat="40.09217190350367" lon="15.361857954724528"><ele>112.0</ele><time>2026-04-26T07:05:36.999Z</time></trkpt><trkpt lat="40.09224389780012" lon="15.362029719103782"><ele>116.66666666666667</ele><time>2026-04-26T07:05:37.999Z</time></trkpt><trkpt lat="40.09231055864051" lon="15.362239526553404"><ele>121.33333333333334</ele><time>2026-04-26T07:05:38.999Z</time></trkpt><trkpt lat="40.09232609818235" lon="15.36245113185012"><ele>126.0</ele><time>2026-04-26T07:05:39.999Z</time></trkpt><trkpt lat="40.0923185849599" lon="15.362710079254953"><ele>126.0</ele><time>2026-04-26T07:05:40.999Z</time></trkpt><trkpt lat="40.09230539439028" lon="15.363013030255525"><ele>126.0</ele><time>2026-04-26T07:05:41.999Z</time></trkpt><trkpt lat="40.092293524398116" lon="15.363346260718197"><ele>126.25</ele><time>2026-04-26T07:05:42.999Z</time></trkpt><trkpt lat="40.09230540965277" lon="15.36361056304964"><ele>126.5</ele><time>2026-04-26T07:05:43.999Z</time></trkpt><trkpt lat="40.09227722888132" lon="15.363785784864474"><ele>126.75</ele><time>2026-04-26T07:05:44.999Z</time></trkpt><trkpt lat="40.092240981588596" lon="15.363902395265232"><ele>127.0</ele><time>2026-04-26T07:05:45.999Z</time></trkpt><trkpt lat="40.09216857307332" lon="15.363947212943623"><ele>127.0</ele><time>2026-04-26T07:05:46.999Z</time></trkpt><trkpt lat="40.09207958942307" lon="15.36398637607127"><ele>127.0</ele><time>2026-04-26T07:05:47.999Z</time></trkpt><trkpt lat="40.09193995083608" lon="15.364058054190993"><ele>127.0</ele><time>2026-04-26T07:05:48.999Z</time></trkpt><trkpt lat="40.091773759627145" lon="15.364145135473352"><ele>127.0</ele><time>2026-04-26T07:05:49.999Z</time></trkpt><trkpt lat="40.09164339907602" lon="15.364216488524711"><ele>127.0</ele><time>2026-04-26T07:05:50.999Z</time></trkpt><trkpt lat="40.091568776617024" lon="15.364257333245808"><ele>126.99999999999999</ele><time>2026-04-26T07:05:51.999Z</time></trkpt><trkpt lat="40.091514598987736" lon="15.364303264163244"><ele>126.99999999999999</ele><time>2026-04-26T07:05:54.999Z</time></trkpt><trkpt lat="40.091659034798816" lon="15.364208843522206"><ele>127.0</ele><time>2026-04-26T07:06:02.999Z</time></trkpt><trkpt lat="40.09179653381161" lon="15.364171738426696"><ele>127.0</ele><time>2026-04-26T07:06:03.999Z</time></trkpt><trkpt lat="40.091948289372844" lon="15.364093281949575"><ele>127.0</ele><time>2026-04-26T07:06:04.999Z</time></trkpt><trkpt lat="40.09207461711093" lon="15.364028415796827"><ele>127.0</ele><time>2026-04-26T07:06:05.999Z</time></trkpt><trkpt lat="40.09218246848112" lon="15.363958651806534"><ele>127.0</ele><time>2026-04-26T07:06:06.999Z</time></trkpt><trkpt lat="40.09226102968856" lon="15.363890839930251"><ele>127.0</ele><time>2026-04-26T07:06:07.999Z</time></trkpt><trkpt lat="40.09232303903461" lon="15.363787087690165"><ele>127.0</ele><time>2026-04-26T07:06:09.999Z</time></trkpt><trkpt lat="40.09237916632259" lon="15.363937236558815"><ele>126.99999999999999</ele><time>2026-04-26T07:06:14.999Z</time></trkpt><trkpt lat="40.09236709566869" lon="15.36405031876581"><ele>126.99999999999999</ele><time>2026-04-26T07:06:15.999Z</time></trkpt><trkpt lat="40.09234944419485" lon="15.36416958491954"><ele>127.0</ele><time>2026-04-26T07:06:16.999Z</time></trkpt><trkpt lat="40.09233589633476" lon="15.36428531592337"><ele>127.0</ele><time>2026-04-26T07:06:17.999Z</time></trkpt><trkpt lat="40.092322596893894" lon="15.364387088976544"><ele>127.00000000000001</ele><time>2026-04-26T07:06:18.999Z</time></trkpt><trkpt lat="40.09231853380735" lon="15.364499382405999"><ele>127.0</ele><time>2026-04-26T07:06:19.999Z</time></trkpt><trkpt lat="40.092328498827534" lon="15.36461700604408"><ele>127.0</ele><time>2026-04-26T07:06:20.999Z</time></trkpt><trkpt lat="40.092339995513484" lon="15.364723030627534"><ele>127.0</ele><time>2026-04-26T07:06:21.999Z</time></trkpt><trkpt lat="40.09236172754411" lon="15.364806686211935"><ele>127.00000000000001</ele><time>2026-04-26T07:06:22.999Z</time></trkpt><trkpt lat="40.09241361244714" lon="15.364950842755068"><ele>127.0</ele><time>2026-04-26T07:06:24.999Z</time></trkpt><trkpt lat="40.09244632043756" lon="15.365043170826791"><ele>126.19999999999999</ele><time>2026-04-26T07:06:25.999Z</time></trkpt><trkpt lat="40.09251264085406" lon="15.365201536330815"><ele>125.39999999999999</ele><time>2026-04-26T07:06:27.998Z</time></trkpt><trkpt lat="40.09254365365462" lon="15.36532958164169"><ele>124.60000000000001</ele><time>2026-04-26T07:06:28.998Z</time></trkpt><trkpt lat="40.09256310772339" lon="15.36546634645003"><ele>123.80000000000001</ele><time>2026-04-26T07:06:29.998Z</time></trkpt><trkpt lat="40.092584456394675" lon="15.365593113212565"><ele>123.0</ele><time>2026-04-26T07:06:30.998Z</time></trkpt><trkpt lat="40.092612256529286" lon="15.365685194514343"><ele>123.0</ele><time>2026-04-26T07:06:31.998Z</time></trkpt><trkpt lat="40.09265924898518" lon="15.365781349386927"><ele>123.00000000000001</ele><time>2026-04-26T07:06:32.998Z</time></trkpt><trkpt lat="40.09272094780263" lon="15.36589446538856"><ele>123.00000000000001</ele><time>2026-04-26T07:06:33.998Z</time></trkpt><trkpt lat="40.09278769444101" lon="15.36599465985037"><ele>123.0</ele><time>2026-04-26T07:06:34.998Z</time></trkpt><trkpt lat="40.09284168406483" lon="15.366117595415988"><ele>123.0</ele><time>2026-04-26T07:06:35.998Z</time></trkpt><trkpt lat="40.09288463509452" lon="15.366241080021883"><ele>123.0</ele><time>2026-04-26T07:06:36.998Z</time></trkpt><trkpt lat="40.092917061440104" lon="15.366339142664057"><ele>123.0</ele><time>2026-04-26T07:06:37.998Z</time></trkpt><trkpt lat="40.09311178480544" lon="15.36636031763964"><ele>123.0</ele><time>2026-04-26T07:06:38.998Z</time></trkpt><trkpt lat="40.093162324722144" lon="15.366520289849664"><ele>123.0</ele><time>2026-04-26T07:06:40.998Z</time></trkpt><trkpt lat="40.09319727297569" lon="15.366614437203395"><ele>124.4</ele><time>2026-04-26T07:06:41.998Z</time></trkpt><trkpt lat="40.093239821965675" lon="15.36672538419552"><ele>125.80000000000001</ele><time>2026-04-26T07:06:42.998Z</time></trkpt><trkpt lat="40.09328623937655" lon="15.366834436712042"><ele>127.2</ele><time>2026-04-26T07:06:43.998Z</time></trkpt><trkpt lat="40.09333639511482" lon="15.366938139234298"><ele>128.6</ele><time>2026-04-26T07:06:44.998Z</time></trkpt><trkpt lat="40.093387117825536" lon="15.367035921622593"><ele>130.0</ele><time>2026-04-26T07:06:45.998Z</time></trkpt><trkpt lat="40.09343960518544" lon="15.367134909401798"><ele>129.8</ele><time>2026-04-26T07:06:46.998Z</time></trkpt><trkpt lat="40.09349456716518" lon="15.367230092980014"><ele>129.6</ele><time>2026-04-26T07:06:47.998Z</time></trkpt><trkpt lat="40.093546138607664" lon="15.367319276225434"><ele>129.4</ele><time>2026-04-26T07:06:48.998Z</time></trkpt><trkpt lat="40.09361377464597" lon="15.367458582449954"><ele>129.2</ele><time>2026-04-26T07:06:49.998Z</time></trkpt><trkpt lat="40.09363345512605" lon="15.367542245439806"><ele>129.0</ele><time>2026-04-26T07:06:50.998Z</time></trkpt><trkpt lat="40.0935313363694" lon="15.367765134653846"><ele>129.0</ele><time>2026-04-26T07:06:52.998Z</time></trkpt><trkpt lat="40.09357315622715" lon="15.367847286491774"><ele>129.0</ele><time>2026-04-26T07:06:53.998Z</time></trkpt><trkpt lat="40.09360779389597" lon="15.367925007849717"><ele>129.0</ele><time>2026-04-26T07:06:54.998Z</time></trkpt><trkpt lat="40.09382072976531" lon="15.367834473032378"><ele>129.0</ele><time>2026-04-26T07:06:56.998Z</time></trkpt><trkpt lat="40.093897776953376" lon="15.367942984289769"><ele>129.0</ele><time>2026-04-26T07:06:59.998Z</time></trkpt><trkpt lat="40.09395493036205" lon="15.368018093240714"><ele>129.0</ele><time>2026-04-26T07:07:00.998Z</time></trkpt><trkpt lat="40.09402561609079" lon="15.368110985878563"><ele>129.0</ele><time>2026-04-26T07:07:01.998Z</time></trkpt><trkpt lat="40.094088298234524" lon="15.368193360494683"><ele>129.0</ele><time>2026-04-26T07:07:02.998Z</time></trkpt><trkpt lat="40.094168737438494" lon="15.368300909450717"><ele>129.0</ele><time>2026-04-26T07:07:04.998Z</time></trkpt><trkpt lat="40.09421722711825" lon="15.368366084600657"><ele>129.5</ele><time>2026-04-26T07:07:05.998Z</time></trkpt><trkpt lat="40.09428674348904" lon="15.368483761063057"><ele>130.0</ele><time>2026-04-26T07:07:06.998Z</time></trkpt><trkpt lat="40.094359133968275" lon="15.368633213794274"><ele>130.5</ele><time>2026-04-26T07:07:07.998Z</time></trkpt><trkpt lat="40.09445553337911" lon="15.368817210525101"><ele>131.0</ele><time>2026-04-26T07:07:08.998Z</time></trkpt><trkpt lat="40.09453246329037" lon="15.369026428430665"><ele>134.0</ele><time>2026-04-26T07:07:09.998Z</time></trkpt><trkpt lat="40.09456319982768" lon="15.369238631520787"><ele>137.0</ele><time>2026-04-26T07:07:10.999Z</time></trkpt><trkpt lat="40.094566933907466" lon="15.369482151702128"><ele>140.0</ele><time>2026-04-26T07:07:11.999Z</time></trkpt><trkpt lat="40.0945495725268" lon="15.369668912804775"><ele>140.25</ele><time>2026-04-26T07:07:12.999Z</time></trkpt><trkpt lat="40.094496862885244" lon="15.369804940555476"><ele>140.5</ele><time>2026-04-26T07:07:13.999Z</time></trkpt><trkpt lat="40.094444824038106" lon="15.369909525379322"><ele>140.75</ele><time>2026-04-26T07:07:14.999Z</time></trkpt><trkpt lat="40.094331430666934" lon="15.370056827759958"><ele>141.0</ele><time>2026-04-26T07:07:15.999Z</time></trkpt><trkpt lat="40.094260219920784" lon="15.370210433023713"><ele>141.0</ele><time>2026-04-26T07:07:16.999Z</time></trkpt><trkpt lat="40.0941857249037" lon="15.370368673212202"><ele>141.0</ele><time>2026-04-26T07:07:17.999Z</time></trkpt><trkpt lat="40.09411409811741" lon="15.37051342323752"><ele>141.0</ele><time>2026-04-26T07:07:18.999Z</time></trkpt><trkpt lat="40.09404437882794" lon="15.370648400605871"><ele>141.0</ele><time>2026-04-26T07:07:19.999Z</time></trkpt><trkpt lat="40.093978296120014" lon="15.370785428435793"><ele>143.4</ele><time>2026-04-26T07:07:20.999Z</time></trkpt><trkpt lat="40.09391658855326" lon="15.370942404661418"><ele>145.8</ele><time>2026-04-26T07:07:21.999Z</time></trkpt><trkpt lat="40.09386228794565" lon="15.371085447817972"><ele>148.20000000000002</ele><time>2026-04-26T07:07:22.999Z</time></trkpt><trkpt lat="40.093815412970805" lon="15.371189507018485"><ele>150.6</ele><time>2026-04-26T07:07:23.999Z</time></trkpt><trkpt lat="40.093776359094896" lon="15.371271909292274"><ele>153.0</ele><time>2026-04-26T07:07:24.999Z</time></trkpt><trkpt lat="40.09368928930396" lon="15.371379893177417"><ele>153.20000000000002</ele><time>2026-04-26T07:07:26.999Z</time></trkpt><trkpt lat="40.09362891579111" lon="15.371457848153666"><ele>153.4</ele><time>2026-04-26T07:07:27.999Z</time></trkpt><trkpt lat="40.09359302534608" lon="15.371535340160989"><ele>153.60000000000002</ele><time>2026-04-26T07:07:28.999Z</time></trkpt><trkpt lat="40.09338245957348" lon="15.371530665809164"><ele>153.8</ele><time>2026-04-26T07:07:29.999Z</time></trkpt><trkpt lat="40.093329072844185" lon="15.371596059960495"><ele>154.0</ele><time>2026-04-26T07:07:30.999Z</time></trkpt><trkpt lat="40.09326794880168" lon="15.371652027404334"><ele>155.8</ele><time>2026-04-26T07:07:31.999Z</time></trkpt><trkpt lat="40.09318891283002" lon="15.371716295405548"><ele>157.60000000000002</ele><time>2026-04-26T07:07:32.999Z</time></trkpt><trkpt lat="40.093112833459756" lon="15.371794001948613"><ele>159.4</ele><time>2026-04-26T07:07:33.999Z</time></trkpt><trkpt lat="40.09304757867808" lon="15.371884484403687"><ele>161.20000000000002</ele><time>2026-04-26T07:07:35Z</time></trkpt><trkpt lat="40.093000336423025" lon="15.371997701689043"><ele>163.0</ele><time>2026-04-26T07:07:36Z</time></trkpt><trkpt lat="40.092969760452746" lon="15.372112994086278"><ele>163.5</ele><time>2026-04-26T07:07:37Z</time></trkpt><trkpt lat="40.092958345481534" lon="15.372229297196178"><ele>164.0</ele><time>2026-04-26T07:07:38Z</time></trkpt><trkpt lat="40.09296610676073" lon="15.372371051941238"><ele>164.5</ele><time>2026-04-26T07:07:39Z</time></trkpt><trkpt lat="40.092971202730915" lon="15.372541820250706"><ele>165.0</ele><time>2026-04-26T07:07:40Z</time></trkpt><trkpt lat="40.09297198383807" lon="15.372735524904854"><ele>165.0</ele><time>2026-04-26T07:07:41Z</time></trkpt><trkpt lat="40.09297306520256" lon="15.372921281170775"><ele>165.0</ele><time>2026-04-26T07:07:42Z</time></trkpt><trkpt lat="40.09298088513606" lon="15.373091633928821"><ele>165.0</ele><time>2026-04-26T07:07:43Z</time></trkpt><trkpt lat="40.09298328008535" lon="15.37323218594879"><ele>165.0</ele><time>2026-04-26T07:07:44Z</time></trkpt><trkpt lat="40.0929904846768" lon="15.373367385124041"><ele>166.25</ele><time>2026-04-26T07:07:45Z</time></trkpt><trkpt lat="40.09300340682114" lon="15.373531549467643"><ele>167.5</ele><time>2026-04-26T07:07:46Z</time></trkpt><trkpt lat="40.093027813300075" lon="15.373706087586012"><ele>168.75</ele><time>2026-04-26T07:07:47Z</time></trkpt><trkpt lat="40.093071327611625" lon="15.373858535192257"><ele>170.0</ele><time>2026-04-26T07:07:48Z</time></trkpt><trkpt lat="40.093126977967" lon="15.374011467576022"><ele>170.2</ele><time>2026-04-26T07:07:49Z</time></trkpt><trkpt lat="40.09317053693326" lon="15.374159787660632"><ele>170.4</ele><time>2026-04-26T07:07:50Z</time></trkpt><trkpt lat="40.09320239800541" lon="15.37429697229487"><ele>170.60000000000002</ele><time>2026-04-26T07:07:51Z</time></trkpt><trkpt lat="40.09323466505523" lon="15.374434513737226"><ele>170.8</ele><time>2026-04-26T07:07:52Z</time></trkpt><trkpt lat="40.09325818927152" lon="15.374558448337085"><ele>171.0</ele><time>2026-04-26T07:07:53Z</time></trkpt><trkpt lat="40.093275361074326" lon="15.37469467858115"><ele>170.5</ele><time>2026-04-26T07:07:54Z</time></trkpt><trkpt lat="40.09328494171168" lon="15.374837623706485"><ele>170.0</ele><time>2026-04-26T07:07:55Z</time></trkpt><trkpt lat="40.093270773113126" lon="15.374981930721185"><ele>169.5</ele><time>2026-04-26T07:07:56Z</time></trkpt><trkpt lat="40.09324681353928" lon="15.375138583240378"><ele>169.0</ele><time>2026-04-26T07:07:57Z</time></trkpt><trkpt lat="40.093205796172995" lon="15.375310221423655"><ele>170.5</ele><time>2026-04-26T07:07:58Z</time></trkpt><trkpt lat="40.093204822747104" lon="15.37546640879373"><ele>172.0</ele><time>2026-04-26T07:07:59Z</time></trkpt><trkpt lat="40.093217391841485" lon="15.375636337537545"><ele>173.5</ele><time>2026-04-26T07:08:00Z</time></trkpt><trkpt lat="40.093239970256555" lon="15.37581772332475"><ele>175.0</ele><time>2026-04-26T07:08:01Z</time></trkpt><trkpt lat="40.0932622005831" lon="15.375974539851269"><ele>176.4</ele><time>2026-04-26T07:08:02Z</time></trkpt><trkpt lat="40.093230741759726" lon="15.376110281404117"><ele>177.8</ele><time>2026-04-26T07:08:03Z</time></trkpt><trkpt lat="40.09322616988559" lon="15.37625599174627"><ele>179.2</ele><time>2026-04-26T07:08:04Z</time></trkpt><trkpt lat="40.09323983370289" lon="15.376412739885307"><ele>180.6</ele><time>2026-04-26T07:08:05Z</time></trkpt><trkpt lat="40.09324707234789" lon="15.376553014892242"><ele>182.0</ele><time>2026-04-26T07:08:06Z</time></trkpt><trkpt lat="40.09323026904428" lon="15.376678982332821"><ele>182.16666666666666</ele><time>2026-04-26T07:08:07Z</time></trkpt><trkpt lat="40.09326542195049" lon="15.37681413627917"><ele>182.33333333333331</ele><time>2026-04-26T07:08:08Z</time></trkpt><trkpt lat="40.09328557782364" lon="15.376936193374876"><ele>182.5</ele><time>2026-04-26T07:08:09Z</time></trkpt><trkpt lat="40.09330457763931" lon="15.377037150336232"><ele>182.66666666666666</ele><time>2026-04-26T07:08:10Z</time></trkpt><trkpt lat="40.093311512929354" lon="15.377136715191513"><ele>182.83333333333334</ele><time>2026-04-26T07:08:11Z</time></trkpt><trkpt lat="40.09325410250106" lon="15.377201716779904"><ele>183.0</ele><time>2026-04-26T07:08:12Z</time></trkpt><trkpt lat="40.09322391520901" lon="15.377313817813704"><ele>187.25</ele><time>2026-04-26T07:08:13Z</time></trkpt><trkpt lat="40.093206496730204" lon="15.377468677109503"><ele>191.5</ele><time>2026-04-26T07:08:14Z</time></trkpt><trkpt lat="40.09316772508263" lon="15.377642701292404"><ele>195.75</ele><time>2026-04-26T07:08:15Z</time></trkpt><trkpt lat="40.09311268160971" lon="15.377816223381371"><ele>200.0</ele><time>2026-04-26T07:08:16Z</time></trkpt><trkpt lat="40.09308006210576" lon="15.377971144949528"><ele>200.00000000000003</ele><time>2026-04-26T07:08:17Z</time></trkpt><trkpt lat="40.093057210693765" lon="15.378083513855474"><ele>200.0</ele><time>2026-04-26T07:08:18Z</time></trkpt><trkpt lat="40.09303559547655" lon="15.378188301844125"><ele>200.0</ele><time>2026-04-26T07:08:19Z</time></trkpt><trkpt lat="40.09302779298726" lon="15.378277193315867"><ele>200.0</ele><time>2026-04-26T07:08:20Z</time></trkpt><trkpt lat="40.092963442160375" lon="15.378318816354543"><ele>200.00000000000003</ele><time>2026-04-26T07:08:21Z</time></trkpt><trkpt lat="40.09290396080674" lon="15.378385454364034"><ele>200.0</ele><time>2026-04-26T07:08:22Z</time></trkpt><trkpt lat="40.092827674915505" lon="15.378471046583812"><ele>200.0</ele><time>2026-04-26T07:08:23Z</time></trkpt><trkpt lat="40.09273716801448" lon="15.37857523442824"><ele>200.0</ele><time>2026-04-26T07:08:24Z</time></trkpt><trkpt lat="40.09262471356405" lon="15.378707862870229"><ele>200.0</ele><time>2026-04-26T07:08:25Z</time></trkpt><trkpt lat="40.09249928966883" lon="15.378851212960683"><ele>200.0</ele><time>2026-04-26T07:08:26Z</time></trkpt><trkpt lat="40.09236002789239" lon="15.379005402214428"><ele>202.25</ele><time>2026-04-26T07:08:27Z</time></trkpt><trkpt lat="40.09223569201574" lon="15.379143568711903"><ele>204.5</ele><time>2026-04-26T07:08:28Z</time></trkpt><trkpt lat="40.09212596738314" lon="15.379265498675005"><ele>206.75</ele><time>2026-04-26T07:08:29Z</time></trkpt><trkpt lat="40.092027011625596" lon="15.3793774338883"><ele>209.0</ele><time>2026-04-26T07:08:30Z</time></trkpt><trkpt lat="40.09192544090324" lon="15.379496379183472"><ele>209.0</ele><time>2026-04-26T07:08:31Z</time></trkpt><trkpt lat="40.091815738568556" lon="15.379625671701195"><ele>209.0</ele><time>2026-04-26T07:08:32Z</time></trkpt><trkpt lat="40.09172631712067" lon="15.37973458717773"><ele>209.0</ele><time>2026-04-26T07:08:33Z</time></trkpt><trkpt lat="40.091649034594305" lon="15.379824857927455"><ele>209.0</ele><time>2026-04-26T07:08:34Z</time></trkpt><trkpt lat="40.09156988055961" lon="15.379899899768088"><ele>209.75</ele><time>2026-04-26T07:08:35Z</time></trkpt><trkpt lat="40.091469549099564" lon="15.379978508217613"><ele>210.5</ele><time>2026-04-26T07:08:36Z</time></trkpt><trkpt lat="40.0913976072056" lon="15.380169692942212"><ele>211.25</ele><time>2026-04-26T07:08:37Z</time></trkpt><trkpt lat="40.0913013338604" lon="15.380346804190557"><ele>212.0</ele><time>2026-04-26T07:08:38Z</time></trkpt><trkpt lat="40.09120648368127" lon="15.380524320037836"><ele>212.0</ele><time>2026-04-26T07:08:39Z</time></trkpt><trkpt lat="40.09113280815179" lon="15.380687873239719"><ele>212.0</ele><time>2026-04-26T07:08:40Z</time></trkpt><trkpt lat="40.09107498772652" lon="15.380840381585047"><ele>212.0</ele><time>2026-04-26T07:08:40.999Z</time></trkpt><trkpt lat="40.091025127787994" lon="15.380998180222463"><ele>212.0</ele><time>2026-04-26T07:08:41.999Z</time></trkpt><trkpt lat="40.090990663259376" lon="15.381177143636393"><ele>212.0</ele><time>2026-04-26T07:08:42.999Z</time></trkpt><trkpt lat="40.090944861035176" lon="15.381346811613259"><ele>212.0</ele><time>2026-04-26T07:08:43.999Z</time></trkpt><trkpt lat="40.090885983956426" lon="15.381509274251385"><ele>212.0</ele><time>2026-04-26T07:08:44.999Z</time></trkpt><trkpt lat="40.090846985654686" lon="15.381687461555252"><ele>212.0</ele><time>2026-04-26T07:08:45.999Z</time></trkpt><trkpt lat="40.09081328240667" lon="15.38187095079104"><ele>211.0</ele><time>2026-04-26T07:08:46.999Z</time></trkpt><trkpt lat="40.09077864478169" lon="15.382069680395137"><ele>210.0</ele><time>2026-04-26T07:08:47.999Z</time></trkpt><trkpt lat="40.090745732404756" lon="15.382285468605533"><ele>209.0</ele><time>2026-04-26T07:08:48.999Z</time></trkpt><trkpt lat="40.090722239543226" lon="15.38248127395403"><ele>214.25</ele><time>2026-04-26T07:08:49.999Z</time></trkpt><trkpt lat="40.090700518138085" lon="15.382667521080451"><ele>219.5</ele><time>2026-04-26T07:08:50.999Z</time></trkpt><trkpt lat="40.090679457987285" lon="15.382848098370385"><ele>224.75</ele><time>2026-04-26T07:08:51.999Z</time></trkpt><trkpt lat="40.090655624254815" lon="15.383023053414044"><ele>230.0</ele><time>2026-04-26T07:08:52.999Z</time></trkpt><trkpt lat="40.09065126748863" lon="15.383197703427415"><ele>230.25</ele><time>2026-04-26T07:08:53.999Z</time></trkpt><trkpt lat="40.09067347843972" lon="15.383370005716687"><ele>230.5</ele><time>2026-04-26T07:08:54.999Z</time></trkpt><trkpt lat="40.090660898360355" lon="15.3835362263547"><ele>230.75</ele><time>2026-04-26T07:08:55.999Z</time></trkpt><trkpt lat="40.09065128474738" lon="15.383715914597973"><ele>231.0</ele><time>2026-04-26T07:08:56.999Z</time></trkpt><trkpt lat="40.09065862724433" lon="15.383892114326931"><ele>232.66666666666669</ele><time>2026-04-26T07:08:57.999Z</time></trkpt><trkpt lat="40.0906658156182" lon="15.384083729755346"><ele>234.33333333333334</ele><time>2026-04-26T07:08:58.999Z</time></trkpt><trkpt lat="40.09066573937299" lon="15.384290817245565"><ele>236.0</ele><time>2026-04-26T07:08:59.999Z</time></trkpt><trkpt lat="40.09066865281263" lon="15.38450348010074"><ele>237.75</ele><time>2026-04-26T07:09:00.999Z</time></trkpt><trkpt lat="40.09068086586574" lon="15.38470740674153"><ele>239.5</ele><time>2026-04-26T07:09:01.999Z</time></trkpt><trkpt lat="40.09069558037922" lon="15.38489461102684"><ele>241.25</ele><time>2026-04-26T07:09:02.999Z</time></trkpt><trkpt lat="40.09072122429228" lon="15.385048300304385"><ele>243.0</ele><time>2026-04-26T07:09:03.999Z</time></trkpt><trkpt lat="40.0907638469792" lon="15.385163024530177"><ele>238.0</ele><time>2026-04-26T07:09:04.999Z</time></trkpt><trkpt lat="40.090797488635424" lon="15.385265441405563"><ele>233.0</ele><time>2026-04-26T07:09:05.999Z</time></trkpt><trkpt lat="40.09084164594907" lon="15.385386632949828"><ele>228.0</ele><time>2026-04-26T07:09:06.999Z</time></trkpt><trkpt lat="40.09089988614832" lon="15.385568172344188"><ele>223.0</ele><time>2026-04-26T07:09:07.999Z</time></trkpt><trkpt lat="40.09097317616645" lon="15.385733457370309"><ele>223.0</ele><time>2026-04-26T07:09:08.999Z</time></trkpt><trkpt lat="40.09104340866953" lon="15.38587842254711"><ele>223.0</ele><time>2026-04-26T07:09:09.999Z</time></trkpt><trkpt lat="40.09110718055005" lon="15.385990256440191"><ele>223.0</ele><time>2026-04-26T07:09:10.999Z</time></trkpt><trkpt lat="40.09117679845292" lon="15.386120810158978"><ele>223.0</ele><time>2026-04-26T07:09:11.999Z</time></trkpt><trkpt lat="40.09123350933458" lon="15.386264767463286"><ele>224.2</ele><time>2026-04-26T07:09:12.999Z</time></trkpt><trkpt lat="40.09130499447444" lon="15.386360733074522"><ele>225.4</ele><time>2026-04-26T07:09:13.999Z</time></trkpt><trkpt lat="40.091355806180346" lon="15.386457104162671"><ele>226.59999999999997</ele><time>2026-04-26T07:09:14.999Z</time></trkpt><trkpt lat="40.09139203136218" lon="15.386529527731268"><ele>227.79999999999998</ele><time>2026-04-26T07:09:16Z</time></trkpt><trkpt lat="40.09134962250448" lon="15.386667297840994"><ele>229.0</ele><time>2026-04-26T07:09:18Z</time></trkpt><trkpt lat="40.09135359478333" lon="15.386780867572227"><ele>229.0</ele><time>2026-04-26T07:09:19Z</time></trkpt><trkpt lat="40.091391071355154" lon="15.386897832085602"><ele>228.99999999999997</ele><time>2026-04-26T07:09:20Z</time></trkpt><trkpt lat="40.09143046769154" lon="15.387002908087151"><ele>228.99999999999997</ele><time>2026-04-26T07:09:21Z</time></trkpt><trkpt lat="40.09149270037519" lon="15.387089403166883"><ele>229.0</ele><time>2026-04-26T07:09:22Z</time></trkpt><trkpt lat="40.09155193257293" lon="15.3871476634848"><ele>229.0</ele><time>2026-04-26T07:09:23Z</time></trkpt><trkpt lat="40.091622868775154" lon="15.387237981596975"><ele>226.25</ele><time>2026-04-26T07:09:25Z</time></trkpt><trkpt lat="40.09165704200817" lon="15.387348627685673"><ele>223.5</ele><time>2026-04-26T07:09:28Z</time></trkpt><trkpt lat="40.09163010313279" lon="15.38746069600311"><ele>220.75</ele><time>2026-04-26T07:09:29Z</time></trkpt><trkpt lat="40.09161752644621" lon="15.387621603912173"><ele>218.0</ele><time>2026-04-26T07:09:30Z</time></trkpt><trkpt lat="40.09159074449773" lon="15.387816457934049"><ele>226.0</ele><time>2026-04-26T07:09:31Z</time></trkpt><trkpt lat="40.09153023026541" lon="15.388029877056676"><ele>234.0</ele><time>2026-04-26T07:09:32Z</time></trkpt><trkpt lat="40.09149892214805" lon="15.388227447243574"><ele>242.0</ele><time>2026-04-26T07:09:33Z</time></trkpt><trkpt lat="40.09147747004306" lon="15.388372837495956"><ele>250.0</ele><time>2026-04-26T07:09:34Z</time></trkpt><trkpt lat="40.09147559999176" lon="15.388482064097808"><ele>250.0</ele><time>2026-04-26T07:09:35Z</time></trkpt><trkpt lat="40.09148320683949" lon="15.388573532778688"><ele>250.0</ele><time>2026-04-26T07:09:36Z</time></trkpt><trkpt lat="40.09154707375766" lon="15.388712664027338"><ele>250.0</ele><time>2026-04-26T07:09:38Z</time></trkpt><trkpt lat="40.09164906926764" lon="15.388774266302134"><ele>250.0</ele><time>2026-04-26T07:09:39Z</time></trkpt><trkpt lat="40.091760405799405" lon="15.388799777552263"><ele>250.0</ele><time>2026-04-26T07:09:40Z</time></trkpt><trkpt lat="40.09182258514328" lon="15.388857341333521"><ele>249.33333333333331</ele><time>2026-04-26T07:09:41Z</time></trkpt><trkpt lat="40.0918422520045" lon="15.388950219595856"><ele>248.66666666666666</ele><time>2026-04-26T07:09:42Z</time></trkpt><trkpt lat="40.09183131148147" lon="15.389069724158777"><ele>248.0</ele><time>2026-04-26T07:09:43Z</time></trkpt><trkpt lat="40.09179404777398" lon="15.389179652829695"><ele>247.33333333333331</ele><time>2026-04-26T07:09:44Z</time></trkpt><trkpt lat="40.09170975790923" lon="15.389082803233725"><ele>246.66666666666666</ele><time>2026-04-26T07:10:04Z</time></trkpt><trkpt lat="40.09164563931926" lon="15.389048248902997"><ele>246.0</ele><time>2026-04-26T07:10:05Z</time></trkpt><trkpt lat="40.09156893690544" lon="15.389026394223686"><ele>248.66666666666666</ele><time>2026-04-26T07:10:06Z</time></trkpt><trkpt lat="40.091491702650906" lon="15.38903524986465"><ele>251.33333333333331</ele><time>2026-04-26T07:10:07Z</time></trkpt><trkpt lat="40.09141178530048" lon="15.389083714542368"><ele>254.0</ele><time>2026-04-26T07:10:08Z</time></trkpt><trkpt lat="40.091335543386215" lon="15.38912741819043"><ele>256.66666666666663</ele><time>2026-04-26T07:10:09Z</time></trkpt><trkpt lat="40.09124710404563" lon="15.389179061315255"><ele>259.3333333333333</ele><time>2026-04-26T07:10:11Z</time></trkpt><trkpt lat="40.09116771453888" lon="15.38924123686949"><ele>262.0</ele><time>2026-04-26T07:10:13Z</time></trkpt><trkpt lat="40.09106326171106" lon="15.389267030743746"><ele>262.0</ele><time>2026-04-26T07:10:15Z</time></trkpt><trkpt lat="40.090954943605354" lon="15.389315632474247"><ele>262.0</ele><time>2026-04-26T07:10:17Z</time></trkpt><trkpt lat="40.09089239428055" lon="15.389363166869211"><ele>262.0</ele><time>2026-04-26T07:10:18Z</time></trkpt><trkpt lat="40.09082156308053" lon="15.38939542851348"><ele>262.0</ele><time>2026-04-26T07:10:19Z</time></trkpt><trkpt lat="40.09075128141292" lon="15.389426449346944"><ele>262.0</ele><time>2026-04-26T07:10:20Z</time></trkpt><trkpt lat="40.09068112696106" lon="15.389458433192207"><ele>262.0</ele><time>2026-04-26T07:10:21Z</time></trkpt><trkpt lat="40.090610416771945" lon="15.389495560561377"><ele>264.3333333333333</ele><time>2026-04-26T07:10:22Z</time></trkpt><trkpt lat="40.09054471231438" lon="15.389535966077045"><ele>266.66666666666663</ele><time>2026-04-26T07:10:23Z</time></trkpt><trkpt lat="40.09045458435451" lon="15.389570735560318"><ele>269.0</ele><time>2026-04-26T07:10:25Z</time></trkpt><trkpt lat="40.090394529247114" lon="15.389608270009235"><ele>271.3333333333333</ele><time>2026-04-26T07:10:28Z</time></trkpt><trkpt lat="40.090343803193754" lon="15.389686737669814"><ele>273.6666666666667</ele><time>2026-04-26T07:11:07.999Z</time></trkpt><trkpt lat="40.09028037230797" lon="15.389717718020659"><ele>276.0</ele><time>2026-04-26T07:11:08.999Z</time></trkpt><trkpt lat="40.09018931239293" lon="15.389770052197997"><ele>276.0</ele><time>2026-04-26T07:11:09.999Z</time></trkpt><trkpt lat="40.09009990934683" lon="15.389821830278624"><ele>276.0</ele><time>2026-04-26T07:11:10.999Z</time></trkpt><trkpt lat="40.09000494895705" lon="15.389843904870373"><ele>276.0</ele><time>2026-04-26T07:11:11.999Z</time></trkpt><trkpt lat="40.089903992921684" lon="15.38990463480471"><ele>276.0</ele><time>2026-04-26T07:11:13.999Z</time></trkpt><trkpt lat="40.089784391618146" lon="15.389974999988201"><ele>276.0</ele><time>2026-04-26T07:11:15.999Z</time></trkpt><trkpt lat="40.08972126157658" lon="15.39001251824568"><ele>279.5</ele><time>2026-04-26T07:11:16.999Z</time></trkpt><trkpt lat="40.08961965746007" lon="15.39009719494313"><ele>283.0</ele><time>2026-04-26T07:11:18.999Z</time></trkpt><trkpt lat="40.089570793286384" lon="15.39015128294248"><ele>286.5</ele><time>2026-04-26T07:11:19.999Z</time></trkpt><trkpt lat="40.089517632513726" lon="15.390214556092474"><ele>290.0</ele><time>2026-04-26T07:11:20.999Z</time></trkpt><trkpt lat="40.08945929766444" lon="15.390290852026055"><ele>293.5</ele><time>2026-04-26T07:11:22.001Z</time></trkpt><trkpt lat="40.08938602334691" lon="15.390388421169453"><ele>297.0</ele><time>2026-04-26T07:11:23.001Z</time></trkpt><trkpt lat="40.08928783901356" lon="15.390520994469144"><ele>297.0</ele><time>2026-04-26T07:11:24.001Z</time></trkpt><trkpt lat="40.089206888311196" lon="15.390661226209506"><ele>297.0</ele><time>2026-04-26T07:11:25.001Z</time></trkpt><trkpt lat="40.08911619077368" lon="15.390762393958646"><ele>297.0</ele><time>2026-04-26T07:11:26.001Z</time></trkpt><trkpt lat="40.08904093294647" lon="15.390876682065674"><ele>297.0</ele><time>2026-04-26T07:11:27.001Z</time></trkpt><trkpt lat="40.08898163945469" lon="15.391009649994212"><ele>301.75</ele><time>2026-04-26T07:11:28.001Z</time></trkpt><trkpt lat="40.08889583595408" lon="15.391132346617873"><ele>306.5</ele><time>2026-04-26T07:11:29.001Z</time></trkpt><trkpt lat="40.08882670289705" lon="15.391279529869207"><ele>311.25</ele><time>2026-04-26T07:11:30.001Z</time></trkpt><trkpt lat="40.08877005341379" lon="15.391402269019142"><ele>316.0</ele><time>2026-04-26T07:11:31.001Z</time></trkpt><trkpt lat="40.08872611764917" lon="15.39149771995313"><ele>317.8333333333333</ele><time>2026-04-26T07:11:32.001Z</time></trkpt><trkpt lat="40.08868958424508" lon="15.391577089137773"><ele>319.66666666666663</ele><time>2026-04-26T07:11:33.001Z</time></trkpt><trkpt lat="40.08864113859054" lon="15.391691447315454"><ele>321.5</ele><time>2026-04-26T07:11:35.001Z</time></trkpt><trkpt lat="40.0885593181901" lon="15.391674332218486"><ele>323.3333333333333</ele><time>2026-04-26T07:11:37.001Z</time></trkpt><trkpt lat="40.0885024357237" lon="15.391621302037327"><ele>325.1666666666667</ele><time>2026-04-26T07:11:38.001Z</time></trkpt><trkpt lat="40.08843198827453" lon="15.391585880031865"><ele>327.0</ele><time>2026-04-26T07:11:40Z</time></trkpt><trkpt lat="40.08837272408048" lon="15.391661750997567"><ele>327.0</ele><time>2026-04-26T07:11:42Z</time></trkpt><trkpt lat="40.088318101513686" lon="15.3917550381383"><ele>327.0</ele><time>2026-04-26T07:11:43Z</time></trkpt><trkpt lat="40.088287425262855" lon="15.391881214369402"><ele>327.0</ele><time>2026-04-26T07:11:44Z</time></trkpt><trkpt lat="40.08825331168174" lon="15.3919850442622"><ele>327.0</ele><time>2026-04-26T07:11:45Z</time></trkpt><trkpt lat="40.08821804405199" lon="15.392097114296062"><ele>327.0</ele><time>2026-04-26T07:11:46Z</time></trkpt><trkpt lat="40.088190185149365" lon="15.392185641666332"><ele>327.0</ele><time>2026-04-26T07:11:47Z</time></trkpt><trkpt lat="40.08815948601097" lon="15.392348986011601"><ele>329.3333333333333</ele><time>2026-04-26T07:11:49Z</time></trkpt><trkpt lat="40.0881577817637" lon="15.392450239336576"><ele>331.6666666666667</ele><time>2026-04-26T07:11:50Z</time></trkpt><trkpt lat="40.08816438496021" lon="15.392553170009537"><ele>334.0</ele><time>2026-04-26T07:11:51Z</time></trkpt><trkpt lat="40.088178881165454" lon="15.392648367785373"><ele>336.33333333333337</ele><time>2026-04-26T07:11:52Z</time></trkpt><trkpt lat="40.088210957411" lon="15.39275127913852"><ele>338.6666666666667</ele><time>2026-04-26T07:11:53Z</time></trkpt><trkpt lat="40.088258828970346" lon="15.39284758800488"><ele>341.0</ele><time>2026-04-26T07:11:54Z</time></trkpt><trkpt lat="40.08831822940279" lon="15.392935529672979"><ele>341.83333333333337</ele><time>2026-04-26T07:11:55Z</time></trkpt><trkpt lat="40.08838697082784" lon="15.393017635534786"><ele>342.6666666666667</ele><time>2026-04-26T07:11:56Z</time></trkpt><trkpt lat="40.088451981086095" lon="15.393082010202368"><ele>343.5</ele><time>2026-04-26T07:11:57Z</time></trkpt><trkpt lat="40.08849417893596" lon="15.393165244699272"><ele>344.3333333333333</ele><time>2026-04-26T07:11:58Z</time></trkpt><trkpt lat="40.08855430132621" lon="15.393254634053452"><ele>345.16666666666663</ele><time>2026-04-26T07:11:59Z</time></trkpt><trkpt lat="40.088591599383285" lon="15.393327099399007"><ele>346.0</ele><time>2026-04-26T07:12:00Z</time></trkpt><trkpt lat="40.08860982083852" lon="15.39341182617586"><ele>346.0</ele><time>2026-04-26T07:12:01Z</time></trkpt><trkpt lat="40.08859022803107" lon="15.393500707330487"><ele>346.0</ele><time>2026-04-26T07:12:02Z</time></trkpt><trkpt lat="40.08851652078292" lon="15.393578572698717"><ele>346.0</ele><time>2026-04-26T07:12:03Z</time></trkpt><trkpt lat="40.08845485869524" lon="15.393692358418587"><ele>346.0</ele><time>2026-04-26T07:12:04Z</time></trkpt><trkpt lat="40.08837670061246" lon="15.393829960264343"><ele>346.0</ele><time>2026-04-26T07:12:05Z</time></trkpt><trkpt lat="40.08830273436461" lon="15.393937805348603"><ele>350.20000000000005</ele><time>2026-04-26T07:12:06Z</time></trkpt><trkpt lat="40.08824380733156" lon="15.394010356700283"><ele>354.40000000000003</ele><time>2026-04-26T07:12:07Z</time></trkpt><trkpt lat="40.08814103604385" lon="15.394121638849146"><ele>358.6</ele><time>2026-04-26T07:12:09Z</time></trkpt><trkpt lat="40.08809005987394" lon="15.394198786690849"><ele>362.8</ele><time>2026-04-26T07:12:10Z</time></trkpt><trkpt lat="40.088043768627564" lon="15.394259379567695"><ele>367.0</ele><time>2026-04-26T07:12:11Z</time></trkpt><trkpt lat="40.08795691411545" lon="15.394218449636778"><ele>367.0</ele><time>2026-04-26T07:12:13Z</time></trkpt><trkpt lat="40.087892876712075" lon="15.39418182267668"><ele>367.0</ele><time>2026-04-26T07:12:14Z</time></trkpt><trkpt lat="40.08782155568322" lon="15.394128912204279"><ele>367.0</ele><time>2026-04-26T07:12:15Z</time></trkpt><trkpt lat="40.087755372388536" lon="15.394076264396789"><ele>367.0</ele><time>2026-04-26T07:12:17Z</time></trkpt><trkpt lat="40.08763069620651" lon="15.394208504004945"><ele>367.0</ele><time>2026-04-26T07:12:19Z</time></trkpt><trkpt lat="40.08757112942226" lon="15.39426028638408"><ele>367.0</ele><time>2026-04-26T07:12:20Z</time></trkpt><trkpt lat="40.08751322555165" lon="15.394315493389517"><ele>367.0</ele><time>2026-04-26T07:12:21Z</time></trkpt><trkpt lat="40.08746247178317" lon="15.394366474275389"><ele>367.0</ele><time>2026-04-26T07:12:22Z</time></trkpt><trkpt lat="40.08740890271433" lon="15.39446412520912"><ele>367.0</ele><time>2026-04-26T07:12:24Z</time></trkpt><trkpt lat="40.087393255870396" lon="15.394543977503218"><ele>367.0</ele><time>2026-04-26T07:12:25Z</time></trkpt><trkpt lat="40.087363792928066" lon="15.394709926864198"><ele>367.0</ele><time>2026-04-26T07:12:27Z</time></trkpt><trkpt lat="40.08735245897881" lon="15.39482434816736"><ele>375.6</ele><time>2026-04-26T07:12:28Z</time></trkpt><trkpt lat="40.08733634173104" lon="15.394942337579735"><ele>384.20000000000005</ele><time>2026-04-26T07:12:29Z</time></trkpt><trkpt lat="40.08732736825845" lon="15.395065723957952"><ele>392.8</ele><time>2026-04-26T07:12:30Z</time></trkpt><trkpt lat="40.08736177950025" lon="15.395226956675343"><ele>401.4</ele><time>2026-04-26T07:12:31Z</time></trkpt><trkpt lat="40.087387397006154" lon="15.395379993755213"><ele>410.0</ele><time>2026-04-26T07:12:32Z</time></trkpt><trkpt lat="40.087393731609396" lon="15.395525742794904"><ele>410.0</ele><time>2026-04-26T07:12:33Z</time></trkpt><trkpt lat="40.08737758177493" lon="15.395675474424902"><ele>410.0</ele><time>2026-04-26T07:12:34Z</time></trkpt><trkpt lat="40.087354184370234" lon="15.395829197565588"><ele>410.0</ele><time>2026-04-26T07:12:35Z</time></trkpt><trkpt lat="40.08733362901233" lon="15.396009884799913"><ele>410.0</ele><time>2026-04-26T07:12:36Z</time></trkpt><trkpt lat="40.08733238989633" lon="15.396210814211306"><ele>409.75</ele><time>2026-04-26T07:12:37Z</time></trkpt><trkpt lat="40.08734504567424" lon="15.396402907985886"><ele>409.5</ele><time>2026-04-26T07:12:38Z</time></trkpt><trkpt lat="40.08735359439192" lon="15.396569154429915"><ele>409.25</ele><time>2026-04-26T07:12:39Z</time></trkpt><trkpt lat="40.08735022018628" lon="15.396716349579545"><ele>409.0</ele><time>2026-04-26T07:12:40Z</time></trkpt><trkpt lat="40.08734621035288" lon="15.396844168988682"><ele>409.0</ele><time>2026-04-26T07:12:41Z</time></trkpt><trkpt lat="40.087338289241146" lon="15.396966685061022"><ele>409.0</ele><time>2026-04-26T07:12:42Z</time></trkpt><trkpt lat="40.08731385885584" lon="15.39708626390996"><ele>409.0</ele><time>2026-04-26T07:12:43Z</time></trkpt><trkpt lat="40.08727388240921" lon="15.39720974324841"><ele>409.0</ele><time>2026-04-26T07:12:44Z</time></trkpt><trkpt lat="40.08719719873179" lon="15.39732269273139"><ele>409.0</ele><time>2026-04-26T07:12:45Z</time></trkpt><trkpt lat="40.08718041218999" lon="15.3974752019313"><ele>409.6666666666667</ele><time>2026-04-26T07:12:46Z</time></trkpt><trkpt lat="40.08719351862904" lon="15.39764426285204"><ele>410.33333333333337</ele><time>2026-04-26T07:12:47Z</time></trkpt><trkpt lat="40.08720417829539" lon="15.397859084334526"><ele>411.0</ele><time>2026-04-26T07:12:48Z</time></trkpt><trkpt lat="40.087209115052644" lon="15.398089380790873"><ele>411.0</ele><time>2026-04-26T07:12:49Z</time></trkpt><trkpt lat="40.08721883766104" lon="15.398331275911117"><ele>411.0</ele><time>2026-04-26T07:12:50Z</time></trkpt><trkpt lat="40.08723081031772" lon="15.39862487893246"><ele>411.0</ele><time>2026-04-26T07:12:51Z</time></trkpt><trkpt lat="40.08723764366901" lon="15.398890328308257"><ele>413.66666666666663</ele><time>2026-04-26T07:12:52Z</time></trkpt><trkpt lat="40.087236437368354" lon="15.399110179167433"><ele>416.3333333333333</ele><time>2026-04-26T07:12:53Z</time></trkpt><trkpt lat="40.08723376050759" lon="15.39929183820265"><ele>419.0</ele><time>2026-04-26T07:12:54Z</time></trkpt><trkpt lat="40.08723217149549" lon="15.399489665904824"><ele>419.75</ele><time>2026-04-26T07:12:55Z</time></trkpt><trkpt lat="40.08724464873724" lon="15.39969018799553"><ele>420.5</ele><time>2026-04-26T07:12:56Z</time></trkpt><trkpt lat="40.08727224448532" lon="15.399869119447034"><ele>421.25</ele><time>2026-04-26T07:12:57Z</time></trkpt><trkpt lat="40.087323798182176" lon="15.400031633073711"><ele>422.0</ele><time>2026-04-26T07:12:58Z</time></trkpt><trkpt lat="40.087379318102144" lon="15.400180235193611"><ele>422.0</ele><time>2026-04-26T07:12:59Z</time></trkpt><trkpt lat="40.087387816995694" lon="15.400325979316456"><ele>422.0</ele><time>2026-04-26T07:12:59.999Z</time></trkpt><trkpt lat="40.08739375218454" lon="15.400489842781495"><ele>422.0</ele><time>2026-04-26T07:13:00.999Z</time></trkpt><trkpt lat="40.08744169453467" lon="15.40063513417467"><ele>422.0</ele><time>2026-04-26T07:13:01.999Z</time></trkpt><trkpt lat="40.08750425454098" lon="15.40077704397561"><ele>409.0</ele><time>2026-04-26T07:13:02.999Z</time></trkpt><trkpt lat="40.08758178699412" lon="15.40094294935792"><ele>396.0</ele><time>2026-04-26T07:13:03.999Z</time></trkpt><trkpt lat="40.087669545851654" lon="15.401104766203664"><ele>383.0</ele><time>2026-04-26T07:13:04.999Z</time></trkpt><trkpt lat="40.08777620952032" lon="15.401221673065024"><ele>370.0</ele><time>2026-04-26T07:13:05.999Z</time></trkpt><trkpt lat="40.087880308820694" lon="15.401347670012088"><ele>370.0</ele><time>2026-04-26T07:13:06.999Z</time></trkpt><trkpt lat="40.087982774364725" lon="15.401452524752958"><ele>370.0</ele><time>2026-04-26T07:13:07.999Z</time></trkpt><trkpt lat="40.088067334326645" lon="15.401538456115754"><ele>370.0</ele><time>2026-04-26T07:13:08.999Z</time></trkpt><trkpt lat="40.088129984639195" lon="15.401609334409219"><ele>370.0</ele><time>2026-04-26T07:13:09.999Z</time></trkpt><trkpt lat="40.088174975989716" lon="15.401682366141271"><ele>370.0</ele><time>2026-04-26T07:13:10.999Z</time></trkpt><trkpt lat="40.088173075924914" lon="15.401792567896292"><ele>370.0</ele><time>2026-04-26T07:13:12.999Z</time></trkpt><trkpt lat="40.08811566183302" lon="15.401918403863364"><ele>370.0</ele><time>2026-04-26T07:13:15.999Z</time></trkpt><trkpt lat="40.088050875263065" lon="15.40198199523218"><ele>370.0</ele><time>2026-04-26T07:13:16.999Z</time></trkpt><trkpt lat="40.088024207437385" lon="15.40208419917655"><ele>370.0</ele><time>2026-04-26T07:13:17.999Z</time></trkpt><trkpt lat="40.08802444499657" lon="15.402185513192466"><ele>370.0</ele><time>2026-04-26T07:13:18.999Z</time></trkpt><trkpt lat="40.088045474373786" lon="15.402300734706344"><ele>370.0</ele><time>2026-04-26T07:13:19.999Z</time></trkpt><trkpt lat="40.08804648879738" lon="15.40243167095989"><ele>371.0</ele><time>2026-04-26T07:13:20.999Z</time></trkpt><trkpt lat="40.088080548375416" lon="15.402555283335376"><ele>372.0</ele><time>2026-04-26T07:13:21.999Z</time></trkpt><trkpt lat="40.08808368020085" lon="15.402663625929797"><ele>373.0</ele><time>2026-04-26T07:13:22.999Z</time></trkpt><trkpt lat="40.08803168822884" lon="15.402807263134793"><ele>374.0</ele><time>2026-04-26T07:13:24.999Z</time></trkpt><trkpt lat="40.087927754757374" lon="15.402839288287616"><ele>375.0</ele><time>2026-04-26T07:13:25.999Z</time></trkpt><trkpt lat="40.08783261038173" lon="15.402923475194026"><ele>375.8</ele><time>2026-04-26T07:13:26.999Z</time></trkpt><trkpt lat="40.08774216921852" lon="15.403002116780534"><ele>376.6</ele><time>2026-04-26T07:13:28.001Z</time></trkpt><trkpt lat="40.08768112200254" lon="15.403070426971064"><ele>377.4</ele><time>2026-04-26T07:13:29.001Z</time></trkpt><trkpt lat="40.0876251669336" lon="15.403194971313976"><ele>378.2</ele><time>2026-04-26T07:13:31.001Z</time></trkpt><trkpt lat="40.08757680751242" lon="15.40335039743952"><ele>379.0</ele><time>2026-04-26T07:13:33.001Z</time></trkpt><trkpt lat="40.08756297260341" lon="15.403436485161421"><ele>379.0</ele><time>2026-04-26T07:13:34.001Z</time></trkpt><trkpt lat="40.087548953938914" lon="15.403518169241698"><ele>379.0</ele><time>2026-04-26T07:13:35.001Z</time></trkpt><trkpt lat="40.08752654588089" lon="15.403612586853063"><ele>379.0</ele><time>2026-04-26T07:13:36.001Z</time></trkpt><trkpt lat="40.087530508475254" lon="15.403721922117125"><ele>379.0</ele><time>2026-04-26T07:13:37.001Z</time></trkpt><trkpt lat="40.08755616888851" lon="15.40385470181083"><ele>379.0</ele><time>2026-04-26T07:13:38.001Z</time></trkpt><trkpt lat="40.087559910606245" lon="15.404017915859951"><ele>380.5</ele><time>2026-04-26T07:13:39.001Z</time></trkpt><trkpt lat="40.08756480539708" lon="15.404165513504186"><ele>382.0</ele><time>2026-04-26T07:13:40.001Z</time></trkpt><trkpt lat="40.087555305539524" lon="15.40432192283808"><ele>383.5</ele><time>2026-04-26T07:13:41.001Z</time></trkpt><trkpt lat="40.08751942669024" lon="15.404473654701306"><ele>385.0</ele><time>2026-04-26T07:13:42.001Z</time></trkpt><trkpt lat="40.0874836658363" lon="15.404621821483714"><ele>386.6</ele><time>2026-04-26T07:13:43.001Z</time></trkpt><trkpt lat="40.08748082630982" lon="15.404747390770257"><ele>388.2</ele><time>2026-04-26T07:13:44.001Z</time></trkpt><trkpt lat="40.08746807138053" lon="15.404838724806325"><ele>389.79999999999995</ele><time>2026-04-26T07:13:45Z</time></trkpt><trkpt lat="40.08752124076979" lon="15.40499043974318"><ele>391.4</ele><time>2026-04-26T07:13:47Z</time></trkpt><trkpt lat="40.087555942047906" lon="15.405075152096412"><ele>393.0</ele><time>2026-04-26T07:13:48Z</time></trkpt><trkpt lat="40.087579197430614" lon="15.405233422787159"><ele>393.0</ele><time>2026-04-26T07:13:50Z</time></trkpt><trkpt lat="40.087519322844535" lon="15.405384571190524"><ele>393.0</ele><time>2026-04-26T07:13:51Z</time></trkpt><trkpt lat="40.08743765616044" lon="15.405555516122611"><ele>393.0</ele><time>2026-04-26T07:13:52Z</time></trkpt><trkpt lat="40.08733442627975" lon="15.405763222829876"><ele>399.66666666666663</ele><time>2026-04-26T07:13:53Z</time></trkpt><trkpt lat="40.087264867060455" lon="15.405972597381929"><ele>406.3333333333333</ele><time>2026-04-26T07:13:54Z</time></trkpt><trkpt lat="40.087235119400724" lon="15.406161900799544"><ele>413.0</ele><time>2026-04-26T07:13:55Z</time></trkpt><trkpt lat="40.08718968877635" lon="15.406360957114396"><ele>413.5</ele><time>2026-04-26T07:13:56Z</time></trkpt><trkpt lat="40.08713059862228" lon="15.406547838700138"><ele>414.0</ele><time>2026-04-26T07:13:57Z</time></trkpt><trkpt lat="40.08708511774664" lon="15.406706363860073"><ele>414.5</ele><time>2026-04-26T07:13:58Z</time></trkpt><trkpt lat="40.08705127047321" lon="15.40684621133821"><ele>415.0</ele><time>2026-04-26T07:13:59Z</time></trkpt><trkpt lat="40.086994384642914" lon="15.406942591553765"><ele>415.0</ele><time>2026-04-26T07:14:00Z</time></trkpt><trkpt lat="40.08696572790025" lon="15.407032989747927"><ele>415.0</ele><time>2026-04-26T07:14:01Z</time></trkpt><trkpt lat="40.08687939977839" lon="15.407085414007463"><ele>415.0</ele><time>2026-04-26T07:14:02Z</time></trkpt><trkpt lat="40.08678636136425" lon="15.407154508861824"><ele>415.0</ele><time>2026-04-26T07:14:03Z</time></trkpt><trkpt lat="40.08671718851949" lon="15.407264281594552"><ele>415.0</ele><time>2026-04-26T07:14:04Z</time></trkpt><trkpt lat="40.08667446275633" lon="15.407372679202401"><ele>415.2</ele><time>2026-04-26T07:14:05Z</time></trkpt><trkpt lat="40.08665135593669" lon="15.40748729790938"><ele>415.4</ele><time>2026-04-26T07:14:06Z</time></trkpt><trkpt lat="40.08663849245069" lon="15.407616710488995"><ele>415.6</ele><time>2026-04-26T07:14:07Z</time></trkpt><trkpt lat="40.08663657366793" lon="15.407748905653461"><ele>415.8</ele><time>2026-04-26T07:14:08Z</time></trkpt><trkpt lat="40.08666240107075" lon="15.407885366161041"><ele>416.0</ele><time>2026-04-26T07:14:09Z</time></trkpt><trkpt lat="40.08668061922889" lon="15.40803939687035"><ele>416.75</ele><time>2026-04-26T07:14:10Z</time></trkpt><trkpt lat="40.08670260315134" lon="15.408222245887972"><ele>417.5</ele><time>2026-04-26T07:14:11Z</time></trkpt><trkpt lat="40.08672013690435" lon="15.408412233405258"><ele>418.25</ele><time>2026-04-26T07:14:12Z</time></trkpt><trkpt lat="40.08673301212361" lon="15.408591367641671"><ele>419.0</ele><time>2026-04-26T07:14:13Z</time></trkpt><trkpt lat="40.086722787371386" lon="15.40875708350911"><ele>420.0</ele><time>2026-04-26T07:14:14Z</time></trkpt><trkpt lat="40.086749115307285" lon="15.408899881795541"><ele>421.0</ele><time>2026-04-26T07:14:15Z</time></trkpt><trkpt lat="40.08675828473393" lon="15.409016950679224"><ele>422.0</ele><time>2026-04-26T07:14:16Z</time></trkpt><trkpt lat="40.086783321781134" lon="15.409116332537044"><ele>423.0</ele><time>2026-04-26T07:14:17Z</time></trkpt><trkpt lat="40.0868344618823" lon="15.40920487266355"><ele>424.0</ele><time>2026-04-26T07:14:18Z</time></trkpt><trkpt lat="40.08689533093672" lon="15.409308323347581"><ele>424.0</ele><time>2026-04-26T07:14:19Z</time></trkpt><trkpt lat="40.08692091514074" lon="15.409427284761783"><ele>424.0</ele><time>2026-04-26T07:14:20Z</time></trkpt><trkpt lat="40.0869283942417" lon="15.409550798544528"><ele>424.0</ele><time>2026-04-26T07:14:21Z</time></trkpt><trkpt lat="40.08693396022658" lon="15.409717242797598"><ele>424.0</ele><time>2026-04-26T07:14:22Z</time></trkpt><trkpt lat="40.08692799845295" lon="15.409869896228182"><ele>424.0</ele><time>2026-04-26T07:14:23Z</time></trkpt><trkpt lat="40.08689805943164" lon="15.409982426819933"><ele>424.33333333333337</ele><time>2026-04-26T07:14:24Z</time></trkpt><trkpt lat="40.086863533270964" lon="15.41007315122989"><ele>424.6666666666667</ele><time>2026-04-26T07:14:25Z</time></trkpt><trkpt lat="40.08681957281126" lon="15.410141622269517"><ele>425.0</ele><time>2026-04-26T07:14:26Z</time></trkpt><trkpt lat="40.08675691299832" lon="15.410177467615533"><ele>425.33333333333337</ele><time>2026-04-26T07:14:27Z</time></trkpt><trkpt lat="40.08667608465271" lon="15.410235380100753"><ele>425.6666666666667</ele><time>2026-04-26T07:14:28Z</time></trkpt><trkpt lat="40.08657124584375" lon="15.410301992620932"><ele>426.0</ele><time>2026-04-26T07:14:29Z</time></trkpt><trkpt lat="40.08647167941527" lon="15.410387435368255"><ele>428.20000000000005</ele><time>2026-04-26T07:14:30Z</time></trkpt><trkpt lat="40.08639797611437" lon="15.410482925521903"><ele>430.40000000000003</ele><time>2026-04-26T07:14:31Z</time></trkpt><trkpt lat="40.08633496667211" lon="15.41057310781449"><ele>432.6</ele><time>2026-04-26T07:14:32Z</time></trkpt><trkpt lat="40.086265664540974" lon="15.410682763341502"><ele>434.8</ele><time>2026-04-26T07:14:33Z</time></trkpt><trkpt lat="40.08618761229905" lon="15.41080050217173"><ele>437.0</ele><time>2026-04-26T07:14:34Z</time></trkpt><trkpt lat="40.08609384906313" lon="15.410903815034684"><ele>437.0</ele><time>2026-04-26T07:14:35Z</time></trkpt><trkpt lat="40.085987116976256" lon="15.411014713408303"><ele>437.0</ele><time>2026-04-26T07:14:36Z</time></trkpt><trkpt lat="40.085866526126836" lon="15.411150327746865"><ele>437.0</ele><time>2026-04-26T07:14:37Z</time></trkpt><trkpt lat="40.08575024477957" lon="15.411299289647195"><ele>439.5</ele><time>2026-04-26T07:14:38Z</time></trkpt><trkpt lat="40.08563681528206" lon="15.411424078111528"><ele>442.0</ele><time>2026-04-26T07:14:39Z</time></trkpt><trkpt lat="40.08552994411123" lon="15.411519666568596"><ele>444.5</ele><time>2026-04-26T07:14:40Z</time></trkpt><trkpt lat="40.0854435868895" lon="15.411603607949274"><ele>447.0</ele><time>2026-04-26T07:14:41Z</time></trkpt><trkpt lat="40.08537564371088" lon="15.411673067390936"><ele>447.0</ele><time>2026-04-26T07:14:42Z</time></trkpt><trkpt lat="40.085314597790635" lon="15.411760986220562"><ele>447.00000000000006</ele><time>2026-04-26T07:14:43Z</time></trkpt><trkpt lat="40.08527575820396" lon="15.411877343058576"><ele>447.00000000000006</ele><time>2026-04-26T07:14:44Z</time></trkpt><trkpt lat="40.08528602087277" lon="15.41201768835725"><ele>447.0</ele><time>2026-04-26T07:14:45Z</time></trkpt><trkpt lat="40.08528054072536" lon="15.41215461592307"><ele>447.0</ele><time>2026-04-26T07:14:46Z</time></trkpt><trkpt lat="40.0852778070684" lon="15.41232319357222"><ele>445.66666666666663</ele><time>2026-04-26T07:14:47Z</time></trkpt><trkpt lat="40.08526032540884" lon="15.412511824065312"><ele>444.3333333333333</ele><time>2026-04-26T07:14:48Z</time></trkpt><trkpt lat="40.08524541697782" lon="15.412711558642506"><ele>443.0</ele><time>2026-04-26T07:14:49Z</time></trkpt><trkpt lat="40.08522600520871" lon="15.41292976636953"><ele>442.75</ele><time>2026-04-26T07:14:50Z</time></trkpt><trkpt lat="40.0852501850839" lon="15.413136384094738"><ele>442.5</ele><time>2026-04-26T07:14:51Z</time></trkpt><trkpt lat="40.085266859430625" lon="15.413313967866989"><ele>442.25</ele><time>2026-04-26T07:14:52Z</time></trkpt><trkpt lat="40.085286403738834" lon="15.413469742973748"><ele>442.0</ele><time>2026-04-26T07:14:53Z</time></trkpt><trkpt lat="40.085290959325164" lon="15.41360081974563"><ele>442.0</ele><time>2026-04-26T07:14:54Z</time></trkpt><trkpt lat="40.08528343830001" lon="15.413740201331615"><ele>442.00000000000006</ele><time>2026-04-26T07:14:55Z</time></trkpt><trkpt lat="40.085261207609236" lon="15.413900857400503"><ele>442.00000000000006</ele><time>2026-04-26T07:14:56Z</time></trkpt><trkpt lat="40.08523291663981" lon="15.414041119572799"><ele>442.0</ele><time>2026-04-26T07:14:57Z</time></trkpt><trkpt lat="40.085208557116715" lon="15.414150914640112"><ele>442.0</ele><time>2026-04-26T07:14:58Z</time></trkpt><trkpt lat="40.08518108995779" lon="15.414251972089556"><ele>441.6666666666667</ele><time>2026-04-26T07:14:59Z</time></trkpt><trkpt lat="40.08512548975207" lon="15.41433065265177"><ele>441.33333333333337</ele><time>2026-04-26T07:15:00Z</time></trkpt><trkpt lat="40.08505869125575" lon="15.414428137161602"><ele>441.0</ele><time>2026-04-26T07:15:01Z</time></trkpt><trkpt lat="40.08500639826849" lon="15.414535301469899"><ele>440.66666666666663</ele><time>2026-04-26T07:15:02Z</time></trkpt><trkpt lat="40.08495873254127" lon="15.414618282619413"><ele>440.3333333333333</ele><time>2026-04-26T07:15:02.999Z</time></trkpt><trkpt lat="40.08493787557" lon="15.4147318439061"><ele>440.0</ele><time>2026-04-26T07:15:03.999Z</time></trkpt><trkpt lat="40.084948654506235" lon="15.414860516354661"><ele>439.5</ele><time>2026-04-26T07:15:04.999Z</time></trkpt><trkpt lat="40.08498572294912" lon="15.41501366294625"><ele>439.0</ele><time>2026-04-26T07:15:05.999Z</time></trkpt><trkpt lat="40.08503355593614" lon="15.415199187707145"><ele>438.5</ele><time>2026-04-26T07:15:06.999Z</time></trkpt><trkpt lat="40.085066740769925" lon="15.415401560338562"><ele>438.0</ele><time>2026-04-26T07:15:07.999Z</time></trkpt><trkpt lat="40.08509386644063" lon="15.415587054548542"><ele>438.0</ele><time>2026-04-26T07:15:08.999Z</time></trkpt><trkpt lat="40.085119210044894" lon="15.415742821175696"><ele>438.0</ele><time>2026-04-26T07:15:09.999Z</time></trkpt><trkpt lat="40.08515905329854" lon="15.415885050705493"><ele>438.0</ele><time>2026-04-26T07:15:10.999Z</time></trkpt><trkpt lat="40.085220730175095" lon="15.41601747555013"><ele>438.0</ele><time>2026-04-26T07:15:11.999Z</time></trkpt><trkpt lat="40.08524912971394" lon="15.416151529166498"><ele>438.0</ele><time>2026-04-26T07:15:12.999Z</time></trkpt><trkpt lat="40.08526663097817" lon="15.41628452799419"><ele>438.0</ele><time>2026-04-26T07:15:13.999Z</time></trkpt><trkpt lat="40.085271997367656" lon="15.416458777196809"><ele>438.0</ele><time>2026-04-26T07:15:14.999Z</time></trkpt><trkpt lat="40.08531477149633" lon="15.416604869984585"><ele>438.0</ele><time>2026-04-26T07:15:15.999Z</time></trkpt><trkpt lat="40.085366955404375" lon="15.416740102441436"><ele>439.0</ele><time>2026-04-26T07:15:16.999Z</time></trkpt><trkpt lat="40.085456497576125" lon="15.416889483594437"><ele>440.0</ele><time>2026-04-26T07:15:17.999Z</time></trkpt><trkpt lat="40.085536475528095" lon="15.417067742159784"><ele>441.0</ele><time>2026-04-26T07:15:18.999Z</time></trkpt><trkpt lat="40.0856230099852" lon="15.417260389747861"><ele>443.25</ele><time>2026-04-26T07:15:19.999Z</time></trkpt><trkpt lat="40.08568791677479" lon="15.417465149032157"><ele>445.5</ele><time>2026-04-26T07:15:20.999Z</time></trkpt><trkpt lat="40.08574782567843" lon="15.417632984833384"><ele>447.75</ele><time>2026-04-26T07:15:21.999Z</time></trkpt><trkpt lat="40.08579955139693" lon="15.41778185664478"><ele>450.0</ele><time>2026-04-26T07:15:22.999Z</time></trkpt><trkpt lat="40.08584712850577" lon="15.417942992012044"><ele>445.75</ele><time>2026-04-26T07:15:23.999Z</time></trkpt><trkpt lat="40.085878425285884" lon="15.4181026317238"><ele>441.5</ele><time>2026-04-26T07:15:24.999Z</time></trkpt><trkpt lat="40.085857520936166" lon="15.418252823083888"><ele>437.25</ele><time>2026-04-26T07:15:25.999Z</time></trkpt><trkpt lat="40.0858454222904" lon="15.418415462771101"><ele>433.0</ele><time>2026-04-26T07:15:26.999Z</time></trkpt><trkpt lat="40.08583053335441" lon="15.418574231254937"><ele>433.0</ele><time>2026-04-26T07:15:27.999Z</time></trkpt><trkpt lat="40.08583207793845" lon="15.418726935615636"><ele>433.0</ele><time>2026-04-26T07:15:28.999Z</time></trkpt><trkpt lat="40.085823129282744" lon="15.418890397278869"><ele>433.0</ele><time>2026-04-26T07:15:29.999Z</time></trkpt><trkpt lat="40.08583511678424" lon="15.419065110440144"><ele>433.0</ele><time>2026-04-26T07:15:30.999Z</time></trkpt><trkpt lat="40.08586044964768" lon="15.419258136502194"><ele>433.4</ele><time>2026-04-26T07:15:31.999Z</time></trkpt><trkpt lat="40.08587999916171" lon="15.419423624189566"><ele>433.79999999999995</ele><time>2026-04-26T07:15:32.999Z</time></trkpt><trkpt lat="40.08584423057284" lon="15.419559523358613"><ele>434.2</ele><time>2026-04-26T07:15:34.001Z</time></trkpt><trkpt lat="40.08582296601579" lon="15.41969350355398"><ele>434.6</ele><time>2026-04-26T07:15:35.001Z</time></trkpt><trkpt lat="40.08580708443387" lon="15.419831132744928"><ele>435.0</ele><time>2026-04-26T07:15:36.001Z</time></trkpt><trkpt lat="40.0857777411927" lon="15.41996862645894"><ele>439.2</ele><time>2026-04-26T07:15:37.001Z</time></trkpt><trkpt lat="40.08572281406531" lon="15.420066448730328"><ele>443.4</ele><time>2026-04-26T07:15:38.001Z</time></trkpt><trkpt lat="40.085657778822494" lon="15.420128012009455"><ele>447.6</ele><time>2026-04-26T07:15:39.001Z</time></trkpt><trkpt lat="40.08558598431649" lon="15.420197158009252"><ele>451.8</ele><time>2026-04-26T07:15:40.001Z</time></trkpt><trkpt lat="40.08551216842309" lon="15.420267781730551"><ele>456.0</ele><time>2026-04-26T07:15:41.001Z</time></trkpt><trkpt lat="40.08543275437471" lon="15.420344380766574"><ele>456.0</ele><time>2026-04-26T07:15:42.001Z</time></trkpt><trkpt lat="40.08537398540891" lon="15.420430561657216"><ele>456.0</ele><time>2026-04-26T07:15:43.001Z</time></trkpt><trkpt lat="40.08538692460475" lon="15.420577591311755"><ele>456.0</ele><time>2026-04-26T07:15:44.001Z</time></trkpt><trkpt lat="40.08539938057577" lon="15.42073941312843"><ele>456.0</ele><time>2026-04-26T07:15:45.001Z</time></trkpt><trkpt lat="40.085356041273165" lon="15.420880169177789"><ele>456.0</ele><time>2026-04-26T07:15:46.001Z</time></trkpt><trkpt lat="40.08530591223774" lon="15.420968075996692"><ele>456.20000000000005</ele><time>2026-04-26T07:15:47.001Z</time></trkpt><trkpt lat="40.08528005690894" lon="15.421045690767848"><ele>456.40000000000003</ele><time>2026-04-26T07:15:48.001Z</time></trkpt><trkpt lat="40.085221627159115" lon="15.421155033138943"><ele>456.6</ele><time>2026-04-26T07:15:50Z</time></trkpt><trkpt lat="40.08517866437568" lon="15.421297219653306"><ele>456.8</ele><time>2026-04-26T07:15:52Z</time></trkpt><trkpt lat="40.08518203998291" lon="15.42142206826263"><ele>457.0</ele><time>2026-04-26T07:15:53Z</time></trkpt><trkpt lat="40.085217452579265" lon="15.421530999061188"><ele>457.1666666666667</ele><time>2026-04-26T07:15:54Z</time></trkpt><trkpt lat="40.085267330821566" lon="15.421633564913169"><ele>457.33333333333337</ele><time>2026-04-26T07:15:55Z</time></trkpt><trkpt lat="40.08532124467543" lon="15.421722568484581"><ele>457.5</ele><time>2026-04-26T07:15:56Z</time></trkpt><trkpt lat="40.08532316663074" lon="15.421817379038943"><ele>457.66666666666663</ele><time>2026-04-26T07:15:57Z</time></trkpt><trkpt lat="40.08531158747251" lon="15.421909463601922"><ele>457.8333333333333</ele><time>2026-04-26T07:15:58Z</time></trkpt><trkpt lat="40.08529139727888" lon="15.422010122851049"><ele>458.0</ele><time>2026-04-26T07:15:59Z</time></trkpt><trkpt lat="40.085256431217324" lon="15.422112160559339"><ele>457.25</ele><time>2026-04-26T07:16:00Z</time></trkpt><trkpt lat="40.08519564460196" lon="15.422244965175144"><ele>456.5</ele><time>2026-04-26T07:16:01Z</time></trkpt><trkpt lat="40.08511600160788" lon="15.422415219394537"><ele>455.75</ele><time>2026-04-26T07:16:02Z</time></trkpt><trkpt lat="40.085055025993206" lon="15.422565442286722"><ele>455.0</ele><time>2026-04-26T07:16:03Z</time></trkpt><trkpt lat="40.08501040498088" lon="15.422696483013228"><ele>455.0</ele><time>2026-04-26T07:16:04Z</time></trkpt><trkpt lat="40.085003411641516" lon="15.422839084291377"><ele>455.0</ele><time>2026-04-26T07:16:05Z</time></trkpt><trkpt lat="40.084990775244094" lon="15.423010528239557"><ele>455.0</ele><time>2026-04-26T07:16:06Z</time></trkpt><trkpt lat="40.084976809629744" lon="15.423178599572747"><ele>455.0</ele><time>2026-04-26T07:16:07Z</time></trkpt><trkpt lat="40.08493555674557" lon="15.423322511564672"><ele>455.8</ele><time>2026-04-26T07:16:08Z</time></trkpt><trkpt lat="40.084900491349195" lon="15.423466760919942"><ele>456.6</ele><time>2026-04-26T07:16:09Z</time></trkpt><trkpt lat="40.08486738981406" lon="15.42358710237507"><ele>457.4</ele><time>2026-04-26T07:16:10Z</time></trkpt><trkpt lat="40.084838570800244" lon="15.423691957192492"><ele>458.2</ele><time>2026-04-26T07:16:11Z</time></trkpt><trkpt lat="40.08480620008187" lon="15.4238212228138"><ele>459.0</ele><time>2026-04-26T07:16:12Z</time></trkpt><trkpt lat="40.08478713566815" lon="15.423948876700804"><ele>459.0</ele><time>2026-04-26T07:16:13Z</time></trkpt><trkpt lat="40.08475880859045" lon="15.424069191129098"><ele>459.0</ele><time>2026-04-26T07:16:14Z</time></trkpt><trkpt lat="40.084735701490274" lon="15.424183653622466"><ele>459.0</ele><time>2026-04-26T07:16:15Z</time></trkpt><trkpt lat="40.08471339989818" lon="15.424295455720504"><ele>459.0</ele><time>2026-04-26T07:16:16Z</time></trkpt><trkpt lat="40.08470153819237" lon="15.424396780482816"><ele>459.0</ele><time>2026-04-26T07:16:17Z</time></trkpt><trkpt lat="40.08471019787951" lon="15.424543773361794"><ele>459.0</ele><time>2026-04-26T07:16:19Z</time></trkpt><trkpt lat="40.08475342472383" lon="15.424647188043354"><ele>459.0</ele><time>2026-04-26T07:16:20Z</time></trkpt><trkpt lat="40.084828757099054" lon="15.424794775481555"><ele>459.0</ele><time>2026-04-26T07:16:21Z</time></trkpt><trkpt lat="40.08487156362341" lon="15.424949797922286"><ele>459.0</ele><time>2026-04-26T07:16:22Z</time></trkpt><trkpt lat="40.08489076423264" lon="15.425102224498644"><ele>459.0</ele><time>2026-04-26T07:16:23Z</time></trkpt><trkpt lat="40.08492728878322" lon="15.425269838356074"><ele>459.0</ele><time>2026-04-26T07:16:24Z</time></trkpt><trkpt lat="40.08495647492774" lon="15.425429337176096"><ele>459.0</ele><time>2026-04-26T07:16:25Z</time></trkpt><trkpt lat="40.08495503806307" lon="15.425581748817015"><ele>459.0</ele><time>2026-04-26T07:16:26Z</time></trkpt><trkpt lat="40.08496643778948" lon="15.425726798431125"><ele>456.6</ele><time>2026-04-26T07:16:27Z</time></trkpt><trkpt lat="40.084996656570596" lon="15.425827972099576"><ele>454.2</ele><time>2026-04-26T07:16:28Z</time></trkpt><trkpt lat="40.08504074295385" lon="15.425906236985176"><ele>451.80000000000007</ele><time>2026-04-26T07:16:29Z</time></trkpt><trkpt lat="40.08512330606699" lon="15.426013269287443"><ele>449.40000000000003</ele><time>2026-04-26T07:16:30Z</time></trkpt><trkpt lat="40.08521457047851" lon="15.426130271254726"><ele>447.0</ele><time>2026-04-26T07:16:31Z</time></trkpt><trkpt lat="40.08526673610195" lon="15.426282111424108"><ele>448.8</ele><time>2026-04-26T07:16:32Z</time></trkpt><trkpt lat="40.0853457593484" lon="15.426387619514625"><ele>450.6</ele><time>2026-04-26T07:16:33Z</time></trkpt><trkpt lat="40.08542004192484" lon="15.426475006028506"><ele>452.40000000000003</ele><time>2026-04-26T07:16:34Z</time></trkpt><trkpt lat="40.08544507429563" lon="15.426566335859766"><ele>454.20000000000005</ele><time>2026-04-26T07:16:35Z</time></trkpt><trkpt lat="40.08547904471686" lon="15.426716763682075"><ele>456.0</ele><time>2026-04-26T07:16:37Z</time></trkpt><trkpt lat="40.0854928899891" lon="15.426855317211828"><ele>456.0</ele><time>2026-04-26T07:16:38Z</time></trkpt><trkpt lat="40.085536223371136" lon="15.426996103079496"><ele>456.0</ele><time>2026-04-26T07:16:39Z</time></trkpt><trkpt lat="40.0855382030995" lon="15.427149101347426"><ele>456.0</ele><time>2026-04-26T07:16:40Z</time></trkpt><trkpt lat="40.085524424840465" lon="15.427329082780233"><ele>456.0</ele><time>2026-04-26T07:16:41Z</time></trkpt><trkpt lat="40.08550732543619" lon="15.427483469977284"><ele>456.0</ele><time>2026-04-26T07:16:42Z</time></trkpt><trkpt lat="40.08549728095524" lon="15.427605123288307"><ele>456.0</ele><time>2026-04-26T07:16:43Z</time></trkpt><trkpt lat="40.08548279265113" lon="15.427687007700042"><ele>456.0</ele><time>2026-04-26T07:16:44Z</time></trkpt><trkpt lat="40.085450012379994" lon="15.427797793908834"><ele>456.0</ele><time>2026-04-26T07:16:45Z</time></trkpt><trkpt lat="40.08539929345537" lon="15.427954175565354"><ele>456.0</ele><time>2026-04-26T07:16:46Z</time></trkpt><trkpt lat="40.08534231517787" lon="15.42813680474484"><ele>455.20000000000005</ele><time>2026-04-26T07:16:47Z</time></trkpt><trkpt lat="40.08529861644499" lon="15.428284676489426"><ele>454.40000000000003</ele><time>2026-04-26T07:16:48Z</time></trkpt><trkpt lat="40.085274462114455" lon="15.42841269983766"><ele>453.6</ele><time>2026-04-26T07:16:49Z</time></trkpt><trkpt lat="40.08526300153157" lon="15.428549639154925"><ele>452.8</ele><time>2026-04-26T07:16:50Z</time></trkpt><trkpt lat="40.085237375608116" lon="15.428697492760794"><ele>452.0</ele><time>2026-04-26T07:16:51Z</time></trkpt><trkpt lat="40.08521461429913" lon="15.428852984324507"><ele>451.20000000000005</ele><time>2026-04-26T07:16:52Z</time></trkpt><trkpt lat="40.08520379144599" lon="15.428967372606749"><ele>450.40000000000003</ele><time>2026-04-26T07:16:53Z</time></trkpt><trkpt lat="40.08519148927399" lon="15.429075259232233"><ele>449.59999999999997</ele><time>2026-04-26T07:16:54Z</time></trkpt><trkpt lat="40.085165672067866" lon="15.429213874360316"><ele>448.79999999999995</ele><time>2026-04-26T07:16:55Z</time></trkpt><trkpt lat="40.08511832905701" lon="15.42939311243966"><ele>448.0</ele><time>2026-04-26T07:16:56Z</time></trkpt><trkpt lat="40.085078732716404" lon="15.429594211517893"><ele>448.0</ele><time>2026-04-26T07:16:57Z</time></trkpt><trkpt lat="40.08504869088058" lon="15.429742669040712"><ele>447.99999999999994</ele><time>2026-04-26T07:16:58Z</time></trkpt><trkpt lat="40.08502121069237" lon="15.429883118413882"><ele>447.99999999999994</ele><time>2026-04-26T07:16:59Z</time></trkpt><trkpt lat="40.084987417959965" lon="15.430003228510357"><ele>448.0</ele><time>2026-04-26T07:17:00Z</time></trkpt><trkpt lat="40.08495108410854" lon="15.430108077947757"><ele>448.0</ele><time>2026-04-26T07:17:01Z</time></trkpt><trkpt lat="40.084893868305926" lon="15.430218935369613"><ele>449.50000000000006</ele><time>2026-04-26T07:17:02Z</time></trkpt><trkpt lat="40.08482455432836" lon="15.430321198675811"><ele>451.0</ele><time>2026-04-26T07:17:03Z</time></trkpt><trkpt lat="40.08476931656977" lon="15.430408503384523"><ele>452.5</ele><time>2026-04-26T07:17:04Z</time></trkpt><trkpt lat="40.084725109611284" lon="15.430483613946254"><ele>454.0</ele><time>2026-04-26T07:17:05Z</time></trkpt><trkpt lat="40.084713561598335" lon="15.430572859914106"><ele>455.50000000000006</ele><time>2026-04-26T07:17:07Z</time></trkpt><trkpt lat="40.08475477672172" lon="15.430636838108747"><ele>457.0</ele><time>2026-04-26T07:17:09Z</time></trkpt><trkpt lat="40.08473930385945" lon="15.430779348522382"><ele>457.0</ele><time>2026-04-26T07:17:12.999Z</time></trkpt><trkpt lat="40.084687413137324" lon="15.430933109410404"><ele>457.00000000000006</ele><time>2026-04-26T07:17:15.999Z</time></trkpt><trkpt lat="40.084640571362996" lon="15.431009399799208"><ele>457.00000000000006</ele><time>2026-04-26T07:17:16.999Z</time></trkpt><trkpt lat="40.08463972537443" lon="15.431199777828644"><ele>457.0</ele><time>2026-04-26T07:17:18.999Z</time></trkpt><trkpt lat="40.08463626256741" lon="15.431297411043417"><ele>457.0</ele><time>2026-04-26T07:17:19.999Z</time></trkpt><trkpt lat="40.084636338196226" lon="15.43138958349321"><ele>457.20000000000005</ele><time>2026-04-26T07:17:20.999Z</time></trkpt><trkpt lat="40.08462687880634" lon="15.43147742103361"><ele>457.40000000000003</ele><time>2026-04-26T07:17:21.999Z</time></trkpt><trkpt lat="40.08458496063095" lon="15.431638001347602"><ele>457.59999999999997</ele><time>2026-04-26T07:17:23.999Z</time></trkpt><trkpt lat="40.08456342126379" lon="15.43172134146898"><ele>457.79999999999995</ele><time>2026-04-26T07:17:24.999Z</time></trkpt><trkpt lat="40.08453348065154" lon="15.431841085095781"><ele>458.0</ele><time>2026-04-26T07:17:26.999Z</time></trkpt><trkpt lat="40.084502359544466" lon="15.431982594885522"><ele>457.99999999999994</ele><time>2026-04-26T07:17:28.999Z</time></trkpt><trkpt lat="40.08446773787126" lon="15.432060530958088"><ele>458.0</ele><time>2026-04-26T07:17:29.999Z</time></trkpt><trkpt lat="40.0844217522601" lon="15.432134656956556"><ele>458.0</ele><time>2026-04-26T07:17:30.999Z</time></trkpt><trkpt lat="40.0843717282444" lon="15.432207260852447"><ele>458.0</ele><time>2026-04-26T07:17:31.999Z</time></trkpt><trkpt lat="40.08432167160809" lon="15.43230548056077"><ele>457.99999999999994</ele><time>2026-04-26T07:17:32.999Z</time></trkpt><trkpt lat="40.08428975946447" lon="15.432390364598866"><ele>458.0</ele><time>2026-04-26T07:17:33.999Z</time></trkpt><trkpt lat="40.08426087384328" lon="15.432530012531938"><ele>458.2</ele><time>2026-04-26T07:17:35.999Z</time></trkpt><trkpt lat="40.08421453010513" lon="15.432618650634916"><ele>458.4</ele><time>2026-04-26T07:17:37.999Z</time></trkpt><trkpt lat="40.0841616913386" lon="15.432773448790844"><ele>458.59999999999997</ele><time>2026-04-26T07:17:40.001Z</time></trkpt><trkpt lat="40.084120225469704" lon="15.432872673520981"><ele>458.79999999999995</ele><time>2026-04-26T07:17:41.001Z</time></trkpt><trkpt lat="40.08408287880645" lon="15.432960221240181"><ele>459.0</ele><time>2026-04-26T07:17:42.001Z</time></trkpt><trkpt lat="40.084056764998955" lon="15.433068688871728"><ele>459.2</ele><time>2026-04-26T07:17:43.001Z</time></trkpt><trkpt lat="40.08401839847932" lon="15.433149585387648"><ele>459.4</ele><time>2026-04-26T07:17:44.001Z</time></trkpt><trkpt lat="40.08398557956979" lon="15.433298811547122"><ele>459.6</ele><time>2026-04-26T07:17:46.001Z</time></trkpt><trkpt lat="40.083975520388485" lon="15.433387456007011"><ele>459.8</ele><time>2026-04-26T07:17:49.001Z</time></trkpt><trkpt lat="40.084083597768284" lon="15.433414280399836"><ele>460.0</ele><time>2026-04-26T07:17:52.001Z</time></trkpt><trkpt lat="40.08418673424731" lon="15.433405451527907"><ele>460.00000000000006</ele><time>2026-04-26T07:17:54.001Z</time></trkpt><trkpt lat="40.08425765993927" lon="15.433416239794049"><ele>460.0</ele><time>2026-04-26T07:17:55.001Z</time></trkpt><trkpt lat="40.08432482068275" lon="15.433428208879004"><ele>460.0</ele><time>2026-04-26T07:17:56Z</time></trkpt><trkpt lat="40.08439441388699" lon="15.433440181901258"><ele>460.0</ele><time>2026-04-26T07:17:57Z</time></trkpt><trkpt lat="40.0844710741267" lon="15.433450337506265"><ele>460.00000000000006</ele><time>2026-04-26T07:17:58Z</time></trkpt><trkpt lat="40.08455189121086" lon="15.433451130424473"><ele>460.0</ele><time>2026-04-26T07:17:59Z</time></trkpt><trkpt lat="40.0846340921143" lon="15.433438694898234"><ele>460.00000000000006</ele><time>2026-04-26T07:18:00Z</time></trkpt><trkpt lat="40.08471903714534" lon="15.433434471677984"><ele>460.0</ele><time>2026-04-26T07:18:01Z</time></trkpt><trkpt lat="40.08479798862585" lon="15.433425452659417"><ele>460.0</ele><time>2026-04-26T07:18:02Z</time></trkpt><trkpt lat="40.084896167400665" lon="15.4334485409347"><ele>460.0</ele><time>2026-04-26T07:18:04Z</time></trkpt><trkpt lat="40.08495942848807" lon="15.433458129064094"><ele>460.00000000000006</ele><time>2026-04-26T07:19:26.999Z</time></trkpt><trkpt lat="40.08503948657477" lon="15.43349142922415"><ele>460.0</ele><time>2026-04-26T07:19:29.999Z</time></trkpt><trkpt lat="40.08510192697668" lon="15.433519765337413"><ele>457.8571428571428</ele><time>2026-04-26T07:19:31.999Z</time></trkpt><trkpt lat="40.085181380859126" lon="15.43357911017266"><ele>455.71428571428567</ele><time>2026-04-26T07:19:33.999Z</time></trkpt><trkpt lat="40.08524390982616" lon="15.433628021782893"><ele>453.57142857142856</ele><time>2026-04-26T07:19:34.999Z</time></trkpt><trkpt lat="40.08531693329724" lon="15.433665667771702"><ele>451.4285714285714</ele><time>2026-04-26T07:19:35.999Z</time></trkpt><trkpt lat="40.08538388817137" lon="15.433684730688604"><ele>449.2857142857142</ele><time>2026-04-26T07:19:36.999Z</time></trkpt><trkpt lat="40.08544737074873" lon="15.433691149911894"><ele>447.14285714285717</ele><time>2026-04-26T07:19:37.999Z</time></trkpt><trkpt lat="40.085510447425776" lon="15.433680595248296"><ele>445.0</ele><time>2026-04-26T07:19:38.999Z</time></trkpt><trkpt lat="40.085597018313614" lon="15.433688842749383"><ele>445.0</ele><time>2026-04-26T07:19:40.999Z</time></trkpt><trkpt lat="40.085694449950815" lon="15.433726546629437"><ele>445.0</ele><time>2026-04-26T07:19:44.999Z</time></trkpt><trkpt lat="40.085752931950914" lon="15.433781595737464"><ele>445.0</ele><time>2026-04-26T07:19:46.001Z</time></trkpt><trkpt lat="40.08582964427743" lon="15.433841051108022"><ele>445.0</ele><time>2026-04-26T07:19:47.001Z</time></trkpt><trkpt lat="40.08591805495517" lon="15.433910255368533"><ele>445.0</ele><time>2026-04-26T07:19:48.001Z</time></trkpt><trkpt lat="40.08599302624507" lon="15.433979203400403"><ele>444.4</ele><time>2026-04-26T07:19:49.001Z</time></trkpt><trkpt lat="40.08607862402814" lon="15.434038859034182"><ele>443.8</ele><time>2026-04-26T07:19:50.001Z</time></trkpt><trkpt lat="40.08617527177107" lon="15.434087963351049"><ele>443.20000000000005</ele><time>2026-04-26T07:19:51.001Z</time></trkpt><trkpt lat="40.08626311448682" lon="15.434169117029787"><ele>442.6</ele><time>2026-04-26T07:19:52.001Z</time></trkpt><trkpt lat="40.08633427374512" lon="15.434244077356176"><ele>442.0</ele><time>2026-04-26T07:19:53.001Z</time></trkpt><trkpt lat="40.086395144159674" lon="15.434299380777574"><ele>442.0</ele><time>2026-04-26T07:19:54.001Z</time></trkpt><trkpt lat="40.08653649311505" lon="15.434353004346265"><ele>442.00000000000006</ele><time>2026-04-26T07:19:56.001Z</time></trkpt><trkpt lat="40.08663198197643" lon="15.434374168582076"><ele>442.00000000000006</ele><time>2026-04-26T07:19:57.001Z</time></trkpt><trkpt lat="40.08673120063472" lon="15.434367022685914"><ele>442.0</ele><time>2026-04-26T07:19:58.001Z</time></trkpt><trkpt lat="40.0868354172956" lon="15.43436260679466"><ele>442.0</ele><time>2026-04-26T07:19:59.001Z</time></trkpt><trkpt lat="40.08696709285424" lon="15.434351700409028"><ele>439.0</ele><time>2026-04-26T07:20:00.001Z</time></trkpt><trkpt lat="40.08710863479177" lon="15.43435777976563"><ele>436.0</ele><time>2026-04-26T07:20:01.001Z</time></trkpt><trkpt lat="40.08725669983043" lon="15.434379191281685"><ele>433.0</ele><time>2026-04-26T07:20:02Z</time></trkpt><trkpt lat="40.087405738022916" lon="15.43438664845111"><ele>430.0</ele><time>2026-04-26T07:20:03Z</time></trkpt><trkpt lat="40.087530611110466" lon="15.434381845231664"><ele>428.75</ele><time>2026-04-26T07:20:04Z</time></trkpt><trkpt lat="40.08765365335925" lon="15.43436372625496"><ele>427.5</ele><time>2026-04-26T07:20:05Z</time></trkpt><trkpt lat="40.08777515500541" lon="15.434351447020562"><ele>426.25</ele><time>2026-04-26T07:20:06Z</time></trkpt><trkpt lat="40.087906290417344" lon="15.434364142674573"><ele>425.0</ele><time>2026-04-26T07:20:07Z</time></trkpt><trkpt lat="40.08804041460418" lon="15.434392180245155"><ele>425.0</ele><time>2026-04-26T07:20:08Z</time></trkpt><trkpt lat="40.08815714711729" lon="15.434399955119098"><ele>425.0</ele><time>2026-04-26T07:20:09Z</time></trkpt><trkpt lat="40.08827731038947" lon="15.434406201789011"><ele>425.0</ele><time>2026-04-26T07:20:10Z</time></trkpt><trkpt lat="40.08839748642187" lon="15.434427228503655"><ele>425.0</ele><time>2026-04-26T07:20:11Z</time></trkpt><trkpt lat="40.088506090187344" lon="15.434446085509672"><ele>424.2</ele><time>2026-04-26T07:20:12Z</time></trkpt><trkpt lat="40.08860757215261" lon="15.43446512999108"><ele>423.4</ele><time>2026-04-26T07:20:13Z</time></trkpt><trkpt lat="40.088719553989016" lon="15.434479717301144"><ele>422.6</ele><time>2026-04-26T07:20:14Z</time></trkpt><trkpt lat="40.088811024304846" lon="15.434482485541873"><ele>421.8</ele><time>2026-04-26T07:20:15Z</time></trkpt><trkpt lat="40.08888088997589" lon="15.43449240007056"><ele>421.0</ele><time>2026-04-26T07:20:16Z</time></trkpt><trkpt lat="40.08896360418784" lon="15.434508783619444"><ele>421.0</ele><time>2026-04-26T07:20:17Z</time></trkpt><trkpt lat="40.08905751058751" lon="15.4344950114522"><ele>421.0</ele><time>2026-04-26T07:20:18Z</time></trkpt><trkpt lat="40.08916356438286" lon="15.434458710436212"><ele>421.0</ele><time>2026-04-26T07:20:19Z</time></trkpt><trkpt lat="40.08928559218616" lon="15.434397490279986"><ele>421.0</ele><time>2026-04-26T07:20:20Z</time></trkpt><trkpt lat="40.089411679441746" lon="15.434335635588592"><ele>419.4</ele><time>2026-04-26T07:20:21Z</time></trkpt><trkpt lat="40.08952556836978" lon="15.434293213372555"><ele>417.8</ele><time>2026-04-26T07:20:22Z</time></trkpt><trkpt lat="40.089614989234185" lon="15.434240093844076"><ele>416.2</ele><time>2026-04-26T07:20:23Z</time></trkpt><trkpt lat="40.08970586386818" lon="15.434156110143887"><ele>414.59999999999997</ele><time>2026-04-26T07:20:24Z</time></trkpt><trkpt lat="40.08980029501519" lon="15.434068499175403"><ele>413.0</ele><time>2026-04-26T07:20:25Z</time></trkpt><trkpt lat="40.089879625381215" lon="15.433982954678886"><ele>412.79999999999995</ele><time>2026-04-26T07:20:26Z</time></trkpt><trkpt lat="40.08993638526967" lon="15.433926896400134"><ele>412.6</ele><time>2026-04-26T07:20:27Z</time></trkpt><trkpt lat="40.09004191925963" lon="15.433888520545993"><ele>412.4</ele><time>2026-04-26T07:20:29Z</time></trkpt><trkpt lat="40.09012076204386" lon="15.433925858977618"><ele>412.20000000000005</ele><time>2026-04-26T07:20:30Z</time></trkpt><trkpt lat="40.0902231592536" lon="15.434008157869458"><ele>412.0</ele><time>2026-04-26T07:20:31Z</time></trkpt><trkpt lat="40.09033561520734" lon="15.434102799835077"><ele>412.0</ele><time>2026-04-26T07:20:32Z</time></trkpt><trkpt lat="40.09044001143556" lon="15.43419113213722"><ele>412.0</ele><time>2026-04-26T07:20:33Z</time></trkpt><trkpt lat="40.09054468815943" lon="15.43425939046222"><ele>412.0</ele><time>2026-04-26T07:20:34Z</time></trkpt><trkpt lat="40.09065830337902" lon="15.434338781803712"><ele>412.0</ele><time>2026-04-26T07:20:35Z</time></trkpt><trkpt lat="40.090770095787775" lon="15.434421279242578"><ele>410.5</ele><time>2026-04-26T07:20:36Z</time></trkpt><trkpt lat="40.09089421681685" lon="15.43451432150355"><ele>409.0</ele><time>2026-04-26T07:20:37Z</time></trkpt><trkpt lat="40.09101764527161" lon="15.434622733553972"><ele>407.5</ele><time>2026-04-26T07:20:38Z</time></trkpt><trkpt lat="40.0911177318697" lon="15.43472091030764"><ele>406.0</ele><time>2026-04-26T07:20:39Z</time></trkpt><trkpt lat="40.09120717226981" lon="15.434813850032333"><ele>406.00000000000006</ele><time>2026-04-26T07:20:40Z</time></trkpt><trkpt lat="40.09128614749111" lon="15.434899591351678"><ele>406.0</ele><time>2026-04-26T07:20:41Z</time></trkpt><trkpt lat="40.09137685533851" lon="15.4349350970125"><ele>406.0</ele><time>2026-04-26T07:20:42Z</time></trkpt><trkpt lat="40.09145812408821" lon="15.434964660502526"><ele>406.0</ele><time>2026-04-26T07:20:43Z</time></trkpt><trkpt lat="40.091536493828876" lon="15.434994261451896"><ele>406.00000000000006</ele><time>2026-04-26T07:20:44Z</time></trkpt><trkpt lat="40.09160452306833" lon="15.435032909445807"><ele>406.0</ele><time>2026-04-26T07:20:45Z</time></trkpt><trkpt lat="40.09168764456899" lon="15.435130122519533"><ele>402.4</ele><time>2026-04-26T07:20:47Z</time></trkpt><trkpt lat="40.091756081694875" lon="15.435260248287381"><ele>398.8</ele><time>2026-04-26T07:20:49Z</time></trkpt><trkpt lat="40.09181075652536" lon="15.435370840767064"><ele>395.2</ele><time>2026-04-26T07:20:50Z</time></trkpt><trkpt lat="40.091863517606605" lon="15.435485301671264"><ele>391.59999999999997</ele><time>2026-04-26T07:20:51Z</time></trkpt><trkpt lat="40.0919063152618" lon="15.435598101786168"><ele>388.0</ele><time>2026-04-26T07:20:52Z</time></trkpt><trkpt lat="40.0919324025332" lon="15.435695826453303"><ele>388.0</ele><time>2026-04-26T07:20:53Z</time></trkpt><trkpt lat="40.0919700262475" lon="15.43578255524709"><ele>388.0</ele><time>2026-04-26T07:20:54Z</time></trkpt><trkpt lat="40.09203010986888" lon="15.43590654817514"><ele>388.0</ele><time>2026-04-26T07:20:56Z</time></trkpt><trkpt lat="40.09207498339791" lon="15.436033877666944"><ele>388.0</ele><time>2026-04-26T07:20:58Z</time></trkpt><trkpt lat="40.09207788429066" lon="15.436212471224241"><ele>388.0</ele><time>2026-04-26T07:21:00Z</time></trkpt><trkpt lat="40.092061523817954" lon="15.436349695693915"><ele>387.0</ele><time>2026-04-26T07:21:01Z</time></trkpt><trkpt lat="40.092045231664265" lon="15.436484342740433"><ele>386.0</ele><time>2026-04-26T07:21:02Z</time></trkpt><trkpt lat="40.0920448320992" lon="15.436612608597962"><ele>385.0</ele><time>2026-04-26T07:21:03Z</time></trkpt><trkpt lat="40.09206760133693" lon="15.43675171811201"><ele>384.0</ele><time>2026-04-26T07:21:04Z</time></trkpt><trkpt lat="40.09209943615095" lon="15.436887891121252"><ele>383.0</ele><time>2026-04-26T07:21:05Z</time></trkpt><trkpt lat="40.09213300103493" lon="15.437044268301161"><ele>381.4</ele><time>2026-04-26T07:21:06Z</time></trkpt><trkpt lat="40.09217992319906" lon="15.437193115256528"><ele>379.79999999999995</ele><time>2026-04-26T07:21:07Z</time></trkpt><trkpt lat="40.09220976933253" lon="15.437305851318282"><ele>378.2</ele><time>2026-04-26T07:21:08Z</time></trkpt><trkpt lat="40.09223341040971" lon="15.437451284820854"><ele>376.6</ele><time>2026-04-26T07:21:10Z</time></trkpt><trkpt lat="40.09223908109507" lon="15.437536114630323"><ele>375.0</ele><time>2026-04-26T07:21:12Z</time></trkpt><trkpt lat="40.092236701605714" lon="15.437641005497577"><ele>375.0</ele><time>2026-04-26T07:21:14Z</time></trkpt><trkpt lat="40.09221573975747" lon="15.437739038962794"><ele>375.0</ele><time>2026-04-26T07:21:15Z</time></trkpt><trkpt lat="40.09216397222618" lon="15.437822604366467"><ele>375.0</ele><time>2026-04-26T07:21:16Z</time></trkpt><trkpt lat="40.09210157180009" lon="15.437950415493692"><ele>375.0</ele><time>2026-04-26T07:21:17Z</time></trkpt><trkpt lat="40.09203982468973" lon="15.438093167035188"><ele>375.0</ele><time>2026-04-26T07:21:17.999Z</time></trkpt><trkpt lat="40.091972406992475" lon="15.43819116224434"><ele>374.5</ele><time>2026-04-26T07:21:18.999Z</time></trkpt><trkpt lat="40.09191160371039" lon="15.43827335548678"><ele>374.0</ele><time>2026-04-26T07:21:19.999Z</time></trkpt><trkpt lat="40.091837949817" lon="15.438375856848438"><ele>373.5</ele><time>2026-04-26T07:21:20.999Z</time></trkpt><trkpt lat="40.09177954722487" lon="15.438519806713554"><ele>373.0</ele><time>2026-04-26T07:21:21.999Z</time></trkpt><trkpt lat="40.09173327836222" lon="15.438693809042084"><ele>372.5</ele><time>2026-04-26T07:21:22.999Z</time></trkpt><trkpt lat="40.09169434599732" lon="15.438871161818199"><ele>372.0</ele><time>2026-04-26T07:21:23.999Z</time></trkpt><trkpt lat="40.091621719031295" lon="15.439040409184196"><ele>371.5</ele><time>2026-04-26T07:21:24.999Z</time></trkpt><trkpt lat="40.09153978812108" lon="15.439219664512233"><ele>371.0</ele><time>2026-04-26T07:21:25.999Z</time></trkpt><trkpt lat="40.09146913943952" lon="15.439344006467065"><ele>372.83333333333337</ele><time>2026-04-26T07:21:26.999Z</time></trkpt><trkpt lat="40.09143643528514" lon="15.439420837064088"><ele>374.6666666666667</ele><time>2026-04-26T07:21:27.999Z</time></trkpt><trkpt lat="40.09135761371212" lon="15.439521784832072"><ele>376.5</ele><time>2026-04-26T07:21:29.999Z</time></trkpt><trkpt lat="40.091301446221784" lon="15.439563634648554"><ele>378.3333333333333</ele><time>2026-04-26T07:21:30.999Z</time></trkpt><trkpt lat="40.091219355666574" lon="15.439603384464437"><ele>380.16666666666663</ele><time>2026-04-26T07:21:31.999Z</time></trkpt><trkpt lat="40.0911199126571" lon="15.439614054447446"><ele>382.0</ele><time>2026-04-26T07:21:32.999Z</time></trkpt><trkpt lat="40.091034300914295" lon="15.439590658020869"><ele>382.0</ele><time>2026-04-26T07:21:33.999Z</time></trkpt><trkpt lat="40.090961647831584" lon="15.43957031969542"><ele>382.0</ele><time>2026-04-26T07:21:34.999Z</time></trkpt><trkpt lat="40.09087695020608" lon="15.439541978220639"><ele>382.0</ele><time>2026-04-26T07:21:35.999Z</time></trkpt><trkpt lat="40.09077834004961" lon="15.439504944905154"><ele>382.0</ele><time>2026-04-26T07:21:36.999Z</time></trkpt><trkpt lat="40.09068732311592" lon="15.439454755334822"><ele>382.0</ele><time>2026-04-26T07:21:37.999Z</time></trkpt><trkpt lat="40.090626481501666" lon="15.43940906019638"><ele>382.0</ele><time>2026-04-26T07:21:38.999Z</time></trkpt><trkpt lat="40.09056891785364" lon="15.439370700306636"><ele>382.0</ele><time>2026-04-26T07:21:41.999Z</time></trkpt><trkpt lat="40.09066446108375" lon="15.439517051065602"><ele>382.0</ele><time>2026-04-26T07:21:45.999Z</time></trkpt><trkpt lat="40.09079125027144" lon="15.439565965842002"><ele>382.0</ele><time>2026-04-26T07:21:46.999Z</time></trkpt><trkpt lat="40.090928119365906" lon="15.439618082064676"><ele>382.0</ele><time>2026-04-26T07:21:47.999Z</time></trkpt><trkpt lat="40.09105888715826" lon="15.439646317996926"><ele>382.0</ele><time>2026-04-26T07:21:48.999Z</time></trkpt><trkpt lat="40.09116762307604" lon="15.439654295736231"><ele>382.0</ele><time>2026-04-26T07:21:49.999Z</time></trkpt><trkpt lat="40.09126767282706" lon="15.439629520057874"><ele>382.0</ele><time>2026-04-26T07:21:50.999Z</time></trkpt><trkpt lat="40.09135972335417" lon="15.43957920941415"><ele>382.0</ele><time>2026-04-26T07:21:52.001Z</time></trkpt><trkpt lat="40.09142099585689" lon="15.439502030238678"><ele>382.0</ele><time>2026-04-26T07:21:53.001Z</time></trkpt><trkpt lat="40.09144639259138" lon="15.43942387694448"><ele>382.0</ele><time>2026-04-26T07:21:54.001Z</time></trkpt><trkpt lat="40.09149684201987" lon="15.439365215975268"><ele>382.0</ele><time>2026-04-26T07:21:57.001Z</time></trkpt><trkpt lat="40.09150421660171" lon="15.43948277526216"><ele>382.0</ele><time>2026-04-26T07:22:03.001Z</time></trkpt><trkpt lat="40.09146612776719" lon="15.439548804685243"><ele>382.0</ele><time>2026-04-26T07:22:04.001Z</time></trkpt><trkpt lat="40.091425609937374" lon="15.439615600171914"><ele>382.0</ele><time>2026-04-26T07:22:05.001Z</time></trkpt><trkpt lat="40.09134949916721" lon="15.439711099191669"><ele>382.0</ele><time>2026-04-26T07:22:07Z</time></trkpt><trkpt lat="40.09129090799291" lon="15.43977568354776"><ele>380.0</ele><time>2026-04-26T07:22:08Z</time></trkpt><trkpt lat="40.091239022495145" lon="15.439865057524823"><ele>378.0</ele><time>2026-04-26T07:22:10Z</time></trkpt><trkpt lat="40.091204850699285" lon="15.439963163867565"><ele>376.0</ele><time>2026-04-26T07:22:19Z</time></trkpt><trkpt lat="40.09111723278915" lon="15.440104467024613"><ele>374.0</ele><time>2026-04-26T07:22:21Z</time></trkpt><trkpt lat="40.09107815784559" lon="15.440177866401724"><ele>372.0</ele><time>2026-04-26T07:22:22Z</time></trkpt><trkpt lat="40.09105791626828" lon="15.440262361453442"><ele>370.0</ele><time>2026-04-26T07:22:23Z</time></trkpt><trkpt lat="40.09104969143592" lon="15.440346753787987"><ele>369.8333333333333</ele><time>2026-04-26T07:22:24Z</time></trkpt><trkpt lat="40.09109014125385" lon="15.440493136982603"><ele>369.66666666666663</ele><time>2026-04-26T07:22:26Z</time></trkpt><trkpt lat="40.091127401750434" lon="15.440574914554697"><ele>369.5</ele><time>2026-04-26T07:22:27Z</time></trkpt><trkpt lat="40.09115890210366" lon="15.440652892037706"><ele>369.3333333333333</ele><time>2026-04-26T07:22:28Z</time></trkpt><trkpt lat="40.091184811460835" lon="15.440741964425616"><ele>369.1666666666667</ele><time>2026-04-26T07:22:30Z</time></trkpt><trkpt lat="40.09117882689151" lon="15.440829843006364"><ele>369.0</ele><time>2026-04-26T07:22:39Z</time></trkpt><trkpt lat="40.091109869068646" lon="15.440916213592274"><ele>369.0</ele><time>2026-04-26T07:22:41Z</time></trkpt><trkpt lat="40.09106657092953" lon="15.441004944840039"><ele>369.0</ele><time>2026-04-26T07:22:43Z</time></trkpt><trkpt lat="40.09102852874519" lon="15.441158271578313"><ele>369.0</ele><time>2026-04-26T07:22:45Z</time></trkpt><trkpt lat="40.09098838894226" lon="15.441289295060852"><ele>369.0</ele><time>2026-04-26T07:22:47Z</time></trkpt><trkpt lat="40.09096843183306" lon="15.441425285577125"><ele>369.0</ele><time>2026-04-26T07:22:49Z</time></trkpt><trkpt lat="40.09098156176174" lon="15.441554495084016"><ele>368.6666666666667</ele><time>2026-04-26T07:22:51Z</time></trkpt><trkpt lat="40.09099023384323" lon="15.441644400507423"><ele>368.3333333333333</ele><time>2026-04-26T07:22:52Z</time></trkpt><trkpt lat="40.091002377962525" lon="15.441738933983567"><ele>368.0</ele><time>2026-04-26T07:22:53Z</time></trkpt><trkpt lat="40.090999289554986" lon="15.441834661506753"><ele>367.66666666666663</ele><time>2026-04-26T07:22:54Z</time></trkpt><trkpt lat="40.09099466105101" lon="15.441924024472714"><ele>367.3333333333333</ele><time>2026-04-26T07:22:55Z</time></trkpt><trkpt lat="40.09098549901898" lon="15.442062069698231"><ele>367.0</ele><time>2026-04-26T07:22:57Z</time></trkpt><trkpt lat="40.090963100001716" lon="15.442147565650846"><ele>364.8333333333333</ele><time>2026-04-26T07:23:00Z</time></trkpt><trkpt lat="40.09093857135142" lon="15.44224506451367"><ele>362.66666666666663</ele><time>2026-04-26T07:23:04Z</time></trkpt><trkpt lat="40.09095114622862" lon="15.44234519289161"><ele>360.5</ele><time>2026-04-26T07:23:07Z</time></trkpt><trkpt lat="40.09097430361026" lon="15.442443643531794"><ele>358.3333333333333</ele><time>2026-04-26T07:23:11Z</time></trkpt><trkpt lat="40.09092426301758" lon="15.442527010013578"><ele>356.1666666666667</ele><time>2026-04-26T07:23:13Z</time></trkpt><trkpt lat="40.09087309141846" lon="15.442578346692686"><ele>354.0</ele><time>2026-04-26T07:23:14Z</time></trkpt><trkpt lat="40.09081189841119" lon="15.442662991745282"><ele>354.0</ele><time>2026-04-26T07:23:16Z</time></trkpt><trkpt lat="40.09078125736457" lon="15.4427566996387"><ele>354.0</ele><time>2026-04-26T07:23:18Z</time></trkpt><trkpt lat="40.09073241588068" lon="15.442884148616445"><ele>354.0</ele><time>2026-04-26T07:23:20Z</time></trkpt><trkpt lat="40.09068890418142" lon="15.442963647107772"><ele>354.0</ele><time>2026-04-26T07:23:21Z</time></trkpt><trkpt lat="40.09066095039829" lon="15.44303851509512"><ele>354.0</ele><time>2026-04-26T07:23:21.999Z</time></trkpt><trkpt lat="40.09061783393626" lon="15.443110193771838"><ele>354.0</ele><time>2026-04-26T07:23:23.999Z</time></trkpt><trkpt lat="40.09056163132509" lon="15.443179496416523"><ele>353.4</ele><time>2026-04-26T07:23:25.999Z</time></trkpt><trkpt lat="40.09047499361834" lon="15.443242343483123"><ele>352.79999999999995</ele><time>2026-04-26T07:23:27.999Z</time></trkpt><trkpt lat="40.090396390498235" lon="15.443283438340721"><ele>352.20000000000005</ele><time>2026-04-26T07:23:29.999Z</time></trkpt><trkpt lat="40.09027671919674" lon="15.443316120256666"><ele>351.6</ele><time>2026-04-26T07:23:31.999Z</time></trkpt><trkpt lat="40.09019824339394" lon="15.443303514558655"><ele>351.0</ele><time>2026-04-26T07:23:32.999Z</time></trkpt><trkpt lat="40.090092223560546" lon="15.443276990838164"><ele>351.0</ele><time>2026-04-26T07:23:33.999Z</time></trkpt><trkpt lat="40.09000546832737" lon="15.443291203381944"><ele>351.0</ele><time>2026-04-26T07:23:34.999Z</time></trkpt><trkpt lat="40.089924003945235" lon="15.44333273823025"><ele>351.0</ele><time>2026-04-26T07:23:35.999Z</time></trkpt><trkpt lat="40.089844154404474" lon="15.443367417477692"><ele>351.0</ele><time>2026-04-26T07:23:36.999Z</time></trkpt><trkpt lat="40.08978350872554" lon="15.443438974475493"><ele>351.0</ele><time>2026-04-26T07:23:39.999Z</time></trkpt><trkpt lat="40.08971516441093" lon="15.443578553681656"><ele>352.8</ele><time>2026-04-26T07:23:41.999Z</time></trkpt><trkpt lat="40.08967232485779" lon="15.443728429956051"><ele>354.6</ele><time>2026-04-26T07:23:43.999Z</time></trkpt><trkpt lat="40.0896561829333" lon="15.443813868072002"><ele>356.4</ele><time>2026-04-26T07:23:44.999Z</time></trkpt><trkpt lat="40.089626558659056" lon="15.443955739109468"><ele>358.2</ele><time>2026-04-26T07:23:46.999Z</time></trkpt><trkpt lat="40.08960360415315" lon="15.444066705782198"><ele>360.0</ele><time>2026-04-26T07:23:48.999Z</time></trkpt><trkpt lat="40.0896294452932" lon="15.444159113067585"><ele>360.0</ele><time>2026-04-26T07:23:51.999Z</time></trkpt><trkpt lat="40.08963991044847" lon="15.444261127080892"><ele>360.0</ele><time>2026-04-26T07:23:55.999Z</time></trkpt><trkpt lat="40.08966509885066" lon="15.444383444900673"><ele>360.0</ele><time>2026-04-26T07:23:59.001Z</time></trkpt><trkpt lat="40.08968716339809" lon="15.444500346018305"><ele>360.0</ele><time>2026-04-26T07:24:01.001Z</time></trkpt><trkpt lat="40.089719538020546" lon="15.44458118670301"><ele>360.0</ele><time>2026-04-26T07:24:05.001Z</time></trkpt><trkpt lat="40.089747549668274" lon="15.444656612650228"><ele>360.0</ele><time>2026-04-26T07:24:07.001Z</time></trkpt><trkpt lat="40.089782612302535" lon="15.444757813510531"><ele>358.0</ele><time>2026-04-26T07:24:09.001Z</time></trkpt><trkpt lat="40.08979236427452" lon="15.444884971097027"><ele>356.0</ele><time>2026-04-26T07:24:11.001Z</time></trkpt><trkpt lat="40.089865303292314" lon="15.445119933614105"><ele>354.0</ele><time>2026-04-26T07:24:14Z</time></trkpt><trkpt lat="40.08989322961013" lon="15.445238260210138"><ele>352.0</ele><time>2026-04-26T07:24:16Z</time></trkpt><trkpt lat="40.08988561346916" lon="15.44533000300893"><ele>352.0</ele><time>2026-04-26T07:24:18Z</time></trkpt><trkpt lat="40.08986640898919" lon="15.44545031561037"><ele>352.0</ele><time>2026-04-26T07:24:20Z</time></trkpt><trkpt lat="40.089825035908774" lon="15.44558535847676"><ele>352.0</ele><time>2026-04-26T07:24:22Z</time></trkpt><trkpt lat="40.089821640709054" lon="15.445734868036238"><ele>352.0</ele><time>2026-04-26T07:24:24Z</time></trkpt><trkpt lat="40.08982799026976" lon="15.445886428118657"><ele>352.0</ele><time>2026-04-26T07:24:26Z</time></trkpt><trkpt lat="40.089842968280394" lon="15.445989153268775"><ele>349.8333333333333</ele><time>2026-04-26T07:24:29Z</time></trkpt><trkpt lat="40.090005054616775" lon="15.445975800804087"><ele>347.66666666666663</ele><time>2026-04-26T07:24:32Z</time></trkpt><trkpt lat="40.09007650560723" lon="15.445997234957801"><ele>345.5</ele><time>2026-04-26T07:24:33Z</time></trkpt><trkpt lat="40.09013847602986" lon="15.4460203861027"><ele>343.3333333333333</ele><time>2026-04-26T07:24:34Z</time></trkpt><trkpt lat="40.09019960145051" lon="15.44605142700446"><ele>341.1666666666667</ele><time>2026-04-26T07:24:35Z</time></trkpt><trkpt lat="40.09026359813477" lon="15.446092744643519"><ele>339.0</ele><time>2026-04-26T07:24:36Z</time></trkpt><trkpt lat="40.09032516755046" lon="15.446153432181175"><ele>339.0</ele><time>2026-04-26T07:24:37Z</time></trkpt><trkpt lat="40.090406790460456" lon="15.446224253578903"><ele>339.0</ele><time>2026-04-26T07:24:38Z</time></trkpt><trkpt lat="40.09050238418203" lon="15.446295359107765"><ele>339.0</ele><time>2026-04-26T07:24:39Z</time></trkpt><trkpt lat="40.09060232832556" lon="15.446362180135832"><ele>339.0</ele><time>2026-04-26T07:24:40Z</time></trkpt><trkpt lat="40.09067828025861" lon="15.446435825317591"><ele>339.0</ele><time>2026-04-26T07:24:41Z</time></trkpt><trkpt lat="40.090763181552724" lon="15.446537750734466"><ele>337.0</ele><time>2026-04-26T07:24:42Z</time></trkpt><trkpt lat="40.09085525309439" lon="15.446624581220245"><ele>335.0</ele><time>2026-04-26T07:24:43Z</time></trkpt><trkpt lat="40.090937625247726" lon="15.446693961478607"><ele>333.0</ele><time>2026-04-26T07:24:44Z</time></trkpt><trkpt lat="40.09101079825447" lon="15.446767957666493"><ele>331.0</ele><time>2026-04-26T07:24:45Z</time></trkpt><trkpt lat="40.09110987562388" lon="15.446855173926137"><ele>329.0</ele><time>2026-04-26T07:24:46Z</time></trkpt><trkpt lat="40.09118539856014" lon="15.446933822841645"><ele>329.0</ele><time>2026-04-26T07:24:47Z</time></trkpt><trkpt lat="40.0912454041552" lon="15.446972827398755"><ele>329.0</ele><time>2026-04-26T07:24:48Z</time></trkpt><trkpt lat="40.09131314792642" lon="15.446994771212973"><ele>329.0</ele><time>2026-04-26T07:24:49Z</time></trkpt><trkpt lat="40.09139142541436" lon="15.447023264559057"><ele>329.0</ele><time>2026-04-26T07:24:50Z</time></trkpt><trkpt lat="40.09146895108493" lon="15.447057816754906"><ele>329.0</ele><time>2026-04-26T07:24:51Z</time></trkpt><trkpt lat="40.091546974373365" lon="15.447113501801681"><ele>329.0</ele><time>2026-04-26T07:24:52Z</time></trkpt><trkpt lat="40.09161371388123" lon="15.447160730388767"><ele>327.2</ele><time>2026-04-26T07:24:53Z</time></trkpt><trkpt lat="40.09170363403238" lon="15.447217833150539"><ele>325.4</ele><time>2026-04-26T07:24:55Z</time></trkpt><trkpt lat="40.091777958680595" lon="15.447351890512579"><ele>323.6</ele><time>2026-04-26T07:24:57Z</time></trkpt><trkpt lat="40.0918727878078" lon="15.447415900649103"><ele>321.8</ele><time>2026-04-26T07:24:58Z</time></trkpt><trkpt lat="40.0919018884608" lon="15.4475152407401"><ele>320.0</ele><time>2026-04-26T07:24:59Z</time></trkpt><trkpt lat="40.09193021902253" lon="15.44761475455922"><ele>320.0</ele><time>2026-04-26T07:25:00Z</time></trkpt><trkpt lat="40.09195722513981" lon="15.447711855672841"><ele>320.0</ele><time>2026-04-26T07:25:01Z</time></trkpt><trkpt lat="40.09197051294885" lon="15.447811792392601"><ele>320.0</ele><time>2026-04-26T07:25:02Z</time></trkpt><trkpt lat="40.09199394552832" lon="15.447889847574741"><ele>320.0</ele><time>2026-04-26T07:25:03Z</time></trkpt><trkpt lat="40.092039220668916" lon="15.44803915578166"><ele>320.0</ele><time>2026-04-26T07:25:05Z</time></trkpt><trkpt lat="40.092070821109814" lon="15.448133832813756"><ele>320.0</ele><time>2026-04-26T07:25:06Z</time></trkpt><trkpt lat="40.09210268487897" lon="15.448214799292572"><ele>317.5</ele><time>2026-04-26T07:25:07Z</time></trkpt><trkpt lat="40.0921282044715" lon="15.448310632396092"><ele>315.0</ele><time>2026-04-26T07:25:09Z</time></trkpt><trkpt lat="40.09213942471547" lon="15.44839481943831"><ele>312.5</ele><time>2026-04-26T07:25:42.999Z</time></trkpt><trkpt lat="40.092120495383085" lon="15.448525784668094"><ele>310.0</ele><time>2026-04-26T07:25:46.999Z</time></trkpt><trkpt lat="40.09210665170737" lon="15.448685135352283"><ele>307.5</ele><time>2026-04-26T07:25:48.999Z</time></trkpt><trkpt lat="40.09209979797945" lon="15.448789728715553"><ele>305.0</ele><time>2026-04-26T07:25:49.999Z</time></trkpt><trkpt lat="40.09210603256776" lon="15.448934958995846"><ele>302.6666666666667</ele><time>2026-04-26T07:25:51.999Z</time></trkpt><trkpt lat="40.092141154835474" lon="15.449034369710757"><ele>300.33333333333337</ele><time>2026-04-26T07:25:53.999Z</time></trkpt><trkpt lat="40.092192104720375" lon="15.449118800729307"><ele>298.0</ele><time>2026-04-26T07:25:55.999Z</time></trkpt><trkpt lat="40.092252225606885" lon="15.449162989432757"><ele>295.6666666666667</ele><time>2026-04-26T07:25:57.999Z</time></trkpt><trkpt lat="40.0923259169333" lon="15.449200047623012"><ele>293.3333333333333</ele><time>2026-04-26T07:26:00.999Z</time></trkpt><trkpt lat="40.0924132358517" lon="15.449195929853271"><ele>291.0</ele><time>2026-04-26T07:29:40.999Z</time></trkpt><trkpt lat="40.09248184824865" lon="15.449155923098502"><ele>290.85714285714283</ele><time>2026-04-26T07:29:42.999Z</time></trkpt><trkpt lat="40.092527661491836" lon="15.449076309503317"><ele>290.71428571428567</ele><time>2026-04-26T07:29:43.999Z</time></trkpt><trkpt lat="40.092556610565936" lon="15.44899967403235"><ele>290.57142857142856</ele><time>2026-04-26T07:29:44.999Z</time></trkpt><trkpt lat="40.092566371527134" lon="15.448916090597223"><ele>290.42857142857144</ele><time>2026-04-26T07:29:45.999Z</time></trkpt><trkpt lat="40.092565334094296" lon="15.448821409279239"><ele>290.28571428571433</ele><time>2026-04-26T07:29:46.999Z</time></trkpt><trkpt lat="40.092592868608705" lon="15.448714263388013"><ele>290.14285714285717</ele><time>2026-04-26T07:29:48.999Z</time></trkpt><trkpt lat="40.092663636879166" lon="15.44868508195766"><ele>290.0</ele><time>2026-04-26T07:29:50.999Z</time></trkpt><trkpt lat="40.09273889052195" lon="15.448708373383138"><ele>290.0</ele><time>2026-04-26T07:31:55.999Z</time></trkpt><trkpt lat="40.09281571363566" lon="15.448818398209076"><ele>290.0</ele><time>2026-04-26T07:31:57.999Z</time></trkpt><trkpt lat="40.092872749505126" lon="15.44888791341017"><ele>290.0</ele><time>2026-04-26T07:31:58.999Z</time></trkpt><trkpt lat="40.092928767468955" lon="15.44895361407182"><ele>290.0</ele><time>2026-04-26T07:31:59.999Z</time></trkpt><trkpt lat="40.09298341964908" lon="15.449004660516518"><ele>290.0</ele><time>2026-04-26T07:32:00.999Z</time></trkpt><trkpt lat="40.093076982782655" lon="15.44908727521144"><ele>290.0</ele><time>2026-04-26T07:32:02.999Z</time></trkpt><trkpt lat="40.09315141215857" lon="15.449168794896632"><ele>290.0</ele><time>2026-04-26T07:32:04.999Z</time></trkpt><trkpt lat="40.09321377666152" lon="15.449232679625332"><ele>290.0</ele><time>2026-04-26T07:32:06.999Z</time></trkpt><trkpt lat="40.09330830362844" lon="15.449301952572078"><ele>290.0</ele><time>2026-04-26T07:32:08.999Z</time></trkpt><trkpt lat="40.093373698114114" lon="15.449352650054795"><ele>290.0</ele><time>2026-04-26T07:32:09.999Z</time></trkpt><trkpt lat="40.09342761455559" lon="15.449412081027875"><ele>290.0</ele><time>2026-04-26T07:32:10.999Z</time></trkpt><trkpt lat="40.09348384770067" lon="15.449504044704051"><ele>290.0</ele><time>2026-04-26T07:32:12.999Z</time></trkpt><trkpt lat="40.093531359900496" lon="15.449629947102204"><ele>285.8</ele><time>2026-04-26T07:32:14.999Z</time></trkpt><trkpt lat="40.09359136611973" lon="15.449735800171021"><ele>281.6</ele><time>2026-04-26T07:32:16.999Z</time></trkpt><trkpt lat="40.09365035807091" lon="15.449779120708001"><ele>277.4</ele><time>2026-04-26T07:32:17.999Z</time></trkpt><trkpt lat="40.09370649314089" lon="15.449893291330081"><ele>273.2</ele><time>2026-04-26T07:32:19.999Z</time></trkpt><trkpt lat="40.09374070873397" lon="15.4500467096734"><ele>269.0</ele><time>2026-04-26T07:32:22Z</time></trkpt><trkpt lat="40.09379359566948" lon="15.450192641619138"><ele>269.0</ele><time>2026-04-26T07:32:24Z</time></trkpt><trkpt lat="40.09381141928265" lon="15.450283198303763"><ele>269.0</ele><time>2026-04-26T07:32:25Z</time></trkpt><trkpt lat="40.093833803825845" lon="15.450428166985981"><ele>269.0</ele><time>2026-04-26T07:32:27Z</time></trkpt><trkpt lat="40.09388803738815" lon="15.450591909632308"><ele>269.0</ele><time>2026-04-26T07:32:29Z</time></trkpt><trkpt lat="40.09393639996624" lon="15.450683824054105"><ele>269.0</ele><time>2026-04-26T07:32:30Z</time></trkpt><trkpt lat="40.0939982492529" lon="15.450757826846651"><ele>269.0</ele><time>2026-04-26T07:32:31Z</time></trkpt><trkpt lat="40.09405746685485" lon="15.450835075534242"><ele>269.0</ele><time>2026-04-26T07:32:32Z</time></trkpt><trkpt lat="40.09410269148536" lon="15.450905063693318"><ele>269.0</ele><time>2026-04-26T07:32:33Z</time></trkpt><trkpt lat="40.094155137592445" lon="15.451012126572849"><ele>269.0</ele><time>2026-04-26T07:32:35Z</time></trkpt><trkpt lat="40.094210820449476" lon="15.451134519997108"><ele>269.0</ele><time>2026-04-26T07:32:37Z</time></trkpt><trkpt lat="40.094250536695164" lon="15.451251515375144"><ele>266.5</ele><time>2026-04-26T07:32:39Z</time></trkpt><trkpt lat="40.09433480459693" lon="15.451350336337818"><ele>264.0</ele><time>2026-04-26T07:32:41Z</time></trkpt><trkpt lat="40.09437914539618" lon="15.451410059144491"><ele>261.5</ele><time>2026-04-26T07:32:42Z</time></trkpt><trkpt lat="40.0944512310727" lon="15.451532157061806"><ele>259.0</ele><time>2026-04-26T07:32:44Z</time></trkpt><trkpt lat="40.09449497677524" lon="15.451607904568764"><ele>256.5</ele><time>2026-04-26T07:32:45Z</time></trkpt><trkpt lat="40.094538865082136" lon="15.451687763045115"><ele>254.0</ele><time>2026-04-26T07:32:46Z</time></trkpt><trkpt lat="40.094608070095134" lon="15.451794503118823"><ele>254.0</ele><time>2026-04-26T07:32:48Z</time></trkpt><trkpt lat="40.094672174146986" lon="15.451850974473304"><ele>254.0</ele><time>2026-04-26T07:32:50Z</time></trkpt><trkpt lat="40.09474451943637" lon="15.451948002571967"><ele>254.0</ele><time>2026-04-26T07:32:52Z</time></trkpt><trkpt lat="40.094890514829395" lon="15.45214003383938"><ele>254.0</ele><time>2026-04-26T07:32:55Z</time></trkpt><trkpt lat="40.094943173135476" lon="15.452220705428186"><ele>251.16666666666669</ele><time>2026-04-26T07:32:56Z</time></trkpt><trkpt lat="40.09498943902584" lon="15.452292134996746"><ele>248.33333333333334</ele><time>2026-04-26T07:32:57Z</time></trkpt><trkpt lat="40.09503369630661" lon="15.452351960871486"><ele>245.5</ele><time>2026-04-26T07:32:58Z</time></trkpt><trkpt lat="40.09510959549064" lon="15.452432160254164"><ele>242.66666666666669</ele><time>2026-04-26T07:33:00Z</time></trkpt><trkpt lat="40.09514855500727" lon="15.45249802095792"><ele>239.83333333333334</ele><time>2026-04-26T07:33:02Z</time></trkpt><trkpt lat="40.09514690379642" lon="15.452610230565318"><ele>237.0</ele><time>2026-04-26T07:33:14Z</time></trkpt><trkpt lat="40.09517313954392" lon="15.452695363910177"><ele>236.99999999999997</ele><time>2026-04-26T07:33:17Z</time></trkpt><trkpt lat="40.09520850625707" lon="15.452769865294137"><ele>237.0</ele><time>2026-04-26T07:33:18Z</time></trkpt><trkpt lat="40.09524175099976" lon="15.4528491211609"><ele>236.99999999999997</ele><time>2026-04-26T07:33:19Z</time></trkpt><trkpt lat="40.09529169579273" lon="15.452960753717518"><ele>236.99999999999997</ele><time>2026-04-26T07:33:21Z</time></trkpt><trkpt lat="40.09532843727679" lon="15.453043453584328"><ele>237.0</ele><time>2026-04-26T07:33:22Z</time></trkpt><trkpt lat="40.09536627009997" lon="15.453121875737303"><ele>236.99999999999997</ele><time>2026-04-26T07:33:23Z</time></trkpt><trkpt lat="40.09539538660124" lon="15.45319963885675"><ele>236.99999999999997</ele><time>2026-04-26T07:33:24Z</time></trkpt><trkpt lat="40.09541838456421" lon="15.453299369034884"><ele>235.6</ele><time>2026-04-26T07:33:25Z</time></trkpt><trkpt lat="40.095454244388606" lon="15.453406153546089"><ele>234.2</ele><time>2026-04-26T07:33:26Z</time></trkpt><trkpt lat="40.095510820285824" lon="15.453494959789115"><ele>232.8</ele><time>2026-04-26T07:33:27Z</time></trkpt><trkpt lat="40.09558628292459" lon="15.453582820208137"><ele>231.4</ele><time>2026-04-26T07:33:28Z</time></trkpt><trkpt lat="40.09565875373039" lon="15.453667472606472"><ele>230.0</ele><time>2026-04-26T07:33:29Z</time></trkpt><trkpt lat="40.09571569998943" lon="15.453744075716711"><ele>227.50000000000003</ele><time>2026-04-26T07:33:30Z</time></trkpt><trkpt lat="40.095775823466994" lon="15.453820980379064"><ele>225.0</ele><time>2026-04-26T07:33:31Z</time></trkpt><trkpt lat="40.09583759098137" lon="15.453905803165883"><ele>222.5</ele><time>2026-04-26T07:33:32Z</time></trkpt><trkpt lat="40.0958880773536" lon="15.453997419957613"><ele>220.0</ele><time>2026-04-26T07:33:33Z</time></trkpt><trkpt lat="40.095938497061425" lon="15.454084292785971"><ele>217.50000000000003</ele><time>2026-04-26T07:33:34Z</time></trkpt><trkpt lat="40.095995165941645" lon="15.454146681073354"><ele>215.0</ele><time>2026-04-26T07:33:35Z</time></trkpt><trkpt lat="40.09605281072877" lon="15.454186353597345"><ele>215.00000000000003</ele><time>2026-04-26T07:33:36Z</time></trkpt><trkpt lat="40.09612756898382" lon="15.454207638703018"><ele>215.0</ele><time>2026-04-26T07:33:37Z</time></trkpt><trkpt lat="40.09620953160652" lon="15.45421493118518"><ele>215.0</ele><time>2026-04-26T07:33:38Z</time></trkpt><trkpt lat="40.09629774066134" lon="15.454202885728735"><ele>215.0</ele><time>2026-04-26T07:33:39Z</time></trkpt><trkpt lat="40.096368661397534" lon="15.45416912521321"><ele>215.00000000000003</ele><time>2026-04-26T07:33:40Z</time></trkpt><trkpt lat="40.09643774419136" lon="15.454116914674831"><ele>215.0</ele><time>2026-04-26T07:33:41Z</time></trkpt><trkpt lat="40.09650666768887" lon="15.454064050526734"><ele>215.0</ele><time>2026-04-26T07:33:42Z</time></trkpt><trkpt lat="40.09658728978524" lon="15.454002827344926"><ele>215.0</ele><time>2026-04-26T07:33:44Z</time></trkpt><trkpt lat="40.096573696520075" lon="15.454174687822182"><ele>215.0</ele><time>2026-04-26T07:33:48.999Z</time></trkpt><trkpt lat="40.096526592557474" lon="15.454276378374836"><ele>215.0</ele><time>2026-04-26T07:33:49.999Z</time></trkpt><trkpt lat="40.09652320474676" lon="15.454435494035646"><ele>215.0</ele><time>2026-04-26T07:33:50.999Z</time></trkpt><trkpt lat="40.096548129856174" lon="15.454641762383268"><ele>214.0</ele><time>2026-04-26T07:33:51.999Z</time></trkpt><trkpt lat="40.09655252064752" lon="15.454884244413211"><ele>213.0</ele><time>2026-04-26T07:33:52.999Z</time></trkpt><trkpt lat="40.09654109721492" lon="15.455177424665136"><ele>212.0</ele><time>2026-04-26T07:33:53.999Z</time></trkpt><trkpt lat="40.09654558010525" lon="15.455467992439038"><ele>209.33333333333334</ele><time>2026-04-26T07:33:54.999Z</time></trkpt><trkpt lat="40.0965698227887" lon="15.455711497370347"><ele>206.66666666666669</ele><time>2026-04-26T07:33:55.999Z</time></trkpt><trkpt lat="40.09660204594438" lon="15.4559305870912"><ele>204.0</ele><time>2026-04-26T07:33:56.999Z</time></trkpt><trkpt lat="40.09665788299026" lon="15.456197204826074"><ele>199.66666666666666</ele><time>2026-04-26T07:33:57.999Z</time></trkpt><trkpt lat="40.09672650328633" lon="15.45644190099651"><ele>195.33333333333331</ele><time>2026-04-26T07:33:58.999Z</time></trkpt><trkpt lat="40.09678379605936" lon="15.456648090029015"><ele>191.0</ele><time>2026-04-26T07:33:59.999Z</time></trkpt><trkpt lat="40.09681969314513" lon="15.456833489116896"><ele>191.0</ele><time>2026-04-26T07:34:00.999Z</time></trkpt><trkpt lat="40.096840234261514" lon="15.457017476735603"><ele>191.0</ele><time>2026-04-26T07:34:01.999Z</time></trkpt><trkpt lat="40.096813688697175" lon="15.457235103440029"><ele>191.0</ele><time>2026-04-26T07:34:02.999Z</time></trkpt><trkpt lat="40.096793349891975" lon="15.457473883351"><ele>189.66666666666666</ele><time>2026-04-26T07:34:03.999Z</time></trkpt><trkpt lat="40.09677461170354" lon="15.45768501585922"><ele>188.33333333333334</ele><time>2026-04-26T07:34:04.999Z</time></trkpt><trkpt lat="40.096756189432696" lon="15.457889178998876"><ele>187.0</ele><time>2026-04-26T07:34:05.999Z</time></trkpt><trkpt lat="40.0967467113178" lon="15.45810498114906"><ele>184.66666666666669</ele><time>2026-04-26T07:34:06.999Z</time></trkpt><trkpt lat="40.09672876511236" lon="15.458323703526046"><ele>182.33333333333334</ele><time>2026-04-26T07:34:07.999Z</time></trkpt><trkpt lat="40.09670945363665" lon="15.458534413076379"><ele>180.0</ele><time>2026-04-26T07:34:08.999Z</time></trkpt><trkpt lat="40.09669189372985" lon="15.458735745790436"><ele>178.0</ele><time>2026-04-26T07:34:09.999Z</time></trkpt><trkpt lat="40.096675781652344" lon="15.458945796651514"><ele>176.0</ele><time>2026-04-26T07:34:10.999Z</time></trkpt><trkpt lat="40.09665632859131" lon="15.459151110337578"><ele>174.0</ele><time>2026-04-26T07:34:11.999Z</time></trkpt><trkpt lat="40.09663185683615" lon="15.459359358546111"><ele>174.0</ele><time>2026-04-26T07:34:12.999Z</time></trkpt><trkpt lat="40.0966012916302" lon="15.459572455331282"><ele>174.0</ele><time>2026-04-26T07:34:13.999Z</time></trkpt><trkpt lat="40.0965410503014" lon="15.459782253993506"><ele>174.0</ele><time>2026-04-26T07:34:14.999Z</time></trkpt><trkpt lat="40.0964882432102" lon="15.460011548032512"><ele>173.66666666666666</ele><time>2026-04-26T07:34:15.999Z</time></trkpt><trkpt lat="40.09643539692772" lon="15.46024923266505"><ele>173.33333333333331</ele><time>2026-04-26T07:34:16.999Z</time></trkpt><trkpt lat="40.096385969051966" lon="15.460471124960648"><ele>173.0</ele><time>2026-04-26T07:34:17.999Z</time></trkpt><trkpt lat="40.09635338936884" lon="15.460691504138964"><ele>171.33333333333331</ele><time>2026-04-26T07:34:18.999Z</time></trkpt><trkpt lat="40.096303313272244" lon="15.460911631267534"><ele>169.66666666666666</ele><time>2026-04-26T07:34:19.999Z</time></trkpt><trkpt lat="40.09625390756455" lon="15.461134913270818"><ele>168.0</ele><time>2026-04-26T07:34:20.999Z</time></trkpt><trkpt lat="40.09620354493641" lon="15.461357875701095"><ele>165.66666666666666</ele><time>2026-04-26T07:34:21.999Z</time></trkpt><trkpt lat="40.096151142489205" lon="15.461594167653997"><ele>163.33333333333331</ele><time>2026-04-26T07:34:22.999Z</time></trkpt><trkpt lat="40.0960997782419" lon="15.461831931566655"><ele>161.0</ele><time>2026-04-26T07:34:23.999Z</time></trkpt><trkpt lat="40.09605028370487" lon="15.46206370980847"><ele>159.66666666666666</ele><time>2026-04-26T07:34:24.999Z</time></trkpt><trkpt lat="40.09599671457327" lon="15.4622926632666"><ele>158.33333333333334</ele><time>2026-04-26T07:34:25.999Z</time></trkpt><trkpt lat="40.095939914339475" lon="15.462518134343286"><ele>157.0</ele><time>2026-04-26T07:34:27Z</time></trkpt><trkpt lat="40.095882539669034" lon="15.462760494207423"><ele>155.33333333333334</ele><time>2026-04-26T07:34:28Z</time></trkpt><trkpt lat="40.09583713245074" lon="15.463007069974715"><ele>153.66666666666666</ele><time>2026-04-26T07:34:29Z</time></trkpt><trkpt lat="40.09579925670008" lon="15.463248425732468"><ele>152.0</ele><time>2026-04-26T07:34:30Z</time></trkpt><trkpt lat="40.095768529584895" lon="15.463494639926477"><ele>151.33333333333331</ele><time>2026-04-26T07:34:31Z</time></trkpt><trkpt lat="40.09574224392921" lon="15.463738583871297"><ele>150.66666666666666</ele><time>2026-04-26T07:34:32Z</time></trkpt><trkpt lat="40.09572117225583" lon="15.463958459939374"><ele>150.0</ele><time>2026-04-26T07:34:33Z</time></trkpt><trkpt lat="40.09570098972035" lon="15.46417158858621"><ele>150.0</ele><time>2026-04-26T07:34:34Z</time></trkpt><trkpt lat="40.09567725063016" lon="15.464377725760842"><ele>150.0</ele><time>2026-04-26T07:34:35Z</time></trkpt><trkpt lat="40.095650568570214" lon="15.464574532788756"><ele>150.0</ele><time>2026-04-26T07:34:36Z</time></trkpt><trkpt lat="40.095613431458574" lon="15.464746935297368"><ele>150.0</ele><time>2026-04-26T07:34:37Z</time></trkpt><trkpt lat="40.09554736555908" lon="15.464877833100658"><ele>146.33333333333334</ele><time>2026-04-26T07:34:38Z</time></trkpt><trkpt lat="40.095447491079646" lon="15.46498437422604"><ele>142.66666666666669</ele><time>2026-04-26T07:34:39Z</time></trkpt><trkpt lat="40.09530870286536" lon="15.465082931937536"><ele>139.0</ele><time>2026-04-26T07:34:40Z</time></trkpt><trkpt lat="40.09514020662667" lon="15.46518232938769"><ele>139.0</ele><time>2026-04-26T07:34:41Z</time></trkpt><trkpt lat="40.095004319494485" lon="15.465262708692439"><ele>139.0</ele><time>2026-04-26T07:34:42Z</time></trkpt><trkpt lat="40.09490688776401" lon="15.465349792275202"><ele>139.0</ele><time>2026-04-26T07:34:43Z</time></trkpt><trkpt lat="40.09482295844957" lon="15.465427567522916"><ele>139.0</ele><time>2026-04-26T07:34:44Z</time></trkpt><trkpt lat="40.09476640979738" lon="15.465528242011048"><ele>140.2</ele><time>2026-04-26T07:34:45Z</time></trkpt><trkpt lat="40.09474909359826" lon="15.465647176479317"><ele>141.4</ele><time>2026-04-26T07:34:46Z</time></trkpt><trkpt lat="40.09477262223169" lon="15.465750896494335"><ele>142.6</ele><time>2026-04-26T07:34:47Z</time></trkpt><trkpt lat="40.09484313818715" lon="15.46584959312606"><ele>143.8</ele><time>2026-04-26T07:34:48Z</time></trkpt><trkpt lat="40.09492155643013" lon="15.465944912853999"><ele>145.0</ele><time>2026-04-26T07:34:49Z</time></trkpt><trkpt lat="40.09498055941941" lon="15.466068654987538"><ele>144.5</ele><time>2026-04-26T07:34:50Z</time></trkpt><trkpt lat="40.09500951831315" lon="15.466214556883717"><ele>144.0</ele><time>2026-04-26T07:34:51Z</time></trkpt><trkpt lat="40.095004462550925" lon="15.4663694596798"><ele>143.5</ele><time>2026-04-26T07:34:52Z</time></trkpt><trkpt lat="40.09493673236705" lon="15.466515683175201"><ele>143.0</ele><time>2026-04-26T07:34:53Z</time></trkpt><trkpt lat="40.09486966191591" lon="15.466691481128816"><ele>143.0</ele><time>2026-04-26T07:34:54Z</time></trkpt><trkpt lat="40.09479021378643" lon="15.46687240290389"><ele>143.0</ele><time>2026-04-26T07:34:55Z</time></trkpt><trkpt lat="40.094710255205335" lon="15.467055973672606"><ele>143.0</ele><time>2026-04-26T07:34:56Z</time></trkpt><trkpt lat="40.09463362152874" lon="15.467236030699265"><ele>142.25</ele><time>2026-04-26T07:34:57Z</time></trkpt><trkpt lat="40.09456259048282" lon="15.46740169769618"><ele>141.5</ele><time>2026-04-26T07:34:58Z</time></trkpt><trkpt lat="40.09450546878471" lon="15.467567553080597"><ele>140.75</ele><time>2026-04-26T07:34:59Z</time></trkpt><trkpt lat="40.09444125267576" lon="15.467701189398193"><ele>140.0</ele><time>2026-04-26T07:35:00Z</time></trkpt><trkpt lat="40.09438706833762" lon="15.467817777826385"><ele>140.0</ele><time>2026-04-26T07:35:01Z</time></trkpt><trkpt lat="40.09432901989256" lon="15.467942764926292"><ele>140.0</ele><time>2026-04-26T07:35:02Z</time></trkpt><trkpt lat="40.094262086472426" lon="15.468118513786829"><ele>140.0</ele><time>2026-04-26T07:35:03Z</time></trkpt><trkpt lat="40.09419695052014" lon="15.468337796902626"><ele>140.0</ele><time>2026-04-26T07:35:04Z</time></trkpt><trkpt lat="40.09414159349697" lon="15.468554758003568"><ele>140.33333333333331</ele><time>2026-04-26T07:35:05Z</time></trkpt><trkpt lat="40.094095376608685" lon="15.46875487382159"><ele>140.66666666666666</ele><time>2026-04-26T07:35:06Z</time></trkpt><trkpt lat="40.09407119380585" lon="15.468965878731433"><ele>141.0</ele><time>2026-04-26T07:35:07Z</time></trkpt><trkpt lat="40.09406470223029" lon="15.469177717548922"><ele>141.0</ele><time>2026-04-26T07:35:08Z</time></trkpt><trkpt lat="40.09407413715532" lon="15.469366180165066"><ele>141.0</ele><time>2026-04-26T07:35:09Z</time></trkpt><trkpt lat="40.09410838210403" lon="15.469546464970069"><ele>141.0</ele><time>2026-04-26T07:35:10Z</time></trkpt><trkpt lat="40.09417035097025" lon="15.469712380490547"><ele>141.0</ele><time>2026-04-26T07:35:11Z</time></trkpt><trkpt lat="40.09422275336937" lon="15.46986179758637"><ele>139.0</ele><time>2026-04-26T07:35:12Z</time></trkpt><trkpt lat="40.094247245289495" lon="15.470009511192895"><ele>137.0</ele><time>2026-04-26T07:35:13Z</time></trkpt><trkpt lat="40.09424984639704" lon="15.470160588459972"><ele>135.0</ele><time>2026-04-26T07:35:14Z</time></trkpt><trkpt lat="40.09421853572252" lon="15.470323695128204"><ele>133.0</ele><time>2026-04-26T07:35:15Z</time></trkpt><trkpt lat="40.094219175517566" lon="15.470502363844908"><ele>130.33333333333334</ele><time>2026-04-26T07:35:16Z</time></trkpt><trkpt lat="40.094187116349644" lon="15.47067587525806"><ele>127.66666666666666</ele><time>2026-04-26T07:35:17Z</time></trkpt><trkpt lat="40.09415994743244" lon="15.470871930387622"><ele>125.0</ele><time>2026-04-26T07:35:18Z</time></trkpt><trkpt lat="40.09412834891998" lon="15.471095472624198"><ele>126.33333333333333</ele><time>2026-04-26T07:35:19Z</time></trkpt><trkpt lat="40.094085564586244" lon="15.471300386846465"><ele>127.66666666666666</ele><time>2026-04-26T07:35:20Z</time></trkpt><trkpt lat="40.094038194859266" lon="15.471487867918365"><ele>129.0</ele><time>2026-04-26T07:35:21Z</time></trkpt><trkpt lat="40.093992528464234" lon="15.471670111675367"><ele>129.0</ele><time>2026-04-26T07:35:22Z</time></trkpt><trkpt lat="40.093953105139626" lon="15.471855126492128"><ele>129.0</ele><time>2026-04-26T07:35:23Z</time></trkpt><trkpt lat="40.093932283658546" lon="15.472069806598377"><ele>129.0</ele><time>2026-04-26T07:35:24Z</time></trkpt><trkpt lat="40.09392937787392" lon="15.47231285036323"><ele>125.0</ele><time>2026-04-26T07:35:25Z</time></trkpt><trkpt lat="40.09390141692415" lon="15.472547373040952"><ele>121.0</ele><time>2026-04-26T07:35:26Z</time></trkpt><trkpt lat="40.09387804485084" lon="15.472786675264272"><ele>117.0</ele><time>2026-04-26T07:35:27Z</time></trkpt><trkpt lat="40.09387700581372" lon="15.473038134232045"><ele>114.0</ele><time>2026-04-26T07:35:28Z</time></trkpt><trkpt lat="40.09385914703985" lon="15.473284312527795"><ele>111.0</ele><time>2026-04-26T07:35:29Z</time></trkpt><trkpt lat="40.09384434555582" lon="15.47351435335378"><ele>108.0</ele><time>2026-04-26T07:35:30Z</time></trkpt><trkpt lat="40.09382938781689" lon="15.473740836175402"><ele>105.33333333333334</ele><time>2026-04-26T07:35:31Z</time></trkpt><trkpt lat="40.09381090952132" lon="15.473965273117312"><ele>102.66666666666667</ele><time>2026-04-26T07:35:32Z</time></trkpt><trkpt lat="40.09379038311648" lon="15.474194980151893"><ele>100.0</ele><time>2026-04-26T07:35:33Z</time></trkpt><trkpt lat="40.093767059363444" lon="15.474411115747412"><ele>97.33333333333334</ele><time>2026-04-26T07:35:34Z</time></trkpt><trkpt lat="40.09375451513125" lon="15.474623109344343"><ele>94.66666666666667</ele><time>2026-04-26T07:35:35Z</time></trkpt><trkpt lat="40.093763911590095" lon="15.474841090924132"><ele>92.0</ele><time>2026-04-26T07:35:36Z</time></trkpt><trkpt lat="40.09377601184752" lon="15.475064388965299"><ele>92.0</ele><time>2026-04-26T07:35:37Z</time></trkpt><trkpt lat="40.09378972928612" lon="15.475299198516703"><ele>92.0</ele><time>2026-04-26T07:35:38Z</time></trkpt><trkpt lat="40.093802349988955" lon="15.475542376794634"><ele>92.0</ele><time>2026-04-26T07:35:39Z</time></trkpt><trkpt lat="40.09381715700302" lon="15.475795897518626"><ele>88.66666666666667</ele><time>2026-04-26T07:35:40Z</time></trkpt><trkpt lat="40.093829219607336" lon="15.476024993568924"><ele>85.33333333333333</ele><time>2026-04-26T07:35:41Z</time></trkpt><trkpt lat="40.09382841559053" lon="15.476215798688163"><ele>82.0</ele><time>2026-04-26T07:35:42Z</time></trkpt><trkpt lat="40.09381588264853" lon="15.476397260504896"><ele>78.0</ele><time>2026-04-26T07:35:43Z</time></trkpt><trkpt lat="40.093753731598746" lon="15.47658223718018"><ele>74.0</ele><time>2026-04-26T07:35:44Z</time></trkpt><trkpt lat="40.09368198705097" lon="15.476765785226497"><ele>70.0</ele><time>2026-04-26T07:35:45Z</time></trkpt><trkpt lat="40.09360928058058" lon="15.47696006823535"><ele>67.0</ele><time>2026-04-26T07:35:46Z</time></trkpt><trkpt lat="40.09356302100401" lon="15.477159109425818"><ele>64.0</ele><time>2026-04-26T07:35:47Z</time></trkpt><trkpt lat="40.093518539859176" lon="15.477350345038442"><ele>61.0</ele><time>2026-04-26T07:35:48Z</time></trkpt><trkpt lat="40.093469653539586" lon="15.477559938781189"><ele>61.0</ele><time>2026-04-26T07:35:49Z</time></trkpt><trkpt lat="40.09337890310056" lon="15.477759836808232"><ele>61.0</ele><time>2026-04-26T07:35:49.999Z</time></trkpt><trkpt lat="40.09329889949482" lon="15.47795474036203"><ele>61.0</ele><time>2026-04-26T07:35:50.999Z</time></trkpt><trkpt lat="40.09323472257448" lon="15.478137563211485"><ele>56.75</ele><time>2026-04-26T07:35:51.999Z</time></trkpt><trkpt lat="40.09313265960376" lon="15.47827041631672"><ele>52.5</ele><time>2026-04-26T07:35:52.999Z</time></trkpt><trkpt lat="40.093045757319985" lon="15.478392278187965"><ele>48.25</ele><time>2026-04-26T07:35:53.999Z</time></trkpt><trkpt lat="40.09297299484944" lon="15.478522720203346"><ele>44.0</ele><time>2026-04-26T07:35:54.999Z</time></trkpt><trkpt lat="40.09291680069961" lon="15.478645386171193"><ele>42.25</ele><time>2026-04-26T07:35:55.999Z</time></trkpt><trkpt lat="40.09287985722658" lon="15.478798249838919"><ele>40.5</ele><time>2026-04-26T07:35:56.999Z</time></trkpt><trkpt lat="40.09286936741509" lon="15.478978704131407"><ele>38.75</ele><time>2026-04-26T07:35:57.999Z</time></trkpt><trkpt lat="40.09287378566403" lon="15.47916078750202"><ele>37.0</ele><time>2026-04-26T07:35:58.999Z</time></trkpt><trkpt lat="40.09288110251327" lon="15.479339562763355"><ele>37.0</ele><time>2026-04-26T07:35:59.999Z</time></trkpt><trkpt lat="40.09288045516706" lon="15.479511800956274"><ele>37.0</ele><time>2026-04-26T07:36:00.999Z</time></trkpt><trkpt lat="40.09288157611038" lon="15.479683030795584"><ele>37.0</ele><time>2026-04-26T07:36:01.999Z</time></trkpt><trkpt lat="40.09288129462183" lon="15.47983683595298"><ele>37.0</ele><time>2026-04-26T07:36:02.999Z</time></trkpt><trkpt lat="40.09287207759944" lon="15.479966026636665"><ele>35.4</ele><time>2026-04-26T07:36:03.999Z</time></trkpt><trkpt lat="40.09285702189435" lon="15.480065913860651"><ele>33.800000000000004</ele><time>2026-04-26T07:36:04.999Z</time></trkpt><trkpt lat="40.092783333583164" lon="15.480143175455751"><ele>32.2</ele><time>2026-04-26T07:36:06.999Z</time></trkpt><trkpt lat="40.0927160403859" lon="15.480131561825905"><ele>30.6</ele><time>2026-04-26T07:36:07.999Z</time></trkpt><trkpt lat="40.09264783363592" lon="15.48004030980001"><ele>29.0</ele><time>2026-04-26T07:36:08.999Z</time></trkpt><trkpt lat="40.0925404940723" lon="15.47998266688519"><ele>28.999999999999996</ele><time>2026-04-26T07:36:09.999Z</time></trkpt><trkpt lat="40.0924573777501" lon="15.479905176253155"><ele>29.0</ele><time>2026-04-26T07:36:10.999Z</time></trkpt><trkpt lat="40.09239484188857" lon="15.479850589128096"><ele>29.0</ele><time>2026-04-26T07:36:11.999Z</time></trkpt><trkpt lat="40.09233779517805" lon="15.4798140307212"><ele>29.0</ele><time>2026-04-26T07:36:12.999Z</time></trkpt><trkpt lat="40.09226484200422" lon="15.479803023390971"><ele>28.999999999999996</ele><time>2026-04-26T07:36:13.999Z</time></trkpt><trkpt lat="40.0921782728979" lon="15.479837855483025"><ele>29.0</ele><time>2026-04-26T07:36:14.999Z</time></trkpt><trkpt lat="40.09210089786072" lon="15.479912207755548"><ele>29.0</ele><time>2026-04-26T07:36:15.999Z</time></trkpt><trkpt lat="40.092034617940655" lon="15.480005739275413"><ele>29.0</ele><time>2026-04-26T07:36:16.999Z</time></trkpt><trkpt lat="40.09198622384498" lon="15.480118054311744"><ele>29.0</ele><time>2026-04-26T07:36:17.999Z</time></trkpt><trkpt lat="40.091934203580756" lon="15.48023335138503"><ele>29.0</ele><time>2026-04-26T07:36:18.999Z</time></trkpt><trkpt lat="40.09194349289002" lon="15.48038708248511"><ele>29.0</ele><time>2026-04-26T07:36:19.999Z</time></trkpt><trkpt lat="40.09193908337845" lon="15.480529826796172"><ele>29.2</ele><time>2026-04-26T07:36:20.999Z</time></trkpt><trkpt lat="40.091930374043244" lon="15.480662410537711"><ele>29.4</ele><time>2026-04-26T07:36:21.999Z</time></trkpt><trkpt lat="40.091924419755145" lon="15.480787168930705"><ele>29.6</ele><time>2026-04-26T07:36:22.999Z</time></trkpt><trkpt lat="40.09193699879947" lon="15.480905290862774"><ele>29.8</ele><time>2026-04-26T07:36:23.999Z</time></trkpt><trkpt lat="40.09197537423374" lon="15.481018214840505"><ele>30.0</ele><time>2026-04-26T07:36:24.999Z</time></trkpt><trkpt lat="40.09203079752584" lon="15.48112897358604"><ele>30.0</ele><time>2026-04-26T07:36:25.999Z</time></trkpt><trkpt lat="40.09210012517671" lon="15.48122848037521"><ele>30.0</ele><time>2026-04-26T07:36:26.999Z</time></trkpt><trkpt lat="40.092164060897765" lon="15.4813296183918"><ele>30.0</ele><time>2026-04-26T07:36:27.999Z</time></trkpt><trkpt lat="40.09221733899665" lon="15.48144566471589"><ele>30.0</ele><time>2026-04-26T07:36:28.999Z</time></trkpt><trkpt lat="40.09227647923598" lon="15.481556077782967"><ele>30.0</ele><time>2026-04-26T07:36:29.999Z</time></trkpt><trkpt lat="40.09233084896228" lon="15.481661448424843"><ele>30.0</ele><time>2026-04-26T07:36:30.999Z</time></trkpt><trkpt lat="40.09239858726726" lon="15.481766977050762"><ele>30.0</ele><time>2026-04-26T07:36:31.999Z</time></trkpt><trkpt lat="40.09248033268835" lon="15.481867192404254"><ele>30.0</ele><time>2026-04-26T07:36:33Z</time></trkpt><trkpt lat="40.09257374911477" lon="15.481951842569769"><ele>30.0</ele><time>2026-04-26T07:36:34Z</time></trkpt><trkpt lat="40.092669539082515" lon="15.482029248411434"><ele>30.0</ele><time>2026-04-26T07:36:35Z</time></trkpt><trkpt lat="40.09278201102762" lon="15.482094176200691"><ele>28.8</ele><time>2026-04-26T07:36:36Z</time></trkpt><trkpt lat="40.09288993730386" lon="15.482145938110634"><ele>27.6</ele><time>2026-04-26T07:36:37Z</time></trkpt><trkpt lat="40.09297226829182" lon="15.48222966478161"><ele>26.4</ele><time>2026-04-26T07:36:38Z</time></trkpt><trkpt lat="40.09306317475244" lon="15.482312611729444"><ele>25.2</ele><time>2026-04-26T07:36:39Z</time></trkpt><trkpt lat="40.093140211932145" lon="15.482410487490496"><ele>24.0</ele><time>2026-04-26T07:36:40Z</time></trkpt><trkpt lat="40.093222809413504" lon="15.482523215593767"><ele>23.5</ele><time>2026-04-26T07:36:41Z</time></trkpt><trkpt lat="40.093306530262026" lon="15.482651453132544"><ele>23.0</ele><time>2026-04-26T07:36:42Z</time></trkpt><trkpt lat="40.09339199271413" lon="15.482789352911178"><ele>22.5</ele><time>2026-04-26T07:36:43Z</time></trkpt><trkpt lat="40.09347279708457" lon="15.482919545308025"><ele>22.0</ele><time>2026-04-26T07:36:44Z</time></trkpt><trkpt lat="40.09355119944507" lon="15.483043062742771"><ele>22.0</ele><time>2026-04-26T07:36:45Z</time></trkpt><trkpt lat="40.09362869026553" lon="15.483163723117071"><ele>22.0</ele><time>2026-04-26T07:36:46Z</time></trkpt><trkpt lat="40.09368558277282" lon="15.483248686124043"><ele>22.0</ele><time>2026-04-26T07:36:47Z</time></trkpt><trkpt lat="40.09373438387543" lon="15.483327977208303"><ele>22.0</ele><time>2026-04-26T07:36:49Z</time></trkpt><trkpt lat="40.09377509678125" lon="15.483392787186425"><ele>22.0</ele><time>2026-04-26T07:36:50Z</time></trkpt><trkpt lat="40.093824682308274" lon="15.483499564096467"><ele>22.0</ele><time>2026-04-26T07:36:51Z</time></trkpt><trkpt lat="40.09389619205188" lon="15.483654803351806"><ele>22.0</ele><time>2026-04-26T07:36:52Z</time></trkpt><trkpt lat="40.09400967827875" lon="15.483830547755044"><ele>22.0</ele><time>2026-04-26T07:36:53Z</time></trkpt><trkpt lat="40.094120716336334" lon="15.48398524612398"><ele>22.0</ele><time>2026-04-26T07:36:54Z</time></trkpt><trkpt lat="40.094207346658045" lon="15.484142306218164"><ele>21.75</ele><time>2026-04-26T07:36:55Z</time></trkpt><trkpt lat="40.0943048021014" lon="15.484295941896656"><ele>21.5</ele><time>2026-04-26T07:36:56Z</time></trkpt><trkpt lat="40.09442441763197" lon="15.484421778755447"><ele>21.25</ele><time>2026-04-26T07:36:57Z</time></trkpt><trkpt lat="40.094533063196984" lon="15.484530577483842"><ele>21.0</ele><time>2026-04-26T07:36:58Z</time></trkpt><trkpt lat="40.09462958393891" lon="15.484634119185205"><ele>21.0</ele><time>2026-04-26T07:36:59Z</time></trkpt><trkpt lat="40.09471924917573" lon="15.484729230519175"><ele>21.0</ele><time>2026-04-26T07:37:00Z</time></trkpt><trkpt lat="40.09479078086846" lon="15.484811805242408"><ele>21.0</ele><time>2026-04-26T07:37:01Z</time></trkpt><trkpt lat="40.09484835988968" lon="15.484895551478251"><ele>21.0</ele><time>2026-04-26T07:37:02Z</time></trkpt><trkpt lat="40.0948857694092" lon="15.48498644583262"><ele>21.0</ele><time>2026-04-26T07:37:03Z</time></trkpt><trkpt lat="40.09489277937817" lon="15.485082889404389"><ele>21.0</ele><time>2026-04-26T07:37:04Z</time></trkpt><trkpt lat="40.094873168048316" lon="15.485168079648071"><ele>21.0</ele><time>2026-04-26T07:37:05Z</time></trkpt><trkpt lat="40.094786683655826" lon="15.485237419701821"><ele>21.0</ele><time>2026-04-26T07:37:06Z</time></trkpt><trkpt lat="40.09470679589435" lon="15.485370827981836"><ele>21.0</ele><time>2026-04-26T07:37:07Z</time></trkpt><trkpt lat="40.09461471668803" lon="15.485486317951436"><ele>21.0</ele><time>2026-04-26T07:37:08Z</time></trkpt><trkpt lat="40.09452997258977" lon="15.485618622374787"><ele>20.666666666666668</ele><time>2026-04-26T07:37:09Z</time></trkpt><trkpt lat="40.09445314123778" lon="15.485768738909263"><ele>20.333333333333336</ele><time>2026-04-26T07:37:10Z</time></trkpt><trkpt lat="40.09437166928167" lon="15.485950977090775"><ele>20.0</ele><time>2026-04-26T07:37:11Z</time></trkpt><trkpt lat="40.09429052334085" lon="15.486116877937677"><ele>20.0</ele><time>2026-04-26T07:37:12Z</time></trkpt><trkpt lat="40.094206887492994" lon="15.486226317152374"><ele>20.0</ele><time>2026-04-26T07:37:13Z</time></trkpt><trkpt lat="40.09416695717946" lon="15.486339252126452"><ele>20.0</ele><time>2026-04-26T07:37:14Z</time></trkpt><trkpt lat="40.094139006459514" lon="15.486434184997313"><ele>20.0</ele><time>2026-04-26T07:37:15Z</time></trkpt><trkpt lat="40.09415139197374" lon="15.486531004661934"><ele>20.0</ele><time>2026-04-26T07:37:16Z</time></trkpt><trkpt lat="40.094213830077024" lon="15.48660265441406"><ele>20.0</ele><time>2026-04-26T07:37:17Z</time></trkpt><trkpt lat="40.09429527669352" lon="15.48664248147006"><ele>20.2</ele><time>2026-04-26T07:37:18Z</time></trkpt><trkpt lat="40.09439822669135" lon="15.486647473306624"><ele>20.4</ele><time>2026-04-26T07:37:19Z</time></trkpt><trkpt lat="40.09449811821746" lon="15.486657479419966"><ele>20.6</ele><time>2026-04-26T07:37:20Z</time></trkpt><trkpt lat="40.0945880887261" lon="15.486662274046761"><ele>20.8</ele><time>2026-04-26T07:37:21Z</time></trkpt><trkpt lat="40.09467503576289" lon="15.486669889087977"><ele>21.0</ele><time>2026-04-26T07:37:22Z</time></trkpt><trkpt lat="40.09477044417458" lon="15.48667600836415"><ele>21.0</ele><time>2026-04-26T07:37:23Z</time></trkpt><trkpt lat="40.094884224532606" lon="15.486681487401805"><ele>21.0</ele><time>2026-04-26T07:37:24Z</time></trkpt><trkpt lat="40.094993775783074" lon="15.4866880512266"><ele>21.0</ele><time>2026-04-26T07:37:25Z</time></trkpt><trkpt lat="40.09509268040449" lon="15.486717418474157"><ele>21.0</ele><time>2026-04-26T07:37:26Z</time></trkpt><trkpt lat="40.09520132273877" lon="15.48676808511312"><ele>21.0</ele><time>2026-04-26T07:37:27Z</time></trkpt><trkpt lat="40.095297669535896" lon="15.486821359275307"><ele>21.5</ele><time>2026-04-26T07:37:28Z</time></trkpt><trkpt lat="40.09535595803254" lon="15.486888475351735"><ele>22.0</ele><time>2026-04-26T07:37:29Z</time></trkpt><trkpt lat="40.095417141328696" lon="15.48691413757611"><ele>22.5</ele><time>2026-04-26T07:37:30Z</time></trkpt><trkpt lat="40.09547045526616" lon="15.486989300211121"><ele>23.0</ele><time>2026-04-26T07:37:31Z</time></trkpt><trkpt lat="40.09552210369665" lon="15.487070073749381"><ele>23.5</ele><time>2026-04-26T07:37:32Z</time></trkpt><trkpt lat="40.09553913605088" lon="15.48715521272687"><ele>24.0</ele><time>2026-04-26T07:37:33Z</time></trkpt><trkpt lat="40.095529935017915" lon="15.487266821686601"><ele>24.25</ele><time>2026-04-26T07:37:35Z</time></trkpt><trkpt lat="40.09550804882064" lon="15.48740531282158"><ele>24.5</ele><time>2026-04-26T07:37:38Z</time></trkpt><trkpt lat="40.095380140724224" lon="15.487442637167373"><ele>24.75</ele><time>2026-04-26T07:37:39Z</time></trkpt><trkpt lat="40.09528101524928" lon="15.487537039662344"><ele>25.0</ele><time>2026-04-26T07:37:40Z</time></trkpt><trkpt lat="40.095190365622074" lon="15.487624162481788"><ele>25.0</ele><time>2026-04-26T07:37:41Z</time></trkpt><trkpt lat="40.0951173262581" lon="15.487724065655748"><ele>25.0</ele><time>2026-04-26T07:37:42Z</time></trkpt><trkpt lat="40.095054763233755" lon="15.487854842369751"><ele>25.0</ele><time>2026-04-26T07:37:43Z</time></trkpt><trkpt lat="40.09499914254714" lon="15.488018039200579"><ele>25.0</ele><time>2026-04-26T07:37:44Z</time></trkpt><trkpt lat="40.094949686739156" lon="15.488204478783734"><ele>22.666666666666668</ele><time>2026-04-26T07:37:45Z</time></trkpt><trkpt lat="40.094900534645305" lon="15.488389335050076"><ele>20.333333333333336</ele><time>2026-04-26T07:37:46Z</time></trkpt><trkpt lat="40.09484446409759" lon="15.488569468243309"><ele>18.0</ele><time>2026-04-26T07:37:47Z</time></trkpt><trkpt lat="40.09478528233433" lon="15.488760642638486"><ele>18.0</ele><time>2026-04-26T07:37:48Z</time></trkpt><trkpt lat="40.0947251732062" lon="15.488953520184062"><ele>18.0</ele><time>2026-04-26T07:37:49Z</time></trkpt><trkpt lat="40.094664160540574" lon="15.489153074405667"><ele>18.0</ele><time>2026-04-26T07:37:50Z</time></trkpt><trkpt lat="40.09460331512897" lon="15.489363259002374"><ele>18.0</ele><time>2026-04-26T07:37:51Z</time></trkpt><trkpt lat="40.094541139225456" lon="15.489573372392005"><ele>18.0</ele><time>2026-04-26T07:37:52Z</time></trkpt><trkpt lat="40.09447435697271" lon="15.489780095670543"><ele>18.0</ele><time>2026-04-26T07:37:53Z</time></trkpt><trkpt lat="40.09440192123496" lon="15.48998232051549"><ele>19.666666666666668</ele><time>2026-04-26T07:37:54Z</time></trkpt><trkpt lat="40.09431635105912" lon="15.490179106660383"><ele>21.333333333333336</ele><time>2026-04-26T07:37:54.999Z</time></trkpt><trkpt lat="40.09422736655596" lon="15.490365163554543"><ele>23.0</ele><time>2026-04-26T07:37:55.999Z</time></trkpt><trkpt lat="40.09412845326244" lon="15.49051817476224"><ele>21.0</ele><time>2026-04-26T07:37:56.999Z</time></trkpt><trkpt lat="40.09401431252207" lon="15.490657684416272"><ele>19.0</ele><time>2026-04-26T07:37:57.999Z</time></trkpt><trkpt lat="40.09388700060907" lon="15.490768662048872"><ele>17.0</ele><time>2026-04-26T07:37:58.999Z</time></trkpt><trkpt lat="40.0937461359603" lon="15.490863055433602"><ele>17.0</ele><time>2026-04-26T07:37:59.999Z</time></trkpt><trkpt lat="40.09360235800414" lon="15.490928312102241"><ele>17.0</ele><time>2026-04-26T07:38:00.999Z</time></trkpt><trkpt lat="40.09344704986613" lon="15.490969699273567"><ele>17.0</ele><time>2026-04-26T07:38:01.999Z</time></trkpt><trkpt lat="40.09328507085423" lon="15.490955465120171"><ele>17.333333333333336</ele><time>2026-04-26T07:38:02.999Z</time></trkpt><trkpt lat="40.093122060407964" lon="15.490975104584338"><ele>17.666666666666668</ele><time>2026-04-26T07:38:03.999Z</time></trkpt><trkpt lat="40.092951748677564" lon="15.490968675099847"><ele>18.0</ele><time>2026-04-26T07:38:04.999Z</time></trkpt><trkpt lat="40.09278274874109" lon="15.490956950026533"><ele>18.0</ele><time>2026-04-26T07:38:05.999Z</time></trkpt><trkpt lat="40.09260986649394" lon="15.490942451335973"><ele>18.0</ele><time>2026-04-26T07:38:06.999Z</time></trkpt><trkpt lat="40.092441625522596" lon="15.490925386466998"><ele>18.0</ele><time>2026-04-26T07:38:07.999Z</time></trkpt><trkpt lat="40.09226166440242" lon="15.49091278305825"><ele>18.333333333333332</ele><time>2026-04-26T07:38:08.999Z</time></trkpt><trkpt lat="40.09208875302894" lon="15.490908951043926"><ele>18.666666666666664</ele><time>2026-04-26T07:38:09.999Z</time></trkpt><trkpt lat="40.09192343138054" lon="15.490902487150775"><ele>19.0</ele><time>2026-04-26T07:38:10.999Z</time></trkpt><trkpt lat="40.09176184779358" lon="15.490900669170207"><ele>19.0</ele><time>2026-04-26T07:38:11.999Z</time></trkpt><trkpt lat="40.09159519599238" lon="15.49092327068007"><ele>19.0</ele><time>2026-04-26T07:38:12.999Z</time></trkpt><trkpt lat="40.09142402394547" lon="15.490965613133563"><ele>19.0</ele><time>2026-04-26T07:38:13.999Z</time></trkpt><trkpt lat="40.09125897796404" lon="15.491030567445923"><ele>19.666666666666664</ele><time>2026-04-26T07:38:14.999Z</time></trkpt><trkpt lat="40.09110997820888" lon="15.491122547911662"><ele>20.333333333333332</ele><time>2026-04-26T07:38:15.999Z</time></trkpt><trkpt lat="40.09096148372502" lon="15.49124092680362"><ele>21.0</ele><time>2026-04-26T07:38:16.999Z</time></trkpt><trkpt lat="40.090817702121875" lon="15.49138013400756"><ele>21.666666666666668</ele><time>2026-04-26T07:38:17.999Z</time></trkpt><trkpt lat="40.09067384803691" lon="15.491527181665795"><ele>22.333333333333336</ele><time>2026-04-26T07:38:18.999Z</time></trkpt><trkpt lat="40.09052460994838" lon="15.49168627271905"><ele>23.0</ele><time>2026-04-26T07:38:19.999Z</time></trkpt><trkpt lat="40.090370349265925" lon="15.491843440081084"><ele>23.0</ele><time>2026-04-26T07:38:20.999Z</time></trkpt><trkpt lat="40.09021194047374" lon="15.491995857693263"><ele>23.0</ele><time>2026-04-26T07:38:21.999Z</time></trkpt><trkpt lat="40.090062605030816" lon="15.49215666691655"><ele>23.0</ele><time>2026-04-26T07:38:22.999Z</time></trkpt><trkpt lat="40.089930717858714" lon="15.49233484110589"><ele>24.333333333333336</ele><time>2026-04-26T07:38:23.999Z</time></trkpt><trkpt lat="40.08980621679797" lon="15.492532677471647"><ele>25.666666666666668</ele><time>2026-04-26T07:38:24.999Z</time></trkpt><trkpt lat="40.089690645559656" lon="15.492736944213508"><ele>27.0</ele><time>2026-04-26T07:38:25.999Z</time></trkpt><trkpt lat="40.0895794630392" lon="15.492939738522198"><ele>27.0</ele><time>2026-04-26T07:38:26.999Z</time></trkpt><trkpt lat="40.08946797338663" lon="15.493130175015283"><ele>27.0</ele><time>2026-04-26T07:38:27.999Z</time></trkpt><trkpt lat="40.089355070432745" lon="15.49331687136479"><ele>27.0</ele><time>2026-04-26T07:38:28.999Z</time></trkpt><trkpt lat="40.089240353258205" lon="15.493506836565654"><ele>27.0</ele><time>2026-04-26T07:38:29.999Z</time></trkpt><trkpt lat="40.08912639390237" lon="15.493701878903982"><ele>27.0</ele><time>2026-04-26T07:38:30.999Z</time></trkpt><trkpt lat="40.08901209512828" lon="15.493898225750174"><ele>27.0</ele><time>2026-04-26T07:38:31.999Z</time></trkpt><trkpt lat="40.08889711275257" lon="15.494093179892142"><ele>28.666666666666664</ele><time>2026-04-26T07:38:32.999Z</time></trkpt><trkpt lat="40.08878434099295" lon="15.494288864056642"><ele>30.333333333333332</ele><time>2026-04-26T07:38:33.999Z</time></trkpt><trkpt lat="40.088671101511544" lon="15.494478917998094"><ele>32.0</ele><time>2026-04-26T07:38:34.999Z</time></trkpt><trkpt lat="40.08854993993241" lon="15.494658681848973"><ele>28.333333333333332</ele><time>2026-04-26T07:38:35.999Z</time></trkpt><trkpt lat="40.08841699468921" lon="15.49482657572237"><ele>24.666666666666664</ele><time>2026-04-26T07:38:36.999Z</time></trkpt><trkpt lat="40.0882642163501" lon="15.494977441361895"><ele>21.0</ele><time>2026-04-26T07:38:38Z</time></trkpt><trkpt lat="40.088102453622426" lon="15.495119028392521"><ele>21.0</ele><time>2026-04-26T07:38:39Z</time></trkpt><trkpt lat="40.087941622171975" lon="15.495248848799056"><ele>21.0</ele><time>2026-04-26T07:38:40Z</time></trkpt><trkpt lat="40.087794404594014" lon="15.495386241454321"><ele>21.0</ele><time>2026-04-26T07:38:41Z</time></trkpt><trkpt lat="40.08764248845908" lon="15.495536670869779"><ele>21.0</ele><time>2026-04-26T07:38:42Z</time></trkpt><trkpt lat="40.08748630472767" lon="15.495687124644169"><ele>21.0</ele><time>2026-04-26T07:38:43Z</time></trkpt><trkpt lat="40.08732902531548" lon="15.495834993599459"><ele>21.0</ele><time>2026-04-26T07:38:44Z</time></trkpt><trkpt lat="40.08717074030121" lon="15.49598252950304"><ele>21.0</ele><time>2026-04-26T07:38:45Z</time></trkpt><trkpt lat="40.08701248770672" lon="15.49613379402997"><ele>21.0</ele><time>2026-04-26T07:38:46Z</time></trkpt><trkpt lat="40.08685015035038" lon="15.496289072382327"><ele>21.0</ele><time>2026-04-26T07:38:47Z</time></trkpt><trkpt lat="40.086685989943575" lon="15.496442646936304"><ele>21.0</ele><time>2026-04-26T07:38:48Z</time></trkpt><trkpt lat="40.08652356358863" lon="15.496588286351622"><ele>21.0</ele><time>2026-04-26T07:38:49Z</time></trkpt><trkpt lat="40.086372456558365" lon="15.496725923267524"><ele>21.0</ele><time>2026-04-26T07:38:50Z</time></trkpt><trkpt lat="40.08622692114785" lon="15.496868475340102"><ele>21.0</ele><time>2026-04-26T07:38:51Z</time></trkpt><trkpt lat="40.086079951069124" lon="15.497007071663345"><ele>21.0</ele><time>2026-04-26T07:38:52Z</time></trkpt><trkpt lat="40.085935783248445" lon="15.497134157778666"><ele>21.0</ele><time>2026-04-26T07:38:53Z</time></trkpt><trkpt lat="40.08578773532093" lon="15.497245315185086"><ele>19.0</ele><time>2026-04-26T07:38:54Z</time></trkpt><trkpt lat="40.08562962019189" lon="15.497338146654936"><ele>17.0</ele><time>2026-04-26T07:38:55Z</time></trkpt><trkpt lat="40.085459766687165" lon="15.497408413158842"><ele>15.0</ele><time>2026-04-26T07:38:56Z</time></trkpt><trkpt lat="40.08528364676855" lon="15.497446722534729"><ele>15.0</ele><time>2026-04-26T07:38:57Z</time></trkpt><trkpt lat="40.08510860918077" lon="15.497454456488512"><ele>15.0</ele><time>2026-04-26T07:38:58Z</time></trkpt><trkpt lat="40.08493843115576" lon="15.497412203742789"><ele>15.0</ele><time>2026-04-26T07:38:59Z</time></trkpt><trkpt lat="40.08477118243173" lon="15.497385845103727"><ele>15.0</ele><time>2026-04-26T07:39:00Z</time></trkpt><trkpt lat="40.08461890111664" lon="15.49732532681292"><ele>15.0</ele><time>2026-04-26T07:39:01Z</time></trkpt><trkpt lat="40.084463414674715" lon="15.497284270749661"><ele>15.0</ele><time>2026-04-26T07:39:02Z</time></trkpt><trkpt lat="40.084300126559455" lon="15.497252194527961"><ele>15.0</ele><time>2026-04-26T07:39:03Z</time></trkpt><trkpt lat="40.08412943894785" lon="15.497231954030498"><ele>15.0</ele><time>2026-04-26T07:39:04Z</time></trkpt><trkpt lat="40.08395449909683" lon="15.49724991076273"><ele>15.0</ele><time>2026-04-26T07:39:05Z</time></trkpt><trkpt lat="40.083785138539035" lon="15.497302382082587"><ele>14.333333333333332</ele><time>2026-04-26T07:39:06Z</time></trkpt><trkpt lat="40.08362274262985" lon="15.497378118947717"><ele>13.666666666666666</ele><time>2026-04-26T07:39:07Z</time></trkpt><trkpt lat="40.08346447157276" lon="15.497471435538303"><ele>13.0</ele><time>2026-04-26T07:39:08Z</time></trkpt><trkpt lat="40.08330346022664" lon="15.497578191055124"><ele>13.666666666666666</ele><time>2026-04-26T07:39:09Z</time></trkpt><trkpt lat="40.08313670434073" lon="15.497694255972915"><ele>14.333333333333332</ele><time>2026-04-26T07:39:10Z</time></trkpt><trkpt lat="40.08296760736536" lon="15.497806256949463"><ele>15.0</ele><time>2026-04-26T07:39:11Z</time></trkpt><trkpt lat="40.082793489416574" lon="15.497916657509645"><ele>14.666666666666668</ele><time>2026-04-26T07:39:12Z</time></trkpt><trkpt lat="40.08262635103727" lon="15.498025426772596"><ele>14.333333333333334</ele><time>2026-04-26T07:39:13Z</time></trkpt><trkpt lat="40.08246733233172" lon="15.498135353084647"><ele>14.0</ele><time>2026-04-26T07:39:14Z</time></trkpt><trkpt lat="40.0823050016274" lon="15.498243162747926"><ele>14.0</ele><time>2026-04-26T07:39:15Z</time></trkpt><trkpt lat="40.08214361323761" lon="15.49834707607681"><ele>14.0</ele><time>2026-04-26T07:39:16Z</time></trkpt><trkpt lat="40.08199286868307" lon="15.4984473354734"><ele>14.0</ele><time>2026-04-26T07:39:17Z</time></trkpt><trkpt lat="40.081849790843" lon="15.498538313785607"><ele>14.0</ele><time>2026-04-26T07:39:18Z</time></trkpt><trkpt lat="40.08170772338072" lon="15.498629396154788"><ele>14.0</ele><time>2026-04-26T07:39:19Z</time></trkpt><trkpt lat="40.08156347461588" lon="15.498725071282417"><ele>14.0</ele><time>2026-04-26T07:39:20Z</time></trkpt><trkpt lat="40.08143394365731" lon="15.498808545122635"><ele>14.0</ele><time>2026-04-26T07:39:21Z</time></trkpt><trkpt lat="40.0813205931612" lon="15.498887373162637"><ele>14.0</ele><time>2026-04-26T07:39:22Z</time></trkpt><trkpt lat="40.08121607946816" lon="15.49898540855439"><ele>14.0</ele><time>2026-04-26T07:39:23Z</time></trkpt><trkpt lat="40.08112541136465" lon="15.499117985353779"><ele>14.0</ele><time>2026-04-26T07:39:24Z</time></trkpt><trkpt lat="40.08104784772322" lon="15.49928308004151"><ele>14.0</ele><time>2026-04-26T07:39:25Z</time></trkpt><trkpt lat="40.080977075243055" lon="15.499454599404432"><ele>14.0</ele><time>2026-04-26T07:39:26Z</time></trkpt><trkpt lat="40.08089712941758" lon="15.499621290322777"><ele>14.0</ele><time>2026-04-26T07:39:27Z</time></trkpt><trkpt lat="40.08081601019701" lon="15.499798023051603"><ele>15.0</ele><time>2026-04-26T07:39:28Z</time></trkpt><trkpt lat="40.08072740814875" lon="15.499984159430038"><ele>16.0</ele><time>2026-04-26T07:39:29Z</time></trkpt><trkpt lat="40.08063978103304" lon="15.500174269244498"><ele>17.0</ele><time>2026-04-26T07:39:30Z</time></trkpt><trkpt lat="40.08055517002732" lon="15.500360857849111"><ele>17.0</ele><time>2026-04-26T07:39:31Z</time></trkpt><trkpt lat="40.08046925132239" lon="15.500549534715645"><ele>17.0</ele><time>2026-04-26T07:39:32Z</time></trkpt><trkpt lat="40.08037803473814" lon="15.500741703422221"><ele>17.0</ele><time>2026-04-26T07:39:33Z</time></trkpt><trkpt lat="40.080294048531975" lon="15.500921357917626"><ele>17.0</ele><time>2026-04-26T07:39:34Z</time></trkpt><trkpt lat="40.08021413472697" lon="15.501080106507452"><ele>17.0</ele><time>2026-04-26T07:39:35Z</time></trkpt><trkpt lat="40.08014080482251" lon="15.501229999487332"><ele>17.0</ele><time>2026-04-26T07:39:36Z</time></trkpt><trkpt lat="40.08007448669979" lon="15.501373104729284"><ele>17.0</ele><time>2026-04-26T07:39:37Z</time></trkpt><trkpt lat="40.07999470382989" lon="15.501523243607599"><ele>19.333333333333336</ele><time>2026-04-26T07:39:38Z</time></trkpt><trkpt lat="40.07986304901354" lon="15.50165479065813"><ele>21.666666666666668</ele><time>2026-04-26T07:39:39Z</time></trkpt><trkpt lat="40.079744431278364" lon="15.501801061124032"><ele>24.0</ele><time>2026-04-26T07:39:40Z</time></trkpt><trkpt lat="40.07964248318772" lon="15.501922107112867"><ele>24.0</ele><time>2026-04-26T07:39:41Z</time></trkpt><trkpt lat="40.07955306618702" lon="15.50204390957591"><ele>24.0</ele><time>2026-04-26T07:39:42Z</time></trkpt><trkpt lat="40.0794729294463" lon="15.502168282568077"><ele>24.0</ele><time>2026-04-26T07:39:43Z</time></trkpt><trkpt lat="40.07937685195196" lon="15.502241876789768"><ele>24.0</ele><time>2026-04-26T07:39:44Z</time></trkpt><trkpt lat="40.079275788037904" lon="15.502269696911567"><ele>22.75</ele><time>2026-04-26T07:39:45Z</time></trkpt><trkpt lat="40.07917205310412" lon="15.502270552593426"><ele>21.5</ele><time>2026-04-26T07:39:46Z</time></trkpt><trkpt lat="40.07908023278459" lon="15.502210281407327"><ele>20.25</ele><time>2026-04-26T07:39:47Z</time></trkpt><trkpt lat="40.078973973933664" lon="15.50214011840411"><ele>19.0</ele><time>2026-04-26T07:39:48Z</time></trkpt><trkpt lat="40.07884523774465" lon="15.502075709538422"><ele>19.0</ele><time>2026-04-26T07:39:49Z</time></trkpt><trkpt lat="40.07872359515762" lon="15.501995633241926"><ele>19.0</ele><time>2026-04-26T07:39:50Z</time></trkpt><trkpt lat="40.07860083145406" lon="15.501993915241327"><ele>19.0</ele><time>2026-04-26T07:39:51Z</time></trkpt><trkpt lat="40.078488816820965" lon="15.502028201744393"><ele>19.0</ele><time>2026-04-26T07:39:52Z</time></trkpt><trkpt lat="40.07839382742016" lon="15.502116542246357"><ele>19.0</ele><time>2026-04-26T07:39:53Z</time></trkpt><trkpt lat="40.07832185094009" lon="15.502263258409096"><ele>19.0</ele><time>2026-04-26T07:39:54Z</time></trkpt><trkpt lat="40.078263757672204" lon="15.502434083178034"><ele>19.0</ele><time>2026-04-26T07:39:55Z</time></trkpt><trkpt lat="40.078190890801324" lon="15.502535548808375"><ele>19.0</ele><time>2026-04-26T07:39:56Z</time></trkpt><trkpt lat="40.07810680702906" lon="15.502602201581068"><ele>24.0</ele><time>2026-04-26T07:39:57Z</time></trkpt><trkpt lat="40.07799478690355" lon="15.502662468884123"><ele>29.0</ele><time>2026-04-26T07:39:58Z</time></trkpt><trkpt lat="40.07786992752916" lon="15.502712630587276"><ele>34.0</ele><time>2026-04-26T07:39:58.999Z</time></trkpt><trkpt lat="40.077744039028545" lon="15.502767359518028"><ele>39.0</ele><time>2026-04-26T07:39:59.999Z</time></trkpt><trkpt lat="40.077619999712006" lon="15.502822668846447"><ele>39.0</ele><time>2026-04-26T07:40:00.999Z</time></trkpt><trkpt lat="40.07752431420476" lon="15.502874207807675"><ele>39.0</ele><time>2026-04-26T07:40:01.999Z</time></trkpt><trkpt lat="40.07745943610528" lon="15.502960151493285"><ele>39.0</ele><time>2026-04-26T07:40:02.999Z</time></trkpt><trkpt lat="40.07738478561834" lon="15.503063999631102"><ele>39.0</ele><time>2026-04-26T07:40:03.999Z</time></trkpt><trkpt lat="40.07735864369619" lon="15.50323794921443"><ele>39.0</ele><time>2026-04-26T07:40:04.999Z</time></trkpt><trkpt lat="40.077354546451446" lon="15.50343704071006"><ele>35.5</ele><time>2026-04-26T07:40:05.999Z</time></trkpt><trkpt lat="40.07732656263439" lon="15.50361573062591"><ele>32.0</ele><time>2026-04-26T07:40:06.999Z</time></trkpt><trkpt lat="40.07730263355543" lon="15.50377563924165"><ele>28.5</ele><time>2026-04-26T07:40:07.999Z</time></trkpt><trkpt lat="40.077266980352945" lon="15.50392084588262"><ele>25.0</ele><time>2026-04-26T07:40:08.999Z</time></trkpt><trkpt lat="40.07722821134038" lon="15.504041127231979"><ele>25.0</ele><time>2026-04-26T07:40:09.999Z</time></trkpt><trkpt lat="40.0771212448361" lon="15.504079366875112"><ele>25.0</ele><time>2026-04-26T07:40:10.999Z</time></trkpt><trkpt lat="40.077015128045836" lon="15.504119793155052"><ele>25.0</ele><time>2026-04-26T07:40:11.999Z</time></trkpt><trkpt lat="40.076904882185374" lon="15.504146188793264"><ele>25.0</ele><time>2026-04-26T07:40:12.999Z</time></trkpt><trkpt lat="40.076785301808954" lon="15.504149910032082"><ele>25.0</ele><time>2026-04-26T07:40:13.999Z</time></trkpt><trkpt lat="40.07665923894485" lon="15.504138338452746"><ele>25.0</ele><time>2026-04-26T07:40:14.999Z</time></trkpt><trkpt lat="40.07652231187733" lon="15.504144968617677"><ele>25.0</ele><time>2026-04-26T07:40:15.999Z</time></trkpt><trkpt lat="40.07638565325998" lon="15.504137811823297"><ele>25.0</ele><time>2026-04-26T07:40:16.999Z</time></trkpt><trkpt lat="40.07625109631717" lon="15.504134235977267"><ele>23.75</ele><time>2026-04-26T07:40:17.999Z</time></trkpt><trkpt lat="40.07612182937562" lon="15.504083140219059"><ele>22.5</ele><time>2026-04-26T07:40:18.999Z</time></trkpt><trkpt lat="40.076006544036964" lon="15.504026836940342"><ele>21.25</ele><time>2026-04-26T07:40:19.999Z</time></trkpt><trkpt lat="40.07590261801285" lon="15.503940980153526"><ele>20.0</ele><time>2026-04-26T07:40:20.999Z</time></trkpt><trkpt lat="40.07581809156139" lon="15.50384590421928"><ele>22.8</ele><time>2026-04-26T07:40:21.999Z</time></trkpt><trkpt lat="40.075745887012054" lon="15.503745641513655"><ele>25.6</ele><time>2026-04-26T07:40:22.999Z</time></trkpt><trkpt lat="40.075680729198304" lon="15.503651948392445"><ele>28.4</ele><time>2026-04-26T07:40:23.999Z</time></trkpt><trkpt lat="40.075627835734544" lon="15.503586038316003"><ele>31.2</ele><time>2026-04-26T07:40:24.999Z</time></trkpt><trkpt lat="40.075548694209346" lon="15.503530991034232"><ele>34.0</ele><time>2026-04-26T07:40:25.999Z</time></trkpt><trkpt lat="40.0754419531577" lon="15.50354901160042"><ele>34.0</ele><time>2026-04-26T07:40:26.999Z</time></trkpt><trkpt lat="40.07533211798137" lon="15.503636931262829"><ele>34.0</ele><time>2026-04-26T07:40:27.999Z</time></trkpt><trkpt lat="40.075271484759675" lon="15.50378985526988"><ele>34.0</ele><time>2026-04-26T07:40:28.999Z</time></trkpt><trkpt lat="40.07519152796521" lon="15.50390142687106"><ele>34.0</ele><time>2026-04-26T07:40:29.999Z</time></trkpt><trkpt lat="40.075125245723676" lon="15.503996805587477"><ele>31.4</ele><time>2026-04-26T07:40:30.999Z</time></trkpt><trkpt lat="40.07506444514803" lon="15.50406823024269"><ele>28.799999999999997</ele><time>2026-04-26T07:40:31.999Z</time></trkpt><trkpt lat="40.07499487298039" lon="15.504106491865636"><ele>26.200000000000003</ele><time>2026-04-26T07:40:32.999Z</time></trkpt><trkpt lat="40.07491039290653" lon="15.504115504950414"><ele>23.6</ele><time>2026-04-26T07:40:33.999Z</time></trkpt><trkpt lat="40.07481131463917" lon="15.50410238447975"><ele>21.0</ele><time>2026-04-26T07:40:34.999Z</time></trkpt><trkpt lat="40.07471752916355" lon="15.504002671082496"><ele>20.5</ele><time>2026-04-26T07:40:35.999Z</time></trkpt><trkpt lat="40.074611530109635" lon="15.503911653429418"><ele>20.0</ele><time>2026-04-26T07:40:36.999Z</time></trkpt><trkpt lat="40.07450609352801" lon="15.50382968339364"><ele>19.5</ele><time>2026-04-26T07:40:37.999Z</time></trkpt><trkpt lat="40.07440851988494" lon="15.503756215631691"><ele>19.0</ele><time>2026-04-26T07:40:38.999Z</time></trkpt><trkpt lat="40.07430871936899" lon="15.503681057759453"><ele>20.75</ele><time>2026-04-26T07:40:39.999Z</time></trkpt><trkpt lat="40.07420406071181" lon="15.503597477290633"><ele>22.5</ele><time>2026-04-26T07:40:40.999Z</time></trkpt><trkpt lat="40.07409510545591" lon="15.503496142912827"><ele>24.25</ele><time>2026-04-26T07:40:41.999Z</time></trkpt><trkpt lat="40.073980861636116" lon="15.503355484301878"><ele>26.0</ele><time>2026-04-26T07:40:43Z</time></trkpt><trkpt lat="40.07387243111405" lon="15.503196736096307"><ele>26.0</ele><time>2026-04-26T07:40:44Z</time></trkpt><trkpt lat="40.073768346575214" lon="15.503063273244953"><ele>26.0</ele><time>2026-04-26T07:40:45Z</time></trkpt><trkpt lat="40.07368844615846" lon="15.50293192307366"><ele>26.0</ele><time>2026-04-26T07:40:46Z</time></trkpt><trkpt lat="40.073625294199026" lon="15.502804207134634"><ele>26.0</ele><time>2026-04-26T07:40:47Z</time></trkpt><trkpt lat="40.073586061880334" lon="15.50266612987679"><ele>26.200000000000003</ele><time>2026-04-26T07:40:48Z</time></trkpt><trkpt lat="40.07357958978887" lon="15.50251985741475"><ele>26.400000000000002</ele><time>2026-04-26T07:40:49Z</time></trkpt><trkpt lat="40.07356000692635" lon="15.502380715211139"><ele>26.6</ele><time>2026-04-26T07:40:50Z</time></trkpt><trkpt lat="40.07349438308209" lon="15.502283977231723"><ele>26.8</ele><time>2026-04-26T07:40:51Z</time></trkpt><trkpt lat="40.07338784753475" lon="15.502233200113878"><ele>27.0</ele><time>2026-04-26T07:40:52Z</time></trkpt><trkpt lat="40.07325483438637" lon="15.50222639393738"><ele>27.0</ele><time>2026-04-26T07:40:53Z</time></trkpt><trkpt lat="40.07311859336566" lon="15.502214129570115"><ele>27.0</ele><time>2026-04-26T07:40:54Z</time></trkpt><trkpt lat="40.07299285561011" lon="15.50220411301613"><ele>27.0</ele><time>2026-04-26T07:40:55Z</time></trkpt><trkpt lat="40.07286806218043" lon="15.50221230802306"><ele>27.0</ele><time>2026-04-26T07:40:56Z</time></trkpt><trkpt lat="40.072736259853755" lon="15.502195295757813"><ele>27.0</ele><time>2026-04-26T07:40:57Z</time></trkpt><trkpt lat="40.07260358029316" lon="15.50218783305057"><ele>27.000000000000004</ele><time>2026-04-26T07:40:58Z</time></trkpt><trkpt lat="40.072494169058075" lon="15.502196645743517"><ele>27.000000000000004</ele><time>2026-04-26T07:40:59Z</time></trkpt><trkpt lat="40.07239959175042" lon="15.502215167960431"><ele>27.0</ele><time>2026-04-26T07:41:00Z</time></trkpt><trkpt lat="40.072329497173534" lon="15.502321485538202"><ele>27.0</ele><time>2026-04-26T07:41:01Z</time></trkpt><trkpt lat="40.072266425419826" lon="15.502441812216071"><ele>26.25</ele><time>2026-04-26T07:41:02Z</time></trkpt><trkpt lat="40.072223041226295" lon="15.502600573549248"><ele>25.5</ele><time>2026-04-26T07:41:03Z</time></trkpt><trkpt lat="40.072143993894265" lon="15.502757295523029"><ele>24.75</ele><time>2026-04-26T07:41:04Z</time></trkpt><trkpt lat="40.07205778662045" lon="15.502919898635026"><ele>24.0</ele><time>2026-04-26T07:41:05Z</time></trkpt><trkpt lat="40.07195121815031" lon="15.503065179862675"><ele>24.0</ele><time>2026-04-26T07:41:06Z</time></trkpt><trkpt lat="40.07183760069207" lon="15.503213742726457"><ele>24.0</ele><time>2026-04-26T07:41:07Z</time></trkpt><trkpt lat="40.07171937962224" lon="15.503368280975605"><ele>24.0</ele><time>2026-04-26T07:41:08Z</time></trkpt><trkpt lat="40.07160884847843" lon="15.503534109089738"><ele>20.666666666666668</ele><time>2026-04-26T07:41:09Z</time></trkpt><trkpt lat="40.07148731523761" lon="15.503696269531076"><ele>17.333333333333336</ele><time>2026-04-26T07:41:10Z</time></trkpt><trkpt lat="40.07136903998568" lon="15.503871674793842"><ele>14.0</ele><time>2026-04-26T07:41:11Z</time></trkpt><trkpt lat="40.07123946547213" lon="15.504032272786803"><ele>14.0</ele><time>2026-04-26T07:41:12Z</time></trkpt><trkpt lat="40.07112860602572" lon="15.504187878336372"><ele>14.0</ele><time>2026-04-26T07:41:13Z</time></trkpt><trkpt lat="40.07101906923084" lon="15.504343299679215"><ele>14.0</ele><time>2026-04-26T07:41:14Z</time></trkpt><trkpt lat="40.07090663682875" lon="15.504502568969526"><ele>15.0</ele><time>2026-04-26T07:41:15Z</time></trkpt><trkpt lat="40.070797780108755" lon="15.504654705125352"><ele>16.0</ele><time>2026-04-26T07:41:16Z</time></trkpt><trkpt lat="40.070701289622576" lon="15.50478955850478"><ele>17.0</ele><time>2026-04-26T07:41:17Z</time></trkpt><trkpt lat="40.070621250983855" lon="15.504897983608409"><ele>18.0</ele><time>2026-04-26T07:41:18Z</time></trkpt><trkpt lat="40.070511251939415" lon="15.504987660431839"><ele>16.0</ele><time>2026-04-26T07:41:19Z</time></trkpt><trkpt lat="40.07038949858228" lon="15.50503675602825"><ele>14.0</ele><time>2026-04-26T07:41:20Z</time></trkpt><trkpt lat="40.07025753053161" lon="15.505108508031306"><ele>12.0</ele><time>2026-04-26T07:41:21Z</time></trkpt><trkpt lat="40.07013049013287" lon="15.505153135584466"><ele>10.0</ele><time>2026-04-26T07:41:22Z</time></trkpt><trkpt lat="40.070032101638965" lon="15.505223103916396"><ele>10.0</ele><time>2026-04-26T07:41:23Z</time></trkpt><trkpt lat="40.0699598642905" lon="15.505315345215648"><ele>10.0</ele><time>2026-04-26T07:41:24Z</time></trkpt><trkpt lat="40.06991585621881" lon="15.505431247127754"><ele>10.0</ele><time>2026-04-26T07:41:25Z</time></trkpt><trkpt lat="40.06990468363086" lon="15.505561206306837"><ele>10.0</ele><time>2026-04-26T07:41:26Z</time></trkpt><trkpt lat="40.06992702612132" lon="15.505698559623458"><ele>10.0</ele><time>2026-04-26T07:41:27Z</time></trkpt><trkpt lat="40.06998345536274" lon="15.505832088981975"><ele>10.25</ele><time>2026-04-26T07:41:28Z</time></trkpt><trkpt lat="40.07007105627794" lon="15.505972983828729"><ele>10.5</ele><time>2026-04-26T07:41:29Z</time></trkpt><trkpt lat="40.07016109261258" lon="15.506115341885224"><ele>10.75</ele><time>2026-04-26T07:41:30Z</time></trkpt><trkpt lat="40.070245297934726" lon="15.506249007922401"><ele>11.0</ele><time>2026-04-26T07:41:31Z</time></trkpt><trkpt lat="40.070323594143105" lon="15.506373125655156"><ele>10.0</ele><time>2026-04-26T07:41:32Z</time></trkpt><trkpt lat="40.070419375645045" lon="15.506476404040539"><ele>9.0</ele><time>2026-04-26T07:41:33Z</time></trkpt><trkpt lat="40.07054302195535" lon="15.506530838998698"><ele>8.0</ele><time>2026-04-26T07:41:34Z</time></trkpt><trkpt lat="40.07065878073815" lon="15.506581463525071"><ele>7.0</ele><time>2026-04-26T07:41:35Z</time></trkpt><trkpt lat="40.070762241738045" lon="15.50668084249209"><ele>7.0</ele><time>2026-04-26T07:41:36Z</time></trkpt><trkpt lat="40.07086240792778" lon="15.506834066715175"><ele>7.0</ele><time>2026-04-26T07:41:37Z</time></trkpt><trkpt lat="40.07094866245743" lon="15.507011982366636"><ele>7.0</ele><time>2026-04-26T07:41:38Z</time></trkpt><trkpt lat="40.07102553993093" lon="15.507190543343134"><ele>6.333333333333334</ele><time>2026-04-26T07:41:39Z</time></trkpt><trkpt lat="40.071099130991335" lon="15.507382925378407"><ele>5.666666666666667</ele><time>2026-04-26T07:41:40Z</time></trkpt><trkpt lat="40.07115892027604" lon="15.50758760787238"><ele>5.0</ele><time>2026-04-26T07:41:41Z</time></trkpt><trkpt lat="40.071215338350534" lon="15.507818939187716"><ele>4.333333333333334</ele><time>2026-04-26T07:41:42Z</time></trkpt><trkpt lat="40.07127305723039" lon="15.50805332070787"><ele>3.666666666666667</ele><time>2026-04-26T07:41:43Z</time></trkpt><trkpt lat="40.07133169381153" lon="15.508265350531175"><ele>3.0</ele><time>2026-04-26T07:41:44Z</time></trkpt><trkpt lat="40.07139300295631" lon="15.508465869508557"><ele>3.0</ele><time>2026-04-26T07:41:45Z</time></trkpt><trkpt lat="40.07145156836717" lon="15.508673843962496"><ele>3.0</ele><time>2026-04-26T07:41:46Z</time></trkpt><trkpt lat="40.071501666444" lon="15.508887491509075"><ele>3.0</ele><time>2026-04-26T07:41:47Z</time></trkpt><trkpt lat="40.0715513582733" lon="15.509117267444596"><ele>3.0</ele><time>2026-04-26T07:41:48Z</time></trkpt><trkpt lat="40.07160930560545" lon="15.509349238000944"><ele>3.0</ele><time>2026-04-26T07:41:49Z</time></trkpt><trkpt lat="40.071673584092046" lon="15.509582618663122"><ele>3.0</ele><time>2026-04-26T07:41:50Z</time></trkpt><trkpt lat="40.07173935629086" lon="15.509817140394375"><ele>3.0</ele><time>2026-04-26T07:41:51Z</time></trkpt><trkpt lat="40.07180679739685" lon="15.510045928467328"><ele>3.0</ele><time>2026-04-26T07:41:52Z</time></trkpt><trkpt lat="40.071874947659936" lon="15.510265995170188"><ele>3.0</ele><time>2026-04-26T07:41:53Z</time></trkpt><trkpt lat="40.071939312331" lon="15.510482662436047"><ele>2.6666666666666665</ele><time>2026-04-26T07:41:54Z</time></trkpt><trkpt lat="40.072014066612915" lon="15.510691413281847"><ele>2.333333333333333</ele><time>2026-04-26T07:41:55Z</time></trkpt><trkpt lat="40.072106298186554" lon="15.510898097383146"><ele>2.0</ele><time>2026-04-26T07:41:56Z</time></trkpt><trkpt lat="40.07220505062244" lon="15.511091311162678"><ele>2.0</ele><time>2026-04-26T07:41:57Z</time></trkpt><trkpt lat="40.07230639063954" lon="15.511275915668993"><ele>2.0</ele><time>2026-04-26T07:41:58Z</time></trkpt><trkpt lat="40.07240608504147" lon="15.511466738845893"><ele>2.0</ele><time>2026-04-26T07:41:59Z</time></trkpt><trkpt lat="40.07250899369994" lon="15.511661431424752"><ele>2.0</ele><time>2026-04-26T07:42:00Z</time></trkpt><trkpt lat="40.0726111300295" lon="15.51185369018373"><ele>2.0</ele><time>2026-04-26T07:42:01Z</time></trkpt><trkpt lat="40.07270647750204" lon="15.51204605856264"><ele>2.0</ele><time>2026-04-26T07:42:02Z</time></trkpt><trkpt lat="40.07280337517087" lon="15.512237950613851"><ele>2.0</ele><time>2026-04-26T07:42:02.999Z</time></trkpt><trkpt lat="40.07290298808675" lon="15.512429260616251"><ele>2.0</ele><time>2026-04-26T07:42:03.999Z</time></trkpt><trkpt lat="40.07300392757334" lon="15.512621305215353"><ele>2.0</ele><time>2026-04-26T07:42:04.999Z</time></trkpt><trkpt lat="40.073100710598666" lon="15.512809912020014"><ele>2.0</ele><time>2026-04-26T07:42:05.999Z</time></trkpt><trkpt lat="40.07318691185815" lon="15.512989431971272"><ele>2.0</ele><time>2026-04-26T07:42:06.999Z</time></trkpt><trkpt lat="40.07327382905017" lon="15.513177175593565"><ele>2.0</ele><time>2026-04-26T07:42:07.999Z</time></trkpt><trkpt lat="40.073362652751214" lon="15.513362359056352"><ele>2.333333333333333</ele><time>2026-04-26T07:42:08.999Z</time></trkpt><trkpt lat="40.0734448199988" lon="15.513543248879095"><ele>2.6666666666666665</ele><time>2026-04-26T07:42:09.999Z</time></trkpt><trkpt lat="40.073518055246474" lon="15.513726226649567"><ele>3.0</ele><time>2026-04-26T07:42:10.999Z</time></trkpt><trkpt lat="40.07358052448579" lon="15.513915715003739"><ele>3.666666666666667</ele><time>2026-04-26T07:42:11.999Z</time></trkpt><trkpt lat="40.073629816375934" lon="15.514110895214023"><ele>4.333333333333334</ele><time>2026-04-26T07:42:12.999Z</time></trkpt><trkpt lat="40.073664963926674" lon="15.514314388365525"><ele>5.0</ele><time>2026-04-26T07:42:13.999Z</time></trkpt><trkpt lat="40.07367838121803" lon="15.514519549413972"><ele>5.0</ele><time>2026-04-26T07:42:14.999Z</time></trkpt><trkpt lat="40.07367886761776" lon="15.514730675405458"><ele>5.0</ele><time>2026-04-26T07:42:15.999Z</time></trkpt><trkpt lat="40.07367393415962" lon="15.514951844748055"><ele>5.0</ele><time>2026-04-26T07:42:16.999Z</time></trkpt><trkpt lat="40.07366698150201" lon="15.515170732840293"><ele>5.0</ele><time>2026-04-26T07:42:17.999Z</time></trkpt><trkpt lat="40.07365321788969" lon="15.515386113302965"><ele>5.0</ele><time>2026-04-26T07:42:18.999Z</time></trkpt><trkpt lat="40.07362797266822" lon="15.51559020541392"><ele>5.0</ele><time>2026-04-26T07:42:19.999Z</time></trkpt><trkpt lat="40.073580848630215" lon="15.515772041465251"><ele>4.75</ele><time>2026-04-26T07:42:20.999Z</time></trkpt><trkpt lat="40.07353179510232" lon="15.515944456682764"><ele>4.5</ele><time>2026-04-26T07:42:21.999Z</time></trkpt><trkpt lat="40.07350042479971" lon="15.516129907404109"><ele>4.25</ele><time>2026-04-26T07:42:22.999Z</time></trkpt><trkpt lat="40.07345968375182" lon="15.516308591354163"><ele>4.0</ele><time>2026-04-26T07:42:23.999Z</time></trkpt><trkpt lat="40.07345016163568" lon="15.516495871290298"><ele>4.0</ele><time>2026-04-26T07:42:24.999Z</time></trkpt><trkpt lat="40.0734681678197" lon="15.51668606734303"><ele>4.0</ele><time>2026-04-26T07:42:25.999Z</time></trkpt><trkpt lat="40.073503222581664" lon="15.516856164679414"><ele>4.0</ele><time>2026-04-26T07:42:26.999Z</time></trkpt><trkpt lat="40.07354267604823" lon="15.51700822257623"><ele>4.0</ele><time>2026-04-26T07:42:27.999Z</time></trkpt><trkpt lat="40.073581488782104" lon="15.517165338881101"><ele>4.25</ele><time>2026-04-26T07:42:28.999Z</time></trkpt><trkpt lat="40.07362067368424" lon="15.51733242991083"><ele>4.5</ele><time>2026-04-26T07:42:29.999Z</time></trkpt><trkpt lat="40.07365930443604" lon="15.51750233102641"><ele>4.75</ele><time>2026-04-26T07:42:30.999Z</time></trkpt><trkpt lat="40.07370024074488" lon="15.517672663436997"><ele>5.0</ele><time>2026-04-26T07:42:31.999Z</time></trkpt><trkpt lat="40.073743702782004" lon="15.517834279470145"><ele>4.75</ele><time>2026-04-26T07:42:32.999Z</time></trkpt><trkpt lat="40.07378307722881" lon="15.517991446392704"><ele>4.5</ele><time>2026-04-26T07:42:33.999Z</time></trkpt><trkpt lat="40.07381966340221" lon="15.518140938741805"><ele>4.25</ele><time>2026-04-26T07:42:34.999Z</time></trkpt><trkpt lat="40.07385016767291" lon="15.518274218912092"><ele>4.0</ele><time>2026-04-26T07:42:35.999Z</time></trkpt><trkpt lat="40.073876639726706" lon="15.518396564243265"><ele>4.0</ele><time>2026-04-26T07:42:36.999Z</time></trkpt><trkpt lat="40.073897480868304" lon="15.518499262678997"><ele>4.0</ele><time>2026-04-26T07:42:37.999Z</time></trkpt><trkpt lat="40.07392306673596" lon="15.518587023217734"><ele>4.0</ele><time>2026-04-26T07:42:38.999Z</time></trkpt><trkpt lat="40.07404870832925" lon="15.518648219747499"><ele>4.0</ele><time>2026-04-26T07:42:40.999Z</time></trkpt><trkpt lat="40.074136886379776" lon="15.5186399893553"><ele>4.0</ele><time>2026-04-26T07:42:41.999Z</time></trkpt><trkpt lat="40.07422225410579" lon="15.518636221069238"><ele>4.2</ele><time>2026-04-26T07:42:42.999Z</time></trkpt><trkpt lat="40.07431322093943" lon="15.518652291035574"><ele>4.4</ele><time>2026-04-26T07:42:43.999Z</time></trkpt><trkpt lat="40.07441618169694" lon="15.518679393710547"><ele>4.6</ele><time>2026-04-26T07:42:44.999Z</time></trkpt><trkpt lat="40.07451640589347" lon="15.518722756678553"><ele>4.8</ele><time>2026-04-26T07:42:45.999Z</time></trkpt><trkpt lat="40.07462366832347" lon="15.518781947195514"><ele>5.0</ele><time>2026-04-26T07:42:46.999Z</time></trkpt><trkpt lat="40.07474539008573" lon="15.518847092475031"><ele>5.0</ele><time>2026-04-26T07:42:47.999Z</time></trkpt><trkpt lat="40.074873526007636" lon="15.518921134254521"><ele>5.0</ele><time>2026-04-26T07:42:49Z</time></trkpt><trkpt lat="40.07499204487139" lon="15.51898465209012"><ele>5.0</ele><time>2026-04-26T07:42:50Z</time></trkpt><trkpt lat="40.07508008155331" lon="15.519015087255767"><ele>5.0</ele><time>2026-04-26T07:42:51Z</time></trkpt><trkpt lat="40.075168698748115" lon="15.519038693400933"><ele>5.166666666666667</ele><time>2026-04-26T07:42:52Z</time></trkpt><trkpt lat="40.07523398526895" lon="15.519045909548149"><ele>5.333333333333334</ele><time>2026-04-26T07:42:53Z</time></trkpt><trkpt lat="40.07532128446962" lon="15.519028663693256"><ele>5.5</ele><time>2026-04-26T07:42:55Z</time></trkpt><trkpt lat="40.07537326981484" lon="15.518966388978924"><ele>5.666666666666667</ele><time>2026-04-26T07:42:56Z</time></trkpt><trkpt lat="40.075416459490995" lon="15.518882978444681"><ele>5.833333333333333</ele><time>2026-04-26T07:42:59Z</time></trkpt><trkpt lat="40.0754484214703" lon="15.518808023363778"><ele>6.0</ele><time>2026-04-26T07:43:00Z</time></trkpt><trkpt lat="40.07552371811731" lon="15.518670541414279"><ele>6.0</ele><time>2026-04-26T07:43:02Z</time></trkpt><trkpt lat="40.075535564718535" lon="15.518514599257838"><ele>6.0</ele><time>2026-04-26T07:43:03Z</time></trkpt><trkpt lat="40.07562443620976" lon="15.518391529126612"><ele>6.0</ele><time>2026-04-26T07:43:04Z</time></trkpt><trkpt lat="40.07569980149484" lon="15.518258351426509"><ele>6.0</ele><time>2026-04-26T07:43:05Z</time></trkpt><trkpt lat="40.075765641097554" lon="15.518124532864404"><ele>6.0</ele><time>2026-04-26T07:43:06Z</time></trkpt><trkpt lat="40.075839073190444" lon="15.517986689563754"><ele>6.0</ele><time>2026-04-26T07:43:07Z</time></trkpt><trkpt lat="40.07592159949873" lon="15.517825650932988"><ele>6.0</ele><time>2026-04-26T07:43:08Z</time></trkpt><trkpt lat="40.07600523854713" lon="15.517661903442148"><ele>6.0</ele><time>2026-04-26T07:43:09Z</time></trkpt><trkpt lat="40.076043257421816" lon="15.517462255575946"><ele>6.0</ele><time>2026-04-26T07:43:10Z</time></trkpt><trkpt lat="40.07612259476676" lon="15.517291456705612"><ele>6.0</ele><time>2026-04-26T07:43:11Z</time></trkpt><trkpt lat="40.07619635432012" lon="15.517153671955237"><ele>6.0</ele><time>2026-04-26T07:43:12Z</time></trkpt><trkpt lat="40.07626625074607" lon="15.51702623244131"><ele>6.0</ele><time>2026-04-26T07:43:13Z</time></trkpt><trkpt lat="40.07633038630398" lon="15.516916869651643"><ele>6.25</ele><time>2026-04-26T07:43:14Z</time></trkpt><trkpt lat="40.076407583574785" lon="15.516802183354628"><ele>6.5</ele><time>2026-04-26T07:43:15Z</time></trkpt><trkpt lat="40.076478248354235" lon="15.51666918120673"><ele>6.75</ele><time>2026-04-26T07:43:16Z</time></trkpt><trkpt lat="40.07656643874389" lon="15.516572226426542"><ele>7.0</ele><time>2026-04-26T07:43:17Z</time></trkpt><trkpt lat="40.07663561737034" lon="15.516468971879432"><ele>7.25</ele><time>2026-04-26T07:43:18Z</time></trkpt><trkpt lat="40.076695795829124" lon="15.516353444379734"><ele>7.5</ele><time>2026-04-26T07:43:19Z</time></trkpt><trkpt lat="40.076768280333475" lon="15.516261335294027"><ele>7.75</ele><time>2026-04-26T07:43:20Z</time></trkpt><trkpt lat="40.076863668834704" lon="15.516174025375735"><ele>8.0</ele><time>2026-04-26T07:43:21Z</time></trkpt><trkpt lat="40.07699014690656" lon="15.516122304559694"><ele>8.0</ele><time>2026-04-26T07:43:22Z</time></trkpt><trkpt lat="40.07709667099195" lon="15.516058322446863"><ele>8.0</ele><time>2026-04-26T07:43:23Z</time></trkpt><trkpt lat="40.07720191499854" lon="15.516016842766534"><ele>8.0</ele><time>2026-04-26T07:43:24Z</time></trkpt><trkpt lat="40.07730418730333" lon="15.515942826758275"><ele>8.0</ele><time>2026-04-26T07:43:25Z</time></trkpt><trkpt lat="40.07740096540942" lon="15.515847220047865"><ele>8.5</ele><time>2026-04-26T07:43:26Z</time></trkpt><trkpt lat="40.07745214112223" lon="15.515700290810305"><ele>9.0</ele><time>2026-04-26T07:43:27Z</time></trkpt><trkpt lat="40.077494327569944" lon="15.515561532783543"><ele>9.5</ele><time>2026-04-26T07:43:28Z</time></trkpt><trkpt lat="40.0775142631992" lon="15.515391835753347"><ele>10.0</ele><time>2026-04-26T07:43:29Z</time></trkpt><trkpt lat="40.07752916139555" lon="15.51522093165515"><ele>10.0</ele><time>2026-04-26T07:43:30Z</time></trkpt><trkpt lat="40.07755314254643" lon="15.515062447476337"><ele>10.0</ele><time>2026-04-26T07:43:31Z</time></trkpt><trkpt lat="40.07759432089259" lon="15.51491747434105"><ele>10.0</ele><time>2026-04-26T07:43:32Z</time></trkpt><trkpt lat="40.0776575807546" lon="15.514782758576064"><ele>10.0</ele><time>2026-04-26T07:43:33Z</time></trkpt><trkpt lat="40.07776015997762" lon="15.514679640820356"><ele>10.0</ele><time>2026-04-26T07:43:34Z</time></trkpt><trkpt lat="40.07785603730225" lon="15.514544934094692"><ele>10.0</ele><time>2026-04-26T07:43:35Z</time></trkpt><trkpt lat="40.07796018122138" lon="15.514442106668247"><ele>10.0</ele><time>2026-04-26T07:43:36Z</time></trkpt><trkpt lat="40.07806473806583" lon="15.514342687573397"><ele>10.0</ele><time>2026-04-26T07:43:37Z</time></trkpt><trkpt lat="40.078178297959084" lon="15.514243494340091"><ele>11.333333333333334</ele><time>2026-04-26T07:43:38Z</time></trkpt><trkpt lat="40.078312748782636" lon="15.514146731557005"><ele>12.666666666666668</ele><time>2026-04-26T07:43:39Z</time></trkpt><trkpt lat="40.078460998597215" lon="15.514092235837229"><ele>14.0</ele><time>2026-04-26T07:43:40Z</time></trkpt><trkpt lat="40.07860471784128" lon="15.51403492182138"><ele>14.0</ele><time>2026-04-26T07:43:41Z</time></trkpt><trkpt lat="40.078734577744704" lon="15.51399179277018"><ele>14.0</ele><time>2026-04-26T07:43:42Z</time></trkpt><trkpt lat="40.07885470512279" lon="15.513942456258928"><ele>14.0</ele><time>2026-04-26T07:43:43Z</time></trkpt><trkpt lat="40.07898918614215" lon="15.51393237444641"><ele>14.0</ele><time>2026-04-26T07:43:44Z</time></trkpt><trkpt lat="40.07912894615978" lon="15.513940164542475"><ele>14.25</ele><time>2026-04-26T07:43:45Z</time></trkpt><trkpt lat="40.07926346014922" lon="15.513951620585944"><ele>14.5</ele><time>2026-04-26T07:43:46Z</time></trkpt><trkpt lat="40.07939723901751" lon="15.513946769787088"><ele>14.75</ele><time>2026-04-26T07:43:47Z</time></trkpt><trkpt lat="40.07951957880281" lon="15.513841233607039"><ele>15.0</ele><time>2026-04-26T07:43:48Z</time></trkpt><trkpt lat="40.07962235516755" lon="15.513737438080323"><ele>15.0</ele><time>2026-04-26T07:43:49Z</time></trkpt><trkpt lat="40.079733610403764" lon="15.513673441291617"><ele>15.0</ele><time>2026-04-26T07:43:50Z</time></trkpt><trkpt lat="40.079853255140115" lon="15.513586309600543"><ele>15.0</ele><time>2026-04-26T07:43:51Z</time></trkpt><trkpt lat="40.079981179968904" lon="15.513461437476048"><ele>15.0</ele><time>2026-04-26T07:43:52Z</time></trkpt><trkpt lat="40.08011048098568" lon="15.513358363141295"><ele>15.25</ele><time>2026-04-26T07:43:53Z</time></trkpt><trkpt lat="40.08022256372031" lon="15.513251566472686"><ele>15.5</ele><time>2026-04-26T07:43:54Z</time></trkpt><trkpt lat="40.08033594050676" lon="15.513137851748857"><ele>15.75</ele><time>2026-04-26T07:43:55Z</time></trkpt><trkpt lat="40.08045033657931" lon="15.513021369554565"><ele>16.0</ele><time>2026-04-26T07:43:56Z</time></trkpt><trkpt lat="40.08056090373879" lon="15.512907478918207"><ele>16.0</ele><time>2026-04-26T07:43:57Z</time></trkpt><trkpt lat="40.08066507136815" lon="15.512790507789344"><ele>16.0</ele><time>2026-04-26T07:43:58Z</time></trkpt><trkpt lat="40.080767938993596" lon="15.512678626041533"><ele>16.0</ele><time>2026-04-26T07:43:59Z</time></trkpt><trkpt lat="40.08087274119323" lon="15.512572704043718"><ele>16.0</ele><time>2026-04-26T07:44:00Z</time></trkpt><trkpt lat="40.08098242115095" lon="15.512475208718342"><ele>16.25</ele><time>2026-04-26T07:44:01Z</time></trkpt><trkpt lat="40.08109043733941" lon="15.512380401414017"><ele>16.5</ele><time>2026-04-26T07:44:02Z</time></trkpt><trkpt lat="40.081219537935766" lon="15.51233624982251"><ele>16.75</ele><time>2026-04-26T07:44:03Z</time></trkpt><trkpt lat="40.08134068820481" lon="15.51224723195188"><ele>17.0</ele><time>2026-04-26T07:44:04Z</time></trkpt><trkpt lat="40.08147373426066" lon="15.512188090442118"><ele>17.25</ele><time>2026-04-26T07:44:05Z</time></trkpt><trkpt lat="40.081620830162684" lon="15.512123510463661"><ele>17.5</ele><time>2026-04-26T07:44:06Z</time></trkpt><trkpt lat="40.08177417561242" lon="15.512101127296015"><ele>17.75</ele><time>2026-04-26T07:44:07Z</time></trkpt><trkpt lat="40.0819014615794" lon="15.512057702709747"><ele>18.0</ele><time>2026-04-26T07:44:08Z</time></trkpt><trkpt lat="40.081993708140715" lon="15.512041097443227"><ele>18.0</ele><time>2026-04-26T07:44:09Z</time></trkpt><trkpt lat="40.08205849046125" lon="15.512037522146391"><ele>18.0</ele><time>2026-04-26T07:44:10Z</time></trkpt><trkpt lat="40.082125080287746" lon="15.512083158568208"><ele>18.0</ele><time>2026-04-26T07:44:11Z</time></trkpt><trkpt lat="40.082182131895934" lon="15.51220047986958"><ele>18.0</ele><time>2026-04-26T07:44:11.999Z</time></trkpt><trkpt lat="40.08226496470225" lon="15.512297759377892"><ele>18.0</ele><time>2026-04-26T07:44:12.999Z</time></trkpt><trkpt lat="40.082338419911565" lon="15.512372866473116"><ele>19.0</ele><time>2026-04-26T07:44:13.999Z</time></trkpt><trkpt lat="40.082449910646176" lon="15.512402096851993"><ele>20.0</ele><time>2026-04-26T07:44:14.999Z</time></trkpt><trkpt lat="40.082570561160885" lon="15.51240845071179"><ele>21.0</ele><time>2026-04-26T07:44:15.999Z</time></trkpt><trkpt lat="40.08269030101837" lon="15.512424858388252"><ele>22.0</ele><time>2026-04-26T07:44:16.999Z</time></trkpt><trkpt lat="40.082808926975126" lon="15.512450381303891"><ele>22.0</ele><time>2026-04-26T07:44:17.999Z</time></trkpt><trkpt lat="40.08292424201474" lon="15.512455735310063"><ele>22.0</ele><time>2026-04-26T07:44:18.999Z</time></trkpt><trkpt lat="40.0830332123166" lon="15.51244100992275"><ele>22.0</ele><time>2026-04-26T07:44:19.999Z</time></trkpt><trkpt lat="40.083138294759635" lon="15.512442112167374"><ele>22.0</ele><time>2026-04-26T07:44:20.999Z</time></trkpt><trkpt lat="40.083249916657685" lon="15.5124365368099"><ele>22.0</ele><time>2026-04-26T07:44:21.999Z</time></trkpt><trkpt lat="40.083346329175704" lon="15.512402477121775"><ele>22.0</ele><time>2026-04-26T07:44:22.999Z</time></trkpt><trkpt lat="40.08343096345444" lon="15.512359126649605"><ele>22.0</ele><time>2026-04-26T07:44:23.999Z</time></trkpt><trkpt lat="40.08348203333499" lon="15.512229549299693"><ele>22.0</ele><time>2026-04-26T07:44:24.999Z</time></trkpt><trkpt lat="40.0835225447143" lon="15.512129720955539"><ele>22.0</ele><time>2026-04-26T07:44:25.999Z</time></trkpt><trkpt lat="40.08364992816654" lon="15.5120684988205"><ele>22.0</ele><time>2026-04-26T07:44:27.999Z</time></trkpt><trkpt lat="40.08374979521816" lon="15.512075691037255"><ele>22.75</ele><time>2026-04-26T07:44:28.999Z</time></trkpt><trkpt lat="40.08385534154936" lon="15.512087065249732"><ele>23.5</ele><time>2026-04-26T07:44:29.999Z</time></trkpt><trkpt lat="40.08397648442622" lon="15.512106991355012"><ele>24.25</ele><time>2026-04-26T07:44:30.999Z</time></trkpt><trkpt lat="40.08409548430329" lon="15.512137001050538"><ele>25.0</ele><time>2026-04-26T07:44:31.999Z</time></trkpt><trkpt lat="40.08422299922134" lon="15.512159079513662"><ele>26.75</ele><time>2026-04-26T07:44:32.999Z</time></trkpt><trkpt lat="40.084354514215065" lon="15.512172642301602"><ele>28.5</ele><time>2026-04-26T07:44:33.999Z</time></trkpt><trkpt lat="40.08447965278339" lon="15.512180151129561"><ele>30.25</ele><time>2026-04-26T07:44:34.999Z</time></trkpt><trkpt lat="40.08458883539437" lon="15.512186584590726"><ele>32.0</ele><time>2026-04-26T07:44:35.999Z</time></trkpt><trkpt lat="40.084686899485185" lon="15.51219905744108"><ele>32.0</ele><time>2026-04-26T07:44:36.999Z</time></trkpt><trkpt lat="40.084776750089" lon="15.512209431872769"><ele>32.0</ele><time>2026-04-26T07:44:37.999Z</time></trkpt><trkpt lat="40.08487023150565" lon="15.512213016929794"><ele>32.0</ele><time>2026-04-26T07:44:38.999Z</time></trkpt><trkpt lat="40.08497444682149" lon="15.512195732834579"><ele>32.0</ele><time>2026-04-26T07:44:39.999Z</time></trkpt><trkpt lat="40.08508942015752" lon="15.512174338192048"><ele>32.0</ele><time>2026-04-26T07:44:40.999Z</time></trkpt><trkpt lat="40.08519182833401" lon="15.512099778468537"><ele>35.0</ele><time>2026-04-26T07:44:41.999Z</time></trkpt><trkpt lat="40.085277009957" lon="15.51205857673679"><ele>38.0</ele><time>2026-04-26T07:44:42.999Z</time></trkpt><trkpt lat="40.08536395967061" lon="15.512030938637793"><ele>41.0</ele><time>2026-04-26T07:44:43.999Z</time></trkpt><trkpt lat="40.08547169898196" lon="15.512022568907591"><ele>44.0</ele><time>2026-04-26T07:44:44.999Z</time></trkpt><trkpt lat="40.0856014055506" lon="15.512032808328131"><ele>47.0</ele><time>2026-04-26T07:44:45.999Z</time></trkpt><trkpt lat="40.0857325808968" lon="15.5120458552112"><ele>49.0</ele><time>2026-04-26T07:44:46.999Z</time></trkpt><trkpt lat="40.08585982505745" lon="15.51205596921757"><ele>51.0</ele><time>2026-04-26T07:44:47.999Z</time></trkpt><trkpt lat="40.08598376956137" lon="15.51209239807085"><ele>53.0</ele><time>2026-04-26T07:44:48.999Z</time></trkpt><trkpt lat="40.08609970765109" lon="15.512091421939159"><ele>55.0</ele><time>2026-04-26T07:44:49.999Z</time></trkpt><trkpt lat="40.08621410000543" lon="15.512112297579595"><ele>55.2</ele><time>2026-04-26T07:44:50.999Z</time></trkpt><trkpt lat="40.086327633245304" lon="15.512129370023471"><ele>55.4</ele><time>2026-04-26T07:44:51.999Z</time></trkpt><trkpt lat="40.08643572854246" lon="15.512138856293598"><ele>55.599999999999994</ele><time>2026-04-26T07:44:52.999Z</time></trkpt><trkpt lat="40.08653590332264" lon="15.512163861014082"><ele>55.8</ele><time>2026-04-26T07:44:53.999Z</time></trkpt><trkpt lat="40.086627778756366" lon="15.512177539118635"><ele>56.0</ele><time>2026-04-26T07:44:55Z</time></trkpt><trkpt lat="40.08671107535622" lon="15.512195936426744"><ele>59.0</ele><time>2026-04-26T07:44:56Z</time></trkpt><trkpt lat="40.086797668913505" lon="15.51221573876233"><ele>61.99999999999999</ele><time>2026-04-26T07:44:57Z</time></trkpt><trkpt lat="40.08687119990599" lon="15.512283492889047"><ele>65.0</ele><time>2026-04-26T07:44:58Z</time></trkpt><trkpt lat="40.08694684253991" lon="15.512356989541516"><ele>68.0</ele><time>2026-04-26T07:44:59Z</time></trkpt><trkpt lat="40.08704292243541" lon="15.512419966296155"><ele>71.0</ele><time>2026-04-26T07:45:00Z</time></trkpt><trkpt lat="40.08713792028833" lon="15.512467211965989"><ele>71.0</ele><time>2026-04-26T07:45:01Z</time></trkpt><trkpt lat="40.087233922551114" lon="15.512489643937387"><ele>71.0</ele><time>2026-04-26T07:45:02Z</time></trkpt><trkpt lat="40.08733595783397" lon="15.512491844566995"><ele>71.0</ele><time>2026-04-26T07:45:03Z</time></trkpt><trkpt lat="40.08743967660252" lon="15.512479208034906"><ele>71.0</ele><time>2026-04-26T07:45:04Z</time></trkpt><trkpt lat="40.087545887144216" lon="15.51247900803462"><ele>71.0</ele><time>2026-04-26T07:45:05Z</time></trkpt><trkpt lat="40.08765526960456" lon="15.51249701342858"><ele>73.6</ele><time>2026-04-26T07:45:06Z</time></trkpt><trkpt lat="40.08775913126893" lon="15.512534153756969"><ele>76.19999999999999</ele><time>2026-04-26T07:45:07Z</time></trkpt><trkpt lat="40.087858296222734" lon="15.512576012412067"><ele>78.80000000000001</ele><time>2026-04-26T07:45:08Z</time></trkpt><trkpt lat="40.0879616718232" lon="15.512601136992712"><ele>81.4</ele><time>2026-04-26T07:45:09Z</time></trkpt><trkpt lat="40.08806137350302" lon="15.512591240426575"><ele>84.0</ele><time>2026-04-26T07:45:10Z</time></trkpt><trkpt lat="40.08815648790093" lon="15.512564177626954"><ele>84.0</ele><time>2026-04-26T07:45:11Z</time></trkpt><trkpt lat="40.08823546049907" lon="15.512527286230027"><ele>84.0</ele><time>2026-04-26T07:45:12Z</time></trkpt><trkpt lat="40.08829995904101" lon="15.512485645002553"><ele>84.0</ele><time>2026-04-26T07:45:13Z</time></trkpt><trkpt lat="40.08840197890584" lon="15.512419430964341"><ele>84.0</ele><time>2026-04-26T07:45:15Z</time></trkpt><trkpt lat="40.08850141114379" lon="15.51236531453745"><ele>84.0</ele><time>2026-04-26T07:45:17Z</time></trkpt><trkpt lat="40.08860833278685" lon="15.512408416628967"><ele>84.66666666666667</ele><time>2026-04-26T07:45:19Z</time></trkpt><trkpt lat="40.08865128512367" lon="15.512489971529533"><ele>85.33333333333333</ele><time>2026-04-26T07:45:20Z</time></trkpt><trkpt lat="40.08869273479181" lon="15.512598469696403"><ele>86.0</ele><time>2026-04-26T07:45:21Z</time></trkpt><trkpt lat="40.08873625284844" lon="15.512710319783373"><ele>86.66666666666666</ele><time>2026-04-26T07:45:22Z</time></trkpt><trkpt lat="40.088776715390495" lon="15.512803632295372"><ele>87.33333333333333</ele><time>2026-04-26T07:45:23Z</time></trkpt><trkpt lat="40.088809184368856" lon="15.512885162620178"><ele>88.0</ele><time>2026-04-26T07:45:24Z</time></trkpt><trkpt lat="40.08882051732022" lon="15.512970422002468"><ele>88.0</ele><time>2026-04-26T07:45:25Z</time></trkpt><trkpt lat="40.08885893368112" lon="15.513119712358721"><ele>88.0</ele><time>2026-04-26T07:45:27Z</time></trkpt><trkpt lat="40.088911096151044" lon="15.513186320327463"><ele>88.0</ele><time>2026-04-26T07:45:28Z</time></trkpt><trkpt lat="40.088985296257675" lon="15.513256511634593"><ele>88.0</ele><time>2026-04-26T07:45:29Z</time></trkpt><trkpt lat="40.08906112572406" lon="15.513337745029624"><ele>88.0</ele><time>2026-04-26T07:45:30Z</time></trkpt><trkpt lat="40.089125934180096" lon="15.513426928947181"><ele>88.5</ele><time>2026-04-26T07:45:31Z</time></trkpt><trkpt lat="40.0891813537582" lon="15.513528462703281"><ele>89.0</ele><time>2026-04-26T07:45:32Z</time></trkpt><trkpt lat="40.08922320755499" lon="15.513637050393399"><ele>89.5</ele><time>2026-04-26T07:45:33Z</time></trkpt><trkpt lat="40.0892669610354" lon="15.513740740579502"><ele>90.0</ele><time>2026-04-26T07:45:34Z</time></trkpt><trkpt lat="40.089304220367175" lon="15.513831707095141"><ele>90.5</ele><time>2026-04-26T07:45:35Z</time></trkpt><trkpt lat="40.089337066508314" lon="15.513906133752316"><ele>91.0</ele><time>2026-04-26T07:45:36Z</time></trkpt><trkpt lat="40.08938271315862" lon="15.513964860739279"><ele>91.0</ele><time>2026-04-26T07:45:37Z</time></trkpt><trkpt lat="40.08945635478408" lon="15.51401435825183"><ele>91.0</ele><time>2026-04-26T07:45:38Z</time></trkpt><trkpt lat="40.089525946851595" lon="15.514052349681574"><ele>91.0</ele><time>2026-04-26T07:45:39Z</time></trkpt><trkpt lat="40.08959669521648" lon="15.514092881900446"><ele>91.0</ele><time>2026-04-26T07:45:40Z</time></trkpt><trkpt lat="40.08965790702407" lon="15.514136866333718"><ele>91.0</ele><time>2026-04-26T07:45:41Z</time></trkpt><trkpt lat="40.08971183134254" lon="15.514197209083575"><ele>91.0</ele><time>2026-04-26T07:45:42Z</time></trkpt><trkpt lat="40.08975456983705" lon="15.514278881233961"><ele>91.0</ele><time>2026-04-26T07:45:43Z</time></trkpt><trkpt lat="40.08978227070634" lon="15.514379408555895"><ele>91.0</ele><time>2026-04-26T07:45:44Z</time></trkpt><trkpt lat="40.089783938806306" lon="15.514499344743244"><ele>91.0</ele><time>2026-04-26T07:45:45Z</time></trkpt><trkpt lat="40.08978140850856" lon="15.514624394628987"><ele>91.0</ele><time>2026-04-26T07:45:46Z</time></trkpt><trkpt lat="40.089797394124986" lon="15.514749820047253"><ele>91.0</ele><time>2026-04-26T07:45:47Z</time></trkpt><trkpt lat="40.08982538955109" lon="15.514855942790286"><ele>91.6</ele><time>2026-04-26T07:45:48Z</time></trkpt><trkpt lat="40.089876361718716" lon="15.51499209624504"><ele>92.19999999999999</ele><time>2026-04-26T07:45:50Z</time></trkpt><trkpt lat="40.08991836081457" lon="15.515058854913477"><ele>92.80000000000001</ele><time>2026-04-26T07:45:51Z</time></trkpt><trkpt lat="40.08998079566557" lon="15.515114448747944"><ele>93.4</ele><time>2026-04-26T07:45:52Z</time></trkpt><trkpt lat="40.09005709339509" lon="15.515176331145462"><ele>94.0</ele><time>2026-04-26T07:45:53Z</time></trkpt><trkpt lat="40.090146897581846" lon="15.515255841909324"><ele>94.0</ele><time>2026-04-26T07:45:54Z</time></trkpt><trkpt lat="40.09023365296773" lon="15.515336214530715"><ele>94.0</ele><time>2026-04-26T07:45:55Z</time></trkpt><trkpt lat="40.0903225964674" lon="15.515413299343695"><ele>94.0</ele><time>2026-04-26T07:45:56Z</time></trkpt><trkpt lat="40.090418590480425" lon="15.515484749931046"><ele>94.0</ele><time>2026-04-26T07:45:57Z</time></trkpt><trkpt lat="40.09053219224574" lon="15.515553084448012"><ele>94.0</ele><time>2026-04-26T07:45:58Z</time></trkpt><trkpt lat="40.09064489262399" lon="15.515619945464156"><ele>93.0</ele><time>2026-04-26T07:45:59Z</time></trkpt><trkpt lat="40.09073107136225" lon="15.515691146053312"><ele>92.0</ele><time>2026-04-26T07:46:00Z</time></trkpt><trkpt lat="40.09081008349371" lon="15.515783364386433"><ele>91.0</ele><time>2026-04-26T07:46:01Z</time></trkpt><trkpt lat="40.09087250683417" lon="15.515933735897288"><ele>90.0</ele><time>2026-04-26T07:46:02Z</time></trkpt><trkpt lat="40.09091640949899" lon="15.516073516272128"><ele>92.2</ele><time>2026-04-26T07:46:03Z</time></trkpt><trkpt lat="40.090941406649854" lon="15.51620139280834"><ele>94.4</ele><time>2026-04-26T07:46:04Z</time></trkpt><trkpt lat="40.090957717770415" lon="15.516327704841133"><ele>96.6</ele><time>2026-04-26T07:46:05Z</time></trkpt><trkpt lat="40.090955511597585" lon="15.516467046341283"><ele>98.8</ele><time>2026-04-26T07:46:06Z</time></trkpt><trkpt lat="40.09091013136308" lon="15.516610600865882"><ele>101.0</ele><time>2026-04-26T07:46:07Z</time></trkpt><trkpt lat="40.090896329280824" lon="15.516740335403384"><ele>102.0</ele><time>2026-04-26T07:46:08Z</time></trkpt><trkpt lat="40.090920919880496" lon="15.516891447809584"><ele>103.0</ele><time>2026-04-26T07:46:09Z</time></trkpt><trkpt lat="40.090975670212394" lon="15.517061842859508"><ele>104.0</ele><time>2026-04-26T07:46:10Z</time></trkpt><trkpt lat="40.09102211030833" lon="15.517229223914862"><ele>105.0</ele><time>2026-04-26T07:46:11Z</time></trkpt><trkpt lat="40.09106605404213" lon="15.517358762337544"><ele>107.5</ele><time>2026-04-26T07:46:12Z</time></trkpt><trkpt lat="40.09109250250221" lon="15.517474638212242"><ele>110.0</ele><time>2026-04-26T07:46:13Z</time></trkpt><trkpt lat="40.09113284021471" lon="15.517607108287972"><ele>112.5</ele><time>2026-04-26T07:46:14Z</time></trkpt><trkpt lat="40.09113844449321" lon="15.517782593481146"><ele>115.0</ele><time>2026-04-26T07:46:15Z</time></trkpt><trkpt lat="40.091148335636746" lon="15.51794582260219"><ele>116.2</ele><time>2026-04-26T07:46:16Z</time></trkpt><trkpt lat="40.09116991200758" lon="15.518065947973142"><ele>117.4</ele><time>2026-04-26T07:46:17Z</time></trkpt><trkpt lat="40.091194257802705" lon="15.518165385354514"><ele>118.6</ele><time>2026-04-26T07:46:18Z</time></trkpt><trkpt lat="40.09130413995941" lon="15.518227055364473"><ele>119.8</ele><time>2026-04-26T07:46:19Z</time></trkpt><trkpt lat="40.09140453848524" lon="15.518307839839677"><ele>121.0</ele><time>2026-04-26T07:46:19.999Z</time></trkpt><trkpt lat="40.09148977993435" lon="15.518376533645268"><ele>121.0</ele><time>2026-04-26T07:46:20.999Z</time></trkpt><trkpt lat="40.09154603312253" lon="15.518436189882836"><ele>121.0</ele><time>2026-04-26T07:46:21.999Z</time></trkpt><trkpt lat="40.091594318389326" lon="15.518525332848094"><ele>121.0</ele><time>2026-04-26T07:46:22.999Z</time></trkpt><trkpt lat="40.091637570440874" lon="15.518658657716784"><ele>121.0</ele><time>2026-04-26T07:46:23.999Z</time></trkpt><trkpt lat="40.0916786293317" lon="15.518788762731525"><ele>121.0</ele><time>2026-04-26T07:46:24.999Z</time></trkpt><trkpt lat="40.09173033525065" lon="15.5188955591129"><ele>125.4</ele><time>2026-04-26T07:46:25.999Z</time></trkpt><trkpt lat="40.09180602776462" lon="15.518982164825978"><ele>129.8</ele><time>2026-04-26T07:46:26.999Z</time></trkpt><trkpt lat="40.0919047052727" lon="15.519050796594025"><ele>134.20000000000002</ele><time>2026-04-26T07:46:27.999Z</time></trkpt><trkpt lat="40.09201004681656" lon="15.519126747927217"><ele>138.6</ele><time>2026-04-26T07:46:28.999Z</time></trkpt><trkpt lat="40.092101116305656" lon="15.519206050071963"><ele>143.0</ele><time>2026-04-26T07:46:29.999Z</time></trkpt><trkpt lat="40.09219382935475" lon="15.519276548703106"><ele>143.0</ele><time>2026-04-26T07:46:30.999Z</time></trkpt><trkpt lat="40.0922865684301" lon="15.519356138040179"><ele>143.0</ele><time>2026-04-26T07:46:31.999Z</time></trkpt><trkpt lat="40.09237120360467" lon="15.519434669250366"><ele>143.0</ele><time>2026-04-26T07:46:32.999Z</time></trkpt><trkpt lat="40.0924292609575" lon="15.519555655951509"><ele>143.0</ele><time>2026-04-26T07:46:33.999Z</time></trkpt><trkpt lat="40.09250058906838" lon="15.51964647147354"><ele>143.0</ele><time>2026-04-26T07:46:34.999Z</time></trkpt><trkpt lat="40.09256309660523" lon="15.519722742772396"><ele>145.5</ele><time>2026-04-26T07:46:35.999Z</time></trkpt><trkpt lat="40.092644936333684" lon="15.51975002061513"><ele>148.0</ele><time>2026-04-26T07:46:36.999Z</time></trkpt><trkpt lat="40.092727287676766" lon="15.519750891396182"><ele>150.5</ele><time>2026-04-26T07:46:37.999Z</time></trkpt><trkpt lat="40.092810090064496" lon="15.519737271916883"><ele>153.0</ele><time>2026-04-26T07:46:38.999Z</time></trkpt><trkpt lat="40.09289379441782" lon="15.519749239894944"><ele>155.5</ele><time>2026-04-26T07:46:39.999Z</time></trkpt><trkpt lat="40.092963938956316" lon="15.519785420778918"><ele>158.0</ele><time>2026-04-26T07:46:40.999Z</time></trkpt><trkpt lat="40.09302670109336" lon="15.51985758148459"><ele>158.0</ele><time>2026-04-26T07:46:41.999Z</time></trkpt><trkpt lat="40.09308685689421" lon="15.51995586421245"><ele>158.0</ele><time>2026-04-26T07:46:42.999Z</time></trkpt><trkpt lat="40.09314550304098" lon="15.520051699936813"><ele>158.0</ele><time>2026-04-26T07:46:43.999Z</time></trkpt><trkpt lat="40.093226219214074" lon="15.520112098468232"><ele>158.0</ele><time>2026-04-26T07:46:44.999Z</time></trkpt><trkpt lat="40.09332962868445" lon="15.520146326234624"><ele>158.0</ele><time>2026-04-26T07:46:45.999Z</time></trkpt><trkpt lat="40.093409213777505" lon="15.520176466108374"><ele>161.8</ele><time>2026-04-26T07:46:46.999Z</time></trkpt><trkpt lat="40.093471123454464" lon="15.520223958529314"><ele>165.60000000000002</ele><time>2026-04-26T07:46:48.999Z</time></trkpt><trkpt lat="40.093548399627245" lon="15.520035832364261"><ele>169.39999999999998</ele><time>2026-04-26T07:46:52.999Z</time></trkpt><trkpt lat="40.093589554501314" lon="15.519932101717755"><ele>173.2</ele><time>2026-04-26T07:46:53.999Z</time></trkpt><trkpt lat="40.09362301381776" lon="15.51983711364452"><ele>177.0</ele><time>2026-04-26T07:46:54.999Z</time></trkpt><trkpt lat="40.093658860776756" lon="15.519739637911778"><ele>177.0</ele><time>2026-04-26T07:46:55.999Z</time></trkpt><trkpt lat="40.093698186289636" lon="15.519638904787067"><ele>177.0</ele><time>2026-04-26T07:46:56.999Z</time></trkpt><trkpt lat="40.09374512330362" lon="15.519531756522397"><ele>177.0</ele><time>2026-04-26T07:46:57.999Z</time></trkpt><trkpt lat="40.09380828530446" lon="15.519430915843705"><ele>177.0</ele><time>2026-04-26T07:46:58.999Z</time></trkpt><trkpt lat="40.09386797039948" lon="15.519348248589148"><ele>177.0</ele><time>2026-04-26T07:46:59.999Z</time></trkpt><trkpt lat="40.093905953049365" lon="15.51926783451669"><ele>177.0</ele><time>2026-04-26T07:47:01Z</time></trkpt><trkpt lat="40.09398978952769" lon="15.519169717341919"><ele>176.39999999999998</ele><time>2026-04-26T07:47:03Z</time></trkpt><trkpt lat="40.09407056644031" lon="15.51905394665383"><ele>175.79999999999998</ele><time>2026-04-26T07:47:05Z</time></trkpt><trkpt lat="40.09411427444441" lon="15.51899367825312"><ele>175.2</ele><time>2026-04-26T07:47:06Z</time></trkpt><trkpt lat="40.09420770427005" lon="15.51886897157436"><ele>174.6</ele><time>2026-04-26T07:47:08Z</time></trkpt><trkpt lat="40.09426092689733" lon="15.518775506393062"><ele>174.0</ele><time>2026-04-26T07:47:09Z</time></trkpt><trkpt lat="40.09434345060649" lon="15.518699830923687"><ele>178.25</ele><time>2026-04-26T07:47:10Z</time></trkpt><trkpt lat="40.094430972134234" lon="15.51860107618327"><ele>182.5</ele><time>2026-04-26T07:47:11Z</time></trkpt><trkpt lat="40.09453395753006" lon="15.518510836679758"><ele>186.75</ele><time>2026-04-26T07:47:12Z</time></trkpt><trkpt lat="40.094629943532276" lon="15.518433604375382"><ele>191.0</ele><time>2026-04-26T07:47:13Z</time></trkpt><trkpt lat="40.094741847971314" lon="15.518366035817706"><ele>191.0</ele><time>2026-04-26T07:47:14Z</time></trkpt><trkpt lat="40.09485631676427" lon="15.51829061475704"><ele>191.0</ele><time>2026-04-26T07:47:15Z</time></trkpt><trkpt lat="40.094955918854225" lon="15.51822134245223"><ele>191.0</ele><time>2026-04-26T07:47:16Z</time></trkpt><trkpt lat="40.09506021694536" lon="15.518129242567436"><ele>191.0</ele><time>2026-04-26T07:47:17Z</time></trkpt><trkpt lat="40.095157617440606" lon="15.517995312905896"><ele>193.25</ele><time>2026-04-26T07:47:18Z</time></trkpt><trkpt lat="40.095237341333366" lon="15.517835232719216"><ele>195.5</ele><time>2026-04-26T07:47:19Z</time></trkpt><trkpt lat="40.095302689670994" lon="15.517680471173831"><ele>197.75</ele><time>2026-04-26T07:47:20Z</time></trkpt><trkpt lat="40.095352222710076" lon="15.517526013890436"><ele>200.0</ele><time>2026-04-26T07:47:21Z</time></trkpt><trkpt lat="40.09536150561868" lon="15.517349265663707"><ele>200.0</ele><time>2026-04-26T07:47:22Z</time></trkpt><trkpt lat="40.0953683560232" lon="15.517147632249705"><ele>200.0</ele><time>2026-04-26T07:47:23Z</time></trkpt><trkpt lat="40.095394332669606" lon="15.51695646724759"><ele>200.0</ele><time>2026-04-26T07:47:24Z</time></trkpt><trkpt lat="40.0954235377469" lon="15.516792293370415"><ele>200.0</ele><time>2026-04-26T07:47:25Z</time></trkpt><trkpt lat="40.09547733677937" lon="15.51663178422938"><ele>199.25</ele><time>2026-04-26T07:47:26Z</time></trkpt><trkpt lat="40.095529522525844" lon="15.516470181627039"><ele>198.5</ele><time>2026-04-26T07:47:27Z</time></trkpt><trkpt lat="40.09557615519045" lon="15.516302457437138"><ele>197.75</ele><time>2026-04-26T07:47:28Z</time></trkpt><trkpt lat="40.09560251823997" lon="15.516144593204842"><ele>197.0</ele><time>2026-04-26T07:47:29Z</time></trkpt><trkpt lat="40.095590487133244" lon="15.515976821474155"><ele>199.0</ele><time>2026-04-26T07:47:30Z</time></trkpt><trkpt lat="40.095587792354706" lon="15.515844523447814"><ele>201.0</ele><time>2026-04-26T07:47:31Z</time></trkpt><trkpt lat="40.09559176310788" lon="15.515755844202593"><ele>203.0</ele><time>2026-04-26T07:47:32Z</time></trkpt><trkpt lat="40.095698471119505" lon="15.515681110944778"><ele>205.0</ele><time>2026-04-26T07:47:35Z</time></trkpt><trkpt lat="40.095797419916096" lon="15.5157199133487"><ele>207.0</ele><time>2026-04-26T07:47:36Z</time></trkpt><trkpt lat="40.0959095518866" lon="15.515773691560241"><ele>210.5</ele><time>2026-04-26T07:47:37Z</time></trkpt><trkpt lat="40.09604043366486" lon="15.51582738190028"><ele>214.0</ele><time>2026-04-26T07:47:38Z</time></trkpt><trkpt lat="40.09616297809227" lon="15.515881620684326"><ele>217.5</ele><time>2026-04-26T07:47:39Z</time></trkpt><trkpt lat="40.09625934688623" lon="15.515967239304588"><ele>221.0</ele><time>2026-04-26T07:47:40Z</time></trkpt><trkpt lat="40.09632878028939" lon="15.515987368982064"><ele>221.0</ele><time>2026-04-26T07:47:41Z</time></trkpt><trkpt lat="40.09642432228583" lon="15.516012885933396"><ele>221.00000000000003</ele><time>2026-04-26T07:47:43Z</time></trkpt><trkpt lat="40.096484101998804" lon="15.515929184159546"><ele>221.00000000000003</ele><time>2026-04-26T07:47:44Z</time></trkpt><trkpt lat="40.09647754803482" lon="15.515795652870093"><ele>221.0</ele><time>2026-04-26T07:47:45Z</time></trkpt><trkpt lat="40.09636807307315" lon="15.515711526813195"><ele>221.0</ele><time>2026-04-26T07:47:46Z</time></trkpt><trkpt lat="40.09626410253946" lon="15.515647261452012"><ele>221.0</ele><time>2026-04-26T07:47:47Z</time></trkpt><trkpt lat="40.09619161448362" lon="15.515539948471464"><ele>221.00000000000003</ele><time>2026-04-26T07:47:48Z</time></trkpt><trkpt lat="40.096133389426015" lon="15.515455757324546"><ele>221.00000000000003</ele><time>2026-04-26T07:47:49Z</time></trkpt><trkpt lat="40.09614026056755" lon="15.515340443860818"><ele>221.0</ele><time>2026-04-26T07:47:51Z</time></trkpt><trkpt lat="40.096232207081115" lon="15.515210773859339"><ele>221.0</ele><time>2026-04-26T07:47:53Z</time></trkpt><trkpt lat="40.09635367547654" lon="15.51515240826224"><ele>224.25</ele><time>2026-04-26T07:47:54Z</time></trkpt><trkpt lat="40.096470701883746" lon="15.515119959208896"><ele>227.5</ele><time>2026-04-26T07:47:55Z</time></trkpt><trkpt lat="40.09657787125886" lon="15.51515733789937"><ele>230.75</ele><time>2026-04-26T07:47:56Z</time></trkpt><trkpt lat="40.096679685825656" lon="15.515208358834498"><ele>234.0</ele><time>2026-04-26T07:47:57Z</time></trkpt><trkpt lat="40.096813026754795" lon="15.515282046085742"><ele>235.0</ele><time>2026-04-26T07:47:58Z</time></trkpt><trkpt lat="40.09692397445586" lon="15.515417599227916"><ele>236.0</ele><time>2026-04-26T07:47:59Z</time></trkpt><trkpt lat="40.097022107053796" lon="15.515518546794922"><ele>237.0</ele><time>2026-04-26T07:48:00Z</time></trkpt><trkpt lat="40.09707530134727" lon="15.515640393555456"><ele>238.0</ele><time>2026-04-26T07:48:01Z</time></trkpt><trkpt lat="40.09710856035919" lon="15.51575608909881"><ele>237.99999999999997</ele><time>2026-04-26T07:48:02Z</time></trkpt><trkpt lat="40.097126532787335" lon="15.51585290491388"><ele>238.0</ele><time>2026-04-26T07:48:03Z</time></trkpt><trkpt lat="40.097195857934125" lon="15.515912426854984"><ele>238.0</ele><time>2026-04-26T07:48:05Z</time></trkpt><trkpt lat="40.09724941025696" lon="15.515866889412585"><ele>238.0</ele><time>2026-04-26T07:48:06Z</time></trkpt><trkpt lat="40.097301838080746" lon="15.515797971021197"><ele>237.99999999999997</ele><time>2026-04-26T07:48:07Z</time></trkpt><trkpt lat="40.09730667600984" lon="15.515659426299399"><ele>238.0</ele><time>2026-04-26T07:48:08Z</time></trkpt><trkpt lat="40.097297873916915" lon="15.515528514497454"><ele>240.60000000000002</ele><time>2026-04-26T07:48:09Z</time></trkpt><trkpt lat="40.0972865138727" lon="15.515397155792423"><ele>243.20000000000002</ele><time>2026-04-26T07:48:10Z</time></trkpt><trkpt lat="40.09727980930547" lon="15.515288681487348"><ele>245.8</ele><time>2026-04-26T07:48:11Z</time></trkpt><trkpt lat="40.09727978237129" lon="15.515156966587872"><ele>248.4</ele><time>2026-04-26T07:48:13Z</time></trkpt><trkpt lat="40.09718731418479" lon="15.515122271151391"><ele>251.0</ele><time>2026-04-26T07:48:14Z</time></trkpt><trkpt lat="40.09712747978107" lon="15.515068935236743"><ele>250.99999999999997</ele><time>2026-04-26T07:48:17Z</time></trkpt><trkpt lat="40.09718567537444" lon="15.515023429610478"><ele>251.0</ele><time>2026-04-26T07:54:06Z</time></trkpt><trkpt lat="40.09724677273892" lon="15.514975978317725"><ele>250.99999999999997</ele><time>2026-04-26T07:54:30Z</time></trkpt><trkpt lat="40.09731716174994" lon="15.515024723351386"><ele>250.99999999999997</ele><time>2026-04-26T07:54:32Z</time></trkpt><trkpt lat="40.0973441498582" lon="15.515102318948546"><ele>251.0</ele><time>2026-04-26T07:54:33Z</time></trkpt><trkpt lat="40.097373839277104" lon="15.515186970879844"><ele>250.99999999999997</ele><time>2026-04-26T07:54:34Z</time></trkpt><trkpt lat="40.09741170469305" lon="15.515273000214302"><ele>250.99999999999997</ele><time>2026-04-26T07:54:35Z</time></trkpt><trkpt lat="40.097460054806334" lon="15.515369900720543"><ele>252.83333333333334</ele><time>2026-04-26T07:54:36Z</time></trkpt><trkpt lat="40.09749943384095" lon="15.515445364292663"><ele>254.66666666666669</ele><time>2026-04-26T07:54:37Z</time></trkpt><trkpt lat="40.09755892453655" lon="15.515524052679604"><ele>256.5</ele><time>2026-04-26T07:54:38Z</time></trkpt><trkpt lat="40.09761408965316" lon="15.515587517898062"><ele>258.3333333333333</ele><time>2026-04-26T07:54:38.999Z</time></trkpt><trkpt lat="40.09767902333871" lon="15.51562695054968"><ele>260.16666666666663</ele><time>2026-04-26T07:54:39.999Z</time></trkpt><trkpt lat="40.0977530403604" lon="15.515659978108774"><ele>262.0</ele><time>2026-04-26T07:54:40.999Z</time></trkpt><trkpt lat="40.0978201290148" lon="15.515696152607925"><ele>262.0</ele><time>2026-04-26T07:54:41.999Z</time></trkpt><trkpt lat="40.09787669319695" lon="15.515735764562441"><ele>262.0</ele><time>2026-04-26T07:54:42.999Z</time></trkpt><trkpt lat="40.09796345952043" lon="15.515837937394474"><ele>262.0</ele><time>2026-04-26T07:54:44.999Z</time></trkpt><trkpt lat="40.09799047080277" lon="15.515914715846108"><ele>262.0</ele><time>2026-04-26T07:54:45.999Z</time></trkpt><trkpt lat="40.097997102846634" lon="15.516077348801312"><ele>262.0</ele><time>2026-04-26T07:54:47.999Z</time></trkpt><trkpt lat="40.09802636508002" lon="15.516162232112677"><ele>262.0</ele><time>2026-04-26T07:54:48.999Z</time></trkpt><trkpt lat="40.09804920441816" lon="15.516248983606557"><ele>262.66666666666663</ele><time>2026-04-26T07:54:49.999Z</time></trkpt><trkpt lat="40.09812355373798" lon="15.516358938241535"><ele>263.3333333333333</ele><time>2026-04-26T07:54:51.999Z</time></trkpt><trkpt lat="40.098179396543536" lon="15.516398214880565"><ele>264.0</ele><time>2026-04-26T07:54:52.999Z</time></trkpt><trkpt lat="40.098243637444114" lon="15.516421663391258"><ele>264.6666666666667</ele><time>2026-04-26T07:54:53.999Z</time></trkpt><trkpt lat="40.09832413169106" lon="15.516437956142557"><ele>265.33333333333337</ele><time>2026-04-26T07:54:54.999Z</time></trkpt><trkpt lat="40.09838632844305" lon="15.516483338069254"><ele>266.0</ele><time>2026-04-26T07:54:55.999Z</time></trkpt><trkpt lat="40.09847842267333" lon="15.516544299223241"><ele>271.33333333333337</ele><time>2026-04-26T07:54:57.999Z</time></trkpt><trkpt lat="40.098539338573836" lon="15.516636491866155"><ele>276.6666666666667</ele><time>2026-04-26T07:54:59.999Z</time></trkpt><trkpt lat="40.098607718222254" lon="15.516677420139745"><ele>282.0</ele><time>2026-04-26T07:55:02.999Z</time></trkpt><trkpt lat="40.098604909232684" lon="15.516567122082229"><ele>287.3333333333333</ele><time>2026-04-26T07:55:03.999Z</time></trkpt><trkpt lat="40.09855102177029" lon="15.516437756053309"><ele>292.66666666666663</ele><time>2026-04-26T07:55:06.999Z</time></trkpt><trkpt lat="40.09851113430167" lon="15.516368173791975"><ele>298.0</ele><time>2026-04-26T07:55:07.999Z</time></trkpt><trkpt lat="40.098458003863946" lon="15.516296840636176"><ele>297.2</ele><time>2026-04-26T07:55:08.999Z</time></trkpt><trkpt lat="40.098406283803364" lon="15.51618646182084"><ele>296.4</ele><time>2026-04-26T07:55:10.999Z</time></trkpt><trkpt lat="40.09845268766147" lon="15.516123253188132"><ele>295.59999999999997</ele><time>2026-04-26T07:55:21.999Z</time></trkpt><trkpt lat="40.09853324336273" lon="15.516160335700727"><ele>294.8</ele><time>2026-04-26T07:55:23.999Z</time></trkpt><trkpt lat="40.0985999538351" lon="15.516155169178818"><ele>294.0</ele><time>2026-04-26T07:55:26Z</time></trkpt><trkpt lat="40.09872895836068" lon="15.516120198969624"><ele>295.0</ele><time>2026-04-26T07:55:29Z</time></trkpt><trkpt lat="40.09884797389781" lon="15.516394685347564"><ele>296.0</ele><time>2026-04-26T07:55:33Z</time></trkpt><trkpt lat="40.098954000121196" lon="15.516479346612154"><ele>297.0</ele><time>2026-04-26T07:55:35Z</time></trkpt><trkpt lat="40.09902389319401" lon="15.51650173474664"><ele>298.0</ele><time>2026-04-26T07:55:36Z</time></trkpt><trkpt lat="40.09909463154795" lon="15.516543543751078"><ele>304.4</ele><time>2026-04-26T07:55:37Z</time></trkpt><trkpt lat="40.099146785096615" lon="15.516605707045786"><ele>310.8</ele><time>2026-04-26T07:55:38Z</time></trkpt><trkpt lat="40.09923599402215" lon="15.516717353466687"><ele>317.2</ele><time>2026-04-26T07:55:40Z</time></trkpt><trkpt lat="40.09929644313603" lon="15.516756552780034"><ele>323.6</ele><time>2026-04-26T07:55:41Z</time></trkpt><trkpt lat="40.09939428199005" lon="15.516856351824428"><ele>330.0</ele><time>2026-04-26T07:55:43Z</time></trkpt><trkpt lat="40.0994519488095" lon="15.516897767010448"><ele>330.0</ele><time>2026-04-26T07:55:44Z</time></trkpt><trkpt lat="40.09950993988307" lon="15.51694531601467"><ele>330.0</ele><time>2026-04-26T07:55:45Z</time></trkpt><trkpt lat="40.09956087356458" lon="15.51701198670281"><ele>330.0</ele><time>2026-04-26T07:55:46Z</time></trkpt><trkpt lat="40.09961917481187" lon="15.517063842274078"><ele>330.0</ele><time>2026-04-26T07:55:47Z</time></trkpt><trkpt lat="40.09972214519657" lon="15.517116278715433"><ele>330.0</ele><time>2026-04-26T07:55:49Z</time></trkpt><trkpt lat="40.09982830932097" lon="15.517154353050934"><ele>330.0</ele><time>2026-04-26T07:55:51Z</time></trkpt><trkpt lat="40.0999395415798" lon="15.517189374779592"><ele>334.6</ele><time>2026-04-26T07:55:53Z</time></trkpt><trkpt lat="40.10004703651341" lon="15.517242698819194"><ele>339.2</ele><time>2026-04-26T07:55:55Z</time></trkpt><trkpt lat="40.10014939452919" lon="15.517305634142064"><ele>343.79999999999995</ele><time>2026-04-26T07:55:57Z</time></trkpt><trkpt lat="40.10023201922528" lon="15.517310893438118"><ele>348.4</ele><time>2026-04-26T07:55:59Z</time></trkpt><trkpt lat="40.10023096139571" lon="15.51740027368219"><ele>353.0</ele><time>2026-04-26T07:56:24Z</time></trkpt><trkpt lat="40.100155781868" lon="15.517460137693645"><ele>353.0</ele><time>2026-04-26T07:56:36Z</time></trkpt><trkpt lat="40.100151576671465" lon="15.517552851841161"><ele>353.0</ele><time>2026-04-26T07:56:38Z</time></trkpt><trkpt lat="40.10018995062911" lon="15.517625804169045"><ele>353.0</ele><time>2026-04-26T07:56:40Z</time></trkpt><trkpt lat="40.100252979092055" lon="15.517696100970387"><ele>353.0</ele><time>2026-04-26T07:56:42Z</time></trkpt><trkpt lat="40.100328429411285" lon="15.517769124099331"><ele>353.0</ele><time>2026-04-26T07:56:44Z</time></trkpt><trkpt lat="40.10037285378198" lon="15.517827634029317"><ele>353.0</ele><time>2026-04-26T07:56:47Z</time></trkpt><trkpt lat="40.10041120912466" lon="15.517903388511748"><ele>353.0</ele><time>2026-04-26T07:56:49.999Z</time></trkpt><trkpt lat="40.10049627538304" lon="15.51805229216946"><ele>354.0</ele><time>2026-04-26T07:56:51.999Z</time></trkpt><trkpt lat="40.10053505676234" lon="15.518120412366681"><ele>355.0</ele><time>2026-04-26T07:56:52.999Z</time></trkpt><trkpt lat="40.10061405499105" lon="15.518216635230186"><ele>356.0</ele><time>2026-04-26T07:56:54.999Z</time></trkpt><trkpt lat="40.100676253340175" lon="15.518284066309633"><ele>357.0</ele><time>2026-04-26T08:01:37.999Z</time></trkpt><trkpt lat="40.10074777883592" lon="15.51834430511075"><ele>358.0</ele><time>2026-04-26T08:01:39.999Z</time></trkpt><trkpt lat="40.10079764546214" lon="15.51840898166092"><ele>359.0</ele><time>2026-04-26T08:01:41.999Z</time></trkpt><trkpt lat="40.10086460095044" lon="15.518492556914275"><ele>360.79999999999995</ele><time>2026-04-26T08:01:44Z</time></trkpt><trkpt lat="40.100949936032585" lon="15.518561534972422"><ele>362.59999999999997</ele><time>2026-04-26T08:01:46Z</time></trkpt><trkpt lat="40.101012070405865" lon="15.518605322958978"><ele>364.4</ele><time>2026-04-26T08:01:47Z</time></trkpt><trkpt lat="40.1010786237776" lon="15.51867581551868"><ele>366.2</ele><time>2026-04-26T08:01:48Z</time></trkpt><trkpt lat="40.10117283816328" lon="15.518721804921194"><ele>368.0</ele><time>2026-04-26T08:01:49Z</time></trkpt><trkpt lat="40.10126021400575" lon="15.518771751413803"><ele>370.2</ele><time>2026-04-26T08:01:50Z</time></trkpt><trkpt lat="40.101331845608044" lon="15.518825646763217"><ele>372.4</ele><time>2026-04-26T08:01:51Z</time></trkpt><trkpt lat="40.10140968103461" lon="15.518893750984285"><ele>374.59999999999997</ele><time>2026-04-26T08:01:52Z</time></trkpt><trkpt lat="40.101498322201145" lon="15.518970547552167"><ele>376.79999999999995</ele><time>2026-04-26T08:01:53Z</time></trkpt><trkpt lat="40.10158032621861" lon="15.519030809328521"><ele>379.0</ele><time>2026-04-26T08:01:54Z</time></trkpt><trkpt lat="40.101693135355724" lon="15.519100294401927"><ele>379.8333333333333</ele><time>2026-04-26T08:01:56Z</time></trkpt><trkpt lat="40.10179091293919" lon="15.519082749552243"><ele>380.66666666666663</ele><time>2026-04-26T08:01:57Z</time></trkpt><trkpt lat="40.101874751519595" lon="15.519106431419802"><ele>381.5</ele><time>2026-04-26T08:01:58Z</time></trkpt><trkpt lat="40.10195816823337" lon="15.519138437200324"><ele>382.3333333333333</ele><time>2026-04-26T08:01:59Z</time></trkpt><trkpt lat="40.10202384207998" lon="15.519176910905617"><ele>383.1666666666667</ele><time>2026-04-26T08:02:00Z</time></trkpt><trkpt lat="40.102072322068395" lon="15.519240094838516"><ele>384.0</ele><time>2026-04-26T08:02:01Z</time></trkpt><trkpt lat="40.102127764155384" lon="15.519324448206733"><ele>384.0</ele><time>2026-04-26T08:02:02Z</time></trkpt><trkpt lat="40.10220089374637" lon="15.519437199045006"><ele>384.0</ele><time>2026-04-26T08:02:03Z</time></trkpt><trkpt lat="40.10228440808048" lon="15.519540898200106"><ele>384.0</ele><time>2026-04-26T08:02:04Z</time></trkpt><trkpt lat="40.10236231206458" lon="15.51961657896481"><ele>384.0</ele><time>2026-04-26T08:02:05Z</time></trkpt><trkpt lat="40.10241852729102" lon="15.519657346622907"><ele>384.0</ele><time>2026-04-26T08:02:06Z</time></trkpt><trkpt lat="40.10252104908347" lon="15.51967082841186"><ele>385.0</ele><time>2026-04-26T08:02:09Z</time></trkpt><trkpt lat="40.1025962963292" lon="15.519659672954337"><ele>386.0</ele><time>2026-04-26T08:02:10Z</time></trkpt><trkpt lat="40.102690766987116" lon="15.519764170573765"><ele>387.0</ele><time>2026-04-26T08:02:12Z</time></trkpt><trkpt lat="40.10273066804276" lon="15.519850535433136"><ele>388.0</ele><time>2026-04-26T08:02:13Z</time></trkpt><trkpt lat="40.10275898413743" lon="15.519928130808637"><ele>389.0</ele><time>2026-04-26T08:02:14Z</time></trkpt><trkpt lat="40.10277430921531" lon="15.520014034199162"><ele>390.0</ele><time>2026-04-26T08:02:15Z</time></trkpt><trkpt lat="40.10282690762675" lon="15.520141809913184"><ele>390.0</ele><time>2026-04-26T08:02:17Z</time></trkpt><trkpt lat="40.102902208625245" lon="15.520237559233314"><ele>390.0</ele><time>2026-04-26T08:02:19Z</time></trkpt><trkpt lat="40.102987381517494" lon="15.520328494151329"><ele>390.0</ele><time>2026-04-26T08:02:21Z</time></trkpt><trkpt lat="40.10306794380433" lon="15.520430706772446"><ele>390.0</ele><time>2026-04-26T08:02:23Z</time></trkpt><trkpt lat="40.10313574268639" lon="15.520540317376812"><ele>390.0</ele><time>2026-04-26T08:02:25Z</time></trkpt><trkpt lat="40.10315276543638" lon="15.520718168911309"><ele>390.5</ele><time>2026-04-26T08:02:27Z</time></trkpt><trkpt lat="40.10315493035817" lon="15.52082585091083"><ele>391.0</ele><time>2026-04-26T08:02:28Z</time></trkpt><trkpt lat="40.1031600777905" lon="15.520925784579319"><ele>391.5</ele><time>2026-04-26T08:02:29Z</time></trkpt><trkpt lat="40.10319514783595" lon="15.521031852872898"><ele>392.0</ele><time>2026-04-26T08:02:31Z</time></trkpt><trkpt lat="40.10322525243985" lon="15.521123009515938"><ele>392.5</ele><time>2026-04-26T08:02:34Z</time></trkpt><trkpt lat="40.1032007745928" lon="15.521228596000247"><ele>393.0</ele><time>2026-04-26T08:02:37Z</time></trkpt><trkpt lat="40.10310995074182" lon="15.521278936577165"><ele>398.0</ele><time>2026-04-26T08:02:39Z</time></trkpt><trkpt lat="40.10302486419715" lon="15.521284632656739"><ele>403.0</ele><time>2026-04-26T08:02:41Z</time></trkpt><trkpt lat="40.102949309496545" lon="15.521303291503209"><ele>408.0</ele><time>2026-04-26T08:02:42Z</time></trkpt><trkpt lat="40.10283692296952" lon="15.521355861123292"><ele>413.0</ele><time>2026-04-26T08:02:43Z</time></trkpt><trkpt lat="40.1027504472899" lon="15.521388658265206"><ele>418.0</ele><time>2026-04-26T08:02:44Z</time></trkpt><trkpt lat="40.10265930968215" lon="15.521405842019876"><ele>418.0</ele><time>2026-04-26T08:02:45Z</time></trkpt><trkpt lat="40.10256784630728" lon="15.52142716030825"><ele>418.0</ele><time>2026-04-26T08:02:46Z</time></trkpt><trkpt lat="40.10250890881844" lon="15.521514945201453"><ele>418.0</ele><time>2026-04-26T08:02:48Z</time></trkpt><trkpt lat="40.102483419933016" lon="15.521614985147488"><ele>418.0</ele><time>2026-04-26T08:02:50Z</time></trkpt><trkpt lat="40.10246246591167" lon="15.52177963294175"><ele>418.0</ele><time>2026-04-26T08:02:52Z</time></trkpt><trkpt lat="40.102452986529734" lon="15.521865650252726"><ele>418.00000000000006</ele><time>2026-04-26T08:02:53Z</time></trkpt><trkpt lat="40.102454750031164" lon="15.521948384036628"><ele>418.0</ele><time>2026-04-26T08:02:54Z</time></trkpt><trkpt lat="40.10246555029656" lon="15.522041586314778"><ele>418.0</ele><time>2026-04-26T08:02:55Z</time></trkpt><trkpt lat="40.1024730181152" lon="15.522142908808233"><ele>418.0</ele><time>2026-04-26T08:02:56Z</time></trkpt><trkpt lat="40.10248299892383" lon="15.522254033677399"><ele>418.00000000000006</ele><time>2026-04-26T08:02:57Z</time></trkpt><trkpt lat="40.10247869555139" lon="15.522365705407116"><ele>418.0</ele><time>2026-04-26T08:02:58Z</time></trkpt><trkpt lat="40.102471274906264" lon="15.522478672382526"><ele>420.4</ele><time>2026-04-26T08:02:59Z</time></trkpt><trkpt lat="40.10245257702661" lon="15.522595305818575"><ele>422.79999999999995</ele><time>2026-04-26T08:03:00Z</time></trkpt><trkpt lat="40.10242479493749" lon="15.522719928449732"><ele>425.2</ele><time>2026-04-26T08:03:01Z</time></trkpt><trkpt lat="40.10240347461558" lon="15.522839306999602"><ele>427.6</ele><time>2026-04-26T08:03:02Z</time></trkpt><trkpt lat="40.10240303442227" lon="15.52294173544033"><ele>430.0</ele><time>2026-04-26T08:03:03Z</time></trkpt><trkpt lat="40.10242802594019" lon="15.523151660862037"><ele>430.2</ele><time>2026-04-26T08:03:05Z</time></trkpt><trkpt lat="40.1024586364774" lon="15.523302005968755"><ele>430.4</ele><time>2026-04-26T08:03:06Z</time></trkpt><trkpt lat="40.102494179921514" lon="15.523436828087005"><ele>430.6</ele><time>2026-04-26T08:03:07Z</time></trkpt><trkpt lat="40.10253032470728" lon="15.523537876451083"><ele>430.8</ele><time>2026-04-26T08:03:08Z</time></trkpt><trkpt lat="40.102582419912146" lon="15.523646822328816"><ele>431.0</ele><time>2026-04-26T08:03:09Z</time></trkpt><trkpt lat="40.102634956291034" lon="15.523733924049594"><ele>431.0</ele><time>2026-04-26T08:03:10Z</time></trkpt><trkpt lat="40.10271642792293" lon="15.523834871175197"><ele>431.0</ele><time>2026-04-26T08:03:12Z</time></trkpt><trkpt lat="40.10281828067314" lon="15.523912130003536"><ele>431.0</ele><time>2026-04-26T08:03:14Z</time></trkpt><trkpt lat="40.10290005559565" lon="15.523972339563382"><ele>431.0</ele><time>2026-04-26T08:03:15Z</time></trkpt><trkpt lat="40.10295727145556" lon="15.524056912398512"><ele>431.0</ele><time>2026-04-26T08:03:17Z</time></trkpt><trkpt lat="40.10294849800866" lon="15.524158153616701"><ele>430.99999999999994</ele><time>2026-04-26T08:03:21Z</time></trkpt><trkpt lat="40.10290151310897" lon="15.524240866165117"><ele>431.0</ele><time>2026-04-26T08:03:22.999Z</time></trkpt><trkpt lat="40.10284944028744" lon="15.524300744523257"><ele>431.0</ele><time>2026-04-26T08:03:23.999Z</time></trkpt><trkpt lat="40.10283083217434" lon="15.524420478547055"><ele>431.0</ele><time>2026-04-26T08:03:25.999Z</time></trkpt><trkpt lat="40.10283425343124" lon="15.52451442449741"><ele>430.99999999999994</ele><time>2026-04-26T08:03:26.999Z</time></trkpt><trkpt lat="40.10285523701063" lon="15.524655441217702"><ele>431.0</ele><time>2026-04-26T08:03:28.999Z</time></trkpt><trkpt lat="40.10289183346883" lon="15.524789932543618"><ele>436.8</ele><time>2026-04-26T08:03:30.999Z</time></trkpt><trkpt lat="40.102920488645005" lon="15.524919385556784"><ele>442.6</ele><time>2026-04-26T08:03:32.999Z</time></trkpt><trkpt lat="40.1029556986097" lon="15.525033682857268"><ele>448.4</ele><time>2026-04-26T08:03:34.999Z</time></trkpt><trkpt lat="40.102986101329954" lon="15.525152532473975"><ele>454.2</ele><time>2026-04-26T08:03:36.999Z</time></trkpt><trkpt lat="40.103004335345446" lon="15.525290102697538"><ele>460.0</ele><time>2026-04-26T08:03:38.999Z</time></trkpt><trkpt lat="40.10306498851526" lon="15.525406233575211"><ele>463.6</ele><time>2026-04-26T08:03:40.999Z</time></trkpt><trkpt lat="40.103123939136125" lon="15.525496636753145"><ele>467.2</ele><time>2026-04-26T08:03:42.999Z</time></trkpt><trkpt lat="40.103186372198046" lon="15.525564593738205"><ele>470.79999999999995</ele><time>2026-04-26T08:03:44.999Z</time></trkpt><trkpt lat="40.10326554692901" lon="15.52562638761934"><ele>474.4</ele><time>2026-04-26T08:03:46.999Z</time></trkpt><trkpt lat="40.10336070001082" lon="15.525731849482572"><ele>478.0</ele><time>2026-04-26T08:03:49Z</time></trkpt><trkpt lat="40.10338720537363" lon="15.525814140624608"><ele>478.00000000000006</ele><time>2026-04-26T08:03:50Z</time></trkpt><trkpt lat="40.10343681767483" lon="15.525914163082367"><ele>478.0</ele><time>2026-04-26T08:03:51Z</time></trkpt><trkpt lat="40.1034897093018" lon="15.525991040165604"><ele>478.0</ele><time>2026-04-26T08:03:52Z</time></trkpt><trkpt lat="40.103568190583594" lon="15.52608260226108"><ele>478.0</ele><time>2026-04-26T08:03:54Z</time></trkpt><trkpt lat="40.103612559836264" lon="15.52614441328141"><ele>478.00000000000006</ele><time>2026-04-26T08:03:59Z</time></trkpt><trkpt lat="40.10363379323321" lon="15.5262576365056"><ele>478.0</ele><time>2026-04-26T08:04:27Z</time></trkpt><trkpt lat="40.10361044233802" lon="15.526390709756193"><ele>477.0</ele><time>2026-04-26T08:04:30Z</time></trkpt><trkpt lat="40.10372544484695" lon="15.526381498819331"><ele>475.99999999999994</ele><time>2026-04-26T08:04:33Z</time></trkpt><trkpt lat="40.10382857128401" lon="15.526382171236095"><ele>474.99999999999994</ele><time>2026-04-26T08:04:35Z</time></trkpt><trkpt lat="40.10393759008403" lon="15.526415931304575"><ele>474.0</ele><time>2026-04-26T08:04:37Z</time></trkpt><trkpt lat="40.104045473004355" lon="15.526462528284833"><ele>473.0</ele><time>2026-04-26T08:04:39Z</time></trkpt><trkpt lat="40.10406237954877" lon="15.52658328040277"><ele>473.0</ele><time>2026-04-26T08:04:42Z</time></trkpt><trkpt lat="40.10406043816959" lon="15.526693932397649"><ele>472.99999999999994</ele><time>2026-04-26T08:04:52Z</time></trkpt><trkpt lat="40.10408608977053" lon="15.526804984668246"><ele>472.99999999999994</ele><time>2026-04-26T08:04:54Z</time></trkpt><trkpt lat="40.10414804448082" lon="15.526868245193203"><ele>473.0</ele><time>2026-04-26T08:04:56Z</time></trkpt><trkpt lat="40.1042223168419" lon="15.526920132596105"><ele>473.0</ele><time>2026-04-26T08:04:58Z</time></trkpt><trkpt lat="40.10433862967653" lon="15.526969537944527"><ele>476.59999999999997</ele><time>2026-04-26T08:05:00Z</time></trkpt><trkpt lat="40.10445307481121" lon="15.52700692705438"><ele>480.19999999999993</ele><time>2026-04-26T08:05:02Z</time></trkpt><trkpt lat="40.104534783505414" lon="15.527016247123427"><ele>483.8</ele><time>2026-04-26T08:05:03Z</time></trkpt><trkpt lat="40.10461471988531" lon="15.527028063231024"><ele>487.4</ele><time>2026-04-26T08:05:04Z</time></trkpt><trkpt lat="40.10467746625733" lon="15.527036703777258"><ele>491.0</ele><time>2026-04-26T08:05:07Z</time></trkpt><trkpt lat="40.10479965696897" lon="15.527050006099257"><ele>490.99999999999994</ele><time>2026-04-26T08:05:10Z</time></trkpt><trkpt lat="40.10488407372988" lon="15.527053806607215"><ele>491.0</ele><time>2026-04-26T08:05:11Z</time></trkpt><trkpt lat="40.10498450910805" lon="15.527093668336327"><ele>491.0</ele><time>2026-04-26T08:05:13Z</time></trkpt><trkpt lat="40.10503676367181" lon="15.52714868473992"><ele>491.0</ele><time>2026-04-26T08:05:14Z</time></trkpt><trkpt lat="40.105088362496616" lon="15.527210328656365"><ele>490.99999999999994</ele><time>2026-04-26T08:05:15Z</time></trkpt><trkpt lat="40.105166631302204" lon="15.527300003481276"><ele>491.0</ele><time>2026-04-26T08:05:16Z</time></trkpt><trkpt lat="40.10524355546703" lon="15.527382175447455"><ele>491.8333333333333</ele><time>2026-04-26T08:05:17Z</time></trkpt><trkpt lat="40.10530013742352" lon="15.52745305734569"><ele>492.66666666666663</ele><time>2026-04-26T08:05:18Z</time></trkpt><trkpt lat="40.1053436610031" lon="15.527516855364588"><ele>493.5</ele><time>2026-04-26T08:05:19Z</time></trkpt><trkpt lat="40.105404870019086" lon="15.527590443074837"><ele>494.33333333333337</ele><time>2026-04-26T08:05:21.999Z</time></trkpt><trkpt lat="40.105464155688935" lon="15.527625844476713"><ele>495.1666666666667</ele><time>2026-04-26T08:05:37.999Z</time></trkpt><trkpt lat="40.10554058125977" lon="15.527659249863742"><ele>496.0</ele><time>2026-04-26T08:05:39.999Z</time></trkpt><trkpt lat="40.10566519636368" lon="15.527661892639314"><ele>496.0</ele><time>2026-04-26T08:05:41.999Z</time></trkpt><trkpt lat="40.10573917192729" lon="15.527647974291101"><ele>496.0</ele><time>2026-04-26T08:05:42.999Z</time></trkpt><trkpt lat="40.10583323610698" lon="15.527615069587696"><ele>496.0</ele><time>2026-04-26T08:05:43.999Z</time></trkpt><trkpt lat="40.10593414838951" lon="15.527580820402173"><ele>496.0</ele><time>2026-04-26T08:05:44.999Z</time></trkpt><trkpt lat="40.10602611771925" lon="15.527555063848842"><ele>496.0</ele><time>2026-04-26T08:05:45.999Z</time></trkpt><trkpt lat="40.10611203660173" lon="15.52753756871742"><ele>499.6666666666667</ele><time>2026-04-26T08:05:46.999Z</time></trkpt><trkpt lat="40.10618096921282" lon="15.527515324518514"><ele>503.33333333333337</ele><time>2026-04-26T08:05:47.999Z</time></trkpt><trkpt lat="40.10628797726052" lon="15.527483994741921"><ele>507.0</ele><time>2026-04-26T08:05:49.999Z</time></trkpt><trkpt lat="40.10636549428747" lon="15.527478789671859"><ele>510.66666666666663</ele><time>2026-04-26T08:05:52.999Z</time></trkpt><trkpt lat="40.10638449715846" lon="15.527557523988971"><ele>514.3333333333333</ele><time>2026-04-26T08:05:55Z</time></trkpt><trkpt lat="40.10632379827927" lon="15.527658891936039"><ele>518.0</ele><time>2026-04-26T08:05:57Z</time></trkpt><trkpt lat="40.10627852127154" lon="15.52772001571759"><ele>518.0</ele><time>2026-04-26T08:05:58Z</time></trkpt><trkpt lat="40.10622587123386" lon="15.52776686742678"><ele>518.0</ele><time>2026-04-26T08:05:59Z</time></trkpt><trkpt lat="40.106174636222185" lon="15.527837111255183"><ele>518.0</ele><time>2026-04-26T08:06:00Z</time></trkpt><trkpt lat="40.10611352461847" lon="15.527925980653407"><ele>518.0</ele><time>2026-04-26T08:06:01Z</time></trkpt><trkpt lat="40.10606593459101" lon="15.528035498107837"><ele>518.0</ele><time>2026-04-26T08:06:02Z</time></trkpt><trkpt lat="40.10605029735669" lon="15.528129274206284"><ele>518.0</ele><time>2026-04-26T08:06:03Z</time></trkpt><trkpt lat="40.10609788257755" lon="15.52828354511882"><ele>517.6</ele><time>2026-04-26T08:06:05Z</time></trkpt><trkpt lat="40.106155262630246" lon="15.528362785894345"><ele>517.1999999999999</ele><time>2026-04-26T08:06:06Z</time></trkpt><trkpt lat="40.106185389246455" lon="15.528480498369797"><ele>516.8</ele><time>2026-04-26T08:06:08Z</time></trkpt><trkpt lat="40.1061048830758" lon="15.528613186138536"><ele>516.4</ele><time>2026-04-26T08:06:10Z</time></trkpt><trkpt lat="40.10603565643023" lon="15.52869572525606"><ele>516.0</ele><time>2026-04-26T08:06:11Z</time></trkpt><trkpt lat="40.106003649840964" lon="15.528774946097741"><ele>515.9999999999999</ele><time>2026-04-26T08:06:12Z</time></trkpt><trkpt lat="40.10600026534511" lon="15.528858123093903"><ele>516.0</ele><time>2026-04-26T08:06:14Z</time></trkpt><trkpt lat="40.10605454235288" lon="15.528907552192944"><ele>516.0</ele><time>2026-04-26T08:06:16Z</time></trkpt><trkpt lat="40.10612762793164" lon="15.528907388792014"><ele>516.0</ele><time>2026-04-26T08:06:21Z</time></trkpt><trkpt lat="40.10621563807389" lon="15.528905965653275"><ele>516.0</ele><time>2026-04-26T08:06:23Z</time></trkpt><trkpt lat="40.10629033350211" lon="15.528897063114204"><ele>515.9999999999999</ele><time>2026-04-26T08:06:24Z</time></trkpt><trkpt lat="40.10636999640006" lon="15.52888756851065"><ele>516.0</ele><time>2026-04-26T08:06:25Z</time></trkpt><trkpt lat="40.106453748535394" lon="15.528877660723676"><ele>516.0</ele><time>2026-04-26T08:06:26Z</time></trkpt><trkpt lat="40.10654467930543" lon="15.528868269224718"><ele>516.0</ele><time>2026-04-26T08:06:27Z</time></trkpt><trkpt lat="40.106627608138446" lon="15.528851181353254"><ele>516.0</ele><time>2026-04-26T08:06:28Z</time></trkpt><trkpt lat="40.10668952984575" lon="15.52882987536817"><ele>516.0</ele><time>2026-04-26T08:06:29Z</time></trkpt><trkpt lat="40.106785551294564" lon="15.528791308691238"><ele>516.0</ele><time>2026-04-26T08:06:31Z</time></trkpt><trkpt lat="40.10685208180034" lon="15.52875969425913"><ele>516.0</ele><time>2026-04-26T08:06:33Z</time></trkpt><trkpt lat="40.10692946935893" lon="15.528739975914117"><ele>520.0</ele><time>2026-04-26T08:06:53Z</time></trkpt><trkpt lat="40.107037842365926" lon="15.528675069082153"><ele>524.0</ele><time>2026-04-26T08:06:55Z</time></trkpt><trkpt lat="40.10711650977535" lon="15.52859374450218"><ele>528.0</ele><time>2026-04-26T08:06:57Z</time></trkpt><trkpt lat="40.107182839331564" lon="15.528531694957044"><ele>532.0</ele><time>2026-04-26T08:06:59Z</time></trkpt><trkpt lat="40.10726652442" lon="15.528524326930986"><ele>536.0</ele><time>2026-04-26T08:07:01Z</time></trkpt><trkpt lat="40.10738126103952" lon="15.528538994241343"><ele>538.8333333333333</ele><time>2026-04-26T08:07:03Z</time></trkpt><trkpt lat="40.107443517949584" lon="15.5285254874428"><ele>541.6666666666666</ele><time>2026-04-26T08:07:04Z</time></trkpt><trkpt lat="40.10751469745104" lon="15.528508669401425"><ele>544.5</ele><time>2026-04-26T08:07:05Z</time></trkpt><trkpt lat="40.10758338439423" lon="15.52851787332431"><ele>547.3333333333334</ele><time>2026-04-26T08:07:06Z</time></trkpt><trkpt lat="40.10765349865289" lon="15.528559286227507"><ele>550.1666666666667</ele><time>2026-04-26T08:07:07Z</time></trkpt><trkpt lat="40.10773905298534" lon="15.528622800336633"><ele>553.0</ele><time>2026-04-26T08:07:08Z</time></trkpt><trkpt lat="40.10781760892276" lon="15.52870090484636"><ele>552.3333333333334</ele><time>2026-04-26T08:07:09Z</time></trkpt><trkpt lat="40.10789628708647" lon="15.528751164167335"><ele>551.6666666666667</ele><time>2026-04-26T08:07:10Z</time></trkpt><trkpt lat="40.107976280085694" lon="15.52878341027494"><ele>551.0</ele><time>2026-04-26T08:07:11Z</time></trkpt><trkpt lat="40.1080763458614" lon="15.52879228050587"><ele>550.3333333333334</ele><time>2026-04-26T08:07:12Z</time></trkpt><trkpt lat="40.108163374384084" lon="15.528791073797633"><ele>549.6666666666666</ele><time>2026-04-26T08:07:13Z</time></trkpt><trkpt lat="40.10824905334694" lon="15.528801630969749"><ele>549.0</ele><time>2026-04-26T08:07:14Z</time></trkpt><trkpt lat="40.10833150081952" lon="15.528836765522776"><ele>549.0</ele><time>2026-04-26T08:07:15Z</time></trkpt><trkpt lat="40.10843359658212" lon="15.528879273769768"><ele>549.0</ele><time>2026-04-26T08:07:16Z</time></trkpt><trkpt lat="40.108523879657234" lon="15.528905197892245"><ele>549.0</ele><time>2026-04-26T08:07:17Z</time></trkpt><trkpt lat="40.10861655465154" lon="15.528910030521175"><ele>549.0</ele><time>2026-04-26T08:07:18Z</time></trkpt><trkpt lat="40.108700090044074" lon="15.528908209498857"><ele>549.0</ele><time>2026-04-26T08:07:19Z</time></trkpt><trkpt lat="40.10877730329157" lon="15.528892676253765"><ele>549.0</ele><time>2026-04-26T08:07:20Z</time></trkpt><trkpt lat="40.10885907980347" lon="15.528888503380982"><ele>549.0</ele><time>2026-04-26T08:07:21Z</time></trkpt><trkpt lat="40.10893119864357" lon="15.52888498856769"><ele>549.0</ele><time>2026-04-26T08:07:22Z</time></trkpt><trkpt lat="40.109039144963695" lon="15.528774200791709"><ele>549.0</ele><time>2026-04-26T08:07:25Z</time></trkpt><trkpt lat="40.10911142623534" lon="15.528639348754908"><ele>549.0</ele><time>2026-04-26T08:07:26Z</time></trkpt><trkpt lat="40.10921056734549" lon="15.528471571698471"><ele>553.25</ele><time>2026-04-26T08:07:26.999Z</time></trkpt><trkpt lat="40.10932377117574" lon="15.528339723533534"><ele>557.5</ele><time>2026-04-26T08:07:27.999Z</time></trkpt><trkpt lat="40.109428686783424" lon="15.528251209517695"><ele>561.75</ele><time>2026-04-26T08:07:28.999Z</time></trkpt><trkpt lat="40.10951578824878" lon="15.528206520991647"><ele>566.0</ele><time>2026-04-26T08:07:29.999Z</time></trkpt><trkpt lat="40.10958972353194" lon="15.528098702289837"><ele>566.0</ele><time>2026-04-26T08:07:31.999Z</time></trkpt><trkpt lat="40.109533904678656" lon="15.527953485283115"><ele>566.0</ele><time>2026-04-26T08:07:33.999Z</time></trkpt><trkpt lat="40.109443692783934" lon="15.527889898831502"><ele>566.0</ele><time>2026-04-26T08:07:34.999Z</time></trkpt><trkpt lat="40.10933475925076" lon="15.527829946322289"><ele>566.0</ele><time>2026-04-26T08:07:35.999Z</time></trkpt><trkpt lat="40.10924727237088" lon="15.527780269649352"><ele>566.0</ele><time>2026-04-26T08:07:36.999Z</time></trkpt><trkpt lat="40.10918149634869" lon="15.527739830257165"><ele>566.8</ele><time>2026-04-26T08:07:37.999Z</time></trkpt><trkpt lat="40.109101366807096" lon="15.527654769290658"><ele>567.6</ele><time>2026-04-26T08:07:39.999Z</time></trkpt><trkpt lat="40.109039866373365" lon="15.527518796684877"><ele>568.4</ele><time>2026-04-26T08:07:43.999Z</time></trkpt><trkpt lat="40.108996304861584" lon="15.527397150176219"><ele>569.2</ele><time>2026-04-26T08:07:44.999Z</time></trkpt><trkpt lat="40.10895510137073" lon="15.52725298729623"><ele>570.0</ele><time>2026-04-26T08:07:45.999Z</time></trkpt><trkpt lat="40.1089130201688" lon="15.527107425644711"><ele>568.5714285714286</ele><time>2026-04-26T08:07:46.999Z</time></trkpt><trkpt lat="40.10887906612359" lon="15.52699121912425"><ele>567.1428571428571</ele><time>2026-04-26T08:07:47.999Z</time></trkpt><trkpt lat="40.10884624841187" lon="15.526908860393263"><ele>565.7142857142858</ele><time>2026-04-26T08:07:48.999Z</time></trkpt><trkpt lat="40.108811988418374" lon="15.526815927668418"><ele>564.2857142857142</ele><time>2026-04-26T08:07:49.999Z</time></trkpt><trkpt lat="40.10878392797421" lon="15.52673111712455"><ele>562.8571428571429</ele><time>2026-04-26T08:07:50.999Z</time></trkpt><trkpt lat="40.108763364631585" lon="15.526649591625887"><ele>561.4285714285714</ele><time>2026-04-26T08:07:51.999Z</time></trkpt><trkpt lat="40.10875986679799" lon="15.526561314309102"><ele>560.0</ele><time>2026-04-26T08:07:52.999Z</time></trkpt><trkpt lat="40.10878407692206" lon="15.526466213944483"><ele>560.0</ele><time>2026-04-26T08:07:53.999Z</time></trkpt><trkpt lat="40.10883830392067" lon="15.526362576121024"><ele>560.0</ele><time>2026-04-26T08:07:54.999Z</time></trkpt><trkpt lat="40.10890925664175" lon="15.526249449721835"><ele>560.0</ele><time>2026-04-26T08:07:55.999Z</time></trkpt><trkpt lat="40.108961953045316" lon="15.526119985756047"><ele>560.0</ele><time>2026-04-26T08:07:56.999Z</time></trkpt><trkpt lat="40.108999575945816" lon="15.525978713883186"><ele>560.0</ele><time>2026-04-26T08:07:57.999Z</time></trkpt><trkpt lat="40.10904157363707" lon="15.52583374964067"><ele>558.0</ele><time>2026-04-26T08:07:58.999Z</time></trkpt><trkpt lat="40.109086344792196" lon="15.52569539027036"><ele>556.0</ele><time>2026-04-26T08:07:59.999Z</time></trkpt><trkpt lat="40.10911569512349" lon="15.52555621714871"><ele>554.0</ele><time>2026-04-26T08:08:01Z</time></trkpt><trkpt lat="40.109145264456046" lon="15.525422846036165"><ele>552.0</ele><time>2026-04-26T08:08:02Z</time></trkpt><trkpt lat="40.109186909363736" lon="15.52530315503374"><ele>550.0</ele><time>2026-04-26T08:08:03Z</time></trkpt><trkpt lat="40.109234401699624" lon="15.52520400476989"><ele>547.8571428571429</ele><time>2026-04-26T08:08:04Z</time></trkpt><trkpt lat="40.10928638297312" lon="15.525131480070813"><ele>545.7142857142857</ele><time>2026-04-26T08:08:05Z</time></trkpt><trkpt lat="40.109342994895265" lon="15.52507665878665"><ele>543.5714285714286</ele><time>2026-04-26T08:08:06Z</time></trkpt><trkpt lat="40.10941130879606" lon="15.525040742543101"><ele>541.4285714285714</ele><time>2026-04-26T08:08:07Z</time></trkpt><trkpt lat="40.10947693098023" lon="15.52501308648754"><ele>539.2857142857143</ele><time>2026-04-26T08:08:08Z</time></trkpt><trkpt lat="40.109543616122096" lon="15.524993776796745"><ele>537.1428571428571</ele><time>2026-04-26T08:08:09Z</time></trkpt><trkpt lat="40.109612509705656" lon="15.524969131680688"><ele>535.0</ele><time>2026-04-26T08:08:10Z</time></trkpt><trkpt lat="40.10969183280784" lon="15.524951853335274"><ele>535.0</ele><time>2026-04-26T08:08:11Z</time></trkpt><trkpt lat="40.10977638144217" lon="15.524950307758807"><ele>535.0</ele><time>2026-04-26T08:08:12Z</time></trkpt><trkpt lat="40.109857556574475" lon="15.524975828327538"><ele>535.0</ele><time>2026-04-26T08:08:13Z</time></trkpt><trkpt lat="40.10993629058753" lon="15.525028873937774"><ele>535.0</ele><time>2026-04-26T08:08:14Z</time></trkpt><trkpt lat="40.11000492860195" lon="15.52510379869877"><ele>535.0</ele><time>2026-04-26T08:08:15Z</time></trkpt><trkpt lat="40.11007439978091" lon="15.52517685114232"><ele>535.0</ele><time>2026-04-26T08:08:16Z</time></trkpt><trkpt lat="40.110130886885294" lon="15.525228503255287"><ele>535.3333333333334</ele><time>2026-04-26T08:08:17Z</time></trkpt><trkpt lat="40.11021108983614" lon="15.52527620357634"><ele>535.6666666666667</ele><time>2026-04-26T08:08:19Z</time></trkpt><trkpt lat="40.11028578809547" lon="15.525269976794482"><ele>536.0</ele><time>2026-04-26T08:08:32Z</time></trkpt><trkpt lat="40.11037791889829" lon="15.52524853204731"><ele>536.3333333333334</ele><time>2026-04-26T08:08:34Z</time></trkpt><trkpt lat="40.11045318338137" lon="15.525214398439246"><ele>536.6666666666666</ele><time>2026-04-26T08:08:35Z</time></trkpt><trkpt lat="40.11054106232997" lon="15.525180044333078"><ele>537.0</ele><time>2026-04-26T08:08:36Z</time></trkpt><trkpt lat="40.11062671862775" lon="15.525156993716186"><ele>536.9999999999999</ele><time>2026-04-26T08:08:37Z</time></trkpt><trkpt lat="40.110704715909236" lon="15.525147058320716"><ele>537.0</ele><time>2026-04-26T08:08:38Z</time></trkpt><trkpt lat="40.11077137956764" lon="15.525135727083887"><ele>537.0</ele><time>2026-04-26T08:08:39Z</time></trkpt><trkpt lat="40.11082630624105" lon="15.525094106285534"><ele>537.0</ele><time>2026-04-26T08:08:40Z</time></trkpt><trkpt lat="40.11087647862159" lon="15.525041659148261"><ele>537.0</ele><time>2026-04-26T08:08:41Z</time></trkpt><trkpt lat="40.11092593593657" lon="15.524979655642014"><ele>536.9999999999999</ele><time>2026-04-26T08:08:42Z</time></trkpt><trkpt lat="40.110968722174555" lon="15.524916215125108"><ele>537.0</ele><time>2026-04-26T08:08:43Z</time></trkpt><trkpt lat="40.111006977854075" lon="15.524807750512958"><ele>533.4</ele><time>2026-04-26T08:08:45Z</time></trkpt><trkpt lat="40.11102449692966" lon="15.52471453655616"><ele>529.8000000000001</ele><time>2026-04-26T08:08:47Z</time></trkpt><trkpt lat="40.11102924783801" lon="15.52458256673632"><ele>526.2</ele><time>2026-04-26T08:08:50Z</time></trkpt><trkpt lat="40.11104258510513" lon="15.524429280605116"><ele>522.6</ele><time>2026-04-26T08:08:52Z</time></trkpt><trkpt lat="40.11105487708151" lon="15.524280456857054"><ele>519.0</ele><time>2026-04-26T08:08:54Z</time></trkpt><trkpt lat="40.11105712059641" lon="15.524137026051015"><ele>519.0</ele><time>2026-04-26T08:08:56Z</time></trkpt><trkpt lat="40.11106672089983" lon="15.524007415225617"><ele>519.0</ele><time>2026-04-26T08:08:58Z</time></trkpt><trkpt lat="40.111074114364214" lon="15.524099174576353"><ele>519.0</ele><time>2026-04-26T08:09:22Z</time></trkpt><trkpt lat="40.111077741618296" lon="15.524255837287127"><ele>519.0</ele><time>2026-04-26T08:09:22.999Z</time></trkpt><trkpt lat="40.11107087904299" lon="15.524398650169017"><ele>519.0</ele><time>2026-04-26T08:09:23.999Z</time></trkpt><trkpt lat="40.11101597513112" lon="15.52453533909732"><ele>518.8333333333334</ele><time>2026-04-26T08:09:24.999Z</time></trkpt><trkpt lat="40.111009758445185" lon="15.52466480299156"><ele>518.6666666666666</ele><time>2026-04-26T08:09:25.999Z</time></trkpt><trkpt lat="40.11099379219946" lon="15.524785116188827"><ele>518.5</ele><time>2026-04-26T08:09:26.999Z</time></trkpt><trkpt lat="40.110968825619835" lon="15.524882250955647"><ele>518.3333333333333</ele><time>2026-04-26T08:09:27.999Z</time></trkpt><trkpt lat="40.11092788112517" lon="15.524955454898532"><ele>518.1666666666666</ele><time>2026-04-26T08:09:28.999Z</time></trkpt><trkpt lat="40.110863117046065" lon="15.52503893816644"><ele>518.0</ele><time>2026-04-26T08:09:30.999Z</time></trkpt><trkpt lat="40.110772010770155" lon="15.525138358960808"><ele>521.1666666666666</ele><time>2026-04-26T08:09:33.999Z</time></trkpt><trkpt lat="40.11068240244123" lon="15.52516351917236"><ele>524.3333333333333</ele><time>2026-04-26T08:09:34.999Z</time></trkpt><trkpt lat="40.11059106203569" lon="15.525176923002828"><ele>527.5</ele><time>2026-04-26T08:09:35.999Z</time></trkpt><trkpt lat="40.110512184858294" lon="15.525200246153585"><ele>530.6666666666666</ele><time>2026-04-26T08:09:36.999Z</time></trkpt><trkpt lat="40.11044828907313" lon="15.525222799374477"><ele>533.8333333333334</ele><time>2026-04-26T08:09:37.999Z</time></trkpt><trkpt lat="40.11036485931253" lon="15.525265218175269"><ele>537.0</ele><time>2026-04-26T08:09:39.999Z</time></trkpt><trkpt lat="40.110417976396576" lon="15.525401657949258"><ele>539.0</ele><time>2026-04-26T08:09:45.999Z</time></trkpt><trkpt lat="40.11051557900934" lon="15.52551287238505"><ele>541.0</ele><time>2026-04-26T08:09:47.999Z</time></trkpt><trkpt lat="40.11057141959752" lon="15.525569265849274"><ele>543.0</ele><time>2026-04-26T08:09:48.999Z</time></trkpt><trkpt lat="40.110655108976964" lon="15.525675927600336"><ele>545.0</ele><time>2026-04-26T08:09:50.999Z</time></trkpt><trkpt lat="40.11072082853899" lon="15.52578568566738"><ele>547.0</ele><time>2026-04-26T08:09:52.999Z</time></trkpt><trkpt lat="40.110751823014816" lon="15.52586342045997"><ele>542.5</ele><time>2026-04-26T08:09:53.999Z</time></trkpt><trkpt lat="40.110777397779685" lon="15.525956621499544"><ele>538.0</ele><time>2026-04-26T08:09:54.999Z</time></trkpt><trkpt lat="40.11080303114186" lon="15.526039417977485"><ele>533.5</ele><time>2026-04-26T08:09:55.999Z</time></trkpt><trkpt lat="40.110840079697226" lon="15.526185915366957"><ele>529.0</ele><time>2026-04-26T08:09:57.999Z</time></trkpt><trkpt lat="40.110875369344235" lon="15.5262601771282"><ele>524.5</ele><time>2026-04-26T08:09:58.999Z</time></trkpt><trkpt lat="40.11091949634657" lon="15.526348906445406"><ele>520.0</ele><time>2026-04-26T08:10:00.999Z</time></trkpt><trkpt lat="40.110968505981624" lon="15.526450483611153"><ele>520.0</ele><time>2026-04-26T08:10:02.999Z</time></trkpt><trkpt lat="40.11103555042246" lon="15.526575242971132"><ele>520.0</ele><time>2026-04-26T08:10:04.999Z</time></trkpt><trkpt lat="40.11107604094902" lon="15.526703663737191"><ele>520.0</ele><time>2026-04-26T08:10:07Z</time></trkpt><trkpt lat="40.1110944626417" lon="15.526794223536312"><ele>520.0</ele><time>2026-04-26T08:10:09Z</time></trkpt><trkpt lat="40.1111365051618" lon="15.526903626460761"><ele>520.0</ele><time>2026-04-26T08:10:12Z</time></trkpt><trkpt lat="40.11113214562882" lon="15.526992286260624"><ele>519.6666666666667</ele><time>2026-04-26T08:10:14Z</time></trkpt><trkpt lat="40.11112437122738" lon="15.527093341832021"><ele>519.3333333333334</ele><time>2026-04-26T08:10:16Z</time></trkpt><trkpt lat="40.11111898683066" lon="15.527216646560898"><ele>519.0</ele><time>2026-04-26T08:10:18Z</time></trkpt><trkpt lat="40.11106165846538" lon="15.527306438302789"><ele>518.6666666666666</ele><time>2026-04-26T08:10:20Z</time></trkpt><trkpt lat="40.11105975524892" lon="15.527395820247428"><ele>518.3333333333333</ele><time>2026-04-26T08:10:22Z</time></trkpt><trkpt lat="40.11111403090759" lon="15.527475857156567"><ele>518.0</ele><time>2026-04-26T08:10:25Z</time></trkpt><trkpt lat="40.111149907252475" lon="15.527636962535562"><ele>518.0</ele><time>2026-04-26T08:10:26Z</time></trkpt><trkpt lat="40.11118754801427" lon="15.527728147438543"><ele>518.0</ele><time>2026-04-26T08:10:28Z</time></trkpt><trkpt lat="40.11121937732466" lon="15.527816068111226"><ele>518.0</ele><time>2026-04-26T08:10:30Z</time></trkpt><trkpt lat="40.11125166440104" lon="15.527911421821885"><ele>518.0</ele><time>2026-04-26T08:10:32Z</time></trkpt><trkpt lat="40.11128172916572" lon="15.527996867878693"><ele>518.0</ele><time>2026-04-26T08:10:34Z</time></trkpt><trkpt lat="40.1113005013741" lon="15.528141319859353"><ele>518.0</ele><time>2026-04-26T08:10:36Z</time></trkpt><trkpt lat="40.11134595227894" lon="15.528238609422704"><ele>518.8333333333333</ele><time>2026-04-26T08:10:38Z</time></trkpt><trkpt lat="40.11137202321782" lon="15.528325874064619"><ele>519.6666666666666</ele><time>2026-04-26T08:10:41Z</time></trkpt><trkpt lat="40.11136562250353" lon="15.528429761394474"><ele>520.5</ele><time>2026-04-26T08:10:45Z</time></trkpt><trkpt lat="40.11137480640558" lon="15.528523644251687"><ele>521.3333333333334</ele><time>2026-04-26T08:10:49Z</time></trkpt><trkpt lat="40.1114071748884" lon="15.528640963323747"><ele>522.1666666666667</ele><time>2026-04-26T08:10:52Z</time></trkpt><trkpt lat="40.11145536249921" lon="15.528707350745174"><ele>523.0</ele><time>2026-04-26T08:10:54Z</time></trkpt><trkpt lat="40.111496824658296" lon="15.528791688147429"><ele>523.0</ele><time>2026-04-26T08:10:59Z</time></trkpt><trkpt lat="40.11155441466959" lon="15.528868829126612"><ele>523.0</ele><time>2026-04-26T08:11:02Z</time></trkpt><trkpt lat="40.11160913112289" lon="15.528923413969565"><ele>523.0</ele><time>2026-04-26T08:11:05Z</time></trkpt><trkpt lat="40.11165471444486" lon="15.528983293867693"><ele>523.0</ele><time>2026-04-26T08:11:08Z</time></trkpt><trkpt lat="40.1116935236112" lon="15.529083831289132"><ele>523.0</ele><time>2026-04-26T08:11:14Z</time></trkpt><trkpt lat="40.111718991003976" lon="15.529197146708706"><ele>523.0</ele><time>2026-04-26T08:11:18Z</time></trkpt><trkpt lat="40.11176621404808" lon="15.529276698593671"><ele>517.3333333333334</ele><time>2026-04-26T08:11:21Z</time></trkpt><trkpt lat="40.111825757577456" lon="15.529333557229059"><ele>511.6666666666667</ele><time>2026-04-26T08:11:24Z</time></trkpt><trkpt lat="40.11188386353727" lon="15.529368939582403"><ele>506.0</ele><time>2026-04-26T08:11:26.999Z</time></trkpt><trkpt lat="40.1119607283784" lon="15.529358189014793"><ele>500.33333333333337</ele><time>2026-04-26T08:11:30.999Z</time></trkpt><trkpt lat="40.11201440568915" lon="15.529409310507734"><ele>494.6666666666667</ele><time>2026-04-26T08:11:34.999Z</time></trkpt><trkpt lat="40.11201349475215" lon="15.52952921032898"><ele>489.0</ele><time>2026-04-26T08:11:36.999Z</time></trkpt><trkpt lat="40.112040591742584" lon="15.529658585963322"><ele>489.0</ele><time>2026-04-26T08:11:38.999Z</time></trkpt><trkpt lat="40.11206859046612" lon="15.529766651550482"><ele>489.0</ele><time>2026-04-26T08:11:40.999Z</time></trkpt><trkpt lat="40.11211341660623" lon="15.529846722866255"><ele>489.0</ele><time>2026-04-26T08:12:04.999Z</time></trkpt><trkpt lat="40.11215918605235" lon="15.529976939889911"><ele>489.0</ele><time>2026-04-26T08:12:07.999Z</time></trkpt><trkpt lat="40.11216714640824" lon="15.530084710610204"><ele>489.0</ele><time>2026-04-26T08:12:08.999Z</time></trkpt><trkpt lat="40.112170644584154" lon="15.530189038451638"><ele>489.0</ele><time>2026-04-26T08:12:09.999Z</time></trkpt><trkpt lat="40.11218521661468" lon="15.530277999190432"><ele>489.4</ele><time>2026-04-26T08:12:10.999Z</time></trkpt><trkpt lat="40.11219430905981" lon="15.530418753040244"><ele>489.79999999999995</ele><time>2026-04-26T08:12:13Z</time></trkpt><trkpt lat="40.11221120364538" lon="15.53057867291376"><ele>490.20000000000005</ele><time>2026-04-26T08:12:15Z</time></trkpt><trkpt lat="40.11221771956376" lon="15.530662158826622"><ele>490.6</ele><time>2026-04-26T08:12:16Z</time></trkpt><trkpt lat="40.112170497808854" lon="15.530829149026394"><ele>491.0</ele><time>2026-04-26T08:12:18Z</time></trkpt><trkpt lat="40.112109636486494" lon="15.530936671101264"><ele>491.0</ele><time>2026-04-26T08:12:19Z</time></trkpt><trkpt lat="40.11206610716036" lon="15.531031991348359"><ele>491.0</ele><time>2026-04-26T08:12:20Z</time></trkpt><trkpt lat="40.11204204309473" lon="15.531137917510883"><ele>491.0</ele><time>2026-04-26T08:12:21Z</time></trkpt><trkpt lat="40.112032676780075" lon="15.531235742699119"><ele>491.0</ele><time>2026-04-26T08:12:22Z</time></trkpt><trkpt lat="40.11204736089614" lon="15.53139916481287"><ele>491.0</ele><time>2026-04-26T08:12:24Z</time></trkpt><trkpt lat="40.11202183955331" lon="15.531507003089686"><ele>492.6</ele><time>2026-04-26T08:12:25Z</time></trkpt><trkpt lat="40.11204542946574" lon="15.531647429110683"><ele>494.20000000000005</ele><time>2026-04-26T08:12:27Z</time></trkpt><trkpt lat="40.112080802515806" lon="15.531789454341913"><ele>495.79999999999995</ele><time>2026-04-26T08:12:29Z</time></trkpt><trkpt lat="40.11207173601622" lon="15.531871467286573"><ele>497.4</ele><time>2026-04-26T08:12:30Z</time></trkpt><trkpt lat="40.11200788162628" lon="15.531977727629842"><ele>499.0</ele><time>2026-04-26T08:12:32Z</time></trkpt><trkpt lat="40.11204589158643" lon="15.532089849081597"><ele>501.79999999999995</ele><time>2026-04-26T08:12:34Z</time></trkpt><trkpt lat="40.112140580977396" lon="15.532168541924937"><ele>504.59999999999997</ele><time>2026-04-26T08:12:37Z</time></trkpt><trkpt lat="40.112236255793476" lon="15.532309126391079"><ele>507.4</ele><time>2026-04-26T08:12:38Z</time></trkpt><trkpt lat="40.11228595204974" lon="15.53238916554244"><ele>510.2</ele><time>2026-04-26T08:12:39Z</time></trkpt><trkpt lat="40.11233686045095" lon="15.532494151397474"><ele>513.0</ele><time>2026-04-26T08:12:40Z</time></trkpt><trkpt lat="40.112383560663716" lon="15.53259620224003"><ele>510.5</ele><time>2026-04-26T08:12:41Z</time></trkpt><trkpt lat="40.11242616007299" lon="15.53268848680391"><ele>508.0</ele><time>2026-04-26T08:12:42Z</time></trkpt><trkpt lat="40.112472487770816" lon="15.532777856639846"><ele>505.5</ele><time>2026-04-26T08:12:43Z</time></trkpt><trkpt lat="40.11251579677502" lon="15.532845830204403"><ele>503.0</ele><time>2026-04-26T08:12:44Z</time></trkpt><trkpt lat="40.11255341978677" lon="15.53297964227513"><ele>500.5</ele><time>2026-04-26T08:12:46Z</time></trkpt><trkpt lat="40.112551516283155" lon="15.53307873865672"><ele>498.0</ele><time>2026-04-26T08:12:47Z</time></trkpt><trkpt lat="40.11255009739868" lon="15.533203144371889"><ele>498.0</ele><time>2026-04-26T08:12:48Z</time></trkpt><trkpt lat="40.112572676775876" lon="15.533338222105916"><ele>497.99999999999994</ele><time>2026-04-26T08:12:49Z</time></trkpt><trkpt lat="40.112594434812614" lon="15.533477710969501"><ele>497.99999999999994</ele><time>2026-04-26T08:12:50Z</time></trkpt><trkpt lat="40.11261287938391" lon="15.533614106263343"><ele>498.0</ele><time>2026-04-26T08:12:51Z</time></trkpt><trkpt lat="40.11263569551682" lon="15.533754540180528"><ele>498.0</ele><time>2026-04-26T08:12:52Z</time></trkpt><trkpt lat="40.11266584805632" lon="15.533854354208247"><ele>499.4</ele><time>2026-04-26T08:12:53Z</time></trkpt><trkpt lat="40.11266851488317" lon="15.534006466188984"><ele>500.79999999999995</ele><time>2026-04-26T08:12:55Z</time></trkpt><trkpt lat="40.11264756710231" lon="15.534095774513005"><ele>502.2</ele><time>2026-04-26T08:12:56Z</time></trkpt><trkpt lat="40.11261342014855" lon="15.534207213787615"><ele>503.6</ele><time>2026-04-26T08:12:57Z</time></trkpt><trkpt lat="40.112512393275246" lon="15.53435402951651"><ele>505.0</ele><time>2026-04-26T08:12:58Z</time></trkpt><trkpt lat="40.11246112218408" lon="15.534424704460621"><ele>509.0</ele><time>2026-04-26T08:12:59Z</time></trkpt><trkpt lat="40.11238622319955" lon="15.53445983712723"><ele>513.0</ele><time>2026-04-26T08:13:00Z</time></trkpt><trkpt lat="40.11228114072975" lon="15.534504968173403"><ele>517.0</ele><time>2026-04-26T08:13:01Z</time></trkpt><trkpt lat="40.11214256019117" lon="15.534572436789205"><ele>521.0</ele><time>2026-04-26T08:13:02Z</time></trkpt><trkpt lat="40.11203343097901" lon="15.53461672817052"><ele>521.0</ele><time>2026-04-26T08:13:03Z</time></trkpt><trkpt lat="40.11196367186326" lon="15.5346451792433"><ele>521.0</ele><time>2026-04-26T08:13:04Z</time></trkpt><trkpt lat="40.111849200966475" lon="15.534680618007425"><ele>521.0</ele><time>2026-04-26T08:13:06Z</time></trkpt><trkpt lat="40.111837320005485" lon="15.534827511521915"><ele>521.0</ele><time>2026-04-26T08:13:09Z</time></trkpt><trkpt lat="40.11191112979565" lon="15.534960967412053"><ele>521.0</ele><time>2026-04-26T08:13:11Z</time></trkpt><trkpt lat="40.11192038633031" lon="15.535059749077325"><ele>521.0</ele><time>2026-04-26T08:13:12Z</time></trkpt><trkpt lat="40.1119144298019" lon="15.535147967778444"><ele>521.0</ele><time>2026-04-26T08:13:13Z</time></trkpt><trkpt lat="40.11183914720112" lon="15.535292996715249"><ele>521.0</ele><time>2026-04-26T08:13:15Z</time></trkpt><trkpt lat="40.11175405087598" lon="15.535385416915917"><ele>521.0</ele><time>2026-04-26T08:13:16Z</time></trkpt><trkpt lat="40.11166799107914" lon="15.535484816127793"><ele>521.0</ele><time>2026-04-26T08:13:17Z</time></trkpt><trkpt lat="40.11159811579356" lon="15.53556117756271"><ele>523.4</ele><time>2026-04-26T08:13:18Z</time></trkpt><trkpt lat="40.11150366777193" lon="15.535619225681708"><ele>525.8</ele><time>2026-04-26T08:13:19Z</time></trkpt><trkpt lat="40.111421583390396" lon="15.535667082396074"><ele>528.1999999999999</ele><time>2026-04-26T08:13:20Z</time></trkpt><trkpt lat="40.111340860917224" lon="15.535719091058349"><ele>530.6</ele><time>2026-04-26T08:13:21Z</time></trkpt><trkpt lat="40.11124075797796" lon="15.535740803579417"><ele>533.0</ele><time>2026-04-26T08:13:22Z</time></trkpt><trkpt lat="40.111156141835984" lon="15.535753486481354"><ele>533.0</ele><time>2026-04-26T08:13:23Z</time></trkpt><trkpt lat="40.111063719653934" lon="15.535819559955891"><ele>533.0</ele><time>2026-04-26T08:13:25Z</time></trkpt><trkpt lat="40.11101999936046" lon="15.535999242159841"><ele>533.0</ele><time>2026-04-26T08:13:27Z</time></trkpt><trkpt lat="40.111004558950945" lon="15.536116677152867"><ele>533.0</ele><time>2026-04-26T08:13:28Z</time></trkpt><trkpt lat="40.11097695900758" lon="15.536199966421195"><ele>533.0</ele><time>2026-04-26T08:13:29Z</time></trkpt><trkpt lat="40.11090867659194" lon="15.536302970988984"><ele>533.4</ele><time>2026-04-26T08:13:30.999Z</time></trkpt><trkpt lat="40.11094688867033" lon="15.53638646760383"><ele>533.8</ele><time>2026-04-26T08:13:32.999Z</time></trkpt><trkpt lat="40.111071841444414" lon="15.536379850474194"><ele>534.2</ele><time>2026-04-26T08:13:34.999Z</time></trkpt><trkpt lat="40.11116323044599" lon="15.536368952693747"><ele>534.6</ele><time>2026-04-26T08:13:35.999Z</time></trkpt><trkpt lat="40.11126949110249" lon="15.5363621451618"><ele>535.0</ele><time>2026-04-26T08:13:36.999Z</time></trkpt><trkpt lat="40.11135638128696" lon="15.536373391903588"><ele>535.0</ele><time>2026-04-26T08:13:37.999Z</time></trkpt><trkpt lat="40.111449602689284" lon="15.536398450676877"><ele>535.0</ele><time>2026-04-26T08:13:38.999Z</time></trkpt><trkpt lat="40.11154793570428" lon="15.536428685419475"><ele>535.0</ele><time>2026-04-26T08:13:39.999Z</time></trkpt><trkpt lat="40.111618918339936" lon="15.536451527029927"><ele>535.0</ele><time>2026-04-26T08:13:40.999Z</time></trkpt><trkpt lat="40.1116756531946" lon="15.536499349854322"><ele>535.0</ele><time>2026-04-26T08:13:41.999Z</time></trkpt><trkpt lat="40.11173582162631" lon="15.536552983796282"><ele>535.0</ele><time>2026-04-26T08:13:42.999Z</time></trkpt><trkpt lat="40.11178299911126" lon="15.536624292606929"><ele>533.8</ele><time>2026-04-26T08:13:43.999Z</time></trkpt><trkpt lat="40.1118189933814" lon="15.536731117430723"><ele>532.6</ele><time>2026-04-26T08:13:44.999Z</time></trkpt><trkpt lat="40.11186246242556" lon="15.536848738977055"><ele>531.4</ele><time>2026-04-26T08:13:45.999Z</time></trkpt><trkpt lat="40.11190743596639" lon="15.536964115688356"><ele>530.2</ele><time>2026-04-26T08:13:46.999Z</time></trkpt><trkpt lat="40.111940092881554" lon="15.53707483686998"><ele>529.0</ele><time>2026-04-26T08:13:47.999Z</time></trkpt><trkpt lat="40.11195059473145" lon="15.537184042443924"><ele>533.5</ele><time>2026-04-26T08:13:48.999Z</time></trkpt><trkpt lat="40.111952879331305" lon="15.537319344314662"><ele>538.0</ele><time>2026-04-26T08:13:49.999Z</time></trkpt><trkpt lat="40.11196336662167" lon="15.537464087941316"><ele>542.5</ele><time>2026-04-26T08:13:50.999Z</time></trkpt><trkpt lat="40.11198505159725" lon="15.537635954828392"><ele>547.0</ele><time>2026-04-26T08:13:51.999Z</time></trkpt><trkpt lat="40.11200316834165" lon="15.537802354107509"><ele>546.3333333333334</ele><time>2026-04-26T08:13:52.999Z</time></trkpt><trkpt lat="40.11201797240634" lon="15.537922979788975"><ele>545.6666666666667</ele><time>2026-04-26T08:13:53.999Z</time></trkpt><trkpt lat="40.1120348227014" lon="15.538057801619036"><ele>545.0</ele><time>2026-04-26T08:13:55.999Z</time></trkpt><trkpt lat="40.11205715159043" lon="15.538147536658784"><ele>544.3333333333334</ele><time>2026-04-26T08:13:57.999Z</time></trkpt><trkpt lat="40.1121006211928" lon="15.53822726132879"><ele>543.6666666666666</ele><time>2026-04-26T08:13:59.999Z</time></trkpt><trkpt lat="40.1121752354014" lon="15.53831554212456"><ele>543.0</ele><time>2026-04-26T08:14:01.999Z</time></trkpt><trkpt lat="40.11225815352662" lon="15.538406659708746"><ele>543.0</ele><time>2026-04-26T08:14:03.999Z</time></trkpt><trkpt lat="40.112334655364066" lon="15.538541995391137"><ele>543.0</ele><time>2026-04-26T08:14:05.999Z</time></trkpt><trkpt lat="40.112368994995315" lon="15.538632828718582"><ele>543.0</ele><time>2026-04-26T08:14:06.999Z</time></trkpt><trkpt lat="40.11237741336127" lon="15.53872940341649"><ele>543.0</ele><time>2026-04-26T08:14:07.999Z</time></trkpt><trkpt lat="40.112368837234776" lon="15.538865976740327"><ele>543.0</ele><time>2026-04-26T08:14:09.999Z</time></trkpt><trkpt lat="40.1123746469054" lon="15.539018195238372"><ele>542.8333333333334</ele><time>2026-04-26T08:14:11.999Z</time></trkpt><trkpt lat="40.11240135428482" lon="15.539105977248006"><ele>542.6666666666666</ele><time>2026-04-26T08:14:14.999Z</time></trkpt><trkpt lat="40.11246277967262" lon="15.539254484470959"><ele>542.5</ele><time>2026-04-26T08:14:16.999Z</time></trkpt><trkpt lat="40.112496070080844" lon="15.539341565259528"><ele>542.3333333333333</ele><time>2026-04-26T08:14:18Z</time></trkpt><trkpt lat="40.112527666610816" lon="15.539431033077443"><ele>542.1666666666666</ele><time>2026-04-26T08:14:19Z</time></trkpt><trkpt lat="40.112574056768615" lon="15.539524270731325"><ele>542.0</ele><time>2026-04-26T08:14:20Z</time></trkpt><trkpt lat="40.11263496380662" lon="15.539598873075429"><ele>539.8333333333333</ele><time>2026-04-26T08:14:21Z</time></trkpt><trkpt lat="40.11268621661127" lon="15.53965612956563"><ele>537.6666666666666</ele><time>2026-04-26T08:14:22Z</time></trkpt><trkpt lat="40.11273803336561" lon="15.539789187142276"><ele>535.5</ele><time>2026-04-26T08:14:24Z</time></trkpt><trkpt lat="40.11276601121724" lon="15.539863355186567"><ele>533.3333333333334</ele><time>2026-04-26T08:14:25Z</time></trkpt><trkpt lat="40.112839151810356" lon="15.539986536523328"><ele>531.1666666666667</ele><time>2026-04-26T08:14:27Z</time></trkpt><trkpt lat="40.11289942901703" lon="15.540041958875356"><ele>529.0</ele><time>2026-04-26T08:14:28Z</time></trkpt><trkpt lat="40.11296916739997" lon="15.540096696709519"><ele>529.0</ele><time>2026-04-26T08:14:29Z</time></trkpt><trkpt lat="40.11304101015186" lon="15.540160135619564"><ele>529.0</ele><time>2026-04-26T08:14:30Z</time></trkpt><trkpt lat="40.113115617558805" lon="15.540244206270934"><ele>529.0</ele><time>2026-04-26T08:14:31Z</time></trkpt><trkpt lat="40.11319630899097" lon="15.540348983540811"><ele>529.0</ele><time>2026-04-26T08:14:32Z</time></trkpt><trkpt lat="40.11328022372614" lon="15.540467417015245"><ele>529.0</ele><time>2026-04-26T08:14:33Z</time></trkpt><trkpt lat="40.11335523657637" lon="15.540588408301485"><ele>528.4</ele><time>2026-04-26T08:14:34Z</time></trkpt><trkpt lat="40.113423526797206" lon="15.540700133176914"><ele>527.8</ele><time>2026-04-26T08:14:35Z</time></trkpt><trkpt lat="40.11347517598344" lon="15.540815324971687"><ele>527.2</ele><time>2026-04-26T08:14:36Z</time></trkpt><trkpt lat="40.11351483828449" lon="15.540943251108521"><ele>526.6</ele><time>2026-04-26T08:14:37Z</time></trkpt><trkpt lat="40.11353132123005" lon="15.541097572523428"><ele>526.0</ele><time>2026-04-26T08:14:38Z</time></trkpt><trkpt lat="40.113535010166" lon="15.541256914144075"><ele>525.5</ele><time>2026-04-26T08:14:39Z</time></trkpt><trkpt lat="40.11353625730664" lon="15.541392587183985"><ele>525.0</ele><time>2026-04-26T08:14:40Z</time></trkpt><trkpt lat="40.11353486021478" lon="15.541533779023032"><ele>524.5</ele><time>2026-04-26T08:14:41Z</time></trkpt><trkpt lat="40.11353166079101" lon="15.541693486887423"><ele>524.0</ele><time>2026-04-26T08:14:42Z</time></trkpt><trkpt lat="40.11352535366248" lon="15.541887672415365"><ele>523.75</ele><time>2026-04-26T08:14:43Z</time></trkpt><trkpt lat="40.11351975205922" lon="15.54207151536933"><ele>523.5</ele><time>2026-04-26T08:14:44Z</time></trkpt><trkpt lat="40.113522558740854" lon="15.542236777180502"><ele>523.25</ele><time>2026-04-26T08:14:45Z</time></trkpt><trkpt lat="40.113520520942515" lon="15.542404001196541"><ele>523.0</ele><time>2026-04-26T08:14:46Z</time></trkpt><trkpt lat="40.11348696370415" lon="15.542565807763973"><ele>523.0</ele><time>2026-04-26T08:14:47Z</time></trkpt><trkpt lat="40.11343426131164" lon="15.542714694669948"><ele>523.0</ele><time>2026-04-26T08:14:48Z</time></trkpt><trkpt lat="40.113373476709945" lon="15.542840364355985"><ele>523.0</ele><time>2026-04-26T08:14:49Z</time></trkpt><trkpt lat="40.11330494963643" lon="15.542957672614964"><ele>523.0</ele><time>2026-04-26T08:14:50Z</time></trkpt><trkpt lat="40.11322058286395" lon="15.543051924188621"><ele>518.75</ele><time>2026-04-26T08:14:51Z</time></trkpt><trkpt lat="40.11311164919405" lon="15.543131746559089"><ele>514.5</ele><time>2026-04-26T08:14:52Z</time></trkpt><trkpt lat="40.11301605905986" lon="15.543214213610138"><ele>510.25</ele><time>2026-04-26T08:14:53Z</time></trkpt><trkpt lat="40.11291795603955" lon="15.543317803788446"><ele>506.0</ele><time>2026-04-26T08:14:54Z</time></trkpt><trkpt lat="40.11282755397353" lon="15.543425419250038"><ele>506.0</ele><time>2026-04-26T08:14:55Z</time></trkpt><trkpt lat="40.11274561517208" lon="15.543542566622309"><ele>506.0</ele><time>2026-04-26T08:14:56Z</time></trkpt><trkpt lat="40.112668299587874" lon="15.543666672936398"><ele>506.0</ele><time>2026-04-26T08:14:57Z</time></trkpt><trkpt lat="40.112586480733746" lon="15.543785928701457"><ele>506.0</ele><time>2026-04-26T08:14:58Z</time></trkpt><trkpt lat="40.11248892627956" lon="15.543902549691373"><ele>502.0</ele><time>2026-04-26T08:14:59Z</time></trkpt><trkpt lat="40.112366511072146" lon="15.544023464830142"><ele>498.0</ele><time>2026-04-26T08:15:00Z</time></trkpt><trkpt lat="40.11225182433224" lon="15.544146856119342"><ele>494.0</ele><time>2026-04-26T08:15:01Z</time></trkpt><trkpt lat="40.11214256646824" lon="15.54427075845049"><ele>490.0</ele><time>2026-04-26T08:15:02Z</time></trkpt><trkpt lat="40.112030556930506" lon="15.54439501555007"><ele>490.0</ele><time>2026-04-26T08:15:03Z</time></trkpt><trkpt lat="40.11192811657988" lon="15.544502373861368"><ele>490.0</ele><time>2026-04-26T08:15:04Z</time></trkpt><trkpt lat="40.11184815844565" lon="15.544591185681305"><ele>490.0</ele><time>2026-04-26T08:15:05Z</time></trkpt><trkpt lat="40.11178012733945" lon="15.54467464065644"><ele>490.0</ele><time>2026-04-26T08:15:06Z</time></trkpt><trkpt lat="40.111717339552264" lon="15.544775541774627"><ele>490.0</ele><time>2026-04-26T08:15:07Z</time></trkpt><trkpt lat="40.111664979560196" lon="15.544909829657929"><ele>490.4</ele><time>2026-04-26T08:15:08Z</time></trkpt><trkpt lat="40.11167210051946" lon="15.54506363342294"><ele>490.8</ele><time>2026-04-26T08:15:09Z</time></trkpt><trkpt lat="40.11165017703821" lon="15.545182521807195"><ele>491.20000000000005</ele><time>2026-04-26T08:15:10Z</time></trkpt><trkpt lat="40.11162083873511" lon="15.545266190661943"><ele>491.6</ele><time>2026-04-26T08:15:11Z</time></trkpt><trkpt lat="40.11157401643753" lon="15.545342010029742"><ele>492.0</ele><time>2026-04-26T08:15:13Z</time></trkpt><trkpt lat="40.11152043551993" lon="15.545586798403342"><ele>492.0</ele><time>2026-04-26T08:15:26Z</time></trkpt><trkpt lat="40.11172984666502" lon="15.545265072361174"><ele>492.0</ele><time>2026-04-26T08:15:27Z</time></trkpt><trkpt lat="40.111796982826064" lon="15.545119154657478"><ele>492.0</ele><time>2026-04-26T08:15:29Z</time></trkpt><trkpt lat="40.11173163012874" lon="15.54492795380596"><ele>492.0</ele><time>2026-04-26T08:15:31Z</time></trkpt><trkpt lat="40.11178452264793" lon="15.544757632269318"><ele>492.0</ele><time>2026-04-26T08:15:32Z</time></trkpt><trkpt lat="40.11184998586674" lon="15.544665662778694"><ele>492.0</ele><time>2026-04-26T08:15:33Z</time></trkpt><trkpt lat="40.111914607819195" lon="15.54459022235435"><ele>492.0</ele><time>2026-04-26T08:15:35Z</time></trkpt><trkpt lat="40.11211774466888" lon="15.544852041140137"><ele>492.0</ele><time>2026-04-26T08:15:36.999Z</time></trkpt><trkpt lat="40.112189622757384" lon="15.544893143186721"><ele>492.0</ele><time>2026-04-26T08:15:39.999Z</time></trkpt><trkpt lat="40.11225717517557" lon="15.544918611559964"><ele>492.0</ele><time>2026-04-26T08:15:46.999Z</time></trkpt><trkpt lat="40.1121941346857" lon="15.54491755216537"><ele>492.0</ele><time>2026-04-26T08:16:22.999Z</time></trkpt><trkpt lat="40.112118252534536" lon="15.544887311163816"><ele>492.0</ele><time>2026-04-26T08:16:24Z</time></trkpt><trkpt lat="40.11205354299925" lon="15.544866110092498"><ele>492.0</ele><time>2026-04-26T08:16:25Z</time></trkpt><trkpt lat="40.11199719598324" lon="15.544826579236863"><ele>492.0</ele><time>2026-04-26T08:16:26Z</time></trkpt><trkpt lat="40.11191874042267" lon="15.544903491482755"><ele>492.0</ele><time>2026-04-26T08:16:28Z</time></trkpt><trkpt lat="40.11184167016101" lon="15.54502881762706"><ele>492.0</ele><time>2026-04-26T08:16:30Z</time></trkpt><trkpt lat="40.11179299850259" lon="15.54510146218369"><ele>492.0</ele><time>2026-04-26T08:16:31Z</time></trkpt><trkpt lat="40.111747104997264" lon="15.545169960413974"><ele>492.0</ele><time>2026-04-26T08:16:32Z</time></trkpt><trkpt lat="40.11166726745049" lon="15.545235986298152"><ele>492.0</ele><time>2026-04-26T08:16:33Z</time></trkpt><trkpt lat="40.11160990608426" lon="15.545332785847537"><ele>492.0</ele><time>2026-04-26T08:16:35Z</time></trkpt><trkpt lat="40.111550327045094" lon="15.545368631188856"><ele>492.0</ele><time>2026-04-26T08:16:38Z</time></trkpt><trkpt lat="40.11148075633998" lon="15.545400100884097"><ele>492.0</ele><time>2026-04-26T08:16:41Z</time></trkpt><trkpt lat="40.1114126233358" lon="15.545415836697087"><ele>491.20000000000005</ele><time>2026-04-26T08:16:47Z</time></trkpt><trkpt lat="40.111453184925" lon="15.545559676906029"><ele>490.40000000000003</ele><time>2026-04-26T08:16:49Z</time></trkpt><trkpt lat="40.111545094870124" lon="15.545665171994429"><ele>489.59999999999997</ele><time>2026-04-26T08:16:51Z</time></trkpt><trkpt lat="40.11161057700734" lon="15.545769414334545"><ele>488.79999999999995</ele><time>2026-04-26T08:16:53Z</time></trkpt><trkpt lat="40.111653640072554" lon="15.54588485227249"><ele>488.0</ele><time>2026-04-26T08:16:55Z</time></trkpt><trkpt lat="40.11172185344038" lon="15.545935305310268"><ele>487.4</ele><time>2026-04-26T08:16:57Z</time></trkpt><trkpt lat="40.11180247549225" lon="15.545912140986713"><ele>486.79999999999995</ele><time>2026-04-26T08:16:59Z</time></trkpt><trkpt lat="40.111831268434976" lon="15.545793711709393"><ele>486.2</ele><time>2026-04-26T08:17:01Z</time></trkpt><trkpt lat="40.11191738109178" lon="15.54576023997458"><ele>485.6</ele><time>2026-04-26T08:17:04Z</time></trkpt><trkpt lat="40.11201492015561" lon="15.545795012101618"><ele>485.0</ele><time>2026-04-26T08:17:06Z</time></trkpt><trkpt lat="40.11212041959494" lon="15.545817457628868"><ele>485.0</ele><time>2026-04-26T08:17:08Z</time></trkpt><trkpt lat="40.1122111271905" lon="15.545870193363239"><ele>485.0</ele><time>2026-04-26T08:17:10Z</time></trkpt><trkpt lat="40.11228826749881" lon="15.545965144441226"><ele>485.0</ele><time>2026-04-26T08:17:12Z</time></trkpt><trkpt lat="40.11237475159823" lon="15.546047695814151"><ele>485.0</ele><time>2026-04-26T08:17:14Z</time></trkpt><trkpt lat="40.11245572933699" lon="15.54614788011668"><ele>485.0</ele><time>2026-04-26T08:17:16Z</time></trkpt><trkpt lat="40.112527025360876" lon="15.546251088712678"><ele>478.0</ele><time>2026-04-26T08:17:18Z</time></trkpt><trkpt lat="40.11260458018103" lon="15.546347196551618"><ele>471.0</ele><time>2026-04-26T08:17:20Z</time></trkpt><trkpt lat="40.11265697340173" lon="15.546396297889707"><ele>464.0</ele><time>2026-04-26T08:17:21Z</time></trkpt><trkpt lat="40.11272983091071" lon="15.546506408595183"><ele>457.0</ele><time>2026-04-26T08:17:23Z</time></trkpt><trkpt lat="40.11275252155743" lon="15.546635961039696"><ele>450.0</ele><time>2026-04-26T08:17:25Z</time></trkpt><trkpt lat="40.11277031545346" lon="15.546777090872503"><ele>450.0</ele><time>2026-04-26T08:17:27Z</time></trkpt><trkpt lat="40.11278441377526" lon="15.546870420363778"><ele>450.0</ele><time>2026-04-26T08:17:29Z</time></trkpt><trkpt lat="40.11279612773991" lon="15.546954302923343"><ele>450.0</ele><time>2026-04-26T08:17:32Z</time></trkpt><trkpt lat="40.11281447106584" lon="15.547048641198414"><ele>450.0</ele><time>2026-04-26T08:17:54.999Z</time></trkpt><trkpt lat="40.11282837998534" lon="15.547149489443212"><ele>450.0</ele><time>2026-04-26T08:17:57.999Z</time></trkpt><trkpt lat="40.1128156021834" lon="15.547242813838004"><ele>450.0</ele><time>2026-04-26T08:17:59.999Z</time></trkpt><trkpt lat="40.112803256820705" lon="15.547356753552613"><ele>446.4</ele><time>2026-04-26T08:18:01.999Z</time></trkpt><trkpt lat="40.11277290426963" lon="15.54749089176443"><ele>442.8</ele><time>2026-04-26T08:18:03.999Z</time></trkpt><trkpt lat="40.11277161283279" lon="15.547612970794637"><ele>439.20000000000005</ele><time>2026-04-26T08:18:05.999Z</time></trkpt><trkpt lat="40.1127939863983" lon="15.547734804403044"><ele>435.6</ele><time>2026-04-26T08:18:07.999Z</time></trkpt><trkpt lat="40.11285019663086" lon="15.547829139674771"><ele>432.0</ele><time>2026-04-26T08:18:09.999Z</time></trkpt><trkpt lat="40.11290513715359" lon="15.547948570444317"><ele>428.40000000000003</ele><time>2026-04-26T08:18:11.999Z</time></trkpt><trkpt lat="40.11294370259793" lon="15.548074658247952"><ele>424.80000000000007</ele><time>2026-04-26T08:18:13.999Z</time></trkpt><trkpt lat="40.11297473097752" lon="15.548213776477002"><ele>421.2</ele><time>2026-04-26T08:18:15.999Z</time></trkpt><trkpt lat="40.113012151468354" lon="15.548323511997573"><ele>417.6</ele><time>2026-04-26T08:18:17.999Z</time></trkpt><trkpt lat="40.1130535899825" lon="15.548424059609175"><ele>414.0</ele><time>2026-04-26T08:18:19.999Z</time></trkpt><trkpt lat="40.11307622611277" lon="15.54855188591528"><ele>414.0</ele><time>2026-04-26T08:18:22.999Z</time></trkpt><trkpt lat="40.11313229514609" lon="15.548665894849805"><ele>414.0</ele><time>2026-04-26T08:18:24.999Z</time></trkpt><trkpt lat="40.113200819697575" lon="15.548753074728426"><ele>414.0</ele><time>2026-04-26T08:18:26.999Z</time></trkpt><trkpt lat="40.11327752125983" lon="15.548836580702753"><ele>414.0</ele><time>2026-04-26T08:18:29Z</time></trkpt><trkpt lat="40.1133526370354" lon="15.548905331779237"><ele>414.0</ele><time>2026-04-26T08:18:31Z</time></trkpt><trkpt lat="40.11344678505772" lon="15.54892798719941"><ele>413.0</ele><time>2026-04-26T08:18:33Z</time></trkpt><trkpt lat="40.11351762767675" lon="15.548900047103247"><ele>412.0</ele><time>2026-04-26T08:18:36Z</time></trkpt><trkpt lat="40.11359185039986" lon="15.548883790600787"><ele>411.0</ele><time>2026-04-26T08:18:39Z</time></trkpt><trkpt lat="40.11367660548105" lon="15.548893295190311"><ele>410.0</ele><time>2026-04-26T08:18:41Z</time></trkpt><trkpt lat="40.11375472551212" lon="15.548930021086015"><ele>409.0</ele><time>2026-04-26T08:18:42Z</time></trkpt><trkpt lat="40.11382467431905" lon="15.548950653444296"><ele>408.0</ele><time>2026-04-26T08:18:43Z</time></trkpt><trkpt lat="40.1139132745921" lon="15.54898645711219"><ele>408.0</ele><time>2026-04-26T08:18:45Z</time></trkpt><trkpt lat="40.113982386668894" lon="15.549022494830284"><ele>408.0</ele><time>2026-04-26T08:18:47Z</time></trkpt><trkpt lat="40.114055044503836" lon="15.549063434567259"><ele>408.0</ele><time>2026-04-26T08:18:50Z</time></trkpt><trkpt lat="40.11412040977209" lon="15.549114962914773"><ele>408.0</ele><time>2026-04-26T08:18:53Z</time></trkpt><trkpt lat="40.11419153710168" lon="15.54914266633835"><ele>408.0</ele><time>2026-04-26T08:18:56Z</time></trkpt><trkpt lat="40.114260834903" lon="15.549152679567907"><ele>408.0</ele><time>2026-04-26T08:18:58Z</time></trkpt><trkpt lat="40.11432672103941" lon="15.549184873829105"><ele>408.0</ele><time>2026-04-26T08:19:00Z</time></trkpt><trkpt lat="40.11440003369854" lon="15.549218300534072"><ele>407.2</ele><time>2026-04-26T08:19:02Z</time></trkpt><trkpt lat="40.11448888678865" lon="15.549263902845775"><ele>406.4</ele><time>2026-04-26T08:19:05Z</time></trkpt><trkpt lat="40.11456876683611" lon="15.54932452762633"><ele>405.59999999999997</ele><time>2026-04-26T08:19:08Z</time></trkpt><trkpt lat="40.1147108622398" lon="15.549369525235539"><ele>404.79999999999995</ele><time>2026-04-26T08:19:11Z</time></trkpt><trkpt lat="40.11478014279896" lon="15.54939466843149"><ele>404.0</ele><time>2026-04-26T08:19:12Z</time></trkpt><trkpt lat="40.11494645071168" lon="15.549508403399715"><ele>402.79999999999995</ele><time>2026-04-26T08:19:13Z</time></trkpt><trkpt lat="40.11501687414553" lon="15.549533955303596"><ele>401.59999999999997</ele><time>2026-04-26T08:19:14Z</time></trkpt><trkpt lat="40.11508348010467" lon="15.549562233109915"><ele>400.4</ele><time>2026-04-26T08:19:15Z</time></trkpt><trkpt lat="40.115189120355836" lon="15.549624974236098"><ele>399.2</ele><time>2026-04-26T08:19:17Z</time></trkpt><trkpt lat="40.11527343682251" lon="15.549693630932419"><ele>398.0</ele><time>2026-04-26T08:19:19Z</time></trkpt><trkpt lat="40.11537142014518" lon="15.549774874833968"><ele>392.0</ele><time>2026-04-26T08:19:21Z</time></trkpt><trkpt lat="40.11548094411878" lon="15.549857205376826"><ele>386.0</ele><time>2026-04-26T08:19:23Z</time></trkpt><trkpt lat="40.11558742734619" lon="15.549898089561001"><ele>380.0</ele><time>2026-04-26T08:19:25Z</time></trkpt><trkpt lat="40.11569111341829" lon="15.54989876142392"><ele>374.0</ele><time>2026-04-26T08:19:27Z</time></trkpt><trkpt lat="40.115756944385325" lon="15.549905543446789"><ele>368.0</ele><time>2026-04-26T08:19:29Z</time></trkpt><trkpt lat="40.11583136476921" lon="15.549904541151118"><ele>367.83333333333337</ele><time>2026-04-26T08:19:32Z</time></trkpt><trkpt lat="40.11589386017461" lon="15.549891628684865"><ele>367.6666666666667</ele><time>2026-04-26T08:19:36Z</time></trkpt><trkpt lat="40.1159871002156" lon="15.549883080561766"><ele>367.5</ele><time>2026-04-26T08:19:39Z</time></trkpt><trkpt lat="40.11608235241846" lon="15.549870762300923"><ele>367.3333333333333</ele><time>2026-04-26T08:19:41Z</time></trkpt><trkpt lat="40.11616195876587" lon="15.549850105597164"><ele>367.16666666666663</ele><time>2026-04-26T08:19:43Z</time></trkpt><trkpt lat="40.11623561770957" lon="15.549875961621112"><ele>367.0</ele><time>2026-04-26T08:19:46Z</time></trkpt><trkpt lat="40.116235139083244" lon="15.549980640356932"><ele>367.0</ele><time>2026-04-26T08:19:48Z</time></trkpt><trkpt lat="40.11620050901258" lon="15.550082049500006"><ele>367.0</ele><time>2026-04-26T08:19:49.999Z</time></trkpt><trkpt lat="40.11616301830717" lon="15.550166623157889"><ele>367.0</ele><time>2026-04-26T08:19:51.999Z</time></trkpt><trkpt lat="40.11615721952314" lon="15.550268806204132"><ele>367.0</ele><time>2026-04-26T08:19:55.999Z</time></trkpt><trkpt lat="40.11623655853111" lon="15.55029245909228"><ele>367.0</ele><time>2026-04-26T08:19:58.999Z</time></trkpt><trkpt lat="40.11630955730793" lon="15.550289155625581"><ele>367.0</ele><time>2026-04-26T08:20:02.999Z</time></trkpt><trkpt lat="40.11634527145799" lon="15.550360922760506"><ele>362.16666666666663</ele><time>2026-04-26T08:20:08.999Z</time></trkpt><trkpt lat="40.11628985939902" lon="15.55040675806796"><ele>357.3333333333333</ele><time>2026-04-26T08:20:11.999Z</time></trkpt><trkpt lat="40.11623379891959" lon="15.550447737304735"><ele>352.5</ele><time>2026-04-26T08:20:13.999Z</time></trkpt><trkpt lat="40.1161642316912" lon="15.5505177472855"><ele>347.6666666666667</ele><time>2026-04-26T08:20:15.999Z</time></trkpt><trkpt lat="40.11608400473508" lon="15.550613918352354"><ele>342.83333333333337</ele><time>2026-04-26T08:20:17.999Z</time></trkpt><trkpt lat="40.11603604444727" lon="15.550700641860951"><ele>338.0</ele><time>2026-04-26T08:20:19.999Z</time></trkpt><trkpt lat="40.11599138904537" lon="15.550815085468784"><ele>338.0</ele><time>2026-04-26T08:20:21.999Z</time></trkpt><trkpt lat="40.11592853750497" lon="15.550938321098416"><ele>338.0</ele><time>2026-04-26T08:20:23.999Z</time></trkpt><trkpt lat="40.115861803034065" lon="15.55105913226226"><ele>338.0</ele><time>2026-04-26T08:20:25.999Z</time></trkpt><trkpt lat="40.11581946932702" lon="15.551156391236749"><ele>338.0</ele><time>2026-04-26T08:20:27.999Z</time></trkpt><trkpt lat="40.11576293433104" lon="15.55126714170499"><ele>338.0</ele><time>2026-04-26T08:20:29.999Z</time></trkpt><trkpt lat="40.11566323227342" lon="15.55137224211406"><ele>333.2</ele><time>2026-04-26T08:20:31.999Z</time></trkpt><trkpt lat="40.115599079209716" lon="15.551402594422175"><ele>328.4</ele><time>2026-04-26T08:20:32.999Z</time></trkpt><trkpt lat="40.11553869690593" lon="15.551426520903611"><ele>323.59999999999997</ele><time>2026-04-26T08:20:33.999Z</time></trkpt><trkpt lat="40.11541946053902" lon="15.551446880190687"><ele>318.79999999999995</ele><time>2026-04-26T08:20:36Z</time></trkpt><trkpt lat="40.1153107450681" lon="15.55143846879334"><ele>314.0</ele><time>2026-04-26T08:20:38Z</time></trkpt><trkpt lat="40.11520714662198" lon="15.551393042066278"><ele>314.0</ele><time>2026-04-26T08:20:40Z</time></trkpt><trkpt lat="40.11512131905001" lon="15.551348745054227"><ele>314.0</ele><time>2026-04-26T08:20:42Z</time></trkpt><trkpt lat="40.11503868283773" lon="15.551296445323816"><ele>314.0</ele><time>2026-04-26T08:20:44Z</time></trkpt><trkpt lat="40.11497477512202" lon="15.55135641525624"><ele>314.0</ele><time>2026-04-26T08:20:47Z</time></trkpt><trkpt lat="40.11503011836803" lon="15.55148678440328"><ele>314.0</ele><time>2026-04-26T08:20:49Z</time></trkpt><trkpt lat="40.115073185424386" lon="15.551572300117739"><ele>314.0</ele><time>2026-04-26T08:20:50Z</time></trkpt><trkpt lat="40.11511439420229" lon="15.551652067169634"><ele>314.0</ele><time>2026-04-26T08:20:51Z</time></trkpt><trkpt lat="40.11515753159917" lon="15.551776488916563"><ele>314.0</ele><time>2026-04-26T08:20:53Z</time></trkpt><trkpt lat="40.1152081468776" lon="15.55187339528437"><ele>314.0</ele><time>2026-04-26T08:20:55Z</time></trkpt><trkpt lat="40.11525900745706" lon="15.551929205493485"><ele>314.0</ele><time>2026-04-26T08:20:57Z</time></trkpt><trkpt lat="40.11526214424047" lon="15.552014071669522"><ele>314.0</ele><time>2026-04-26T08:21:00Z</time></trkpt><trkpt lat="40.11517571958596" lon="15.552041283900863"><ele>314.0</ele><time>2026-04-26T08:21:03Z</time></trkpt><trkpt lat="40.1150771629461" lon="15.551950129499808"><ele>314.0</ele><time>2026-04-26T08:21:05Z</time></trkpt><trkpt lat="40.115013234899735" lon="15.551854617659549"><ele>314.0</ele><time>2026-04-26T08:21:06Z</time></trkpt><trkpt lat="40.11496259742102" lon="15.551793119179417"><ele>314.0</ele><time>2026-04-26T08:21:07Z</time></trkpt><trkpt lat="40.114907029289114" lon="15.55175075375173"><ele>314.0</ele><time>2026-04-26T08:21:08Z</time></trkpt><trkpt lat="40.1148348406724" lon="15.55172230283096"><ele>314.0</ele><time>2026-04-26T08:21:09Z</time></trkpt><trkpt lat="40.114762141933646" lon="15.551699775925426"><ele>317.0</ele><time>2026-04-26T08:21:10Z</time></trkpt><trkpt lat="40.11470066640116" lon="15.551678302132542"><ele>320.0</ele><time>2026-04-26T08:21:11Z</time></trkpt><trkpt lat="40.114626467887526" lon="15.551702189156753"><ele>323.0</ele><time>2026-04-26T08:21:13Z</time></trkpt><trkpt lat="40.11460644952596" lon="15.551794583513841"><ele>326.0</ele><time>2026-04-26T08:21:15Z</time></trkpt><trkpt lat="40.1147056766601" lon="15.551879068595744"><ele>329.0</ele><time>2026-04-26T08:21:18Z</time></trkpt><trkpt lat="40.11476216747843" lon="15.551940411900459"><ele>332.0</ele><time>2026-04-26T08:21:19Z</time></trkpt><trkpt lat="40.114805866755226" lon="15.552017602297822"><ele>334.6</ele><time>2026-04-26T08:21:20Z</time></trkpt><trkpt lat="40.11484503525156" lon="15.55210746523553"><ele>337.20000000000005</ele><time>2026-04-26T08:21:21Z</time></trkpt><trkpt lat="40.114881635234724" lon="15.552214079266045"><ele>339.8</ele><time>2026-04-26T08:21:22Z</time></trkpt><trkpt lat="40.11491449673335" lon="15.552327026108957"><ele>342.4</ele><time>2026-04-26T08:21:23Z</time></trkpt><trkpt lat="40.11493144665831" lon="15.552467101514535"><ele>345.0</ele><time>2026-04-26T08:21:24Z</time></trkpt><trkpt lat="40.11490563282864" lon="15.552601007738074"><ele>338.4</ele><time>2026-04-26T08:21:25Z</time></trkpt><trkpt lat="40.11493128064486" lon="15.552711146728319"><ele>331.8</ele><time>2026-04-26T08:21:26Z</time></trkpt><trkpt lat="40.11499699359205" lon="15.552822484582544"><ele>325.2</ele><time>2026-04-26T08:21:27Z</time></trkpt><trkpt lat="40.11506127284217" lon="15.55294934880906"><ele>318.6</ele><time>2026-04-26T08:21:28Z</time></trkpt><trkpt lat="40.11511320707756" lon="15.553072862822305"><ele>312.0</ele><time>2026-04-26T08:21:29Z</time></trkpt><trkpt lat="40.115113004256195" lon="15.553183456852294"><ele>312.0</ele><time>2026-04-26T08:21:30Z</time></trkpt><trkpt lat="40.115118521430915" lon="15.55326606237637"><ele>312.0</ele><time>2026-04-26T08:21:31Z</time></trkpt><trkpt lat="40.11512184210807" lon="15.55338779771389"><ele>312.0</ele><time>2026-04-26T08:21:33Z</time></trkpt><trkpt lat="40.115072903676776" lon="15.553472984445747"><ele>312.0</ele><time>2026-04-26T08:21:34Z</time></trkpt><trkpt lat="40.11500880733901" lon="15.55357172481987"><ele>312.0</ele><time>2026-04-26T08:21:35Z</time></trkpt><trkpt lat="40.11495671069167" lon="15.553685553005687"><ele>312.0</ele><time>2026-04-26T08:21:36Z</time></trkpt><trkpt lat="40.11492771710784" lon="15.553781231453971"><ele>310.6666666666667</ele><time>2026-04-26T08:21:37Z</time></trkpt><trkpt lat="40.11492103403565" lon="15.553893078227551"><ele>309.3333333333333</ele><time>2026-04-26T08:21:38Z</time></trkpt><trkpt lat="40.114910680575946" lon="15.553994999807966"><ele>308.0</ele><time>2026-04-26T08:21:39Z</time></trkpt><trkpt lat="40.114894913656016" lon="15.554078226236873"><ele>306.66666666666663</ele><time>2026-04-26T08:21:40Z</time></trkpt><trkpt lat="40.114851942721494" lon="15.554187833414401"><ele>305.3333333333333</ele><time>2026-04-26T08:21:42Z</time></trkpt><trkpt lat="40.11481628241422" lon="15.55427535186044"><ele>304.0</ele><time>2026-04-26T08:21:45Z</time></trkpt><trkpt lat="40.11477688276722" lon="15.55435466279005"><ele>306.4</ele><time>2026-04-26T08:21:48Z</time></trkpt><trkpt lat="40.11477979043234" lon="15.55448739211326"><ele>308.79999999999995</ele><time>2026-04-26T08:21:50.999Z</time></trkpt><trkpt lat="40.11472061734662" lon="15.554586254875353"><ele>311.20000000000005</ele><time>2026-04-26T08:21:52.999Z</time></trkpt><trkpt lat="40.11468518306505" lon="15.554708952791323"><ele>313.6</ele><time>2026-04-26T08:21:54.999Z</time></trkpt><trkpt lat="40.11469558369217" lon="15.554852076402076"><ele>316.0</ele><time>2026-04-26T08:21:56.999Z</time></trkpt><trkpt lat="40.1146871940838" lon="15.55493543731425"><ele>316.0</ele><time>2026-04-26T08:21:57.999Z</time></trkpt><trkpt lat="40.11467101654399" lon="15.555056973709661"><ele>316.0</ele><time>2026-04-26T08:21:59.999Z</time></trkpt><trkpt lat="40.11463691997341" lon="15.555187489208826"><ele>316.0</ele><time>2026-04-26T08:22:01.999Z</time></trkpt><trkpt lat="40.11463753966631" lon="15.555273634622809"><ele>316.0</ele><time>2026-04-26T08:22:02.999Z</time></trkpt><trkpt lat="40.114664728804904" lon="15.555366416032467"><ele>316.0</ele><time>2026-04-26T08:22:03.999Z</time></trkpt><trkpt lat="40.11470639506692" lon="15.555465209143394"><ele>316.0</ele><time>2026-04-26T08:22:04.999Z</time></trkpt><trkpt lat="40.11474803256565" lon="15.55561711561581"><ele>316.40000000000003</ele><time>2026-04-26T08:22:05.999Z</time></trkpt><trkpt lat="40.11478333938529" lon="15.555778879403663"><ele>316.8</ele><time>2026-04-26T08:22:06.999Z</time></trkpt><trkpt lat="40.114815086981494" lon="15.555906907691424"><ele>317.20000000000005</ele><time>2026-04-26T08:22:07.999Z</time></trkpt><trkpt lat="40.114847916159306" lon="15.556019675143904"><ele>317.6</ele><time>2026-04-26T08:22:08.999Z</time></trkpt><trkpt lat="40.11489197638577" lon="15.556122334678566"><ele>318.0</ele><time>2026-04-26T08:22:09.999Z</time></trkpt><trkpt lat="40.114938801358974" lon="15.556226430984015"><ele>314.2</ele><time>2026-04-26T08:22:10.999Z</time></trkpt><trkpt lat="40.11499420550504" lon="15.556361249783258"><ele>310.4</ele><time>2026-04-26T08:22:11.999Z</time></trkpt><trkpt lat="40.11508033294736" lon="15.55647802595167"><ele>306.59999999999997</ele><time>2026-04-26T08:22:12.999Z</time></trkpt><trkpt lat="40.1151554780748" lon="15.5565879459583"><ele>302.8</ele><time>2026-04-26T08:22:13.999Z</time></trkpt><trkpt lat="40.115200339112796" lon="15.556682738510126"><ele>299.0</ele><time>2026-04-26T08:22:14.999Z</time></trkpt><trkpt lat="40.11525157346391" lon="15.556798337447905"><ele>299.0</ele><time>2026-04-26T08:22:15.999Z</time></trkpt><trkpt lat="40.1152973187589" lon="15.556908617429391"><ele>299.0</ele><time>2026-04-26T08:22:16.999Z</time></trkpt><trkpt lat="40.11532210510475" lon="15.556992721052087"><ele>299.0</ele><time>2026-04-26T08:22:17.999Z</time></trkpt><trkpt lat="40.115346619074785" lon="15.557095282756515"><ele>299.0</ele><time>2026-04-26T08:22:19.999Z</time></trkpt><trkpt lat="40.115267706698994" lon="15.557249162868994"><ele>299.0</ele><time>2026-04-26T08:22:21.999Z</time></trkpt><trkpt lat="40.11518108412966" lon="15.557361673771155"><ele>298.2</ele><time>2026-04-26T08:22:22.999Z</time></trkpt><trkpt lat="40.11513744735385" lon="15.557494153400663"><ele>297.4</ele><time>2026-04-26T08:22:23.999Z</time></trkpt><trkpt lat="40.115076944621805" lon="15.557573126273034"><ele>296.6</ele><time>2026-04-26T08:22:24.999Z</time></trkpt><trkpt lat="40.11500729539604" lon="15.557666968462355"><ele>295.8</ele><time>2026-04-26T08:22:26.999Z</time></trkpt><trkpt lat="40.11494112760241" lon="15.5576761802454"><ele>295.0</ele><time>2026-04-26T08:22:27.999Z</time></trkpt><trkpt lat="40.114851888939555" lon="15.55768087341116"><ele>293.66666666666663</ele><time>2026-04-26T08:22:28.999Z</time></trkpt><trkpt lat="40.114768367276724" lon="15.557669009984524"><ele>292.3333333333333</ele><time>2026-04-26T08:22:29.999Z</time></trkpt><trkpt lat="40.11470665773358" lon="15.557697167014707"><ele>291.0</ele><time>2026-04-26T08:22:30.999Z</time></trkpt><trkpt lat="40.11462716059499" lon="15.55773821708804"><ele>289.6666666666667</ele><time>2026-04-26T08:22:31.999Z</time></trkpt><trkpt lat="40.114547628455604" lon="15.557807320282178"><ele>288.33333333333337</ele><time>2026-04-26T08:22:32.999Z</time></trkpt><trkpt lat="40.1144800563931" lon="15.557880800689565"><ele>287.0</ele><time>2026-04-26T08:22:33.999Z</time></trkpt><trkpt lat="40.11442071344122" lon="15.557985908973082"><ele>287.0</ele><time>2026-04-26T08:22:34.999Z</time></trkpt><trkpt lat="40.1143781799835" lon="15.558092937642064"><ele>287.0</ele><time>2026-04-26T08:22:35.999Z</time></trkpt><trkpt lat="40.114339931152124" lon="15.558175879276586"><ele>287.0</ele><time>2026-04-26T08:22:36.999Z</time></trkpt><trkpt lat="40.114246553982234" lon="15.558248760561709"><ele>287.0</ele><time>2026-04-26T08:22:38.999Z</time></trkpt><trkpt lat="40.11416877716233" lon="15.558272290191072"><ele>287.0</ele><time>2026-04-26T08:22:39.999Z</time></trkpt><trkpt lat="40.11408294710022" lon="15.558290194910933"><ele>287.0</ele><time>2026-04-26T08:22:41Z</time></trkpt><trkpt lat="40.11401477139803" lon="15.558297130163712"><ele>285.5</ele><time>2026-04-26T08:22:42Z</time></trkpt><trkpt lat="40.11388894378374" lon="15.55825603749191"><ele>284.0</ele><time>2026-04-26T08:22:44Z</time></trkpt><trkpt lat="40.113785050727614" lon="15.558255268649956"><ele>282.5</ele><time>2026-04-26T08:22:46Z</time></trkpt><trkpt lat="40.11368474732723" lon="15.55825487755925"><ele>281.0</ele><time>2026-04-26T08:22:48Z</time></trkpt><trkpt lat="40.11355637177022" lon="15.558310545111198"><ele>281.0</ele><time>2026-04-26T08:22:50Z</time></trkpt><trkpt lat="40.11348066627845" lon="15.558365980302693"><ele>281.0</ele><time>2026-04-26T08:22:51Z</time></trkpt><trkpt lat="40.11340851256328" lon="15.558403106193808"><ele>281.0</ele><time>2026-04-26T08:22:52Z</time></trkpt><trkpt lat="40.113320501921585" lon="15.558452761533177"><ele>281.0</ele><time>2026-04-26T08:22:54Z</time></trkpt><trkpt lat="40.11324083269247" lon="15.558485810332193"><ele>281.0</ele><time>2026-04-26T08:22:56Z</time></trkpt><trkpt lat="40.1131473991784" lon="15.55847415663261"><ele>281.0</ele><time>2026-04-26T08:22:58Z</time></trkpt><trkpt lat="40.11301713290375" lon="15.558424627099898"><ele>281.33333333333337</ele><time>2026-04-26T08:23:00Z</time></trkpt><trkpt lat="40.112927257579585" lon="15.558399071125987"><ele>281.6666666666667</ele><time>2026-04-26T08:23:01Z</time></trkpt><trkpt lat="40.11284617655604" lon="15.558417528030775"><ele>282.0</ele><time>2026-04-26T08:23:02Z</time></trkpt><trkpt lat="40.11277127729013" lon="15.558451557619746"><ele>282.3333333333333</ele><time>2026-04-26T08:23:03Z</time></trkpt><trkpt lat="40.11270163872085" lon="15.558504244830798"><ele>282.66666666666663</ele><time>2026-04-26T08:23:04Z</time></trkpt><trkpt lat="40.11263487068339" lon="15.558573776857463"><ele>283.0</ele><time>2026-04-26T08:23:05Z</time></trkpt><trkpt lat="40.11257594398249" lon="15.558648162757896"><ele>283.3333333333333</ele><time>2026-04-26T08:23:06Z</time></trkpt><trkpt lat="40.112531193272744" lon="15.558711432196764"><ele>283.66666666666663</ele><time>2026-04-26T08:23:07Z</time></trkpt><trkpt lat="40.112500349074736" lon="15.55883473854749"><ele>284.0</ele><time>2026-04-26T08:23:10Z</time></trkpt><trkpt lat="40.112540576117766" lon="15.558987537809426"><ele>284.3333333333333</ele><time>2026-04-26T08:23:12Z</time></trkpt><trkpt lat="40.11256653020797" lon="15.559078115991351"><ele>284.6666666666667</ele><time>2026-04-26T08:23:13Z</time></trkpt><trkpt lat="40.112594315318226" lon="15.559176791288046"><ele>285.0</ele><time>2026-04-26T08:23:14Z</time></trkpt><trkpt lat="40.11261730875288" lon="15.559272530474887"><ele>285.0</ele><time>2026-04-26T08:23:15Z</time></trkpt><trkpt lat="40.11263685772101" lon="15.559357638244816"><ele>285.0</ele><time>2026-04-26T08:23:16Z</time></trkpt><trkpt lat="40.112654147921496" lon="15.559456802298932"><ele>285.0</ele><time>2026-04-26T08:23:18Z</time></trkpt><trkpt lat="40.112590165001855" lon="15.559552035604796"><ele>285.0</ele><time>2026-04-26T08:24:20.999Z</time></trkpt><trkpt lat="40.112536906655485" lon="15.559492016919842"><ele>285.0</ele><time>2026-04-26T08:24:22.999Z</time></trkpt><trkpt lat="40.11248317345963" lon="15.559364744368349"><ele>285.0</ele><time>2026-04-26T08:24:24.999Z</time></trkpt><trkpt lat="40.11240038322014" lon="15.559315657659253"><ele>288.4</ele><time>2026-04-26T08:24:26.999Z</time></trkpt><trkpt lat="40.11234384563617" lon="15.559360557278573"><ele>291.8</ele><time>2026-04-26T08:24:28.999Z</time></trkpt><trkpt lat="40.112325909965065" lon="15.55945682832262"><ele>295.2</ele><time>2026-04-26T08:24:30.999Z</time></trkpt><trkpt lat="40.11238215874085" lon="15.559600142121207"><ele>298.6</ele><time>2026-04-26T08:24:32.999Z</time></trkpt><trkpt lat="40.1124413622213" lon="15.559700732903044"><ele>302.0</ele><time>2026-04-26T08:24:33.999Z</time></trkpt><trkpt lat="40.11251813224508" lon="15.559776993149335"><ele>302.2</ele><time>2026-04-26T08:24:34.999Z</time></trkpt><trkpt lat="40.112594983077614" lon="15.559851591984492"><ele>302.4</ele><time>2026-04-26T08:24:35.999Z</time></trkpt><trkpt lat="40.11266668272688" lon="15.559942977159661"><ele>302.6</ele><time>2026-04-26T08:24:36.999Z</time></trkpt><trkpt lat="40.11273751358196" lon="15.560025704338916"><ele>302.8</ele><time>2026-04-26T08:24:37.999Z</time></trkpt><trkpt lat="40.1128280518074" lon="15.560136553541907"><ele>303.0</ele><time>2026-04-26T08:24:39.999Z</time></trkpt><trkpt lat="40.11289180018688" lon="15.560247281978056"><ele>303.8</ele><time>2026-04-26T08:24:40.999Z</time></trkpt><trkpt lat="40.11299308990117" lon="15.560374806817286"><ele>304.6</ele><time>2026-04-26T08:24:41.999Z</time></trkpt><trkpt lat="40.11308187391197" lon="15.560467499703035"><ele>305.4</ele><time>2026-04-26T08:24:42.999Z</time></trkpt><trkpt lat="40.11316364131773" lon="15.560547787677747"><ele>306.2</ele><time>2026-04-26T08:24:43.999Z</time></trkpt><trkpt lat="40.113231850908434" lon="15.56060765818458"><ele>307.0</ele><time>2026-04-26T08:24:44.999Z</time></trkpt><trkpt lat="40.11329333006757" lon="15.56066137064707"><ele>307.0</ele><time>2026-04-26T08:24:46Z</time></trkpt><trkpt lat="40.1133284323495" lon="15.560769016369226"><ele>307.0</ele><time>2026-04-26T08:24:49Z</time></trkpt><trkpt lat="40.1133110725528" lon="15.56085502738734"><ele>307.0</ele><time>2026-04-26T08:24:51Z</time></trkpt><trkpt lat="40.11321445861463" lon="15.56103441026952"><ele>307.0</ele><time>2026-04-26T08:24:54Z</time></trkpt><trkpt lat="40.11316296443033" lon="15.561114913570938"><ele>307.0</ele><time>2026-04-26T08:24:55Z</time></trkpt><trkpt lat="40.11308324464537" lon="15.561235998448169"><ele>309.2</ele><time>2026-04-26T08:24:56Z</time></trkpt><trkpt lat="40.113001286452615" lon="15.561386918219924"><ele>311.4</ele><time>2026-04-26T08:24:57Z</time></trkpt><trkpt lat="40.11296501196001" lon="15.561509317637784"><ele>313.6</ele><time>2026-04-26T08:24:58Z</time></trkpt><trkpt lat="40.112937737636976" lon="15.561624261107662"><ele>315.8</ele><time>2026-04-26T08:24:59Z</time></trkpt><trkpt lat="40.11288290675681" lon="15.561702679882705"><ele>318.0</ele><time>2026-04-26T08:25:01Z</time></trkpt><trkpt lat="40.11295753403766" lon="15.56185455871478"><ele>318.0</ele><time>2026-04-26T08:25:02Z</time></trkpt><trkpt lat="40.11298992109942" lon="15.56194412913329"><ele>318.0</ele><time>2026-04-26T08:25:03Z</time></trkpt><trkpt lat="40.11304292045556" lon="15.562038769607138"><ele>318.0</ele><time>2026-04-26T08:25:04Z</time></trkpt><trkpt lat="40.11309498705523" lon="15.562132263471502"><ele>318.0</ele><time>2026-04-26T08:25:05Z</time></trkpt><trkpt lat="40.1131394954118" lon="15.562238730518429"><ele>318.0</ele><time>2026-04-26T08:25:06Z</time></trkpt><trkpt lat="40.11318676159869" lon="15.562352708218214"><ele>318.0</ele><time>2026-04-26T08:25:07Z</time></trkpt><trkpt lat="40.11323418346687" lon="15.562465221584576"><ele>318.2</ele><time>2026-04-26T08:25:08Z</time></trkpt><trkpt lat="40.113272200262365" lon="15.562582421067615"><ele>318.4</ele><time>2026-04-26T08:25:09Z</time></trkpt><trkpt lat="40.113294211468435" lon="15.562710320711485"><ele>318.59999999999997</ele><time>2026-04-26T08:25:10Z</time></trkpt><trkpt lat="40.113299282651504" lon="15.562845972565457"><ele>318.8</ele><time>2026-04-26T08:25:11Z</time></trkpt><trkpt lat="40.11329432346731" lon="15.562999196677188"><ele>319.0</ele><time>2026-04-26T08:25:12Z</time></trkpt><trkpt lat="40.11326067850075" lon="15.563185685648318"><ele>318.0</ele><time>2026-04-26T08:25:13Z</time></trkpt><trkpt lat="40.11325367684056" lon="15.563338373439565"><ele>317.0</ele><time>2026-04-26T08:25:14Z</time></trkpt><trkpt lat="40.11324761186939" lon="15.563494643691707"><ele>316.0</ele><time>2026-04-26T08:25:15Z</time></trkpt><trkpt lat="40.113242188915635" lon="15.563658567962541"><ele>315.0</ele><time>2026-04-26T08:25:16Z</time></trkpt><trkpt lat="40.113237796947146" lon="15.563811399742292"><ele>312.8</ele><time>2026-04-26T08:25:17Z</time></trkpt><trkpt lat="40.113227806696244" lon="15.56395279664798"><ele>310.6</ele><time>2026-04-26T08:25:18Z</time></trkpt><trkpt lat="40.113203952843854" lon="15.564089262224364"><ele>308.4</ele><time>2026-04-26T08:25:19Z</time></trkpt><trkpt lat="40.113172440735305" lon="15.564237910334809"><ele>306.2</ele><time>2026-04-26T08:25:20Z</time></trkpt><trkpt lat="40.11315232209655" lon="15.564378217331667"><ele>304.0</ele><time>2026-04-26T08:25:21Z</time></trkpt><trkpt lat="40.113142723577496" lon="15.564515916168581"><ele>303.4</ele><time>2026-04-26T08:25:22Z</time></trkpt><trkpt lat="40.11314063229829" lon="15.564648147987093"><ele>302.79999999999995</ele><time>2026-04-26T08:25:23Z</time></trkpt><trkpt lat="40.11314952780401" lon="15.564779078539345"><ele>302.20000000000005</ele><time>2026-04-26T08:25:24Z</time></trkpt><trkpt lat="40.11316767629274" lon="15.564903205529397"><ele>301.6</ele><time>2026-04-26T08:25:25Z</time></trkpt><trkpt lat="40.11318538560754" lon="15.56501064180023"><ele>301.0</ele><time>2026-04-26T08:25:26Z</time></trkpt><trkpt lat="40.11319016086969" lon="15.565127644165038"><ele>301.0</ele><time>2026-04-26T08:25:27Z</time></trkpt><trkpt lat="40.11317071902542" lon="15.565259973965041"><ele>301.0</ele><time>2026-04-26T08:25:28Z</time></trkpt><trkpt lat="40.11311828297015" lon="15.565410272620943"><ele>301.0</ele><time>2026-04-26T08:25:29Z</time></trkpt><trkpt lat="40.113056244174935" lon="15.565566621017366"><ele>301.0</ele><time>2026-04-26T08:25:30Z</time></trkpt><trkpt lat="40.11300046862585" lon="15.565708485409308"><ele>300.25</ele><time>2026-04-26T08:25:31Z</time></trkpt><trkpt lat="40.11295189800854" lon="15.565845061296308"><ele>299.5</ele><time>2026-04-26T08:25:32Z</time></trkpt><trkpt lat="40.11291026974909" lon="15.565989158101118"><ele>298.75</ele><time>2026-04-26T08:25:33Z</time></trkpt><trkpt lat="40.11286699046611" lon="15.566154119863558"><ele>298.0</ele><time>2026-04-26T08:25:34Z</time></trkpt><trkpt lat="40.11282313787102" lon="15.566332582615795"><ele>296.5</ele><time>2026-04-26T08:25:35Z</time></trkpt><trkpt lat="40.11278721231794" lon="15.566504722162959"><ele>295.0</ele><time>2026-04-26T08:25:36Z</time></trkpt><trkpt lat="40.11276008291051" lon="15.566677856728512"><ele>293.5</ele><time>2026-04-26T08:25:37Z</time></trkpt><trkpt lat="40.11273264055658" lon="15.56685458245186"><ele>292.0</ele><time>2026-04-26T08:25:38Z</time></trkpt><trkpt lat="40.11270758137075" lon="15.567038068815776"><ele>292.0</ele><time>2026-04-26T08:25:39Z</time></trkpt><trkpt lat="40.112693185621616" lon="15.567219038927083"><ele>292.0</ele><time>2026-04-26T08:25:40Z</time></trkpt><trkpt lat="40.11268150435164" lon="15.567393676586988"><ele>292.0</ele><time>2026-04-26T08:25:41Z</time></trkpt><trkpt lat="40.1126773652393" lon="15.567568425942785"><ele>292.0</ele><time>2026-04-26T08:25:42Z</time></trkpt><trkpt lat="40.11269259627805" lon="15.567725223552468"><ele>292.75</ele><time>2026-04-26T08:25:43Z</time></trkpt><trkpt lat="40.11271495791914" lon="15.56788799027858"><ele>293.5</ele><time>2026-04-26T08:25:44Z</time></trkpt><trkpt lat="40.11273599221343" lon="15.56805377635537"><ele>294.25</ele><time>2026-04-26T08:25:45Z</time></trkpt><trkpt lat="40.112754351643474" lon="15.568224879061564"><ele>295.0</ele><time>2026-04-26T08:25:46Z</time></trkpt><trkpt lat="40.11276312617081" lon="15.568396607308143"><ele>295.0</ele><time>2026-04-26T08:25:47Z</time></trkpt><trkpt lat="40.11275898443493" lon="15.568570015592329"><ele>295.0</ele><time>2026-04-26T08:25:48Z</time></trkpt><trkpt lat="40.11275165520771" lon="15.56874316225446"><ele>295.0</ele><time>2026-04-26T08:25:49Z</time></trkpt><trkpt lat="40.11274513495742" lon="15.568917274372213"><ele>295.0</ele><time>2026-04-26T08:25:50Z</time></trkpt><trkpt lat="40.11273789203543" lon="15.569089655710904"><ele>295.75</ele><time>2026-04-26T08:25:51Z</time></trkpt><trkpt lat="40.11273244013096" lon="15.569265966100188"><ele>296.5</ele><time>2026-04-26T08:25:52Z</time></trkpt><trkpt lat="40.11272752777499" lon="15.569437615578511"><ele>297.25</ele><time>2026-04-26T08:25:53Z</time></trkpt><trkpt lat="40.112717015004414" lon="15.569602824349255"><ele>298.0</ele><time>2026-04-26T08:25:54Z</time></trkpt><trkpt lat="40.11270475915802" lon="15.569762841797159"><ele>298.5</ele><time>2026-04-26T08:25:55Z</time></trkpt><trkpt lat="40.11270717328399" lon="15.569920704100163"><ele>299.0</ele><time>2026-04-26T08:25:56Z</time></trkpt><trkpt lat="40.11272449311855" lon="15.570078291922995"><ele>299.5</ele><time>2026-04-26T08:25:57Z</time></trkpt><trkpt lat="40.11275213888781" lon="15.570231921627956"><ele>300.0</ele><time>2026-04-26T08:25:58Z</time></trkpt><trkpt lat="40.11277470947697" lon="15.570375225959376"><ele>298.75</ele><time>2026-04-26T08:25:59Z</time></trkpt><trkpt lat="40.112783317160094" lon="15.570516722566444"><ele>297.5</ele><time>2026-04-26T08:26:00Z</time></trkpt><trkpt lat="40.11277751450666" lon="15.570657904879178"><ele>296.25</ele><time>2026-04-26T08:26:01Z</time></trkpt><trkpt lat="40.11274902389479" lon="15.570803009660047"><ele>295.0</ele><time>2026-04-26T08:26:02Z</time></trkpt><trkpt lat="40.11268881318688" lon="15.57094778888055"><ele>295.0</ele><time>2026-04-26T08:26:02.999Z</time></trkpt><trkpt lat="40.112664453642424" lon="15.571114043639062"><ele>295.0</ele><time>2026-04-26T08:26:03.999Z</time></trkpt><trkpt lat="40.112655886764514" lon="15.57129553488746"><ele>295.0</ele><time>2026-04-26T08:26:04.999Z</time></trkpt><trkpt lat="40.1126754762933" lon="15.571491894793432"><ele>295.0</ele><time>2026-04-26T08:26:05.999Z</time></trkpt><trkpt lat="40.11270138278649" lon="15.571696730288066"><ele>293.75</ele><time>2026-04-26T08:26:06.999Z</time></trkpt><trkpt lat="40.112728757869604" lon="15.571895742192464"><ele>292.5</ele><time>2026-04-26T08:26:07.999Z</time></trkpt><trkpt lat="40.112752663533215" lon="15.572071365519875"><ele>291.25</ele><time>2026-04-26T08:26:08.999Z</time></trkpt><trkpt lat="40.112765241230754" lon="15.572238311445673"><ele>290.0</ele><time>2026-04-26T08:26:09.999Z</time></trkpt><trkpt lat="40.112744317733295" lon="15.572405013913253"><ele>290.5</ele><time>2026-04-26T08:26:10.999Z</time></trkpt><trkpt lat="40.112719255492095" lon="15.572567213852283"><ele>291.0</ele><time>2026-04-26T08:26:11.999Z</time></trkpt><trkpt lat="40.11268996359372" lon="15.572734917448557"><ele>291.5</ele><time>2026-04-26T08:26:12.999Z</time></trkpt><trkpt lat="40.112660837113786" lon="15.572903358828654"><ele>292.0</ele><time>2026-04-26T08:26:13.999Z</time></trkpt><trkpt lat="40.11263240284443" lon="15.573073410588146"><ele>292.0</ele><time>2026-04-26T08:26:14.999Z</time></trkpt><trkpt lat="40.11261200635034" lon="15.573248556348569"><ele>292.0</ele><time>2026-04-26T08:26:15.999Z</time></trkpt><trkpt lat="40.1126148557321" lon="15.573422081775025"><ele>292.0</ele><time>2026-04-26T08:26:16.999Z</time></trkpt><trkpt lat="40.112631480067755" lon="15.57359021772556"><ele>292.0</ele><time>2026-04-26T08:26:17.999Z</time></trkpt><trkpt lat="40.11265367006621" lon="15.573741644403091"><ele>291.75</ele><time>2026-04-26T08:26:18.999Z</time></trkpt><trkpt lat="40.112665856063465" lon="15.57389568166678"><ele>291.5</ele><time>2026-04-26T08:26:19.999Z</time></trkpt><trkpt lat="40.112715065423885" lon="15.574045381587245"><ele>291.25</ele><time>2026-04-26T08:26:20.999Z</time></trkpt><trkpt lat="40.11274562112596" lon="15.574205102849438"><ele>291.0</ele><time>2026-04-26T08:26:21.999Z</time></trkpt><trkpt lat="40.112772177671715" lon="15.57436917148782"><ele>291.75</ele><time>2026-04-26T08:26:22.999Z</time></trkpt><trkpt lat="40.11279327083557" lon="15.574538418998408"><ele>292.5</ele><time>2026-04-26T08:26:23.999Z</time></trkpt><trkpt lat="40.1128051533557" lon="15.574708262203387"><ele>293.25</ele><time>2026-04-26T08:26:24.999Z</time></trkpt><trkpt lat="40.112809871040035" lon="15.574880163036143"><ele>294.0</ele><time>2026-04-26T08:26:25.999Z</time></trkpt><trkpt lat="40.11280761930358" lon="15.57505016020617"><ele>294.0</ele><time>2026-04-26T08:26:26.999Z</time></trkpt><trkpt lat="40.11278832989942" lon="15.575210795377664"><ele>294.0</ele><time>2026-04-26T08:26:27.999Z</time></trkpt><trkpt lat="40.112756816539395" lon="15.575365732603066"><ele>294.0</ele><time>2026-04-26T08:26:28.999Z</time></trkpt><trkpt lat="40.112732544847276" lon="15.575521134698095"><ele>294.0</ele><time>2026-04-26T08:26:29.999Z</time></trkpt><trkpt lat="40.112719908474894" lon="15.575677894204514"><ele>294.4</ele><time>2026-04-26T08:26:30.999Z</time></trkpt><trkpt lat="40.112695794277634" lon="15.575819798117093"><ele>294.79999999999995</ele><time>2026-04-26T08:26:31.999Z</time></trkpt><trkpt lat="40.11265971309592" lon="15.575941253107231"><ele>295.20000000000005</ele><time>2026-04-26T08:26:32.999Z</time></trkpt><trkpt lat="40.11261674960676" lon="15.576043485976793"><ele>295.6</ele><time>2026-04-26T08:26:33.999Z</time></trkpt><trkpt lat="40.11254989982923" lon="15.576118404994803"><ele>296.0</ele><time>2026-04-26T08:26:34.999Z</time></trkpt><trkpt lat="40.112489296168306" lon="15.576205674852606"><ele>296.0</ele><time>2026-04-26T08:26:35.999Z</time></trkpt><trkpt lat="40.11243782937468" lon="15.576300537967967"><ele>296.0</ele><time>2026-04-26T08:26:36.999Z</time></trkpt><trkpt lat="40.112373093917505" lon="15.57638892881654"><ele>296.0</ele><time>2026-04-26T08:26:37.999Z</time></trkpt><trkpt lat="40.11231962815394" lon="15.576483846763223"><ele>296.0</ele><time>2026-04-26T08:26:38.999Z</time></trkpt><trkpt lat="40.11227103855709" lon="15.576565029311505"><ele>296.0</ele><time>2026-04-26T08:26:39.999Z</time></trkpt><trkpt lat="40.11222302792487" lon="15.5766779774431"><ele>296.0</ele><time>2026-04-26T08:26:41.999Z</time></trkpt><trkpt lat="40.11230089704624" lon="15.576750446269212"><ele>296.0</ele><time>2026-04-26T08:26:44.999Z</time></trkpt><trkpt lat="40.11236345929341" lon="15.576734476763102"><ele>296.0</ele><time>2026-04-26T08:26:45.999Z</time></trkpt><trkpt lat="40.11245864292423" lon="15.576711191100394"><ele>296.0</ele><time>2026-04-26T08:26:46.999Z</time></trkpt><trkpt lat="40.1125776816553" lon="15.576657843577522"><ele>296.0</ele><time>2026-04-26T08:26:47.999Z</time></trkpt><trkpt lat="40.11273623671318" lon="15.576588991449972"><ele>296.0</ele><time>2026-04-26T08:26:48.999Z</time></trkpt><trkpt lat="40.11293123769301" lon="15.57650891311341"><ele>296.0</ele><time>2026-04-26T08:26:49.999Z</time></trkpt><trkpt lat="40.11313340418776" lon="15.576426392549866"><ele>296.0</ele><time>2026-04-26T08:26:51Z</time></trkpt><trkpt lat="40.11329403275087" lon="15.576360101383287"><ele>296.25</ele><time>2026-04-26T08:26:52Z</time></trkpt><trkpt lat="40.11342631884527" lon="15.576306477916754"><ele>296.5</ele><time>2026-04-26T08:26:53Z</time></trkpt><trkpt lat="40.11355581779306" lon="15.576289218991262"><ele>296.75</ele><time>2026-04-26T08:26:54Z</time></trkpt><trkpt lat="40.11368139118581" lon="15.576308686091185"><ele>297.0</ele><time>2026-04-26T08:26:55Z</time></trkpt><trkpt lat="40.113770129055176" lon="15.576442251961216"><ele>297.0</ele><time>2026-04-26T08:26:56Z</time></trkpt><trkpt lat="40.11388487446226" lon="15.57656060357389"><ele>297.0</ele><time>2026-04-26T08:26:57Z</time></trkpt><trkpt lat="40.11401257333967" lon="15.576641198698804"><ele>297.0</ele><time>2026-04-26T08:26:58Z</time></trkpt><trkpt lat="40.11416952827225" lon="15.576673117352625"><ele>297.0</ele><time>2026-04-26T08:26:59Z</time></trkpt><trkpt lat="40.11432491514405" lon="15.576680218367494"><ele>295.25</ele><time>2026-04-26T08:27:00Z</time></trkpt><trkpt lat="40.11446603760809" lon="15.576740122803955"><ele>293.5</ele><time>2026-04-26T08:27:01Z</time></trkpt><trkpt lat="40.11459677539453" lon="15.576797890807724"><ele>291.75</ele><time>2026-04-26T08:27:02Z</time></trkpt><trkpt lat="40.114733906471635" lon="15.57690116298039"><ele>290.0</ele><time>2026-04-26T08:27:03Z</time></trkpt><trkpt lat="40.11483971843072" lon="15.577020575488895"><ele>295.5</ele><time>2026-04-26T08:27:04Z</time></trkpt><trkpt lat="40.11494793442679" lon="15.577145019700016"><ele>301.0</ele><time>2026-04-26T08:27:05Z</time></trkpt><trkpt lat="40.115066735436315" lon="15.577262685569371"><ele>306.5</ele><time>2026-04-26T08:27:06Z</time></trkpt><trkpt lat="40.115155354534835" lon="15.577394189886972"><ele>312.0</ele><time>2026-04-26T08:27:07Z</time></trkpt><trkpt lat="40.11523300155075" lon="15.577540999871491"><ele>312.0</ele><time>2026-04-26T08:27:08Z</time></trkpt><trkpt lat="40.115341419878376" lon="15.57767345187159"><ele>312.0</ele><time>2026-04-26T08:27:09Z</time></trkpt><trkpt lat="40.115482838669344" lon="15.577769670887696"><ele>312.0</ele><time>2026-04-26T08:27:10Z</time></trkpt><trkpt lat="40.11562884981793" lon="15.57784210324233"><ele>313.3333333333333</ele><time>2026-04-26T08:27:11Z</time></trkpt><trkpt lat="40.11576404878597" lon="15.57794730875598"><ele>314.66666666666663</ele><time>2026-04-26T08:27:12Z</time></trkpt><trkpt lat="40.11590411077563" lon="15.578039315657001"><ele>316.0</ele><time>2026-04-26T08:27:13Z</time></trkpt><trkpt lat="40.11604878133088" lon="15.57811813593846"><ele>316.0</ele><time>2026-04-26T08:27:14Z</time></trkpt><trkpt lat="40.116180197872026" lon="15.578219586274534"><ele>316.0</ele><time>2026-04-26T08:27:15Z</time></trkpt><trkpt lat="40.1163047962096" lon="15.578327444713038"><ele>316.0</ele><time>2026-04-26T08:27:16Z</time></trkpt><trkpt lat="40.11642092843932" lon="15.578434529929396"><ele>316.0</ele><time>2026-04-26T08:27:17Z</time></trkpt><trkpt lat="40.11654777839777" lon="15.578520575163072"><ele>321.25</ele><time>2026-04-26T08:27:18Z</time></trkpt><trkpt lat="40.116693439856505" lon="15.578570753524806"><ele>326.5</ele><time>2026-04-26T08:27:19Z</time></trkpt><trkpt lat="40.1168464729355" lon="15.578591649287649"><ele>331.75</ele><time>2026-04-26T08:27:20Z</time></trkpt><trkpt lat="40.116990319076756" lon="15.578597406502185"><ele>337.0</ele><time>2026-04-26T08:27:21Z</time></trkpt><trkpt lat="40.117129400330406" lon="15.578596944271863"><ele>337.0</ele><time>2026-04-26T08:27:22Z</time></trkpt><trkpt lat="40.117270616047996" lon="15.578596381353309"><ele>337.0</ele><time>2026-04-26T08:27:23Z</time></trkpt><trkpt lat="40.11741515179191" lon="15.578612584588685"><ele>337.0</ele><time>2026-04-26T08:27:24Z</time></trkpt><trkpt lat="40.11755908577934" lon="15.57866933682261"><ele>337.0</ele><time>2026-04-26T08:27:25Z</time></trkpt><trkpt lat="40.11771301067375" lon="15.578688985388638"><ele>334.0</ele><time>2026-04-26T08:27:26Z</time></trkpt><trkpt lat="40.117853400706196" lon="15.578749663825203"><ele>331.0</ele><time>2026-04-26T08:27:27Z</time></trkpt><trkpt lat="40.11798292627834" lon="15.578760290868017"><ele>328.0</ele><time>2026-04-26T08:27:28Z</time></trkpt><trkpt lat="40.118094426068815" lon="15.578803690748531"><ele>325.0</ele><time>2026-04-26T08:27:29Z</time></trkpt><trkpt lat="40.11818166893772" lon="15.578832851234973"><ele>325.0</ele><time>2026-04-26T08:27:30Z</time></trkpt><trkpt lat="40.11823464481183" lon="15.578896575741283"><ele>325.0</ele><time>2026-04-26T08:27:36Z</time></trkpt><trkpt lat="40.118178107806145" lon="15.57882276357033"><ele>325.0</ele><time>2026-04-26T08:27:41Z</time></trkpt><trkpt lat="40.11808610752988" lon="15.578792956829599"><ele>325.0</ele><time>2026-04-26T08:27:42Z</time></trkpt><trkpt lat="40.11801161464321" lon="15.578774818273109"><ele>325.0</ele><time>2026-04-26T08:27:44Z</time></trkpt><trkpt lat="40.11803594462446" lon="15.578875547346797"><ele>325.0</ele><time>2026-04-26T08:27:48Z</time></trkpt><trkpt lat="40.11811625881802" lon="15.578903759480621"><ele>325.0</ele><time>2026-04-26T08:27:49Z</time></trkpt><trkpt lat="40.11821487431983" lon="15.579007388761882"><ele>325.0</ele><time>2026-04-26T08:27:50Z</time></trkpt><trkpt lat="40.118320745084084" lon="15.579088230772204"><ele>325.0</ele><time>2026-04-26T08:27:51Z</time></trkpt><trkpt lat="40.118444985084935" lon="15.579191725468759"><ele>325.0</ele><time>2026-04-26T08:27:52Z</time></trkpt><trkpt lat="40.118547992308564" lon="15.579266330204094"><ele>326.5</ele><time>2026-04-26T08:27:53Z</time></trkpt><trkpt lat="40.118633025183655" lon="15.579322265230592"><ele>328.0</ele><time>2026-04-26T08:27:54Z</time></trkpt><trkpt lat="40.118694033813185" lon="15.579359321740396"><ele>329.5</ele><time>2026-04-26T08:27:55Z</time></trkpt><trkpt lat="40.11875316623904" lon="15.579482691720319"><ele>331.0</ele><time>2026-04-26T08:27:57Z</time></trkpt><trkpt lat="40.11872708353473" lon="15.579602554264666"><ele>332.5</ele><time>2026-04-26T08:27:58Z</time></trkpt><trkpt lat="40.11872763447735" lon="15.579706320020529"><ele>334.0</ele><time>2026-04-26T08:27:59Z</time></trkpt><trkpt lat="40.1188352568994" lon="15.579777265138496"><ele>334.0</ele><time>2026-04-26T08:28:01Z</time></trkpt><trkpt lat="40.11889867442726" lon="15.57977639965414"><ele>334.0</ele><time>2026-04-26T08:28:02Z</time></trkpt><trkpt lat="40.11897742865896" lon="15.579640775936817"><ele>334.0</ele><time>2026-04-26T08:28:03Z</time></trkpt><trkpt lat="40.119063845101195" lon="15.579518168588496"><ele>334.0</ele><time>2026-04-26T08:28:04Z</time></trkpt><trkpt lat="40.119131823038764" lon="15.579439765160792"><ele>334.0</ele><time>2026-04-26T08:28:05Z</time></trkpt><trkpt lat="40.11918938386976" lon="15.579387934226506"><ele>334.0</ele><time>2026-04-26T08:28:06.999Z</time></trkpt><trkpt lat="40.11925663257484" lon="15.579468784434093"><ele>334.0</ele><time>2026-04-26T08:28:09.999Z</time></trkpt><trkpt lat="40.11916780594173" lon="15.57960458574479"><ele>334.0</ele><time>2026-04-26T08:28:11.999Z</time></trkpt><trkpt lat="40.11910462765161" lon="15.579698359641156"><ele>334.0</ele><time>2026-04-26T08:28:12.999Z</time></trkpt><trkpt lat="40.11906025502697" lon="15.579808174814387"><ele>334.0</ele><time>2026-04-26T08:28:13.999Z</time></trkpt><trkpt lat="40.119041671889654" lon="15.579912448751193"><ele>334.0</ele><time>2026-04-26T08:28:14.999Z</time></trkpt><trkpt lat="40.11906489550784" lon="15.580038854867928"><ele>334.0</ele><time>2026-04-26T08:28:15.999Z</time></trkpt><trkpt lat="40.11912705044197" lon="15.580183009156839"><ele>334.0</ele><time>2026-04-26T08:28:16.999Z</time></trkpt><trkpt lat="40.11919857489137" lon="15.580341722412872"><ele>334.0</ele><time>2026-04-26T08:28:17.999Z</time></trkpt><trkpt lat="40.119269111318765" lon="15.580495592952898"><ele>341.75</ele><time>2026-04-26T08:28:18.999Z</time></trkpt><trkpt lat="40.119333923778676" lon="15.580634291159818"><ele>349.5</ele><time>2026-04-26T08:28:19.999Z</time></trkpt><trkpt lat="40.119396802853466" lon="15.580776775338572"><ele>357.25</ele><time>2026-04-26T08:28:20.999Z</time></trkpt><trkpt lat="40.119440452563545" lon="15.580910063967286"><ele>365.0</ele><time>2026-04-26T08:28:21.999Z</time></trkpt><trkpt lat="40.119441279751136" lon="15.58104691821824"><ele>364.0</ele><time>2026-04-26T08:28:22.999Z</time></trkpt><trkpt lat="40.11943911436165" lon="15.581186534306001"><ele>363.0</ele><time>2026-04-26T08:28:23.999Z</time></trkpt><trkpt lat="40.119462976951226" lon="15.581310585973789"><ele>362.0</ele><time>2026-04-26T08:28:24.999Z</time></trkpt><trkpt lat="40.11949929556347" lon="15.58141711913758"><ele>361.0</ele><time>2026-04-26T08:28:25.999Z</time></trkpt><trkpt lat="40.11957276601539" lon="15.581502020653014"><ele>360.0</ele><time>2026-04-26T08:28:26.999Z</time></trkpt><trkpt lat="40.119678966169445" lon="15.581585407306093"><ele>360.0</ele><time>2026-04-26T08:28:27.999Z</time></trkpt><trkpt lat="40.11979846902907" lon="15.581674506015252"><ele>360.0</ele><time>2026-04-26T08:28:28.999Z</time></trkpt><trkpt lat="40.11992208608293" lon="15.581766164290785"><ele>360.0</ele><time>2026-04-26T08:28:29.999Z</time></trkpt><trkpt lat="40.12005170516649" lon="15.581862640829232"><ele>360.0</ele><time>2026-04-26T08:28:30.999Z</time></trkpt><trkpt lat="40.12018195118122" lon="15.581971671009857"><ele>362.75</ele><time>2026-04-26T08:28:31.999Z</time></trkpt><trkpt lat="40.12030885194446" lon="15.58206926866267"><ele>365.5</ele><time>2026-04-26T08:28:32.999Z</time></trkpt><trkpt lat="40.120425178663275" lon="15.582161917014565"><ele>368.25</ele><time>2026-04-26T08:28:33.999Z</time></trkpt><trkpt lat="40.12052295584973" lon="15.582243840501793"><ele>371.0</ele><time>2026-04-26T08:28:34.999Z</time></trkpt><trkpt lat="40.12060009352971" lon="15.58234677898046"><ele>371.0</ele><time>2026-04-26T08:28:35.999Z</time></trkpt><trkpt lat="40.12068452541215" lon="15.582432916968049"><ele>371.0</ele><time>2026-04-26T08:28:36.999Z</time></trkpt><trkpt lat="40.12076392802707" lon="15.582514837294882"><ele>371.0</ele><time>2026-04-26T08:28:37.999Z</time></trkpt><trkpt lat="40.12084908198507" lon="15.582608937182643"><ele>371.0</ele><time>2026-04-26T08:28:38.999Z</time></trkpt><trkpt lat="40.120932766308506" lon="15.582723645967555"><ele>371.0</ele><time>2026-04-26T08:28:39.999Z</time></trkpt><trkpt lat="40.121021893316524" lon="15.582859696823872"><ele>374.25</ele><time>2026-04-26T08:28:40.999Z</time></trkpt><trkpt lat="40.121061026147636" lon="15.583033832725135"><ele>377.5</ele><time>2026-04-26T08:28:41.999Z</time></trkpt><trkpt lat="40.121095599635325" lon="15.58321046012083"><ele>380.75</ele><time>2026-04-26T08:28:42.999Z</time></trkpt><trkpt lat="40.12112033694109" lon="15.583394594026439"><ele>384.0</ele><time>2026-04-26T08:28:43.999Z</time></trkpt><trkpt lat="40.12112104340983" lon="15.583550715360483"><ele>385.25</ele><time>2026-04-26T08:28:44.999Z</time></trkpt><trkpt lat="40.12111149043007" lon="15.583713748068975"><ele>386.5</ele><time>2026-04-26T08:28:45.999Z</time></trkpt><trkpt lat="40.12109881094245" lon="15.583894997067535"><ele>387.75</ele><time>2026-04-26T08:28:46.999Z</time></trkpt><trkpt lat="40.12108937503755" lon="15.584090960177827"><ele>389.0</ele><time>2026-04-26T08:28:47.999Z</time></trkpt><trkpt lat="40.1210809687936" lon="15.584293117279723"><ele>389.0</ele><time>2026-04-26T08:28:48.999Z</time></trkpt><trkpt lat="40.121070927777076" lon="15.584466541532898"><ele>389.0</ele><time>2026-04-26T08:28:49.999Z</time></trkpt><trkpt lat="40.12106452825137" lon="15.584616420779009"><ele>389.0</ele><time>2026-04-26T08:28:50.999Z</time></trkpt><trkpt lat="40.121052210664075" lon="15.584760352133578"><ele>389.0</ele><time>2026-04-26T08:28:51.999Z</time></trkpt><trkpt lat="40.1210349227948" lon="15.584941352338761"><ele>390.3333333333333</ele><time>2026-04-26T08:28:52.999Z</time></trkpt><trkpt lat="40.121028317726264" lon="15.585157474839017"><ele>391.66666666666663</ele><time>2026-04-26T08:28:53.999Z</time></trkpt><trkpt lat="40.12104404663079" lon="15.585361964142853"><ele>393.0</ele><time>2026-04-26T08:28:54.999Z</time></trkpt><trkpt lat="40.121071635023334" lon="15.585528535031607"><ele>393.25</ele><time>2026-04-26T08:28:55.999Z</time></trkpt><trkpt lat="40.12109998762622" lon="15.585685244340404"><ele>393.5</ele><time>2026-04-26T08:28:57Z</time></trkpt><trkpt lat="40.12114989167068" lon="15.585824315254314"><ele>393.75</ele><time>2026-04-26T08:28:58Z</time></trkpt><trkpt lat="40.12122026182975" lon="15.585941379818179"><ele>394.0</ele><time>2026-04-26T08:28:59Z</time></trkpt><trkpt lat="40.12130561484308" lon="15.586020620145545"><ele>394.0</ele><time>2026-04-26T08:29:00Z</time></trkpt><trkpt lat="40.121392873501044" lon="15.586078340273856"><ele>394.0</ele><time>2026-04-26T08:29:01Z</time></trkpt><trkpt lat="40.121516744404424" lon="15.586047752152583"><ele>394.0</ele><time>2026-04-26T08:29:02Z</time></trkpt><trkpt lat="40.12164065124212" lon="15.586058217916863"><ele>394.0</ele><time>2026-04-26T08:29:03Z</time></trkpt><trkpt lat="40.12173414188844" lon="15.586078545096095"><ele>394.0</ele><time>2026-04-26T08:29:04Z</time></trkpt><trkpt lat="40.121792597366934" lon="15.586114746939883"><ele>399.5</ele><time>2026-04-26T08:29:05Z</time></trkpt><trkpt lat="40.121806887329576" lon="15.586239025241538"><ele>405.0</ele><time>2026-04-26T08:29:06Z</time></trkpt><trkpt lat="40.121869407302064" lon="15.586358832163455"><ele>410.5</ele><time>2026-04-26T08:29:07Z</time></trkpt><trkpt lat="40.12197569900532" lon="15.586473091095353"><ele>416.0</ele><time>2026-04-26T08:29:08Z</time></trkpt><trkpt lat="40.1221190992918" lon="15.586558663293573"><ele>416.0</ele><time>2026-04-26T08:29:09Z</time></trkpt><trkpt lat="40.12226372706569" lon="15.58665491547128"><ele>416.0</ele><time>2026-04-26T08:29:10Z</time></trkpt><trkpt lat="40.12239544023509" lon="15.586735921449668"><ele>416.0</ele><time>2026-04-26T08:29:11Z</time></trkpt><trkpt lat="40.122517727216035" lon="15.586812940607453"><ele>416.0</ele><time>2026-04-26T08:29:12Z</time></trkpt><trkpt lat="40.122631138823536" lon="15.58690586594904"><ele>415.75</ele><time>2026-04-26T08:29:13Z</time></trkpt><trkpt lat="40.12273292447805" lon="15.587017196131361"><ele>415.5</ele><time>2026-04-26T08:29:14Z</time></trkpt><trkpt lat="40.12284230565431" lon="15.587118868217859"><ele>415.25</ele><time>2026-04-26T08:29:15Z</time></trkpt><trkpt lat="40.12295312021338" lon="15.587226072946587"><ele>415.0</ele><time>2026-04-26T08:29:16Z</time></trkpt><trkpt lat="40.12307301195664" lon="15.587312987592506"><ele>415.0</ele><time>2026-04-26T08:29:17Z</time></trkpt><trkpt lat="40.123198367559844" lon="15.587366183196876"><ele>415.0</ele><time>2026-04-26T08:29:18Z</time></trkpt><trkpt lat="40.123329256882705" lon="15.58740036590717"><ele>415.0</ele><time>2026-04-26T08:29:19Z</time></trkpt><trkpt lat="40.123466518147175" lon="15.587411037359113"><ele>415.0</ele><time>2026-04-26T08:29:20Z</time></trkpt><trkpt lat="40.123590120786986" lon="15.587450065961542"><ele>419.6</ele><time>2026-04-26T08:29:21Z</time></trkpt><trkpt lat="40.12369873570436" lon="15.587462670984655"><ele>424.2</ele><time>2026-04-26T08:29:22Z</time></trkpt><trkpt lat="40.12379590576643" lon="15.587466901124875"><ele>428.79999999999995</ele><time>2026-04-26T08:29:23Z</time></trkpt><trkpt lat="40.12389228303945" lon="15.587440568247942"><ele>433.4</ele><time>2026-04-26T08:29:24Z</time></trkpt><trkpt lat="40.123977584007434" lon="15.587451390894735"><ele>438.0</ele><time>2026-04-26T08:29:25Z</time></trkpt><trkpt lat="40.12405099029121" lon="15.587511630406865"><ele>435.79999999999995</ele><time>2026-04-26T08:29:26Z</time></trkpt><trkpt lat="40.12409426730675" lon="15.587627124747454"><ele>433.59999999999997</ele><time>2026-04-26T08:29:27Z</time></trkpt><trkpt lat="40.124092204849276" lon="15.587769470491477"><ele>431.40000000000003</ele><time>2026-04-26T08:29:28Z</time></trkpt><trkpt lat="40.12404760087079" lon="15.587889379967807"><ele>429.20000000000005</ele><time>2026-04-26T08:29:29Z</time></trkpt><trkpt lat="40.123948471371875" lon="15.587978547400532"><ele>427.0</ele><time>2026-04-26T08:29:30Z</time></trkpt><trkpt lat="40.12386359888853" lon="15.588106377627074"><ele>427.0</ele><time>2026-04-26T08:29:31Z</time></trkpt><trkpt lat="40.1238050735739" lon="15.588227325134826"><ele>427.0</ele><time>2026-04-26T08:29:32Z</time></trkpt><trkpt lat="40.12377426509874" lon="15.588394014852902"><ele>427.0</ele><time>2026-04-26T08:29:33Z</time></trkpt><trkpt lat="40.123753803366974" lon="15.588566216855508"><ele>427.0</ele><time>2026-04-26T08:29:34Z</time></trkpt><trkpt lat="40.123757405290895" lon="15.588722052593434"><ele>431.0</ele><time>2026-04-26T08:29:35Z</time></trkpt><trkpt lat="40.12376427585581" lon="15.588866141044917"><ele>435.0</ele><time>2026-04-26T08:29:36Z</time></trkpt><trkpt lat="40.12375488011269" lon="15.589008876513104"><ele>439.0</ele><time>2026-04-26T08:29:37Z</time></trkpt><trkpt lat="40.123711868147694" lon="15.589146702482864"><ele>443.0</ele><time>2026-04-26T08:29:38Z</time></trkpt><trkpt lat="40.123613300050174" lon="15.589245874886492"><ele>443.0</ele><time>2026-04-26T08:29:39Z</time></trkpt><trkpt lat="40.12350758096309" lon="15.589377459796205"><ele>443.0</ele><time>2026-04-26T08:29:40Z</time></trkpt><trkpt lat="40.12336754303943" lon="15.589455746350913"><ele>443.0</ele><time>2026-04-26T08:29:41Z</time></trkpt><trkpt lat="40.12320387979102" lon="15.589527780872894"><ele>446.3333333333333</ele><time>2026-04-26T08:29:42Z</time></trkpt><trkpt lat="40.12304359933268" lon="15.589624455075057"><ele>449.66666666666663</ele><time>2026-04-26T08:29:43Z</time></trkpt><trkpt lat="40.12290525512909" lon="15.589757145191555"><ele>453.0</ele><time>2026-04-26T08:29:44Z</time></trkpt><trkpt lat="40.122785695260944" lon="15.58989049606566"><ele>453.0</ele><time>2026-04-26T08:29:45Z</time></trkpt><trkpt lat="40.12268825686502" lon="15.589972561477854"><ele>453.0</ele><time>2026-04-26T08:29:46Z</time></trkpt><trkpt lat="40.12258984378271" lon="15.59000897824319"><ele>453.0</ele><time>2026-04-26T08:29:47Z</time></trkpt><trkpt lat="40.12247690954498" lon="15.59000646747111"><ele>453.0</ele><time>2026-04-26T08:29:48Z</time></trkpt><trkpt lat="40.12235372938233" lon="15.590017161887953"><ele>451.79999999999995</ele><time>2026-04-26T08:29:49Z</time></trkpt><trkpt lat="40.12228193095765" lon="15.590056127986633"><ele>450.59999999999997</ele><time>2026-04-26T08:29:50Z</time></trkpt><trkpt lat="40.12223335711679" lon="15.590136219544311"><ele>449.40000000000003</ele><time>2026-04-26T08:29:51Z</time></trkpt><trkpt lat="40.12221756573146" lon="15.590254562816417"><ele>448.20000000000005</ele><time>2026-04-26T08:29:52Z</time></trkpt><trkpt lat="40.122243056412536" lon="15.59041252986014"><ele>447.0</ele><time>2026-04-26T08:29:53Z</time></trkpt><trkpt lat="40.12225943227083" lon="15.590578017063121"><ele>444.6</ele><time>2026-04-26T08:29:54Z</time></trkpt><trkpt lat="40.12219526287731" lon="15.59070321546835"><ele>442.20000000000005</ele><time>2026-04-26T08:29:55Z</time></trkpt><trkpt lat="40.12211764411849" lon="15.590812591189824"><ele>439.8</ele><time>2026-04-26T08:29:56Z</time></trkpt><trkpt lat="40.122046481037565" lon="15.590911176538635"><ele>437.4</ele><time>2026-04-26T08:29:57Z</time></trkpt><trkpt lat="40.12200181365693" lon="15.59099584657226"><ele>435.0</ele><time>2026-04-26T08:29:58Z</time></trkpt><trkpt lat="40.121968055477865" lon="15.591066204488996"><ele>433.8</ele><time>2026-04-26T08:29:59Z</time></trkpt><trkpt lat="40.121948455584885" lon="15.591216120565848"><ele>432.6</ele><time>2026-04-26T08:30:01Z</time></trkpt><trkpt lat="40.12198605537451" lon="15.591296677571243"><ele>431.4</ele><time>2026-04-26T08:30:02Z</time></trkpt><trkpt lat="40.122074721429335" lon="15.591388073230721"><ele>430.2</ele><time>2026-04-26T08:30:03Z</time></trkpt><trkpt lat="40.12216819709356" lon="15.591439200060904"><ele>429.0</ele><time>2026-04-26T08:30:04Z</time></trkpt><trkpt lat="40.122226135617595" lon="15.591473113233823"><ele>429.0</ele><time>2026-04-26T08:30:05Z</time></trkpt><trkpt lat="40.12229343739418" lon="15.591574044440824"><ele>429.0</ele><time>2026-04-26T08:30:07Z</time></trkpt><trkpt lat="40.12225207795102" lon="15.591717740923704"><ele>429.0</ele><time>2026-04-26T08:30:07.999Z</time></trkpt><trkpt lat="40.12216281991695" lon="15.591863009900495"><ele>429.0</ele><time>2026-04-26T08:30:08.999Z</time></trkpt><trkpt lat="40.12206252706236" lon="15.591996380664972"><ele>428.75</ele><time>2026-04-26T08:30:09.999Z</time></trkpt><trkpt lat="40.121998122294436" lon="15.59214791750072"><ele>428.5</ele><time>2026-04-26T08:30:10.999Z</time></trkpt><trkpt lat="40.12194825676009" lon="15.592324199874346"><ele>428.25</ele><time>2026-04-26T08:30:11.999Z</time></trkpt><trkpt lat="40.121884724508426" lon="15.592479913060343"><ele>428.0</ele><time>2026-04-26T08:30:12.999Z</time></trkpt><trkpt lat="40.12178557130356" lon="15.592622529295687"><ele>428.0</ele><time>2026-04-26T08:30:13.999Z</time></trkpt><trkpt lat="40.12166257573048" lon="15.592757791226584"><ele>428.0</ele><time>2026-04-26T08:30:14.999Z</time></trkpt><trkpt lat="40.1215449830897" lon="15.592882443804523"><ele>428.0</ele><time>2026-04-26T08:30:15.999Z</time></trkpt><trkpt lat="40.121446021906614" lon="15.593005812950949"><ele>428.0</ele><time>2026-04-26T08:30:16.999Z</time></trkpt><trkpt lat="40.12133611585233" lon="15.593129631479734"><ele>429.5</ele><time>2026-04-26T08:30:17.999Z</time></trkpt><trkpt lat="40.121214821474304" lon="15.593248641740397"><ele>431.0</ele><time>2026-04-26T08:30:18.999Z</time></trkpt><trkpt lat="40.121118827256474" lon="15.593369509242915"><ele>432.5</ele><time>2026-04-26T08:30:19.999Z</time></trkpt><trkpt lat="40.12105405632679" lon="15.593454345728988"><ele>434.0</ele><time>2026-04-26T08:30:20.999Z</time></trkpt><trkpt lat="40.12098985551494" lon="15.593528410988254"><ele>434.0</ele><time>2026-04-26T08:30:22.999Z</time></trkpt><trkpt lat="40.12093096032475" lon="15.593590111476976"><ele>434.0</ele><time>2026-04-26T08:30:25.999Z</time></trkpt><trkpt lat="40.12085825556618" lon="15.59365139841642"><ele>434.0</ele><time>2026-04-26T08:30:27.999Z</time></trkpt><trkpt lat="40.120930403796145" lon="15.593840826200273"><ele>434.0</ele><time>2026-04-26T08:30:30.999Z</time></trkpt><trkpt lat="40.12099992788915" lon="15.593893586085759"><ele>434.0</ele><time>2026-04-26T08:30:31.999Z</time></trkpt><trkpt lat="40.12105954818801" lon="15.593977405710872"><ele>435.6</ele><time>2026-04-26T08:30:32.999Z</time></trkpt><trkpt lat="40.12114634570755" lon="15.594041156214832"><ele>437.2</ele><time>2026-04-26T08:30:33.999Z</time></trkpt><trkpt lat="40.12123534510905" lon="15.594132263631776"><ele>438.80000000000007</ele><time>2026-04-26T08:30:34.999Z</time></trkpt><trkpt lat="40.12131292578756" lon="15.594239470182925"><ele>440.40000000000003</ele><time>2026-04-26T08:30:35.999Z</time></trkpt><trkpt lat="40.12136868741165" lon="15.594363906280584"><ele>442.0</ele><time>2026-04-26T08:30:36.999Z</time></trkpt><trkpt lat="40.12143409665798" lon="15.594495053292965"><ele>440.75</ele><time>2026-04-26T08:30:37.999Z</time></trkpt><trkpt lat="40.12152912090283" lon="15.594577968746908"><ele>439.5</ele><time>2026-04-26T08:30:38.999Z</time></trkpt><trkpt lat="40.121641650656045" lon="15.594660833114647"><ele>438.25</ele><time>2026-04-26T08:30:39.999Z</time></trkpt><trkpt lat="40.121765526609124" lon="15.59468557844167"><ele>437.0</ele><time>2026-04-26T08:30:40.999Z</time></trkpt><trkpt lat="40.12186073573478" lon="15.594767390877424"><ele>435.3333333333333</ele><time>2026-04-26T08:30:41.999Z</time></trkpt><trkpt lat="40.12193405358714" lon="15.594906462793842"><ele>433.66666666666663</ele><time>2026-04-26T08:30:42.999Z</time></trkpt><trkpt lat="40.121989965883124" lon="15.595102727353057"><ele>432.0</ele><time>2026-04-26T08:30:43.999Z</time></trkpt><trkpt lat="40.12205734145971" lon="15.595312347916755"><ele>427.0</ele><time>2026-04-26T08:30:44.999Z</time></trkpt><trkpt lat="40.122147631191" lon="15.595504456777869"><ele>422.0</ele><time>2026-04-26T08:30:45.999Z</time></trkpt><trkpt lat="40.122251516448785" lon="15.595685831115913"><ele>417.0</ele><time>2026-04-26T08:30:46.999Z</time></trkpt><trkpt lat="40.1223599873188" lon="15.595862071900976"><ele>417.5</ele><time>2026-04-26T08:30:47.999Z</time></trkpt><trkpt lat="40.12246037281362" lon="15.596013830732561"><ele>418.0</ele><time>2026-04-26T08:30:48.999Z</time></trkpt><trkpt lat="40.12255963799167" lon="15.596152803555297"><ele>418.5</ele><time>2026-04-26T08:30:49.999Z</time></trkpt><trkpt lat="40.12264983276875" lon="15.596290289035055"><ele>419.0</ele><time>2026-04-26T08:30:50.999Z</time></trkpt><trkpt lat="40.1227313482973" lon="15.596414171607368"><ele>416.0</ele><time>2026-04-26T08:30:51.999Z</time></trkpt><trkpt lat="40.12279360847199" lon="15.596533587960526"><ele>413.0</ele><time>2026-04-26T08:30:52.999Z</time></trkpt><trkpt lat="40.122841855054006" lon="15.596659057247635"><ele>410.0</ele><time>2026-04-26T08:30:53.999Z</time></trkpt><trkpt lat="40.12287424336787" lon="15.596788642739918"><ele>407.0</ele><time>2026-04-26T08:30:54.999Z</time></trkpt><trkpt lat="40.12288657813675" lon="15.596933214748553"><ele>404.0</ele><time>2026-04-26T08:30:55.999Z</time></trkpt><trkpt lat="40.12289290401635" lon="15.597107932532982"><ele>400.75</ele><time>2026-04-26T08:30:56.999Z</time></trkpt><trkpt lat="40.12291335630097" lon="15.597297342609581"><ele>397.5</ele><time>2026-04-26T08:30:57.999Z</time></trkpt><trkpt lat="40.12294356807937" lon="15.597474032638475"><ele>394.25</ele><time>2026-04-26T08:30:58.999Z</time></trkpt><trkpt lat="40.12296937734651" lon="15.597648526726205"><ele>391.0</ele><time>2026-04-26T08:30:59.999Z</time></trkpt><trkpt lat="40.122984988065774" lon="15.59783855466535"><ele>390.0</ele><time>2026-04-26T08:31:00.999Z</time></trkpt><trkpt lat="40.12298555163346" lon="15.598034085857837"><ele>389.0</ele><time>2026-04-26T08:31:01.999Z</time></trkpt><trkpt lat="40.12298395326915" lon="15.598237472449357"><ele>388.0</ele><time>2026-04-26T08:31:03Z</time></trkpt><trkpt lat="40.12297657622705" lon="15.598439581795981"><ele>388.0</ele><time>2026-04-26T08:31:04Z</time></trkpt><trkpt lat="40.122973795131955" lon="15.598624963988117"><ele>388.0</ele><time>2026-04-26T08:31:05Z</time></trkpt><trkpt lat="40.12300131400937" lon="15.598796077306298"><ele>388.0</ele><time>2026-04-26T08:31:06Z</time></trkpt><trkpt lat="40.123065677298165" lon="15.598942953293497"><ele>388.0</ele><time>2026-04-26T08:31:07Z</time></trkpt><trkpt lat="40.12315633488839" lon="15.599094438487839"><ele>387.59999999999997</ele><time>2026-04-26T08:31:08Z</time></trkpt><trkpt lat="40.123249566718755" lon="15.599209979069661"><ele>387.2</ele><time>2026-04-26T08:31:09Z</time></trkpt><trkpt lat="40.12332149078764" lon="15.599301811891198"><ele>386.8</ele><time>2026-04-26T08:31:10Z</time></trkpt><trkpt lat="40.12333751731284" lon="15.599415268642844"><ele>386.4</ele><time>2026-04-26T08:31:11Z</time></trkpt><trkpt lat="40.123302059717226" lon="15.599533389246258"><ele>386.0</ele><time>2026-04-26T08:31:12Z</time></trkpt><trkpt lat="40.12323162268956" lon="15.599659937800384"><ele>384.8333333333333</ele><time>2026-04-26T08:31:13Z</time></trkpt><trkpt lat="40.12316001728797" lon="15.59976701195735"><ele>383.66666666666663</ele><time>2026-04-26T08:31:14Z</time></trkpt><trkpt lat="40.12311793299114" lon="15.599844283841444"><ele>382.5</ele><time>2026-04-26T08:31:15Z</time></trkpt><trkpt lat="40.12312434598132" lon="15.59998793039189"><ele>381.3333333333333</ele><time>2026-04-26T08:31:17Z</time></trkpt><trkpt lat="40.12318404627364" lon="15.600022462242881"><ele>380.16666666666663</ele><time>2026-04-26T08:31:18Z</time></trkpt><trkpt lat="40.12325662823585" lon="15.599995453457167"><ele>379.0</ele><time>2026-04-26T08:31:19Z</time></trkpt><trkpt lat="40.123322419553425" lon="15.59990446719972"><ele>379.0</ele><time>2026-04-26T08:31:20Z</time></trkpt><trkpt lat="40.12338386231979" lon="15.599795684067105"><ele>379.0</ele><time>2026-04-26T08:31:21Z</time></trkpt><trkpt lat="40.12345405637075" lon="15.599684989003103"><ele>379.0</ele><time>2026-04-26T08:31:22Z</time></trkpt><trkpt lat="40.12353546805743" lon="15.599575773230207"><ele>379.0</ele><time>2026-04-26T08:31:23Z</time></trkpt><trkpt lat="40.12359865521899" lon="15.599466016101728"><ele>379.0</ele><time>2026-04-26T08:31:24Z</time></trkpt><trkpt lat="40.12362339228038" lon="15.599325332181158"><ele>380.75</ele><time>2026-04-26T08:31:25Z</time></trkpt><trkpt lat="40.123605495687926" lon="15.599161502932526"><ele>382.5</ele><time>2026-04-26T08:31:26Z</time></trkpt><trkpt lat="40.123554152522715" lon="15.598995502419719"><ele>384.25</ele><time>2026-04-26T08:31:27Z</time></trkpt><trkpt lat="40.12347957322899" lon="15.59885919826329"><ele>386.0</ele><time>2026-04-26T08:31:28Z</time></trkpt><trkpt lat="40.123388106435875" lon="15.598752499978707"><ele>385.6</ele><time>2026-04-26T08:31:29Z</time></trkpt><trkpt lat="40.12330630588313" lon="15.598664956381082"><ele>385.20000000000005</ele><time>2026-04-26T08:31:30Z</time></trkpt><trkpt lat="40.12327221490026" lon="15.59854864316463"><ele>384.79999999999995</ele><time>2026-04-26T08:31:31Z</time></trkpt><trkpt lat="40.12330678521405" lon="15.598412896621932"><ele>384.4</ele><time>2026-04-26T08:31:32Z</time></trkpt><trkpt lat="40.123347024233546" lon="15.598280974324933"><ele>384.0</ele><time>2026-04-26T08:31:33Z</time></trkpt><trkpt lat="40.12342347413651" lon="15.598166284191919"><ele>384.0</ele><time>2026-04-26T08:31:34Z</time></trkpt><trkpt lat="40.12349868520865" lon="15.598045740659344"><ele>384.0</ele><time>2026-04-26T08:31:35Z</time></trkpt><trkpt lat="40.12356955739619" lon="15.597933613115163"><ele>384.0</ele><time>2026-04-26T08:31:36Z</time></trkpt><trkpt lat="40.12360223681481" lon="15.597782223947755"><ele>384.0</ele><time>2026-04-26T08:31:37Z</time></trkpt><trkpt lat="40.12360769720485" lon="15.59758599275582"><ele>384.75</ele><time>2026-04-26T08:31:38Z</time></trkpt><trkpt lat="40.12362586023385" lon="15.597401764147653"><ele>385.5</ele><time>2026-04-26T08:31:39Z</time></trkpt><trkpt lat="40.123632116534466" lon="15.597244703777447"><ele>386.25</ele><time>2026-04-26T08:31:40Z</time></trkpt><trkpt lat="40.123645718604116" lon="15.597104993554026"><ele>387.0</ele><time>2026-04-26T08:31:41Z</time></trkpt><trkpt lat="40.12367189013221" lon="15.59699723654992"><ele>386.8</ele><time>2026-04-26T08:31:42Z</time></trkpt><trkpt lat="40.123702291683124" lon="15.596901110999683"><ele>386.6</ele><time>2026-04-26T08:31:43Z</time></trkpt><trkpt lat="40.12380066201455" lon="15.596779805274576"><ele>386.40000000000003</ele><time>2026-04-26T08:31:45Z</time></trkpt><trkpt lat="40.123887350319265" lon="15.596788372389764"><ele>386.20000000000005</ele><time>2026-04-26T08:31:46Z</time></trkpt><trkpt lat="40.12399612478935" lon="15.596870222408443"><ele>386.0</ele><time>2026-04-26T08:31:47Z</time></trkpt><trkpt lat="40.12409469578094" lon="15.596982503501952"><ele>380.4</ele><time>2026-04-26T08:31:48Z</time></trkpt><trkpt lat="40.124178455824904" lon="15.597069072807194"><ele>374.8</ele><time>2026-04-26T08:31:49Z</time></trkpt><trkpt lat="40.12426421374621" lon="15.597144149260624"><ele>369.2</ele><time>2026-04-26T08:31:50Z</time></trkpt><trkpt lat="40.124359109798995" lon="15.597231922483715"><ele>363.59999999999997</ele><time>2026-04-26T08:31:51Z</time></trkpt><trkpt lat="40.12445365391082" lon="15.597297659075227"><ele>358.0</ele><time>2026-04-26T08:31:52Z</time></trkpt><trkpt lat="40.12455718625079" lon="15.597332203359498"><ele>358.0</ele><time>2026-04-26T08:31:53Z</time></trkpt><trkpt lat="40.12467494709632" lon="15.597312321977016"><ele>358.0</ele><time>2026-04-26T08:31:54Z</time></trkpt><trkpt lat="40.12482476157888" lon="15.597247978470207"><ele>358.0</ele><time>2026-04-26T08:31:55Z</time></trkpt><trkpt lat="40.12498799069157" lon="15.597178378749462"><ele>358.0</ele><time>2026-04-26T08:31:56Z</time></trkpt><trkpt lat="40.12513439079203" lon="15.597124431054395"><ele>357.2</ele><time>2026-04-26T08:31:57Z</time></trkpt><trkpt lat="40.1252836365574" lon="15.59711837367295"><ele>356.4</ele><time>2026-04-26T08:31:58Z</time></trkpt><trkpt lat="40.125415766207496" lon="15.597114382406586"><ele>355.59999999999997</ele><time>2026-04-26T08:31:59Z</time></trkpt><trkpt lat="40.12550396726904" lon="15.59709631569399"><ele>354.79999999999995</ele><time>2026-04-26T08:32:00Z</time></trkpt><trkpt lat="40.125579037391056" lon="15.597074296007994"><ele>354.0</ele><time>2026-04-26T08:32:01Z</time></trkpt><trkpt lat="40.12564147205683" lon="15.5970270806046"><ele>361.0</ele><time>2026-04-26T08:32:02Z</time></trkpt><trkpt lat="40.12566042613408" lon="15.59692080350135"><ele>368.0</ele><time>2026-04-26T08:32:03Z</time></trkpt><trkpt lat="40.12564106842772" lon="15.596762038472544"><ele>375.0</ele><time>2026-04-26T08:32:04Z</time></trkpt><trkpt lat="40.12561311800049" lon="15.596600656874447"><ele>382.0</ele><time>2026-04-26T08:32:05Z</time></trkpt><trkpt lat="40.12559868485079" lon="15.596449189360456"><ele>382.0</ele><time>2026-04-26T08:32:06Z</time></trkpt><trkpt lat="40.12563597634159" lon="15.596339288143598"><ele>382.0</ele><time>2026-04-26T08:32:07Z</time></trkpt><trkpt lat="40.125705255028734" lon="15.596241201114415"><ele>382.0</ele><time>2026-04-26T08:32:09Z</time></trkpt><trkpt lat="40.12582634946753" lon="15.596329984791366"><ele>382.0</ele><time>2026-04-26T08:32:12Z</time></trkpt><trkpt lat="40.125873128651314" lon="15.596459527346775"><ele>382.0</ele><time>2026-04-26T08:32:12.999Z</time></trkpt><trkpt lat="40.12595547019009" lon="15.596621095836639"><ele>375.75</ele><time>2026-04-26T08:32:13.999Z</time></trkpt><trkpt lat="40.12604280577646" lon="15.596766190508115"><ele>369.5</ele><time>2026-04-26T08:32:14.999Z</time></trkpt><trkpt lat="40.1261334628873" lon="15.596907783385877"><ele>363.25</ele><time>2026-04-26T08:32:15.999Z</time></trkpt><trkpt lat="40.1262282287796" lon="15.597059199113625"><ele>357.0</ele><time>2026-04-26T08:32:16.999Z</time></trkpt><trkpt lat="40.12631750204943" lon="15.597204958478162"><ele>353.0</ele><time>2026-04-26T08:32:17.999Z</time></trkpt><trkpt lat="40.12639216112433" lon="15.59733856000855"><ele>349.0</ele><time>2026-04-26T08:32:18.999Z</time></trkpt><trkpt lat="40.12646650759008" lon="15.59744693147293"><ele>345.0</ele><time>2026-04-26T08:32:19.999Z</time></trkpt><trkpt lat="40.1265609156076" lon="15.597511702788777"><ele>341.0</ele><time>2026-04-26T08:32:20.999Z</time></trkpt><trkpt lat="40.1266691767535" lon="15.597561152370481"><ele>338.33333333333337</ele><time>2026-04-26T08:32:21.999Z</time></trkpt><trkpt lat="40.12682336007729" lon="15.597511073928267"><ele>335.6666666666667</ele><time>2026-04-26T08:32:22.999Z</time></trkpt><trkpt lat="40.12699288068513" lon="15.597452273106386"><ele>333.0</ele><time>2026-04-26T08:32:23.999Z</time></trkpt><trkpt lat="40.127173701757684" lon="15.59734703148388"><ele>333.0</ele><time>2026-04-26T08:32:24.999Z</time></trkpt><trkpt lat="40.12735172907704" lon="15.59723620527451"><ele>333.0</ele><time>2026-04-26T08:32:25.999Z</time></trkpt><trkpt lat="40.12754092311349" lon="15.597146796634975"><ele>333.0</ele><time>2026-04-26T08:32:26.999Z</time></trkpt><trkpt lat="40.12772537102012" lon="15.597051659499718"><ele>333.0</ele><time>2026-04-26T08:32:27.999Z</time></trkpt><trkpt lat="40.127893934986936" lon="15.596961558790456"><ele>333.0</ele><time>2026-04-26T08:32:28.999Z</time></trkpt><trkpt lat="40.12803577535412" lon="15.596865174263096"><ele>333.0</ele><time>2026-04-26T08:32:29.999Z</time></trkpt><trkpt lat="40.12818427234963" lon="15.596814213355918"><ele>329.3333333333333</ele><time>2026-04-26T08:32:30.999Z</time></trkpt><trkpt lat="40.12836877595816" lon="15.596853769531183"><ele>325.66666666666663</ele><time>2026-04-26T08:32:31.999Z</time></trkpt><trkpt lat="40.128584277420636" lon="15.596894093503728"><ele>322.0</ele><time>2026-04-26T08:32:32.999Z</time></trkpt><trkpt lat="40.1288001376756" lon="15.59689835591433"><ele>322.0</ele><time>2026-04-26T08:32:33.999Z</time></trkpt><trkpt lat="40.12899399631828" lon="15.596891939891798"><ele>322.0</ele><time>2026-04-26T08:32:34.999Z</time></trkpt><trkpt lat="40.1291806357032" lon="15.596882049867656"><ele>322.0</ele><time>2026-04-26T08:32:35.999Z</time></trkpt><trkpt lat="40.12935772423602" lon="15.596897410135425"><ele>321.3333333333333</ele><time>2026-04-26T08:32:36.999Z</time></trkpt><trkpt lat="40.129526706501224" lon="15.596879202707143"><ele>320.6666666666667</ele><time>2026-04-26T08:32:37.999Z</time></trkpt><trkpt lat="40.129682653679055" lon="15.596856668559528"><ele>320.0</ele><time>2026-04-26T08:32:38.999Z</time></trkpt><trkpt lat="40.12984466129093" lon="15.596884051684771"><ele>319.33333333333337</ele><time>2026-04-26T08:32:39.999Z</time></trkpt><trkpt lat="40.130016253242026" lon="15.596951966963536"><ele>318.6666666666667</ele><time>2026-04-26T08:32:40.999Z</time></trkpt><trkpt lat="40.130194519537085" lon="15.597028578043126"><ele>318.0</ele><time>2026-04-26T08:32:41.999Z</time></trkpt><trkpt lat="40.130353927363124" lon="15.597088837824618"><ele>315.3333333333333</ele><time>2026-04-26T08:32:42.999Z</time></trkpt><trkpt lat="40.130505173484096" lon="15.597140270085186"><ele>312.66666666666663</ele><time>2026-04-26T08:32:43.999Z</time></trkpt><trkpt lat="40.13066022876635" lon="15.597180457838029"><ele>310.0</ele><time>2026-04-26T08:32:44.999Z</time></trkpt><trkpt lat="40.13083092478932" lon="15.597191866788204"><ele>309.3333333333333</ele><time>2026-04-26T08:32:45.999Z</time></trkpt><trkpt lat="40.13100712499587" lon="15.597181028207396"><ele>308.6666666666667</ele><time>2026-04-26T08:32:46.999Z</time></trkpt><trkpt lat="40.1311718178572" lon="15.597164798123476"><ele>308.0</ele><time>2026-04-26T08:32:47.999Z</time></trkpt><trkpt lat="40.131329334623665" lon="15.597158237335135"><ele>308.0</ele><time>2026-04-26T08:32:48.999Z</time></trkpt><trkpt lat="40.13147941543008" lon="15.597103107033913"><ele>308.0</ele><time>2026-04-26T08:32:49.999Z</time></trkpt><trkpt lat="40.131625686493486" lon="15.597111173358156"><ele>308.0</ele><time>2026-04-26T08:32:50.999Z</time></trkpt><trkpt lat="40.131749792086524" lon="15.597244462441271"><ele>307.6666666666667</ele><time>2026-04-26T08:32:51.999Z</time></trkpt><trkpt lat="40.131919129676206" lon="15.597358370198812"><ele>307.3333333333333</ele><time>2026-04-26T08:32:52.999Z</time></trkpt><trkpt lat="40.13207166026798" lon="15.597469392308518"><ele>307.0</ele><time>2026-04-26T08:32:53.999Z</time></trkpt><trkpt lat="40.132217375740034" lon="15.597518295222159"><ele>307.0</ele><time>2026-04-26T08:32:54.999Z</time></trkpt><trkpt lat="40.13232849374913" lon="15.597583869369606"><ele>307.0</ele><time>2026-04-26T08:32:55.999Z</time></trkpt><trkpt lat="40.13243824736264" lon="15.59763688929624"><ele>307.0</ele><time>2026-04-26T08:32:56.999Z</time></trkpt><trkpt lat="40.13253641445592" lon="15.597748239016115"><ele>307.0</ele><time>2026-04-26T08:32:57.999Z</time></trkpt><trkpt lat="40.13261661994795" lon="15.597904551312034"><ele>306.0</ele><time>2026-04-26T08:32:58.999Z</time></trkpt><trkpt lat="40.13267696207925" lon="15.598101325975005"><ele>305.0</ele><time>2026-04-26T08:32:59.999Z</time></trkpt><trkpt lat="40.13273078258511" lon="15.598285544031283"><ele>304.0</ele><time>2026-04-26T08:33:00.999Z</time></trkpt><trkpt lat="40.13280959616196" lon="15.598435427972275"><ele>304.0</ele><time>2026-04-26T08:33:01.999Z</time></trkpt><trkpt lat="40.13290875611642" lon="15.598556217929898"><ele>304.0</ele><time>2026-04-26T08:33:02.999Z</time></trkpt><trkpt lat="40.13301088234174" lon="15.598678739499642"><ele>304.0</ele><time>2026-04-26T08:33:03.999Z</time></trkpt><trkpt lat="40.133094420272904" lon="15.59881918975214"><ele>304.0</ele><time>2026-04-26T08:33:04.999Z</time></trkpt><trkpt lat="40.13316757735556" lon="15.598973137337227"><ele>304.8333333333333</ele><time>2026-04-26T08:33:05.999Z</time></trkpt><trkpt lat="40.133229097020376" lon="15.599103771999784"><ele>305.66666666666663</ele><time>2026-04-26T08:33:06.999Z</time></trkpt><trkpt lat="40.133284024255154" lon="15.599195888731403"><ele>306.5</ele><time>2026-04-26T08:33:07.999Z</time></trkpt><trkpt lat="40.13335037230222" lon="15.599239454392587"><ele>307.3333333333333</ele><time>2026-04-26T08:33:09Z</time></trkpt><trkpt lat="40.133420871313" lon="15.599225843210256"><ele>308.1666666666667</ele><time>2026-04-26T08:33:10Z</time></trkpt><trkpt lat="40.13349347807464" lon="15.599187866199546"><ele>309.0</ele><time>2026-04-26T08:33:11Z</time></trkpt><trkpt lat="40.13355973450289" lon="15.599062235951257"><ele>309.0</ele><time>2026-04-26T08:33:12Z</time></trkpt><trkpt lat="40.13362453343774" lon="15.598945316686098"><ele>309.0</ele><time>2026-04-26T08:33:13Z</time></trkpt><trkpt lat="40.13367986564809" lon="15.598845021729732"><ele>309.0</ele><time>2026-04-26T08:33:14Z</time></trkpt><trkpt lat="40.13373139904228" lon="15.598755900731518"><ele>309.0</ele><time>2026-04-26T08:33:15Z</time></trkpt><trkpt lat="40.133796066401864" lon="15.598679541621385"><ele>309.0</ele><time>2026-04-26T08:33:16Z</time></trkpt><trkpt lat="40.13386770687134" lon="15.598640659002557"><ele>309.0</ele><time>2026-04-26T08:33:17Z</time></trkpt><trkpt lat="40.133942113221806" lon="15.598624051398426"><ele>309.0</ele><time>2026-04-26T08:33:18Z</time></trkpt><trkpt lat="40.133999542023204" lon="15.59870967849395"><ele>309.0</ele><time>2026-04-26T08:33:19Z</time></trkpt><trkpt lat="40.134051646171635" lon="15.59879820274586"><ele>309.0</ele><time>2026-04-26T08:33:20Z</time></trkpt><trkpt lat="40.13405285186196" lon="15.59893423842074"><ele>309.0</ele><time>2026-04-26T08:33:21Z</time></trkpt><trkpt lat="40.13407295590058" lon="15.599077308901041"><ele>311.5</ele><time>2026-04-26T08:33:22Z</time></trkpt><trkpt lat="40.13408714350397" lon="15.599225471891865"><ele>314.0</ele><time>2026-04-26T08:33:23Z</time></trkpt><trkpt lat="40.13414407542784" lon="15.599365576378794"><ele>316.5</ele><time>2026-04-26T08:33:24Z</time></trkpt><trkpt lat="40.13421781559731" lon="15.59949391498348"><ele>319.0</ele><time>2026-04-26T08:33:25Z</time></trkpt><trkpt lat="40.13430057392718" lon="15.59960956776986"><ele>320.4</ele><time>2026-04-26T08:33:26Z</time></trkpt><trkpt lat="40.134376628175865" lon="15.599693027931803"><ele>321.79999999999995</ele><time>2026-04-26T08:33:27Z</time></trkpt><trkpt lat="40.13444947458671" lon="15.599733413028288"><ele>323.20000000000005</ele><time>2026-04-26T08:33:28Z</time></trkpt><trkpt lat="40.1345346035261" lon="15.59976709586253"><ele>324.6</ele><time>2026-04-26T08:33:29Z</time></trkpt><trkpt lat="40.1346337547767" lon="15.599736084661089"><ele>326.0</ele><time>2026-04-26T08:33:30Z</time></trkpt><trkpt lat="40.13470817131882" lon="15.599635946606348"><ele>326.0</ele><time>2026-04-26T08:33:31Z</time></trkpt><trkpt lat="40.134794142222795" lon="15.59958402624218"><ele>326.0</ele><time>2026-04-26T08:33:32Z</time></trkpt><trkpt lat="40.134869281511314" lon="15.599534494574764"><ele>326.0</ele><time>2026-04-26T08:33:33Z</time></trkpt><trkpt lat="40.134939360132634" lon="15.599524183423709"><ele>326.0</ele><time>2026-04-26T08:33:34Z</time></trkpt><trkpt lat="40.13499946379229" lon="15.599614956274221"><ele>326.0</ele><time>2026-04-26T08:33:35Z</time></trkpt><trkpt lat="40.1350501690001" lon="15.5997104292489"><ele>326.0</ele><time>2026-04-26T08:33:36Z</time></trkpt><trkpt lat="40.13509948698877" lon="15.599833409196691"><ele>327.5</ele><time>2026-04-26T08:33:37Z</time></trkpt><trkpt lat="40.13510627778548" lon="15.599990798166022"><ele>329.0</ele><time>2026-04-26T08:33:38Z</time></trkpt><trkpt lat="40.13508862871376" lon="15.600164480824724"><ele>330.5</ele><time>2026-04-26T08:33:39Z</time></trkpt><trkpt lat="40.13504443760061" lon="15.600333934115415"><ele>332.0</ele><time>2026-04-26T08:33:40Z</time></trkpt><trkpt lat="40.13498533713126" lon="15.600488208571383"><ele>333.20000000000005</ele><time>2026-04-26T08:33:41Z</time></trkpt><trkpt lat="40.13492871174004" lon="15.600637348422847"><ele>334.4</ele><time>2026-04-26T08:33:42Z</time></trkpt><trkpt lat="40.13487512243469" lon="15.600777487217092"><ele>335.6</ele><time>2026-04-26T08:33:43Z</time></trkpt><trkpt lat="40.1348238084593" lon="15.600895253548863"><ele>336.79999999999995</ele><time>2026-04-26T08:33:44Z</time></trkpt><trkpt lat="40.13475710859964" lon="15.600977655393242"><ele>338.0</ele><time>2026-04-26T08:33:45Z</time></trkpt><trkpt lat="40.134651898523096" lon="15.60102310947671"><ele>338.0</ele><time>2026-04-26T08:33:46Z</time></trkpt><trkpt lat="40.134527473907696" lon="15.601048153539693"><ele>338.0</ele><time>2026-04-26T08:33:47Z</time></trkpt><trkpt lat="40.13440663409542" lon="15.6010717182833"><ele>338.0</ele><time>2026-04-26T08:33:48Z</time></trkpt><trkpt lat="40.13428785980435" lon="15.601079523888787"><ele>338.0</ele><time>2026-04-26T08:33:49Z</time></trkpt><trkpt lat="40.13416960487813" lon="15.60103887566061"><ele>338.0</ele><time>2026-04-26T08:33:50Z</time></trkpt><trkpt lat="40.134064178506684" lon="15.600949551430219"><ele>338.0</ele><time>2026-04-26T08:33:51Z</time></trkpt><trkpt lat="40.13395648532905" lon="15.600878162466685"><ele>338.0</ele><time>2026-04-26T08:33:52Z</time></trkpt><trkpt lat="40.133856048311394" lon="15.600855687533727"><ele>338.0</ele><time>2026-04-26T08:33:53Z</time></trkpt><trkpt lat="40.133785434188844" lon="15.600863691443166"><ele>338.0</ele><time>2026-04-26T08:33:54Z</time></trkpt><trkpt lat="40.133689793314986" lon="15.600972504952031"><ele>337.4</ele><time>2026-04-26T08:33:56Z</time></trkpt><trkpt lat="40.133669913682574" lon="15.60108218987497"><ele>336.79999999999995</ele><time>2026-04-26T08:33:57Z</time></trkpt><trkpt lat="40.13367548218908" lon="15.60120965347034"><ele>336.2</ele><time>2026-04-26T08:33:58Z</time></trkpt><trkpt lat="40.133686332122046" lon="15.60134432028427"><ele>335.6</ele><time>2026-04-26T08:33:59Z</time></trkpt><trkpt lat="40.133674494807565" lon="15.601480344040784"><ele>335.0</ele><time>2026-04-26T08:34:00Z</time></trkpt><trkpt lat="40.13367534772159" lon="15.601639752193744"><ele>337.25</ele><time>2026-04-26T08:34:01Z</time></trkpt><trkpt lat="40.13365907074111" lon="15.60180603276389"><ele>339.5</ele><time>2026-04-26T08:34:02Z</time></trkpt><trkpt lat="40.13364219371192" lon="15.60196927776829"><ele>341.75</ele><time>2026-04-26T08:34:02.999Z</time></trkpt><trkpt lat="40.13363946629588" lon="15.602125744276044"><ele>344.0</ele><time>2026-04-26T08:34:03.999Z</time></trkpt><trkpt lat="40.133623250868226" lon="15.602262272172513"><ele>345.2</ele><time>2026-04-26T08:34:04.999Z</time></trkpt><trkpt lat="40.133629526114234" lon="15.602376602508384"><ele>346.4</ele><time>2026-04-26T08:34:05.999Z</time></trkpt><trkpt lat="40.13368641335961" lon="15.602465503908867"><ele>347.6</ele><time>2026-04-26T08:34:06.999Z</time></trkpt><trkpt lat="40.13378432646794" lon="15.602525946774305"><ele>348.8</ele><time>2026-04-26T08:34:07.999Z</time></trkpt><trkpt lat="40.13389278783396" lon="15.602593172269465"><ele>350.0</ele><time>2026-04-26T08:34:08.999Z</time></trkpt><trkpt lat="40.13400162293015" lon="15.602655629413992"><ele>352.0</ele><time>2026-04-26T08:34:09.999Z</time></trkpt><trkpt lat="40.1341273318926" lon="15.602706271614402"><ele>354.0</ele><time>2026-04-26T08:34:10.999Z</time></trkpt><trkpt lat="40.13426026866947" lon="15.60276998673478"><ele>356.0</ele><time>2026-04-26T08:34:11.999Z</time></trkpt><trkpt lat="40.13439878913379" lon="15.602824624485839"><ele>358.0</ele><time>2026-04-26T08:34:12.999Z</time></trkpt><trkpt lat="40.13454238758" lon="15.60285588432235"><ele>360.5</ele><time>2026-04-26T08:34:13.999Z</time></trkpt><trkpt lat="40.134690368401095" lon="15.602883875167365"><ele>363.0</ele><time>2026-04-26T08:34:14.999Z</time></trkpt><trkpt lat="40.13483146379416" lon="15.60289517817373"><ele>365.5</ele><time>2026-04-26T08:34:15.999Z</time></trkpt><trkpt lat="40.134951749395164" lon="15.602906360179626"><ele>368.0</ele><time>2026-04-26T08:34:16.999Z</time></trkpt><trkpt lat="40.13504790908319" lon="15.602946462860121"><ele>368.0</ele><time>2026-04-26T08:34:17.999Z</time></trkpt><trkpt lat="40.13512270663303" lon="15.603025023868332"><ele>368.0</ele><time>2026-04-26T08:34:18.999Z</time></trkpt><trkpt lat="40.13516486975712" lon="15.60316249270866"><ele>368.0</ele><time>2026-04-26T08:34:19.999Z</time></trkpt><trkpt lat="40.13521082281415" lon="15.603313310477455"><ele>368.0</ele><time>2026-04-26T08:34:20.999Z</time></trkpt><trkpt lat="40.13522072600707" lon="15.60345163490689"><ele>368.0</ele><time>2026-04-26T08:34:21.999Z</time></trkpt><trkpt lat="40.135178209281314" lon="15.603578954133086"><ele>368.6666666666667</ele><time>2026-04-26T08:34:22.999Z</time></trkpt><trkpt lat="40.13508920883492" lon="15.603698574540923"><ele>369.3333333333333</ele><time>2026-04-26T08:34:23.999Z</time></trkpt><trkpt lat="40.13500770383082" lon="15.603868243559004"><ele>370.0</ele><time>2026-04-26T08:34:24.999Z</time></trkpt><trkpt lat="40.134907614112905" lon="15.604063556288132"><ele>374.0</ele><time>2026-04-26T08:34:25.999Z</time></trkpt><trkpt lat="40.134802898863136" lon="15.604273232905763"><ele>378.0</ele><time>2026-04-26T08:34:26.999Z</time></trkpt><trkpt lat="40.13471201489217" lon="15.60444107771771"><ele>382.0</ele><time>2026-04-26T08:34:27.999Z</time></trkpt><trkpt lat="40.13463779437548" lon="15.60460116904224"><ele>382.75</ele><time>2026-04-26T08:34:28.999Z</time></trkpt><trkpt lat="40.13456492867598" lon="15.604766335113071"><ele>383.5</ele><time>2026-04-26T08:34:29.999Z</time></trkpt><trkpt lat="40.1344988529817" lon="15.604924833381425"><ele>384.25</ele><time>2026-04-26T08:34:30.999Z</time></trkpt><trkpt lat="40.13445762670273" lon="15.60507408316439"><ele>385.0</ele><time>2026-04-26T08:34:31.999Z</time></trkpt><trkpt lat="40.13443653708612" lon="15.605214654209806"><ele>386.5</ele><time>2026-04-26T08:34:32.999Z</time></trkpt><trkpt lat="40.1344540639966" lon="15.60535928489301"><ele>388.0</ele><time>2026-04-26T08:34:33.999Z</time></trkpt><trkpt lat="40.13452095984667" lon="15.605525399125789"><ele>389.5</ele><time>2026-04-26T08:34:34.999Z</time></trkpt><trkpt lat="40.134597264556405" lon="15.605705284407485"><ele>391.0</ele><time>2026-04-26T08:34:35.999Z</time></trkpt><trkpt lat="40.1346648210734" lon="15.605873172773864"><ele>391.0</ele><time>2026-04-26T08:34:36.999Z</time></trkpt><trkpt lat="40.134757354890226" lon="15.606020347437932"><ele>391.0</ele><time>2026-04-26T08:34:37.999Z</time></trkpt><trkpt lat="40.13485884361787" lon="15.606143041834688"><ele>391.0</ele><time>2026-04-26T08:34:38.999Z</time></trkpt><trkpt lat="40.134948270211154" lon="15.606250946053661"><ele>391.0</ele><time>2026-04-26T08:34:39.999Z</time></trkpt><trkpt lat="40.135038790604554" lon="15.606332530817989"><ele>394.0</ele><time>2026-04-26T08:34:40.999Z</time></trkpt><trkpt lat="40.13515284388613" lon="15.60634920801048"><ele>397.0</ele><time>2026-04-26T08:34:41.999Z</time></trkpt><trkpt lat="40.13527148862214" lon="15.606313855666906"><ele>400.0</ele><time>2026-04-26T08:34:42.999Z</time></trkpt><trkpt lat="40.135401064799" lon="15.60627425146328"><ele>403.0</ele><time>2026-04-26T08:34:43.999Z</time></trkpt><trkpt lat="40.13552381248744" lon="15.606229734964908"><ele>403.00000000000006</ele><time>2026-04-26T08:34:44.999Z</time></trkpt><trkpt lat="40.135624915468135" lon="15.606202374116158"><ele>403.0</ele><time>2026-04-26T08:34:45.999Z</time></trkpt><trkpt lat="40.135710000275324" lon="15.606216119854453"><ele>403.0</ele><time>2026-04-26T08:34:46.999Z</time></trkpt><trkpt lat="40.135785477281125" lon="15.606250854557974"><ele>403.0</ele><time>2026-04-26T08:34:47.999Z</time></trkpt><trkpt lat="40.13581336468519" lon="15.606354740110673"><ele>403.00000000000006</ele><time>2026-04-26T08:34:48.999Z</time></trkpt><trkpt lat="40.13580005866514" lon="15.606479326923022"><ele>403.0</ele><time>2026-04-26T08:34:49.999Z</time></trkpt><trkpt lat="40.13575159628544" lon="15.606600831071235"><ele>403.0</ele><time>2026-04-26T08:34:50.999Z</time></trkpt><trkpt lat="40.13567835203052" lon="15.606713927687064"><ele>403.0</ele><time>2026-04-26T08:34:51.999Z</time></trkpt><trkpt lat="40.13556979671712" lon="15.606820776969409"><ele>403.0</ele><time>2026-04-26T08:34:52.999Z</time></trkpt><trkpt lat="40.135458164781404" lon="15.606942377469547"><ele>403.0</ele><time>2026-04-26T08:34:53.999Z</time></trkpt><trkpt lat="40.13538216989554" lon="15.607101408115707"><ele>405.0</ele><time>2026-04-26T08:34:54.999Z</time></trkpt><trkpt lat="40.135332994093645" lon="15.607274133914322"><ele>407.0</ele><time>2026-04-26T08:34:55.999Z</time></trkpt><trkpt lat="40.135296072351316" lon="15.607436514280318"><ele>409.0</ele><time>2026-04-26T08:34:56.999Z</time></trkpt><trkpt lat="40.13525066711469" lon="15.607594467634094"><ele>411.0</ele><time>2026-04-26T08:34:57.999Z</time></trkpt><trkpt lat="40.13519169397668" lon="15.607754249894182"><ele>409.25</ele><time>2026-04-26T08:34:58.999Z</time></trkpt><trkpt lat="40.13512071688234" lon="15.607924518539178"><ele>407.5</ele><time>2026-04-26T08:34:59.999Z</time></trkpt><trkpt lat="40.135046605954635" lon="15.608096992070422"><ele>405.75</ele><time>2026-04-26T08:35:00.999Z</time></trkpt><trkpt lat="40.134976881023334" lon="15.608254403392113"><ele>404.0</ele><time>2026-04-26T08:35:01.999Z</time></trkpt><trkpt lat="40.134913773379324" lon="15.608407131080062"><ele>404.0</ele><time>2026-04-26T08:35:02.999Z</time></trkpt><trkpt lat="40.134861803408924" lon="15.608583012592048"><ele>404.0</ele><time>2026-04-26T08:35:03.999Z</time></trkpt><trkpt lat="40.13484343666503" lon="15.60877938127327"><ele>404.0</ele><time>2026-04-26T08:35:04.999Z</time></trkpt><trkpt lat="40.134863826765695" lon="15.60896870832619"><ele>404.0</ele><time>2026-04-26T08:35:05.999Z</time></trkpt><trkpt lat="40.13489397380321" lon="15.609123601173657"><ele>403.99999999999994</ele><time>2026-04-26T08:35:06.999Z</time></trkpt><trkpt lat="40.13491077433454" lon="15.609245285069827"><ele>404.0</ele><time>2026-04-26T08:35:07.999Z</time></trkpt><trkpt lat="40.1349366786902" lon="15.609338259429546"><ele>404.0</ele><time>2026-04-26T08:35:08.999Z</time></trkpt><trkpt lat="40.13496089825412" lon="15.609421035782896"><ele>404.0</ele><time>2026-04-26T08:35:09.999Z</time></trkpt><trkpt lat="40.13504449412399" lon="15.609476700798918"><ele>403.99999999999994</ele><time>2026-04-26T08:35:10.999Z</time></trkpt><trkpt lat="40.13515055814955" lon="15.609429606420333"><ele>404.0</ele><time>2026-04-26T08:35:11.999Z</time></trkpt><trkpt lat="40.13525469319783" lon="15.609372802557887"><ele>404.0</ele><time>2026-04-26T08:35:12.999Z</time></trkpt><trkpt lat="40.13537298014378" lon="15.609336605881493"><ele>404.0</ele><time>2026-04-26T08:35:14Z</time></trkpt><trkpt lat="40.13547582633861" lon="15.609285905061572"><ele>404.0</ele><time>2026-04-26T08:35:15Z</time></trkpt><trkpt lat="40.135564587847846" lon="15.609241304745465"><ele>404.0</ele><time>2026-04-26T08:35:16Z</time></trkpt><trkpt lat="40.13563967397288" lon="15.609190148529255"><ele>404.0</ele><time>2026-04-26T08:35:17Z</time></trkpt><trkpt lat="40.13567956430308" lon="15.60908824265968"><ele>404.0</ele><time>2026-04-26T08:35:18Z</time></trkpt><trkpt lat="40.13569227286358" lon="15.608977802978494"><ele>404.0</ele><time>2026-04-26T08:35:19Z</time></trkpt><trkpt lat="40.13566078346258" lon="15.608819644523454"><ele>404.0</ele><time>2026-04-26T08:35:20Z</time></trkpt><trkpt lat="40.135649160006544" lon="15.60868125152785"><ele>404.0</ele><time>2026-04-26T08:35:21Z</time></trkpt><trkpt lat="40.135671177207634" lon="15.608546272113841"><ele>404.0</ele><time>2026-04-26T08:35:22Z</time></trkpt><trkpt lat="40.13574495129586" lon="15.608421040609592"><ele>404.5</ele><time>2026-04-26T08:35:23Z</time></trkpt><trkpt lat="40.135819964680095" lon="15.608269987800295"><ele>405.0</ele><time>2026-04-26T08:35:24Z</time></trkpt><trkpt lat="40.135899228880334" lon="15.60810906832091"><ele>405.5</ele><time>2026-04-26T08:35:25Z</time></trkpt><trkpt lat="40.13597745144742" lon="15.607942962893748"><ele>406.0</ele><time>2026-04-26T08:35:26Z</time></trkpt><trkpt lat="40.13605564096753" lon="15.607807304167016"><ele>404.25</ele><time>2026-04-26T08:35:27Z</time></trkpt><trkpt lat="40.13614891969879" lon="15.607715213057636"><ele>402.5</ele><time>2026-04-26T08:35:28Z</time></trkpt><trkpt lat="40.136262954338065" lon="15.607640067302748"><ele>400.75</ele><time>2026-04-26T08:35:29Z</time></trkpt><trkpt lat="40.13637738244315" lon="15.607584104447499"><ele>399.0</ele><time>2026-04-26T08:35:30Z</time></trkpt><trkpt lat="40.136495448732305" lon="15.607563480972567"><ele>403.5</ele><time>2026-04-26T08:35:31Z</time></trkpt><trkpt lat="40.1366176452393" lon="15.607582558309218"><ele>408.0</ele><time>2026-04-26T08:35:32Z</time></trkpt><trkpt lat="40.136753331751756" lon="15.607614846437134"><ele>412.5</ele><time>2026-04-26T08:35:33Z</time></trkpt><trkpt lat="40.1368963782288" lon="15.607650271512366"><ele>417.0</ele><time>2026-04-26T08:35:34Z</time></trkpt><trkpt lat="40.1370175288593" lon="15.607715393605421"><ele>417.0</ele><time>2026-04-26T08:35:35Z</time></trkpt><trkpt lat="40.13712420156393" lon="15.607822012731143"><ele>417.0</ele><time>2026-04-26T08:35:36Z</time></trkpt><trkpt lat="40.13723857908418" lon="15.607940223580876"><ele>417.0</ele><time>2026-04-26T08:35:37Z</time></trkpt><trkpt lat="40.13729789105355" lon="15.60810424666744"><ele>417.0</ele><time>2026-04-26T08:35:38Z</time></trkpt><trkpt lat="40.13734033987324" lon="15.608274285953577"><ele>421.6</ele><time>2026-04-26T08:35:39Z</time></trkpt><trkpt lat="40.13738939657591" lon="15.608414304836991"><ele>426.20000000000005</ele><time>2026-04-26T08:35:40Z</time></trkpt><trkpt lat="40.13742840913108" lon="15.608508877389669"><ele>430.8</ele><time>2026-04-26T08:35:41Z</time></trkpt><trkpt lat="40.13749850157729" lon="15.608559324276037"><ele>435.4</ele><time>2026-04-26T08:35:42Z</time></trkpt><trkpt lat="40.13758617354177" lon="15.608524654528027"><ele>440.0</ele><time>2026-04-26T08:35:43Z</time></trkpt><trkpt lat="40.13767513716415" lon="15.608469469470096"><ele>440.0</ele><time>2026-04-26T08:35:44Z</time></trkpt><trkpt lat="40.13771013160264" lon="15.60828942604249"><ele>440.0</ele><time>2026-04-26T08:35:45Z</time></trkpt><trkpt lat="40.13772609976945" lon="15.608117386207175"><ele>440.0</ele><time>2026-04-26T08:35:46Z</time></trkpt><trkpt lat="40.13777075045146" lon="15.607935470784597"><ele>440.0</ele><time>2026-04-26T08:35:47Z</time></trkpt><trkpt lat="40.13780395007001" lon="15.607743617647664"><ele>437.0</ele><time>2026-04-26T08:35:48Z</time></trkpt><trkpt lat="40.13783640139117" lon="15.607579224170324"><ele>434.0</ele><time>2026-04-26T08:35:49Z</time></trkpt><trkpt lat="40.13787005892635" lon="15.607465565076627"><ele>431.0</ele><time>2026-04-26T08:35:50Z</time></trkpt><trkpt lat="40.137919944554596" lon="15.607389044851592"><ele>428.0</ele><time>2026-04-26T08:35:51Z</time></trkpt><trkpt lat="40.1380070059622" lon="15.6073684197013"><ele>425.0</ele><time>2026-04-26T08:35:52Z</time></trkpt><trkpt lat="40.138117532187806" lon="15.607398734752225"><ele>431.0</ele><time>2026-04-26T08:35:53Z</time></trkpt><trkpt lat="40.13824843080806" lon="15.607427545700894"><ele>437.0</ele><time>2026-04-26T08:35:54Z</time></trkpt><trkpt lat="40.138404233800664" lon="15.607453382387735"><ele>443.0</ele><time>2026-04-26T08:35:55Z</time></trkpt><trkpt lat="40.13856880027715" lon="15.607520416122867"><ele>443.0</ele><time>2026-04-26T08:35:56Z</time></trkpt><trkpt lat="40.13870257990943" lon="15.607568352637234"><ele>442.99999999999994</ele><time>2026-04-26T08:35:57Z</time></trkpt><trkpt lat="40.13880844533686" lon="15.607600541627331"><ele>442.99999999999994</ele><time>2026-04-26T08:35:58Z</time></trkpt><trkpt lat="40.138899347947934" lon="15.607615880053073"><ele>443.0</ele><time>2026-04-26T08:35:59Z</time></trkpt><trkpt lat="40.138981898979" lon="15.607594169451813"><ele>443.0</ele><time>2026-04-26T08:36:00Z</time></trkpt><trkpt lat="40.13904861529674" lon="15.607518331585961"><ele>440.5</ele><time>2026-04-26T08:36:01Z</time></trkpt><trkpt lat="40.13909427360317" lon="15.607403502394902"><ele>438.0</ele><time>2026-04-26T08:36:02Z</time></trkpt><trkpt lat="40.13909840634074" lon="15.607255500917526"><ele>435.5</ele><time>2026-04-26T08:36:03Z</time></trkpt><trkpt lat="40.1390674827197" lon="15.607085290014279"><ele>433.0</ele><time>2026-04-26T08:36:04Z</time></trkpt><trkpt lat="40.13902523881943" lon="15.606886970838547"><ele>433.0</ele><time>2026-04-26T08:36:05Z</time></trkpt><trkpt lat="40.13897602035188" lon="15.606701880353851"><ele>433.0</ele><time>2026-04-26T08:36:06Z</time></trkpt><trkpt lat="40.13892035848219" lon="15.606560092898555"><ele>433.0</ele><time>2026-04-26T08:36:07Z</time></trkpt><trkpt lat="40.13885380185211" lon="15.606452231955753"><ele>433.0</ele><time>2026-04-26T08:36:08Z</time></trkpt><trkpt lat="40.13877710489005" lon="15.60636712407905"><ele>433.0</ele><time>2026-04-26T08:36:08.999Z</time></trkpt><trkpt lat="40.13872673106975" lon="15.606280270069439"><ele>432.99999999999994</ele><time>2026-04-26T08:36:09.999Z</time></trkpt><trkpt lat="40.13868309281439" lon="15.606207263148974"><ele>432.99999999999994</ele><time>2026-04-26T08:36:10.999Z</time></trkpt><trkpt lat="40.138674660700545" lon="15.606069954725486"><ele>433.0</ele><time>2026-04-26T08:36:12.999Z</time></trkpt><trkpt lat="40.138776133154245" lon="15.605991082174041"><ele>433.0</ele><time>2026-04-26T08:36:14.999Z</time></trkpt><trkpt lat="40.138843664520465" lon="15.606026026041583"><ele>433.83333333333337</ele><time>2026-04-26T08:36:15.999Z</time></trkpt><trkpt lat="40.13891201761889" lon="15.606060056455027"><ele>434.6666666666667</ele><time>2026-04-26T08:36:16.999Z</time></trkpt><trkpt lat="40.13899296023707" lon="15.606072628953017"><ele>435.5</ele><time>2026-04-26T08:36:17.999Z</time></trkpt><trkpt lat="40.13906916537336" lon="15.606108106389161"><ele>436.33333333333337</ele><time>2026-04-26T08:36:18.999Z</time></trkpt><trkpt lat="40.139127079000076" lon="15.606160927569514"><ele>437.1666666666667</ele><time>2026-04-26T08:36:19.999Z</time></trkpt><trkpt lat="40.139190559544616" lon="15.606201051261342"><ele>438.0</ele><time>2026-04-26T08:36:20.999Z</time></trkpt><trkpt lat="40.13925810391862" lon="15.606247661907164"><ele>440.8333333333333</ele><time>2026-04-26T08:36:21.999Z</time></trkpt><trkpt lat="40.139326436188554" lon="15.606297511334628"><ele>443.66666666666663</ele><time>2026-04-26T08:36:22.999Z</time></trkpt><trkpt lat="40.13939644772815" lon="15.606354670617765"><ele>446.5</ele><time>2026-04-26T08:36:23.999Z</time></trkpt><trkpt lat="40.139466471658565" lon="15.60642484064139"><ele>449.3333333333333</ele><time>2026-04-26T08:36:24.999Z</time></trkpt><trkpt lat="40.139529520713715" lon="15.606507600075672"><ele>452.16666666666663</ele><time>2026-04-26T08:36:25.999Z</time></trkpt><trkpt lat="40.139581357646364" lon="15.60660710311498"><ele>455.0</ele><time>2026-04-26T08:36:26.999Z</time></trkpt><trkpt lat="40.13962428562095" lon="15.60671878618745"><ele>455.0</ele><time>2026-04-26T08:36:27.999Z</time></trkpt><trkpt lat="40.13967994416114" lon="15.606831509072805"><ele>455.0</ele><time>2026-04-26T08:36:28.999Z</time></trkpt><trkpt lat="40.13972190472831" lon="15.606947999523749"><ele>455.0</ele><time>2026-04-26T08:36:29.999Z</time></trkpt><trkpt lat="40.13976082514859" lon="15.607061285295915"><ele>455.0</ele><time>2026-04-26T08:36:30.999Z</time></trkpt><trkpt lat="40.1397979315075" lon="15.60717011937549"><ele>455.0</ele><time>2026-04-26T08:36:31.999Z</time></trkpt><trkpt lat="40.139833094196554" lon="15.607272372923466"><ele>454.8333333333333</ele><time>2026-04-26T08:36:32.999Z</time></trkpt><trkpt lat="40.13986373770869" lon="15.607381947517302"><ele>454.66666666666663</ele><time>2026-04-26T08:36:33.999Z</time></trkpt><trkpt lat="40.13988583266968" lon="15.60749249227582"><ele>454.5</ele><time>2026-04-26T08:36:34.999Z</time></trkpt><trkpt lat="40.13990132914214" lon="15.607600438361422"><ele>454.33333333333337</ele><time>2026-04-26T08:36:35.999Z</time></trkpt><trkpt lat="40.13990868927832" lon="15.60769756834592"><ele>454.1666666666667</ele><time>2026-04-26T08:36:36.999Z</time></trkpt><trkpt lat="40.13991437142071" lon="15.6077985763414"><ele>454.0</ele><time>2026-04-26T08:36:37.999Z</time></trkpt><trkpt lat="40.139908448406274" lon="15.607900790910218"><ele>457.6666666666667</ele><time>2026-04-26T08:36:38.999Z</time></trkpt><trkpt lat="40.139884534002064" lon="15.607986474488056"><ele>461.33333333333337</ele><time>2026-04-26T08:36:39.999Z</time></trkpt><trkpt lat="40.13983358887354" lon="15.608054207477466"><ele>465.0</ele><time>2026-04-26T08:36:40.999Z</time></trkpt><trkpt lat="40.139745964667185" lon="15.608075390095452"><ele>468.66666666666663</ele><time>2026-04-26T08:36:41.999Z</time></trkpt><trkpt lat="40.139658268189464" lon="15.60811811225577"><ele>472.3333333333333</ele><time>2026-04-26T08:36:42.999Z</time></trkpt><trkpt lat="40.139560060609824" lon="15.608148072887621"><ele>476.0</ele><time>2026-04-26T08:36:43.999Z</time></trkpt><trkpt lat="40.13946017624846" lon="15.60818527746647"><ele>476.0</ele><time>2026-04-26T08:36:44.999Z</time></trkpt><trkpt lat="40.13935116049806" lon="15.608225918969389"><ele>476.0</ele><time>2026-04-26T08:36:45.999Z</time></trkpt><trkpt lat="40.13923341104244" lon="15.608269261593662"><ele>476.0</ele><time>2026-04-26T08:36:46.999Z</time></trkpt><trkpt lat="40.13911327455262" lon="15.60830958001323"><ele>476.0</ele><time>2026-04-26T08:36:47.999Z</time></trkpt><trkpt lat="40.139006642278936" lon="15.608332368648673"><ele>473.3333333333333</ele><time>2026-04-26T08:36:48.999Z</time></trkpt><trkpt lat="40.13891753622949" lon="15.608338977977766"><ele>470.66666666666663</ele><time>2026-04-26T08:36:49.999Z</time></trkpt><trkpt lat="40.138841365380735" lon="15.608344601751016"><ele>468.0</ele><time>2026-04-26T08:36:50.999Z</time></trkpt><trkpt lat="40.138777465915474" lon="15.608369917624662"><ele>465.33333333333337</ele><time>2026-04-26T08:36:51.999Z</time></trkpt><trkpt lat="40.13871515455705" lon="15.60842100785499"><ele>462.6666666666667</ele><time>2026-04-26T08:36:52.999Z</time></trkpt><trkpt lat="40.13866279239392" lon="15.6084897511813"><ele>460.0</ele><time>2026-04-26T08:36:53.999Z</time></trkpt><trkpt lat="40.13862951419203" lon="15.60859152713099"><ele>460.83333333333337</ele><time>2026-04-26T08:36:54.999Z</time></trkpt><trkpt lat="40.13861854515726" lon="15.608712366418692"><ele>461.6666666666667</ele><time>2026-04-26T08:36:55.999Z</time></trkpt><trkpt lat="40.138621708784875" lon="15.608831928590227"><ele>462.5</ele><time>2026-04-26T08:36:56.999Z</time></trkpt><trkpt lat="40.13863895237318" lon="15.608942629849201"><ele>463.33333333333337</ele><time>2026-04-26T08:36:57.999Z</time></trkpt><trkpt lat="40.13867244772272" lon="15.609043366737309"><ele>464.1666666666667</ele><time>2026-04-26T08:36:58.999Z</time></trkpt><trkpt lat="40.1387164372937" lon="15.609128726019545"><ele>465.0</ele><time>2026-04-26T08:36:59.999Z</time></trkpt><trkpt lat="40.13876289040753" lon="15.609201449990488"><ele>465.0</ele><time>2026-04-26T08:37:00.999Z</time></trkpt><trkpt lat="40.13880645791812" lon="15.609269661944333"><ele>465.0</ele><time>2026-04-26T08:37:01.999Z</time></trkpt><trkpt lat="40.13884722999807" lon="15.609334445410994"><ele>465.0</ele><time>2026-04-26T08:37:02.999Z</time></trkpt><trkpt lat="40.13888835069593" lon="15.609403404900073"><ele>465.0</ele><time>2026-04-26T08:37:03.999Z</time></trkpt><trkpt lat="40.13896083444964" lon="15.609517599996826"><ele>465.0</ele><time>2026-04-26T08:37:05.999Z</time></trkpt><trkpt lat="40.13906138363212" lon="15.60951881264744"><ele>465.0</ele><time>2026-04-26T08:37:07.999Z</time></trkpt><trkpt lat="40.13910643297835" lon="15.609354300896868"><ele>465.0</ele><time>2026-04-26T08:37:09.999Z</time></trkpt><trkpt lat="40.13908806807401" lon="15.609250264832465"><ele>465.0</ele><time>2026-04-26T08:37:10.999Z</time></trkpt><trkpt lat="40.13906114734102" lon="15.609160333487667"><ele>465.0</ele><time>2026-04-26T08:37:11.999Z</time></trkpt><trkpt lat="40.13902648439002" lon="15.609033592690295"><ele>465.0</ele><time>2026-04-26T08:37:13.999Z</time></trkpt><trkpt lat="40.13907293968962" lon="15.608901236544627"><ele>465.0</ele><time>2026-04-26T08:37:15.999Z</time></trkpt><trkpt lat="40.13914009716891" lon="15.608873659564642"><ele>465.0</ele><time>2026-04-26T08:37:16.999Z</time></trkpt><trkpt lat="40.139219572176906" lon="15.608871934589287"><ele>472.0</ele><time>2026-04-26T08:37:17.999Z</time></trkpt><trkpt lat="40.139305322456515" lon="15.608903037327112"><ele>479.0</ele><time>2026-04-26T08:37:18.999Z</time></trkpt><trkpt lat="40.13941446723218" lon="15.60891029006013"><ele>486.0</ele><time>2026-04-26T08:37:20Z</time></trkpt><trkpt lat="40.13954281123026" lon="15.608920800676232"><ele>493.0</ele><time>2026-04-26T08:37:21Z</time></trkpt><trkpt lat="40.1396698054858" lon="15.60893513297144"><ele>493.0</ele><time>2026-04-26T08:37:22Z</time></trkpt><trkpt lat="40.13979562503057" lon="15.608956629928002"><ele>492.99999999999994</ele><time>2026-04-26T08:37:23Z</time></trkpt><trkpt lat="40.13990183568958" lon="15.608976698679397"><ele>492.99999999999994</ele><time>2026-04-26T08:37:24Z</time></trkpt><trkpt lat="40.13998775019567" lon="15.608992943394838"><ele>493.0</ele><time>2026-04-26T08:37:25Z</time></trkpt><trkpt lat="40.14006298803813" lon="15.609005198795378"><ele>493.0</ele><time>2026-04-26T08:37:26Z</time></trkpt><trkpt lat="40.14016230514339" lon="15.609021376430753"><ele>496.2</ele><time>2026-04-26T08:37:27Z</time></trkpt><trkpt lat="40.14027912269373" lon="15.60904485004105"><ele>499.4</ele><time>2026-04-26T08:37:28Z</time></trkpt><trkpt lat="40.140392646553984" lon="15.60906576800339"><ele>502.59999999999997</ele><time>2026-04-26T08:37:29Z</time></trkpt><trkpt lat="40.14048417897785" lon="15.609073889206083"><ele>505.79999999999995</ele><time>2026-04-26T08:37:30Z</time></trkpt><trkpt lat="40.14054934549568" lon="15.609057947227274"><ele>509.0</ele><time>2026-04-26T08:37:31Z</time></trkpt><trkpt lat="40.14061623104125" lon="15.60908840002658"><ele>509.0</ele><time>2026-04-26T08:37:34Z</time></trkpt><trkpt lat="40.14053284771317" lon="15.609186455297204"><ele>509.0</ele><time>2026-04-26T08:37:41Z</time></trkpt><trkpt lat="40.14039867507427" lon="15.609165703789735"><ele>509.0</ele><time>2026-04-26T08:37:42Z</time></trkpt><trkpt lat="40.1402537418681" lon="15.609153093212395"><ele>509.0</ele><time>2026-04-26T08:37:43Z</time></trkpt><trkpt lat="40.14010757754099" lon="15.609140096606573"><ele>509.0</ele><time>2026-04-26T08:37:44Z</time></trkpt><trkpt lat="40.13997381924982" lon="15.609127943430014"><ele>509.0</ele><time>2026-04-26T08:37:45Z</time></trkpt><trkpt lat="40.13985382985004" lon="15.609117857674157"><ele>509.0</ele><time>2026-04-26T08:37:46Z</time></trkpt><trkpt lat="40.139755741399476" lon="15.60912332348947"><ele>509.0</ele><time>2026-04-26T08:37:47Z</time></trkpt><trkpt lat="40.13967838003182" lon="15.609143750441783"><ele>509.0</ele><time>2026-04-26T08:37:48Z</time></trkpt><trkpt lat="40.139619860224194" lon="15.609201889888102"><ele>507.0</ele><time>2026-04-26T08:37:49Z</time></trkpt><trkpt lat="40.139594723561636" lon="15.609313324850437"><ele>505.0</ele><time>2026-04-26T08:37:50Z</time></trkpt><trkpt lat="40.1396055350847" lon="15.609470672463353"><ele>503.0</ele><time>2026-04-26T08:37:51Z</time></trkpt><trkpt lat="40.13964273159377" lon="15.609662580645564"><ele>501.0</ele><time>2026-04-26T08:37:52Z</time></trkpt><trkpt lat="40.13966521481533" lon="15.609850846869369"><ele>501.0</ele><time>2026-04-26T08:37:53Z</time></trkpt><trkpt lat="40.13965988444278" lon="15.610029475866707"><ele>501.0</ele><time>2026-04-26T08:37:54Z</time></trkpt><trkpt lat="40.13964071258468" lon="15.610217083801714"><ele>501.0</ele><time>2026-04-26T08:37:55Z</time></trkpt><trkpt lat="40.13963132460035" lon="15.610389589679212"><ele>501.0</ele><time>2026-04-26T08:37:56Z</time></trkpt><trkpt lat="40.139627169403575" lon="15.610542830516751"><ele>504.25</ele><time>2026-04-26T08:37:57Z</time></trkpt><trkpt lat="40.13961122103963" lon="15.610681949015666"><ele>507.5</ele><time>2026-04-26T08:37:58Z</time></trkpt><trkpt lat="40.13957624016196" lon="15.61081485551753"><ele>510.75</ele><time>2026-04-26T08:37:59Z</time></trkpt><trkpt lat="40.13949640167212" lon="15.610946212468052"><ele>514.0</ele><time>2026-04-26T08:38:00Z</time></trkpt><trkpt lat="40.13938283172979" lon="15.611065511148318"><ele>514.0</ele><time>2026-04-26T08:38:01Z</time></trkpt><trkpt lat="40.1393060779573" lon="15.611147570565494"><ele>514.0</ele><time>2026-04-26T08:38:02Z</time></trkpt><trkpt lat="40.13925829874199" lon="15.611214726327905"><ele>514.0</ele><time>2026-04-26T08:38:03Z</time></trkpt><trkpt lat="40.13921902718664" lon="15.611422345438122"><ele>514.0</ele><time>2026-04-26T08:38:05Z</time></trkpt><trkpt lat="40.13920167099359" lon="15.61155099562478"><ele>514.0</ele><time>2026-04-26T08:38:06Z</time></trkpt><trkpt lat="40.13917607709772" lon="15.611676272742912"><ele>516.2</ele><time>2026-04-26T08:38:07Z</time></trkpt><trkpt lat="40.13914055153251" lon="15.611806230893308"><ele>518.4</ele><time>2026-04-26T08:38:08Z</time></trkpt><trkpt lat="40.13908872216954" lon="15.61192752839595"><ele>520.6</ele><time>2026-04-26T08:38:09Z</time></trkpt><trkpt lat="40.13902598855707" lon="15.612051136524272"><ele>522.8</ele><time>2026-04-26T08:38:10Z</time></trkpt><trkpt lat="40.13895932370917" lon="15.61218277608597"><ele>525.0</ele><time>2026-04-26T08:38:11Z</time></trkpt><trkpt lat="40.1388979321095" lon="15.61232457685302"><ele>526.0</ele><time>2026-04-26T08:38:12Z</time></trkpt><trkpt lat="40.13883593790193" lon="15.61247059974457"><ele>527.0</ele><time>2026-04-26T08:38:13Z</time></trkpt><trkpt lat="40.13877557401089" lon="15.612628854256922"><ele>528.0</ele><time>2026-04-26T08:38:14Z</time></trkpt><trkpt lat="40.138725254482786" lon="15.61279852996535"><ele>529.0</ele><time>2026-04-26T08:38:15Z</time></trkpt><trkpt lat="40.13869562171777" lon="15.612983561832785"><ele>530.0</ele><time>2026-04-26T08:38:16Z</time></trkpt><trkpt lat="40.13866603134355" lon="15.613173912015208"><ele>531.0</ele><time>2026-04-26T08:38:17Z</time></trkpt><trkpt lat="40.13861599911587" lon="15.613358459546772"><ele>532.0</ele><time>2026-04-26T08:38:18Z</time></trkpt><trkpt lat="40.13854864750612" lon="15.613528326996779"><ele>533.0</ele><time>2026-04-26T08:38:19Z</time></trkpt><trkpt lat="40.13849096475602" lon="15.613701134118376"><ele>535.3333333333333</ele><time>2026-04-26T08:38:20Z</time></trkpt><trkpt lat="40.13845142271735" lon="15.613896681273694"><ele>537.6666666666666</ele><time>2026-04-26T08:38:21Z</time></trkpt><trkpt lat="40.13841995609738" lon="15.614100100005146"><ele>540.0</ele><time>2026-04-26T08:38:22Z</time></trkpt><trkpt lat="40.1383933482118" lon="15.61430950593061"><ele>543.3333333333334</ele><time>2026-04-26T08:38:23Z</time></trkpt><trkpt lat="40.13836148821107" lon="15.614522320826099"><ele>546.6666666666667</ele><time>2026-04-26T08:38:23.999Z</time></trkpt><trkpt lat="40.138325013203456" lon="15.614725566926763"><ele>550.0</ele><time>2026-04-26T08:38:24.999Z</time></trkpt><trkpt lat="40.13829824904715" lon="15.614925206882402"><ele>550.0</ele><time>2026-04-26T08:38:25.999Z</time></trkpt><trkpt lat="40.13827629428152" lon="15.61509466933636"><ele>550.0</ele><time>2026-04-26T08:38:26.999Z</time></trkpt><trkpt lat="40.13825652586383" lon="15.615253584436669"><ele>550.0</ele><time>2026-04-26T08:38:27.999Z</time></trkpt><trkpt lat="40.13824294963405" lon="15.615427513842"><ele>550.0</ele><time>2026-04-26T08:38:28.999Z</time></trkpt><trkpt lat="40.138262592368484" lon="15.615610777414224"><ele>552.0</ele><time>2026-04-26T08:38:29.999Z</time></trkpt><trkpt lat="40.13828911225908" lon="15.61578758573232"><ele>554.0</ele><time>2026-04-26T08:38:30.999Z</time></trkpt><trkpt lat="40.13829564650232" lon="15.615975616732579"><ele>556.0</ele><time>2026-04-26T08:38:31.999Z</time></trkpt><trkpt lat="40.13827291233319" lon="15.616159604119424"><ele>558.0</ele><time>2026-04-26T08:38:32.999Z</time></trkpt><trkpt lat="40.1382087043696" lon="15.616330425670737"><ele>563.3333333333334</ele><time>2026-04-26T08:38:33.999Z</time></trkpt><trkpt lat="40.13814993532281" lon="15.616533034711873"><ele>568.6666666666667</ele><time>2026-04-26T08:38:34.999Z</time></trkpt><trkpt lat="40.13807460563239" lon="15.61673302867549"><ele>574.0</ele><time>2026-04-26T08:38:35.999Z</time></trkpt><trkpt lat="40.13800596597927" lon="15.616936569922048"><ele>576.0</ele><time>2026-04-26T08:38:36.999Z</time></trkpt><trkpt lat="40.13793720114182" lon="15.617153475814073"><ele>578.0</ele><time>2026-04-26T08:38:37.999Z</time></trkpt><trkpt lat="40.13787493540357" lon="15.617354053093187"><ele>580.0</ele><time>2026-04-26T08:38:38.999Z</time></trkpt><trkpt lat="40.13781536390252" lon="15.617532742469752"><ele>580.0</ele><time>2026-04-26T08:38:39.999Z</time></trkpt><trkpt lat="40.137748802659814" lon="15.617717607801122"><ele>580.0</ele><time>2026-04-26T08:38:40.999Z</time></trkpt><trkpt lat="40.13766991999814" lon="15.617919529943402"><ele>580.0</ele><time>2026-04-26T08:38:41.999Z</time></trkpt><trkpt lat="40.137599393222224" lon="15.618112798303795"><ele>581.75</ele><time>2026-04-26T08:38:42.999Z</time></trkpt><trkpt lat="40.13754306707057" lon="15.618271957298733"><ele>583.5</ele><time>2026-04-26T08:38:43.999Z</time></trkpt><trkpt lat="40.137491492234986" lon="15.618423654757944"><ele>585.25</ele><time>2026-04-26T08:38:44.999Z</time></trkpt><trkpt lat="40.137448721983205" lon="15.618593246927425"><ele>587.0</ele><time>2026-04-26T08:38:45.999Z</time></trkpt><trkpt lat="40.1374117678499" lon="15.618786021745702"><ele>585.5</ele><time>2026-04-26T08:38:46.999Z</time></trkpt><trkpt lat="40.137384076974854" lon="15.618963904066788"><ele>584.0</ele><time>2026-04-26T08:38:47.999Z</time></trkpt><trkpt lat="40.13735345940811" lon="15.619126121995372"><ele>582.5</ele><time>2026-04-26T08:38:48.999Z</time></trkpt><trkpt lat="40.13731942731556" lon="15.619273232898683"><ele>581.0</ele><time>2026-04-26T08:38:49.999Z</time></trkpt><trkpt lat="40.137279069832736" lon="15.619394928989006"><ele>584.2</ele><time>2026-04-26T08:38:50.999Z</time></trkpt><trkpt lat="40.13722612124882" lon="15.61951054875631"><ele>587.4000000000001</ele><time>2026-04-26T08:38:51.999Z</time></trkpt><trkpt lat="40.13714839163372" lon="15.619639546803795"><ele>590.6</ele><time>2026-04-26T08:38:52.999Z</time></trkpt><trkpt lat="40.13708164599999" lon="15.619761319068294"><ele>593.8000000000001</ele><time>2026-04-26T08:38:53.999Z</time></trkpt><trkpt lat="40.13704116485105" lon="15.619877052639234"><ele>597.0</ele><time>2026-04-26T08:38:54.999Z</time></trkpt><trkpt lat="40.13704405117097" lon="15.620002440821944"><ele>597.0</ele><time>2026-04-26T08:38:55.999Z</time></trkpt><trkpt lat="40.13707802710873" lon="15.620106173829027"><ele>597.0</ele><time>2026-04-26T08:38:56.999Z</time></trkpt><trkpt lat="40.137135865301126" lon="15.620170082763401"><ele>597.0</ele><time>2026-04-26T08:38:57.999Z</time></trkpt><trkpt lat="40.13721396243543" lon="15.620200025530506"><ele>597.0</ele><time>2026-04-26T08:38:58.999Z</time></trkpt><trkpt lat="40.13729829898267" lon="15.620243105358668"><ele>597.0</ele><time>2026-04-26T08:38:59.999Z</time></trkpt><trkpt lat="40.137369168398074" lon="15.620279568684568"><ele>597.0</ele><time>2026-04-26T08:39:00.999Z</time></trkpt><trkpt lat="40.137420876133575" lon="15.62034355300147"><ele>598.4</ele><time>2026-04-26T08:39:01.999Z</time></trkpt><trkpt lat="40.13741920413844" lon="15.620469063879511"><ele>599.8000000000001</ele><time>2026-04-26T08:39:02.999Z</time></trkpt><trkpt lat="40.13737735695955" lon="15.620586320943326"><ele>601.2</ele><time>2026-04-26T08:39:03.999Z</time></trkpt><trkpt lat="40.13730627124554" lon="15.620681182195813"><ele>602.6</ele><time>2026-04-26T08:39:04.999Z</time></trkpt><trkpt lat="40.13721392205552" lon="15.620744561334478"><ele>604.0</ele><time>2026-04-26T08:39:05.999Z</time></trkpt><trkpt lat="40.13709522723952" lon="15.620746561016544"><ele>606.5</ele><time>2026-04-26T08:39:06.999Z</time></trkpt><trkpt lat="40.13696738240831" lon="15.620784081222697"><ele>609.0</ele><time>2026-04-26T08:39:07.999Z</time></trkpt><trkpt lat="40.136853374593535" lon="15.62079504622771"><ele>611.5</ele><time>2026-04-26T08:39:08.999Z</time></trkpt><trkpt lat="40.13674431695666" lon="15.620812664404445"><ele>614.0</ele><time>2026-04-26T08:39:09.999Z</time></trkpt><trkpt lat="40.13663971059471" lon="15.620846029045437"><ele>613.0</ele><time>2026-04-26T08:39:10.999Z</time></trkpt><trkpt lat="40.13655084263088" lon="15.620890400855956"><ele>612.0</ele><time>2026-04-26T08:39:11.999Z</time></trkpt><trkpt lat="40.13645239541712" lon="15.62095972182164"><ele>611.0</ele><time>2026-04-26T08:39:12.999Z</time></trkpt><trkpt lat="40.13634027093929" lon="15.621064270987718"><ele>610.0</ele><time>2026-04-26T08:39:13.999Z</time></trkpt><trkpt lat="40.136244296413174" lon="15.621148366294943"><ele>611.8</ele><time>2026-04-26T08:39:14.999Z</time></trkpt><trkpt lat="40.13615060975635" lon="15.621224348363343"><ele>613.6</ele><time>2026-04-26T08:39:15.999Z</time></trkpt><trkpt lat="40.13606233591318" lon="15.62130211385514"><ele>615.4</ele><time>2026-04-26T08:39:16.999Z</time></trkpt><trkpt lat="40.13599070941409" lon="15.621364970844915"><ele>617.2</ele><time>2026-04-26T08:39:17.999Z</time></trkpt><trkpt lat="40.13593584801373" lon="15.621418389280791"><ele>619.0</ele><time>2026-04-26T08:39:18.999Z</time></trkpt><trkpt lat="40.13594153002441" lon="15.62159444511096"><ele>619.0</ele><time>2026-04-26T08:39:20.999Z</time></trkpt><trkpt lat="40.136008302635055" lon="15.621693832081036"><ele>619.0</ele><time>2026-04-26T08:39:21.999Z</time></trkpt><trkpt lat="40.13610499577751" lon="15.621801126132745"><ele>619.0</ele><time>2026-04-26T08:39:22.999Z</time></trkpt><trkpt lat="40.13619847976376" lon="15.621895478363813"><ele>619.0</ele><time>2026-04-26T08:39:23.999Z</time></trkpt><trkpt lat="40.13630184496811" lon="15.621979143510204"><ele>617.75</ele><time>2026-04-26T08:39:24.999Z</time></trkpt><trkpt lat="40.13642104784895" lon="15.622055108495124"><ele>616.5</ele><time>2026-04-26T08:39:26Z</time></trkpt><trkpt lat="40.136549293248564" lon="15.622115869505464"><ele>615.25</ele><time>2026-04-26T08:39:27Z</time></trkpt><trkpt lat="40.136666371660176" lon="15.622187948460365"><ele>614.0</ele><time>2026-04-26T08:39:28Z</time></trkpt><trkpt lat="40.136773233617646" lon="15.62224323750847"><ele>617.25</ele><time>2026-04-26T08:39:29Z</time></trkpt><trkpt lat="40.13688952429568" lon="15.62229050312896"><ele>620.5</ele><time>2026-04-26T08:39:30Z</time></trkpt><trkpt lat="40.137010198331886" lon="15.622384330818914"><ele>623.75</ele><time>2026-04-26T08:39:31Z</time></trkpt><trkpt lat="40.137121191089584" lon="15.622484290784971"><ele>627.0</ele><time>2026-04-26T08:39:32Z</time></trkpt><trkpt lat="40.13720604448642" lon="15.622588628536972"><ele>627.0</ele><time>2026-04-26T08:39:33Z</time></trkpt><trkpt lat="40.137270835361" lon="15.62271827859345"><ele>627.0</ele><time>2026-04-26T08:39:34Z</time></trkpt><trkpt lat="40.13731734898351" lon="15.622861322716291"><ele>627.0</ele><time>2026-04-26T08:39:35Z</time></trkpt><trkpt lat="40.13734671256078" lon="15.62302261568331"><ele>627.0</ele><time>2026-04-26T08:39:36Z</time></trkpt><trkpt lat="40.1373596376432" lon="15.623203517068262"><ele>629.0</ele><time>2026-04-26T08:39:37Z</time></trkpt><trkpt lat="40.137379621413274" lon="15.623380626027537"><ele>631.0</ele><time>2026-04-26T08:39:38Z</time></trkpt><trkpt lat="40.13739849615038" lon="15.623559115689664"><ele>633.0</ele><time>2026-04-26T08:39:39Z</time></trkpt><trkpt lat="40.137412098354616" lon="15.623751465090258"><ele>635.0</ele><time>2026-04-26T08:39:40Z</time></trkpt><trkpt lat="40.137427813742526" lon="15.623961733805714"><ele>639.3333333333333</ele><time>2026-04-26T08:39:41Z</time></trkpt><trkpt lat="40.13746221211767" lon="15.624176124688379"><ele>643.6666666666666</ele><time>2026-04-26T08:39:42Z</time></trkpt><trkpt lat="40.13751382131598" lon="15.624366295817076"><ele>648.0</ele><time>2026-04-26T08:39:43Z</time></trkpt><trkpt lat="40.137563896353676" lon="15.624543249963015"><ele>648.75</ele><time>2026-04-26T08:39:44Z</time></trkpt><trkpt lat="40.137602710966696" lon="15.624699047577126"><ele>649.5</ele><time>2026-04-26T08:39:45Z</time></trkpt><trkpt lat="40.13763999024234" lon="15.624854827601157"><ele>650.25</ele><time>2026-04-26T08:39:46Z</time></trkpt><trkpt lat="40.13768348345078" lon="15.625004002348964"><ele>651.0</ele><time>2026-04-26T08:39:47Z</time></trkpt><trkpt lat="40.13774312983165" lon="15.62513391889266"><ele>651.0</ele><time>2026-04-26T08:39:48Z</time></trkpt><trkpt lat="40.137778840110386" lon="15.625239697714589"><ele>651.0</ele><time>2026-04-26T08:39:49Z</time></trkpt><trkpt lat="40.137801579997365" lon="15.625366048403864"><ele>651.0</ele><time>2026-04-26T08:39:50Z</time></trkpt><trkpt lat="40.137806950892795" lon="15.625497107335516"><ele>651.0</ele><time>2026-04-26T08:39:51Z</time></trkpt><trkpt lat="40.13774967491245" lon="15.625645904503568"><ele>651.0</ele><time>2026-04-26T08:39:52Z</time></trkpt><trkpt lat="40.137675553185694" lon="15.625800943434287"><ele>651.8</ele><time>2026-04-26T08:39:53Z</time></trkpt><trkpt lat="40.13760779439016" lon="15.625940116659763"><ele>652.5999999999999</ele><time>2026-04-26T08:39:54Z</time></trkpt><trkpt lat="40.13754405432179" lon="15.626046063942278"><ele>653.4</ele><time>2026-04-26T08:39:55Z</time></trkpt><trkpt lat="40.13748562316476" lon="15.626160527063222"><ele>654.2</ele><time>2026-04-26T08:39:56Z</time></trkpt><trkpt lat="40.13746131622518" lon="15.626298573163437"><ele>655.0</ele><time>2026-04-26T08:39:57Z</time></trkpt><trkpt lat="40.13744739520643" lon="15.626448150868045"><ele>655.0</ele><time>2026-04-26T08:39:58Z</time></trkpt><trkpt lat="40.13743654874395" lon="15.626595688239913"><ele>655.0</ele><time>2026-04-26T08:39:59Z</time></trkpt><trkpt lat="40.137449656576024" lon="15.626738495630303"><ele>655.0</ele><time>2026-04-26T08:40:00Z</time></trkpt><trkpt lat="40.137489562495084" lon="15.626858729411742"><ele>655.0</ele><time>2026-04-26T08:40:01Z</time></trkpt><trkpt lat="40.137540133560094" lon="15.626968918609553"><ele>655.0</ele><time>2026-04-26T08:40:02Z</time></trkpt><trkpt lat="40.13760173096872" lon="15.62705430437413"><ele>655.0</ele><time>2026-04-26T08:40:03Z</time></trkpt><trkpt lat="40.13766556356892" lon="15.627111240953031"><ele>655.0</ele><time>2026-04-26T08:40:05Z</time></trkpt><trkpt lat="40.137705930174995" lon="15.62717811775803"><ele>655.0</ele><time>2026-04-26T08:43:21.999Z</time></trkpt><trkpt lat="40.13777397337525" lon="15.627277017492839"><ele>655.0</ele><time>2026-04-26T08:46:12Z</time></trkpt><trkpt lat="40.137836084345544" lon="15.627343009925676"><ele>655.0</ele><time>2026-04-26T08:46:13Z</time></trkpt><trkpt lat="40.13787336724408" lon="15.627409433023711"><ele>655.0</ele><time>2026-04-26T08:46:14Z</time></trkpt><trkpt lat="40.13788792297087" lon="15.627515586657497"><ele>655.0</ele><time>2026-04-26T08:46:15Z</time></trkpt><trkpt lat="40.137894076405644" lon="15.627664562437783"><ele>655.0</ele><time>2026-04-26T08:46:16Z</time></trkpt><trkpt lat="40.13786472584546" lon="15.627816817516113"><ele>655.0</ele><time>2026-04-26T08:46:17Z</time></trkpt><trkpt lat="40.13782039033112" lon="15.628029955208403"><ele>655.0</ele><time>2026-04-26T08:46:18Z</time></trkpt><trkpt lat="40.13779318355291" lon="15.628178241558482"><ele>656.75</ele><time>2026-04-26T08:46:19Z</time></trkpt><trkpt lat="40.13775298850737" lon="15.628317395673779"><ele>658.5</ele><time>2026-04-26T08:46:20Z</time></trkpt><trkpt lat="40.137710563693595" lon="15.628447502737098"><ele>660.25</ele><time>2026-04-26T08:46:21Z</time></trkpt><trkpt lat="40.13767189821195" lon="15.628577360403376"><ele>662.0</ele><time>2026-04-26T08:46:22Z</time></trkpt><trkpt lat="40.137646753419524" lon="15.628751799141353"><ele>662.75</ele><time>2026-04-26T08:46:23Z</time></trkpt><trkpt lat="40.137674285984716" lon="15.628912754877101"><ele>663.5</ele><time>2026-04-26T08:46:24Z</time></trkpt><trkpt lat="40.13771145447791" lon="15.629058641943065"><ele>664.25</ele><time>2026-04-26T08:46:25Z</time></trkpt><trkpt lat="40.13777252770327" lon="15.629222171980315"><ele>665.0</ele><time>2026-04-26T08:46:26Z</time></trkpt><trkpt lat="40.13785175293706" lon="15.629369294153673"><ele>663.0</ele><time>2026-04-26T08:46:27Z</time></trkpt><trkpt lat="40.137923704915686" lon="15.629504593780215"><ele>661.0</ele><time>2026-04-26T08:46:28Z</time></trkpt><trkpt lat="40.13797533215033" lon="15.629647910540038"><ele>659.0</ele><time>2026-04-26T08:46:29Z</time></trkpt><trkpt lat="40.138012423014445" lon="15.629792776828623"><ele>657.0</ele><time>2026-04-26T08:46:30Z</time></trkpt><trkpt lat="40.13803488932646" lon="15.629936307116134"><ele>657.0</ele><time>2026-04-26T08:46:31Z</time></trkpt><trkpt lat="40.13804186944481" lon="15.630087774456866"><ele>657.0</ele><time>2026-04-26T08:46:32Z</time></trkpt><trkpt lat="40.13802677911641" lon="15.630248710545578"><ele>657.0</ele><time>2026-04-26T08:46:33Z</time></trkpt><trkpt lat="40.13798953776174" lon="15.630403118866196"><ele>657.0</ele><time>2026-04-26T08:46:34Z</time></trkpt><trkpt lat="40.13791999804217" lon="15.63054555019601"><ele>658.75</ele><time>2026-04-26T08:46:35Z</time></trkpt><trkpt lat="40.13783096223544" lon="15.630681513188241"><ele>660.5</ele><time>2026-04-26T08:46:36Z</time></trkpt><trkpt lat="40.1377490354383" lon="15.63081033515932"><ele>662.25</ele><time>2026-04-26T08:46:37Z</time></trkpt><trkpt lat="40.13768211494425" lon="15.630931154332439"><ele>664.0</ele><time>2026-04-26T08:46:38Z</time></trkpt><trkpt lat="40.13763193021182" lon="15.631071029429522"><ele>665.0</ele><time>2026-04-26T08:46:39Z</time></trkpt><trkpt lat="40.13756810064658" lon="15.631225974201993"><ele>666.0</ele><time>2026-04-26T08:46:40Z</time></trkpt><trkpt lat="40.1375750742089" lon="15.63140254467075"><ele>667.0</ele><time>2026-04-26T08:46:41Z</time></trkpt><trkpt lat="40.13758521214602" lon="15.631546272477875"><ele>668.0</ele><time>2026-04-26T08:46:42Z</time></trkpt><trkpt lat="40.13762664810632" lon="15.631659978490974"><ele>668.0</ele><time>2026-04-26T08:46:43Z</time></trkpt><trkpt lat="40.137709978510514" lon="15.631749205229411"><ele>668.0</ele><time>2026-04-26T08:46:44Z</time></trkpt><trkpt lat="40.13780502923997" lon="15.631820930096017"><ele>668.0</ele><time>2026-04-26T08:46:45Z</time></trkpt><trkpt lat="40.13788379329258" lon="15.631898425940964"><ele>668.0</ele><time>2026-04-26T08:46:46Z</time></trkpt><trkpt lat="40.13799468626137" lon="15.631953817729142"><ele>668.0</ele><time>2026-04-26T08:46:47Z</time></trkpt><trkpt lat="40.13811322744915" lon="15.632014676388556"><ele>668.0</ele><time>2026-04-26T08:46:48Z</time></trkpt><trkpt lat="40.138239092042895" lon="15.632076830530316"><ele>668.0</ele><time>2026-04-26T08:46:49Z</time></trkpt><trkpt lat="40.13836496829314" lon="15.632131030483523"><ele>668.0</ele><time>2026-04-26T08:46:50Z</time></trkpt><trkpt lat="40.138480048419595" lon="15.632175967119895"><ele>668.0</ele><time>2026-04-26T08:46:51Z</time></trkpt><trkpt lat="40.138581840844246" lon="15.63223261463558"><ele>668.0</ele><time>2026-04-26T08:46:52Z</time></trkpt><trkpt lat="40.13867787448649" lon="15.632300156218127"><ele>668.0</ele><time>2026-04-26T08:46:53Z</time></trkpt><trkpt lat="40.138767529278795" lon="15.632363309871392"><ele>668.0</ele><time>2026-04-26T08:46:54Z</time></trkpt><trkpt lat="40.138873494732266" lon="15.632450414607023"><ele>668.0</ele><time>2026-04-26T08:46:55Z</time></trkpt><trkpt lat="40.13895921646441" lon="15.632557559389648"><ele>668.0</ele><time>2026-04-26T08:46:56Z</time></trkpt><trkpt lat="40.1390269276246" lon="15.63266091693585"><ele>668.0</ele><time>2026-04-26T08:46:57Z</time></trkpt><trkpt lat="40.139086637914424" lon="15.632735791180313"><ele>668.0</ele><time>2026-04-26T08:46:58Z</time></trkpt><trkpt lat="40.13913616195733" lon="15.632806013449573"><ele>668.0</ele><time>2026-04-26T08:46:59Z</time></trkpt><trkpt lat="40.139172888530815" lon="15.632873979774885"><ele>668.0</ele><time>2026-04-26T08:47:00Z</time></trkpt><trkpt lat="40.13920322231438" lon="15.632981283478623"><ele>668.0</ele><time>2026-04-26T08:47:02Z</time></trkpt><trkpt lat="40.139263550892494" lon="15.633059755593251"><ele>665.0</ele><time>2026-04-26T08:47:04Z</time></trkpt><trkpt lat="40.13929891682079" lon="15.63321219395149"><ele>662.0</ele><time>2026-04-26T08:47:06Z</time></trkpt><trkpt lat="40.13893807950824" lon="15.63338850562307"><ele>662.0</ele><time>2026-04-26T08:47:08Z</time></trkpt><trkpt lat="40.138879804104725" lon="15.63345000648658"><ele>662.0</ele><time>2026-04-26T08:47:09Z</time></trkpt><trkpt lat="40.13883737848161" lon="15.633554163124844"><ele>662.0</ele><time>2026-04-26T08:47:11Z</time></trkpt><trkpt lat="40.13887292850905" lon="15.633662928166839"><ele>662.0</ele><time>2026-04-26T08:47:13Z</time></trkpt><trkpt lat="40.1389537135578" lon="15.633814575584605"><ele>662.0</ele><time>2026-04-26T08:47:15Z</time></trkpt><trkpt lat="40.13900492308719" lon="15.6338992222981"><ele>662.4285714285714</ele><time>2026-04-26T08:47:15.999Z</time></trkpt><trkpt lat="40.13905849151155" lon="15.633988397773642"><ele>662.8571428571429</ele><time>2026-04-26T08:47:16.999Z</time></trkpt><trkpt lat="40.13910152765289" lon="15.634080236927996"><ele>663.2857142857142</ele><time>2026-04-26T08:47:17.999Z</time></trkpt><trkpt lat="40.1391337515163" lon="15.634169094389758"><ele>663.7142857142858</ele><time>2026-04-26T08:47:18.999Z</time></trkpt><trkpt lat="40.13915231372448" lon="15.634252107473186"><ele>664.1428571428571</ele><time>2026-04-26T08:47:19.999Z</time></trkpt><trkpt lat="40.13916618143529" lon="15.634335422359618"><ele>664.5714285714286</ele><time>2026-04-26T08:47:20.999Z</time></trkpt><trkpt lat="40.13917362517047" lon="15.63442194547881"><ele>665.0</ele><time>2026-04-26T08:47:21.999Z</time></trkpt><trkpt lat="40.13919328899528" lon="15.634501405707429"><ele>665.0</ele><time>2026-04-26T08:47:22.999Z</time></trkpt><trkpt lat="40.13922362558343" lon="15.634604505915144"><ele>665.0</ele><time>2026-04-26T08:47:23.999Z</time></trkpt><trkpt lat="40.13924579468648" lon="15.63469872512011"><ele>665.0</ele><time>2026-04-26T08:47:24.999Z</time></trkpt><trkpt lat="40.139271539926" lon="15.634846813061543"><ele>665.0</ele><time>2026-04-26T08:47:26.999Z</time></trkpt><trkpt lat="40.13927687172277" lon="15.634932578852471"><ele>665.0</ele><time>2026-04-26T08:47:27.999Z</time></trkpt><trkpt lat="40.13926615731585" lon="15.635026136749147"><ele>665.0</ele><time>2026-04-26T08:47:28.999Z</time></trkpt><trkpt lat="40.13923550407075" lon="15.635109782218464"><ele>665.0</ele><time>2026-04-26T08:47:29.999Z</time></trkpt><trkpt lat="40.13921284734369" lon="15.635196192985672"><ele>665.0</ele><time>2026-04-26T08:47:30.999Z</time></trkpt><trkpt lat="40.13919496413788" lon="15.635339698324557"><ele>665.0</ele><time>2026-04-26T08:47:32.999Z</time></trkpt><trkpt lat="40.13919528482559" lon="15.635431863586552"><ele>665.0</ele><time>2026-04-26T08:47:34.999Z</time></trkpt><trkpt lat="40.13920022498161" lon="15.635570488487017"><ele>665.0</ele><time>2026-04-26T08:47:36.999Z</time></trkpt><trkpt lat="40.139202443992815" lon="15.635694738711075"><ele>663.1666666666666</ele><time>2026-04-26T08:47:38.999Z</time></trkpt><trkpt lat="40.139243998841096" lon="15.635832710470485"><ele>661.3333333333333</ele><time>2026-04-26T08:47:40.999Z</time></trkpt><trkpt lat="40.13928115938307" lon="15.635906668491147"><ele>659.5</ele><time>2026-04-26T08:47:41.999Z</time></trkpt><trkpt lat="40.139327983535544" lon="15.635973567038324"><ele>657.6666666666666</ele><time>2026-04-26T08:47:42.999Z</time></trkpt><trkpt lat="40.13939323366219" lon="15.636043235344154"><ele>655.8333333333334</ele><time>2026-04-26T08:47:43.999Z</time></trkpt><trkpt lat="40.13946244905913" lon="15.63610467198513"><ele>654.0</ele><time>2026-04-26T08:47:44.999Z</time></trkpt><trkpt lat="40.139527198690296" lon="15.636157424659388"><ele>653.5</ele><time>2026-04-26T08:47:45.999Z</time></trkpt><trkpt lat="40.13959143535602" lon="15.636210804445506"><ele>653.0</ele><time>2026-04-26T08:47:46.999Z</time></trkpt><trkpt lat="40.13967413926903" lon="15.636284157449026"><ele>652.5</ele><time>2026-04-26T08:47:48.999Z</time></trkpt><trkpt lat="40.13972836683079" lon="15.636359629630345"><ele>652.0</ele><time>2026-04-26T08:47:51Z</time></trkpt><trkpt lat="40.13969074816443" lon="15.636433925546983"><ele>651.5</ele><time>2026-04-26T08:47:55Z</time></trkpt><trkpt lat="40.13962210422115" lon="15.636457394995388"><ele>651.0</ele><time>2026-04-26T08:47:57Z</time></trkpt><trkpt lat="40.13949221255192" lon="15.636478438224596"><ele>651.0</ele><time>2026-04-26T08:47:59Z</time></trkpt><trkpt lat="40.13942050204272" lon="15.636494424541903"><ele>651.0</ele><time>2026-04-26T08:48:00Z</time></trkpt><trkpt lat="40.1393576715313" lon="15.636533929626587"><ele>651.0</ele><time>2026-04-26T08:48:01Z</time></trkpt><trkpt lat="40.13929983521475" lon="15.636608906794775"><ele>651.0</ele><time>2026-04-26T08:48:02Z</time></trkpt><trkpt lat="40.13923055434161" lon="15.636695058509726"><ele>651.0</ele><time>2026-04-26T08:48:03Z</time></trkpt><trkpt lat="40.13916240454423" lon="15.636786504120987"><ele>651.0</ele><time>2026-04-26T08:48:04Z</time></trkpt><trkpt lat="40.139105598761965" lon="15.636870691194273"><ele>651.0</ele><time>2026-04-26T08:48:05Z</time></trkpt><trkpt lat="40.13907748814159" lon="15.636944607439863"><ele>651.0</ele><time>2026-04-26T08:48:06Z</time></trkpt><trkpt lat="40.139085181414686" lon="15.637069893995498"><ele>651.0</ele><time>2026-04-26T08:48:08Z</time></trkpt><trkpt lat="40.13912120865511" lon="15.637138885196753"><ele>651.0</ele><time>2026-04-26T08:48:09Z</time></trkpt><trkpt lat="40.13917863471965" lon="15.637188540976448"><ele>651.0</ele><time>2026-04-26T08:48:10Z</time></trkpt><trkpt lat="40.1392576398555" lon="15.637244204957872"><ele>651.0</ele><time>2026-04-26T08:48:11Z</time></trkpt><trkpt lat="40.139364259385665" lon="15.637329568177341"><ele>649.25</ele><time>2026-04-26T08:48:12Z</time></trkpt><trkpt lat="40.13948483301054" lon="15.637420195062994"><ele>647.5</ele><time>2026-04-26T08:48:13Z</time></trkpt><trkpt lat="40.13961282453937" lon="15.637506140869412"><ele>645.75</ele><time>2026-04-26T08:48:14Z</time></trkpt><trkpt lat="40.13973288748271" lon="15.637606386609082"><ele>644.0</ele><time>2026-04-26T08:48:15Z</time></trkpt><trkpt lat="40.13982902643077" lon="15.637680880748812"><ele>644.4000000000001</ele><time>2026-04-26T08:48:16Z</time></trkpt><trkpt lat="40.13989752182914" lon="15.637767636096902"><ele>644.8</ele><time>2026-04-26T08:48:17Z</time></trkpt><trkpt lat="40.139967657868354" lon="15.637864282059654"><ele>645.2</ele><time>2026-04-26T08:48:18Z</time></trkpt><trkpt lat="40.14004063026941" lon="15.637949152513396"><ele>645.5999999999999</ele><time>2026-04-26T08:48:19Z</time></trkpt><trkpt lat="40.140085468840226" lon="15.638009571384766"><ele>646.0</ele><time>2026-04-26T08:48:20Z</time></trkpt><trkpt lat="40.140121164307054" lon="15.638155527417227"><ele>646.0</ele><time>2026-04-26T08:48:22Z</time></trkpt><trkpt lat="40.14012481471944" lon="15.638307017711627"><ele>646.0</ele><time>2026-04-26T08:48:23Z</time></trkpt><trkpt lat="40.14014141718968" lon="15.63845199160821"><ele>646.0</ele><time>2026-04-26T08:48:24Z</time></trkpt><trkpt lat="40.14014725394868" lon="15.638557279255892"><ele>646.0</ele><time>2026-04-26T08:48:25Z</time></trkpt><trkpt lat="40.140169249537536" lon="15.638738034570512"><ele>646.0</ele><time>2026-04-26T08:48:27Z</time></trkpt><trkpt lat="40.140226725180064" lon="15.638856056572742"><ele>641.0</ele><time>2026-04-26T08:48:28Z</time></trkpt><trkpt lat="40.140301721478494" lon="15.638959611237262"><ele>636.0</ele><time>2026-04-26T08:48:29Z</time></trkpt><trkpt lat="40.14036550136606" lon="15.639039004053787"><ele>631.0</ele><time>2026-04-26T08:48:30Z</time></trkpt><trkpt lat="40.140418462862115" lon="15.639164861612075"><ele>626.0</ele><time>2026-04-26T08:48:32Z</time></trkpt><trkpt lat="40.14044764769064" lon="15.639278447190891"><ele>621.0</ele><time>2026-04-26T08:48:33Z</time></trkpt><trkpt lat="40.14048813125339" lon="15.639407658292875"><ele>619.0</ele><time>2026-04-26T08:48:34Z</time></trkpt><trkpt lat="40.14050158801748" lon="15.639543434676602"><ele>617.0</ele><time>2026-04-26T08:48:35Z</time></trkpt><trkpt lat="40.140510356219465" lon="15.639662975864036"><ele>615.0</ele><time>2026-04-26T08:48:36Z</time></trkpt><trkpt lat="40.14053765475969" lon="15.639754166924808"><ele>613.0</ele><time>2026-04-26T08:48:37Z</time></trkpt><trkpt lat="40.14060199379019" lon="15.639892974545191"><ele>611.0</ele><time>2026-04-26T08:48:39Z</time></trkpt><trkpt lat="40.14064895288379" lon="15.639981094638529"><ele>611.0</ele><time>2026-04-26T08:48:40Z</time></trkpt><trkpt lat="40.14069168750285" lon="15.640048194813478"><ele>611.0</ele><time>2026-04-26T08:48:41Z</time></trkpt><trkpt lat="40.14077828927582" lon="15.640134469993692"><ele>611.0</ele><time>2026-04-26T08:48:43Z</time></trkpt><trkpt lat="40.140876676160985" lon="15.640220790715212"><ele>611.0</ele><time>2026-04-26T08:48:45Z</time></trkpt><trkpt lat="40.14094209926507" lon="15.64027274697383"><ele>611.0</ele><time>2026-04-26T08:48:47Z</time></trkpt><trkpt lat="40.140926397655875" lon="15.640378682665997"><ele>615.0</ele><time>2026-04-26T08:48:49Z</time></trkpt><trkpt lat="40.14080264026038" lon="15.640420742121009"><ele>619.0</ele><time>2026-04-26T08:48:51Z</time></trkpt><trkpt lat="40.14066379288993" lon="15.640488467796418"><ele>623.0</ele><time>2026-04-26T08:48:52Z</time></trkpt><trkpt lat="40.140570349274505" lon="15.640569553528794"><ele>627.0</ele><time>2026-04-26T08:48:53Z</time></trkpt><trkpt lat="40.14050528499322" lon="15.640666520311587"><ele>627.0</ele><time>2026-04-26T08:48:54Z</time></trkpt><trkpt lat="40.1404638185806" lon="15.640759453222945"><ele>627.0</ele><time>2026-04-26T08:48:55Z</time></trkpt><trkpt lat="40.14044527714455" lon="15.640851791847933"><ele>627.0</ele><time>2026-04-26T08:48:56Z</time></trkpt><trkpt lat="40.14038368491137" lon="15.640951056427818"><ele>627.0</ele><time>2026-04-26T08:48:58Z</time></trkpt><trkpt lat="40.14032253992549" lon="15.640876969199539"><ele>627.0</ele><time>2026-04-26T08:49:01Z</time></trkpt><trkpt lat="40.140265215624225" lon="15.640926754571396"><ele>627.0</ele><time>2026-04-26T08:49:03Z</time></trkpt><trkpt lat="40.14015845991962" lon="15.640957223126145"><ele>627.0</ele><time>2026-04-26T08:49:04Z</time></trkpt><trkpt lat="40.14001809990624" lon="15.640934139690064"><ele>627.0</ele><time>2026-04-26T08:49:05Z</time></trkpt><trkpt lat="40.139875662762975" lon="15.640907191007088"><ele>627.0</ele><time>2026-04-26T08:49:06Z</time></trkpt><trkpt lat="40.139740434120405" lon="15.640908538287503"><ele>627.0</ele><time>2026-04-26T08:49:07Z</time></trkpt><trkpt lat="40.13963582938063" lon="15.640914610851354"><ele>628.6666666666666</ele><time>2026-04-26T08:49:08Z</time></trkpt><trkpt lat="40.139552216568234" lon="15.640928593286201"><ele>630.3333333333334</ele><time>2026-04-26T08:49:09Z</time></trkpt><trkpt lat="40.13947105899461" lon="15.640957493385105"><ele>632.0</ele><time>2026-04-26T08:49:10Z</time></trkpt><trkpt lat="40.13941087910117" lon="15.641007857684695"><ele>633.6666666666667</ele><time>2026-04-26T08:49:11Z</time></trkpt><trkpt lat="40.13935097493811" lon="15.641096967083508"><ele>635.3333333333334</ele><time>2026-04-26T08:49:12Z</time></trkpt><trkpt lat="40.13928703686256" lon="15.641200073010117"><ele>637.0</ele><time>2026-04-26T08:49:13Z</time></trkpt><trkpt lat="40.139205705785095" lon="15.641294395054967"><ele>640.5</ele><time>2026-04-26T08:49:14Z</time></trkpt><trkpt lat="40.13913055799537" lon="15.641372413045723"><ele>644.0</ele><time>2026-04-26T08:49:15Z</time></trkpt><trkpt lat="40.13907381650782" lon="15.64144664845548"><ele>647.5</ele><time>2026-04-26T08:49:16Z</time></trkpt><trkpt lat="40.13902849909666" lon="15.641529185502025"><ele>651.0</ele><time>2026-04-26T08:49:17Z</time></trkpt><trkpt lat="40.1389849724356" lon="15.64161835245425"><ele>654.5</ele><time>2026-04-26T08:49:18Z</time></trkpt><trkpt lat="40.138939512117226" lon="15.641696923076553"><ele>658.0</ele><time>2026-04-26T08:49:19Z</time></trkpt><trkpt lat="40.138894924568014" lon="15.64177512498435"><ele>658.0</ele><time>2026-04-26T08:49:20Z</time></trkpt><trkpt lat="40.13884527215546" lon="15.641837705272033"><ele>658.0</ele><time>2026-04-26T08:49:21Z</time></trkpt><trkpt lat="40.13875914848907" lon="15.641948002310796"><ele>658.0</ele><time>2026-04-26T08:49:23Z</time></trkpt><trkpt lat="40.13868058147003" lon="15.64198216603875"><ele>658.0</ele><time>2026-04-26T08:49:23.999Z</time></trkpt><trkpt lat="40.13862418740066" lon="15.642030952826818"><ele>658.0</ele><time>2026-04-26T08:49:24.999Z</time></trkpt><trkpt lat="40.13857021128515" lon="15.642093248443183"><ele>658.0</ele><time>2026-04-26T08:49:25.999Z</time></trkpt><trkpt lat="40.13852570610951" lon="15.642168958551926"><ele>661.3333333333334</ele><time>2026-04-26T08:49:26.999Z</time></trkpt><trkpt lat="40.13848183718816" lon="15.64225850647012"><ele>664.6666666666667</ele><time>2026-04-26T08:49:27.999Z</time></trkpt><trkpt lat="40.13844602963301" lon="15.642346682260754"><ele>668.0</ele><time>2026-04-26T08:49:29.999Z</time></trkpt><trkpt lat="40.13845256226808" lon="15.642446368837145"><ele>671.3333333333334</ele><time>2026-04-26T08:49:39.999Z</time></trkpt><trkpt lat="40.13843963038876" lon="15.642538320202366"><ele>674.6666666666666</ele><time>2026-04-26T08:49:42.999Z</time></trkpt><trkpt lat="40.138408489561776" lon="15.642634265633784"><ele>678.0</ele><time>2026-04-26T08:49:45.999Z</time></trkpt><trkpt lat="40.13833244847458" lon="15.642714114449904"><ele>678.0</ele><time>2026-04-26T08:49:48.999Z</time></trkpt><trkpt lat="40.13823948821046" lon="15.642778442760598"><ele>678.0</ele><time>2026-04-26T08:49:51.999Z</time></trkpt><trkpt lat="40.13816897996977" lon="15.642801239954306"><ele>678.0</ele><time>2026-04-26T08:49:52.999Z</time></trkpt><trkpt lat="40.13810320453432" lon="15.642836542047192"><ele>678.0</ele><time>2026-04-26T08:49:53.999Z</time></trkpt><trkpt lat="40.13804414188473" lon="15.642868537555904"><ele>678.0</ele><time>2026-04-26T08:49:54.999Z</time></trkpt><trkpt lat="40.13794386624445" lon="15.642960636989914"><ele>678.0</ele><time>2026-04-26T08:49:57Z</time></trkpt><trkpt lat="40.13787717904374" lon="15.643046100063936"><ele>678.3333333333334</ele><time>2026-04-26T08:49:59Z</time></trkpt><trkpt lat="40.13782808392935" lon="15.643207991469124"><ele>678.6666666666666</ele><time>2026-04-26T08:50:01Z</time></trkpt><trkpt lat="40.137812784702476" lon="15.643327568761665"><ele>679.0</ele><time>2026-04-26T08:50:02Z</time></trkpt><trkpt lat="40.13778838787512" lon="15.643424143473062"><ele>679.3333333333333</ele><time>2026-04-26T08:50:03Z</time></trkpt><trkpt lat="40.137774197202994" lon="15.643512679120525"><ele>679.6666666666666</ele><time>2026-04-26T08:50:04Z</time></trkpt><trkpt lat="40.13774166227178" lon="15.643591061514487"><ele>680.0</ele><time>2026-04-26T08:50:05Z</time></trkpt><trkpt lat="40.13769469648589" lon="15.643650647410269"><ele>681.6666666666666</ele><time>2026-04-26T08:50:06Z</time></trkpt><trkpt lat="40.13763629109535" lon="15.643697298884545"><ele>683.3333333333333</ele><time>2026-04-26T08:50:07Z</time></trkpt><trkpt lat="40.13754725659269" lon="15.643726605186616"><ele>685.0</ele><time>2026-04-26T08:50:08Z</time></trkpt><trkpt lat="40.137485108950656" lon="15.643775807232506"><ele>686.6666666666666</ele><time>2026-04-26T08:50:09Z</time></trkpt><trkpt lat="40.13742911742192" lon="15.643843878136929"><ele>688.3333333333334</ele><time>2026-04-26T08:50:10Z</time></trkpt><trkpt lat="40.137355138310724" lon="15.643902600527028"><ele>690.0</ele><time>2026-04-26T08:50:11Z</time></trkpt><trkpt lat="40.137312143710595" lon="15.643983328905614"><ele>690.0</ele><time>2026-04-26T08:50:12Z</time></trkpt><trkpt lat="40.1372357369117" lon="15.644104677404542"><ele>690.0</ele><time>2026-04-26T08:50:14Z</time></trkpt><trkpt lat="40.13718126881974" lon="15.64418083132994"><ele>690.0</ele><time>2026-04-26T08:50:15Z</time></trkpt><trkpt lat="40.137111971571755" lon="15.644234414330885"><ele>690.0</ele><time>2026-04-26T08:50:16Z</time></trkpt><trkpt lat="40.137025002947574" lon="15.644297959994118"><ele>690.0</ele><time>2026-04-26T08:50:18Z</time></trkpt><trkpt lat="40.136932915242774" lon="15.644305665739468"><ele>690.0</ele><time>2026-04-26T08:50:20Z</time></trkpt><trkpt lat="40.13687192416516" lon="15.644221867410348"><ele>690.0</ele><time>2026-04-26T08:50:21Z</time></trkpt><trkpt lat="40.13679084632841" lon="15.644322948497747"><ele>690.0</ele><time>2026-04-26T08:50:23Z</time></trkpt><trkpt lat="40.13668085207283" lon="15.644352209869137"><ele>690.0</ele><time>2026-04-26T08:50:25Z</time></trkpt><trkpt lat="40.1365814187558" lon="15.644398964316421"><ele>690.0</ele><time>2026-04-26T08:50:27Z</time></trkpt><trkpt lat="40.13649769217418" lon="15.644421361780273"><ele>692.6666666666666</ele><time>2026-04-26T08:50:28Z</time></trkpt><trkpt lat="40.13642992332625" lon="15.644467012833909"><ele>695.3333333333334</ele><time>2026-04-26T08:50:29Z</time></trkpt><trkpt lat="40.13636906533458" lon="15.644563814481007"><ele>698.0</ele><time>2026-04-26T08:50:30Z</time></trkpt><trkpt lat="40.136305636717616" lon="15.644635625571683"><ele>700.6666666666667</ele><time>2026-04-26T08:50:31Z</time></trkpt><trkpt lat="40.136227488329055" lon="15.644686120419289"><ele>703.3333333333334</ele><time>2026-04-26T08:50:32Z</time></trkpt><trkpt lat="40.13615993516629" lon="15.644733535864212"><ele>706.0</ele><time>2026-04-26T08:50:33Z</time></trkpt><trkpt lat="40.136077188506675" lon="15.644767923058179"><ele>706.0</ele><time>2026-04-26T08:50:34Z</time></trkpt><trkpt lat="40.13600775899612" lon="15.644799316015783"><ele>706.0</ele><time>2026-04-26T08:50:35Z</time></trkpt><trkpt lat="40.1359553455722" lon="15.644848022117584"><ele>706.0</ele><time>2026-04-26T08:50:36Z</time></trkpt><trkpt lat="40.13589993774391" lon="15.644916867509789"><ele>706.0</ele><time>2026-04-26T08:50:37Z</time></trkpt><trkpt lat="40.13585165233572" lon="15.645011849359204"><ele>706.0</ele><time>2026-04-26T08:50:38Z</time></trkpt><trkpt lat="40.135809826371855" lon="15.645084130988272"><ele>706.0</ele><time>2026-04-26T08:50:39Z</time></trkpt><trkpt lat="40.135732865212034" lon="15.645117017398958"><ele>705.0</ele><time>2026-04-26T08:50:40Z</time></trkpt><trkpt lat="40.13565372023911" lon="15.64515709378689"><ele>704.0</ele><time>2026-04-26T08:50:41Z</time></trkpt><trkpt lat="40.135559918119384" lon="15.645214910623155"><ele>703.0</ele><time>2026-04-26T08:50:42Z</time></trkpt><trkpt lat="40.13546925603851" lon="15.645260401718067"><ele>702.0</ele><time>2026-04-26T08:50:44Z</time></trkpt><trkpt lat="40.13551420674347" lon="15.645343880208083"><ele>701.0</ele><time>2026-04-26T08:50:48Z</time></trkpt><trkpt lat="40.13561394377562" lon="15.645355216204154"><ele>707.25</ele><time>2026-04-26T08:50:49Z</time></trkpt><trkpt lat="40.135723163150494" lon="15.645361507706962"><ele>713.5</ele><time>2026-04-26T08:50:50Z</time></trkpt><trkpt lat="40.13584879470008" lon="15.645388259640919"><ele>719.75</ele><time>2026-04-26T08:50:51Z</time></trkpt><trkpt lat="40.13598022046628" lon="15.6454423967731"><ele>726.0</ele><time>2026-04-26T08:50:52Z</time></trkpt><trkpt lat="40.13610723862198" lon="15.645486603150928"><ele>726.0</ele><time>2026-04-26T08:50:53Z</time></trkpt><trkpt lat="40.13621359857305" lon="15.645500818764017"><ele>726.0</ele><time>2026-04-26T08:50:54Z</time></trkpt><trkpt lat="40.13629311137367" lon="15.645494250384667"><ele>726.0</ele><time>2026-04-26T08:50:55Z</time></trkpt><trkpt lat="40.136367010949705" lon="15.645484131625391"><ele>726.0</ele><time>2026-04-26T08:50:56Z</time></trkpt><trkpt lat="40.13645167675682" lon="15.645535993399093"><ele>726.0</ele><time>2026-04-26T08:50:58Z</time></trkpt><trkpt lat="40.136374818878714" lon="15.645664223941948"><ele>726.0</ele><time>2026-04-26T08:51:00Z</time></trkpt><trkpt lat="40.136283025569014" lon="15.645712127452903"><ele>726.0</ele><time>2026-04-26T08:51:01Z</time></trkpt><trkpt lat="40.136204238820916" lon="15.645768429544654"><ele>726.0</ele><time>2026-04-26T08:51:02Z</time></trkpt><trkpt lat="40.136120890834306" lon="15.645822375326224"><ele>726.0</ele><time>2026-04-26T08:51:03Z</time></trkpt><trkpt lat="40.13603308139852" lon="15.645879325375846"><ele>726.0</ele><time>2026-04-26T08:51:04Z</time></trkpt><trkpt lat="40.135942605991076" lon="15.645933166412519"><ele>726.0</ele><time>2026-04-26T08:51:05Z</time></trkpt><trkpt lat="40.135872772225916" lon="15.645974663999716"><ele>726.0</ele><time>2026-04-26T08:51:06Z</time></trkpt><trkpt lat="40.135796237303836" lon="15.64603295790444"><ele>726.0</ele><time>2026-04-26T08:51:08Z</time></trkpt><trkpt lat="40.13575743903164" lon="15.646108546630627"><ele>726.0</ele><time>2026-04-26T08:51:12Z</time></trkpt><trkpt lat="40.13587153260715" lon="15.64616547828902"><ele>726.0</ele><time>2026-04-26T08:51:28Z</time></trkpt><trkpt lat="40.13594764710464" lon="15.646169672486556"><ele>726.0</ele><time>2026-04-26T08:51:29Z</time></trkpt><trkpt lat="40.13603660426127" lon="15.646178115399314"><ele>726.5</ele><time>2026-04-26T08:51:29.999Z</time></trkpt><trkpt lat="40.13613093431414" lon="15.64622207779683"><ele>727.0</ele><time>2026-04-26T08:51:30.999Z</time></trkpt><trkpt lat="40.13622183400885" lon="15.646225713502592"><ele>727.5</ele><time>2026-04-26T08:51:31.999Z</time></trkpt><trkpt lat="40.136292868106224" lon="15.646252214650914"><ele>728.0</ele><time>2026-04-26T08:51:32.999Z</time></trkpt><trkpt lat="40.136364129026454" lon="15.646312094383065"><ele>728.5</ele><time>2026-04-26T08:51:33.999Z</time></trkpt><trkpt lat="40.1364580478132" lon="15.646352516062047"><ele>729.0</ele><time>2026-04-26T08:51:34.999Z</time></trkpt><trkpt lat="40.13654358144097" lon="15.646411988638347"><ele>734.0</ele><time>2026-04-26T08:51:35.999Z</time></trkpt><trkpt lat="40.13661273959932" lon="15.646457230033409"><ele>739.0</ele><time>2026-04-26T08:51:36.999Z</time></trkpt><trkpt lat="40.13668727677845" lon="15.646499389419397"><ele>744.0</ele><time>2026-04-26T08:51:37.999Z</time></trkpt><trkpt lat="40.136776012775044" lon="15.646498260913098"><ele>749.0</ele><time>2026-04-26T08:51:38.999Z</time></trkpt><trkpt lat="40.13687211587834" lon="15.646455435187574"><ele>754.0</ele><time>2026-04-26T08:51:39.999Z</time></trkpt><trkpt lat="40.13697072349916" lon="15.646420948941536"><ele>754.0</ele><time>2026-04-26T08:51:40.999Z</time></trkpt><trkpt lat="40.13705568032448" lon="15.646382143856183"><ele>754.0</ele><time>2026-04-26T08:51:41.999Z</time></trkpt><trkpt lat="40.137131877617406" lon="15.64636209796876"><ele>754.0</ele><time>2026-04-26T08:51:42.999Z</time></trkpt><trkpt lat="40.13719602960329" lon="15.646354730726438"><ele>754.0</ele><time>2026-04-26T08:51:43.999Z</time></trkpt><trkpt lat="40.1372788214563" lon="15.646389186264773"><ele>754.0</ele><time>2026-04-26T08:51:45.999Z</time></trkpt><trkpt lat="40.13725435462886" lon="15.64651958592147"><ele>754.0</ele><time>2026-04-26T08:51:47.999Z</time></trkpt><trkpt lat="40.137158170406934" lon="15.646497763591745"><ele>754.0</ele><time>2026-04-26T08:51:48.999Z</time></trkpt><trkpt lat="40.137057040184736" lon="15.646556357420005"><ele>754.0</ele><time>2026-04-26T08:51:49.999Z</time></trkpt><trkpt lat="40.13694217531735" lon="15.646609752803482"><ele>754.0</ele><time>2026-04-26T08:51:50.999Z</time></trkpt><trkpt lat="40.136831789271454" lon="15.646698267631322"><ele>754.0</ele><time>2026-04-26T08:51:51.999Z</time></trkpt><trkpt lat="40.13676088875191" lon="15.6467656417977"><ele>754.0</ele><time>2026-04-26T08:51:52.999Z</time></trkpt><trkpt lat="40.136696998209054" lon="15.646848267980978"><ele>754.0</ele><time>2026-04-26T08:51:54.999Z</time></trkpt><trkpt lat="40.13668939743944" lon="15.646953722181262"><ele>754.0</ele><time>2026-04-26T08:51:57.999Z</time></trkpt><trkpt lat="40.13681618056729" lon="15.646987702961441"><ele>754.0</ele><time>2026-04-26T08:51:59.999Z</time></trkpt><trkpt lat="40.13691634390756" lon="15.646959155401165"><ele>754.0</ele><time>2026-04-26T08:52:01Z</time></trkpt><trkpt lat="40.137022470693005" lon="15.646926849752852"><ele>754.0</ele><time>2026-04-26T08:52:02Z</time></trkpt><trkpt lat="40.13716229868268" lon="15.646906518149244"><ele>754.0</ele><time>2026-04-26T08:52:03Z</time></trkpt><trkpt lat="40.13730741335675" lon="15.646894653652806"><ele>754.0</ele><time>2026-04-26T08:52:04Z</time></trkpt><trkpt lat="40.137444369647056" lon="15.646889757094424"><ele>754.0</ele><time>2026-04-26T08:52:05Z</time></trkpt><trkpt lat="40.13757974342028" lon="15.646890628936198"><ele>757.0</ele><time>2026-04-26T08:52:06Z</time></trkpt><trkpt lat="40.13771586604625" lon="15.646891722397948"><ele>760.0</ele><time>2026-04-26T08:52:07Z</time></trkpt><trkpt lat="40.13785686272956" lon="15.646895070505726"><ele>763.0</ele><time>2026-04-26T08:52:08Z</time></trkpt><trkpt lat="40.13799047332389" lon="15.646897996775564"><ele>766.0</ele><time>2026-04-26T08:52:09Z</time></trkpt><trkpt lat="40.13810634964227" lon="15.6468927009199"><ele>766.0</ele><time>2026-04-26T08:52:10Z</time></trkpt><trkpt lat="40.13821656118686" lon="15.646894441894728"><ele>766.0</ele><time>2026-04-26T08:52:11Z</time></trkpt><trkpt lat="40.13832652699765" lon="15.646904783237696"><ele>766.0</ele><time>2026-04-26T08:52:12Z</time></trkpt><trkpt lat="40.13843184233328" lon="15.646916621354872"><ele>766.0</ele><time>2026-04-26T08:52:13Z</time></trkpt><trkpt lat="40.13853883168134" lon="15.646929302311475"><ele>766.0</ele><time>2026-04-26T08:52:14Z</time></trkpt><trkpt lat="40.138652518307076" lon="15.64693640482429"><ele>768.5</ele><time>2026-04-26T08:52:15Z</time></trkpt><trkpt lat="40.138776158597196" lon="15.646911580343904"><ele>771.0</ele><time>2026-04-26T08:52:16Z</time></trkpt><trkpt lat="40.13890259638048" lon="15.64690048211372"><ele>773.5</ele><time>2026-04-26T08:52:17Z</time></trkpt><trkpt lat="40.1390324876698" lon="15.646881715591187"><ele>776.0</ele><time>2026-04-26T08:52:18Z</time></trkpt><trkpt lat="40.139161740557" lon="15.64688619791318"><ele>778.75</ele><time>2026-04-26T08:52:19Z</time></trkpt><trkpt lat="40.13928684864456" lon="15.646880573387328"><ele>781.5</ele><time>2026-04-26T08:52:20Z</time></trkpt><trkpt lat="40.139410158985456" lon="15.646859603293693"><ele>784.25</ele><time>2026-04-26T08:52:21Z</time></trkpt><trkpt lat="40.13953320934387" lon="15.646853876902899"><ele>787.0</ele><time>2026-04-26T08:52:22Z</time></trkpt><trkpt lat="40.13965568036937" lon="15.646786316597417"><ele>787.0</ele><time>2026-04-26T08:52:23Z</time></trkpt><trkpt lat="40.139772465736556" lon="15.646705120797149"><ele>787.0</ele><time>2026-04-26T08:52:24Z</time></trkpt><trkpt lat="40.13988757891372" lon="15.64663369364981"><ele>787.0</ele><time>2026-04-26T08:52:25Z</time></trkpt><trkpt lat="40.14000495150777" lon="15.646585139784644"><ele>787.0</ele><time>2026-04-26T08:52:26Z</time></trkpt><trkpt lat="40.14012371405913" lon="15.646584649231759"><ele>789.0</ele><time>2026-04-26T08:52:27Z</time></trkpt><trkpt lat="40.140256839550744" lon="15.646582355433129"><ele>791.0</ele><time>2026-04-26T08:52:28Z</time></trkpt><trkpt lat="40.14037266318468" lon="15.646568549143112"><ele>793.0</ele><time>2026-04-26T08:52:29Z</time></trkpt><trkpt lat="40.140477755182644" lon="15.646514435638593"><ele>795.0</ele><time>2026-04-26T08:52:30Z</time></trkpt><trkpt lat="40.14055596634925" lon="15.646524124052345"><ele>797.0</ele><time>2026-04-26T08:52:31Z</time></trkpt><trkpt lat="40.14064128803877" lon="15.646500177395046"><ele>797.0</ele><time>2026-04-26T08:52:32Z</time></trkpt><trkpt lat="40.140714047629416" lon="15.64657186563058"><ele>797.0</ele><time>2026-04-26T08:52:33Z</time></trkpt><trkpt lat="40.14080409243774" lon="15.64667013461305"><ele>797.0</ele><time>2026-04-26T08:52:34Z</time></trkpt><trkpt lat="40.140858963931905" lon="15.646839492930281"><ele>797.0</ele><time>2026-04-26T08:52:35Z</time></trkpt><trkpt lat="40.14089819503059" lon="15.646999450584492"><ele>800.4000000000001</ele><time>2026-04-26T08:52:36Z</time></trkpt><trkpt lat="40.14094030556392" lon="15.647130347165957"><ele>803.8000000000001</ele><time>2026-04-26T08:52:37Z</time></trkpt><trkpt lat="40.14099173747627" lon="15.647247685730779"><ele>807.2</ele><time>2026-04-26T08:52:38Z</time></trkpt><trkpt lat="40.14104883664246" lon="15.647352379590806"><ele>810.6</ele><time>2026-04-26T08:52:39Z</time></trkpt><trkpt lat="40.141111993776605" lon="15.647455173445694"><ele>814.0</ele><time>2026-04-26T08:52:40Z</time></trkpt><trkpt lat="40.14119749119698" lon="15.647535980803797"><ele>814.0</ele><time>2026-04-26T08:52:41Z</time></trkpt><trkpt lat="40.14125764860765" lon="15.647647450064536"><ele>814.0</ele><time>2026-04-26T08:52:42Z</time></trkpt><trkpt lat="40.14132035392153" lon="15.647766349622374"><ele>814.0</ele><time>2026-04-26T08:52:43Z</time></trkpt><trkpt lat="40.141349956508826" lon="15.647909611462925"><ele>814.0</ele><time>2026-04-26T08:52:44Z</time></trkpt><trkpt lat="40.14137783812385" lon="15.648061132521576"><ele>814.0</ele><time>2026-04-26T08:52:45Z</time></trkpt><trkpt lat="40.14142012414052" lon="15.6482118006424"><ele>816.3333333333333</ele><time>2026-04-26T08:52:46Z</time></trkpt><trkpt lat="40.141444612994654" lon="15.648346363859055"><ele>818.6666666666666</ele><time>2026-04-26T08:52:47Z</time></trkpt><trkpt lat="40.14146355328088" lon="15.648467432267418"><ele>821.0</ele><time>2026-04-26T08:52:48Z</time></trkpt><trkpt lat="40.14148979259021" lon="15.648572005692145"><ele>823.3333333333333</ele><time>2026-04-26T08:52:49Z</time></trkpt><trkpt lat="40.14153171768018" lon="15.648659745753692"><ele>825.6666666666666</ele><time>2026-04-26T08:52:50Z</time></trkpt><trkpt lat="40.14156985495306" lon="15.64873578394033"><ele>828.0</ele><time>2026-04-26T08:52:51Z</time></trkpt><trkpt lat="40.14164071776884" lon="15.648790858660268"><ele>829.4</ele><time>2026-04-26T08:52:52Z</time></trkpt><trkpt lat="40.14174370069045" lon="15.648825212796474"><ele>830.8</ele><time>2026-04-26T08:52:53Z</time></trkpt><trkpt lat="40.141855727494445" lon="15.648856495478762"><ele>832.2</ele><time>2026-04-26T08:52:54Z</time></trkpt><trkpt lat="40.141954187750585" lon="15.648913697787828"><ele>833.6</ele><time>2026-04-26T08:52:55Z</time></trkpt><trkpt lat="40.14203805441285" lon="15.648972714239529"><ele>835.0</ele><time>2026-04-26T08:52:56Z</time></trkpt><trkpt lat="40.14209648920571" lon="15.649057083596706"><ele>835.0</ele><time>2026-04-26T08:52:57Z</time></trkpt><trkpt lat="40.14210997979678" lon="15.649179020568678"><ele>835.0</ele><time>2026-04-26T08:52:58Z</time></trkpt><trkpt lat="40.14215471233096" lon="15.64926739187492"><ele>835.0</ele><time>2026-04-26T08:52:59Z</time></trkpt><trkpt lat="40.142269927844744" lon="15.649355323606732"><ele>835.0</ele><time>2026-04-26T08:53:01Z</time></trkpt><trkpt lat="40.1423539135984" lon="15.64935363335772"><ele>835.0</ele><time>2026-04-26T08:53:02Z</time></trkpt><trkpt lat="40.142456087718585" lon="15.649303660688725"><ele>832.25</ele><time>2026-04-26T08:53:03Z</time></trkpt><trkpt lat="40.142563395788045" lon="15.649246876822671"><ele>829.5</ele><time>2026-04-26T08:53:04Z</time></trkpt><trkpt lat="40.14266505209688" lon="15.649114805135863"><ele>826.75</ele><time>2026-04-26T08:53:05Z</time></trkpt><trkpt lat="40.142752532529016" lon="15.648981319196698"><ele>824.0</ele><time>2026-04-26T08:53:06Z</time></trkpt><trkpt lat="40.14284144387267" lon="15.648870626255366"><ele>824.0</ele><time>2026-04-26T08:53:07Z</time></trkpt><trkpt lat="40.142950728766195" lon="15.64878313315846"><ele>824.0</ele><time>2026-04-26T08:53:08Z</time></trkpt><trkpt lat="40.14306375313595" lon="15.648699982000238"><ele>824.0</ele><time>2026-04-26T08:53:09Z</time></trkpt><trkpt lat="40.14316442057914" lon="15.648629307388841"><ele>824.0</ele><time>2026-04-26T08:53:10Z</time></trkpt><trkpt lat="40.14325423423837" lon="15.64854659801363"><ele>822.0</ele><time>2026-04-26T08:53:11Z</time></trkpt><trkpt lat="40.14333029985532" lon="15.6484464922691"><ele>820.0</ele><time>2026-04-26T08:53:12Z</time></trkpt><trkpt lat="40.14337379748762" lon="15.648298990485616"><ele>818.0</ele><time>2026-04-26T08:53:13Z</time></trkpt><trkpt lat="40.143351171976256" lon="15.648128478512774"><ele>816.0</ele><time>2026-04-26T08:53:14Z</time></trkpt><trkpt lat="40.14334826006764" lon="15.647926927713504"><ele>813.5</ele><time>2026-04-26T08:53:15Z</time></trkpt><trkpt lat="40.14332506138196" lon="15.647720441004235"><ele>811.0</ele><time>2026-04-26T08:53:16Z</time></trkpt><trkpt lat="40.143304940016904" lon="15.647544066277312"><ele>808.5</ele><time>2026-04-26T08:53:17Z</time></trkpt><trkpt lat="40.143290518465164" lon="15.647401345735059"><ele>806.0</ele><time>2026-04-26T08:53:18Z</time></trkpt><trkpt lat="40.143282716434705" lon="15.647291669860746"><ele>806.0</ele><time>2026-04-26T08:53:19Z</time></trkpt><trkpt lat="40.14329074348632" lon="15.647208817175558"><ele>806.0</ele><time>2026-04-26T08:53:20Z</time></trkpt><trkpt lat="40.14337148841992" lon="15.647133088546283"><ele>806.0</ele><time>2026-04-26T08:53:22Z</time></trkpt><trkpt lat="40.14344272125982" lon="15.647160198245091"><ele>806.0</ele><time>2026-04-26T08:53:23Z</time></trkpt><trkpt lat="40.14355162931739" lon="15.647197690025168"><ele>806.0</ele><time>2026-04-26T08:53:24Z</time></trkpt><trkpt lat="40.14367232047155" lon="15.647266347260771"><ele>806.0</ele><time>2026-04-26T08:53:25Z</time></trkpt><trkpt lat="40.143766880158964" lon="15.647359221966413"><ele>806.0</ele><time>2026-04-26T08:53:26Z</time></trkpt><trkpt lat="40.14386101463274" lon="15.647415627479784"><ele>806.0</ele><time>2026-04-26T08:53:27Z</time></trkpt><trkpt lat="40.143925430002085" lon="15.647479039984798"><ele>806.0</ele><time>2026-04-26T08:53:28Z</time></trkpt><trkpt lat="40.14400223299881" lon="15.647560542940987"><ele>806.0</ele><time>2026-04-26T08:53:29.999Z</time></trkpt><trkpt lat="40.143998619414916" lon="15.647666395864968"><ele>806.0000000000001</ele><time>2026-04-26T08:53:32.999Z</time></trkpt><trkpt lat="40.143875370728985" lon="15.64771034692717"><ele>806.0</ele><time>2026-04-26T08:53:34.999Z</time></trkpt><trkpt lat="40.14380772175521" lon="15.647745862002234"><ele>806.0</ele><time>2026-04-26T08:53:35.999Z</time></trkpt><trkpt lat="40.14373757943791" lon="15.647793196993279"><ele>806.0</ele><time>2026-04-26T08:53:36.999Z</time></trkpt><trkpt lat="40.14368538851083" lon="15.647857357823854"><ele>806.0000000000001</ele><time>2026-04-26T08:53:37.999Z</time></trkpt><trkpt lat="40.14365382640012" lon="15.64796248788415"><ele>806.0</ele><time>2026-04-26T08:53:38.999Z</time></trkpt><trkpt lat="40.143629967781344" lon="15.648091662933119"><ele>808.0</ele><time>2026-04-26T08:53:39.999Z</time></trkpt><trkpt lat="40.14360207052815" lon="15.648219692330496"><ele>810.0</ele><time>2026-04-26T08:53:40.999Z</time></trkpt><trkpt lat="40.14359544936085" lon="15.648356227631078"><ele>812.0</ele><time>2026-04-26T08:53:41.999Z</time></trkpt><trkpt lat="40.1436228591543" lon="15.648478729936382"><ele>814.0</ele><time>2026-04-26T08:53:42.999Z</time></trkpt><trkpt lat="40.143664169367845" lon="15.64859415985821"><ele>816.0</ele><time>2026-04-26T08:53:43.999Z</time></trkpt><trkpt lat="40.143690081334654" lon="15.648703137085963"><ele>819.8</ele><time>2026-04-26T08:53:44.999Z</time></trkpt><trkpt lat="40.143690771620754" lon="15.648790727163298"><ele>823.5999999999999</ele><time>2026-04-26T08:53:45.999Z</time></trkpt><trkpt lat="40.14366590593861" lon="15.648882871875754"><ele>827.4</ele><time>2026-04-26T08:53:46.999Z</time></trkpt><trkpt lat="40.14358626800536" lon="15.648948572006708"><ele>831.2</ele><time>2026-04-26T08:53:47.999Z</time></trkpt><trkpt lat="40.143525005096755" lon="15.64906462851436"><ele>835.0</ele><time>2026-04-26T08:53:48.999Z</time></trkpt><trkpt lat="40.14345153979998" lon="15.649175167995255"><ele>835.0</ele><time>2026-04-26T08:53:49.999Z</time></trkpt><trkpt lat="40.14336303968184" lon="15.649228092050924"><ele>835.0</ele><time>2026-04-26T08:53:50.999Z</time></trkpt><trkpt lat="40.14326450708003" lon="15.649288809036625"><ele>835.0</ele><time>2026-04-26T08:53:51.999Z</time></trkpt><trkpt lat="40.14317007450036" lon="15.649359945589053"><ele>835.0</ele><time>2026-04-26T08:53:52.999Z</time></trkpt><trkpt lat="40.143081853634946" lon="15.649469919408856"><ele>835.0</ele><time>2026-04-26T08:53:53.999Z</time></trkpt><trkpt lat="40.1429879206626" lon="15.649600913011806"><ele>839.0</ele><time>2026-04-26T08:53:54.999Z</time></trkpt><trkpt lat="40.14288712690365" lon="15.649717341529122"><ele>843.0</ele><time>2026-04-26T08:53:55.999Z</time></trkpt><trkpt lat="40.14277313956581" lon="15.649805551486127"><ele>847.0</ele><time>2026-04-26T08:53:56.999Z</time></trkpt><trkpt lat="40.14266105882677" lon="15.649878983977073"><ele>851.0</ele><time>2026-04-26T08:53:57.999Z</time></trkpt><trkpt lat="40.14253699721484" lon="15.6499405211122"><ele>851.0</ele><time>2026-04-26T08:53:58.999Z</time></trkpt><trkpt lat="40.1424228642666" lon="15.649971460898856"><ele>851.0</ele><time>2026-04-26T08:53:59.999Z</time></trkpt><trkpt lat="40.142319112246675" lon="15.649965319870367"><ele>851.0</ele><time>2026-04-26T08:54:00.999Z</time></trkpt><trkpt lat="40.14222324153861" lon="15.649941658922248"><ele>851.0</ele><time>2026-04-26T08:54:01.999Z</time></trkpt><trkpt lat="40.142120392939205" lon="15.64992689380832"><ele>851.0</ele><time>2026-04-26T08:54:02.999Z</time></trkpt><trkpt lat="40.14201801148316" lon="15.649973616977418"><ele>852.0000000000001</ele><time>2026-04-26T08:54:03.999Z</time></trkpt><trkpt lat="40.14192133114582" lon="15.64997191143695"><ele>853.0</ele><time>2026-04-26T08:54:04.999Z</time></trkpt><trkpt lat="40.14184375611827" lon="15.64996062361351"><ele>854.0</ele><time>2026-04-26T08:54:05.999Z</time></trkpt><trkpt lat="40.14178867553118" lon="15.649897319145007"><ele>855.0</ele><time>2026-04-26T08:54:07Z</time></trkpt><trkpt lat="40.14175352191793" lon="15.649807961551438"><ele>856.0000000000001</ele><time>2026-04-26T08:54:08Z</time></trkpt><trkpt lat="40.141705490643005" lon="15.649686994332695"><ele>857.0</ele><time>2026-04-26T08:54:09Z</time></trkpt><trkpt lat="40.141647132783" lon="15.649577121569521"><ele>857.0</ele><time>2026-04-26T08:54:10Z</time></trkpt><trkpt lat="40.1415632422786" lon="15.649508614899979"><ele>857.0</ele><time>2026-04-26T08:54:11Z</time></trkpt><trkpt lat="40.14145207700991" lon="15.649526807208582"><ele>857.0</ele><time>2026-04-26T08:54:12Z</time></trkpt><trkpt lat="40.1413332830994" lon="15.649529403594004"><ele>857.0</ele><time>2026-04-26T08:54:13Z</time></trkpt><trkpt lat="40.14120395135006" lon="15.649540032603438"><ele>857.6</ele><time>2026-04-26T08:54:14Z</time></trkpt><trkpt lat="40.14109208692483" lon="15.649553152444696"><ele>858.2</ele><time>2026-04-26T08:54:15Z</time></trkpt><trkpt lat="40.14098734840895" lon="15.649544872496582"><ele>858.8</ele><time>2026-04-26T08:54:16Z</time></trkpt><trkpt lat="40.14089263255321" lon="15.64955655609611"><ele>859.4</ele><time>2026-04-26T08:54:17Z</time></trkpt><trkpt lat="40.14080127820473" lon="15.64951499017749"><ele>860.0</ele><time>2026-04-26T08:54:18Z</time></trkpt><trkpt lat="40.140701923912616" lon="15.649499276736835"><ele>858.4</ele><time>2026-04-26T08:54:19Z</time></trkpt><trkpt lat="40.140609896950465" lon="15.649470745401318"><ele>856.8</ele><time>2026-04-26T08:54:20Z</time></trkpt><trkpt lat="40.14050538703957" lon="15.649501798473887"><ele>855.2</ele><time>2026-04-26T08:54:21Z</time></trkpt><trkpt lat="40.14040029749616" lon="15.64955868757569"><ele>853.6</ele><time>2026-04-26T08:54:22Z</time></trkpt><trkpt lat="40.140312743524014" lon="15.649624437047224"><ele>852.0</ele><time>2026-04-26T08:54:23Z</time></trkpt><trkpt lat="40.140231467510425" lon="15.6497369257082"><ele>852.0</ele><time>2026-04-26T08:54:24Z</time></trkpt><trkpt lat="40.14015793377482" lon="15.649864194209664"><ele>852.0</ele><time>2026-04-26T08:54:25Z</time></trkpt><trkpt lat="40.14009235818455" lon="15.649962052715615"><ele>852.0</ele><time>2026-04-26T08:54:26Z</time></trkpt><trkpt lat="40.14001839945237" lon="15.650001697900755"><ele>852.0</ele><time>2026-04-26T08:54:27Z</time></trkpt><trkpt lat="40.139951454551515" lon="15.65004658744372"><ele>852.0</ele><time>2026-04-26T08:54:28Z</time></trkpt><trkpt lat="40.139874780702904" lon="15.650070587888495"><ele>852.6666666666666</ele><time>2026-04-26T08:54:29Z</time></trkpt><trkpt lat="40.13979776141736" lon="15.650078602555965"><ele>853.3333333333333</ele><time>2026-04-26T08:54:30Z</time></trkpt><trkpt lat="40.13970795977268" lon="15.650086867281658"><ele>854.0</ele><time>2026-04-26T08:54:31Z</time></trkpt><trkpt lat="40.13961727028933" lon="15.650090401622224"><ele>854.6666666666666</ele><time>2026-04-26T08:54:32Z</time></trkpt><trkpt lat="40.13952499852456" lon="15.650093383581254"><ele>855.3333333333333</ele><time>2026-04-26T08:54:33Z</time></trkpt><trkpt lat="40.13944515943916" lon="15.65009027444628"><ele>856.0</ele><time>2026-04-26T08:54:34Z</time></trkpt><trkpt lat="40.13935540608469" lon="15.650086493074108"><ele>856.0</ele><time>2026-04-26T08:54:35Z</time></trkpt><trkpt lat="40.13925756359325" lon="15.650112550282898"><ele>855.9999999999999</ele><time>2026-04-26T08:54:36Z</time></trkpt><trkpt lat="40.139151166105265" lon="15.650127232792713"><ele>855.9999999999999</ele><time>2026-04-26T08:54:37Z</time></trkpt><trkpt lat="40.13904078981696" lon="15.650122436765171"><ele>856.0</ele><time>2026-04-26T08:54:38Z</time></trkpt><trkpt lat="40.13893852820587" lon="15.6501413661649"><ele>856.0</ele><time>2026-04-26T08:54:39Z</time></trkpt><trkpt lat="40.13884735869945" lon="15.650167168460145"><ele>856.1666666666666</ele><time>2026-04-26T08:54:40Z</time></trkpt><trkpt lat="40.13877821346454" lon="15.650217860229189"><ele>856.3333333333333</ele><time>2026-04-26T08:54:41Z</time></trkpt><trkpt lat="40.13871263541807" lon="15.650310177353782"><ele>856.5</ele><time>2026-04-26T08:54:43Z</time></trkpt><trkpt lat="40.13866338787797" lon="15.650381113248216"><ele>856.6666666666667</ele><time>2026-04-26T08:54:46Z</time></trkpt><trkpt lat="40.13863119001031" lon="15.650481196191"><ele>856.8333333333334</ele><time>2026-04-26T08:54:48Z</time></trkpt><trkpt lat="40.13858899858126" lon="15.650600716005725"><ele>857.0</ele><time>2026-04-26T08:54:50Z</time></trkpt><trkpt lat="40.13856355018993" lon="15.650710586173352"><ele>858.2857142857142</ele><time>2026-04-26T08:54:52Z</time></trkpt><trkpt lat="40.13854114005453" lon="15.650830183677076"><ele>859.5714285714286</ele><time>2026-04-26T08:54:54Z</time></trkpt><trkpt lat="40.13854596012226" lon="15.650915714074786"><ele>860.8571428571429</ele><time>2026-04-26T08:54:55Z</time></trkpt><trkpt lat="40.1384757535136" lon="15.650948467498283"><ele>862.1428571428571</ele><time>2026-04-26T08:54:56Z</time></trkpt><trkpt lat="40.1384450851931" lon="15.651024998657409"><ele>863.4285714285714</ele><time>2026-04-26T08:54:58Z</time></trkpt><trkpt lat="40.138412090282294" lon="15.65110733569068"><ele>864.7142857142857</ele><time>2026-04-26T08:55:00Z</time></trkpt><trkpt lat="40.13837728362009" lon="15.651194193856577"><ele>866.0</ele><time>2026-04-26T08:55:02Z</time></trkpt><trkpt lat="40.13850426502919" lon="15.651409076717076"><ele>867.1428571428571</ele><time>2026-04-26T08:55:04Z</time></trkpt><trkpt lat="40.138508965371415" lon="15.651499263904917"><ele>868.2857142857142</ele><time>2026-04-26T08:55:06Z</time></trkpt><trkpt lat="40.13852212805165" lon="15.651582033449142"><ele>869.4285714285713</ele><time>2026-04-26T08:55:08Z</time></trkpt><trkpt lat="40.13852271940645" lon="15.651679634815913"><ele>870.5714285714286</ele><time>2026-04-26T08:55:10Z</time></trkpt><trkpt lat="40.13851862114311" lon="15.651793843622835"><ele>871.7142857142858</ele><time>2026-04-26T08:55:17Z</time></trkpt><trkpt lat="40.138504622785305" lon="15.65187459902747"><ele>872.8571428571428</ele><time>2026-04-26T08:55:19Z</time></trkpt><trkpt lat="40.138492966014375" lon="15.651963704888813"><ele>874.0</ele><time>2026-04-26T08:55:26Z</time></trkpt><trkpt lat="40.138511563724165" lon="15.652068077746028"><ele>876.4000000000001</ele><time>2026-04-26T08:55:28Z</time></trkpt><trkpt lat="40.13857032474626" lon="15.652172768721881"><ele>878.8000000000001</ele><time>2026-04-26T08:55:30Z</time></trkpt><trkpt lat="40.138614450108115" lon="15.652234236715321"><ele>881.1999999999999</ele><time>2026-04-26T08:55:30.999Z</time></trkpt><trkpt lat="40.13868774011007" lon="15.65231388475756"><ele>883.5999999999999</ele><time>2026-04-26T08:55:31.999Z</time></trkpt><trkpt lat="40.138754136275544" lon="15.652402475107888"><ele>886.0</ele><time>2026-04-26T08:55:32.999Z</time></trkpt><trkpt lat="40.138829597045145" lon="15.652508427653279"><ele>886.0</ele><time>2026-04-26T08:55:33.999Z</time></trkpt><trkpt lat="40.138899136635544" lon="15.65262170628689"><ele>885.9999999999999</ele><time>2026-04-26T08:55:34.999Z</time></trkpt><trkpt lat="40.13895610059391" lon="15.652705824649207"><ele>885.9999999999999</ele><time>2026-04-26T08:55:35.999Z</time></trkpt><trkpt lat="40.139000554928266" lon="15.652785582127041"><ele>886.0</ele><time>2026-04-26T08:55:36.999Z</time></trkpt><trkpt lat="40.139045163134305" lon="15.652872286061996"><ele>886.0</ele><time>2026-04-26T08:55:37.999Z</time></trkpt><trkpt lat="40.13912089330275" lon="15.65297112704943"><ele>890.0</ele><time>2026-04-26T08:55:39.999Z</time></trkpt><trkpt lat="40.139208434384635" lon="15.653098486010013"><ele>893.9999999999999</ele><time>2026-04-26T08:55:41.999Z</time></trkpt><trkpt lat="40.13925510692845" lon="15.653185683246424"><ele>897.9999999999999</ele><time>2026-04-26T08:55:42.999Z</time></trkpt><trkpt lat="40.13929331310823" lon="15.653268308044467"><ele>902.0</ele><time>2026-04-26T08:55:43.999Z</time></trkpt><trkpt lat="40.13930599148912" lon="15.653419645832221"><ele>906.0</ele><time>2026-04-26T08:55:45.999Z</time></trkpt><trkpt lat="40.13928472251615" lon="15.653509464952917"><ele>906.0</ele><time>2026-04-26T08:55:46.999Z</time></trkpt><trkpt lat="40.13926403585975" lon="15.653598095995877"><ele>906.0</ele><time>2026-04-26T08:55:47.999Z</time></trkpt><trkpt lat="40.1392509183399" lon="15.653717486281703"><ele>906.0</ele><time>2026-04-26T08:55:49.999Z</time></trkpt><trkpt lat="40.13926481162979" lon="15.653839347921963"><ele>906.0</ele><time>2026-04-26T08:55:51.999Z</time></trkpt><trkpt lat="40.139324061868" lon="15.65389053499325"><ele>906.0</ele><time>2026-04-26T08:55:53.999Z</time></trkpt><trkpt lat="40.139393554406766" lon="15.65396073369752"><ele>906.0</ele><time>2026-04-26T08:55:55.999Z</time></trkpt><trkpt lat="40.13947147176752" lon="15.654005564231214"><ele>907.9999999999999</ele><time>2026-04-26T08:55:57.999Z</time></trkpt><trkpt lat="40.13952886265638" lon="15.654056523025146"><ele>910.0</ele><time>2026-04-26T08:55:59.999Z</time></trkpt><trkpt lat="40.1395572564907" lon="15.654138911592463"><ele>911.9999999999999</ele><time>2026-04-26T08:56:02.999Z</time></trkpt><trkpt lat="40.13955638172113" lon="15.654221778842151"><ele>913.9999999999999</ele><time>2026-04-26T08:56:08.999Z</time></trkpt><trkpt lat="40.13950153865526" lon="15.654275055729233"><ele>916.0</ele><time>2026-04-26T08:56:14Z</time></trkpt><trkpt lat="40.13943674501967" lon="15.65432414972824"><ele>917.9999999999999</ele><time>2026-04-26T08:56:16Z</time></trkpt><trkpt lat="40.13937625841566" lon="15.654382126204615"><ele>919.9999999999999</ele><time>2026-04-26T08:56:19Z</time></trkpt><trkpt lat="40.13932076901398" lon="15.654439103174438"><ele>918.4</ele><time>2026-04-26T08:56:21Z</time></trkpt><trkpt lat="40.13926350769556" lon="15.654567080219083"><ele>916.8</ele><time>2026-04-26T08:56:41Z</time></trkpt><trkpt lat="40.1392131703253" lon="15.654621124101105"><ele>915.2</ele><time>2026-04-26T08:56:43Z</time></trkpt><trkpt lat="40.13916020692267" lon="15.654698032699656"><ele>913.6</ele><time>2026-04-26T08:56:45Z</time></trkpt><trkpt lat="40.139103605730604" lon="15.654786143677164"><ele>912.0</ele><time>2026-04-26T08:56:47Z</time></trkpt><trkpt lat="40.13900484874143" lon="15.654916408894417"><ele>912.0</ele><time>2026-04-26T08:56:50Z</time></trkpt><trkpt lat="40.13895872096302" lon="15.655008142455097"><ele>912.0</ele><time>2026-04-26T08:56:51Z</time></trkpt><trkpt lat="40.138919275741365" lon="15.655075527141218"><ele>912.0</ele><time>2026-04-26T08:56:53Z</time></trkpt><trkpt lat="40.138875284933185" lon="15.655160528652738"><ele>912.0</ele><time>2026-04-26T08:56:55Z</time></trkpt><trkpt lat="40.13882719280789" lon="15.655243575320103"><ele>912.0</ele><time>2026-04-26T08:56:57Z</time></trkpt><trkpt lat="40.138770452798575" lon="15.65536874607577"><ele>912.0</ele><time>2026-04-26T08:56:59Z</time></trkpt><trkpt lat="40.138707216228354" lon="15.655495679962689"><ele>918.6</ele><time>2026-04-26T08:57:01Z</time></trkpt><trkpt lat="40.138653794010956" lon="15.655595407348123"><ele>925.2</ele><time>2026-04-26T08:57:03Z</time></trkpt><trkpt lat="40.138586959689384" lon="15.655666454893375"><ele>931.8</ele><time>2026-04-26T08:57:05Z</time></trkpt><trkpt lat="40.138529639976746" lon="15.655744083598103"><ele>938.4</ele><time>2026-04-26T08:57:07Z</time></trkpt><trkpt lat="40.138464676919995" lon="15.655834630991782"><ele>945.0</ele><time>2026-04-26T08:57:09Z</time></trkpt><trkpt lat="40.138394254531164" lon="15.655941759132837"><ele>945.0</ele><time>2026-04-26T08:57:11Z</time></trkpt><trkpt lat="40.13830223469676" lon="15.656038601462276"><ele>945.0</ele><time>2026-04-26T08:57:13Z</time></trkpt><trkpt lat="40.138223641689514" lon="15.656092901949945"><ele>945.0</ele><time>2026-04-26T08:57:15Z</time></trkpt><trkpt lat="40.13814979465931" lon="15.656132253967508"><ele>945.0</ele><time>2026-04-26T08:57:17Z</time></trkpt><trkpt lat="40.13807111004738" lon="15.656188419782275"><ele>945.0</ele><time>2026-04-26T08:57:20Z</time></trkpt><trkpt lat="40.1379949702536" lon="15.656251749131746"><ele>948.8</ele><time>2026-04-26T08:57:22Z</time></trkpt><trkpt lat="40.137910975506294" lon="15.656292757606039"><ele>952.6</ele><time>2026-04-26T08:57:23.999Z</time></trkpt><trkpt lat="40.13783674629371" lon="15.656343270351208"><ele>956.4000000000001</ele><time>2026-04-26T08:57:25.999Z</time></trkpt><trkpt lat="40.137752208228996" lon="15.656416725918332"><ele>960.2</ele><time>2026-04-26T08:57:27.999Z</time></trkpt><trkpt lat="40.13768212896947" lon="15.656488980763731"><ele>964.0</ele><time>2026-04-26T08:57:29.999Z</time></trkpt><trkpt lat="40.13761648678077" lon="15.65656463561658"><ele>963.9999999999999</ele><time>2026-04-26T08:57:31.999Z</time></trkpt><trkpt lat="40.13756732897251" lon="15.656636499092869"><ele>964.0</ele><time>2026-04-26T08:57:33.999Z</time></trkpt><trkpt lat="40.1375174570037" lon="15.656694696133219"><ele>964.0</ele><time>2026-04-26T08:57:36.999Z</time></trkpt><trkpt lat="40.13743864482933" lon="15.65672885869477"><ele>964.0</ele><time>2026-04-26T08:57:48.999Z</time></trkpt><trkpt lat="40.13738614385349" lon="15.656809226372086"><ele>963.9999999999999</ele><time>2026-04-26T08:57:50.999Z</time></trkpt><trkpt lat="40.13736409686092" lon="15.656934100729526"><ele>964.0</ele><time>2026-04-26T08:57:52.999Z</time></trkpt><trkpt lat="40.137372489122896" lon="15.657052795603937"><ele>964.9999999999999</ele><time>2026-04-26T08:57:54.999Z</time></trkpt><trkpt lat="40.13736023450887" lon="15.657151482072685"><ele>966.0</ele><time>2026-04-26T08:57:56.999Z</time></trkpt><trkpt lat="40.13734817577664" lon="15.657247939445453"><ele>967.0</ele><time>2026-04-26T08:59:58.999Z</time></trkpt><trkpt lat="40.13730606201621" lon="15.65734724786496"><ele>968.0</ele><time>2026-04-26T09:00:01.999Z</time></trkpt><trkpt lat="40.13727986496745" lon="15.657491164552649"><ele>968.9999999999999</ele><time>2026-04-26T09:00:03.999Z</time></trkpt><trkpt lat="40.13726029591441" lon="15.657574690836823"><ele>970.0</ele><time>2026-04-26T09:00:04.999Z</time></trkpt><trkpt lat="40.13723321345641" lon="15.65765458020134"><ele>970.0</ele><time>2026-04-26T09:00:05.999Z</time></trkpt><trkpt lat="40.1372078802279" lon="15.657743585202796"><ele>970.0</ele><time>2026-04-26T09:00:06.999Z</time></trkpt><trkpt lat="40.13718971599587" lon="15.657850495212717"><ele>970.0</ele><time>2026-04-26T09:00:07.999Z</time></trkpt><trkpt lat="40.13717130768237" lon="15.657980541389678"><ele>970.0</ele><time>2026-04-26T09:00:08.999Z</time></trkpt><trkpt lat="40.13714988781451" lon="15.658115748034632"><ele>970.0</ele><time>2026-04-26T09:00:09.999Z</time></trkpt><trkpt lat="40.13713514880074" lon="15.658241950010765"><ele>974.6666666666666</ele><time>2026-04-26T09:00:10.999Z</time></trkpt><trkpt lat="40.13711760924347" lon="15.658336777860189"><ele>979.3333333333333</ele><time>2026-04-26T09:00:11.999Z</time></trkpt><trkpt lat="40.13705364436918" lon="15.658426170415723"><ele>984.0</ele><time>2026-04-26T09:00:13.999Z</time></trkpt><trkpt lat="40.13698152407086" lon="15.658483782748606"><ele>988.6666666666667</ele><time>2026-04-26T09:00:14.999Z</time></trkpt><trkpt lat="40.13691551456251" lon="15.658561947115626"><ele>993.3333333333334</ele><time>2026-04-26T09:00:15.999Z</time></trkpt><trkpt lat="40.13684734768098" lon="15.658605842327098"><ele>998.0</ele><time>2026-04-26T09:00:16.999Z</time></trkpt><trkpt lat="40.13673545824601" lon="15.658625414183753"><ele>998.0</ele><time>2026-04-26T09:00:18.999Z</time></trkpt><trkpt lat="40.13660188317542" lon="15.658537738636078"><ele>998.0</ele><time>2026-04-26T09:00:20.999Z</time></trkpt><trkpt lat="40.13651253315677" lon="15.658519326209204"><ele>998.0</ele><time>2026-04-26T09:00:21.999Z</time></trkpt><trkpt lat="40.13644696616814" lon="15.658526054246689"><ele>998.0</ele><time>2026-04-26T09:00:22.999Z</time></trkpt><trkpt lat="40.136312890879665" lon="15.658578581046324"><ele>998.0</ele><time>2026-04-26T09:00:25Z</time></trkpt><trkpt lat="40.13625756975155" lon="15.658622985178802"><ele>1000.1666666666667</ele><time>2026-04-26T09:00:26Z</time></trkpt><trkpt lat="40.13616992505653" lon="15.65865932786938"><ele>1002.3333333333334</ele><time>2026-04-26T09:00:27Z</time></trkpt><trkpt lat="40.13610748969969" lon="15.65871821353193"><ele>1004.5</ele><time>2026-04-26T09:00:28Z</time></trkpt><trkpt lat="40.13606757507347" lon="15.658793553683825"><ele>1006.6666666666667</ele><time>2026-04-26T09:00:29Z</time></trkpt><trkpt lat="40.13602141022491" lon="15.658889666765775"><ele>1008.8333333333334</ele><time>2026-04-26T09:00:31Z</time></trkpt><trkpt lat="40.1359911121838" lon="15.658968432931523"><ele>1011.0</ele><time>2026-04-26T09:00:57Z</time></trkpt><trkpt lat="40.135941886768165" lon="15.659057374389786"><ele>1011.0</ele><time>2026-04-26T09:01:11Z</time></trkpt><trkpt lat="40.13592867794431" lon="15.659146127491828"><ele>1011.0</ele><time>2026-04-26T09:01:13Z</time></trkpt><trkpt lat="40.13588603941823" lon="15.659242992057047"><ele>1011.0</ele><time>2026-04-26T09:01:16Z</time></trkpt><trkpt lat="40.135864155985416" lon="15.659320598480514"><ele>1011.0</ele><time>2026-04-26T09:01:18Z</time></trkpt><trkpt lat="40.135839970532196" lon="15.65940800796865"><ele>1011.0</ele><time>2026-04-26T09:01:22Z</time></trkpt><trkpt lat="40.13582087656836" lon="15.659500222239165"><ele>1011.0</ele><time>2026-04-26T09:01:24Z</time></trkpt><trkpt lat="40.13579082868077" lon="15.659635234271553"><ele>1010.0</ele><time>2026-04-26T09:01:26Z</time></trkpt><trkpt lat="40.13575863599811" lon="15.659778583875916"><ele>1009.0</ele><time>2026-04-26T09:01:28Z</time></trkpt><trkpt lat="40.13574574850368" lon="15.659861838041316"><ele>1008.0</ele><time>2026-04-26T09:01:28.999Z</time></trkpt><trkpt lat="40.13572828898034" lon="15.659949862194745"><ele>1007.0</ele><time>2026-04-26T09:01:29.999Z</time></trkpt><trkpt lat="40.13570472781723" lon="15.660046209201804"><ele>1006.0</ele><time>2026-04-26T09:01:30.999Z</time></trkpt><trkpt lat="40.135683991281624" lon="15.66012799353625"><ele>1005.0</ele><time>2026-04-26T09:01:31.999Z</time></trkpt><trkpt lat="40.13566600156335" lon="15.660294520154745"><ele>1005.0</ele><time>2026-04-26T09:01:33.999Z</time></trkpt><trkpt lat="40.13566035149173" lon="15.66043145574158"><ele>1005.0</ele><time>2026-04-26T09:01:35.999Z</time></trkpt><trkpt lat="40.13563175089759" lon="15.660546387503981"><ele>1005.0</ele><time>2026-04-26T09:01:37.999Z</time></trkpt><trkpt lat="40.13559579719663" lon="15.660694910704663"><ele>1005.0</ele><time>2026-04-26T09:01:39.999Z</time></trkpt><trkpt lat="40.13557034248587" lon="15.66077911821057"><ele>1005.0</ele><time>2026-04-26T09:01:40.999Z</time></trkpt><trkpt lat="40.13555014615884" lon="15.660864125996786"><ele>1005.0</ele><time>2026-04-26T09:01:41.999Z</time></trkpt><trkpt lat="40.13553022562948" lon="15.660957763822342"><ele>1005.0</ele><time>2026-04-26T09:01:42.999Z</time></trkpt><trkpt lat="40.135515022259135" lon="15.661108866869546"><ele>1005.0</ele><time>2026-04-26T09:01:44.999Z</time></trkpt><trkpt lat="40.13553417213065" lon="15.661254797117843"><ele>1005.0</ele><time>2026-04-26T09:01:46.999Z</time></trkpt><trkpt lat="40.135558560538186" lon="15.661397686484193"><ele>1005.0</ele><time>2026-04-26T09:01:48.999Z</time></trkpt><trkpt lat="40.1355649720842" lon="15.661565394692913"><ele>1007.6</ele><time>2026-04-26T09:01:50.999Z</time></trkpt><trkpt lat="40.13556060167175" lon="15.661649541941003"><ele>1010.2</ele><time>2026-04-26T09:01:51.999Z</time></trkpt><trkpt lat="40.135541245546946" lon="15.661795377172274"><ele>1012.8</ele><time>2026-04-26T09:01:53.999Z</time></trkpt><trkpt lat="40.13552572917945" lon="15.661947455823896"><ele>1015.4</ele><time>2026-04-26T09:01:55.999Z</time></trkpt><trkpt lat="40.13551839016369" lon="15.662034206359872"><ele>1018.0</ele><time>2026-04-26T09:01:56.999Z</time></trkpt><trkpt lat="40.1354731331926" lon="15.662179312588783"><ele>1022.9999999999999</ele><time>2026-04-26T09:01:58.999Z</time></trkpt><trkpt lat="40.13542484402087" lon="15.662239839980582"><ele>1028.0</ele><time>2026-04-26T09:01:59.999Z</time></trkpt><trkpt lat="40.13536573329207" lon="15.66231243334087"><ele>1033.0</ele><time>2026-04-26T09:02:00.999Z</time></trkpt><trkpt lat="40.135307348870136" lon="15.662405538107626"><ele>1038.0</ele><time>2026-04-26T09:02:01.999Z</time></trkpt><trkpt lat="40.135244191428754" lon="15.662504468458598"><ele>1043.0</ele><time>2026-04-26T09:02:02.999Z</time></trkpt><trkpt lat="40.135173308582736" lon="15.662599413328477"><ele>1048.0</ele><time>2026-04-26T09:02:03.999Z</time></trkpt><trkpt lat="40.13510687035672" lon="15.662697588711714"><ele>1043.75</ele><time>2026-04-26T09:02:04.999Z</time></trkpt><trkpt lat="40.13503712138914" lon="15.662804135366308"><ele>1039.5</ele><time>2026-04-26T09:02:05.999Z</time></trkpt><trkpt lat="40.13495614391281" lon="15.662924527910825"><ele>1035.25</ele><time>2026-04-26T09:02:06.999Z</time></trkpt><trkpt lat="40.134881219955716" lon="15.663065327984066"><ele>1031.0</ele><time>2026-04-26T09:02:07.999Z</time></trkpt><trkpt lat="40.134816746280194" lon="15.66321680594437"><ele>1031.0</ele><time>2026-04-26T09:02:08.999Z</time></trkpt><trkpt lat="40.13476410032194" lon="15.663351428762617"><ele>1031.0</ele><time>2026-04-26T09:02:09.999Z</time></trkpt><trkpt lat="40.13470484527264" lon="15.663496604086186"><ele>1031.0</ele><time>2026-04-26T09:02:10.999Z</time></trkpt><trkpt lat="40.13464202126393" lon="15.663624036471886"><ele>1031.0</ele><time>2026-04-26T09:02:11.999Z</time></trkpt><trkpt lat="40.134584002029655" lon="15.663731325806038"><ele>1034.3333333333335</ele><time>2026-04-26T09:02:12.999Z</time></trkpt><trkpt lat="40.134516259772965" lon="15.663824829556749"><ele>1037.6666666666667</ele><time>2026-04-26T09:02:13.999Z</time></trkpt><trkpt lat="40.134457715816104" lon="15.663913338527665"><ele>1041.0</ele><time>2026-04-26T09:02:14.999Z</time></trkpt><trkpt lat="40.134414337351046" lon="15.66400897350408"><ele>1044.3333333333333</ele><time>2026-04-26T09:02:15.999Z</time></trkpt><trkpt lat="40.13437588459923" lon="15.664106687633957"><ele>1047.6666666666665</ele><time>2026-04-26T09:02:16.999Z</time></trkpt><trkpt lat="40.13434123523934" lon="15.664211978547556"><ele>1051.0</ele><time>2026-04-26T09:02:17.999Z</time></trkpt><trkpt lat="40.13430763978126" lon="15.664313779995844"><ele>1051.0</ele><time>2026-04-26T09:02:18.999Z</time></trkpt><trkpt lat="40.134288546329685" lon="15.664415534572417"><ele>1051.0</ele><time>2026-04-26T09:02:19.999Z</time></trkpt><trkpt lat="40.13428259740279" lon="15.664516359833508"><ele>1051.0</ele><time>2026-04-26T09:02:20.999Z</time></trkpt><trkpt lat="40.13429332829129" lon="15.66460906577093"><ele>1051.0</ele><time>2026-04-26T09:02:21.999Z</time></trkpt><trkpt lat="40.13431383152682" lon="15.664701643451172"><ele>1051.0</ele><time>2026-04-26T09:02:22.999Z</time></trkpt><trkpt lat="40.1343330404019" lon="15.664782925976843"><ele>1051.0</ele><time>2026-04-26T09:02:23.999Z</time></trkpt><trkpt lat="40.134401616022664" lon="15.664910693527622"><ele>1052.0</ele><time>2026-04-26T09:02:25.999Z</time></trkpt><trkpt lat="40.13445188181228" lon="15.66497561951505"><ele>1053.0</ele><time>2026-04-26T09:02:26.999Z</time></trkpt><trkpt lat="40.134509372642825" lon="15.665037683008952"><ele>1054.0</ele><time>2026-04-26T09:02:27.999Z</time></trkpt><trkpt lat="40.13456283072652" lon="15.665107641061338"><ele>1055.0</ele><time>2026-04-26T09:02:28.999Z</time></trkpt><trkpt lat="40.13458674432332" lon="15.66518743316375"><ele>1056.0</ele><time>2026-04-26T09:02:29.999Z</time></trkpt><trkpt lat="40.13461075699748" lon="15.66527422286171"><ele>1057.0</ele><time>2026-04-26T09:02:31Z</time></trkpt><trkpt lat="40.134635966954654" lon="15.665350422316168"><ele>1058.0</ele><time>2026-04-26T09:02:32Z</time></trkpt><trkpt lat="40.134626056858394" lon="15.665506454631933"><ele>1059.6</ele><time>2026-04-26T09:02:34Z</time></trkpt><trkpt lat="40.134595339072916" lon="15.665627106477132"><ele>1061.1999999999998</ele><time>2026-04-26T09:02:35Z</time></trkpt><trkpt lat="40.13455131444398" lon="15.665768428382885"><ele>1062.8</ele><time>2026-04-26T09:02:36Z</time></trkpt><trkpt lat="40.134517007430674" lon="15.665896232998268"><ele>1064.3999999999999</ele><time>2026-04-26T09:02:37Z</time></trkpt><trkpt lat="40.134478011776274" lon="15.665993054768176"><ele>1066.0</ele><time>2026-04-26T09:02:38Z</time></trkpt><trkpt lat="40.13442795572827" lon="15.66607358963481"><ele>1070.6</ele><time>2026-04-26T09:02:39Z</time></trkpt><trkpt lat="40.13436617845926" lon="15.666161259363275"><ele>1075.1999999999998</ele><time>2026-04-26T09:02:40Z</time></trkpt><trkpt lat="40.13430671491853" lon="15.666259841195115"><ele>1079.8000000000002</ele><time>2026-04-26T09:02:41Z</time></trkpt><trkpt lat="40.13425437668117" lon="15.666359510599232"><ele>1084.4</ele><time>2026-04-26T09:02:42Z</time></trkpt><trkpt lat="40.134204074178314" lon="15.66645511953039"><ele>1089.0</ele><time>2026-04-26T09:02:43Z</time></trkpt><trkpt lat="40.13415509476931" lon="15.66655038550757"><ele>1089.0</ele><time>2026-04-26T09:02:44Z</time></trkpt><trkpt lat="40.13409279007963" lon="15.666641710893654"><ele>1089.0</ele><time>2026-04-26T09:02:45Z</time></trkpt><trkpt lat="40.13403538174126" lon="15.666755253931482"><ele>1089.0</ele><time>2026-04-26T09:02:46Z</time></trkpt><trkpt lat="40.13399380900274" lon="15.666854498200328"><ele>1089.0</ele><time>2026-04-26T09:02:47Z</time></trkpt><trkpt lat="40.133960374704635" lon="15.666941281749095"><ele>1089.0</ele><time>2026-04-26T09:02:48Z</time></trkpt><trkpt lat="40.13387878889407" lon="15.667076021153505"><ele>1089.8</ele><time>2026-04-26T09:02:50Z</time></trkpt><trkpt lat="40.13378068482624" lon="15.66715030053201"><ele>1090.6000000000001</ele><time>2026-04-26T09:02:51Z</time></trkpt><trkpt lat="40.133686097352346" lon="15.667249513578472"><ele>1091.4</ele><time>2026-04-26T09:02:52Z</time></trkpt><trkpt lat="40.13361394767791" lon="15.667340679114707"><ele>1092.2</ele><time>2026-04-26T09:02:53Z</time></trkpt><trkpt lat="40.13357604434063" lon="15.667409680129586"><ele>1093.0</ele><time>2026-04-26T09:02:54Z</time></trkpt><trkpt lat="40.13352474292669" lon="15.667478972001248"><ele>1093.0</ele><time>2026-04-26T09:02:56Z</time></trkpt><trkpt lat="40.13355773927185" lon="15.667553548973885"><ele>1093.0</ele><time>2026-04-26T09:03:40.999Z</time></trkpt><trkpt lat="40.133625137446366" lon="15.667643857194697"><ele>1093.0</ele><time>2026-04-26T09:03:54.999Z</time></trkpt><trkpt lat="40.1337132114096" lon="15.667718683109642"><ele>1093.0</ele><time>2026-04-26T09:03:56.999Z</time></trkpt><trkpt lat="40.13377517854919" lon="15.667758280103707"><ele>1093.0</ele><time>2026-04-26T09:03:57.999Z</time></trkpt><trkpt lat="40.133839012216775" lon="15.667786341169553"><ele>1093.0</ele><time>2026-04-26T09:03:58.999Z</time></trkpt><trkpt lat="40.13394116767632" lon="15.667808482457788"><ele>1090.6666666666665</ele><time>2026-04-26T09:04:00.999Z</time></trkpt><trkpt lat="40.1340709413641" lon="15.667800188788734"><ele>1088.3333333333333</ele><time>2026-04-26T09:04:02.999Z</time></trkpt><trkpt lat="40.13415058964104" lon="15.667814599524723"><ele>1086.0</ele><time>2026-04-26T09:04:03.999Z</time></trkpt><trkpt lat="40.13423789585061" lon="15.667840399830691"><ele>1083.6666666666667</ele><time>2026-04-26T09:04:04.999Z</time></trkpt><trkpt lat="40.13430980981916" lon="15.667857243228779"><ele>1081.3333333333335</ele><time>2026-04-26T09:04:05.999Z</time></trkpt><trkpt lat="40.13437744670575" lon="15.667880652665138"><ele>1079.0</ele><time>2026-04-26T09:04:06.999Z</time></trkpt><trkpt lat="40.1344882691219" lon="15.667914281345341"><ele>1079.0</ele><time>2026-04-26T09:04:08.999Z</time></trkpt><trkpt lat="40.13459066164414" lon="15.667958064231817"><ele>1079.0</ele><time>2026-04-26T09:04:10.999Z</time></trkpt><trkpt lat="40.13470801374317" lon="15.667996418393423"><ele>1079.0</ele><time>2026-04-26T09:04:12.999Z</time></trkpt><trkpt lat="40.13484221150406" lon="15.668053040784123"><ele>1079.0</ele><time>2026-04-26T09:04:14.999Z</time></trkpt><trkpt lat="40.13491086171957" lon="15.66809307549369"><ele>1079.0</ele><time>2026-04-26T09:04:15.999Z</time></trkpt><trkpt lat="40.134975254346486" lon="15.668137886495224"><ele>1081.0</ele><time>2026-04-26T09:04:16.999Z</time></trkpt><trkpt lat="40.13504580572722" lon="15.668171514600553"><ele>1083.0</ele><time>2026-04-26T09:04:17.999Z</time></trkpt><trkpt lat="40.135111041757476" lon="15.668202020018642"><ele>1085.0</ele><time>2026-04-26T09:04:18.999Z</time></trkpt><trkpt lat="40.135176814019985" lon="15.668244266114725"><ele>1087.0</ele><time>2026-04-26T09:04:19.999Z</time></trkpt><trkpt lat="40.13524687968251" lon="15.668286644595227"><ele>1089.0</ele><time>2026-04-26T09:04:20.999Z</time></trkpt><trkpt lat="40.13531414137285" lon="15.668321412214942"><ele>1091.0</ele><time>2026-04-26T09:04:21.999Z</time></trkpt><trkpt lat="40.135431425023626" lon="15.668380967286156"><ele>1091.0</ele><time>2026-04-26T09:04:23.999Z</time></trkpt><trkpt lat="40.13550252411762" lon="15.668402475543925"><ele>1091.0</ele><time>2026-04-26T09:04:24.999Z</time></trkpt><trkpt lat="40.135580353374266" lon="15.668437089743358"><ele>1091.0</ele><time>2026-04-26T09:04:25.999Z</time></trkpt><trkpt lat="40.13565275096042" lon="15.668467765012345"><ele>1091.0</ele><time>2026-04-26T09:04:26.999Z</time></trkpt><trkpt lat="40.13573072213751" lon="15.668496569698371"><ele>1091.0</ele><time>2026-04-26T09:04:27.999Z</time></trkpt><trkpt lat="40.135816795792195" lon="15.668532373259518"><ele>1091.0</ele><time>2026-04-26T09:04:28.999Z</time></trkpt><trkpt lat="40.1358950814076" lon="15.668576340838756"><ele>1084.8</ele><time>2026-04-26T09:04:29.999Z</time></trkpt><trkpt lat="40.13598238034622" lon="15.668610947427174"><ele>1078.6</ele><time>2026-04-26T09:04:30.999Z</time></trkpt><trkpt lat="40.13606839764308" lon="15.66864524508478"><ele>1072.4</ele><time>2026-04-26T09:04:31.999Z</time></trkpt><trkpt lat="40.136155296703016" lon="15.668698715435003"><ele>1066.2</ele><time>2026-04-26T09:04:32.999Z</time></trkpt><trkpt lat="40.13623746247702" lon="15.66873810329735"><ele>1060.0</ele><time>2026-04-26T09:04:33.999Z</time></trkpt><trkpt lat="40.13632004444311" lon="15.668776889420746"><ele>1060.0</ele><time>2026-04-26T09:04:34.999Z</time></trkpt><trkpt lat="40.1364073125756" lon="15.668815742777342"><ele>1060.0</ele><time>2026-04-26T09:04:35.999Z</time></trkpt><trkpt lat="40.13649364014736" lon="15.668839454142772"><ele>1060.0</ele><time>2026-04-26T09:04:37Z</time></trkpt><trkpt lat="40.13657735504859" lon="15.668868780230309"><ele>1060.0</ele><time>2026-04-26T09:04:38Z</time></trkpt><trkpt lat="40.136654326036634" lon="15.668877587044507"><ele>1060.0</ele><time>2026-04-26T09:04:39Z</time></trkpt><trkpt lat="40.136726298991434" lon="15.668877029705648"><ele>1060.0</ele><time>2026-04-26T09:04:40Z</time></trkpt><trkpt lat="40.13680615310503" lon="15.668868301580968"><ele>1061.5</ele><time>2026-04-26T09:04:41Z</time></trkpt><trkpt lat="40.13688749165191" lon="15.668866671999059"><ele>1063.0</ele><time>2026-04-26T09:04:42Z</time></trkpt><trkpt lat="40.13698213776765" lon="15.668827624480686"><ele>1064.5</ele><time>2026-04-26T09:04:43Z</time></trkpt><trkpt lat="40.13706350453711" lon="15.668793267753253"><ele>1066.0</ele><time>2026-04-26T09:04:44Z</time></trkpt><trkpt lat="40.13712929585655" lon="15.668744140670055"><ele>1067.5</ele><time>2026-04-26T09:04:45Z</time></trkpt><trkpt lat="40.13719122329527" lon="15.668704904968884"><ele>1069.0</ele><time>2026-04-26T09:04:46Z</time></trkpt><trkpt lat="40.1373152839451" lon="15.668727336820222"><ele>1069.0</ele><time>2026-04-26T09:04:48Z</time></trkpt><trkpt lat="40.13738466805513" lon="15.668815446762956"><ele>1069.0</ele><time>2026-04-26T09:04:49Z</time></trkpt><trkpt lat="40.13744476977469" lon="15.668916212505799"><ele>1069.0</ele><time>2026-04-26T09:04:50Z</time></trkpt><trkpt lat="40.13750498781312" lon="15.66899276063318"><ele>1069.0</ele><time>2026-04-26T09:04:51Z</time></trkpt><trkpt lat="40.13755434619886" lon="15.669066506096122"><ele>1069.0</ele><time>2026-04-26T09:04:52Z</time></trkpt><trkpt lat="40.13759515124485" lon="15.669151242997774"><ele>1069.0</ele><time>2026-04-26T09:04:53Z</time></trkpt><trkpt lat="40.137663689756785" lon="15.669208070867676"><ele>1070.8</ele><time>2026-04-26T09:04:54Z</time></trkpt><trkpt lat="40.13774699890862" lon="15.669246629697037"><ele>1072.6000000000001</ele><time>2026-04-26T09:04:55Z</time></trkpt><trkpt lat="40.13783551711401" lon="15.669284342960195"><ele>1074.4</ele><time>2026-04-26T09:04:56Z</time></trkpt><trkpt lat="40.137939862746144" lon="15.66932344287804"><ele>1076.2</ele><time>2026-04-26T09:04:57Z</time></trkpt><trkpt lat="40.13805435508918" lon="15.669350610422867"><ele>1078.0</ele><time>2026-04-26T09:04:58Z</time></trkpt><trkpt lat="40.13817257896116" lon="15.66937074977721"><ele>1080.2</ele><time>2026-04-26T09:04:59Z</time></trkpt><trkpt lat="40.13827607861483" lon="15.669389145689111"><ele>1082.4</ele><time>2026-04-26T09:05:00Z</time></trkpt><trkpt lat="40.13837659951489" lon="15.669413812684606"><ele>1084.6000000000001</ele><time>2026-04-26T09:05:01Z</time></trkpt><trkpt lat="40.13847528721874" lon="15.669382832845674"><ele>1086.8</ele><time>2026-04-26T09:05:02Z</time></trkpt><trkpt lat="40.13856442859715" lon="15.669427389242303"><ele>1089.0</ele><time>2026-04-26T09:05:03Z</time></trkpt><trkpt lat="40.1386519120314" lon="15.66943897953825"><ele>1083.1666666666667</ele><time>2026-04-26T09:05:05Z</time></trkpt><trkpt lat="40.1386916472226" lon="15.669519926736507"><ele>1077.3333333333333</ele><time>2026-04-26T09:05:09Z</time></trkpt><trkpt lat="40.13860894669408" lon="15.66957226518847"><ele>1071.5</ele><time>2026-04-26T09:05:12Z</time></trkpt><trkpt lat="40.138541150844134" lon="15.669554456315701"><ele>1065.6666666666665</ele><time>2026-04-26T09:05:13Z</time></trkpt><trkpt lat="40.138457863457674" lon="15.669539478014938"><ele>1059.8333333333333</ele><time>2026-04-26T09:05:14Z</time></trkpt><trkpt lat="40.138374983146775" lon="15.669551576676279"><ele>1054.0</ele><time>2026-04-26T09:05:15Z</time></trkpt><trkpt lat="40.13827334913841" lon="15.669570614096173"><ele>1050.75</ele><time>2026-04-26T09:05:16Z</time></trkpt><trkpt lat="40.138136920374514" lon="15.669576309299822"><ele>1047.5</ele><time>2026-04-26T09:05:17Z</time></trkpt><trkpt lat="40.13799605841026" lon="15.669586389924016"><ele>1044.25</ele><time>2026-04-26T09:05:18Z</time></trkpt><trkpt lat="40.13788920233494" lon="15.669578058456235"><ele>1041.0</ele><time>2026-04-26T09:05:19Z</time></trkpt><trkpt lat="40.137785309410745" lon="15.669570861335332"><ele>1041.0</ele><time>2026-04-26T09:05:20Z</time></trkpt><trkpt lat="40.13769361290905" lon="15.669548485919794"><ele>1041.0</ele><time>2026-04-26T09:05:21Z</time></trkpt><trkpt lat="40.137604859277545" lon="15.669526059612123"><ele>1041.0</ele><time>2026-04-26T09:05:22Z</time></trkpt><trkpt lat="40.13752280812327" lon="15.669478246682226"><ele>1041.0</ele><time>2026-04-26T09:05:23Z</time></trkpt><trkpt lat="40.13745830238483" lon="15.669431258771201"><ele>1041.0</ele><time>2026-04-26T09:05:24Z</time></trkpt><trkpt lat="40.137385307841576" lon="15.66936658252299"><ele>1041.0</ele><time>2026-04-26T09:05:25Z</time></trkpt><trkpt lat="40.13732199498502" lon="15.66928119885188"><ele>1046.6</ele><time>2026-04-26T09:05:26Z</time></trkpt><trkpt lat="40.137267421236345" lon="15.669178942201876"><ele>1052.1999999999998</ele><time>2026-04-26T09:05:27Z</time></trkpt><trkpt lat="40.13722492892516" lon="15.66911035502573"><ele>1057.8000000000002</ele><time>2026-04-26T09:05:28Z</time></trkpt><trkpt lat="40.13711346759813" lon="15.66911952198533"><ele>1063.4</ele><time>2026-04-26T09:05:30Z</time></trkpt><trkpt lat="40.13704251101481" lon="15.669170352950694"><ele>1069.0</ele><time>2026-04-26T09:05:31Z</time></trkpt><trkpt lat="40.13697249172468" lon="15.669255148418117"><ele>1069.0</ele><time>2026-04-26T09:05:32Z</time></trkpt><trkpt lat="40.13690939433172" lon="15.669297487700666"><ele>1069.0</ele><time>2026-04-26T09:05:33Z</time></trkpt><trkpt lat="40.13679482825153" lon="15.669360626134516"><ele>1069.0</ele><time>2026-04-26T09:05:35Z</time></trkpt><trkpt lat="40.13671001541723" lon="15.669414164521347"><ele>1069.0</ele><time>2026-04-26T09:05:36Z</time></trkpt><trkpt lat="40.13662138865643" lon="15.66947729360552"><ele>1069.0</ele><time>2026-04-26T09:05:37Z</time></trkpt><trkpt lat="40.13656205511277" lon="15.669544367098856"><ele>1066.0</ele><time>2026-04-26T09:05:37.999Z</time></trkpt><trkpt lat="40.13639621216989" lon="15.669396686887877"><ele>1063.0</ele><time>2026-04-26T09:05:38.999Z</time></trkpt><trkpt lat="40.13621840921025" lon="15.669348307935783"><ele>1060.0</ele><time>2026-04-26T09:05:40.999Z</time></trkpt><trkpt lat="40.136071492080774" lon="15.669306857246882"><ele>1060.0</ele><time>2026-04-26T09:05:41.999Z</time></trkpt><trkpt lat="40.13592433284716" lon="15.66927408101134"><ele>1060.0</ele><time>2026-04-26T09:05:42.999Z</time></trkpt><trkpt lat="40.1357869036797" lon="15.669245708870028"><ele>1060.0</ele><time>2026-04-26T09:05:43.999Z</time></trkpt><trkpt lat="40.13567423366969" lon="15.669210331097725"><ele>1060.0</ele><time>2026-04-26T09:05:44.999Z</time></trkpt><trkpt lat="40.135569149712424" lon="15.6691859118773"><ele>1058.0</ele><time>2026-04-26T09:05:45.999Z</time></trkpt><trkpt lat="40.13547106880453" lon="15.669158479041386"><ele>1056.0</ele><time>2026-04-26T09:05:46.999Z</time></trkpt><trkpt lat="40.13540009006285" lon="15.669151985162653"><ele>1054.0</ele><time>2026-04-26T09:05:47.999Z</time></trkpt><trkpt lat="40.135320092647696" lon="15.669141394436192"><ele>1052.0</ele><time>2026-04-26T09:05:48.999Z</time></trkpt><trkpt lat="40.13521652661399" lon="15.669121038866148"><ele>1050.0</ele><time>2026-04-26T09:05:49.999Z</time></trkpt><trkpt lat="40.13509402585681" lon="15.669078782262698"><ele>1050.0</ele><time>2026-04-26T09:05:50.999Z</time></trkpt><trkpt lat="40.134971940610015" lon="15.669038168644182"><ele>1050.0</ele><time>2026-04-26T09:05:51.999Z</time></trkpt><trkpt lat="40.13486571675622" lon="15.669004183356542"><ele>1050.0</ele><time>2026-04-26T09:05:52.999Z</time></trkpt><trkpt lat="40.13476534577961" lon="15.668969576530886"><ele>1050.0</ele><time>2026-04-26T09:05:53.999Z</time></trkpt><trkpt lat="40.13465961978847" lon="15.668913047211499"><ele>1047.6666666666667</ele><time>2026-04-26T09:05:54.999Z</time></trkpt><trkpt lat="40.13457662701185" lon="15.66887072026027"><ele>1045.3333333333333</ele><time>2026-04-26T09:05:55.999Z</time></trkpt><trkpt lat="40.1344933017156" lon="15.668833481401778"><ele>1043.0</ele><time>2026-04-26T09:05:56.999Z</time></trkpt><trkpt lat="40.1344124122788" lon="15.668802414916593"><ele>1040.6666666666665</ele><time>2026-04-26T09:05:57.999Z</time></trkpt><trkpt lat="40.13433937631271" lon="15.668796639816438"><ele>1038.3333333333333</ele><time>2026-04-26T09:05:58.999Z</time></trkpt><trkpt lat="40.13425284626428" lon="15.66881031546551"><ele>1036.0</ele><time>2026-04-26T09:05:59.999Z</time></trkpt><trkpt lat="40.13408825394346" lon="15.668864569493783"><ele>1038.6</ele><time>2026-04-26T09:06:01.999Z</time></trkpt><trkpt lat="40.13396931087637" lon="15.668867991555711"><ele>1041.1999999999998</ele><time>2026-04-26T09:06:02.999Z</time></trkpt><trkpt lat="40.13386824132474" lon="15.668891124193351"><ele>1043.8000000000002</ele><time>2026-04-26T09:06:03.999Z</time></trkpt><trkpt lat="40.133766500342624" lon="15.668906276022897"><ele>1046.4</ele><time>2026-04-26T09:06:04.999Z</time></trkpt><trkpt lat="40.13366685662752" lon="15.668918931364786"><ele>1049.0</ele><time>2026-04-26T09:06:05.999Z</time></trkpt><trkpt lat="40.13356572723709" lon="15.668962382856302"><ele>1049.0</ele><time>2026-04-26T09:06:06.999Z</time></trkpt><trkpt lat="40.133463037386015" lon="15.66900977617608"><ele>1049.0</ele><time>2026-04-26T09:06:07.999Z</time></trkpt><trkpt lat="40.13336208841048" lon="15.669056034656526"><ele>1049.0</ele><time>2026-04-26T09:06:08.999Z</time></trkpt><trkpt lat="40.13329459326704" lon="15.669111920657583"><ele>1049.0</ele><time>2026-04-26T09:06:09.999Z</time></trkpt><trkpt lat="40.133236398417395" lon="15.669146508175567"><ele>1049.0</ele><time>2026-04-26T09:06:10.999Z</time></trkpt><trkpt lat="40.13316031264643" lon="15.669228540148604"><ele>1048.0</ele><time>2026-04-26T09:06:11.999Z</time></trkpt><trkpt lat="40.13308165781146" lon="15.669295783680946"><ele>1047.0</ele><time>2026-04-26T09:06:12.999Z</time></trkpt><trkpt lat="40.13300930009212" lon="15.669410294586871"><ele>1046.0</ele><time>2026-04-26T09:06:13.999Z</time></trkpt><trkpt lat="40.132920175148584" lon="15.669511100125392"><ele>1045.0</ele><time>2026-04-26T09:06:14.999Z</time></trkpt><trkpt lat="40.13282274425767" lon="15.669591001683315"><ele>1044.0</ele><time>2026-04-26T09:06:15.999Z</time></trkpt><trkpt lat="40.13273036480811" lon="15.669640571669381"><ele>1044.0</ele><time>2026-04-26T09:06:16.999Z</time></trkpt><trkpt lat="40.13266480023862" lon="15.669691481767856"><ele>1044.0</ele><time>2026-04-26T09:06:17.999Z</time></trkpt><trkpt lat="40.1325706403208" lon="15.669781987730127"><ele>1044.0</ele><time>2026-04-26T09:06:18.999Z</time></trkpt><trkpt lat="40.132470716318714" lon="15.669890767281556"><ele>1044.0</ele><time>2026-04-26T09:06:19.999Z</time></trkpt><trkpt lat="40.13239421672601" lon="15.669980145864027"><ele>1044.0</ele><time>2026-04-26T09:06:20.999Z</time></trkpt><trkpt lat="40.132298955543845" lon="15.670088401020456"><ele>1042.5</ele><time>2026-04-26T09:06:21.999Z</time></trkpt><trkpt lat="40.13221529004431" lon="15.670213782330642"><ele>1041.0</ele><time>2026-04-26T09:06:22.999Z</time></trkpt><trkpt lat="40.132155810350945" lon="15.670344697760658"><ele>1039.5</ele><time>2026-04-26T09:06:23.999Z</time></trkpt><trkpt lat="40.132091082510016" lon="15.670451748965752"><ele>1038.0</ele><time>2026-04-26T09:06:24.999Z</time></trkpt><trkpt lat="40.13201165955414" lon="15.670543183928222"><ele>1038.0</ele><time>2026-04-26T09:06:25.999Z</time></trkpt><trkpt lat="40.13191831671116" lon="15.67062327207563"><ele>1038.0</ele><time>2026-04-26T09:06:26.999Z</time></trkpt><trkpt lat="40.131826134995826" lon="15.670739873303786"><ele>1038.0</ele><time>2026-04-26T09:06:27.999Z</time></trkpt><trkpt lat="40.13174325080029" lon="15.670855877961639"><ele>1038.0</ele><time>2026-04-26T09:06:28.999Z</time></trkpt><trkpt lat="40.131665385705816" lon="15.67095780437338"><ele>1038.0</ele><time>2026-04-26T09:06:29.999Z</time></trkpt><trkpt lat="40.13158187352399" lon="15.671083503146257"><ele>1038.0</ele><time>2026-04-26T09:06:30.999Z</time></trkpt><trkpt lat="40.131499737613645" lon="15.671174961156316"><ele>1038.0</ele><time>2026-04-26T09:06:31.999Z</time></trkpt><trkpt lat="40.13141586860378" lon="15.671262861404806"><ele>1038.0</ele><time>2026-04-26T09:06:32.999Z</time></trkpt><trkpt lat="40.131334600555924" lon="15.671381159308343"><ele>1038.8</ele><time>2026-04-26T09:06:33.999Z</time></trkpt><trkpt lat="40.13126490209857" lon="15.671509873707647"><ele>1039.6</ele><time>2026-04-26T09:06:34.999Z</time></trkpt><trkpt lat="40.131198801698716" lon="15.671615195535777"><ele>1040.4</ele><time>2026-04-26T09:06:35.999Z</time></trkpt><trkpt lat="40.131139530460885" lon="15.671708449623658"><ele>1041.2</ele><time>2026-04-26T09:06:36.999Z</time></trkpt><trkpt lat="40.131063984863246" lon="15.67180219869007"><ele>1042.0</ele><time>2026-04-26T09:06:37.999Z</time></trkpt><trkpt lat="40.13100415848254" lon="15.671882361043064"><ele>1041.5</ele><time>2026-04-26T09:06:38.999Z</time></trkpt><trkpt lat="40.130941231534" lon="15.67195020606141"><ele>1041.0</ele><time>2026-04-26T09:06:40.999Z</time></trkpt><trkpt lat="40.130915541993424" lon="15.672041044735554"><ele>1040.5</ele><time>2026-04-26T09:06:44Z</time></trkpt><trkpt lat="40.130894052258746" lon="15.672146147336118"><ele>1040.0</ele><time>2026-04-26T09:06:52Z</time></trkpt><trkpt lat="40.13085715141142" lon="15.672266196355553"><ele>1039.5</ele><time>2026-04-26T09:06:54Z</time></trkpt><trkpt lat="40.130790213022635" lon="15.672373054027616"><ele>1039.0</ele><time>2026-04-26T09:06:56Z</time></trkpt><trkpt lat="40.1306917410089" lon="15.672411517137784"><ele>1039.0</ele><time>2026-04-26T09:06:58Z</time></trkpt><trkpt lat="40.130621412993776" lon="15.672430338103247"><ele>1039.0</ele><time>2026-04-26T09:06:59Z</time></trkpt><trkpt lat="40.130539213164454" lon="15.67245235943489"><ele>1039.0</ele><time>2026-04-26T09:07:00Z</time></trkpt><trkpt lat="40.13046125498979" lon="15.67248729427298"><ele>1039.0</ele><time>2026-04-26T09:07:01Z</time></trkpt><trkpt lat="40.13037644804487" lon="15.67250765700326"><ele>1039.0</ele><time>2026-04-26T09:07:02Z</time></trkpt><trkpt lat="40.130293022249205" lon="15.67254650005672"><ele>1039.0</ele><time>2026-04-26T09:07:03Z</time></trkpt><trkpt lat="40.13021483595256" lon="15.672576995196524"><ele>1038.9999999999998</ele><time>2026-04-26T09:07:04Z</time></trkpt><trkpt lat="40.13014103761161" lon="15.672587920788368"><ele>1039.0</ele><time>2026-04-26T09:07:05Z</time></trkpt><trkpt lat="40.13007496030645" lon="15.672606511753024"><ele>1039.0</ele><time>2026-04-26T09:07:06Z</time></trkpt><trkpt lat="40.13000976137361" lon="15.672632759279468"><ele>1039.0</ele><time>2026-04-26T09:07:07Z</time></trkpt><trkpt lat="40.12993962755107" lon="15.67267509775659"><ele>1039.0</ele><time>2026-04-26T09:07:08Z</time></trkpt><trkpt lat="40.129886781792756" lon="15.67272697610113"><ele>1038.9999999999998</ele><time>2026-04-26T09:07:09Z</time></trkpt><trkpt lat="40.129827553110374" lon="15.672783719238039"><ele>1039.0</ele><time>2026-04-26T09:07:10Z</time></trkpt><trkpt lat="40.129767029583164" lon="15.672876413448185"><ele>1041.8333333333333</ele><time>2026-04-26T09:07:11Z</time></trkpt><trkpt lat="40.12970159186597" lon="15.672965850571787"><ele>1044.6666666666665</ele><time>2026-04-26T09:07:12Z</time></trkpt><trkpt lat="40.1296365969832" lon="15.673038516226955"><ele>1047.5</ele><time>2026-04-26T09:07:13Z</time></trkpt><trkpt lat="40.12958132111114" lon="15.673110132819366"><ele>1050.3333333333333</ele><time>2026-04-26T09:07:14Z</time></trkpt><trkpt lat="40.12954376585399" lon="15.673219148294253"><ele>1053.1666666666667</ele><time>2026-04-26T09:07:15Z</time></trkpt><trkpt lat="40.12949915137834" lon="15.673304427804146"><ele>1056.0</ele><time>2026-04-26T09:07:16Z</time></trkpt><trkpt lat="40.12946723645916" lon="15.673422656700861"><ele>1056.0</ele><time>2026-04-26T09:07:17Z</time></trkpt><trkpt lat="40.129429193401116" lon="15.67352485915308"><ele>1056.0</ele><time>2026-04-26T09:07:18Z</time></trkpt><trkpt lat="40.12938273185325" lon="15.673632525328994"><ele>1056.0</ele><time>2026-04-26T09:07:19Z</time></trkpt><trkpt lat="40.12934657234535" lon="15.673725410638896"><ele>1056.0</ele><time>2026-04-26T09:07:20Z</time></trkpt><trkpt lat="40.12932050664035" lon="15.673813348282657"><ele>1056.0</ele><time>2026-04-26T09:07:21Z</time></trkpt><trkpt lat="40.12926747786227" lon="15.673951046731164"><ele>1056.3999999999999</ele><time>2026-04-26T09:07:23Z</time></trkpt><trkpt lat="40.12920108350869" lon="15.674080003352223"><ele>1056.8</ele><time>2026-04-26T09:07:25Z</time></trkpt><trkpt lat="40.1290978160811" lon="15.67418526268567"><ele>1057.1999999999998</ele><time>2026-04-26T09:07:27Z</time></trkpt><trkpt lat="40.12904585383947" lon="15.67426498967796"><ele>1057.6</ele><time>2026-04-26T09:07:28Z</time></trkpt><trkpt lat="40.128968162010196" lon="15.674319089599463"><ele>1058.0</ele><time>2026-04-26T09:07:29Z</time></trkpt><trkpt lat="40.12891214266557" lon="15.674400889473912"><ele>1053.0</ele><time>2026-04-26T09:07:30Z</time></trkpt><trkpt lat="40.12886868624836" lon="15.674496108918719"><ele>1048.0</ele><time>2026-04-26T09:07:31Z</time></trkpt><trkpt lat="40.128830869700046" lon="15.67457852143771"><ele>1043.0</ele><time>2026-04-26T09:07:32Z</time></trkpt><trkpt lat="40.128787093589054" lon="15.674713135039806"><ele>1038.0</ele><time>2026-04-26T09:07:34Z</time></trkpt><trkpt lat="40.12871160187514" lon="15.67482699766398"><ele>1033.0</ele><time>2026-04-26T09:07:36Z</time></trkpt><trkpt lat="40.128676642622004" lon="15.674895627216582"><ele>1028.0</ele><time>2026-04-26T09:07:37Z</time></trkpt><trkpt lat="40.128601258924675" lon="15.67499430058436"><ele>1028.0</ele><time>2026-04-26T09:07:39Z</time></trkpt><trkpt lat="40.12846703234547" lon="15.675075452098264"><ele>1028.0</ele><time>2026-04-26T09:07:41Z</time></trkpt><trkpt lat="40.12837630502576" lon="15.675113870583091"><ele>1028.0</ele><time>2026-04-26T09:07:42Z</time></trkpt><trkpt lat="40.128253833833" lon="15.675179314441696"><ele>1028.0</ele><time>2026-04-26T09:07:43Z</time></trkpt><trkpt lat="40.12815726287024" lon="15.675264087005074"><ele>1024.8</ele><time>2026-04-26T09:07:44Z</time></trkpt><trkpt lat="40.128062466228435" lon="15.67532801054871"><ele>1021.5999999999999</ele><time>2026-04-26T09:07:45Z</time></trkpt><trkpt lat="40.127969051907236" lon="15.675399812605992"><ele>1018.4000000000001</ele><time>2026-04-26T09:07:45.999Z</time></trkpt><trkpt lat="40.12787371796547" lon="15.67548916563916"><ele>1015.2</ele><time>2026-04-26T09:07:46.999Z</time></trkpt><trkpt lat="40.127790752318525" lon="15.67557041971602"><ele>1012.0</ele><time>2026-04-26T09:07:47.999Z</time></trkpt><trkpt lat="40.12772703025446" lon="15.675634542046911"><ele>1011.9999999999999</ele><time>2026-04-26T09:07:48.999Z</time></trkpt><trkpt lat="40.12765367148561" lon="15.675684045794895"><ele>1012.0</ele><time>2026-04-26T09:07:49.999Z</time></trkpt><trkpt lat="40.12757536736201" lon="15.675716752736054"><ele>1012.0</ele><time>2026-04-26T09:07:50.999Z</time></trkpt><trkpt lat="40.12750526828572" lon="15.675736880661342"><ele>1012.0</ele><time>2026-04-26T09:07:51.999Z</time></trkpt><trkpt lat="40.127426441543996" lon="15.675775401618782"><ele>1011.9999999999999</ele><time>2026-04-26T09:07:52.999Z</time></trkpt><trkpt lat="40.1273468972895" lon="15.67583307910674"><ele>1012.0</ele><time>2026-04-26T09:07:53.999Z</time></trkpt><trkpt lat="40.1272887976426" lon="15.67589158975668"><ele>1012.4000000000001</ele><time>2026-04-26T09:07:54.999Z</time></trkpt><trkpt lat="40.1272226178177" lon="15.675981599478217"><ele>1012.8000000000001</ele><time>2026-04-26T09:07:55.999Z</time></trkpt><trkpt lat="40.1271686604708" lon="15.676052203909897"><ele>1013.2</ele><time>2026-04-26T09:07:56.999Z</time></trkpt><trkpt lat="40.127115179842086" lon="15.676099198258797"><ele>1013.6</ele><time>2026-04-26T09:07:57.999Z</time></trkpt><trkpt lat="40.12703659996606" lon="15.676182404441247"><ele>1014.0</ele><time>2026-04-26T09:07:59.999Z</time></trkpt><trkpt lat="40.12692658517316" lon="15.676142164891097"><ele>1014.0</ele><time>2026-04-26T09:08:01.999Z</time></trkpt><trkpt lat="40.12685481200607" lon="15.676100099691439"><ele>1014.0000000000001</ele><time>2026-04-26T09:08:02.999Z</time></trkpt><trkpt lat="40.1267770348635" lon="15.676058127026844"><ele>1014.0000000000001</ele><time>2026-04-26T09:08:03.999Z</time></trkpt><trkpt lat="40.12666306310873" lon="15.676046891404356"><ele>1014.0</ele><time>2026-04-26T09:08:04.999Z</time></trkpt><trkpt lat="40.12657325543423" lon="15.676033794906289"><ele>1014.0</ele><time>2026-04-26T09:08:05.999Z</time></trkpt><trkpt lat="40.12649006815257" lon="15.676016546961364"><ele>1017.5</ele><time>2026-04-26T09:08:06.999Z</time></trkpt><trkpt lat="40.126424705597145" lon="15.675963249715569"><ele>1021.0</ele><time>2026-04-26T09:08:07.999Z</time></trkpt><trkpt lat="40.12629744991459" lon="15.675855147156776"><ele>1024.5</ele><time>2026-04-26T09:08:09.999Z</time></trkpt><trkpt lat="40.12622549512991" lon="15.675823413272038"><ele>1028.0</ele><time>2026-04-26T09:08:11.999Z</time></trkpt><trkpt lat="40.126149145887226" lon="15.675841928047864"><ele>1031.5</ele><time>2026-04-26T09:08:12.999Z</time></trkpt><trkpt lat="40.12609117335441" lon="15.675878422707857"><ele>1035.0</ele><time>2026-04-26T09:08:13.999Z</time></trkpt><trkpt lat="40.126047907041226" lon="15.676028004790894"><ele>1031.8</ele><time>2026-04-26T09:08:15.999Z</time></trkpt><trkpt lat="40.12608558254317" lon="15.676202028335776"><ele>1028.6</ele><time>2026-04-26T09:08:17.999Z</time></trkpt><trkpt lat="40.12617319882281" lon="15.676342844965175"><ele>1025.4</ele><time>2026-04-26T09:08:19.999Z</time></trkpt><trkpt lat="40.12625192619104" lon="15.676377982174783"><ele>1022.2</ele><time>2026-04-26T09:08:21.999Z</time></trkpt><trkpt lat="40.12620364307521" lon="15.676448289189375"><ele>1019.0</ele><time>2026-04-26T09:08:23.999Z</time></trkpt><trkpt lat="40.12622190177989" lon="15.676590523629558"><ele>1019.0</ele><time>2026-04-26T09:08:25.999Z</time></trkpt><trkpt lat="40.12622388942877" lon="15.676705815572614"><ele>1019.0000000000001</ele><time>2026-04-26T09:08:27.999Z</time></trkpt><trkpt lat="40.12619764751246" lon="15.676863306272745"><ele>1019.0000000000001</ele><time>2026-04-26T09:08:29.999Z</time></trkpt><trkpt lat="40.12615264155833" lon="15.676945364297655"><ele>1019.0</ele><time>2026-04-26T09:08:30.999Z</time></trkpt><trkpt lat="40.12610120665275" lon="15.677042124009738"><ele>1019.0</ele><time>2026-04-26T09:08:31.999Z</time></trkpt><trkpt lat="40.12606271361933" lon="15.677140710540547"><ele>1014.6</ele><time>2026-04-26T09:08:32.999Z</time></trkpt><trkpt lat="40.126004609708474" lon="15.677211500501922"><ele>1010.2</ele><time>2026-04-26T09:08:33.999Z</time></trkpt><trkpt lat="40.125923251146645" lon="15.677291129865939"><ele>1005.8000000000001</ele><time>2026-04-26T09:08:34.999Z</time></trkpt><trkpt lat="40.12585714013744" lon="15.677356134501409"><ele>1001.4000000000001</ele><time>2026-04-26T09:08:35.999Z</time></trkpt><trkpt lat="40.125794916704855" lon="15.67745687605796"><ele>997.0</ele><time>2026-04-26T09:08:36.999Z</time></trkpt><trkpt lat="40.12575994064998" lon="15.677564461822618"><ele>996.9999999999999</ele><time>2026-04-26T09:08:37.999Z</time></trkpt><trkpt lat="40.12573054784813" lon="15.67764164955701"><ele>997.0</ele><time>2026-04-26T09:08:38.999Z</time></trkpt><trkpt lat="40.12568311799774" lon="15.677731457423517"><ele>997.0</ele><time>2026-04-26T09:08:39.999Z</time></trkpt><trkpt lat="40.1256432096258" lon="15.677815766328516"><ele>997.0</ele><time>2026-04-26T09:08:40.999Z</time></trkpt><trkpt lat="40.12561720144964" lon="15.67791008289193"><ele>996.9999999999999</ele><time>2026-04-26T09:08:41.999Z</time></trkpt><trkpt lat="40.12561470388021" lon="15.678022651797535"><ele>997.0</ele><time>2026-04-26T09:08:42.999Z</time></trkpt><trkpt lat="40.12562245278281" lon="15.67811136862913"><ele>998.3333333333333</ele><time>2026-04-26T09:08:43.999Z</time></trkpt><trkpt lat="40.12561363071529" lon="15.678193714710183"><ele>999.6666666666666</ele><time>2026-04-26T09:08:44.999Z</time></trkpt><trkpt lat="40.125578054297236" lon="15.678315268405742"><ele>1001.0</ele><time>2026-04-26T09:08:46.999Z</time></trkpt><trkpt lat="40.12552065323812" lon="15.678416688634506"><ele>1002.3333333333333</ele><time>2026-04-26T09:08:47.999Z</time></trkpt><trkpt lat="40.12547056407491" lon="15.678498076495021"><ele>1003.6666666666666</ele><time>2026-04-26T09:08:49Z</time></trkpt><trkpt lat="40.12544469285097" lon="15.678594439581232"><ele>1005.0</ele><time>2026-04-26T09:08:53Z</time></trkpt><trkpt lat="40.12551530628158" lon="15.678682107965159"><ele>1000.8</ele><time>2026-04-26T09:08:55Z</time></trkpt><trkpt lat="40.125574137823726" lon="15.678759445635466"><ele>996.6</ele><time>2026-04-26T09:08:56Z</time></trkpt><trkpt lat="40.125629036646295" lon="15.678891944013456"><ele>992.4000000000001</ele><time>2026-04-26T09:08:58Z</time></trkpt><trkpt lat="40.125690900118954" lon="15.67898146803411"><ele>988.2</ele><time>2026-04-26T09:09:00Z</time></trkpt><trkpt lat="40.12573410522694" lon="15.67909452969646"><ele>984.0</ele><time>2026-04-26T09:09:02Z</time></trkpt><trkpt lat="40.12576506845547" lon="15.679166600657126"><ele>982.6</ele><time>2026-04-26T09:09:03Z</time></trkpt><trkpt lat="40.12581739100139" lon="15.679333292194022"><ele>981.2</ele><time>2026-04-26T09:09:05Z</time></trkpt><trkpt lat="40.125848407444" lon="15.679436868796094"><ele>979.8000000000001</ele><time>2026-04-26T09:09:06Z</time></trkpt><trkpt lat="40.12589410759207" lon="15.679551389893707"><ele>978.4000000000001</ele><time>2026-04-26T09:09:07Z</time></trkpt><trkpt lat="40.12594063847146" lon="15.67964673191633"><ele>977.0</ele><time>2026-04-26T09:09:08Z</time></trkpt><trkpt lat="40.126006965796705" lon="15.67974027948104"><ele>976.2</ele><time>2026-04-26T09:09:09Z</time></trkpt><trkpt lat="40.1260991815194" lon="15.679860491127458"><ele>975.4000000000001</ele><time>2026-04-26T09:09:10Z</time></trkpt><trkpt lat="40.1261836311556" lon="15.679976325602865"><ele>974.5999999999999</ele><time>2026-04-26T09:09:11Z</time></trkpt><trkpt lat="40.126237489950114" lon="15.680081028811838"><ele>973.8</ele><time>2026-04-26T09:09:12Z</time></trkpt><trkpt lat="40.1262791390888" lon="15.680171021821057"><ele>973.0</ele><time>2026-04-26T09:09:13Z</time></trkpt><trkpt lat="40.12631802084896" lon="15.680271232163756"><ele>971.9999999999999</ele><time>2026-04-26T09:09:14Z</time></trkpt><trkpt lat="40.126349998886205" lon="15.680376340976816"><ele>971.0</ele><time>2026-04-26T09:09:15Z</time></trkpt><trkpt lat="40.12634877041483" lon="15.680473577341408"><ele>970.0</ele><time>2026-04-26T09:09:16Z</time></trkpt><trkpt lat="40.12634067304501" lon="15.68058698023993"><ele>969.0</ele><time>2026-04-26T09:09:17Z</time></trkpt><trkpt lat="40.12631655381894" lon="15.680696681830325"><ele>967.9999999999999</ele><time>2026-04-26T09:09:18Z</time></trkpt><trkpt lat="40.12630187622861" lon="15.68079122314692"><ele>967.0</ele><time>2026-04-26T09:09:19Z</time></trkpt><trkpt lat="40.12630523288066" lon="15.680952344728384"><ele>966.9999999999999</ele><time>2026-04-26T09:09:21Z</time></trkpt><trkpt lat="40.12633071644491" lon="15.68104984361361"><ele>967.0</ele><time>2026-04-26T09:09:22Z</time></trkpt><trkpt lat="40.1263598646954" lon="15.681149194163142"><ele>967.0</ele><time>2026-04-26T09:09:23Z</time></trkpt><trkpt lat="40.126366270095545" lon="15.681280877741886"><ele>967.0</ele><time>2026-04-26T09:09:25Z</time></trkpt><trkpt lat="40.12639175175296" lon="15.681408468370376"><ele>966.9999999999999</ele><time>2026-04-26T09:09:27Z</time></trkpt><trkpt lat="40.12641482254737" lon="15.681486789431332"><ele>967.0</ele><time>2026-04-26T09:09:28Z</time></trkpt><trkpt lat="40.12643578961708" lon="15.68156754653143"><ele>965.8</ele><time>2026-04-26T09:09:29Z</time></trkpt><trkpt lat="40.126390838874165" lon="15.681754730730896"><ele>964.6</ele><time>2026-04-26T09:09:31Z</time></trkpt><trkpt lat="40.126406271480384" lon="15.68186307426303"><ele>963.3999999999999</ele><time>2026-04-26T09:09:33Z</time></trkpt><trkpt lat="40.12644539352711" lon="15.681981630492974"><ele>962.1999999999999</ele><time>2026-04-26T09:09:38Z</time></trkpt><trkpt lat="40.12649774930017" lon="15.68203274183773"><ele>961.0</ele><time>2026-04-26T09:09:41Z</time></trkpt><trkpt lat="40.12651922878814" lon="15.682117795928527"><ele>961.6666666666666</ele><time>2026-04-26T09:09:43Z</time></trkpt><trkpt lat="40.12658203144912" lon="15.682170951258783"><ele>962.3333333333333</ele><time>2026-04-26T09:09:46Z</time></trkpt><trkpt lat="40.126646388112725" lon="15.682209662465036"><ele>963.0</ele><time>2026-04-26T09:09:49Z</time></trkpt><trkpt lat="40.126749994220276" lon="15.682199809053422"><ele>963.6666666666667</ele><time>2026-04-26T09:09:50.999Z</time></trkpt><trkpt lat="40.12681435553493" lon="15.682211413812196"><ele>964.3333333333334</ele><time>2026-04-26T09:09:51.999Z</time></trkpt><trkpt lat="40.12688840831107" lon="15.682265059127797"><ele>965.0</ele><time>2026-04-26T09:09:52.999Z</time></trkpt><trkpt lat="40.126968331142834" lon="15.6822874105439"><ele>965.0000000000001</ele><time>2026-04-26T09:09:53.999Z</time></trkpt><trkpt lat="40.12702712221262" lon="15.682324882006853"><ele>965.0</ele><time>2026-04-26T09:09:54.999Z</time></trkpt><trkpt lat="40.12710382862014" lon="15.682435730519186"><ele>965.0</ele><time>2026-04-26T09:09:56.999Z</time></trkpt><trkpt lat="40.127129197923296" lon="15.68251357393182"><ele>965.0</ele><time>2026-04-26T09:09:57.999Z</time></trkpt><trkpt lat="40.12711920836808" lon="15.682608401261481"><ele>965.0000000000001</ele><time>2026-04-26T09:09:58.999Z</time></trkpt><trkpt lat="40.12710036893733" lon="15.68270039694254"><ele>965.0</ele><time>2026-04-26T09:09:59.999Z</time></trkpt><trkpt lat="40.1270657905812" lon="15.68278281377707"><ele>962.3333333333334</ele><time>2026-04-26T09:10:00.999Z</time></trkpt><trkpt lat="40.12699700977138" lon="15.682857584046106"><ele>959.6666666666667</ele><time>2026-04-26T09:10:01.999Z</time></trkpt><trkpt lat="40.126941934469244" lon="15.682905341233289"><ele>957.0</ele><time>2026-04-26T09:10:02.999Z</time></trkpt><trkpt lat="40.12685392251995" lon="15.68298918226473"><ele>954.3333333333333</ele><time>2026-04-26T09:10:04.999Z</time></trkpt><trkpt lat="40.12679529311176" lon="15.683050697081406"><ele>951.6666666666666</ele><time>2026-04-26T09:10:05.999Z</time></trkpt><trkpt lat="40.12674365095675" lon="15.68309893611825"><ele>949.0</ele><time>2026-04-26T09:10:06.999Z</time></trkpt><trkpt lat="40.12666802301282" lon="15.683182214106951"><ele>949.0</ele><time>2026-04-26T09:10:08.999Z</time></trkpt><trkpt lat="40.12665252512145" lon="15.683347269877013"><ele>949.0000000000001</ele><time>2026-04-26T09:10:10.999Z</time></trkpt><trkpt lat="40.12664375918584" lon="15.683443987024434"><ele>949.0000000000001</ele><time>2026-04-26T09:10:11.999Z</time></trkpt><trkpt lat="40.126610799759156" lon="15.68357569556826"><ele>949.0</ele><time>2026-04-26T09:10:13.999Z</time></trkpt><trkpt lat="40.12654986878531" lon="15.683711154852617"><ele>949.0</ele><time>2026-04-26T09:10:15.999Z</time></trkpt><trkpt lat="40.12647004310772" lon="15.68379998233887"><ele>946.0</ele><time>2026-04-26T09:10:17.999Z</time></trkpt><trkpt lat="40.12637643033151" lon="15.683913632589658"><ele>943.0000000000001</ele><time>2026-04-26T09:10:19.999Z</time></trkpt><trkpt lat="40.126310972657656" lon="15.683994996230794"><ele>940.0000000000001</ele><time>2026-04-26T09:10:21.999Z</time></trkpt><trkpt lat="40.12626387707474" lon="15.684085141091437"><ele>937.0</ele><time>2026-04-26T09:10:23.999Z</time></trkpt><trkpt lat="40.12624257000523" lon="15.684173662479878"><ele>934.0</ele><time>2026-04-26T09:10:24.999Z</time></trkpt><trkpt lat="40.12619239789744" lon="15.68428776100379"><ele>933.9999999999999</ele><time>2026-04-26T09:10:26.999Z</time></trkpt><trkpt lat="40.12612716413256" lon="15.684379631659729"><ele>934.0</ele><time>2026-04-26T09:10:28.999Z</time></trkpt><trkpt lat="40.126070187649646" lon="15.68441823507612"><ele>934.0</ele><time>2026-04-26T09:10:29.999Z</time></trkpt><trkpt lat="40.12599107484843" lon="15.684464864447628"><ele>934.0</ele><time>2026-04-26T09:10:30.999Z</time></trkpt><trkpt lat="40.12588084853799" lon="15.684552193868727"><ele>933.9999999999999</ele><time>2026-04-26T09:10:32.999Z</time></trkpt><trkpt lat="40.12582169606425" lon="15.684607793214889"><ele>934.0</ele><time>2026-04-26T09:10:33.999Z</time></trkpt><trkpt lat="40.12576775963676" lon="15.68467063847017"><ele>934.1666666666666</ele><time>2026-04-26T09:10:34.999Z</time></trkpt><trkpt lat="40.12572504501267" lon="15.684739936505926"><ele>934.3333333333333</ele><time>2026-04-26T09:10:35.999Z</time></trkpt><trkpt lat="40.12568690682096" lon="15.684827050421019"><ele>934.5</ele><time>2026-04-26T09:10:36.999Z</time></trkpt><trkpt lat="40.12562699738502" lon="15.684881206289283"><ele>934.6666666666667</ele><time>2026-04-26T09:10:37.999Z</time></trkpt><trkpt lat="40.125547192946605" lon="15.68499065712161"><ele>934.8333333333334</ele><time>2026-04-26T09:10:39.999Z</time></trkpt><trkpt lat="40.12547165558584" lon="15.685092044699209"><ele>935.0</ele><time>2026-04-26T09:10:41.999Z</time></trkpt><trkpt lat="40.12541991672306" lon="15.685212421402229"><ele>934.5000000000001</ele><time>2026-04-26T09:10:43.999Z</time></trkpt><trkpt lat="40.12539339624967" lon="15.68530250837992"><ele>934.0</ele><time>2026-04-26T09:10:45.999Z</time></trkpt><trkpt lat="40.125345240076996" lon="15.685371998321095"><ele>933.5</ele><time>2026-04-26T09:10:47.999Z</time></trkpt><trkpt lat="40.125291935422325" lon="15.685458729631645"><ele>933.0</ele><time>2026-04-26T09:10:48.999Z</time></trkpt><trkpt lat="40.125261479862154" lon="15.685574127271867"><ele>932.5000000000001</ele><time>2026-04-26T09:10:49.999Z</time></trkpt><trkpt lat="40.125243856070234" lon="15.685671324869137"><ele>932.0</ele><time>2026-04-26T09:10:50.999Z</time></trkpt><trkpt lat="40.12520979099213" lon="15.68575293884728"><ele>932.0000000000001</ele><time>2026-04-26T09:10:51.999Z</time></trkpt><trkpt lat="40.12516727151759" lon="15.68590898063367"><ele>932.0</ele><time>2026-04-26T09:10:53.999Z</time></trkpt><trkpt lat="40.125148069983794" lon="15.685995616823739"><ele>932.0</ele><time>2026-04-26T09:10:55Z</time></trkpt><trkpt lat="40.12513738902447" lon="15.686095435204962"><ele>932.0</ele><time>2026-04-26T09:10:56Z</time></trkpt><trkpt lat="40.1251123598348" lon="15.686199299072644"><ele>932.0000000000001</ele><time>2026-04-26T09:10:57Z</time></trkpt><trkpt lat="40.12510367538036" lon="15.686292218981999"><ele>932.0</ele><time>2026-04-26T09:10:58Z</time></trkpt><trkpt lat="40.12507339737947" lon="15.686406200286774"><ele>931.0000000000001</ele><time>2026-04-26T09:10:59Z</time></trkpt><trkpt lat="40.125023160499296" lon="15.6865267180066"><ele>930.0</ele><time>2026-04-26T09:11:00Z</time></trkpt><trkpt lat="40.12498758414791" lon="15.686632727780506"><ele>929.0</ele><time>2026-04-26T09:11:01Z</time></trkpt><trkpt lat="40.124960985967704" lon="15.68672949392296"><ele>928.0</ele><time>2026-04-26T09:11:02Z</time></trkpt><trkpt lat="40.12492431854398" lon="15.686803847044917"><ele>927.0000000000001</ele><time>2026-04-26T09:11:03Z</time></trkpt><trkpt lat="40.12485484232118" lon="15.686881436638243"><ele>926.0</ele><time>2026-04-26T09:11:04Z</time></trkpt><trkpt lat="40.1247810116445" lon="15.686955897922273"><ele>930.3333333333334</ele><time>2026-04-26T09:11:05Z</time></trkpt><trkpt lat="40.124739684305176" lon="15.687030008834368"><ele>934.6666666666667</ele><time>2026-04-26T09:11:06Z</time></trkpt><trkpt lat="40.12468250655259" lon="15.687136005639475"><ele>939.0</ele><time>2026-04-26T09:11:07Z</time></trkpt><trkpt lat="40.12463544614742" lon="15.68722507316884"><ele>943.3333333333333</ele><time>2026-04-26T09:11:08Z</time></trkpt><trkpt lat="40.12459882723225" lon="15.687310720451617"><ele>947.6666666666666</ele><time>2026-04-26T09:11:09Z</time></trkpt><trkpt lat="40.12457435198739" lon="15.687410106444442"><ele>952.0</ele><time>2026-04-26T09:11:10Z</time></trkpt><trkpt lat="40.12457758680777" lon="15.68755090868786"><ele>952.0</ele><time>2026-04-26T09:11:11Z</time></trkpt><trkpt lat="40.12455698406662" lon="15.687692564674842"><ele>952.0</ele><time>2026-04-26T09:11:12Z</time></trkpt><trkpt lat="40.12454809963115" lon="15.687813551071706"><ele>952.0</ele><time>2026-04-26T09:11:13Z</time></trkpt><trkpt lat="40.12455470854467" lon="15.687943488222817"><ele>952.0</ele><time>2026-04-26T09:11:14Z</time></trkpt><trkpt lat="40.124506154383226" lon="15.68809936216473"><ele>952.0</ele><time>2026-04-26T09:11:16Z</time></trkpt><trkpt lat="40.12447909113053" lon="15.688205617877541"><ele>948.6666666666666</ele><time>2026-04-26T09:11:18Z</time></trkpt><trkpt lat="40.12449825387696" lon="15.688292642497826"><ele>945.3333333333333</ele><time>2026-04-26T09:11:23Z</time></trkpt><trkpt lat="40.12454893441096" lon="15.68841804214618"><ele>942.0</ele><time>2026-04-26T09:11:39Z</time></trkpt><trkpt lat="40.124565704912115" lon="15.688500798602401"><ele>938.6666666666667</ele><time>2026-04-26T09:11:40Z</time></trkpt><trkpt lat="40.12455854971743" lon="15.688605558639962"><ele>935.3333333333334</ele><time>2026-04-26T09:11:41Z</time></trkpt><trkpt lat="40.12457063229025" lon="15.688710476143333"><ele>932.0</ele><time>2026-04-26T09:11:42Z</time></trkpt><trkpt lat="40.12454937778313" lon="15.688845159486718"><ele>930.2</ele><time>2026-04-26T09:11:43Z</time></trkpt><trkpt lat="40.124499171533344" lon="15.688963242420026"><ele>928.4000000000001</ele><time>2026-04-26T09:11:44Z</time></trkpt><trkpt lat="40.12447870897015" lon="15.689081669539592"><ele>926.5999999999999</ele><time>2026-04-26T09:11:45Z</time></trkpt><trkpt lat="40.12448430758664" lon="15.689221282701258"><ele>924.8</ele><time>2026-04-26T09:11:46Z</time></trkpt><trkpt lat="40.12451044092926" lon="15.689391605154054"><ele>923.0</ele><time>2026-04-26T09:11:47Z</time></trkpt><trkpt lat="40.12454551349225" lon="15.689543617705041"><ele>920.5999999999999</ele><time>2026-04-26T09:11:48Z</time></trkpt><trkpt lat="40.124591552410585" lon="15.689670206022551"><ele>918.1999999999999</ele><time>2026-04-26T09:11:49Z</time></trkpt><trkpt lat="40.12461627297125" lon="15.689783346115712"><ele>915.8</ele><time>2026-04-26T09:11:50Z</time></trkpt><trkpt lat="40.12463072119361" lon="15.689913411503909"><ele>913.4</ele><time>2026-04-26T09:11:51Z</time></trkpt><trkpt lat="40.12464594696031" lon="15.690024368764334"><ele>911.0</ele><time>2026-04-26T09:11:52Z</time></trkpt><trkpt lat="40.124694081158175" lon="15.690131719859098"><ele>910.25</ele><time>2026-04-26T09:11:53Z</time></trkpt><trkpt lat="40.124756903209914" lon="15.690261988941256"><ele>909.5</ele><time>2026-04-26T09:11:54Z</time></trkpt><trkpt lat="40.12480116917012" lon="15.690402666442457"><ele>908.75</ele><time>2026-04-26T09:11:55Z</time></trkpt><trkpt lat="40.12483156467261" lon="15.690540389039722"><ele>908.0</ele><time>2026-04-26T09:11:56Z</time></trkpt><trkpt lat="40.124868217644185" lon="15.690711868190451"><ele>904.5999999999999</ele><time>2026-04-26T09:11:57Z</time></trkpt><trkpt lat="40.12490437900176" lon="15.690848355090617"><ele>901.1999999999999</ele><time>2026-04-26T09:11:57.999Z</time></trkpt><trkpt lat="40.12495132367198" lon="15.690977625337375"><ele>897.8</ele><time>2026-04-26T09:11:58.999Z</time></trkpt><trkpt lat="40.12499073581012" lon="15.691104784790992"><ele>894.4</ele><time>2026-04-26T09:11:59.999Z</time></trkpt><trkpt lat="40.12505451453775" lon="15.691185001974814"><ele>891.0</ele><time>2026-04-26T09:12:00.999Z</time></trkpt><trkpt lat="40.12511286307648" lon="15.691256394269184"><ele>890.0</ele><time>2026-04-26T09:12:01.999Z</time></trkpt><trkpt lat="40.12516763740232" lon="15.691342110042207"><ele>888.9999999999999</ele><time>2026-04-26T09:12:02.999Z</time></trkpt><trkpt lat="40.125220621448996" lon="15.691420797288695"><ele>887.9999999999999</ele><time>2026-04-26T09:12:03.999Z</time></trkpt><trkpt lat="40.12527336998116" lon="15.691532458026437"><ele>887.0</ele><time>2026-04-26T09:12:04.999Z</time></trkpt><trkpt lat="40.12533656495162" lon="15.69163827148393"><ele>886.0</ele><time>2026-04-26T09:12:05.999Z</time></trkpt><trkpt lat="40.125399408755285" lon="15.691751074348835"><ele>886.0</ele><time>2026-04-26T09:12:06.999Z</time></trkpt><trkpt lat="40.12545892612244" lon="15.691852569381606"><ele>885.9999999999999</ele><time>2026-04-26T09:12:07.999Z</time></trkpt><trkpt lat="40.12551090222867" lon="15.691965297698417"><ele>885.9999999999999</ele><time>2026-04-26T09:12:08.999Z</time></trkpt><trkpt lat="40.125553244807435" lon="15.69206503267218"><ele>886.0</ele><time>2026-04-26T09:12:09.999Z</time></trkpt><trkpt lat="40.12557174628809" lon="15.69216935321244"><ele>886.0</ele><time>2026-04-26T09:12:10.999Z</time></trkpt><trkpt lat="40.12559549529851" lon="15.692288296243458"><ele>885.3333333333333</ele><time>2026-04-26T09:12:11.999Z</time></trkpt><trkpt lat="40.125629183082765" lon="15.69238323343916"><ele>884.6666666666666</ele><time>2026-04-26T09:12:12.999Z</time></trkpt><trkpt lat="40.12567340761019" lon="15.692449958719422"><ele>884.0</ele><time>2026-04-26T09:12:13.999Z</time></trkpt><trkpt lat="40.12573515284357" lon="15.692518329312144"><ele>883.3333333333333</ele><time>2026-04-26T09:12:14.999Z</time></trkpt><trkpt lat="40.12578172458983" lon="15.692579299401498"><ele>882.6666666666666</ele><time>2026-04-26T09:12:15.999Z</time></trkpt><trkpt lat="40.125755361005226" lon="15.692657965246523"><ele>882.0</ele><time>2026-04-26T09:12:18.999Z</time></trkpt><trkpt lat="40.12565100892477" lon="15.692742724750383"><ele>881.0</ele><time>2026-04-26T09:12:20.999Z</time></trkpt><trkpt lat="40.125604026253065" lon="15.692802206242062"><ele>880.0</ele><time>2026-04-26T09:12:21.999Z</time></trkpt><trkpt lat="40.12556104845368" lon="15.69286703187075"><ele>879.0</ele><time>2026-04-26T09:12:22.999Z</time></trkpt><trkpt lat="40.125512647598725" lon="15.692925936359629"><ele>878.0</ele><time>2026-04-26T09:12:23.999Z</time></trkpt><trkpt lat="40.12545808386254" lon="15.692981814246371"><ele>877.0</ele><time>2026-04-26T09:12:24.999Z</time></trkpt><trkpt lat="40.12539318920056" lon="15.693050593182582"><ele>876.0</ele><time>2026-04-26T09:12:25.999Z</time></trkpt><trkpt lat="40.12534341278119" lon="15.693109585081265"><ele>875.0</ele><time>2026-04-26T09:12:26.999Z</time></trkpt><trkpt lat="40.12529568608237" lon="15.693173678549208"><ele>875.0</ele><time>2026-04-26T09:12:27.999Z</time></trkpt><trkpt lat="40.12524328478088" lon="15.693238069288116"><ele>875.0</ele><time>2026-04-26T09:12:28.999Z</time></trkpt><trkpt lat="40.12517368100527" lon="15.693332911223756"><ele>875.0</ele><time>2026-04-26T09:12:29.999Z</time></trkpt><trkpt lat="40.12509775068127" lon="15.693397748956922"><ele>875.0</ele><time>2026-04-26T09:12:30.999Z</time></trkpt><trkpt lat="40.125004920690586" lon="15.693462817322972"><ele>875.0</ele><time>2026-04-26T09:12:31.999Z</time></trkpt><trkpt lat="40.124902806027" lon="15.693531154161933"><ele>875.6</ele><time>2026-04-26T09:12:32.999Z</time></trkpt><trkpt lat="40.124811839050146" lon="15.69360328149015"><ele>876.2</ele><time>2026-04-26T09:12:33.999Z</time></trkpt><trkpt lat="40.12472623234929" lon="15.693687437768553"><ele>876.8</ele><time>2026-04-26T09:12:34.999Z</time></trkpt><trkpt lat="40.124632683995365" lon="15.69375954183136"><ele>877.4</ele><time>2026-04-26T09:12:35.999Z</time></trkpt><trkpt lat="40.12454526581982" lon="15.69385136814904"><ele>878.0</ele><time>2026-04-26T09:12:36.999Z</time></trkpt><trkpt lat="40.124470777024605" lon="15.693926275450156"><ele>878.0000000000001</ele><time>2026-04-26T09:12:37.999Z</time></trkpt><trkpt lat="40.124426313225364" lon="15.69403388429082"><ele>878.0</ele><time>2026-04-26T09:12:38.999Z</time></trkpt><trkpt lat="40.12441619159823" lon="15.69411729079671"><ele>878.0</ele><time>2026-04-26T09:12:39.999Z</time></trkpt><trkpt lat="40.124455278297475" lon="15.694263963846447"><ele>878.0</ele><time>2026-04-26T09:12:41.999Z</time></trkpt><trkpt lat="40.124518055098946" lon="15.69432628955392"><ele>878.0000000000001</ele><time>2026-04-26T09:12:42.999Z</time></trkpt><trkpt lat="40.12459869464959" lon="15.69437249180033"><ele>878.0</ele><time>2026-04-26T09:12:43.999Z</time></trkpt><trkpt lat="40.124694007121214" lon="15.694426170881304"><ele>878.0</ele><time>2026-04-26T09:12:44.999Z</time></trkpt><trkpt lat="40.12478746785748" lon="15.694465294428062"><ele>878.0</ele><time>2026-04-26T09:12:45.999Z</time></trkpt><trkpt lat="40.12486927825983" lon="15.694503146923804"><ele>878.0</ele><time>2026-04-26T09:12:46.999Z</time></trkpt><trkpt lat="40.12495004028301" lon="15.694565916619347"><ele>878.0</ele><time>2026-04-26T09:12:47.999Z</time></trkpt><trkpt lat="40.124980005447725" lon="15.694703145189653"><ele>878.0</ele><time>2026-04-26T09:12:49.999Z</time></trkpt><trkpt lat="40.12494630065067" lon="15.6948911933909"><ele>878.0</ele><time>2026-04-26T09:12:51.999Z</time></trkpt><trkpt lat="40.12489812116647" lon="15.695030129850064"><ele>878.0</ele><time>2026-04-26T09:12:52.999Z</time></trkpt><trkpt lat="40.124786953507986" lon="15.695213971932509"><ele>878.0</ele><time>2026-04-26T09:12:53.999Z</time></trkpt><trkpt lat="40.12472320981199" lon="15.69539725916014"><ele>883.25</ele><time>2026-04-26T09:12:54.999Z</time></trkpt><trkpt lat="40.12466082991022" lon="15.695564363762882"><ele>888.5</ele><time>2026-04-26T09:12:55.999Z</time></trkpt><trkpt lat="40.12461272452559" lon="15.695720565477124"><ele>893.75</ele><time>2026-04-26T09:12:56.999Z</time></trkpt><trkpt lat="40.12459765879104" lon="15.695868236876848"><ele>899.0</ele><time>2026-04-26T09:12:57.999Z</time></trkpt><trkpt lat="40.12460228309245" lon="15.696006129978187"><ele>902.0</ele><time>2026-04-26T09:12:58.999Z</time></trkpt><trkpt lat="40.12461084819215" lon="15.696168321961192"><ele>905.0</ele><time>2026-04-26T09:12:59.999Z</time></trkpt><trkpt lat="40.12459799478612" lon="15.696345940789447"><ele>908.0</ele><time>2026-04-26T09:13:01Z</time></trkpt><trkpt lat="40.12459582156996" lon="15.696494924228677"><ele>911.0</ele><time>2026-04-26T09:13:02Z</time></trkpt><trkpt lat="40.12457384034646" lon="15.696623148760839"><ele>911.0</ele><time>2026-04-26T09:13:03Z</time></trkpt><trkpt lat="40.12455965748527" lon="15.696719980972965"><ele>910.9999999999999</ele><time>2026-04-26T09:13:04Z</time></trkpt><trkpt lat="40.12460753929578" lon="15.696890919367922"><ele>910.9999999999999</ele><time>2026-04-26T09:13:06Z</time></trkpt><trkpt lat="40.12457189444089" lon="15.696993095946336"><ele>911.0</ele><time>2026-04-26T09:13:08Z</time></trkpt><trkpt lat="40.12453147070504" lon="15.69708965352363"><ele>911.0</ele><time>2026-04-26T09:13:10Z</time></trkpt><trkpt lat="40.124516865717524" lon="15.697176761735001"><ele>911.4</ele><time>2026-04-26T09:13:11Z</time></trkpt><trkpt lat="40.12448757087944" lon="15.697281973080488"><ele>911.8</ele><time>2026-04-26T09:13:12Z</time></trkpt><trkpt lat="40.12443309287214" lon="15.697393801993039"><ele>912.1999999999999</ele><time>2026-04-26T09:13:13Z</time></trkpt><trkpt lat="40.12438806887173" lon="15.697504847607606"><ele>912.5999999999999</ele><time>2026-04-26T09:13:14Z</time></trkpt><trkpt lat="40.12434768381857" lon="15.697612928574978"><ele>913.0</ele><time>2026-04-26T09:13:15Z</time></trkpt><trkpt lat="40.12428967870961" lon="15.697707713890178"><ele>915.0</ele><time>2026-04-26T09:13:16Z</time></trkpt><trkpt lat="40.12423000066885" lon="15.697790535684495"><ele>917.0</ele><time>2026-04-26T09:13:17Z</time></trkpt><trkpt lat="40.12416589312203" lon="15.697873357355984"><ele>919.0</ele><time>2026-04-26T09:13:18Z</time></trkpt><trkpt lat="40.12408775826798" lon="15.697939938415587"><ele>921.0</ele><time>2026-04-26T09:13:19Z</time></trkpt><trkpt lat="40.12398253842105" lon="15.697983926652974"><ele>923.0</ele><time>2026-04-26T09:13:20Z</time></trkpt><trkpt lat="40.12389640543932" lon="15.69803639316973"><ele>924.5000000000001</ele><time>2026-04-26T09:13:21Z</time></trkpt><trkpt lat="40.123833402502434" lon="15.698103991592054"><ele>926.0</ele><time>2026-04-26T09:13:22Z</time></trkpt><trkpt lat="40.123785545382454" lon="15.698179039396036"><ele>927.5</ele><time>2026-04-26T09:13:23Z</time></trkpt><trkpt lat="40.12376480533105" lon="15.698265972778685"><ele>929.0</ele><time>2026-04-26T09:13:24Z</time></trkpt><trkpt lat="40.123755429592414" lon="15.698382368353109"><ele>930.5000000000001</ele><time>2026-04-26T09:13:25Z</time></trkpt><trkpt lat="40.12374441165468" lon="15.698542002890916"><ele>932.0</ele><time>2026-04-26T09:13:26Z</time></trkpt><trkpt lat="40.12369742020365" lon="15.69870675675997"><ele>932.0</ele><time>2026-04-26T09:13:27Z</time></trkpt><trkpt lat="40.1236590186108" lon="15.698891620076314"><ele>932.0</ele><time>2026-04-26T09:13:28Z</time></trkpt><trkpt lat="40.12363114314737" lon="15.699080381838023"><ele>932.0</ele><time>2026-04-26T09:13:29Z</time></trkpt><trkpt lat="40.123611159682646" lon="15.699243509961484"><ele>932.0</ele><time>2026-04-26T09:13:30Z</time></trkpt><trkpt lat="40.12358089283008" lon="15.699362858833393"><ele>933.8333333333334</ele><time>2026-04-26T09:13:31Z</time></trkpt><trkpt lat="40.123551517063625" lon="15.699460879502274"><ele>935.6666666666667</ele><time>2026-04-26T09:13:32Z</time></trkpt><trkpt lat="40.123552480640875" lon="15.699555632741202"><ele>937.5</ele><time>2026-04-26T09:13:33Z</time></trkpt><trkpt lat="40.123561068723646" lon="15.699656354052449"><ele>939.3333333333333</ele><time>2026-04-26T09:13:35Z</time></trkpt><trkpt lat="40.12345507722193" lon="15.699648484770886"><ele>941.1666666666666</ele><time>2026-04-26T09:13:37Z</time></trkpt><trkpt lat="40.12338180919543" lon="15.69964072061743"><ele>943.0</ele><time>2026-04-26T09:13:38Z</time></trkpt><trkpt lat="40.12329652214781" lon="15.699619834481314"><ele>947.4</ele><time>2026-04-26T09:13:39Z</time></trkpt><trkpt lat="40.12322473484751" lon="15.699604663546378"><ele>951.8</ele><time>2026-04-26T09:13:40Z</time></trkpt><trkpt lat="40.12311469057097" lon="15.699646888314165"><ele>956.2</ele><time>2026-04-26T09:13:42Z</time></trkpt><trkpt lat="40.12303556876717" lon="15.699711801888318"><ele>960.6</ele><time>2026-04-26T09:13:44Z</time></trkpt><trkpt lat="40.122953431969094" lon="15.699820877217757"><ele>965.0</ele><time>2026-04-26T09:13:46Z</time></trkpt><trkpt lat="40.12289126803431" lon="15.699870587968105"><ele>965.0</ele><time>2026-04-26T09:13:47Z</time></trkpt><trkpt lat="40.12280402761198" lon="15.699900295978868"><ele>965.0</ele><time>2026-04-26T09:13:48Z</time></trkpt><trkpt lat="40.12272325235066" lon="15.699925286349083"><ele>965.0</ele><time>2026-04-26T09:13:49Z</time></trkpt><trkpt lat="40.122638256071156" lon="15.699946480599309"><ele>965.0</ele><time>2026-04-26T09:13:51Z</time></trkpt><trkpt lat="40.122659942259" lon="15.700074684072032"><ele>965.0</ele><time>2026-04-26T09:13:54Z</time></trkpt><trkpt lat="40.12275303999742" lon="15.700070751577996"><ele>965.0</ele><time>2026-04-26T09:13:56Z</time></trkpt><trkpt lat="40.12282418047987" lon="15.700061127506382"><ele>965.0</ele><time>2026-04-26T09:13:57Z</time></trkpt><trkpt lat="40.122912163181134" lon="15.700042847251346"><ele>965.0</ele><time>2026-04-26T09:13:58Z</time></trkpt><trkpt lat="40.12302518189695" lon="15.700043241510949"><ele>965.0</ele><time>2026-04-26T09:14:00Z</time></trkpt><trkpt lat="40.123103535879395" lon="15.700155293089553"><ele>965.0</ele><time>2026-04-26T09:14:01.999Z</time></trkpt><trkpt lat="40.12314823455534" lon="15.700285434123998"><ele>965.2</ele><time>2026-04-26T09:14:03.999Z</time></trkpt><trkpt lat="40.123181652695656" lon="15.700371322347625"><ele>965.4</ele><time>2026-04-26T09:14:04.999Z</time></trkpt><trkpt lat="40.123222432353835" lon="15.700467450814038"><ele>965.5999999999999</ele><time>2026-04-26T09:14:05.999Z</time></trkpt><trkpt lat="40.123261679567385" lon="15.700586864235119"><ele>965.8</ele><time>2026-04-26T09:14:06.999Z</time></trkpt><trkpt lat="40.12333102634546" lon="15.70070800756289"><ele>966.0</ele><time>2026-04-26T09:14:07.999Z</time></trkpt><trkpt lat="40.12339994810726" lon="15.700792901518971"><ele>966.0</ele><time>2026-04-26T09:14:08.999Z</time></trkpt><trkpt lat="40.12344851216378" lon="15.700905430886966"><ele>965.9999999999999</ele><time>2026-04-26T09:14:09.999Z</time></trkpt><trkpt lat="40.12349656028523" lon="15.70104719174224"><ele>965.9999999999999</ele><time>2026-04-26T09:14:10.999Z</time></trkpt><trkpt lat="40.12353635220582" lon="15.701183477759022"><ele>966.0</ele><time>2026-04-26T09:14:11.999Z</time></trkpt><trkpt lat="40.123566360701574" lon="15.70130790125261"><ele>966.0</ele><time>2026-04-26T09:14:12.999Z</time></trkpt><trkpt lat="40.12362035989645" lon="15.701424431577502"><ele>968.3333333333334</ele><time>2026-04-26T09:14:13.999Z</time></trkpt><trkpt lat="40.123669021645306" lon="15.701548038072561"><ele>970.6666666666667</ele><time>2026-04-26T09:14:14.999Z</time></trkpt><trkpt lat="40.12369551475885" lon="15.701640676167308"><ele>973.0</ele><time>2026-04-26T09:14:15.999Z</time></trkpt><trkpt lat="40.12371405424619" lon="15.701726488937911"><ele>975.3333333333334</ele><time>2026-04-26T09:14:16.999Z</time></trkpt><trkpt lat="40.123731945428545" lon="15.7018168840747"><ele>977.6666666666667</ele><time>2026-04-26T09:14:17.999Z</time></trkpt><trkpt lat="40.12372034126938" lon="15.701916274466996"><ele>980.0</ele><time>2026-04-26T09:14:18.999Z</time></trkpt><trkpt lat="40.12370336995172" lon="15.702013192625772"><ele>980.0000000000001</ele><time>2026-04-26T09:14:19.999Z</time></trkpt><trkpt lat="40.12368455187009" lon="15.702128882550724"><ele>980.0</ele><time>2026-04-26T09:14:20.999Z</time></trkpt><trkpt lat="40.123677797126845" lon="15.702242872019236"><ele>980.0</ele><time>2026-04-26T09:14:21.999Z</time></trkpt><trkpt lat="40.12368462638762" lon="15.702353154580136"><ele>980.0</ele><time>2026-04-26T09:14:22.999Z</time></trkpt><trkpt lat="40.12367434785886" lon="15.702458455176831"><ele>980.0000000000001</ele><time>2026-04-26T09:14:23.999Z</time></trkpt><trkpt lat="40.1236310540576" lon="15.702547209027358"><ele>980.0</ele><time>2026-04-26T09:14:24.999Z</time></trkpt><trkpt lat="40.123548393477854" lon="15.702632216264027"><ele>980.0</ele><time>2026-04-26T09:14:25.999Z</time></trkpt><trkpt lat="40.1234382410523" lon="15.70268918929621"><ele>980.0</ele><time>2026-04-26T09:14:26.999Z</time></trkpt><trkpt lat="40.12334179711172" lon="15.702695534731536"><ele>980.0</ele><time>2026-04-26T09:14:27.999Z</time></trkpt><trkpt lat="40.123253888731355" lon="15.702717415083615"><ele>980.0</ele><time>2026-04-26T09:14:28.999Z</time></trkpt><trkpt lat="40.12318266786664" lon="15.702727354664985"><ele>980.0</ele><time>2026-04-26T09:14:29.999Z</time></trkpt><trkpt lat="40.12310331989728" lon="15.702702118703444"><ele>980.3333333333334</ele><time>2026-04-26T09:14:31.999Z</time></trkpt><trkpt lat="40.122994179631725" lon="15.70266755608124"><ele>980.6666666666667</ele><time>2026-04-26T09:14:34.999Z</time></trkpt><trkpt lat="40.122924319946584" lon="15.702695800635965"><ele>981.0</ele><time>2026-04-26T09:14:35.999Z</time></trkpt><trkpt lat="40.12285866334835" lon="15.702754467067354"><ele>981.3333333333333</ele><time>2026-04-26T09:14:36.999Z</time></trkpt><trkpt lat="40.12278563493078" lon="15.702820653911623"><ele>981.6666666666666</ele><time>2026-04-26T09:14:37.999Z</time></trkpt><trkpt lat="40.12271414603098" lon="15.702880624632895"><ele>982.0</ele><time>2026-04-26T09:14:38.999Z</time></trkpt><trkpt lat="40.12263382569636" lon="15.70290907748151"><ele>982.0</ele><time>2026-04-26T09:14:39.999Z</time></trkpt><trkpt lat="40.122544790210206" lon="15.702936652442174"><ele>982.0</ele><time>2026-04-26T09:14:40.999Z</time></trkpt><trkpt lat="40.122453586923015" lon="15.702961212812498"><ele>982.0</ele><time>2026-04-26T09:14:41.999Z</time></trkpt><trkpt lat="40.122404812284955" lon="15.703024880578901"><ele>982.0</ele><time>2026-04-26T09:14:42.999Z</time></trkpt><trkpt lat="40.122352985746886" lon="15.703165113458965"><ele>982.0</ele><time>2026-04-26T09:14:44.999Z</time></trkpt><trkpt lat="40.12233744696598" lon="15.703305798141548"><ele>985.1666666666666</ele><time>2026-04-26T09:14:46.999Z</time></trkpt><trkpt lat="40.122333563822764" lon="15.70339006977814"><ele>988.3333333333333</ele><time>2026-04-26T09:14:47.999Z</time></trkpt><trkpt lat="40.12232263190131" lon="15.70348195793376"><ele>991.5</ele><time>2026-04-26T09:14:48.999Z</time></trkpt><trkpt lat="40.122293612253856" lon="15.703581548103022"><ele>994.6666666666667</ele><time>2026-04-26T09:14:49.999Z</time></trkpt><trkpt lat="40.12226564994708" lon="15.703687549407364"><ele>997.8333333333334</ele><time>2026-04-26T09:14:50.999Z</time></trkpt><trkpt lat="40.122228555269665" lon="15.703772698149425"><ele>1001.0</ele><time>2026-04-26T09:14:51.999Z</time></trkpt><trkpt lat="40.122159439090105" lon="15.703864100539718"><ele>1001.0</ele><time>2026-04-26T09:14:52.999Z</time></trkpt><trkpt lat="40.12204917007543" lon="15.703977308081962"><ele>1001.0</ele><time>2026-04-26T09:14:53.999Z</time></trkpt><trkpt lat="40.12192902454987" lon="15.70406699031861"><ele>1001.0</ele><time>2026-04-26T09:14:54.999Z</time></trkpt><trkpt lat="40.1218515825172" lon="15.704142794122381"><ele>1001.0</ele><time>2026-04-26T09:14:55.999Z</time></trkpt><trkpt lat="40.12177711596074" lon="15.70420712604797"><ele>1001.0</ele><time>2026-04-26T09:14:56.999Z</time></trkpt><trkpt lat="40.121713460756446" lon="15.704262428302291"><ele>1000.9999999999999</ele><time>2026-04-26T09:14:57.999Z</time></trkpt><trkpt lat="40.12165221030164" lon="15.704356139277744"><ele>1000.9999999999999</ele><time>2026-04-26T09:14:59.999Z</time></trkpt><trkpt lat="40.1216607168846" lon="15.704517764836863"><ele>1001.0</ele><time>2026-04-26T09:15:01.999Z</time></trkpt><trkpt lat="40.12169963398081" lon="15.704621756230972"><ele>1001.0</ele><time>2026-04-26T09:15:02.999Z</time></trkpt><trkpt lat="40.1217558525416" lon="15.70474500980341"><ele>1000.5999999999999</ele><time>2026-04-26T09:15:03.999Z</time></trkpt><trkpt lat="40.12180286230195" lon="15.704853575319051"><ele>1000.1999999999999</ele><time>2026-04-26T09:15:04.999Z</time></trkpt><trkpt lat="40.12183192449495" lon="15.704966058321991"><ele>999.8000000000001</ele><time>2026-04-26T09:15:05.999Z</time></trkpt><trkpt lat="40.12183259251441" lon="15.705129935033078"><ele>999.4000000000001</ele><time>2026-04-26T09:15:08Z</time></trkpt><trkpt lat="40.12182223360957" lon="15.705259648016844"><ele>999.0</ele><time>2026-04-26T09:15:09Z</time></trkpt><trkpt lat="40.121792888120986" lon="15.705404058717923"><ele>997.6</ele><time>2026-04-26T09:15:10Z</time></trkpt><trkpt lat="40.12176764201709" lon="15.705564437419087"><ele>996.2</ele><time>2026-04-26T09:15:11Z</time></trkpt><trkpt lat="40.12175378632756" lon="15.705711100458652"><ele>994.8000000000001</ele><time>2026-04-26T09:15:12Z</time></trkpt><trkpt lat="40.121744958869414" lon="15.705840721786524"><ele>993.4000000000001</ele><time>2026-04-26T09:15:13Z</time></trkpt><trkpt lat="40.12172034835542" lon="15.705944585018173"><ele>992.0</ele><time>2026-04-26T09:15:14Z</time></trkpt><trkpt lat="40.12167628060026" lon="15.706041217362126"><ele>988.0</ele><time>2026-04-26T09:15:15Z</time></trkpt><trkpt lat="40.12158952637884" lon="15.706148575470525"><ele>984.0</ele><time>2026-04-26T09:15:16Z</time></trkpt><trkpt lat="40.121477652525726" lon="15.706270872574517"><ele>980.0</ele><time>2026-04-26T09:15:17Z</time></trkpt><trkpt lat="40.12135544551929" lon="15.70639941113691"><ele>976.0</ele><time>2026-04-26T09:15:18Z</time></trkpt><trkpt lat="40.12124373385924" lon="15.706520378035544"><ele>979.1666666666666</ele><time>2026-04-26T09:15:19Z</time></trkpt><trkpt lat="40.1211754183984" lon="15.706600179801091"><ele>982.3333333333333</ele><time>2026-04-26T09:15:20Z</time></trkpt><trkpt lat="40.12113221202906" lon="15.706677846368946"><ele>985.5</ele><time>2026-04-26T09:15:21Z</time></trkpt><trkpt lat="40.12110552608657" lon="15.70677527807269"><ele>988.6666666666667</ele><time>2026-04-26T09:15:22Z</time></trkpt><trkpt lat="40.121069803024604" lon="15.70687110624356"><ele>991.8333333333334</ele><time>2026-04-26T09:15:23Z</time></trkpt><trkpt lat="40.12104801631689" lon="15.706969616514304"><ele>995.0</ele><time>2026-04-26T09:15:24Z</time></trkpt><trkpt lat="40.12100837533208" lon="15.707051501537588"><ele>995.0</ele><time>2026-04-26T09:15:25Z</time></trkpt><trkpt lat="40.12095150271605" lon="15.707148114969307"><ele>995.0</ele><time>2026-04-26T09:15:26Z</time></trkpt><trkpt lat="40.120881088171444" lon="15.70725485753254"><ele>995.0</ele><time>2026-04-26T09:15:27Z</time></trkpt><trkpt lat="40.12083422030518" lon="15.707372654679904"><ele>995.0</ele><time>2026-04-26T09:15:28Z</time></trkpt><trkpt lat="40.12077083605969" lon="15.707517965407387"><ele>995.0</ele><time>2026-04-26T09:15:29Z</time></trkpt><trkpt lat="40.12069985091591" lon="15.707686314216192"><ele>999.2</ele><time>2026-04-26T09:15:30Z</time></trkpt><trkpt lat="40.12065278714659" lon="15.707817446033966"><ele>1003.4</ele><time>2026-04-26T09:15:31Z</time></trkpt><trkpt lat="40.12061800993645" lon="15.707913834435477"><ele>1007.5999999999999</ele><time>2026-04-26T09:15:32Z</time></trkpt><trkpt lat="40.120586838520204" lon="15.70800552206514"><ele>1011.8</ele><time>2026-04-26T09:15:33Z</time></trkpt><trkpt lat="40.12053275944917" lon="15.708102105130246"><ele>1016.0</ele><time>2026-04-26T09:15:34Z</time></trkpt><trkpt lat="40.12045896349578" lon="15.708221037706501"><ele>1016.0</ele><time>2026-04-26T09:15:35Z</time></trkpt><trkpt lat="40.12037575019734" lon="15.708353782690587"><ele>1016.0</ele><time>2026-04-26T09:15:36Z</time></trkpt><trkpt lat="40.12032090801173" lon="15.708501003313952"><ele>1016.0</ele><time>2026-04-26T09:15:37Z</time></trkpt><trkpt lat="40.12026504742143" lon="15.708633620996041"><ele>1016.0</ele><time>2026-04-26T09:15:38Z</time></trkpt><trkpt lat="40.12020273991729" lon="15.708751240403405"><ele>1011.1999999999999</ele><time>2026-04-26T09:15:39Z</time></trkpt><trkpt lat="40.12013602360338" lon="15.708876492020863"><ele>1006.3999999999999</ele><time>2026-04-26T09:15:40Z</time></trkpt><trkpt lat="40.12007309880237" lon="15.709008660214637"><ele>1001.6</ele><time>2026-04-26T09:15:41Z</time></trkpt><trkpt lat="40.120007830790996" lon="15.709131448391608"><ele>996.8</ele><time>2026-04-26T09:15:42Z</time></trkpt><trkpt lat="40.11996099071709" lon="15.709243543894388"><ele>992.0</ele><time>2026-04-26T09:15:43Z</time></trkpt><trkpt lat="40.11991357174459" lon="15.709384379717461"><ele>997.25</ele><time>2026-04-26T09:15:44Z</time></trkpt><trkpt lat="40.11986275534051" lon="15.709543184037987"><ele>1002.5</ele><time>2026-04-26T09:15:45Z</time></trkpt><trkpt lat="40.11979737932801" lon="15.70970589659881"><ele>1007.75</ele><time>2026-04-26T09:15:46Z</time></trkpt><trkpt lat="40.119731032554945" lon="15.709876512901241"><ele>1013.0</ele><time>2026-04-26T09:15:47Z</time></trkpt><trkpt lat="40.119688263009074" lon="15.710036092460635"><ele>1013.0</ele><time>2026-04-26T09:15:48Z</time></trkpt><trkpt lat="40.119644604588515" lon="15.710164886156136"><ele>1013.0</ele><time>2026-04-26T09:15:49Z</time></trkpt><trkpt lat="40.11959451886555" lon="15.71029587170477"><ele>1013.0</ele><time>2026-04-26T09:15:50Z</time></trkpt><trkpt lat="40.11953135578024" lon="15.71040862223935"><ele>1013.0</ele><time>2026-04-26T09:15:51Z</time></trkpt><trkpt lat="40.11948357697403" lon="15.710492518221516"><ele>1013.0</ele><time>2026-04-26T09:15:52Z</time></trkpt><trkpt lat="40.119457732509844" lon="15.71058564575356"><ele>1010.8333333333334</ele><time>2026-04-26T09:15:53Z</time></trkpt><trkpt lat="40.11944655626785" lon="15.710685740956201"><ele>1008.6666666666667</ele><time>2026-04-26T09:15:54Z</time></trkpt><trkpt lat="40.11945933448224" lon="15.710794204980067"><ele>1006.5</ele><time>2026-04-26T09:15:55Z</time></trkpt><trkpt lat="40.119451225057794" lon="15.710911083173885"><ele>1004.3333333333333</ele><time>2026-04-26T09:15:57Z</time></trkpt><trkpt lat="40.119418235615996" lon="15.710981931711737"><ele>1002.1666666666666</ele><time>2026-04-26T09:15:58Z</time></trkpt><trkpt lat="40.11939279174701" lon="15.711082336621049"><ele>1000.0</ele><time>2026-04-26T09:15:59Z</time></trkpt><trkpt lat="40.11940002838607" lon="15.711209027252862"><ele>999.6</ele><time>2026-04-26T09:16:00Z</time></trkpt><trkpt lat="40.119423250390845" lon="15.711356242048247"><ele>999.2</ele><time>2026-04-26T09:16:01Z</time></trkpt><trkpt lat="40.11942281082081" lon="15.711491121057964"><ele>998.8</ele><time>2026-04-26T09:16:01.999Z</time></trkpt><trkpt lat="40.11941533251022" lon="15.711608851851567"><ele>998.4</ele><time>2026-04-26T09:16:02.999Z</time></trkpt><trkpt lat="40.119400832827004" lon="15.71171359214536"><ele>998.0</ele><time>2026-04-26T09:16:03.999Z</time></trkpt><trkpt lat="40.11939689272125" lon="15.711825580462989"><ele>998.75</ele><time>2026-04-26T09:16:04.999Z</time></trkpt><trkpt lat="40.11938884441596" lon="15.711959316781742"><ele>999.5</ele><time>2026-04-26T09:16:05.999Z</time></trkpt><trkpt lat="40.11936859170482" lon="15.712101482968462"><ele>1000.25</ele><time>2026-04-26T09:16:06.999Z</time></trkpt><trkpt lat="40.119371729101026" lon="15.712252921482587"><ele>1001.0</ele><time>2026-04-26T09:16:07.999Z</time></trkpt><trkpt lat="40.11935219694793" lon="15.712427549281012"><ele>1001.0</ele><time>2026-04-26T09:16:08.999Z</time></trkpt><trkpt lat="40.119363713222846" lon="15.712586727288523"><ele>1000.9999999999999</ele><time>2026-04-26T09:16:09.999Z</time></trkpt><trkpt lat="40.11938098918324" lon="15.712748531020925"><ele>1000.9999999999999</ele><time>2026-04-26T09:16:10.999Z</time></trkpt><trkpt lat="40.11939190419171" lon="15.712889331292002"><ele>1001.0</ele><time>2026-04-26T09:16:11.999Z</time></trkpt><trkpt lat="40.11938815743717" lon="15.713006352724799"><ele>1001.0</ele><time>2026-04-26T09:16:12.999Z</time></trkpt><trkpt lat="40.11935642108208" lon="15.71314122582056"><ele>1000.25</ele><time>2026-04-26T09:16:13.999Z</time></trkpt><trkpt lat="40.11934218510668" lon="15.713283044425724"><ele>999.5</ele><time>2026-04-26T09:16:14.999Z</time></trkpt><trkpt lat="40.11930921995486" lon="15.713451538991764"><ele>998.75</ele><time>2026-04-26T09:16:15.999Z</time></trkpt><trkpt lat="40.11927554617207" lon="15.713646866927267"><ele>998.0</ele><time>2026-04-26T09:16:16.999Z</time></trkpt><trkpt lat="40.119253917098376" lon="15.71384338186029"><ele>996.75</ele><time>2026-04-26T09:16:17.999Z</time></trkpt><trkpt lat="40.119222740124506" lon="15.714010817209541"><ele>995.5</ele><time>2026-04-26T09:16:18.999Z</time></trkpt><trkpt lat="40.119204370936295" lon="15.714143570968243"><ele>994.25</ele><time>2026-04-26T09:16:19.999Z</time></trkpt><trkpt lat="40.1191818086336" lon="15.714289224087754"><ele>993.0</ele><time>2026-04-26T09:16:20.999Z</time></trkpt><trkpt lat="40.11915748234415" lon="15.714445123879967"><ele>991.75</ele><time>2026-04-26T09:16:21.999Z</time></trkpt><trkpt lat="40.11914719756502" lon="15.714602380954123"><ele>990.5</ele><time>2026-04-26T09:16:22.999Z</time></trkpt><trkpt lat="40.11913864536571" lon="15.714771722499064"><ele>989.25</ele><time>2026-04-26T09:16:23.999Z</time></trkpt><trkpt lat="40.11913159056539" lon="15.714951544888134"><ele>988.0</ele><time>2026-04-26T09:16:24.999Z</time></trkpt><trkpt lat="40.11912450004941" lon="15.715100292148595"><ele>987.8</ele><time>2026-04-26T09:16:25.999Z</time></trkpt><trkpt lat="40.11912149570812" lon="15.715256875932166"><ele>987.5999999999999</ele><time>2026-04-26T09:16:26.999Z</time></trkpt><trkpt lat="40.11912060647906" lon="15.71539732154413"><ele>987.4000000000001</ele><time>2026-04-26T09:16:27.999Z</time></trkpt><trkpt lat="40.11912000605085" lon="15.715539415031992"><ele>987.2</ele><time>2026-04-26T09:16:28.999Z</time></trkpt><trkpt lat="40.11911004584072" lon="15.71566943242256"><ele>987.0</ele><time>2026-04-26T09:16:29.999Z</time></trkpt><trkpt lat="40.11908199952057" lon="15.715805259379163"><ele>989.6666666666666</ele><time>2026-04-26T09:16:30.999Z</time></trkpt><trkpt lat="40.119036841765926" lon="15.715961160142927"><ele>992.3333333333333</ele><time>2026-04-26T09:16:31.999Z</time></trkpt><trkpt lat="40.1189799049667" lon="15.716074430007868"><ele>995.0</ele><time>2026-04-26T09:16:32.999Z</time></trkpt><trkpt lat="40.11890969975237" lon="15.716139743186014"><ele>997.6666666666666</ele><time>2026-04-26T09:16:33.999Z</time></trkpt><trkpt lat="40.11885733758294" lon="15.716192357764335"><ele>1000.3333333333333</ele><time>2026-04-26T09:16:34.999Z</time></trkpt><trkpt lat="40.11883125304342" lon="15.71626823798377"><ele>1003.0</ele><time>2026-04-26T09:16:35.999Z</time></trkpt><trkpt lat="40.118823071894006" lon="15.716365138605381"><ele>1003.0</ele><time>2026-04-26T09:16:36.999Z</time></trkpt><trkpt lat="40.11875018706506" lon="15.716503923843185"><ele>1003.0</ele><time>2026-04-26T09:16:38.999Z</time></trkpt><trkpt lat="40.118678803855815" lon="15.716611905536332"><ele>1003.0</ele><time>2026-04-26T09:16:39.999Z</time></trkpt><trkpt lat="40.11861420387908" lon="15.716748870092832"><ele>1003.0</ele><time>2026-04-26T09:16:40.999Z</time></trkpt><trkpt lat="40.11858037346265" lon="15.716853933321842"><ele>1003.0</ele><time>2026-04-26T09:16:41.999Z</time></trkpt><trkpt lat="40.1185764624258" lon="15.716999779426294"><ele>1001.4</ele><time>2026-04-26T09:16:42.999Z</time></trkpt><trkpt lat="40.11857009770322" lon="15.71717594970691"><ele>999.8</ele><time>2026-04-26T09:16:43.999Z</time></trkpt><trkpt lat="40.118551461391775" lon="15.71731199792207"><ele>998.2</ele><time>2026-04-26T09:16:44.999Z</time></trkpt><trkpt lat="40.11854258587755" lon="15.71743849330783"><ele>996.6</ele><time>2026-04-26T09:16:45.999Z</time></trkpt><trkpt lat="40.11853142400147" lon="15.717523327357087"><ele>995.0</ele><time>2026-04-26T09:16:46.999Z</time></trkpt><trkpt lat="40.11849964668817" lon="15.717641022811609"><ele>993.0</ele><time>2026-04-26T09:16:47.999Z</time></trkpt><trkpt lat="40.11845841654235" lon="15.717739777023054"><ele>991.0</ele><time>2026-04-26T09:16:48.999Z</time></trkpt><trkpt lat="40.11840950268639" lon="15.717880295299523"><ele>989.0</ele><time>2026-04-26T09:16:50.999Z</time></trkpt><trkpt lat="40.11835146034408" lon="15.717981799657773"><ele>987.0</ele><time>2026-04-26T09:16:51.999Z</time></trkpt><trkpt lat="40.11829456005862" lon="15.718115320117976"><ele>985.0</ele><time>2026-04-26T09:16:52.999Z</time></trkpt><trkpt lat="40.11827099430116" lon="15.71824315039072"><ele>985.0</ele><time>2026-04-26T09:16:53.999Z</time></trkpt><trkpt lat="40.11825113807163" lon="15.718374786297472"><ele>985.0</ele><time>2026-04-26T09:16:54.999Z</time></trkpt><trkpt lat="40.11822241669252" lon="15.71850179662447"><ele>985.0</ele><time>2026-04-26T09:16:55.999Z</time></trkpt><trkpt lat="40.118191233913635" lon="15.718636311455874"><ele>985.0</ele><time>2026-04-26T09:16:56.999Z</time></trkpt><trkpt lat="40.118146765705816" lon="15.718774703551468"><ele>985.0</ele><time>2026-04-26T09:16:57.999Z</time></trkpt><trkpt lat="40.118134726113176" lon="15.718915063818233"><ele>983.8</ele><time>2026-04-26T09:16:58.999Z</time></trkpt><trkpt lat="40.118114494957545" lon="15.719061156046775"><ele>982.6</ele><time>2026-04-26T09:16:59.999Z</time></trkpt><trkpt lat="40.11805782315211" lon="15.719191069567486"><ele>981.4000000000001</ele><time>2026-04-26T09:17:00.999Z</time></trkpt><trkpt lat="40.11800752910798" lon="15.719318194578959"><ele>980.2</ele><time>2026-04-26T09:17:01.999Z</time></trkpt><trkpt lat="40.11795288546564" lon="15.71942803578108"><ele>979.0</ele><time>2026-04-26T09:17:02.999Z</time></trkpt><trkpt lat="40.11790020369724" lon="15.719522685010837"><ele>978.9999999999999</ele><time>2026-04-26T09:17:03.999Z</time></trkpt><trkpt lat="40.11784938507311" lon="15.7195903902471"><ele>979.0</ele><time>2026-04-26T09:17:04.999Z</time></trkpt><trkpt lat="40.11779625853789" lon="15.71963858803706"><ele>979.0</ele><time>2026-04-26T09:17:05.999Z</time></trkpt><trkpt lat="40.117720412883266" lon="15.719724905606146"><ele>979.0</ele><time>2026-04-26T09:17:07.999Z</time></trkpt><trkpt lat="40.117686142419686" lon="15.719814407007378"><ele>978.9999999999999</ele><time>2026-04-26T09:17:09.999Z</time></trkpt><trkpt lat="40.117683641397825" lon="15.719903475262427"><ele>979.0</ele><time>2026-04-26T09:17:11.999Z</time></trkpt><trkpt lat="40.117679852551255" lon="15.720115414434053"><ele>976.2</ele><time>2026-04-26T09:17:14Z</time></trkpt><trkpt lat="40.11768650526333" lon="15.720261658183503"><ele>973.4000000000001</ele><time>2026-04-26T09:17:15Z</time></trkpt><trkpt lat="40.117692877354884" lon="15.720395883409857"><ele>970.6</ele><time>2026-04-26T09:17:16Z</time></trkpt><trkpt lat="40.11770845868862" lon="15.720518460110053"><ele>967.8</ele><time>2026-04-26T09:17:17Z</time></trkpt><trkpt lat="40.11771589510822" lon="15.720626584974392"><ele>965.0</ele><time>2026-04-26T09:17:18Z</time></trkpt><trkpt lat="40.117707428109725" lon="15.720713473391552"><ele>965.0000000000001</ele><time>2026-04-26T09:17:19Z</time></trkpt><trkpt lat="40.117684083445475" lon="15.720793954759534"><ele>965.0</ele><time>2026-04-26T09:17:20Z</time></trkpt><trkpt lat="40.11764734837486" lon="15.720879161361388"><ele>965.0</ele><time>2026-04-26T09:17:21Z</time></trkpt><trkpt lat="40.1176032044825" lon="15.720968233796652"><ele>965.0</ele><time>2026-04-26T09:17:22Z</time></trkpt><trkpt lat="40.11752916216603" lon="15.721109004791106"><ele>965.0000000000001</ele><time>2026-04-26T09:17:24Z</time></trkpt><trkpt lat="40.11750622426488" lon="15.721190484052425"><ele>965.0</ele><time>2026-04-26T09:17:25Z</time></trkpt><trkpt lat="40.11749643693506" lon="15.72128301954613"><ele>964.5000000000001</ele><time>2026-04-26T09:17:26Z</time></trkpt><trkpt lat="40.11749323913011" lon="15.721392606176968"><ele>964.0</ele><time>2026-04-26T09:17:27Z</time></trkpt><trkpt lat="40.11751259536917" lon="15.721508926081752"><ele>963.5</ele><time>2026-04-26T09:17:28Z</time></trkpt><trkpt lat="40.11752054694315" lon="15.721608534950423"><ele>963.0</ele><time>2026-04-26T09:17:29Z</time></trkpt><trkpt lat="40.117519992853005" lon="15.721693047211156"><ele>962.5000000000001</ele><time>2026-04-26T09:17:30Z</time></trkpt><trkpt lat="40.117456328709764" lon="15.721841158734948"><ele>962.0</ele><time>2026-04-26T09:17:32Z</time></trkpt><trkpt lat="40.11740168537794" lon="15.721947901046338"><ele>959.2</ele><time>2026-04-26T09:17:34Z</time></trkpt><trkpt lat="40.117446477258504" lon="15.722067441846578"><ele>956.4000000000001</ele><time>2026-04-26T09:17:35Z</time></trkpt><trkpt lat="40.1174920456889" lon="15.722205535849321"><ele>953.5999999999999</ele><time>2026-04-26T09:17:36Z</time></trkpt><trkpt lat="40.117499706119965" lon="15.722318154295982"><ele>950.8</ele><time>2026-04-26T09:17:37Z</time></trkpt><trkpt lat="40.11749428034879" lon="15.722408195280934"><ele>948.0</ele><time>2026-04-26T09:17:38Z</time></trkpt><trkpt lat="40.117518385619476" lon="15.72251183707985"><ele>948.0</ele><time>2026-04-26T09:17:40Z</time></trkpt><trkpt lat="40.117551193962704" lon="15.722647820184187"><ele>948.0</ele><time>2026-04-26T09:17:42Z</time></trkpt><trkpt lat="40.117569601769574" lon="15.72274383022762"><ele>948.0</ele><time>2026-04-26T09:17:43Z</time></trkpt><trkpt lat="40.11759401911723" lon="15.722862964797585"><ele>948.0</ele><time>2026-04-26T09:17:44Z</time></trkpt><trkpt lat="40.117618324243566" lon="15.723007348799612"><ele>948.0</ele><time>2026-04-26T09:17:45Z</time></trkpt><trkpt lat="40.117640445265316" lon="15.723143178336779"><ele>949.0</ele><time>2026-04-26T09:17:46Z</time></trkpt><trkpt lat="40.1176583384319" lon="15.723251230650478"><ele>950.0</ele><time>2026-04-26T09:17:47Z</time></trkpt><trkpt lat="40.117698136768354" lon="15.72332928516617"><ele>951.0</ele><time>2026-04-26T09:17:48Z</time></trkpt><trkpt lat="40.11774046472984" lon="15.723401044268794"><ele>952.0</ele><time>2026-04-26T09:17:49Z</time></trkpt><trkpt lat="40.11781472858918" lon="15.723456287043774"><ele>953.0</ele><time>2026-04-26T09:17:50Z</time></trkpt><trkpt lat="40.117869891630654" lon="15.723508486369276"><ele>954.0</ele><time>2026-04-26T09:17:51Z</time></trkpt><trkpt lat="40.117945605379894" lon="15.723545002054585"><ele>954.4000000000001</ele><time>2026-04-26T09:17:52Z</time></trkpt><trkpt lat="40.11802569455529" lon="15.723572624135274"><ele>954.8000000000001</ele><time>2026-04-26T09:17:53Z</time></trkpt><trkpt lat="40.11811987846197" lon="15.723649777769372"><ele>955.1999999999999</ele><time>2026-04-26T09:17:55Z</time></trkpt><trkpt lat="40.1182026396408" lon="15.723736674372285"><ele>955.5999999999999</ele><time>2026-04-26T09:17:57Z</time></trkpt><trkpt lat="40.11827932869005" lon="15.723815764957427"><ele>956.0</ele><time>2026-04-26T09:17:59Z</time></trkpt><trkpt lat="40.118327498396276" lon="15.72390232186024"><ele>953.1666666666667</ele><time>2026-04-26T09:18:42.999Z</time></trkpt><trkpt lat="40.11838873934574" lon="15.723989389487965"><ele>950.3333333333334</ele><time>2026-04-26T09:18:44.999Z</time></trkpt><trkpt lat="40.118431667284675" lon="15.724076374830254"><ele>947.5</ele><time>2026-04-26T09:18:47.999Z</time></trkpt><trkpt lat="40.118441021737866" lon="15.724208007724407"><ele>944.6666666666667</ele><time>2026-04-26T09:18:50.999Z</time></trkpt><trkpt lat="40.11842493934359" lon="15.724291037580194"><ele>941.8333333333334</ele><time>2026-04-26T09:18:52.999Z</time></trkpt><trkpt lat="40.11839836575991" lon="15.724406900089777"><ele>939.0</ele><time>2026-04-26T09:18:55.999Z</time></trkpt><trkpt lat="40.118377471002994" lon="15.724499932191204"><ele>938.0</ele><time>2026-04-26T09:18:57.999Z</time></trkpt><trkpt lat="40.11837544004957" lon="15.72458816370177"><ele>937.0</ele><time>2026-04-26T09:18:58.999Z</time></trkpt><trkpt lat="40.118347845286415" lon="15.724673437624293"><ele>936.0</ele><time>2026-04-26T09:19:00.999Z</time></trkpt><trkpt lat="40.11832083334619" lon="15.724761529265296"><ele>935.0</ele><time>2026-04-26T09:19:03.999Z</time></trkpt><trkpt lat="40.11831948794735" lon="15.724882192794004"><ele>934.0</ele><time>2026-04-26T09:19:06.999Z</time></trkpt><trkpt lat="40.11831351500612" lon="15.724982867454838"><ele>933.0</ele><time>2026-04-26T09:19:09.999Z</time></trkpt><trkpt lat="40.11829887956453" lon="15.725118368604718"><ele>933.0</ele><time>2026-04-26T09:19:12.999Z</time></trkpt><trkpt lat="40.11828607246322" lon="15.725221795592462"><ele>933.0</ele><time>2026-04-26T09:19:14.998Z</time></trkpt><trkpt lat="40.118290612423955" lon="15.725367456883463"><ele>933.0</ele><time>2026-04-26T09:19:16.998Z</time></trkpt><trkpt lat="40.11829061884915" lon="15.725473270214097"><ele>933.0</ele><time>2026-04-26T09:19:20Z</time></trkpt><trkpt lat="40.11827384083063" lon="15.725591580229972"><ele>933.0</ele><time>2026-04-26T09:19:23Z</time></trkpt><trkpt lat="40.11824584569457" lon="15.725666072381204"><ele>933.0</ele><time>2026-04-26T09:19:24Z</time></trkpt><trkpt lat="40.11820964178193" lon="15.725766287787703"><ele>933.6666666666666</ele><time>2026-04-26T09:19:26Z</time></trkpt><trkpt lat="40.11817264245426" lon="15.725859298096573"><ele>934.3333333333333</ele><time>2026-04-26T09:19:28Z</time></trkpt><trkpt lat="40.118171802882266" lon="15.725962894602416"><ele>935.0</ele><time>2026-04-26T09:19:30Z</time></trkpt><trkpt lat="40.118164272034555" lon="15.726064073758062"><ele>935.6666666666666</ele><time>2026-04-26T09:19:33Z</time></trkpt><trkpt lat="40.11817910233178" lon="15.726153961880982"><ele>936.3333333333333</ele><time>2026-04-26T09:19:35Z</time></trkpt><trkpt lat="40.11818014286954" lon="15.726310258062522"><ele>937.0</ele><time>2026-04-26T09:19:37Z</time></trkpt><trkpt lat="40.11817758861981" lon="15.726410256604828"><ele>937.0</ele><time>2026-04-26T09:19:38Z</time></trkpt><trkpt lat="40.11816551361296" lon="15.726499050496791"><ele>937.0</ele><time>2026-04-26T09:19:39Z</time></trkpt><trkpt lat="40.11815566316542" lon="15.726642503670874"><ele>937.0</ele><time>2026-04-26T09:19:41Z</time></trkpt><trkpt lat="40.118145731265926" lon="15.72680982958738"><ele>937.0</ele><time>2026-04-26T09:19:43Z</time></trkpt><trkpt lat="40.118105139710465" lon="15.726977014951464"><ele>937.0</ele><time>2026-04-26T09:19:45Z</time></trkpt><trkpt lat="40.11806690685312" lon="15.727120750813897"><ele>933.2</ele><time>2026-04-26T09:19:47Z</time></trkpt><trkpt lat="40.118065029175234" lon="15.727265339975737"><ele>929.4000000000001</ele><time>2026-04-26T09:19:49Z</time></trkpt><trkpt lat="40.11803911612365" lon="15.727402503830893"><ele>925.5999999999999</ele><time>2026-04-26T09:19:51Z</time></trkpt><trkpt lat="40.11800080590812" lon="15.727492033479855"><ele>921.8</ele><time>2026-04-26T09:19:52Z</time></trkpt><trkpt lat="40.117983120626" lon="15.727574381988111"><ele>918.0</ele><time>2026-04-26T09:19:53Z</time></trkpt><trkpt lat="40.11792346256511" lon="15.727748540931284"><ele>912.0</ele><time>2026-04-26T09:19:55Z</time></trkpt><trkpt lat="40.117920176273245" lon="15.72783915686413"><ele>906.0</ele><time>2026-04-26T09:19:56Z</time></trkpt><trkpt lat="40.117901652017444" lon="15.727957950385303"><ele>900.0</ele><time>2026-04-26T09:19:58Z</time></trkpt><trkpt lat="40.11789711643864" lon="15.7280949765134"><ele>894.0</ele><time>2026-04-26T09:20:00Z</time></trkpt><trkpt lat="40.11787443233912" lon="15.728217456643188"><ele>888.0</ele><time>2026-04-26T09:20:01.999Z</time></trkpt><trkpt lat="40.11785900287935" lon="15.728330698603942"><ele>888.0</ele><time>2026-04-26T09:20:03.999Z</time></trkpt><trkpt lat="40.117849463808206" lon="15.728437505534657"><ele>888.0</ele><time>2026-04-26T09:20:05.999Z</time></trkpt><trkpt lat="40.11782927391877" lon="15.728571930691576"><ele>888.0</ele><time>2026-04-26T09:20:07.999Z</time></trkpt><trkpt lat="40.11782879203016" lon="15.72873160363961"><ele>888.0</ele><time>2026-04-26T09:20:09.999Z</time></trkpt><trkpt lat="40.11785748537198" lon="15.728861113313544"><ele>888.0</ele><time>2026-04-26T09:20:11.999Z</time></trkpt><trkpt lat="40.117887519394266" lon="15.728933650237023"><ele>887.6666666666666</ele><time>2026-04-26T09:20:12.999Z</time></trkpt><trkpt lat="40.117898770245375" lon="15.729025075243284"><ele>887.3333333333333</ele><time>2026-04-26T09:20:13.999Z</time></trkpt><trkpt lat="40.11791311429404" lon="15.729147723708094"><ele>887.0</ele><time>2026-04-26T09:20:14.999Z</time></trkpt><trkpt lat="40.11793428484736" lon="15.729263177030349"><ele>886.6666666666666</ele><time>2026-04-26T09:20:15.999Z</time></trkpt><trkpt lat="40.11793670010853" lon="15.729355015867464"><ele>886.3333333333333</ele><time>2026-04-26T09:20:16.999Z</time></trkpt><trkpt lat="40.117964318123484" lon="15.72943830265379"><ele>886.0</ele><time>2026-04-26T09:20:17.999Z</time></trkpt><trkpt lat="40.118008738142" lon="15.72950849049458"><ele>887.0</ele><time>2026-04-26T09:20:18.999Z</time></trkpt><trkpt lat="40.11807038937466" lon="15.729579460217229"><ele>887.9999999999999</ele><time>2026-04-26T09:20:19.999Z</time></trkpt><trkpt lat="40.11813543758232" lon="15.729673848895255"><ele>888.9999999999999</ele><time>2026-04-26T09:20:20.999Z</time></trkpt><trkpt lat="40.11820557675308" lon="15.729778836041302"><ele>890.0</ele><time>2026-04-26T09:20:21.999Z</time></trkpt><trkpt lat="40.11827805828787" lon="15.729908071085855"><ele>891.0</ele><time>2026-04-26T09:20:22.999Z</time></trkpt><trkpt lat="40.11833380785107" lon="15.730022572696072"><ele>891.0</ele><time>2026-04-26T09:20:23.999Z</time></trkpt><trkpt lat="40.118405658436" lon="15.730112357297745"><ele>890.9999999999999</ele><time>2026-04-26T09:20:24.999Z</time></trkpt><trkpt lat="40.11846412173537" lon="15.730179544717023"><ele>890.9999999999999</ele><time>2026-04-26T09:20:25.999Z</time></trkpt><trkpt lat="40.118573953533286" lon="15.730189720161965"><ele>891.0</ele><time>2026-04-26T09:20:27.999Z</time></trkpt><trkpt lat="40.11864888381551" lon="15.730131801861804"><ele>891.0</ele><time>2026-04-26T09:20:28.999Z</time></trkpt><trkpt lat="40.11871718034265" lon="15.730051078148238"><ele>891.0</ele><time>2026-04-26T09:20:29.999Z</time></trkpt><trkpt lat="40.11877988012783" lon="15.730006764710243"><ele>890.9999999999999</ele><time>2026-04-26T09:20:30.999Z</time></trkpt><trkpt lat="40.118899298698636" lon="15.73008000589268"><ele>890.9999999999999</ele><time>2026-04-26T09:20:32.999Z</time></trkpt><trkpt lat="40.118955210310276" lon="15.730165046665768"><ele>891.0</ele><time>2026-04-26T09:20:33.999Z</time></trkpt><trkpt lat="40.1190399840629" lon="15.730277847938272"><ele>891.0</ele><time>2026-04-26T09:20:34.999Z</time></trkpt><trkpt lat="40.119140349721675" lon="15.730359938798243"><ele>893.5999999999999</ele><time>2026-04-26T09:20:35.999Z</time></trkpt><trkpt lat="40.11925218465325" lon="15.730419751770459"><ele>896.1999999999999</ele><time>2026-04-26T09:20:36.999Z</time></trkpt><trkpt lat="40.11935141159096" lon="15.730477827226794"><ele>898.8000000000001</ele><time>2026-04-26T09:20:37.999Z</time></trkpt><trkpt lat="40.119423197487144" lon="15.730524485595419"><ele>901.4000000000001</ele><time>2026-04-26T09:20:38.999Z</time></trkpt><trkpt lat="40.11950501592057" lon="15.730495580266318"><ele>904.0</ele><time>2026-04-26T09:20:40.999Z</time></trkpt><trkpt lat="40.119508812360685" lon="15.730333982107865"><ele>902.8333333333333</ele><time>2026-04-26T09:20:42.999Z</time></trkpt><trkpt lat="40.11948697248895" lon="15.730212920407215"><ele>901.6666666666666</ele><time>2026-04-26T09:20:43.999Z</time></trkpt><trkpt lat="40.11945506568836" lon="15.730088498649087"><ele>900.5</ele><time>2026-04-26T09:20:44.999Z</time></trkpt><trkpt lat="40.119443283049" lon="15.729993068848815"><ele>899.3333333333333</ele><time>2026-04-26T09:20:45.999Z</time></trkpt><trkpt lat="40.11944078091109" lon="15.729900999666494"><ele>898.1666666666666</ele><time>2026-04-26T09:20:47.999Z</time></trkpt><trkpt lat="40.119510627264496" lon="15.729889699953029"><ele>897.0</ele><time>2026-04-26T09:20:50.999Z</time></trkpt><trkpt lat="40.119552105524164" lon="15.729962520459956"><ele>897.0</ele><time>2026-04-26T09:20:52.999Z</time></trkpt><trkpt lat="40.11959070709531" lon="15.730034916614265"><ele>897.0</ele><time>2026-04-26T09:20:53.999Z</time></trkpt><trkpt lat="40.11963940894824" lon="15.730117593774882"><ele>897.0</ele><time>2026-04-26T09:20:54.999Z</time></trkpt><trkpt lat="40.119688945503796" lon="15.730171353482124"><ele>897.0</ele><time>2026-04-26T09:20:55.999Z</time></trkpt><trkpt lat="40.11973509843347" lon="15.730230421230278"><ele>897.0</ele><time>2026-04-26T09:20:56.999Z</time></trkpt><trkpt lat="40.11979389218617" lon="15.730304811414886"><ele>897.0</ele><time>2026-04-26T09:20:57.999Z</time></trkpt><trkpt lat="40.119861984652786" lon="15.730372003039754"><ele>897.0</ele><time>2026-04-26T09:20:58.999Z</time></trkpt><trkpt lat="40.119941213192845" lon="15.730447150350809"><ele>900.3333333333334</ele><time>2026-04-26T09:20:59.999Z</time></trkpt><trkpt lat="40.12000307917226" lon="15.730503131931245"><ele>903.6666666666667</ele><time>2026-04-26T09:21:00.999Z</time></trkpt><trkpt lat="40.12010897292078" lon="15.73053784296759"><ele>907.0</ele><time>2026-04-26T09:21:02.999Z</time></trkpt><trkpt lat="40.12019939834163" lon="15.730539210040076"><ele>910.3333333333334</ele><time>2026-04-26T09:21:03.999Z</time></trkpt><trkpt lat="40.12028456298465" lon="15.730545963464126"><ele>913.6666666666667</ele><time>2026-04-26T09:21:04.999Z</time></trkpt><trkpt lat="40.120349912243036" lon="15.730559021442684"><ele>917.0</ele><time>2026-04-26T09:21:05.999Z</time></trkpt><trkpt lat="40.12041506022483" lon="15.730606573703705"><ele>917.0</ele><time>2026-04-26T09:21:07.999Z</time></trkpt><trkpt lat="40.12046057808303" lon="15.730677566127047"><ele>917.0</ele><time>2026-04-26T09:21:21.998Z</time></trkpt><trkpt lat="40.12049544832833" lon="15.730790338217053"><ele>917.0</ele><time>2026-04-26T09:21:24Z</time></trkpt><trkpt lat="40.120447709787946" lon="15.730922819400083"><ele>917.0</ele><time>2026-04-26T09:21:26Z</time></trkpt><trkpt lat="40.12047264022532" lon="15.731031944557692"><ele>917.0</ele><time>2026-04-26T09:21:28Z</time></trkpt><trkpt lat="40.120563153354716" lon="15.731081271632755"><ele>917.4000000000001</ele><time>2026-04-26T09:21:30Z</time></trkpt><trkpt lat="40.12062691032411" lon="15.731085031460012"><ele>917.8000000000001</ele><time>2026-04-26T09:21:31Z</time></trkpt><trkpt lat="40.12071064417727" lon="15.73110925823837"><ele>918.2</ele><time>2026-04-26T09:21:33Z</time></trkpt><trkpt lat="40.12063858763968" lon="15.731089116249114"><ele>918.6</ele><time>2026-04-26T09:21:45Z</time></trkpt><trkpt lat="40.120560447726916" lon="15.731061968599775"><ele>919.0</ele><time>2026-04-26T09:21:47Z</time></trkpt><trkpt lat="40.12063090011603" lon="15.731439134528747"><ele>918.0</ele><time>2026-04-26T09:21:48Z</time></trkpt><trkpt lat="40.12047375880173" lon="15.730954220561395"><ele>917.0</ele><time>2026-04-26T09:21:50Z</time></trkpt><trkpt lat="40.120495051113714" lon="15.730853123761273"><ele>917.0000000000001</ele><time>2026-04-26T09:21:52Z</time></trkpt><trkpt lat="40.120517441840086" lon="15.730748183067385"><ele>917.0</ele><time>2026-04-26T09:21:54Z</time></trkpt><trkpt lat="40.12048157868722" lon="15.730680226217526"><ele>917.0</ele><time>2026-04-26T09:21:57Z</time></trkpt><trkpt lat="40.12049620862572" lon="15.730584348767497"><ele>917.0</ele><time>2026-04-26T09:29:50Z</time></trkpt><trkpt lat="40.12043996303398" lon="15.730494797332335"><ele>917.0000000000001</ele><time>2026-04-26T09:29:52Z</time></trkpt><trkpt lat="40.12036391074757" lon="15.730523966188697"><ele>917.0</ele><time>2026-04-26T09:29:55Z</time></trkpt><trkpt lat="40.12043460724265" lon="15.730598501706604"><ele>917.0</ele><time>2026-04-26T09:29:59Z</time></trkpt><trkpt lat="40.12050913539741" lon="15.730682206112924"><ele>917.0</ele><time>2026-04-26T09:30:01Z</time></trkpt><trkpt lat="40.12054301509799" lon="15.730787131177632"><ele>917.0</ele><time>2026-04-26T09:30:03Z</time></trkpt><trkpt lat="40.1205042402119" lon="15.730938842275354"><ele>917.0</ele><time>2026-04-26T09:30:05Z</time></trkpt><trkpt lat="40.1205454248887" lon="15.73104477937419"><ele>917.0</ele><time>2026-04-26T09:30:07Z</time></trkpt><trkpt lat="40.12064636111866" lon="15.73107631639359"><ele>917.3333333333334</ele><time>2026-04-26T09:30:09Z</time></trkpt><trkpt lat="40.120751853271784" lon="15.731113684812327"><ele>917.6666666666667</ele><time>2026-04-26T09:30:11Z</time></trkpt><trkpt lat="40.120766398872874" lon="15.731237872759982"><ele>918.0</ele><time>2026-04-26T09:30:13Z</time></trkpt><trkpt lat="40.12075020482067" lon="15.731323965729619"><ele>918.3333333333333</ele><time>2026-04-26T09:30:14Z</time></trkpt><trkpt lat="40.120717604548666" lon="15.731403192123373"><ele>918.6666666666666</ele><time>2026-04-26T09:30:15Z</time></trkpt><trkpt lat="40.1206557865487" lon="15.731455396606364"><ele>919.0</ele><time>2026-04-26T09:30:16Z</time></trkpt><trkpt lat="40.12057318026929" lon="15.731497338664727"><ele>919.0</ele><time>2026-04-26T09:30:17Z</time></trkpt><trkpt lat="40.12047800751408" lon="15.731545361690616"><ele>919.0000000000001</ele><time>2026-04-26T09:30:18Z</time></trkpt><trkpt lat="40.12040117784482" lon="15.731600142527814"><ele>919.0000000000001</ele><time>2026-04-26T09:30:19Z</time></trkpt><trkpt lat="40.120334404789695" lon="15.73166863991905"><ele>919.0</ele><time>2026-04-26T09:30:20Z</time></trkpt><trkpt lat="40.12026027279628" lon="15.731753424169746"><ele>919.0</ele><time>2026-04-26T09:30:21Z</time></trkpt><trkpt lat="40.12017483482733" lon="15.731860931796763"><ele>919.6</ele><time>2026-04-26T09:30:22Z</time></trkpt><trkpt lat="40.12009322416447" lon="15.731980433386894"><ele>920.2</ele><time>2026-04-26T09:30:22.999Z</time></trkpt><trkpt lat="40.12003227674866" lon="15.732115071351657"><ele>920.8000000000001</ele><time>2026-04-26T09:30:23.999Z</time></trkpt><trkpt lat="40.119967834786806" lon="15.732234728337259"><ele>921.4000000000001</ele><time>2026-04-26T09:30:24.999Z</time></trkpt><trkpt lat="40.11990076668059" lon="15.732299864057433"><ele>922.0</ele><time>2026-04-26T09:30:25.999Z</time></trkpt><trkpt lat="40.1198192202457" lon="15.732357613613223"><ele>920.2</ele><time>2026-04-26T09:30:26.999Z</time></trkpt><trkpt lat="40.11975865567805" lon="15.732440206292614"><ele>918.4000000000001</ele><time>2026-04-26T09:30:27.999Z</time></trkpt><trkpt lat="40.11972162672112" lon="15.732521202150338"><ele>916.5999999999999</ele><time>2026-04-26T09:30:28.999Z</time></trkpt><trkpt lat="40.11971496522483" lon="15.732641042674134"><ele>914.8</ele><time>2026-04-26T09:30:29.999Z</time></trkpt><trkpt lat="40.119697077064565" lon="15.732771643384073"><ele>913.0</ele><time>2026-04-26T09:30:30.999Z</time></trkpt><trkpt lat="40.119686459899995" lon="15.732934346577238"><ele>912.2</ele><time>2026-04-26T09:30:31.999Z</time></trkpt><trkpt lat="40.11967378110525" lon="15.733101719510653"><ele>911.4</ele><time>2026-04-26T09:30:32.999Z</time></trkpt><trkpt lat="40.11965131611016" lon="15.733226307768689"><ele>910.6000000000001</ele><time>2026-04-26T09:30:33.999Z</time></trkpt><trkpt lat="40.11961165806845" lon="15.733315007783327"><ele>909.8000000000001</ele><time>2026-04-26T09:30:34.999Z</time></trkpt><trkpt lat="40.1195496512488" lon="15.733392569879294"><ele>909.0</ele><time>2026-04-26T09:30:35.999Z</time></trkpt><trkpt lat="40.11946314634039" lon="15.73347392396726"><ele>910.0</ele><time>2026-04-26T09:30:36.999Z</time></trkpt><trkpt lat="40.11938437943443" lon="15.73357125335255"><ele>911.0</ele><time>2026-04-26T09:30:37.999Z</time></trkpt><trkpt lat="40.119315818009795" lon="15.733680778269283"><ele>912.0</ele><time>2026-04-26T09:30:38.999Z</time></trkpt><trkpt lat="40.11924797390728" lon="15.733827782990529"><ele>913.0</ele><time>2026-04-26T09:30:39.999Z</time></trkpt><trkpt lat="40.11917389289024" lon="15.73400243106234"><ele>913.0</ele><time>2026-04-26T09:30:40.999Z</time></trkpt><trkpt lat="40.11910464422048" lon="15.73416673485143"><ele>913.0</ele><time>2026-04-26T09:30:41.999Z</time></trkpt><trkpt lat="40.11904110722156" lon="15.734313238265793"><ele>913.0</ele><time>2026-04-26T09:30:42.999Z</time></trkpt><trkpt lat="40.11898652490808" lon="15.734450151329321"><ele>913.0</ele><time>2026-04-26T09:30:43.999Z</time></trkpt><trkpt lat="40.11894130810775" lon="15.734600232159787"><ele>911.5999999999999</ele><time>2026-04-26T09:30:44.999Z</time></trkpt><trkpt lat="40.11889561008225" lon="15.734747448023157"><ele>910.1999999999999</ele><time>2026-04-26T09:30:45.999Z</time></trkpt><trkpt lat="40.118856313201135" lon="15.734869540261053"><ele>908.8</ele><time>2026-04-26T09:30:46.999Z</time></trkpt><trkpt lat="40.11881516148158" lon="15.734996482327091"><ele>907.4</ele><time>2026-04-26T09:30:47.999Z</time></trkpt><trkpt lat="40.11876606487694" lon="15.735123279459433"><ele>906.0</ele><time>2026-04-26T09:30:48.999Z</time></trkpt><trkpt lat="40.11870631847555" lon="15.735231710669414"><ele>904.75</ele><time>2026-04-26T09:30:49.999Z</time></trkpt><trkpt lat="40.118623396388145" lon="15.735338342086596"><ele>903.5</ele><time>2026-04-26T09:30:50.999Z</time></trkpt><trkpt lat="40.11852574337045" lon="15.73544677938776"><ele>902.25</ele><time>2026-04-26T09:30:51.999Z</time></trkpt><trkpt lat="40.11845589357004" lon="15.735555275626622"><ele>901.0</ele><time>2026-04-26T09:30:52.999Z</time></trkpt><trkpt lat="40.118390385968986" lon="15.735648219831333"><ele>901.0</ele><time>2026-04-26T09:30:53.999Z</time></trkpt><trkpt lat="40.11832014492388" lon="15.735750711641447"><ele>900.9999999999999</ele><time>2026-04-26T09:30:54.999Z</time></trkpt><trkpt lat="40.11824571663864" lon="15.73585091899147"><ele>900.9999999999999</ele><time>2026-04-26T09:30:55.999Z</time></trkpt><trkpt lat="40.11818379272042" lon="15.735962306363394"><ele>901.0</ele><time>2026-04-26T09:30:56.999Z</time></trkpt><trkpt lat="40.118124734219876" lon="15.736070515225315"><ele>901.0</ele><time>2026-04-26T09:30:57.999Z</time></trkpt><trkpt lat="40.118064800251574" lon="15.73618012442989"><ele>899.4999999999999</ele><time>2026-04-26T09:30:58.999Z</time></trkpt><trkpt lat="40.11801004924341" lon="15.736241320210185"><ele>898.0</ele><time>2026-04-26T09:30:59.999Z</time></trkpt><trkpt lat="40.117941388525516" lon="15.736315509388932"><ele>896.5</ele><time>2026-04-26T09:31:00.999Z</time></trkpt><trkpt lat="40.117862087609325" lon="15.736416870835136"><ele>895.0</ele><time>2026-04-26T09:31:01.999Z</time></trkpt><trkpt lat="40.11779641020819" lon="15.73650425661377"><ele>893.4999999999999</ele><time>2026-04-26T09:31:02.999Z</time></trkpt><trkpt lat="40.117744245228394" lon="15.736571674140448"><ele>892.0</ele><time>2026-04-26T09:31:03.999Z</time></trkpt><trkpt lat="40.11767761825233" lon="15.736635386494806"><ele>892.0</ele><time>2026-04-26T09:31:04.999Z</time></trkpt><trkpt lat="40.11759639904267" lon="15.736699988974246"><ele>892.0</ele><time>2026-04-26T09:31:05.999Z</time></trkpt><trkpt lat="40.11751766171346" lon="15.736756086293912"><ele>892.0</ele><time>2026-04-26T09:31:06.999Z</time></trkpt><trkpt lat="40.11743818499875" lon="15.736807710897743"><ele>892.0</ele><time>2026-04-26T09:31:07.999Z</time></trkpt><trkpt lat="40.117352058772276" lon="15.736856720545605"><ele>892.0</ele><time>2026-04-26T09:31:08.999Z</time></trkpt><trkpt lat="40.11724784257228" lon="15.736903348645715"><ele>888.2</ele><time>2026-04-26T09:31:09.999Z</time></trkpt><trkpt lat="40.11713587675353" lon="15.736958738999682"><ele>884.4000000000001</ele><time>2026-04-26T09:31:10.999Z</time></trkpt><trkpt lat="40.11705140360229" lon="15.737027997904258"><ele>880.5999999999999</ele><time>2026-04-26T09:31:11.999Z</time></trkpt><trkpt lat="40.11698499376316" lon="15.737098034163843"><ele>876.8</ele><time>2026-04-26T09:31:12.999Z</time></trkpt><trkpt lat="40.11690883618533" lon="15.737172147067758"><ele>873.0</ele><time>2026-04-26T09:31:13.999Z</time></trkpt><trkpt lat="40.11684098799482" lon="15.737223179902132"><ele>873.0</ele><time>2026-04-26T09:31:14.999Z</time></trkpt><trkpt lat="40.11676174159666" lon="15.737260275660661"><ele>873.0</ele><time>2026-04-26T09:31:15.999Z</time></trkpt><trkpt lat="40.11667245736424" lon="15.737289744377938"><ele>873.0</ele><time>2026-04-26T09:31:16.999Z</time></trkpt><trkpt lat="40.116595207513775" lon="15.737323106397318"><ele>873.0</ele><time>2026-04-26T09:31:17.999Z</time></trkpt><trkpt lat="40.11651798950146" lon="15.737378279890844"><ele>873.0</ele><time>2026-04-26T09:31:18.999Z</time></trkpt><trkpt lat="40.11642326323114" lon="15.737490394713623"><ele>873.8</ele><time>2026-04-26T09:31:19.999Z</time></trkpt><trkpt lat="40.11633160295795" lon="15.737581021657558"><ele>874.5999999999999</ele><time>2026-04-26T09:31:20.999Z</time></trkpt><trkpt lat="40.11623923841964" lon="15.737642854617041"><ele>875.4000000000001</ele><time>2026-04-26T09:31:21.999Z</time></trkpt><trkpt lat="40.116140244737885" lon="15.73770839086149"><ele>876.2</ele><time>2026-04-26T09:31:22.999Z</time></trkpt><trkpt lat="40.11604385321773" lon="15.737790039131083"><ele>877.0</ele><time>2026-04-26T09:31:23.999Z</time></trkpt><trkpt lat="40.115983306704464" lon="15.737879500365"><ele>874.6</ele><time>2026-04-26T09:31:24.999Z</time></trkpt><trkpt lat="40.11593479487424" lon="15.737988413038853"><ele>872.2</ele><time>2026-04-26T09:31:25.999Z</time></trkpt><trkpt lat="40.11589035541006" lon="15.738132642668601"><ele>869.8</ele><time>2026-04-26T09:31:26.999Z</time></trkpt><trkpt lat="40.11585209090883" lon="15.738283268513515"><ele>867.4</ele><time>2026-04-26T09:31:27.999Z</time></trkpt><trkpt lat="40.1158395277145" lon="15.738401900788558"><ele>865.0</ele><time>2026-04-26T09:31:28.999Z</time></trkpt><trkpt lat="40.115870005232196" lon="15.738515131449137"><ele>861.4999999999999</ele><time>2026-04-26T09:31:30.999Z</time></trkpt><trkpt lat="40.11591089187691" lon="15.738599841145762"><ele>858.0</ele><time>2026-04-26T09:31:31.999Z</time></trkpt><trkpt lat="40.115968835683994" lon="15.738687843521635"><ele>854.5</ele><time>2026-04-26T09:31:32.999Z</time></trkpt><trkpt lat="40.116044519619365" lon="15.73876812281244"><ele>851.0</ele><time>2026-04-26T09:31:33.999Z</time></trkpt><trkpt lat="40.11612041134207" lon="15.738821257167611"><ele>847.4999999999999</ele><time>2026-04-26T09:31:34.999Z</time></trkpt><trkpt lat="40.11617929657284" lon="15.738859354358327"><ele>844.0</ele><time>2026-04-26T09:31:35.999Z</time></trkpt><trkpt lat="40.11620424256786" lon="15.738939746579693"><ele>843.9999999999999</ele><time>2026-04-26T09:31:38.999Z</time></trkpt><trkpt lat="40.11613620244537" lon="15.739041390792986"><ele>844.0</ele><time>2026-04-26T09:31:40.998Z</time></trkpt><trkpt lat="40.11607240501117" lon="15.739059724698906"><ele>844.0</ele><time>2026-04-26T09:31:41.998Z</time></trkpt><trkpt lat="40.11600306093782" lon="15.73904789697095"><ele>844.0</ele><time>2026-04-26T09:31:42.998Z</time></trkpt><trkpt lat="40.115927435571884" lon="15.739026019337619"><ele>843.9999999999999</ele><time>2026-04-26T09:31:43.998Z</time></trkpt><trkpt lat="40.11584969139123" lon="15.739005963604546"><ele>844.0</ele><time>2026-04-26T09:31:44.998Z</time></trkpt><trkpt lat="40.11578850084414" lon="15.739055950516063"><ele>844.0</ele><time>2026-04-26T09:31:47.998Z</time></trkpt><trkpt lat="40.115819186845464" lon="15.739130325439373"><ele>844.0</ele><time>2026-04-26T09:31:50.998Z</time></trkpt><trkpt lat="40.11597482899718" lon="15.739275293361935"><ele>844.0</ele><time>2026-04-26T09:31:54Z</time></trkpt><trkpt lat="40.11602919396432" lon="15.739360865665821"><ele>844.0</ele><time>2026-04-26T09:31:55Z</time></trkpt><trkpt lat="40.11610209396574" lon="15.739456193306477"><ele>844.0</ele><time>2026-04-26T09:31:56Z</time></trkpt><trkpt lat="40.116159730857724" lon="15.739528076139827"><ele>841.2</ele><time>2026-04-26T09:31:57Z</time></trkpt><trkpt lat="40.11625653343252" lon="15.739581564567748"><ele>838.4000000000001</ele><time>2026-04-26T09:31:59Z</time></trkpt><trkpt lat="40.11635032423697" lon="15.739570831803398"><ele>835.6</ele><time>2026-04-26T09:32:01Z</time></trkpt><trkpt lat="40.116455938576" lon="15.739500073037394"><ele>832.8</ele><time>2026-04-26T09:32:03Z</time></trkpt><trkpt lat="40.116524275963265" lon="15.73943522666457"><ele>830.0</ele><time>2026-04-26T09:32:04Z</time></trkpt><trkpt lat="40.116600513375644" lon="15.739361799138958"><ele>830.0000000000001</ele><time>2026-04-26T09:32:05Z</time></trkpt><trkpt lat="40.11666831621457" lon="15.739296283272024"><ele>830.0</ele><time>2026-04-26T09:32:06Z</time></trkpt><trkpt lat="40.11673256307842" lon="15.739246410020531"><ele>830.0</ele><time>2026-04-26T09:32:07Z</time></trkpt><trkpt lat="40.116789396191066" lon="15.739206663919026"><ele>830.0</ele><time>2026-04-26T09:32:08Z</time></trkpt><trkpt lat="40.116881591215346" lon="15.739165553267515"><ele>830.0000000000001</ele><time>2026-04-26T09:32:10Z</time></trkpt><trkpt lat="40.116926082502424" lon="15.739106763198203"><ele>830.0</ele><time>2026-04-26T09:32:11Z</time></trkpt><trkpt lat="40.11697197414419" lon="15.739024976878019"><ele>830.0</ele><time>2026-04-26T09:32:12Z</time></trkpt><trkpt lat="40.11702882230592" lon="15.738932508585693"><ele>830.0</ele><time>2026-04-26T09:32:13Z</time></trkpt><trkpt lat="40.11708691959829" lon="15.738846796848078"><ele>830.0</ele><time>2026-04-26T09:32:14Z</time></trkpt><trkpt lat="40.11721988907383" lon="15.738757475122723"><ele>830.0</ele><time>2026-04-26T09:32:16Z</time></trkpt><trkpt lat="40.11732263591542" lon="15.738714100599232"><ele>830.0</ele><time>2026-04-26T09:32:17Z</time></trkpt><trkpt lat="40.11740959045628" lon="15.738669683835411"><ele>829.1666666666667</ele><time>2026-04-26T09:32:18Z</time></trkpt><trkpt lat="40.11749863926636" lon="15.738630322521768"><ele>828.3333333333334</ele><time>2026-04-26T09:32:19Z</time></trkpt><trkpt lat="40.11757802447833" lon="15.738588477258666"><ele>827.5</ele><time>2026-04-26T09:32:20Z</time></trkpt><trkpt lat="40.11769132721106" lon="15.738511151099525"><ele>826.6666666666667</ele><time>2026-04-26T09:32:22Z</time></trkpt><trkpt lat="40.11775775809439" lon="15.738476484242982"><ele>825.8333333333334</ele><time>2026-04-26T09:32:23Z</time></trkpt><trkpt lat="40.117822821417704" lon="15.738477644018094"><ele>825.0</ele><time>2026-04-26T09:32:24Z</time></trkpt><trkpt lat="40.11788767140565" lon="15.738530345576253"><ele>818.6</ele><time>2026-04-26T09:32:26Z</time></trkpt><trkpt lat="40.11785484638104" lon="15.738620123495517"><ele>812.2</ele><time>2026-04-26T09:32:29Z</time></trkpt><trkpt lat="40.11779845490959" lon="15.738660246513982"><ele>805.8</ele><time>2026-04-26T09:32:31.999Z</time></trkpt><trkpt lat="40.11768736116771" lon="15.738779386697859"><ele>799.4</ele><time>2026-04-26T09:32:32.999Z</time></trkpt><trkpt lat="40.1176130168462" lon="15.738899148193132"><ele>793.0</ele><time>2026-04-26T09:32:33.999Z</time></trkpt><trkpt lat="40.11753604228862" lon="15.739023771220573"><ele>793.0</ele><time>2026-04-26T09:32:34.999Z</time></trkpt><trkpt lat="40.11747412676496" lon="15.739153998643367"><ele>793.0</ele><time>2026-04-26T09:32:35.999Z</time></trkpt><trkpt lat="40.11743151819277" lon="15.739277698108383"><ele>793.0</ele><time>2026-04-26T09:32:36.999Z</time></trkpt><trkpt lat="40.117395845974066" lon="15.739405683300152"><ele>793.0</ele><time>2026-04-26T09:32:37.999Z</time></trkpt><trkpt lat="40.11737095812585" lon="15.739525139246322"><ele>793.0</ele><time>2026-04-26T09:32:38.999Z</time></trkpt><trkpt lat="40.117354321016585" lon="15.739634688540571"><ele>794.4</ele><time>2026-04-26T09:32:39.999Z</time></trkpt><trkpt lat="40.117339398582565" lon="15.739740548113664"><ele>795.8</ele><time>2026-04-26T09:32:40.999Z</time></trkpt><trkpt lat="40.11732920521315" lon="15.739833192021623"><ele>797.2</ele><time>2026-04-26T09:32:41.999Z</time></trkpt><trkpt lat="40.11729274484454" lon="15.739951090384816"><ele>798.6</ele><time>2026-04-26T09:32:43.999Z</time></trkpt><trkpt lat="40.117189635140775" lon="15.740058480598641"><ele>800.0</ele><time>2026-04-26T09:32:45.999Z</time></trkpt><trkpt lat="40.11711764194782" lon="15.740131115436396"><ele>800.0000000000001</ele><time>2026-04-26T09:32:46.999Z</time></trkpt><trkpt lat="40.11706320987413" lon="15.740212992887573"><ele>800.0</ele><time>2026-04-26T09:32:47.999Z</time></trkpt><trkpt lat="40.117032472632495" lon="15.74030047708227"><ele>800.0</ele><time>2026-04-26T09:32:48.999Z</time></trkpt><trkpt lat="40.117008490932704" lon="15.740387071121962"><ele>800.0</ele><time>2026-04-26T09:32:49.999Z</time></trkpt><trkpt lat="40.117026650510205" lon="15.740485459906305"><ele>800.0000000000001</ele><time>2026-04-26T09:32:51.999Z</time></trkpt><trkpt lat="40.11712870086014" lon="15.740444264856444"><ele>800.0</ele><time>2026-04-26T09:32:54.999Z</time></trkpt><trkpt lat="40.11720028089586" lon="15.740370843373764"><ele>792.6</ele><time>2026-04-26T09:32:55.999Z</time></trkpt><trkpt lat="40.117326336628864" lon="15.740309011498002"><ele>785.2</ele><time>2026-04-26T09:32:57.999Z</time></trkpt><trkpt lat="40.11743879037462" lon="15.740266194627235"><ele>777.8</ele><time>2026-04-26T09:32:58.999Z</time></trkpt><trkpt lat="40.11752079479872" lon="15.740211375380534"><ele>770.4</ele><time>2026-04-26T09:32:59.999Z</time></trkpt><trkpt lat="40.11758842480533" lon="15.740144097318646"><ele>763.0</ele><time>2026-04-26T09:33:00.999Z</time></trkpt><trkpt lat="40.11764362391589" lon="15.740054829115913"><ele>763.0</ele><time>2026-04-26T09:33:01.999Z</time></trkpt><trkpt lat="40.117708006406374" lon="15.739980280117091"><ele>763.0</ele><time>2026-04-26T09:33:02.999Z</time></trkpt><trkpt lat="40.11777407917679" lon="15.739925036451865"><ele>763.0</ele><time>2026-04-26T09:33:03.999Z</time></trkpt><trkpt lat="40.1178531343825" lon="15.739867733829989"><ele>763.0</ele><time>2026-04-26T09:33:04.999Z</time></trkpt><trkpt lat="40.11795588048692" lon="15.739802688661113"><ele>763.0</ele><time>2026-04-26T09:33:05.999Z</time></trkpt><trkpt lat="40.11806471031907" lon="15.73974521662487"><ele>763.0</ele><time>2026-04-26T09:33:06.999Z</time></trkpt><trkpt lat="40.118168997337385" lon="15.7396842592152"><ele>763.0</ele><time>2026-04-26T09:33:07.999Z</time></trkpt><trkpt lat="40.118256240680054" lon="15.7396348967152"><ele>763.0</ele><time>2026-04-26T09:33:08.999Z</time></trkpt><trkpt lat="40.11836425720756" lon="15.739656460953665"><ele>763.0</ele><time>2026-04-26T09:33:10.999Z</time></trkpt><trkpt lat="40.11830669186741" lon="15.73974096820602"><ele>763.0</ele><time>2026-04-26T09:33:13.999Z</time></trkpt><trkpt lat="40.11821651283262" lon="15.739873920676734"><ele>763.0</ele><time>2026-04-26T09:33:15.999Z</time></trkpt><trkpt lat="40.11812170170439" lon="15.739982025409075"><ele>763.0</ele><time>2026-04-26T09:33:16.999Z</time></trkpt><trkpt lat="40.11797820116028" lon="15.740121292373836"><ele>763.0</ele><time>2026-04-26T09:33:17.999Z</time></trkpt><trkpt lat="40.11784978976531" lon="15.7402969051147"><ele>758.0</ele><time>2026-04-26T09:33:18.999Z</time></trkpt><trkpt lat="40.11780977407305" lon="15.740424708571739"><ele>753.0</ele><time>2026-04-26T09:33:19.999Z</time></trkpt><trkpt lat="40.11776118492912" lon="15.740577418595713"><ele>748.0</ele><time>2026-04-26T09:33:20.999Z</time></trkpt><trkpt lat="40.11772052664489" lon="15.740688858720867"><ele>743.0</ele><time>2026-04-26T09:33:21.999Z</time></trkpt><trkpt lat="40.11768040145582" lon="15.740755559532648"><ele>738.0</ele><time>2026-04-26T09:33:22.999Z</time></trkpt><trkpt lat="40.117617157044734" lon="15.740809768629369"><ele>738.0</ele><time>2026-04-26T09:33:23.999Z</time></trkpt><trkpt lat="40.11750419065015" lon="15.740884662402685"><ele>738.0</ele><time>2026-04-26T09:33:24.999Z</time></trkpt><trkpt lat="40.11740188616645" lon="15.74094779793827"><ele>738.0</ele><time>2026-04-26T09:33:25.999Z</time></trkpt><trkpt lat="40.117339827445896" lon="15.741035242356364"><ele>738.0</ele><time>2026-04-26T09:33:26.999Z</time></trkpt><trkpt lat="40.117271349623735" lon="15.741141065623054"><ele>738.0</ele><time>2026-04-26T09:33:27.999Z</time></trkpt><trkpt lat="40.117188842070966" lon="15.741219802311624"><ele>734.25</ele><time>2026-04-26T09:33:28.999Z</time></trkpt><trkpt lat="40.11710954263586" lon="15.741268419928156"><ele>730.5</ele><time>2026-04-26T09:33:29.999Z</time></trkpt><trkpt lat="40.11699942157881" lon="15.741317661388898"><ele>726.75</ele><time>2026-04-26T09:33:30.999Z</time></trkpt><trkpt lat="40.11686573992924" lon="15.741391005934098"><ele>723.0</ele><time>2026-04-26T09:33:31.999Z</time></trkpt><trkpt lat="40.11675615333493" lon="15.74147108923472"><ele>723.0</ele><time>2026-04-26T09:33:32.999Z</time></trkpt><trkpt lat="40.11667348091239" lon="15.74153373388229"><ele>723.0</ele><time>2026-04-26T09:33:33.999Z</time></trkpt><trkpt lat="40.11660898363539" lon="15.741576854094019"><ele>723.0</ele><time>2026-04-26T09:33:34.999Z</time></trkpt><trkpt lat="40.116517025573685" lon="15.741658551677093"><ele>723.0</ele><time>2026-04-26T09:33:36.999Z</time></trkpt><trkpt lat="40.11646196781613" lon="15.741713980556664"><ele>723.0</ele><time>2026-04-26T09:33:37.999Z</time></trkpt><trkpt lat="40.11639604005992" lon="15.741779202116684"><ele>723.0</ele><time>2026-04-26T09:33:38.999Z</time></trkpt><trkpt lat="40.11634339135847" lon="15.741827327830492"><ele>722.4</ele><time>2026-04-26T09:33:39.999Z</time></trkpt><trkpt lat="40.11627625699088" lon="15.741879314088596"><ele>721.8</ele><time>2026-04-26T09:33:41.999Z</time></trkpt><trkpt lat="40.11616098525023" lon="15.741942128487839"><ele>721.2</ele><time>2026-04-26T09:34:38Z</time></trkpt><trkpt lat="40.11605382831491" lon="15.741943844592347"><ele>720.6</ele><time>2026-04-26T09:34:38.999Z</time></trkpt><trkpt lat="40.11593130332925" lon="15.741950225450879"><ele>720.0</ele><time>2026-04-26T09:34:39.999Z</time></trkpt><trkpt lat="40.11580413357214" lon="15.741908681835136"><ele>714.6</ele><time>2026-04-26T09:34:40.999Z</time></trkpt><trkpt lat="40.11567568072709" lon="15.741916817173164"><ele>709.2</ele><time>2026-04-26T09:34:41.999Z</time></trkpt><trkpt lat="40.11555768230849" lon="15.741925228799797"><ele>703.8</ele><time>2026-04-26T09:34:42.999Z</time></trkpt><trkpt lat="40.11545413907405" lon="15.741937694683811"><ele>698.4</ele><time>2026-04-26T09:34:43.999Z</time></trkpt><trkpt lat="40.11536703634016" lon="15.741954151736275"><ele>693.0</ele><time>2026-04-26T09:34:44.999Z</time></trkpt><trkpt lat="40.11523906555017" lon="15.742012572042281"><ele>693.0</ele><time>2026-04-26T09:34:45.999Z</time></trkpt><trkpt lat="40.11511854440558" lon="15.742107850455984"><ele>693.0</ele><time>2026-04-26T09:34:46.999Z</time></trkpt><trkpt lat="40.115009036984326" lon="15.742155183773267"><ele>693.0</ele><time>2026-04-26T09:34:47.999Z</time></trkpt><trkpt lat="40.11490576456897" lon="15.742199369793392"><ele>693.0</ele><time>2026-04-26T09:34:48.999Z</time></trkpt><trkpt lat="40.11480427873127" lon="15.74227619015536"><ele>691.5</ele><time>2026-04-26T09:34:49.999Z</time></trkpt><trkpt lat="40.11469154605569" lon="15.742331972614016"><ele>690.0</ele><time>2026-04-26T09:34:50.999Z</time></trkpt><trkpt lat="40.11458248959392" lon="15.742420050714118"><ele>688.5</ele><time>2026-04-26T09:34:51.999Z</time></trkpt><trkpt lat="40.11449413815256" lon="15.742506743308235"><ele>687.0</ele><time>2026-04-26T09:34:52.999Z</time></trkpt><trkpt lat="40.11437436461921" lon="15.742514080937227"><ele>687.0</ele><time>2026-04-26T09:34:53.999Z</time></trkpt><trkpt lat="40.11427592250421" lon="15.74257834216511"><ele>687.0</ele><time>2026-04-26T09:34:54.999Z</time></trkpt><trkpt lat="40.114212797100826" lon="15.742704260045187"><ele>687.0</ele><time>2026-04-26T09:34:55.999Z</time></trkpt><trkpt lat="40.1141435806141" lon="15.742759917996974"><ele>687.0</ele><time>2026-04-26T09:34:56.999Z</time></trkpt><trkpt lat="40.11407687211483" lon="15.742762475732304"><ele>687.0</ele><time>2026-04-26T09:34:57.999Z</time></trkpt><trkpt lat="40.11396708041143" lon="15.742735007911337"><ele>683.0</ele><time>2026-04-26T09:34:58.999Z</time></trkpt><trkpt lat="40.11380928935675" lon="15.742753005560937"><ele>679.0</ele><time>2026-04-26T09:34:59.999Z</time></trkpt><trkpt lat="40.113639549935115" lon="15.742776094029926"><ele>675.0</ele><time>2026-04-26T09:35:00.999Z</time></trkpt><trkpt lat="40.113507086200386" lon="15.742801418491808"><ele>675.0</ele><time>2026-04-26T09:35:01.999Z</time></trkpt><trkpt lat="40.113411017833094" lon="15.74282717258077"><ele>675.0</ele><time>2026-04-26T09:35:02.999Z</time></trkpt><trkpt lat="40.11331837838456" lon="15.742916171473572"><ele>675.0</ele><time>2026-04-26T09:35:03.999Z</time></trkpt><trkpt lat="40.11321315777961" lon="15.74300097818311"><ele>675.0</ele><time>2026-04-26T09:35:04.999Z</time></trkpt><trkpt lat="40.11312742611079" lon="15.743074171349386"><ele>675.0</ele><time>2026-04-26T09:35:05.999Z</time></trkpt><trkpt lat="40.11303309203241" lon="15.74313451977191"><ele>672.2</ele><time>2026-04-26T09:35:06.999Z</time></trkpt><trkpt lat="40.112918242203854" lon="15.743230072438127"><ele>669.4</ele><time>2026-04-26T09:35:07.999Z</time></trkpt><trkpt lat="40.11281198029035" lon="15.743319663017907"><ele>666.5999999999999</ele><time>2026-04-26T09:35:08.999Z</time></trkpt><trkpt lat="40.11273833553303" lon="15.743368330418813"><ele>663.8</ele><time>2026-04-26T09:35:09.999Z</time></trkpt><trkpt lat="40.11266468171583" lon="15.743406895654118"><ele>661.0</ele><time>2026-04-26T09:35:10.999Z</time></trkpt><trkpt lat="40.11255837743345" lon="15.74343436326029"><ele>661.0</ele><time>2026-04-26T09:35:11.999Z</time></trkpt><trkpt lat="40.112463667323205" lon="15.743455150939347"><ele>661.0</ele><time>2026-04-26T09:35:12.999Z</time></trkpt><trkpt lat="40.11237461920512" lon="15.743487768239714"><ele>661.0</ele><time>2026-04-26T09:35:13.999Z</time></trkpt><trkpt lat="40.1122518519359" lon="15.743587907277197"><ele>661.0</ele><time>2026-04-26T09:35:14.999Z</time></trkpt><trkpt lat="40.11214836879211" lon="15.743713287233673"><ele>657.5999999999999</ele><time>2026-04-26T09:35:15.999Z</time></trkpt><trkpt lat="40.11205389385717" lon="15.7437866996506"><ele>654.2</ele><time>2026-04-26T09:35:16.999Z</time></trkpt><trkpt lat="40.11195889765439" lon="15.743791356641982"><ele>650.8</ele><time>2026-04-26T09:35:17.999Z</time></trkpt><trkpt lat="40.11187727714426" lon="15.743852856154477"><ele>647.4000000000001</ele><time>2026-04-26T09:35:18.999Z</time></trkpt><trkpt lat="40.111796794470166" lon="15.743921620401895"><ele>644.0</ele><time>2026-04-26T09:35:19.999Z</time></trkpt><trkpt lat="40.1117373956043" lon="15.744011166475655"><ele>644.0</ele><time>2026-04-26T09:35:21.999Z</time></trkpt><trkpt lat="40.11169813353533" lon="15.744103711659085"><ele>644.0</ele><time>2026-04-26T09:35:24.999Z</time></trkpt><trkpt lat="40.11167621390137" lon="15.744227026466383"><ele>644.0</ele><time>2026-04-26T09:35:25.999Z</time></trkpt><trkpt lat="40.1116514141501" lon="15.744383985748795"><ele>644.0</ele><time>2026-04-26T09:35:26.999Z</time></trkpt><trkpt lat="40.11161292634883" lon="15.74451407630519"><ele>644.0</ele><time>2026-04-26T09:35:27.999Z</time></trkpt><trkpt lat="40.11156939602826" lon="15.74462874146515"><ele>642.8000000000001</ele><time>2026-04-26T09:35:28.999Z</time></trkpt><trkpt lat="40.11150421948023" lon="15.744720664588025"><ele>641.6</ele><time>2026-04-26T09:35:29.999Z</time></trkpt><trkpt lat="40.11141533978004" lon="15.744768786265274"><ele>640.4</ele><time>2026-04-26T09:35:30.999Z</time></trkpt><trkpt lat="40.11132194986496" lon="15.744816069371133"><ele>639.2</ele><time>2026-04-26T09:35:31.999Z</time></trkpt><trkpt lat="40.11122645869695" lon="15.744854697338898"><ele>638.0</ele><time>2026-04-26T09:35:32.999Z</time></trkpt><trkpt lat="40.111134618083106" lon="15.744894899095321"><ele>638.0</ele><time>2026-04-26T09:35:33.999Z</time></trkpt><trkpt lat="40.11105701572611" lon="15.744943555811828"><ele>638.0</ele><time>2026-04-26T09:35:34.999Z</time></trkpt><trkpt lat="40.111002361249156" lon="15.744992824341097"><ele>638.0</ele><time>2026-04-26T09:35:35.999Z</time></trkpt><trkpt lat="40.1109618383861" lon="15.74506197421618"><ele>638.0</ele><time>2026-04-26T09:35:37.999Z</time></trkpt><trkpt lat="40.11095757471813" lon="15.745170913521003"><ele>638.0</ele><time>2026-04-26T09:37:08.999Z</time></trkpt><trkpt lat="40.110899624162045" lon="15.745246878402742"><ele>638.0</ele><time>2026-04-26T09:37:09.999Z</time></trkpt><trkpt lat="40.11082721568585" lon="15.745336326512861"><ele>636.4</ele><time>2026-04-26T09:37:10.999Z</time></trkpt><trkpt lat="40.110706921861755" lon="15.74536966526543"><ele>634.8</ele><time>2026-04-26T09:37:11.999Z</time></trkpt><trkpt lat="40.1106282378012" lon="15.745453807209259"><ele>633.2</ele><time>2026-04-26T09:37:12.999Z</time></trkpt><trkpt lat="40.11054754550667" lon="15.745539081221567"><ele>631.6</ele><time>2026-04-26T09:37:13.999Z</time></trkpt><trkpt lat="40.11046811455944" lon="15.745628737624672"><ele>630.0</ele><time>2026-04-26T09:37:14.999Z</time></trkpt><trkpt lat="40.11039300701245" lon="15.745732016268212"><ele>630.0</ele><time>2026-04-26T09:37:15.999Z</time></trkpt><trkpt lat="40.1103390683509" lon="15.745805553578842"><ele>630.0</ele><time>2026-04-26T09:37:16.999Z</time></trkpt><trkpt lat="40.110285812141015" lon="15.745866561344357"><ele>630.0</ele><time>2026-04-26T09:37:17.999Z</time></trkpt><trkpt lat="40.110224726438695" lon="15.745908897545643"><ele>630.0</ele><time>2026-04-26T09:37:18.999Z</time></trkpt><trkpt lat="40.11016057075956" lon="15.745958291942921"><ele>630.0</ele><time>2026-04-26T09:37:19.999Z</time></trkpt><trkpt lat="40.11011011403467" lon="15.746016802879229"><ele>630.0</ele><time>2026-04-26T09:37:20.999Z</time></trkpt><trkpt lat="40.110063474339704" lon="15.746090269224084"><ele>630.0</ele><time>2026-04-26T09:37:21.999Z</time></trkpt><trkpt lat="40.11002077663507" lon="15.74621628626625"><ele>631.5</ele><time>2026-04-26T09:37:22.999Z</time></trkpt><trkpt lat="40.10997586133807" lon="15.746336943849853"><ele>633.0</ele><time>2026-04-26T09:37:23.999Z</time></trkpt><trkpt lat="40.10993257183524" lon="15.746429522087823"><ele>634.5</ele><time>2026-04-26T09:37:24.999Z</time></trkpt><trkpt lat="40.10988593386459" lon="15.746513139840403"><ele>636.0</ele><time>2026-04-26T09:37:25.999Z</time></trkpt><trkpt lat="40.1098371460821" lon="15.746594266309655"><ele>637.5</ele><time>2026-04-26T09:37:26.999Z</time></trkpt><trkpt lat="40.10977473191494" lon="15.746688535332614"><ele>639.0</ele><time>2026-04-26T09:37:27.999Z</time></trkpt><trkpt lat="40.109701697844834" lon="15.746776203840087"><ele>635.1666666666666</ele><time>2026-04-26T09:37:28.999Z</time></trkpt><trkpt lat="40.10962346491138" lon="15.746855771997213"><ele>631.3333333333334</ele><time>2026-04-26T09:37:29.999Z</time></trkpt><trkpt lat="40.10954824128379" lon="15.746925737758351"><ele>627.5</ele><time>2026-04-26T09:37:30.999Z</time></trkpt><trkpt lat="40.10947149552395" lon="15.746993131398348"><ele>623.6666666666667</ele><time>2026-04-26T09:37:31.999Z</time></trkpt><trkpt lat="40.109402107251505" lon="15.747051446784603"><ele>619.8333333333334</ele><time>2026-04-26T09:37:32.999Z</time></trkpt><trkpt lat="40.10933278068662" lon="15.747111456731284"><ele>616.0</ele><time>2026-04-26T09:37:33.999Z</time></trkpt><trkpt lat="40.1092783107842" lon="15.74717124184827"><ele>616.0</ele><time>2026-04-26T09:37:34.999Z</time></trkpt><trkpt lat="40.10921064694363" lon="15.747275666894883"><ele>616.0</ele><time>2026-04-26T09:37:36.999Z</time></trkpt><trkpt lat="40.10910578470375" lon="15.747184441363833"><ele>616.0</ele><time>2026-04-26T09:37:40.999Z</time></trkpt><trkpt lat="40.109031636205295" lon="15.747072333022262"><ele>616.0</ele><time>2026-04-26T09:37:41.999Z</time></trkpt><trkpt lat="40.108952557899045" lon="15.746956698883922"><ele>614.25</ele><time>2026-04-26T09:37:42.999Z</time></trkpt><trkpt lat="40.108871360120546" lon="15.74684210273941"><ele>612.5</ele><time>2026-04-26T09:37:43.999Z</time></trkpt><trkpt lat="40.10877342795254" lon="15.746737526077943"><ele>610.75</ele><time>2026-04-26T09:37:44.999Z</time></trkpt><trkpt lat="40.108688888251805" lon="15.746621579452968"><ele>609.0</ele><time>2026-04-26T09:37:45.999Z</time></trkpt><trkpt lat="40.1085971638604" lon="15.746512501659373"><ele>609.0</ele><time>2026-04-26T09:37:46.999Z</time></trkpt><trkpt lat="40.108504044016435" lon="15.74641161095168"><ele>609.0</ele><time>2026-04-26T09:37:47.999Z</time></trkpt><trkpt lat="40.1083951645993" lon="15.746298174535848"><ele>609.0</ele><time>2026-04-26T09:37:48.999Z</time></trkpt><trkpt lat="40.10826319543107" lon="15.746169764802932"><ele>609.0</ele><time>2026-04-26T09:37:49.999Z</time></trkpt><trkpt lat="40.108125641867716" lon="15.746044970829578"><ele>610.0</ele><time>2026-04-26T09:37:50.999Z</time></trkpt><trkpt lat="40.10800338788633" lon="15.745942296567387"><ele>611.0</ele><time>2026-04-26T09:37:51.999Z</time></trkpt><trkpt lat="40.107882027721864" lon="15.745843831719913"><ele>612.0</ele><time>2026-04-26T09:37:52.999Z</time></trkpt><trkpt lat="40.107759764188984" lon="15.745751687832032"><ele>613.0</ele><time>2026-04-26T09:37:53.999Z</time></trkpt><trkpt lat="40.107629126433366" lon="15.745665710961674"><ele>613.0</ele><time>2026-04-26T09:37:54.998Z</time></trkpt><trkpt lat="40.10748952619275" lon="15.745585619359115"><ele>613.0</ele><time>2026-04-26T09:37:55.998Z</time></trkpt><trkpt lat="40.107341970836835" lon="15.745515181037584"><ele>613.0</ele><time>2026-04-26T09:37:56.998Z</time></trkpt><trkpt lat="40.107196649381" lon="15.745459691935334"><ele>610.0</ele><time>2026-04-26T09:37:57.998Z</time></trkpt><trkpt lat="40.10705136066501" lon="15.745418450878331"><ele>607.0</ele><time>2026-04-26T09:37:58.998Z</time></trkpt><trkpt lat="40.10690189815254" lon="15.745390165089578"><ele>604.0</ele><time>2026-04-26T09:37:59.998Z</time></trkpt><trkpt lat="40.10675270778604" lon="15.745372578547144"><ele>601.0</ele><time>2026-04-26T09:38:00.998Z</time></trkpt><trkpt lat="40.10660040463943" lon="15.7453657216648"><ele>600.75</ele><time>2026-04-26T09:38:01.998Z</time></trkpt><trkpt lat="40.10645131033395" lon="15.74536860221674"><ele>600.5</ele><time>2026-04-26T09:38:02.998Z</time></trkpt><trkpt lat="40.10630573991586" lon="15.745372529335516"><ele>600.25</ele><time>2026-04-26T09:38:03.998Z</time></trkpt><trkpt lat="40.10615404206692" lon="15.745377675994414"><ele>600.0</ele><time>2026-04-26T09:38:04.998Z</time></trkpt><trkpt lat="40.105995502610995" lon="15.745375273613474"><ele>600.0</ele><time>2026-04-26T09:38:05.998Z</time></trkpt><trkpt lat="40.1058369227756" lon="15.745359548378927"><ele>600.0</ele><time>2026-04-26T09:38:06.998Z</time></trkpt><trkpt lat="40.105680823883745" lon="15.745327840108054"><ele>600.0</ele><time>2026-04-26T09:38:08Z</time></trkpt><trkpt lat="40.10553141655703" lon="15.745280651301922"><ele>602.3333333333334</ele><time>2026-04-26T09:38:09Z</time></trkpt><trkpt lat="40.10538086133049" lon="15.74522129614663"><ele>604.6666666666667</ele><time>2026-04-26T09:38:10Z</time></trkpt><trkpt lat="40.105231901268034" lon="15.74514943501509"><ele>607.0</ele><time>2026-04-26T09:38:11Z</time></trkpt><trkpt lat="40.10509968156069" lon="15.745069824755108"><ele>605.75</ele><time>2026-04-26T09:38:12Z</time></trkpt><trkpt lat="40.104975125430684" lon="15.744987943329"><ele>604.5</ele><time>2026-04-26T09:38:13Z</time></trkpt><trkpt lat="40.10483901762727" lon="15.744902433081243"><ele>603.25</ele><time>2026-04-26T09:38:14Z</time></trkpt><trkpt lat="40.104700650880524" lon="15.744814989535021"><ele>602.0</ele><time>2026-04-26T09:38:15Z</time></trkpt><trkpt lat="40.104560648653816" lon="15.7447287047901"><ele>602.0</ele><time>2026-04-26T09:38:16Z</time></trkpt><trkpt lat="40.10441864694967" lon="15.744645241481901"><ele>602.0</ele><time>2026-04-26T09:38:17Z</time></trkpt><trkpt lat="40.10427450512227" lon="15.74456648205308"><ele>602.0</ele><time>2026-04-26T09:38:18Z</time></trkpt><trkpt lat="40.104131116366425" lon="15.744487608469472"><ele>602.0</ele><time>2026-04-26T09:38:19Z</time></trkpt><trkpt lat="40.10398741090167" lon="15.74441727142572"><ele>602.0</ele><time>2026-04-26T09:38:20Z</time></trkpt><trkpt lat="40.103853642381836" lon="15.744359710177582"><ele>602.0</ele><time>2026-04-26T09:38:21Z</time></trkpt><trkpt lat="40.10373808699282" lon="15.74430413842894"><ele>602.0</ele><time>2026-04-26T09:38:22Z</time></trkpt><trkpt lat="40.103623205239" lon="15.744249331824768"><ele>602.0</ele><time>2026-04-26T09:38:23Z</time></trkpt><trkpt lat="40.10349379011151" lon="15.744192739811073"><ele>602.0</ele><time>2026-04-26T09:38:24Z</time></trkpt><trkpt lat="40.103354660596686" lon="15.74413553677014"><ele>602.0</ele><time>2026-04-26T09:38:25Z</time></trkpt><trkpt lat="40.10321126454933" lon="15.744079388553173"><ele>602.0</ele><time>2026-04-26T09:38:26Z</time></trkpt><trkpt lat="40.10306960451325" lon="15.744020655327024"><ele>601.25</ele><time>2026-04-26T09:38:27Z</time></trkpt><trkpt lat="40.10292897540826" lon="15.743958317193492"><ele>600.5</ele><time>2026-04-26T09:38:28Z</time></trkpt><trkpt lat="40.10279116087595" lon="15.743896621037575"><ele>599.75</ele><time>2026-04-26T09:38:29Z</time></trkpt><trkpt lat="40.1026460300005" lon="15.743829282687363"><ele>599.0</ele><time>2026-04-26T09:38:30Z</time></trkpt><trkpt lat="40.10249170828005" lon="15.743762533865832"><ele>598.6666666666666</ele><time>2026-04-26T09:38:31Z</time></trkpt><trkpt lat="40.10233434759952" lon="15.743699271726983"><ele>598.3333333333334</ele><time>2026-04-26T09:38:32Z</time></trkpt><trkpt lat="40.10217834900847" lon="15.74363978757709"><ele>598.0</ele><time>2026-04-26T09:38:33Z</time></trkpt><trkpt lat="40.10203283487342" lon="15.743581958002707"><ele>597.0</ele><time>2026-04-26T09:38:34Z</time></trkpt><trkpt lat="40.10189263066925" lon="15.74352189732602"><ele>596.0</ele><time>2026-04-26T09:38:35Z</time></trkpt><trkpt lat="40.10175865873754" lon="15.743450131096838"><ele>595.0</ele><time>2026-04-26T09:38:36Z</time></trkpt><trkpt lat="40.101625432507994" lon="15.74336332889637"><ele>594.0</ele><time>2026-04-26T09:38:37Z</time></trkpt><trkpt lat="40.10149028955967" lon="15.743265966519367"><ele>594.0</ele><time>2026-04-26T09:38:38Z</time></trkpt><trkpt lat="40.10135821085722" lon="15.74314679341317"><ele>594.0</ele><time>2026-04-26T09:38:39Z</time></trkpt><trkpt lat="40.101232431910375" lon="15.743007015263045"><ele>594.0</ele><time>2026-04-26T09:38:40Z</time></trkpt><trkpt lat="40.1011117818951" lon="15.742852778647261"><ele>598.0</ele><time>2026-04-26T09:38:41Z</time></trkpt><trkpt lat="40.100992397925445" lon="15.742697989903638"><ele>602.0</ele><time>2026-04-26T09:38:42Z</time></trkpt><trkpt lat="40.10089621633625" lon="15.742513356262528"><ele>606.0</ele><time>2026-04-26T09:38:43Z</time></trkpt><trkpt lat="40.100783468886945" lon="15.742348205051627"><ele>600.3333333333334</ele><time>2026-04-26T09:38:44Z</time></trkpt><trkpt lat="40.10068678640382" lon="15.742165613661905"><ele>594.6666666666667</ele><time>2026-04-26T09:38:45Z</time></trkpt><trkpt lat="40.10059743220068" lon="15.741996913899836"><ele>589.0</ele><time>2026-04-26T09:38:45.999Z</time></trkpt><trkpt lat="40.10051065167495" lon="15.741824589205365"><ele>589.0</ele><time>2026-04-26T09:38:46.999Z</time></trkpt><trkpt lat="40.10042171457908" lon="15.74164162623547"><ele>589.0</ele><time>2026-04-26T09:38:47.999Z</time></trkpt><trkpt lat="40.10033273417346" lon="15.74145224618736"><ele>589.0</ele><time>2026-04-26T09:38:48.999Z</time></trkpt><trkpt lat="40.10026067952104" lon="15.741276401194769"><ele>589.0</ele><time>2026-04-26T09:38:49.999Z</time></trkpt><trkpt lat="40.10019894316205" lon="15.741107709556287"><ele>589.0</ele><time>2026-04-26T09:38:50.999Z</time></trkpt><trkpt lat="40.10013114925314" lon="15.740954689774853"><ele>589.0</ele><time>2026-04-26T09:38:51.999Z</time></trkpt><trkpt lat="40.10006114397851" lon="15.740811727612554"><ele>589.0</ele><time>2026-04-26T09:38:52.999Z</time></trkpt><trkpt lat="40.09998586299092" lon="15.740669707908754"><ele>585.0</ele><time>2026-04-26T09:38:53.999Z</time></trkpt><trkpt lat="40.09989504274039" lon="15.740522910814857"><ele>581.0</ele><time>2026-04-26T09:38:54.999Z</time></trkpt><trkpt lat="40.099787822138246" lon="15.740374819935102"><ele>577.0</ele><time>2026-04-26T09:38:55.999Z</time></trkpt><trkpt lat="40.09965605646492" lon="15.740233148858302"><ele>585.3333333333334</ele><time>2026-04-26T09:38:56.999Z</time></trkpt><trkpt lat="40.099501947236725" lon="15.740107511202597"><ele>593.6666666666666</ele><time>2026-04-26T09:38:57.999Z</time></trkpt><trkpt lat="40.099333246952554" lon="15.739996941652402"><ele>602.0</ele><time>2026-04-26T09:38:58.999Z</time></trkpt><trkpt lat="40.0991679702952" lon="15.739896891004609"><ele>600.3333333333333</ele><time>2026-04-26T09:38:59.999Z</time></trkpt><trkpt lat="40.09901709707098" lon="15.739812720074026"><ele>598.6666666666666</ele><time>2026-04-26T09:39:00.999Z</time></trkpt><trkpt lat="40.098874141640664" lon="15.739762446632133"><ele>597.0</ele><time>2026-04-26T09:39:01.999Z</time></trkpt><trkpt lat="40.09872465962684" lon="15.739735470031027"><ele>597.0</ele><time>2026-04-26T09:39:02.999Z</time></trkpt><trkpt lat="40.098562311586896" lon="15.739726604455472"><ele>597.0</ele><time>2026-04-26T09:39:03.999Z</time></trkpt><trkpt lat="40.09839243282283" lon="15.739738998422084"><ele>597.0</ele><time>2026-04-26T09:39:04.999Z</time></trkpt><trkpt lat="40.098225966767494" lon="15.739772047021411"><ele>598.0</ele><time>2026-04-26T09:39:05.999Z</time></trkpt><trkpt lat="40.098057083461704" lon="15.73979828627062"><ele>599.0</ele><time>2026-04-26T09:39:06.999Z</time></trkpt><trkpt lat="40.097882224251165" lon="15.739812326350615"><ele>600.0</ele><time>2026-04-26T09:39:07.999Z</time></trkpt><trkpt lat="40.09771207618515" lon="15.739833394211542"><ele>600.0</ele><time>2026-04-26T09:39:08.999Z</time></trkpt><trkpt lat="40.09755275175764" lon="15.739881504638209"><ele>600.0</ele><time>2026-04-26T09:39:09.999Z</time></trkpt><trkpt lat="40.097402437687414" lon="15.739954921495906"><ele>600.0</ele><time>2026-04-26T09:39:10.999Z</time></trkpt><trkpt lat="40.09725218512308" lon="15.740056753177837"><ele>598.3333333333334</ele><time>2026-04-26T09:39:11.999Z</time></trkpt><trkpt lat="40.09709816834552" lon="15.740156405032176"><ele>596.6666666666667</ele><time>2026-04-26T09:39:12.999Z</time></trkpt><trkpt lat="40.0969493221894" lon="15.74024468589166"><ele>595.0</ele><time>2026-04-26T09:39:13.999Z</time></trkpt><trkpt lat="40.09679807165241" lon="15.740320308507643"><ele>595.0</ele><time>2026-04-26T09:39:14.999Z</time></trkpt><trkpt lat="40.09663257445067" lon="15.740372131698754"><ele>595.0</ele><time>2026-04-26T09:39:15.999Z</time></trkpt><trkpt lat="40.096452732153345" lon="15.740387414508044"><ele>595.0</ele><time>2026-04-26T09:39:16.999Z</time></trkpt><trkpt lat="40.09627856328575" lon="15.740370032492061"><ele>598.0</ele><time>2026-04-26T09:39:17.999Z</time></trkpt><trkpt lat="40.0961111778825" lon="15.740340575558445"><ele>601.0</ele><time>2026-04-26T09:39:18.999Z</time></trkpt><trkpt lat="40.09595118845409" lon="15.740284307248377"><ele>604.0</ele><time>2026-04-26T09:39:19.999Z</time></trkpt><trkpt lat="40.09580797618318" lon="15.740190166181797"><ele>604.6666666666667</ele><time>2026-04-26T09:39:20.999Z</time></trkpt><trkpt lat="40.095664984345426" lon="15.740090654193926"><ele>605.3333333333334</ele><time>2026-04-26T09:39:21.999Z</time></trkpt><trkpt lat="40.09552392803627" lon="15.739972204298619"><ele>606.0</ele><time>2026-04-26T09:39:22.999Z</time></trkpt><trkpt lat="40.09539962967385" lon="15.739833092562685"><ele>606.0</ele><time>2026-04-26T09:39:23.999Z</time></trkpt><trkpt lat="40.09528435117107" lon="15.739685024759332"><ele>606.0</ele><time>2026-04-26T09:39:24.999Z</time></trkpt><trkpt lat="40.09518242808502" lon="15.739512554953727"><ele>606.0</ele><time>2026-04-26T09:39:25.999Z</time></trkpt><trkpt lat="40.09509672486331" lon="15.739328912897705"><ele>604.0</ele><time>2026-04-26T09:39:26.999Z</time></trkpt><trkpt lat="40.09502056532038" lon="15.739138620320695"><ele>602.0</ele><time>2026-04-26T09:39:27.999Z</time></trkpt><trkpt lat="40.09496028573942" lon="15.738946653942792"><ele>600.0</ele><time>2026-04-26T09:39:28.999Z</time></trkpt><trkpt lat="40.09488922559704" lon="15.738760476927608"><ele>594.3333333333334</ele><time>2026-04-26T09:39:29.999Z</time></trkpt><trkpt lat="40.094837936886094" lon="15.738565735159415"><ele>588.6666666666667</ele><time>2026-04-26T09:39:30.999Z</time></trkpt><trkpt lat="40.094781866303805" lon="15.738371182045606"><ele>583.0</ele><time>2026-04-26T09:39:31.999Z</time></trkpt><trkpt lat="40.09472512560624" lon="15.73817372305011"><ele>583.0</ele><time>2026-04-26T09:39:32.999Z</time></trkpt><trkpt lat="40.09466746532039" lon="15.737971811584396"><ele>583.0</ele><time>2026-04-26T09:39:33.999Z</time></trkpt><trkpt lat="40.0946085498826" lon="15.737768244561918"><ele>583.0</ele><time>2026-04-26T09:39:34.999Z</time></trkpt><trkpt lat="40.09454577625878" lon="15.737563358458752"><ele>583.3333333333334</ele><time>2026-04-26T09:39:35.999Z</time></trkpt><trkpt lat="40.09448610316344" lon="15.737359697781708"><ele>583.6666666666666</ele><time>2026-04-26T09:39:36.999Z</time></trkpt><trkpt lat="40.094426868620324" lon="15.737151425715005"><ele>584.0</ele><time>2026-04-26T09:39:37.999Z</time></trkpt><trkpt lat="40.09436916327978" lon="15.736935352149303"><ele>587.0</ele><time>2026-04-26T09:39:38.999Z</time></trkpt><trkpt lat="40.09430641842608" lon="15.736710091209378"><ele>590.0</ele><time>2026-04-26T09:39:39.999Z</time></trkpt><trkpt lat="40.09423894878729" lon="15.73648419626889"><ele>593.0</ele><time>2026-04-26T09:39:40.999Z</time></trkpt><trkpt lat="40.09417291016641" lon="15.736259686300075"><ele>593.0</ele><time>2026-04-26T09:39:41.999Z</time></trkpt><trkpt lat="40.094108658941785" lon="15.736036753320327"><ele>593.0</ele><time>2026-04-26T09:39:42.999Z</time></trkpt><trkpt lat="40.09404249401732" lon="15.735811858276756"><ele>593.0</ele><time>2026-04-26T09:39:43.999Z</time></trkpt><trkpt lat="40.09397406137179" lon="15.735578296814193"><ele>593.0</ele><time>2026-04-26T09:39:44.999Z</time></trkpt><trkpt lat="40.09390727115734" lon="15.735340235098386"><ele>593.0</ele><time>2026-04-26T09:39:45.999Z</time></trkpt><trkpt lat="40.093844973582655" lon="15.735103441879982"><ele>593.0</ele><time>2026-04-26T09:39:46.999Z</time></trkpt><trkpt lat="40.09377590981074" lon="15.734867636885356"><ele>596.0</ele><time>2026-04-26T09:39:47.999Z</time></trkpt><trkpt lat="40.09370497288116" lon="15.734639889951675"><ele>599.0</ele><time>2026-04-26T09:39:48.999Z</time></trkpt><trkpt lat="40.093648223729836" lon="15.734425098776741"><ele>602.0</ele><time>2026-04-26T09:39:49.999Z</time></trkpt><trkpt lat="40.09359064056237" lon="15.734213523760753"><ele>603.3333333333333</ele><time>2026-04-26T09:39:50.999Z</time></trkpt><trkpt lat="40.09353077075241" lon="15.734000338985846"><ele>604.6666666666666</ele><time>2026-04-26T09:39:51.999Z</time></trkpt><trkpt lat="40.093470136316114" lon="15.73378198204867"><ele>606.0</ele><time>2026-04-26T09:39:52.999Z</time></trkpt><trkpt lat="40.0934067933177" lon="15.73356204073999"><ele>606.6666666666666</ele><time>2026-04-26T09:39:53.999Z</time></trkpt><trkpt lat="40.09334204838691" lon="15.733343357832494"><ele>607.3333333333333</ele><time>2026-04-26T09:39:54.999Z</time></trkpt><trkpt lat="40.09327973545886" lon="15.733135821848075"><ele>608.0</ele><time>2026-04-26T09:39:55.999Z</time></trkpt><trkpt lat="40.093215295124686" lon="15.732934914720046"><ele>607.3333333333333</ele><time>2026-04-26T09:39:56.999Z</time></trkpt><trkpt lat="40.09314152893092" lon="15.732740006507589"><ele>606.6666666666666</ele><time>2026-04-26T09:39:57.999Z</time></trkpt><trkpt lat="40.093053649601984" lon="15.732566123072399"><ele>606.0</ele><time>2026-04-26T09:39:58.999Z</time></trkpt><trkpt lat="40.09294452649024" lon="15.732427393789855"><ele>606.0</ele><time>2026-04-26T09:39:59.999Z</time></trkpt><trkpt lat="40.092834303896446" lon="15.732280221329866"><ele>606.0</ele><time>2026-04-26T09:40:00.999Z</time></trkpt><trkpt lat="40.09270638312378" lon="15.7321525831593"><ele>606.0</ele><time>2026-04-26T09:40:01.999Z</time></trkpt><trkpt lat="40.09256250715418" lon="15.732040023175664"><ele>603.0</ele><time>2026-04-26T09:40:02.999Z</time></trkpt><trkpt lat="40.09240668696033" lon="15.731949691443171"><ele>600.0</ele><time>2026-04-26T09:40:03.999Z</time></trkpt><trkpt lat="40.09224552038287" lon="15.73189066363686"><ele>597.0</ele><time>2026-04-26T09:40:04.998Z</time></trkpt><trkpt lat="40.092083466291164" lon="15.731859364543777"><ele>597.0</ele><time>2026-04-26T09:40:05.998Z</time></trkpt><trkpt lat="40.09192565508185" lon="15.731844926579738"><ele>597.0</ele><time>2026-04-26T09:40:06.998Z</time></trkpt><trkpt lat="40.091774063900075" lon="15.73183912372404"><ele>597.0</ele><time>2026-04-26T09:40:07.998Z</time></trkpt><trkpt lat="40.09162765012029" lon="15.731830273358415"><ele>595.0</ele><time>2026-04-26T09:40:08.998Z</time></trkpt><trkpt lat="40.091487143605846" lon="15.7318159875059"><ele>593.0</ele><time>2026-04-26T09:40:09.998Z</time></trkpt><trkpt lat="40.09134930561122" lon="15.731803829640342"><ele>591.0</ele><time>2026-04-26T09:40:10.998Z</time></trkpt><trkpt lat="40.09121478876904" lon="15.73179045246578"><ele>589.0</ele><time>2026-04-26T09:40:11.998Z</time></trkpt><trkpt lat="40.09108535108929" lon="15.731766298131834"><ele>589.0</ele><time>2026-04-26T09:40:12.998Z</time></trkpt><trkpt lat="40.09095273103095" lon="15.731715317775027"><ele>589.0</ele><time>2026-04-26T09:40:14Z</time></trkpt><trkpt lat="40.09081813803064" lon="15.731642321504467"><ele>589.0</ele><time>2026-04-26T09:40:15Z</time></trkpt><trkpt lat="40.090681788372635" lon="15.731543798010275"><ele>589.0</ele><time>2026-04-26T09:40:16Z</time></trkpt><trkpt lat="40.09055137270589" lon="15.731429567294445"><ele>584.5</ele><time>2026-04-26T09:40:17Z</time></trkpt><trkpt lat="40.09042749698211" lon="15.731314891265814"><ele>580.0</ele><time>2026-04-26T09:40:18Z</time></trkpt><trkpt lat="40.09030522962809" lon="15.73121651107179"><ele>575.5</ele><time>2026-04-26T09:40:19Z</time></trkpt><trkpt lat="40.090182246904774" lon="15.731139507235001"><ele>571.0</ele><time>2026-04-26T09:40:20Z</time></trkpt><trkpt lat="40.090057791691535" lon="15.731075972567249"><ele>572.5</ele><time>2026-04-26T09:40:21Z</time></trkpt><trkpt lat="40.089930670792086" lon="15.731027578763157"><ele>574.0</ele><time>2026-04-26T09:40:22Z</time></trkpt><trkpt lat="40.08980701386584" lon="15.730989480678605"><ele>575.5</ele><time>2026-04-26T09:40:23Z</time></trkpt><trkpt lat="40.089683694903066" lon="15.730970916452883"><ele>577.0</ele><time>2026-04-26T09:40:24Z</time></trkpt><trkpt lat="40.089562645614336" lon="15.730976000147637"><ele>577.0</ele><time>2026-04-26T09:40:25Z</time></trkpt><trkpt lat="40.089447655024465" lon="15.730998061936809"><ele>577.0</ele><time>2026-04-26T09:40:26Z</time></trkpt><trkpt lat="40.08933834318136" lon="15.731036930143116"><ele>577.0</ele><time>2026-04-26T09:40:27Z</time></trkpt><trkpt lat="40.08923464440118" lon="15.731093647565867"><ele>577.0</ele><time>2026-04-26T09:40:28Z</time></trkpt><trkpt lat="40.08913807953542" lon="15.731165667264456"><ele>577.0</ele><time>2026-04-26T09:40:29Z</time></trkpt><trkpt lat="40.08904774534266" lon="15.731243521659016"><ele>577.0</ele><time>2026-04-26T09:40:30Z</time></trkpt><trkpt lat="40.08895878163662" lon="15.731323239015516"><ele>577.0</ele><time>2026-04-26T09:40:31Z</time></trkpt><trkpt lat="40.08887392766119" lon="15.731409297917411"><ele>577.0</ele><time>2026-04-26T09:40:32Z</time></trkpt><trkpt lat="40.088794682738595" lon="15.731499457674984"><ele>577.0</ele><time>2026-04-26T09:40:33Z</time></trkpt><trkpt lat="40.08871362309514" lon="15.731582342956079"><ele>577.0</ele><time>2026-04-26T09:40:34Z</time></trkpt><trkpt lat="40.08863008864278" lon="15.731654913052413"><ele>577.0</ele><time>2026-04-26T09:40:35Z</time></trkpt><trkpt lat="40.08853928299515" lon="15.731706501950239"><ele>577.0</ele><time>2026-04-26T09:40:36Z</time></trkpt><trkpt lat="40.088436191111256" lon="15.731717652241517"><ele>577.0</ele><time>2026-04-26T09:40:37Z</time></trkpt><trkpt lat="40.08832130194291" lon="15.73168181720529"><ele>577.0</ele><time>2026-04-26T09:40:38Z</time></trkpt><trkpt lat="40.0882080674284" lon="15.731603151068478"><ele>574.75</ele><time>2026-04-26T09:40:39Z</time></trkpt><trkpt lat="40.088100935053376" lon="15.731499470885844"><ele>572.5</ele><time>2026-04-26T09:40:40Z</time></trkpt><trkpt lat="40.08797952485335" lon="15.731406384576996"><ele>570.25</ele><time>2026-04-26T09:40:41Z</time></trkpt><trkpt lat="40.08784284400956" lon="15.731333259024556"><ele>568.0</ele><time>2026-04-26T09:40:42Z</time></trkpt><trkpt lat="40.087693291500976" lon="15.731273670347813"><ele>568.0</ele><time>2026-04-26T09:40:43Z</time></trkpt><trkpt lat="40.08752875708607" lon="15.731230837068376"><ele>568.0</ele><time>2026-04-26T09:40:44Z</time></trkpt><trkpt lat="40.08735713177088" lon="15.731202593107717"><ele>568.0</ele><time>2026-04-26T09:40:45Z</time></trkpt><trkpt lat="40.08717734109416" lon="15.731196239463989"><ele>568.6666666666667</ele><time>2026-04-26T09:40:46Z</time></trkpt><trkpt lat="40.08699518295428" lon="15.731188317838091"><ele>569.3333333333334</ele><time>2026-04-26T09:40:47Z</time></trkpt><trkpt lat="40.08681530010402" lon="15.731171321074171"><ele>570.0</ele><time>2026-04-26T09:40:48Z</time></trkpt><trkpt lat="40.08663887473414" lon="15.73114197315178"><ele>574.3333333333334</ele><time>2026-04-26T09:40:49Z</time></trkpt><trkpt lat="40.086467806654596" lon="15.731109702278184"><ele>578.6666666666667</ele><time>2026-04-26T09:40:49.999Z</time></trkpt><trkpt lat="40.08630292586306" lon="15.7310612954734"><ele>583.0</ele><time>2026-04-26T09:40:50.999Z</time></trkpt><trkpt lat="40.086137626147185" lon="15.731006656961927"><ele>584.3333333333334</ele><time>2026-04-26T09:40:51.999Z</time></trkpt><trkpt lat="40.085972442947046" lon="15.730945694515059"><ele>585.6666666666666</ele><time>2026-04-26T09:40:52.999Z</time></trkpt><trkpt lat="40.085808673264204" lon="15.730888919153129"><ele>587.0</ele><time>2026-04-26T09:40:53.999Z</time></trkpt><trkpt lat="40.085643695427045" lon="15.730827999161898"><ele>587.0</ele><time>2026-04-26T09:40:54.999Z</time></trkpt><trkpt lat="40.08548455472215" lon="15.730756874858494"><ele>587.0</ele><time>2026-04-26T09:40:55.999Z</time></trkpt><trkpt lat="40.08533019936224" lon="15.730669132552174"><ele>587.0</ele><time>2026-04-26T09:40:56.999Z</time></trkpt><trkpt lat="40.08518193587114" lon="15.730567948095487"><ele>587.0</ele><time>2026-04-26T09:40:57.999Z</time></trkpt><trkpt lat="40.08504358020089" lon="15.73046472146205"><ele>587.0</ele><time>2026-04-26T09:40:58.999Z</time></trkpt><trkpt lat="40.084915697759925" lon="15.730369713081878"><ele>587.0</ele><time>2026-04-26T09:40:59.999Z</time></trkpt><trkpt lat="40.08479775128255" lon="15.730280521149265"><ele>587.0</ele><time>2026-04-26T09:41:00.999Z</time></trkpt><trkpt lat="40.08469246300041" lon="15.730188216672486"><ele>588.4</ele><time>2026-04-26T09:41:01.999Z</time></trkpt><trkpt lat="40.08459614261097" lon="15.730093920294422"><ele>589.8000000000001</ele><time>2026-04-26T09:41:02.999Z</time></trkpt><trkpt lat="40.0845078788941" lon="15.730002590819586"><ele>591.2</ele><time>2026-04-26T09:41:03.999Z</time></trkpt><trkpt lat="40.08442717705787" lon="15.729915311082193"><ele>592.6</ele><time>2026-04-26T09:41:04.999Z</time></trkpt><trkpt lat="40.08436410733016" lon="15.72982995801415"><ele>594.0</ele><time>2026-04-26T09:41:05.999Z</time></trkpt><trkpt lat="40.08430353718062" lon="15.72975434928151"><ele>594.0</ele><time>2026-04-26T09:41:06.999Z</time></trkpt><trkpt lat="40.084265559071355" lon="15.729679721799146"><ele>594.0</ele><time>2026-04-26T09:41:07.999Z</time></trkpt><trkpt lat="40.08416285143694" lon="15.729915485566305"><ele>594.0</ele><time>2026-04-26T09:41:09.999Z</time></trkpt><trkpt lat="40.08409997750671" lon="15.730011355144336"><ele>594.0</ele><time>2026-04-26T09:41:10.999Z</time></trkpt><trkpt lat="40.08403469463027" lon="15.73011089769601"><ele>595.6</ele><time>2026-04-26T09:41:11.999Z</time></trkpt><trkpt lat="40.08398948288717" lon="15.730215008902029"><ele>597.2</ele><time>2026-04-26T09:41:12.999Z</time></trkpt><trkpt lat="40.08394357944308" lon="15.730304832525784"><ele>598.8000000000001</ele><time>2026-04-26T09:41:13.999Z</time></trkpt><trkpt lat="40.08386856261932" lon="15.730394078382595"><ele>600.4</ele><time>2026-04-26T09:41:15.999Z</time></trkpt><trkpt lat="40.08376195402161" lon="15.730406888196278"><ele>602.0</ele><time>2026-04-26T09:41:16.999Z</time></trkpt><trkpt lat="40.08368128827069" lon="15.730424511353684"><ele>602.0</ele><time>2026-04-26T09:41:17.999Z</time></trkpt><trkpt lat="40.083602674452486" lon="15.730451563517653"><ele>602.0</ele><time>2026-04-26T09:41:18.999Z</time></trkpt><trkpt lat="40.08351757283068" lon="15.730445133771205"><ele>602.0</ele><time>2026-04-26T09:41:19.999Z</time></trkpt><trkpt lat="40.08341994224926" lon="15.730471670102807"><ele>602.0</ele><time>2026-04-26T09:41:20.999Z</time></trkpt><trkpt lat="40.08333050716668" lon="15.730545964048837"><ele>602.0</ele><time>2026-04-26T09:41:21.999Z</time></trkpt><trkpt lat="40.0832364712287" lon="15.730609764353739"><ele>604.4</ele><time>2026-04-26T09:41:22.999Z</time></trkpt><trkpt lat="40.08314045282366" lon="15.730655686121576"><ele>606.8000000000001</ele><time>2026-04-26T09:41:23.999Z</time></trkpt><trkpt lat="40.08302812496243" lon="15.730678749213874"><ele>609.2</ele><time>2026-04-26T09:41:24.999Z</time></trkpt><trkpt lat="40.08293665782846" lon="15.730732810671869"><ele>611.6</ele><time>2026-04-26T09:41:25.999Z</time></trkpt><trkpt lat="40.082851102290135" lon="15.730814894941465"><ele>614.0</ele><time>2026-04-26T09:41:26.999Z</time></trkpt><trkpt lat="40.08276878411207" lon="15.730897133626643"><ele>614.0</ele><time>2026-04-26T09:41:27.999Z</time></trkpt><trkpt lat="40.082693917931614" lon="15.73097837922654"><ele>614.0</ele><time>2026-04-26T09:41:28.999Z</time></trkpt><trkpt lat="40.08262586153956" lon="15.731078782926602"><ele>614.0</ele><time>2026-04-26T09:41:29.999Z</time></trkpt><trkpt lat="40.08256288361927" lon="15.731178555097395"><ele>614.0</ele><time>2026-04-26T09:41:30.999Z</time></trkpt><trkpt lat="40.08250287832768" lon="15.731267688283227"><ele>614.0</ele><time>2026-04-26T09:41:31.999Z</time></trkpt><trkpt lat="40.08243058366253" lon="15.731346751282723"><ele>616.1666666666666</ele><time>2026-04-26T09:41:32.999Z</time></trkpt><trkpt lat="40.08233551026904" lon="15.731383135921451"><ele>618.3333333333333</ele><time>2026-04-26T09:41:33.999Z</time></trkpt><trkpt lat="40.08224955536005" lon="15.731423590951975"><ele>620.5</ele><time>2026-04-26T09:41:34.999Z</time></trkpt><trkpt lat="40.08216803583922" lon="15.73144118410453"><ele>622.6666666666666</ele><time>2026-04-26T09:41:35.999Z</time></trkpt><trkpt lat="40.08209191113043" lon="15.731434101234058"><ele>624.8333333333334</ele><time>2026-04-26T09:41:36.999Z</time></trkpt><trkpt lat="40.08200082688847" lon="15.731449862285398"><ele>627.0</ele><time>2026-04-26T09:41:37.999Z</time></trkpt><trkpt lat="40.08189381936353" lon="15.731451486356482"><ele>627.0</ele><time>2026-04-26T09:41:38.999Z</time></trkpt><trkpt lat="40.08178712029872" lon="15.731485589757492"><ele>627.0</ele><time>2026-04-26T09:41:39.999Z</time></trkpt><trkpt lat="40.0816764237885" lon="15.73156009884771"><ele>627.0</ele><time>2026-04-26T09:41:40.999Z</time></trkpt><trkpt lat="40.08155520908216" lon="15.731617203556564"><ele>627.0</ele><time>2026-04-26T09:41:41.999Z</time></trkpt><trkpt lat="40.08144790558503" lon="15.731695322625365"><ele>629.0</ele><time>2026-04-26T09:41:42.999Z</time></trkpt><trkpt lat="40.081356083476884" lon="15.73179175221116"><ele>631.0</ele><time>2026-04-26T09:41:43.999Z</time></trkpt><trkpt lat="40.0812790821099" lon="15.73190419669452"><ele>633.0</ele><time>2026-04-26T09:41:44.999Z</time></trkpt><trkpt lat="40.081197984948055" lon="15.731989314016491"><ele>635.0</ele><time>2026-04-26T09:41:45.999Z</time></trkpt><trkpt lat="40.08112701850456" lon="15.732118334964069"><ele>635.0</ele><time>2026-04-26T09:41:46.999Z</time></trkpt><trkpt lat="40.08106140402279" lon="15.73225300535089"><ele>635.0</ele><time>2026-04-26T09:41:47.999Z</time></trkpt><trkpt lat="40.0809668825515" lon="15.732352273142773"><ele>635.0</ele><time>2026-04-26T09:41:48.999Z</time></trkpt><trkpt lat="40.08088607807097" lon="15.732438666523823"><ele>635.0</ele><time>2026-04-26T09:41:49.999Z</time></trkpt><trkpt lat="40.08079302932937" lon="15.732565209460272"><ele>635.6</ele><time>2026-04-26T09:41:50.999Z</time></trkpt><trkpt lat="40.08068827890557" lon="15.732674899558601"><ele>636.2</ele><time>2026-04-26T09:41:51.999Z</time></trkpt><trkpt lat="40.08060711234908" lon="15.7327748574182"><ele>636.8</ele><time>2026-04-26T09:41:52.999Z</time></trkpt><trkpt lat="40.08055379656906" lon="15.732838437886201"><ele>637.4</ele><time>2026-04-26T09:41:53.999Z</time></trkpt><trkpt lat="40.080484036667585" lon="15.732923192924012"><ele>638.0</ele><time>2026-04-26T09:41:55.999Z</time></trkpt><trkpt lat="40.08043010109284" lon="15.733024515466333"><ele>638.0</ele><time>2026-04-26T09:41:58.999Z</time></trkpt><trkpt lat="40.0803846867399" lon="15.733083881720388"><ele>638.0</ele><time>2026-04-26T09:42:00.999Z</time></trkpt><trkpt lat="40.08030716984487" lon="15.733053610726152"><ele>638.0</ele><time>2026-04-26T09:42:01.999Z</time></trkpt><trkpt lat="40.08015648971645" lon="15.732923246570785"><ele>638.0</ele><time>2026-04-26T09:42:03.999Z</time></trkpt><trkpt lat="40.08007796058084" lon="15.732854508220239"><ele>638.0</ele><time>2026-04-26T09:42:04.999Z</time></trkpt><trkpt lat="40.0800031474649" lon="15.73280354337926"><ele>638.1666666666666</ele><time>2026-04-26T09:42:05.999Z</time></trkpt><trkpt lat="40.07992924517358" lon="15.732765235578933"><ele>638.3333333333333</ele><time>2026-04-26T09:42:06.999Z</time></trkpt><trkpt lat="40.079851600159735" lon="15.732728829236395"><ele>638.5</ele><time>2026-04-26T09:42:07.998Z</time></trkpt><trkpt lat="40.07977081010467" lon="15.73267814299726"><ele>638.6666666666666</ele><time>2026-04-26T09:42:08.998Z</time></trkpt><trkpt lat="40.07970607788915" lon="15.732620768364168"><ele>638.8333333333334</ele><time>2026-04-26T09:42:09.998Z</time></trkpt><trkpt lat="40.07964524910969" lon="15.732539791872167"><ele>639.0</ele><time>2026-04-26T09:42:10.998Z</time></trkpt><trkpt lat="40.07959857004452" lon="15.732463477961055"><ele>639.8571428571429</ele><time>2026-04-26T09:42:11.998Z</time></trkpt><trkpt lat="40.079546833559675" lon="15.732379471860718"><ele>640.7142857142858</ele><time>2026-04-26T09:42:12.998Z</time></trkpt><trkpt lat="40.07948625558508" lon="15.732324087740173"><ele>641.5714285714287</ele><time>2026-04-26T09:42:13.998Z</time></trkpt><trkpt lat="40.079419990586345" lon="15.73229339403523"><ele>642.4285714285714</ele><time>2026-04-26T09:42:14.998Z</time></trkpt><trkpt lat="40.07935430739207" lon="15.732269392038326"><ele>643.2857142857142</ele><time>2026-04-26T09:42:15.998Z</time></trkpt><trkpt lat="40.079287826464515" lon="15.73225525504401"><ele>644.1428571428572</ele><time>2026-04-26T09:42:16.998Z</time></trkpt><trkpt lat="40.07921107118258" lon="15.732222348928786"><ele>645.0</ele><time>2026-04-26T09:42:17.998Z</time></trkpt><trkpt lat="40.079129769775065" lon="15.732171756592912"><ele>647.1666666666666</ele><time>2026-04-26T09:42:19Z</time></trkpt><trkpt lat="40.07904613096177" lon="15.732116997715245"><ele>649.3333333333334</ele><time>2026-04-26T09:42:20Z</time></trkpt><trkpt lat="40.078968876293644" lon="15.732072944932082"><ele>651.5</ele><time>2026-04-26T09:42:21Z</time></trkpt><trkpt lat="40.078898527528914" lon="15.7320506614121"><ele>653.6666666666667</ele><time>2026-04-26T09:42:22Z</time></trkpt><trkpt lat="40.078821775897886" lon="15.73204783409483"><ele>655.8333333333334</ele><time>2026-04-26T09:42:23Z</time></trkpt><trkpt lat="40.07872767480283" lon="15.732052750367746"><ele>658.0</ele><time>2026-04-26T09:42:24Z</time></trkpt><trkpt lat="40.07863348610217" lon="15.732049467426737"><ele>658.0</ele><time>2026-04-26T09:42:25Z</time></trkpt><trkpt lat="40.078535864535695" lon="15.732037117166824"><ele>658.0</ele><time>2026-04-26T09:42:26Z</time></trkpt><trkpt lat="40.078452737427966" lon="15.732000537359859"><ele>658.0</ele><time>2026-04-26T09:42:27Z</time></trkpt><trkpt lat="40.078372285660166" lon="15.7319462143193"><ele>658.0</ele><time>2026-04-26T09:42:28Z</time></trkpt><trkpt lat="40.0782782874123" lon="15.731896489353662"><ele>658.0</ele><time>2026-04-26T09:42:29Z</time></trkpt><trkpt lat="40.07819429125159" lon="15.731848377293241"><ele>658.4</ele><time>2026-04-26T09:42:30Z</time></trkpt><trkpt lat="40.07810779677252" lon="15.731823586147096"><ele>658.8</ele><time>2026-04-26T09:42:31Z</time></trkpt><trkpt lat="40.07799336077038" lon="15.731805070390866"><ele>659.2</ele><time>2026-04-26T09:42:32Z</time></trkpt><trkpt lat="40.077901265406794" lon="15.73179970783907"><ele>659.6</ele><time>2026-04-26T09:42:33Z</time></trkpt><trkpt lat="40.077763957630324" lon="15.731845363663643"><ele>660.0</ele><time>2026-04-26T09:42:35Z</time></trkpt><trkpt lat="40.077663008731435" lon="15.731920419384315"><ele>660.0</ele><time>2026-04-26T09:42:36Z</time></trkpt><trkpt lat="40.07756586717524" lon="15.732000260498493"><ele>660.0</ele><time>2026-04-26T09:42:37Z</time></trkpt><trkpt lat="40.07747290360847" lon="15.732030302303405"><ele>660.0</ele><time>2026-04-26T09:42:38Z</time></trkpt><trkpt lat="40.07734500007668" lon="15.732039674351793"><ele>660.0</ele><time>2026-04-26T09:42:39Z</time></trkpt><trkpt lat="40.07721816910035" lon="15.732042552500594"><ele>662.0</ele><time>2026-04-26T09:42:40Z</time></trkpt><trkpt lat="40.07709854320734" lon="15.73205244574926"><ele>664.0</ele><time>2026-04-26T09:42:41Z</time></trkpt><trkpt lat="40.076988041601396" lon="15.732064567357428"><ele>666.0</ele><time>2026-04-26T09:42:42Z</time></trkpt><trkpt lat="40.076888417516095" lon="15.732076636059329"><ele>668.0</ele><time>2026-04-26T09:42:43Z</time></trkpt><trkpt lat="40.07677649710187" lon="15.732116580309611"><ele>670.0</ele><time>2026-04-26T09:42:44Z</time></trkpt><trkpt lat="40.07666794505879" lon="15.732161842290676"><ele>672.6</ele><time>2026-04-26T09:42:45Z</time></trkpt><trkpt lat="40.076570756572984" lon="15.732189790548215"><ele>675.2</ele><time>2026-04-26T09:42:46Z</time></trkpt><trkpt lat="40.07647502828861" lon="15.732225052719562"><ele>677.8</ele><time>2026-04-26T09:42:47Z</time></trkpt><trkpt lat="40.07638292789534" lon="15.732279311237038"><ele>680.4</ele><time>2026-04-26T09:42:48Z</time></trkpt><trkpt lat="40.0763021265925" lon="15.732291813892708"><ele>683.0</ele><time>2026-04-26T09:42:49Z</time></trkpt><trkpt lat="40.07620863532266" lon="15.732263918262099"><ele>683.0</ele><time>2026-04-26T09:42:50Z</time></trkpt><trkpt lat="40.07612700686076" lon="15.732202797598667"><ele>683.0</ele><time>2026-04-26T09:42:51Z</time></trkpt><trkpt lat="40.076060570436155" lon="15.732156838778437"><ele>683.0</ele><time>2026-04-26T09:42:52Z</time></trkpt><trkpt lat="40.075985520611994" lon="15.732136645507547"><ele>683.0</ele><time>2026-04-26T09:42:53Z</time></trkpt><trkpt lat="40.075882720281136" lon="15.732129597332724"><ele>683.0</ele><time>2026-04-26T09:42:54Z</time></trkpt><trkpt lat="40.075790865770614" lon="15.732124606125003"><ele>683.0</ele><time>2026-04-26T09:42:55Z</time></trkpt><trkpt lat="40.075710449540686" lon="15.732108542970545"><ele>685.3333333333333</ele><time>2026-04-26T09:42:55.999Z</time></trkpt><trkpt lat="40.075630140131196" lon="15.732076285036483"><ele>687.6666666666666</ele><time>2026-04-26T09:42:56.999Z</time></trkpt><trkpt lat="40.075535685178636" lon="15.732055065114634"><ele>690.0</ele><time>2026-04-26T09:42:57.999Z</time></trkpt><trkpt lat="40.075459494362754" lon="15.732035974383779"><ele>692.3333333333334</ele><time>2026-04-26T09:42:58.999Z</time></trkpt><trkpt lat="40.075373310589576" lon="15.732031266702885"><ele>694.6666666666667</ele><time>2026-04-26T09:42:59.999Z</time></trkpt><trkpt lat="40.07530200016673" lon="15.732049721691274"><ele>697.0</ele><time>2026-04-26T09:43:00.999Z</time></trkpt><trkpt lat="40.07523257587103" lon="15.732053922319423"><ele>697.0</ele><time>2026-04-26T09:43:01.999Z</time></trkpt><trkpt lat="40.07512666952825" lon="15.731954526859107"><ele>697.0</ele><time>2026-04-26T09:43:03.999Z</time></trkpt><trkpt lat="40.07507170962256" lon="15.731848086538854"><ele>697.0</ele><time>2026-04-26T09:43:04.999Z</time></trkpt><trkpt lat="40.07502781904619" lon="15.731738273579113"><ele>697.0</ele><time>2026-04-26T09:43:05.999Z</time></trkpt><trkpt lat="40.07498836537348" lon="15.731655941798884"><ele>697.0</ele><time>2026-04-26T09:43:06.999Z</time></trkpt><trkpt lat="40.074934994418925" lon="15.731581528783558"><ele>695.0</ele><time>2026-04-26T09:43:07.999Z</time></trkpt><trkpt lat="40.07487179467433" lon="15.731489704253752"><ele>693.0</ele><time>2026-04-26T09:43:08.999Z</time></trkpt><trkpt lat="40.074797594879165" lon="15.73140431483556"><ele>691.0</ele><time>2026-04-26T09:43:09.999Z</time></trkpt><trkpt lat="40.07472292769139" lon="15.731343700556069"><ele>689.0</ele><time>2026-04-26T09:43:10.999Z</time></trkpt><trkpt lat="40.074664835805244" lon="15.731283246651165"><ele>687.0</ele><time>2026-04-26T09:43:11.999Z</time></trkpt><trkpt lat="40.07462059424598" lon="15.731189244104774"><ele>685.0</ele><time>2026-04-26T09:43:13.999Z</time></trkpt><trkpt lat="40.07457586807641" lon="15.731248653289661"><ele>685.0</ele><time>2026-04-26T09:43:16.999Z</time></trkpt><trkpt lat="40.074595796294844" lon="15.731346383988244"><ele>685.0</ele><time>2026-04-26T09:43:18.999Z</time></trkpt><trkpt lat="40.07464940883601" lon="15.731496925374637"><ele>685.0</ele><time>2026-04-26T09:43:19.999Z</time></trkpt><trkpt lat="40.074698982287195" lon="15.731607674829181"><ele>685.0</ele><time>2026-04-26T09:43:21.999Z</time></trkpt><trkpt lat="40.074718972201296" lon="15.731741528729907"><ele>685.0</ele><time>2026-04-26T09:43:24.999Z</time></trkpt><trkpt lat="40.07472819096879" lon="15.731886706201173"><ele>681.8</ele><time>2026-04-26T09:43:26.999Z</time></trkpt><trkpt lat="40.074764901571896" lon="15.73196050128307"><ele>678.6</ele><time>2026-04-26T09:43:27.999Z</time></trkpt><trkpt lat="40.074812493893134" lon="15.732045933644233"><ele>675.4000000000001</ele><time>2026-04-26T09:43:28.999Z</time></trkpt><trkpt lat="40.074823431241875" lon="15.732208455795936"><ele>672.2</ele><time>2026-04-26T09:43:30.999Z</time></trkpt><trkpt lat="40.07481098471342" lon="15.732304152540644"><ele>669.0</ele><time>2026-04-26T09:43:31.999Z</time></trkpt><trkpt lat="40.07479834887229" lon="15.732464780894793"><ele>669.0</ele><time>2026-04-26T09:43:33.999Z</time></trkpt><trkpt lat="40.07480404295254" lon="15.732631039813876"><ele>669.0</ele><time>2026-04-26T09:43:35.999Z</time></trkpt><trkpt lat="40.07481714785134" lon="15.732722107345067"><ele>669.0</ele><time>2026-04-26T09:43:36.999Z</time></trkpt><trkpt lat="40.074825735704245" lon="15.732812862250785"><ele>669.0</ele><time>2026-04-26T09:43:37.999Z</time></trkpt><trkpt lat="40.074804066985685" lon="15.732906374261388"><ele>669.0</ele><time>2026-04-26T09:43:38.999Z</time></trkpt><trkpt lat="40.0747692199409" lon="15.732994337631835"><ele>669.0</ele><time>2026-04-26T09:43:39.999Z</time></trkpt><trkpt lat="40.07473373616222" lon="15.733067784372524"><ele>666.2</ele><time>2026-04-26T09:43:40.999Z</time></trkpt><trkpt lat="40.07471128317317" lon="15.733156333491689"><ele>663.4000000000001</ele><time>2026-04-26T09:43:42.999Z</time></trkpt><trkpt lat="40.07471602374007" lon="15.73328497014202"><ele>660.6</ele><time>2026-04-26T09:43:44.999Z</time></trkpt><trkpt lat="40.07474877656491" lon="15.733511307048648"><ele>657.8</ele><time>2026-04-26T09:43:47.999Z</time></trkpt><trkpt lat="40.074750987423414" lon="15.73360375645968"><ele>655.0</ele><time>2026-04-26T09:43:48.999Z</time></trkpt><trkpt lat="40.07475045607854" lon="15.733688343032702"><ele>653.2</ele><time>2026-04-26T09:43:49.999Z</time></trkpt><trkpt lat="40.074736433126034" lon="15.733840546716205"><ele>651.4</ele><time>2026-04-26T09:43:51.999Z</time></trkpt><trkpt lat="40.07471351391867" lon="15.733952137248089"><ele>649.5999999999999</ele><time>2026-04-26T09:43:53.999Z</time></trkpt><trkpt lat="40.07469371282664" lon="15.734056150197215"><ele>647.8</ele><time>2026-04-26T09:43:55.999Z</time></trkpt><trkpt lat="40.07465165002421" lon="15.73419083250407"><ele>646.0</ele><time>2026-04-26T09:43:57.999Z</time></trkpt><trkpt lat="40.07460793070562" lon="15.734326947735754"><ele>646.5</ele><time>2026-04-26T09:43:59.999Z</time></trkpt><trkpt lat="40.07459545631911" lon="15.734442848809607"><ele>647.0</ele><time>2026-04-26T09:44:01.999Z</time></trkpt><trkpt lat="40.0746128918522" lon="15.734561947359053"><ele>647.5</ele><time>2026-04-26T09:44:03.999Z</time></trkpt><trkpt lat="40.07462517082373" lon="15.734653082283224"><ele>648.0</ele><time>2026-04-26T09:44:05.999Z</time></trkpt><trkpt lat="40.07463778556073" lon="15.734773697371768"><ele>648.5</ele><time>2026-04-26T09:44:08.999Z</time></trkpt><trkpt lat="40.07466518777091" lon="15.734859374744548"><ele>649.0</ele><time>2026-04-26T09:44:11.999Z</time></trkpt><trkpt lat="40.07471344952023" lon="15.73493910527868"><ele>649.0</ele><time>2026-04-26T09:44:13.999Z</time></trkpt><trkpt lat="40.074757601424544" lon="15.734999546126346"><ele>649.0</ele><time>2026-04-26T09:44:14.998Z</time></trkpt><trkpt lat="40.074809466574386" lon="15.735085344871484"><ele>649.0</ele><time>2026-04-26T09:44:15.998Z</time></trkpt><trkpt lat="40.0748445303461" lon="15.735203965214197"><ele>649.0</ele><time>2026-04-26T09:44:17.998Z</time></trkpt><trkpt lat="40.074879006299426" lon="15.735344402689153"><ele>649.0</ele><time>2026-04-26T09:44:19.998Z</time></trkpt><trkpt lat="40.07494456920781" lon="15.735488644016067"><ele>648.3333333333334</ele><time>2026-04-26T09:44:20.998Z</time></trkpt><trkpt lat="40.07498110910945" lon="15.7356461824256"><ele>647.6666666666667</ele><time>2026-04-26T09:44:22.998Z</time></trkpt><trkpt lat="40.07501572550127" lon="15.735733390799457"><ele>647.0</ele><time>2026-04-26T09:44:23.998Z</time></trkpt><trkpt lat="40.07504085003689" lon="15.73581842094149"><ele>646.3333333333334</ele><time>2026-04-26T09:44:25Z</time></trkpt><trkpt lat="40.07505664845366" lon="15.735913604053522"><ele>645.6666666666666</ele><time>2026-04-26T09:44:26Z</time></trkpt><trkpt lat="40.07506777160801" lon="15.73599533475869"><ele>645.0</ele><time>2026-04-26T09:44:27Z</time></trkpt><trkpt lat="40.07509402956273" lon="15.736136006208945"><ele>641.6</ele><time>2026-04-26T09:44:29Z</time></trkpt><trkpt lat="40.07508133920954" lon="15.736243646235277"><ele>638.2</ele><time>2026-04-26T09:44:31Z</time></trkpt><trkpt lat="40.07506479066465" lon="15.73632686027746"><ele>634.8</ele><time>2026-04-26T09:44:32Z</time></trkpt><trkpt lat="40.075046826903446" lon="15.736479238720129"><ele>631.4</ele><time>2026-04-26T09:44:34Z</time></trkpt><trkpt lat="40.075066359642726" lon="15.736593732341978"><ele>628.0</ele><time>2026-04-26T09:44:36Z</time></trkpt><trkpt lat="40.07509672195316" lon="15.736751611991776"><ele>624.1999999999999</ele><time>2026-04-26T09:44:38Z</time></trkpt><trkpt lat="40.075131779256125" lon="15.736907806133765"><ele>620.4</ele><time>2026-04-26T09:44:40Z</time></trkpt><trkpt lat="40.07513493481844" lon="15.737055814038325"><ele>616.5999999999999</ele><time>2026-04-26T09:44:42Z</time></trkpt><trkpt lat="40.075105732276064" lon="15.737168686038874"><ele>612.8</ele><time>2026-04-26T09:44:44Z</time></trkpt><trkpt lat="40.075096404263896" lon="15.737270119978488"><ele>609.0</ele><time>2026-04-26T09:44:45Z</time></trkpt><trkpt lat="40.075087987987764" lon="15.737388994008224"><ele>609.0</ele><time>2026-04-26T09:44:47Z</time></trkpt><trkpt lat="40.07507402288562" lon="15.737519406125733"><ele>609.0</ele><time>2026-04-26T09:44:49Z</time></trkpt><trkpt lat="40.075061455417185" lon="15.737635101087964"><ele>609.0</ele><time>2026-04-26T09:44:52Z</time></trkpt><trkpt lat="40.07504062551799" lon="15.737830798533246"><ele>609.0</ele><time>2026-04-26T09:44:54Z</time></trkpt><trkpt lat="40.0750471659499" lon="15.737987911169581"><ele>606.1666666666666</ele><time>2026-04-26T09:44:56Z</time></trkpt><trkpt lat="40.07502476835621" lon="15.738090747895871"><ele>603.3333333333334</ele><time>2026-04-26T09:44:59Z</time></trkpt><trkpt lat="40.07502891240056" lon="15.738181139056111"><ele>600.5</ele><time>2026-04-26T09:45:07.999Z</time></trkpt><trkpt lat="40.07509028680588" lon="15.738258099017278"><ele>597.6666666666667</ele><time>2026-04-26T09:45:11.999Z</time></trkpt><trkpt lat="40.07515367280391" lon="15.738277250077438"><ele>594.8333333333334</ele><time>2026-04-26T09:45:13.999Z</time></trkpt><trkpt lat="40.07525912957018" lon="15.73830243536453"><ele>592.0</ele><time>2026-04-26T09:45:16.999Z</time></trkpt><trkpt lat="40.075347505403236" lon="15.738314642641484"><ele>592.0</ele><time>2026-04-26T09:45:19.999Z</time></trkpt><trkpt lat="40.07546143848495" lon="15.738300233959267"><ele>592.0</ele><time>2026-04-26T09:45:21.999Z</time></trkpt><trkpt lat="40.07552625595638" lon="15.7383179159747"><ele>592.0</ele><time>2026-04-26T09:45:23.999Z</time></trkpt><trkpt lat="40.07560092393188" lon="15.73835517192469"><ele>592.0</ele><time>2026-04-26T09:45:25.999Z</time></trkpt><trkpt lat="40.07566894028649" lon="15.738383688909193"><ele>592.0</ele><time>2026-04-26T09:45:27.999Z</time></trkpt><trkpt lat="40.07575549600542" lon="15.738470949186267"><ele>592.0</ele><time>2026-04-26T09:45:30.999Z</time></trkpt><trkpt lat="40.07585258342369" lon="15.738512782325934"><ele>592.25</ele><time>2026-04-26T09:45:31.999Z</time></trkpt><trkpt lat="40.07595097226686" lon="15.738537696699797"><ele>592.5</ele><time>2026-04-26T09:45:33.999Z</time></trkpt><trkpt lat="40.07606828642782" lon="15.738597215604191"><ele>592.75</ele><time>2026-04-26T09:45:35.999Z</time></trkpt><trkpt lat="40.07612267647405" lon="15.738673140204714"><ele>593.0</ele><time>2026-04-26T09:45:37.999Z</time></trkpt><trkpt lat="40.0763273556933" lon="15.738891342573021"><ele>589.0</ele><time>2026-04-26T09:45:40.999Z</time></trkpt><trkpt lat="40.0763554061008" lon="15.739048796366493"><ele>585.0</ele><time>2026-04-26T09:45:42.999Z</time></trkpt><trkpt lat="40.076355834017164" lon="15.739140505087448"><ele>581.0</ele><time>2026-04-26T09:45:43.999Z</time></trkpt><trkpt lat="40.076361852980185" lon="15.73922871650893"><ele>577.0</ele><time>2026-04-26T09:45:44.999Z</time></trkpt><trkpt lat="40.076354818526745" lon="15.739312210147872"><ele>573.0</ele><time>2026-04-26T09:45:45.999Z</time></trkpt><trkpt lat="40.07633702007929" lon="15.739395475285734"><ele>569.0</ele><time>2026-04-26T09:45:46.999Z</time></trkpt><trkpt lat="40.076337010229075" lon="15.739546064875672"><ele>566.5</ele><time>2026-04-26T09:45:48.999Z</time></trkpt><trkpt lat="40.076360354846045" lon="15.739625024952367"><ele>564.0</ele><time>2026-04-26T09:45:49.999Z</time></trkpt><trkpt lat="40.076388662264165" lon="15.739727624776577"><ele>561.5</ele><time>2026-04-26T09:45:50.999Z</time></trkpt><trkpt lat="40.076421304108685" lon="15.739826222628816"><ele>559.0</ele><time>2026-04-26T09:45:51.999Z</time></trkpt><trkpt lat="40.07645333591242" lon="15.73991822510706"><ele>556.5</ele><time>2026-04-26T09:45:52.999Z</time></trkpt><trkpt lat="40.076485389176405" lon="15.740005111146715"><ele>554.0</ele><time>2026-04-26T09:45:53.999Z</time></trkpt><trkpt lat="40.07651155017187" lon="15.740096946406219"><ele>554.0</ele><time>2026-04-26T09:45:54.999Z</time></trkpt><trkpt lat="40.076530507240506" lon="15.74018776510426"><ele>554.0</ele><time>2026-04-26T09:45:55.999Z</time></trkpt><trkpt lat="40.076542617440914" lon="15.74027670621861"><ele>554.0</ele><time>2026-04-26T09:45:56.999Z</time></trkpt><trkpt lat="40.07656208846152" lon="15.740419341743966"><ele>554.0</ele><time>2026-04-26T09:45:58.999Z</time></trkpt><trkpt lat="40.076615169219224" lon="15.74052992019427"><ele>554.0</ele><time>2026-04-26T09:46:00.999Z</time></trkpt><trkpt lat="40.07667026721451" lon="15.740580614230444"><ele>554.0</ele><time>2026-04-26T09:46:02.999Z</time></trkpt><trkpt lat="40.07671559297936" lon="15.74065829427338"><ele>551.5</ele><time>2026-04-26T09:46:04.999Z</time></trkpt><trkpt lat="40.07675688210758" lon="15.740737746368472"><ele>549.0</ele><time>2026-04-26T09:46:06.999Z</time></trkpt><trkpt lat="40.076796835666144" lon="15.740814999499179"><ele>546.5</ele><time>2026-04-26T09:46:08.999Z</time></trkpt><trkpt lat="40.076866209518506" lon="15.740889367408744"><ele>544.0</ele><time>2026-04-26T09:46:10.999Z</time></trkpt><trkpt lat="40.0769471511464" lon="15.74094377707455"><ele>541.5</ele><time>2026-04-26T09:46:12.999Z</time></trkpt><trkpt lat="40.077021011793704" lon="15.741024036638658"><ele>539.0</ele><time>2026-04-26T09:46:13.999Z</time></trkpt><trkpt lat="40.07705409322036" lon="15.741125031639388"><ele>536.1666666666666</ele><time>2026-04-26T09:46:14.999Z</time></trkpt><trkpt lat="40.07707789988061" lon="15.741214750464263"><ele>533.3333333333333</ele><time>2026-04-26T09:46:15.999Z</time></trkpt><trkpt lat="40.07712893347793" lon="15.741326931355264"><ele>530.5</ele><time>2026-04-26T09:46:17.999Z</time></trkpt><trkpt lat="40.07719453097046" lon="15.74137375361932"><ele>527.6666666666666</ele><time>2026-04-26T09:46:18.998Z</time></trkpt><trkpt lat="40.0772626114421" lon="15.741423726204127"><ele>524.8333333333334</ele><time>2026-04-26T09:46:19.998Z</time></trkpt><trkpt lat="40.077338400185496" lon="15.741529210502188"><ele>522.0</ele><time>2026-04-26T09:46:21.998Z</time></trkpt><trkpt lat="40.07740612076533" lon="15.741647243948238"><ele>522.0</ele><time>2026-04-26T09:46:23.998Z</time></trkpt><trkpt lat="40.07740456199327" lon="15.741733726008457"><ele>522.0</ele><time>2026-04-26T09:46:24.998Z</time></trkpt><trkpt lat="40.077408522450746" lon="15.741835043940023"><ele>522.0</ele><time>2026-04-26T09:46:26.998Z</time></trkpt><trkpt lat="40.07734625972464" lon="15.74212115704926"><ele>522.0</ele><time>2026-04-26T09:46:29.998Z</time></trkpt><trkpt lat="40.07732045554491" lon="15.742261425429804"><ele>519.4</ele><time>2026-04-26T09:46:32Z</time></trkpt><trkpt lat="40.07738382373233" lon="15.742324123721444"><ele>516.8000000000001</ele><time>2026-04-26T09:46:35Z</time></trkpt><trkpt lat="40.07749767113675" lon="15.742269749196813"><ele>514.2</ele><time>2026-04-26T09:46:37Z</time></trkpt><trkpt lat="40.07756040803452" lon="15.742228419227382"><ele>511.6</ele><time>2026-04-26T09:46:38Z</time></trkpt><trkpt lat="40.07762807778305" lon="15.742188386606314"><ele>509.0</ele><time>2026-04-26T09:46:39Z</time></trkpt><trkpt lat="40.07772510480492" lon="15.742119838544678"><ele>509.0</ele><time>2026-04-26T09:46:41Z</time></trkpt><trkpt lat="40.0778080123772" lon="15.74204730698002"><ele>509.0</ele><time>2026-04-26T09:46:43Z</time></trkpt><trkpt lat="40.07789662459345" lon="15.742032760150156"><ele>509.0</ele><time>2026-04-26T09:46:45Z</time></trkpt><trkpt lat="40.0779642502138" lon="15.742129855136243"><ele>509.0</ele><time>2026-04-26T09:46:47Z</time></trkpt><trkpt lat="40.07799863256382" lon="15.742209934730315"><ele>509.0</ele><time>2026-04-26T09:46:48Z</time></trkpt><trkpt lat="40.07798834954678" lon="15.742374881785818"><ele>508.99999999999994</ele><time>2026-04-26T09:46:49Z</time></trkpt><trkpt lat="40.07799111382819" lon="15.742464931726548"><ele>509.0</ele><time>2026-04-26T09:46:50Z</time></trkpt><trkpt lat="40.0779674058622" lon="15.742545091061494"><ele>508.99999999999994</ele><time>2026-04-26T09:46:51Z</time></trkpt><trkpt lat="40.077911636902996" lon="15.742600506914538"><ele>508.99999999999994</ele><time>2026-04-26T09:46:52Z</time></trkpt><trkpt lat="40.077867825042944" lon="15.742663783038129"><ele>509.0</ele><time>2026-04-26T09:46:54Z</time></trkpt><trkpt lat="40.0778336658403" lon="15.742752038355418"><ele>508.99999999999994</ele><time>2026-04-26T09:46:56Z</time></trkpt><trkpt lat="40.07778620285677" lon="15.742848666925738"><ele>508.99999999999994</ele><time>2026-04-26T09:46:58Z</time></trkpt><trkpt lat="40.07775166598825" lon="15.742951627492289"><ele>507.2</ele><time>2026-04-26T09:47:00Z</time></trkpt><trkpt lat="40.07767446370282" lon="15.743088800506063"><ele>505.4</ele><time>2026-04-26T09:47:02Z</time></trkpt><trkpt lat="40.07762908252599" lon="15.743167898729359"><ele>503.6</ele><time>2026-04-26T09:47:03Z</time></trkpt><trkpt lat="40.077576437118005" lon="15.74324011030538"><ele>501.8</ele><time>2026-04-26T09:47:04Z</time></trkpt><trkpt lat="40.07750295900594" lon="15.743351601110001"><ele>500.0</ele><time>2026-04-26T09:47:05Z</time></trkpt><trkpt lat="40.07741320082623" lon="15.743502776566864"><ele>499.25</ele><time>2026-04-26T09:47:06Z</time></trkpt><trkpt lat="40.07732202131102" lon="15.74368027607008"><ele>498.5</ele><time>2026-04-26T09:47:07Z</time></trkpt><trkpt lat="40.0772436533964" lon="15.743849673400947"><ele>497.75</ele><time>2026-04-26T09:47:08Z</time></trkpt><trkpt lat="40.07718768280803" lon="15.744002244227044"><ele>497.0</ele><time>2026-04-26T09:47:08.999Z</time></trkpt><trkpt lat="40.077139979042535" lon="15.744159956066893"><ele>497.0</ele><time>2026-04-26T09:47:09.999Z</time></trkpt><trkpt lat="40.077095183783534" lon="15.744320409964814"><ele>497.0</ele><time>2026-04-26T09:47:10.999Z</time></trkpt><trkpt lat="40.07706069659743" lon="15.744463048916268"><ele>497.0</ele><time>2026-04-26T09:47:11.999Z</time></trkpt><trkpt lat="40.0770169009955" lon="15.744587800427505"><ele>497.0</ele><time>2026-04-26T09:47:12.999Z</time></trkpt><trkpt lat="40.07696332407237" lon="15.744703638261734"><ele>496.6</ele><time>2026-04-26T09:47:13.999Z</time></trkpt><trkpt lat="40.07687350669739" lon="15.744798870752303"><ele>496.20000000000005</ele><time>2026-04-26T09:47:14.999Z</time></trkpt><trkpt lat="40.07681809638637" lon="15.74491144832299"><ele>495.8</ele><time>2026-04-26T09:47:15.999Z</time></trkpt><trkpt lat="40.07676076731332" lon="15.745029674712185"><ele>495.4</ele><time>2026-04-26T09:47:16.999Z</time></trkpt><trkpt lat="40.07670796504846" lon="15.745143221966437"><ele>495.0</ele><time>2026-04-26T09:47:17.999Z</time></trkpt><trkpt lat="40.07665663489036" lon="15.745253603570351"><ele>498.2</ele><time>2026-04-26T09:47:18.999Z</time></trkpt><trkpt lat="40.07660171323226" lon="15.745353963050748"><ele>501.4</ele><time>2026-04-26T09:47:19.999Z</time></trkpt><trkpt lat="40.07652774428708" lon="15.745441276031515"><ele>504.6</ele><time>2026-04-26T09:47:20.999Z</time></trkpt><trkpt lat="40.076441263403986" lon="15.745497124538522"><ele>507.8</ele><time>2026-04-26T09:47:21.999Z</time></trkpt><trkpt lat="40.07633582217219" lon="15.74554462027812"><ele>511.0</ele><time>2026-04-26T09:47:22.999Z</time></trkpt><trkpt lat="40.07622131631231" lon="15.745581488412073"><ele>511.00000000000006</ele><time>2026-04-26T09:47:23.999Z</time></trkpt><trkpt lat="40.076120904444615" lon="15.745569536333482"><ele>511.0</ele><time>2026-04-26T09:47:24.999Z</time></trkpt><trkpt lat="40.076047181262744" lon="15.745503536980742"><ele>511.0</ele><time>2026-04-26T09:47:25.999Z</time></trkpt><trkpt lat="40.07598421953351" lon="15.745433031946098"><ele>511.0</ele><time>2026-04-26T09:47:26.999Z</time></trkpt><trkpt lat="40.07591212526374" lon="15.745383313019286"><ele>511.00000000000006</ele><time>2026-04-26T09:47:27.999Z</time></trkpt><trkpt lat="40.0758192014907" lon="15.745379895720994"><ele>511.0</ele><time>2026-04-26T09:47:28.999Z</time></trkpt><trkpt lat="40.075716652555165" lon="15.74548462678"><ele>514.5</ele><time>2026-04-26T09:47:29.999Z</time></trkpt><trkpt lat="40.07560948662686" lon="15.745563795741354"><ele>518.0</ele><time>2026-04-26T09:47:30.999Z</time></trkpt><trkpt lat="40.0755143724896" lon="15.745654933333993"><ele>521.5</ele><time>2026-04-26T09:47:31.999Z</time></trkpt><trkpt lat="40.07540551462499" lon="15.745716496308349"><ele>525.0</ele><time>2026-04-26T09:47:32.999Z</time></trkpt><trkpt lat="40.07528772568589" lon="15.745794550026156"><ele>525.0</ele><time>2026-04-26T09:47:33.999Z</time></trkpt><trkpt lat="40.07517124515817" lon="15.74589581299552"><ele>525.0</ele><time>2026-04-26T09:47:34.999Z</time></trkpt><trkpt lat="40.0750589525642" lon="15.746010506400681"><ele>525.0</ele><time>2026-04-26T09:47:35.999Z</time></trkpt><trkpt lat="40.07495544367936" lon="15.746109265935893"><ele>525.0</ele><time>2026-04-26T09:47:36.999Z</time></trkpt><trkpt lat="40.0748634753697" lon="15.746178107141565"><ele>523.0</ele><time>2026-04-26T09:47:37.999Z</time></trkpt><trkpt lat="40.074763655825734" lon="15.746236589274268"><ele>521.0</ele><time>2026-04-26T09:47:38.999Z</time></trkpt><trkpt lat="40.07465812043098" lon="15.746299393319088"><ele>519.0</ele><time>2026-04-26T09:47:39.999Z</time></trkpt><trkpt lat="40.07454821383489" lon="15.746361544967261"><ele>517.0</ele><time>2026-04-26T09:47:40.999Z</time></trkpt><trkpt lat="40.07444066880565" lon="15.746417257607359"><ele>517.0</ele><time>2026-04-26T09:47:41.999Z</time></trkpt><trkpt lat="40.07431948970594" lon="15.746462048019772"><ele>517.0</ele><time>2026-04-26T09:47:42.999Z</time></trkpt><trkpt lat="40.07419866956286" lon="15.74651753320852"><ele>517.0</ele><time>2026-04-26T09:47:43.999Z</time></trkpt><trkpt lat="40.07408766420721" lon="15.746580230706785"><ele>517.0</ele><time>2026-04-26T09:47:44.999Z</time></trkpt><trkpt lat="40.07398138974012" lon="15.746651685795236"><ele>515.25</ele><time>2026-04-26T09:47:45.999Z</time></trkpt><trkpt lat="40.07386845959502" lon="15.746725530541818"><ele>513.5</ele><time>2026-04-26T09:47:46.999Z</time></trkpt><trkpt lat="40.07375388143915" lon="15.746766493539866"><ele>511.75</ele><time>2026-04-26T09:47:47.999Z</time></trkpt><trkpt lat="40.07363052416148" lon="15.746784569871512"><ele>510.0</ele><time>2026-04-26T09:47:48.999Z</time></trkpt><trkpt lat="40.07350251497733" lon="15.746789799437925"><ele>510.0</ele><time>2026-04-26T09:47:49.999Z</time></trkpt><trkpt lat="40.073380706904516" lon="15.74678931423346"><ele>510.0</ele><time>2026-04-26T09:47:50.999Z</time></trkpt><trkpt lat="40.07325974407309" lon="15.746791181262362"><ele>510.0</ele><time>2026-04-26T09:47:51.999Z</time></trkpt><trkpt lat="40.07314026944592" lon="15.746797408136779"><ele>510.0</ele><time>2026-04-26T09:47:52.999Z</time></trkpt><trkpt lat="40.07302836952719" lon="15.746801173175411"><ele>510.4</ele><time>2026-04-26T09:47:53.999Z</time></trkpt><trkpt lat="40.07291698603169" lon="15.746802714228354"><ele>510.8</ele><time>2026-04-26T09:47:54.999Z</time></trkpt><trkpt lat="40.07281392062138" lon="15.74680266846378"><ele>511.20000000000005</ele><time>2026-04-26T09:47:55.999Z</time></trkpt><trkpt lat="40.07270802543964" lon="15.746792515283417"><ele>511.6</ele><time>2026-04-26T09:47:56.999Z</time></trkpt><trkpt lat="40.072593143308055" lon="15.746762392510398"><ele>512.0</ele><time>2026-04-26T09:47:57.999Z</time></trkpt><trkpt lat="40.072484762477565" lon="15.746707736700536"><ele>512.8000000000001</ele><time>2026-04-26T09:47:58.999Z</time></trkpt><trkpt lat="40.072378814862766" lon="15.746643991755041"><ele>513.6</ele><time>2026-04-26T09:47:59.999Z</time></trkpt><trkpt lat="40.07228110653958" lon="15.746583516769432"><ele>514.4000000000001</ele><time>2026-04-26T09:48:00.999Z</time></trkpt><trkpt lat="40.07220007789947" lon="15.746533365641133"><ele>515.2</ele><time>2026-04-26T09:48:01.999Z</time></trkpt><trkpt lat="40.072120935964584" lon="15.746528641494896"><ele>516.0</ele><time>2026-04-26T09:48:02.999Z</time></trkpt><trkpt lat="40.07205288145408" lon="15.746542774774243"><ele>516.0</ele><time>2026-04-26T09:48:03.999Z</time></trkpt><trkpt lat="40.07196477577937" lon="15.746604051630287"><ele>516.0</ele><time>2026-04-26T09:48:04.999Z</time></trkpt><trkpt lat="40.07185562440681" lon="15.746710168520455"><ele>516.0</ele><time>2026-04-26T09:48:05.999Z</time></trkpt><trkpt lat="40.0717445195471" lon="15.746779990350559"><ele>516.0</ele><time>2026-04-26T09:48:06.999Z</time></trkpt><trkpt lat="40.071645785063446" lon="15.7468359807917"><ele>517.2</ele><time>2026-04-26T09:48:07.999Z</time></trkpt><trkpt lat="40.07153490541507" lon="15.746866002086872"><ele>518.4000000000001</ele><time>2026-04-26T09:48:08.999Z</time></trkpt><trkpt lat="40.07142098579184" lon="15.746881019230374"><ele>519.6</ele><time>2026-04-26T09:48:09.999Z</time></trkpt><trkpt lat="40.07132536499396" lon="15.746879570976816"><ele>520.8000000000001</ele><time>2026-04-26T09:48:10.999Z</time></trkpt><trkpt lat="40.07123361621896" lon="15.746880893025923"><ele>522.0</ele><time>2026-04-26T09:48:11.999Z</time></trkpt><trkpt lat="40.07113841601104" lon="15.746881620984048"><ele>521.6</ele><time>2026-04-26T09:48:12.999Z</time></trkpt><trkpt lat="40.07103743344905" lon="15.746882393157536"><ele>521.2</ele><time>2026-04-26T09:48:13.999Z</time></trkpt><trkpt lat="40.0709312869828" lon="15.74688320481595"><ele>520.8</ele><time>2026-04-26T09:48:14.999Z</time></trkpt><trkpt lat="40.07082852785243" lon="15.746883537273515"><ele>520.4</ele><time>2026-04-26T09:48:15.999Z</time></trkpt><trkpt lat="40.070715581305784" lon="15.746865571552624"><ele>520.0</ele><time>2026-04-26T09:48:16.999Z</time></trkpt><trkpt lat="40.07058485386147" lon="15.746847989706106"><ele>520.0</ele><time>2026-04-26T09:48:17.999Z</time></trkpt><trkpt lat="40.07045091064937" lon="15.746832188606948"><ele>520.0</ele><time>2026-04-26T09:48:18.999Z</time></trkpt><trkpt lat="40.07033343053335" lon="15.746810493463451"><ele>520.0</ele><time>2026-04-26T09:48:19.999Z</time></trkpt><trkpt lat="40.07022761560238" lon="15.746775199069765"><ele>520.0</ele><time>2026-04-26T09:48:20.999Z</time></trkpt><trkpt lat="40.07012921356122" lon="15.746736413137906"><ele>520.0</ele><time>2026-04-26T09:48:21.999Z</time></trkpt><trkpt lat="40.0700343623132" lon="15.746712627828362"><ele>520.0</ele><time>2026-04-26T09:48:22.999Z</time></trkpt><trkpt lat="40.06993987783943" lon="15.746724523598253"><ele>520.0</ele><time>2026-04-26T09:48:23.999Z</time></trkpt><trkpt lat="40.06984798891868" lon="15.746717981322107"><ele>520.0</ele><time>2026-04-26T09:48:24.999Z</time></trkpt><trkpt lat="40.06975542839932" lon="15.746692249422905"><ele>520.0</ele><time>2026-04-26T09:48:25.998Z</time></trkpt><trkpt lat="40.06965938573727" lon="15.74667828174988"><ele>519.0</ele><time>2026-04-26T09:48:26.998Z</time></trkpt><trkpt lat="40.06956358769296" lon="15.746650489821606"><ele>518.0</ele><time>2026-04-26T09:48:27.998Z</time></trkpt><trkpt lat="40.06946812216059" lon="15.746618183100166"><ele>517.0</ele><time>2026-04-26T09:48:28.998Z</time></trkpt><trkpt lat="40.06937574121406" lon="15.746578752737534"><ele>516.0</ele><time>2026-04-26T09:48:29.998Z</time></trkpt><trkpt lat="40.069281599491255" lon="15.746540362133668"><ele>515.0</ele><time>2026-04-26T09:48:30.998Z</time></trkpt><trkpt lat="40.06919222573141" lon="15.746504781690104"><ele>514.25</ele><time>2026-04-26T09:48:31.998Z</time></trkpt><trkpt lat="40.0691085971554" lon="15.746474072936081"><ele>513.5</ele><time>2026-04-26T09:48:32.998Z</time></trkpt><trkpt lat="40.069006756986944" lon="15.746439281424129"><ele>512.75</ele><time>2026-04-26T09:48:33.998Z</time></trkpt><trkpt lat="40.06887821048268" lon="15.746397340388654"><ele>512.0</ele><time>2026-04-26T09:48:34.998Z</time></trkpt><trkpt lat="40.06872648734237" lon="15.746357773930532"><ele>512.0</ele><time>2026-04-26T09:48:35.998Z</time></trkpt><trkpt lat="40.06855982651257" lon="15.746355696859922"><ele>512.0</ele><time>2026-04-26T09:48:37Z</time></trkpt><trkpt lat="40.068407868556164" lon="15.74637023783602"><ele>512.0</ele><time>2026-04-26T09:48:38Z</time></trkpt><trkpt lat="40.0682795969521" lon="15.746389137491807"><ele>512.0</ele><time>2026-04-26T09:48:39Z</time></trkpt><trkpt lat="40.06819040782816" lon="15.746380118793553"><ele>513.4</ele><time>2026-04-26T09:48:40Z</time></trkpt><trkpt lat="40.068109904499806" lon="15.74635651367313"><ele>514.8000000000001</ele><time>2026-04-26T09:48:41Z</time></trkpt><trkpt lat="40.06804331085318" lon="15.746287898775783"><ele>516.2</ele><time>2026-04-26T09:48:42Z</time></trkpt><trkpt lat="40.06795913030125" lon="15.746219633350062"><ele>517.6</ele><time>2026-04-26T09:48:43Z</time></trkpt><trkpt lat="40.06786514661617" lon="15.746149897908072"><ele>519.0</ele><time>2026-04-26T09:48:44Z</time></trkpt><trkpt lat="40.067754250106205" lon="15.746076388755345"><ele>521.75</ele><time>2026-04-26T09:48:45Z</time></trkpt><trkpt lat="40.067621578193155" lon="15.746023456117678"><ele>524.5</ele><time>2026-04-26T09:48:46Z</time></trkpt><trkpt lat="40.067508256895906" lon="15.74596867330124"><ele>527.25</ele><time>2026-04-26T09:48:47Z</time></trkpt><trkpt lat="40.06741210756128" lon="15.745938360570843"><ele>530.0</ele><time>2026-04-26T09:48:48Z</time></trkpt><trkpt lat="40.067315176156065" lon="15.745935266460867"><ele>530.0</ele><time>2026-04-26T09:48:49Z</time></trkpt><trkpt lat="40.06722745276297" lon="15.74595894070962"><ele>530.0</ele><time>2026-04-26T09:48:50Z</time></trkpt><trkpt lat="40.06714989647651" lon="15.74594567400464"><ele>530.0</ele><time>2026-04-26T09:48:51Z</time></trkpt><trkpt lat="40.06706827404974" lon="15.745951235976296"><ele>530.0</ele><time>2026-04-26T09:48:52Z</time></trkpt><trkpt lat="40.06699569472563" lon="15.745957530308164"><ele>530.0</ele><time>2026-04-26T09:48:53Z</time></trkpt><trkpt lat="40.0669276349334" lon="15.746003287616464"><ele>530.0</ele><time>2026-04-26T09:48:54Z</time></trkpt><trkpt lat="40.066871788393776" lon="15.746065596700848"><ele>530.0</ele><time>2026-04-26T09:48:55Z</time></trkpt><trkpt lat="40.06684476177806" lon="15.746181669652739"><ele>530.0</ele><time>2026-04-26T09:48:56Z</time></trkpt><trkpt lat="40.0667890836685" lon="15.746292467704553"><ele>530.0</ele><time>2026-04-26T09:48:57Z</time></trkpt><trkpt lat="40.06672704377603" lon="15.746402366946802"><ele>530.0</ele><time>2026-04-26T09:48:58Z</time></trkpt><trkpt lat="40.06665887703665" lon="15.746476514233438"><ele>530.0</ele><time>2026-04-26T09:48:59Z</time></trkpt><trkpt lat="40.066613917807494" lon="15.746548623229373"><ele>533.2</ele><time>2026-04-26T09:49:00Z</time></trkpt><trkpt lat="40.06655866991676" lon="15.74664050355984"><ele>536.4</ele><time>2026-04-26T09:49:01Z</time></trkpt><trkpt lat="40.06651814337408" lon="15.746751605492308"><ele>539.6</ele><time>2026-04-26T09:49:02Z</time></trkpt><trkpt lat="40.066450192819474" lon="15.74684619966336"><ele>542.8</ele><time>2026-04-26T09:49:03Z</time></trkpt><trkpt lat="40.06636453809451" lon="15.74691039732136"><ele>546.0</ele><time>2026-04-26T09:49:04Z</time></trkpt><trkpt lat="40.06629473859184" lon="15.746994921974046"><ele>546.0</ele><time>2026-04-26T09:49:05Z</time></trkpt><trkpt lat="40.0662329992134" lon="15.747125825695973"><ele>546.0</ele><time>2026-04-26T09:49:06Z</time></trkpt><trkpt lat="40.06616012210142" lon="15.747259518628182"><ele>546.0</ele><time>2026-04-26T09:49:07Z</time></trkpt><trkpt lat="40.06609117366971" lon="15.747384142870999"><ele>546.0</ele><time>2026-04-26T09:49:08Z</time></trkpt><trkpt lat="40.06602197113638" lon="15.747524041756497"><ele>546.0</ele><time>2026-04-26T09:49:09Z</time></trkpt><trkpt lat="40.0659570903161" lon="15.747676448000583"><ele>546.0</ele><time>2026-04-26T09:49:10Z</time></trkpt><trkpt lat="40.06589910311212" lon="15.747819302242942"><ele>546.0</ele><time>2026-04-26T09:49:11Z</time></trkpt><trkpt lat="40.06584437918036" lon="15.747943045561266"><ele>546.0</ele><time>2026-04-26T09:49:12Z</time></trkpt><trkpt lat="40.06578001598201" lon="15.748046753144155"><ele>549.4</ele><time>2026-04-26T09:49:12.999Z</time></trkpt><trkpt lat="40.06573115399892" lon="15.748162473697763"><ele>552.8</ele><time>2026-04-26T09:49:13.999Z</time></trkpt><trkpt lat="40.06569488371884" lon="15.748302755095057"><ele>556.1999999999999</ele><time>2026-04-26T09:49:14.999Z</time></trkpt><trkpt lat="40.06570834128773" lon="15.748436904656115"><ele>559.6</ele><time>2026-04-26T09:49:15.999Z</time></trkpt><trkpt lat="40.065716164782565" lon="15.748568916750065"><ele>563.0</ele><time>2026-04-26T09:49:16.999Z</time></trkpt><trkpt lat="40.06572800221661" lon="15.74871320177182"><ele>563.0</ele><time>2026-04-26T09:49:17.999Z</time></trkpt><trkpt lat="40.065728085518224" lon="15.748855066874347"><ele>563.0</ele><time>2026-04-26T09:49:18.999Z</time></trkpt><trkpt lat="40.065722510682555" lon="15.749007144936396"><ele>563.0</ele><time>2026-04-26T09:49:19.999Z</time></trkpt><trkpt lat="40.06573668462226" lon="15.749168033324286"><ele>563.0</ele><time>2026-04-26T09:49:20.999Z</time></trkpt><trkpt lat="40.065756380855426" lon="15.749329014649895"><ele>561.5</ele><time>2026-04-26T09:49:21.999Z</time></trkpt><trkpt lat="40.06575608630217" lon="15.749491445131943"><ele>560.0</ele><time>2026-04-26T09:49:22.999Z</time></trkpt><trkpt lat="40.06572009176057" lon="15.749645077123466"><ele>558.5</ele><time>2026-04-26T09:49:23.999Z</time></trkpt><trkpt lat="40.06568879796665" lon="15.749780631585752"><ele>557.0</ele><time>2026-04-26T09:49:24.999Z</time></trkpt><trkpt lat="40.065644416982884" lon="15.749926482733244"><ele>557.0</ele><time>2026-04-26T09:49:25.999Z</time></trkpt><trkpt lat="40.0655889011713" lon="15.750078401811308"><ele>557.0</ele><time>2026-04-26T09:49:26.999Z</time></trkpt><trkpt lat="40.06553259901496" lon="15.75024127820769"><ele>557.0</ele><time>2026-04-26T09:49:27.999Z</time></trkpt><trkpt lat="40.0654803247989" lon="15.750386098427304"><ele>557.0</ele><time>2026-04-26T09:49:28.999Z</time></trkpt><trkpt lat="40.065427332251716" lon="15.750504734827462"><ele>555.2</ele><time>2026-04-26T09:49:29.999Z</time></trkpt><trkpt lat="40.06536913702893" lon="15.750604429603568"><ele>553.4000000000001</ele><time>2026-04-26T09:49:30.999Z</time></trkpt><trkpt lat="40.06530629338064" lon="15.750693652068097"><ele>551.5999999999999</ele><time>2026-04-26T09:49:31.999Z</time></trkpt><trkpt lat="40.06522975482864" lon="15.750790111097846"><ele>549.8</ele><time>2026-04-26T09:49:32.999Z</time></trkpt><trkpt lat="40.065154017737996" lon="15.75088311322815"><ele>548.0</ele><time>2026-04-26T09:49:33.999Z</time></trkpt><trkpt lat="40.06507571687166" lon="15.750979263480646"><ele>545.25</ele><time>2026-04-26T09:49:34.999Z</time></trkpt><trkpt lat="40.06500706702277" lon="15.751086811117819"><ele>542.5</ele><time>2026-04-26T09:49:35.999Z</time></trkpt><trkpt lat="40.06491663586856" lon="15.751206522290259"><ele>539.75</ele><time>2026-04-26T09:49:36.999Z</time></trkpt><trkpt lat="40.064822231135395" lon="15.751324576774744"><ele>537.0</ele><time>2026-04-26T09:49:37.999Z</time></trkpt><trkpt lat="40.064730343902816" lon="15.751458590602372"><ele>539.25</ele><time>2026-04-26T09:49:38.999Z</time></trkpt><trkpt lat="40.064645760391784" lon="15.751581952383104"><ele>541.5</ele><time>2026-04-26T09:49:39.999Z</time></trkpt><trkpt lat="40.06456039334846" lon="15.751706457026"><ele>543.75</ele><time>2026-04-26T09:49:40.999Z</time></trkpt><trkpt lat="40.06447604895767" lon="15.75182857895637"><ele>546.0</ele><time>2026-04-26T09:49:41.999Z</time></trkpt><trkpt lat="40.06440051666817" lon="15.751934294086135"><ele>546.0</ele><time>2026-04-26T09:49:42.999Z</time></trkpt><trkpt lat="40.06434549833583" lon="15.752032859638689"><ele>546.0</ele><time>2026-04-26T09:49:43.999Z</time></trkpt><trkpt lat="40.064264249818834" lon="15.75209446664848"><ele>546.0</ele><time>2026-04-26T09:49:44.999Z</time></trkpt><trkpt lat="40.06419722475545" lon="15.752184675058963"><ele>546.0</ele><time>2026-04-26T09:49:45.999Z</time></trkpt><trkpt lat="40.06414863733534" lon="15.752312241315776"><ele>546.0</ele><time>2026-04-26T09:49:46.999Z</time></trkpt><trkpt lat="40.06409330776649" lon="15.752417662569297"><ele>548.8</ele><time>2026-04-26T09:49:47.999Z</time></trkpt><trkpt lat="40.06409054701417" lon="15.752537002965944"><ele>551.6</ele><time>2026-04-26T09:49:48.999Z</time></trkpt><trkpt lat="40.06404249919158" lon="15.752641237797619"><ele>554.4</ele><time>2026-04-26T09:49:49.999Z</time></trkpt><trkpt lat="40.06399000932243" lon="15.752713625610982"><ele>557.2</ele><time>2026-04-26T09:49:50.999Z</time></trkpt><trkpt lat="40.06391760698078" lon="15.75278696611565"><ele>560.0</ele><time>2026-04-26T09:49:51.999Z</time></trkpt><trkpt lat="40.06385201397871" lon="15.752901839524151"><ele>560.0</ele><time>2026-04-26T09:49:52.999Z</time></trkpt><trkpt lat="40.06380554973269" lon="15.753012002974506"><ele>560.0</ele><time>2026-04-26T09:49:53.999Z</time></trkpt><trkpt lat="40.06376150470485" lon="15.753107041827036"><ele>560.0</ele><time>2026-04-26T09:49:54.999Z</time></trkpt><trkpt lat="40.063730464359416" lon="15.753211334396907"><ele>560.0</ele><time>2026-04-26T09:49:55.999Z</time></trkpt><trkpt lat="40.06368500651196" lon="15.75330788844063"><ele>560.0</ele><time>2026-04-26T09:49:56.999Z</time></trkpt><trkpt lat="40.06362443541308" lon="15.75340002359879"><ele>560.0</ele><time>2026-04-26T09:49:57.999Z</time></trkpt><trkpt lat="40.063573861465" lon="15.753499783091652"><ele>555.6</ele><time>2026-04-26T09:49:58.999Z</time></trkpt><trkpt lat="40.063533147864355" lon="15.75360134805471"><ele>551.2</ele><time>2026-04-26T09:49:59.999Z</time></trkpt><trkpt lat="40.06347107907345" lon="15.75368368002659"><ele>546.8</ele><time>2026-04-26T09:50:00.999Z</time></trkpt><trkpt lat="40.06341574195549" lon="15.753785357637012"><ele>542.4</ele><time>2026-04-26T09:50:01.999Z</time></trkpt><trkpt lat="40.06336119157273" lon="15.753880913481922"><ele>538.0</ele><time>2026-04-26T09:50:02.999Z</time></trkpt><trkpt lat="40.06329670899895" lon="15.753964386809532"><ele>538.8</ele><time>2026-04-26T09:50:03.999Z</time></trkpt><trkpt lat="40.063235261445605" lon="15.754065886431148"><ele>539.5999999999999</ele><time>2026-04-26T09:50:04.999Z</time></trkpt><trkpt lat="40.06317550597457" lon="15.75416768021078"><ele>540.4000000000001</ele><time>2026-04-26T09:50:05.999Z</time></trkpt><trkpt lat="40.0631117366272" lon="15.75427822581256"><ele>541.2</ele><time>2026-04-26T09:50:06.999Z</time></trkpt><trkpt lat="40.06302874932033" lon="15.754363327962936"><ele>542.0</ele><time>2026-04-26T09:50:07.999Z</time></trkpt><trkpt lat="40.06294689344661" lon="15.754464763973244"><ele>542.0</ele><time>2026-04-26T09:50:08.999Z</time></trkpt><trkpt lat="40.06287165889758" lon="15.75456927232558"><ele>542.0</ele><time>2026-04-26T09:50:09.999Z</time></trkpt><trkpt lat="40.062795691748924" lon="15.754645457307737"><ele>542.0</ele><time>2026-04-26T09:50:10.999Z</time></trkpt><trkpt lat="40.06272698620596" lon="15.754724976735476"><ele>542.0</ele><time>2026-04-26T09:50:11.999Z</time></trkpt><trkpt lat="40.062659799306935" lon="15.754817772762047"><ele>542.0</ele><time>2026-04-26T09:50:12.999Z</time></trkpt><trkpt lat="40.06257842179711" lon="15.75491729457236"><ele>542.0</ele><time>2026-04-26T09:50:13.999Z</time></trkpt><trkpt lat="40.062494975763784" lon="15.755020008274167"><ele>542.0</ele><time>2026-04-26T09:50:14.999Z</time></trkpt><trkpt lat="40.06241785904833" lon="15.755118696166404"><ele>542.0</ele><time>2026-04-26T09:50:15.999Z</time></trkpt><trkpt lat="40.062334351698425" lon="15.755190757405682"><ele>542.0</ele><time>2026-04-26T09:50:16.999Z</time></trkpt><trkpt lat="40.06226052809107" lon="15.755277357069598"><ele>542.0</ele><time>2026-04-26T09:50:17.999Z</time></trkpt><trkpt lat="40.06217604134465" lon="15.755391444338724"><ele>542.75</ele><time>2026-04-26T09:50:18.999Z</time></trkpt><trkpt lat="40.062076073834874" lon="15.755498972938616"><ele>543.5</ele><time>2026-04-26T09:50:19.999Z</time></trkpt><trkpt lat="40.061984099699266" lon="15.755625502356693"><ele>544.25</ele><time>2026-04-26T09:50:20.999Z</time></trkpt><trkpt lat="40.06188933604317" lon="15.755730380720394"><ele>545.0</ele><time>2026-04-26T09:50:21.999Z</time></trkpt><trkpt lat="40.06179476173" lon="15.75585690072844"><ele>545.0</ele><time>2026-04-26T09:50:22.999Z</time></trkpt><trkpt lat="40.06170193385568" lon="15.75599075578782"><ele>545.0</ele><time>2026-04-26T09:50:23.999Z</time></trkpt><trkpt lat="40.061630631619195" lon="15.756144642180434"><ele>545.0</ele><time>2026-04-26T09:50:24.999Z</time></trkpt><trkpt lat="40.06155297485429" lon="15.756263519676045"><ele>545.0</ele><time>2026-04-26T09:50:25.999Z</time></trkpt><trkpt lat="40.061498673651904" lon="15.756394429923168"><ele>546.4</ele><time>2026-04-26T09:50:26.999Z</time></trkpt><trkpt lat="40.06145165311817" lon="15.75651196887545"><ele>547.8</ele><time>2026-04-26T09:50:27.999Z</time></trkpt><trkpt lat="40.0614138465421" lon="15.75663716180291"><ele>549.2</ele><time>2026-04-26T09:50:28.999Z</time></trkpt><trkpt lat="40.06138271033409" lon="15.756777153097005"><ele>550.6</ele><time>2026-04-26T09:50:29.998Z</time></trkpt><trkpt lat="40.061353385253355" lon="15.756912206492267"><ele>552.0</ele><time>2026-04-26T09:50:30.998Z</time></trkpt><trkpt lat="40.06128969570886" lon="15.757045087601027"><ele>547.2</ele><time>2026-04-26T09:50:31.998Z</time></trkpt><trkpt lat="40.061231936887594" lon="15.757189498517414"><ele>542.4000000000001</ele><time>2026-04-26T09:50:32.998Z</time></trkpt><trkpt lat="40.06117433574176" lon="15.757309915227959"><ele>537.5999999999999</ele><time>2026-04-26T09:50:33.998Z</time></trkpt><trkpt lat="40.0611163014895" lon="15.75741507009037"><ele>532.8</ele><time>2026-04-26T09:50:34.998Z</time></trkpt><trkpt lat="40.06105168957527" lon="15.75750287105164"><ele>528.0</ele><time>2026-04-26T09:50:35.998Z</time></trkpt><trkpt lat="40.060963552440455" lon="15.757582542426565"><ele>528.0</ele><time>2026-04-26T09:50:36.998Z</time></trkpt><trkpt lat="40.06087436578303" lon="15.757663733992683"><ele>528.0</ele><time>2026-04-26T09:50:37.998Z</time></trkpt><trkpt lat="40.06079812951712" lon="15.75774268624931"><ele>528.0</ele><time>2026-04-26T09:50:38.998Z</time></trkpt><trkpt lat="40.06073920801034" lon="15.757792618385814"><ele>528.0</ele><time>2026-04-26T09:50:39.998Z</time></trkpt><trkpt lat="40.06068051753936" lon="15.757822767421366"><ele>528.0</ele><time>2026-04-26T09:50:40.998Z</time></trkpt><trkpt lat="40.06060101373101" lon="15.757848554559768"><ele>528.0</ele><time>2026-04-26T09:50:42Z</time></trkpt><trkpt lat="40.06050914660144" lon="15.757883354172984"><ele>526.1999999999999</ele><time>2026-04-26T09:50:43Z</time></trkpt><trkpt lat="40.060425776185426" lon="15.757939496342232"><ele>524.4</ele><time>2026-04-26T09:50:44Z</time></trkpt><trkpt lat="40.060341596606705" lon="15.75796830451879"><ele>522.5999999999999</ele><time>2026-04-26T09:50:45Z</time></trkpt><trkpt lat="40.06026088459935" lon="15.758004927978675"><ele>520.8</ele><time>2026-04-26T09:50:46Z</time></trkpt><trkpt lat="40.06018324677504" lon="15.758063484933968"><ele>519.0</ele><time>2026-04-26T09:50:47Z</time></trkpt><trkpt lat="40.06010734334484" lon="15.75815478663573"><ele>519.0</ele><time>2026-04-26T09:50:48Z</time></trkpt><trkpt lat="40.060036243635025" lon="15.758269412943033"><ele>519.0</ele><time>2026-04-26T09:50:49Z</time></trkpt><trkpt lat="40.059955834996465" lon="15.758386340161978"><ele>519.0</ele><time>2026-04-26T09:50:50Z</time></trkpt><trkpt lat="40.059879446639336" lon="15.758481451137657"><ele>519.0</ele><time>2026-04-26T09:50:51Z</time></trkpt><trkpt lat="40.059814466469376" lon="15.75857184460241"><ele>519.0</ele><time>2026-04-26T09:50:52Z</time></trkpt><trkpt lat="40.059767673377806" lon="15.758685683788924"><ele>522.6</ele><time>2026-04-26T09:50:53Z</time></trkpt><trkpt lat="40.059732846609805" lon="15.758820134900729"><ele>526.2</ele><time>2026-04-26T09:50:54Z</time></trkpt><trkpt lat="40.059699149436874" lon="15.758964288599126"><ele>529.8000000000001</ele><time>2026-04-26T09:50:55Z</time></trkpt><trkpt lat="40.05965863032005" lon="15.759090819129325"><ele>533.4</ele><time>2026-04-26T09:50:56Z</time></trkpt><trkpt lat="40.05961578043145" lon="15.759197445521147"><ele>537.0</ele><time>2026-04-26T09:50:57Z</time></trkpt><trkpt lat="40.05957803595234" lon="15.759295802246871"><ele>535.0</ele><time>2026-04-26T09:50:58Z</time></trkpt><trkpt lat="40.059541404996224" lon="15.759396904080495"><ele>533.0</ele><time>2026-04-26T09:50:59Z</time></trkpt><trkpt lat="40.05949763200113" lon="15.759537168796697"><ele>531.0</ele><time>2026-04-26T09:51:00Z</time></trkpt><trkpt lat="40.059423577564395" lon="15.75969595182707"><ele>529.0</ele><time>2026-04-26T09:51:01Z</time></trkpt><trkpt lat="40.059380652157735" lon="15.759852601417334"><ele>529.0</ele><time>2026-04-26T09:51:02Z</time></trkpt><trkpt lat="40.05932484177812" lon="15.760009962161133"><ele>529.0</ele><time>2026-04-26T09:51:03Z</time></trkpt><trkpt lat="40.059266005154754" lon="15.760153724023487"><ele>529.0</ele><time>2026-04-26T09:51:04Z</time></trkpt><trkpt lat="40.05918678247868" lon="15.760273835266037"><ele>529.0</ele><time>2026-04-26T09:51:05Z</time></trkpt><trkpt lat="40.059105765094564" lon="15.760386707096364"><ele>529.25</ele><time>2026-04-26T09:51:06Z</time></trkpt><trkpt lat="40.05900971280334" lon="15.76051355509891"><ele>529.5</ele><time>2026-04-26T09:51:07Z</time></trkpt><trkpt lat="40.05890936805093" lon="15.760649933106365"><ele>529.75</ele><time>2026-04-26T09:51:08Z</time></trkpt><trkpt lat="40.05881250241725" lon="15.760792677354457"><ele>530.0</ele><time>2026-04-26T09:51:09Z</time></trkpt><trkpt lat="40.05873956106369" lon="15.760930470005775"><ele>527.25</ele><time>2026-04-26T09:51:10Z</time></trkpt><trkpt lat="40.0586426188407" lon="15.761058672119411"><ele>524.5</ele><time>2026-04-26T09:51:11Z</time></trkpt><trkpt lat="40.05855884454517" lon="15.761187523063233"><ele>521.75</ele><time>2026-04-26T09:51:12Z</time></trkpt><trkpt lat="40.05847321965616" lon="15.761293081958582"><ele>519.0</ele><time>2026-04-26T09:51:13Z</time></trkpt><trkpt lat="40.05836949363023" lon="15.761330620592716"><ele>521.0</ele><time>2026-04-26T09:51:14Z</time></trkpt><trkpt lat="40.05824110761614" lon="15.761333475785747"><ele>523.0</ele><time>2026-04-26T09:51:15Z</time></trkpt><trkpt lat="40.05813589457647" lon="15.761363627949242"><ele>525.0</ele><time>2026-04-26T09:51:15.999Z</time></trkpt><trkpt lat="40.05806079379839" lon="15.761329064026677"><ele>527.0</ele><time>2026-04-26T09:51:16.999Z</time></trkpt><trkpt lat="40.05799552204956" lon="15.761740312414208"><ele>527.0</ele><time>2026-04-26T09:51:17.999Z</time></trkpt><trkpt lat="40.05791842830373" lon="15.761844822693238"><ele>527.0</ele><time>2026-04-26T09:51:18.999Z</time></trkpt><trkpt lat="40.057836273209396" lon="15.761944433000455"><ele>527.0</ele><time>2026-04-26T09:51:19.999Z</time></trkpt><trkpt lat="40.057751154523324" lon="15.762027728496351"><ele>527.0</ele><time>2026-04-26T09:51:20.999Z</time></trkpt><trkpt lat="40.057664191932" lon="15.762112144155388"><ele>527.0</ele><time>2026-04-26T09:51:21.999Z</time></trkpt><trkpt lat="40.057567991845126" lon="15.762229410036715"><ele>527.75</ele><time>2026-04-26T09:51:22.999Z</time></trkpt><trkpt lat="40.057478114269244" lon="15.762335794578831"><ele>528.5</ele><time>2026-04-26T09:51:23.999Z</time></trkpt><trkpt lat="40.0573791694279" lon="15.762434201530343"><ele>529.25</ele><time>2026-04-26T09:51:24.999Z</time></trkpt><trkpt lat="40.05725895025297" lon="15.762525531692711"><ele>530.0</ele><time>2026-04-26T09:51:25.999Z</time></trkpt><trkpt lat="40.057151476155866" lon="15.762609426256724"><ele>527.25</ele><time>2026-04-26T09:51:26.999Z</time></trkpt><trkpt lat="40.057038644519594" lon="15.762723774404368"><ele>524.5</ele><time>2026-04-26T09:51:27.999Z</time></trkpt><trkpt lat="40.05691197219501" lon="15.76284894713441"><ele>521.75</ele><time>2026-04-26T09:51:28.999Z</time></trkpt><trkpt lat="40.0567940559451" lon="15.762958182586319"><ele>519.0</ele><time>2026-04-26T09:51:29.999Z</time></trkpt><trkpt lat="40.05668820833825" lon="15.763058485740133"><ele>520.0</ele><time>2026-04-26T09:51:30.999Z</time></trkpt><trkpt lat="40.05658962841397" lon="15.763143575309758"><ele>521.0</ele><time>2026-04-26T09:51:31.999Z</time></trkpt><trkpt lat="40.0564970674971" lon="15.763215536082887"><ele>522.0</ele><time>2026-04-26T09:51:32.999Z</time></trkpt><trkpt lat="40.05640667670435" lon="15.763277814077352"><ele>523.0</ele><time>2026-04-26T09:51:33.999Z</time></trkpt><trkpt lat="40.056319874248274" lon="15.763320696055484"><ele>524.0</ele><time>2026-04-26T09:51:34.999Z</time></trkpt><trkpt lat="40.05622003170993" lon="15.763336714807178"><ele>524.0</ele><time>2026-04-26T09:51:35.999Z</time></trkpt><trkpt lat="40.056121442516464" lon="15.763327178261235"><ele>524.0</ele><time>2026-04-26T09:51:36.999Z</time></trkpt><trkpt lat="40.0560348233034" lon="15.763287288864834"><ele>524.0</ele><time>2026-04-26T09:51:37.999Z</time></trkpt><trkpt lat="40.055952110890594" lon="15.76324008564053"><ele>524.0</ele><time>2026-04-26T09:51:38.999Z</time></trkpt><trkpt lat="40.05587356381572" lon="15.763171844698169"><ele>524.0</ele><time>2026-04-26T09:51:39.999Z</time></trkpt><trkpt lat="40.05580771527395" lon="15.76312266352696"><ele>524.0</ele><time>2026-04-26T09:51:40.999Z</time></trkpt><trkpt lat="40.05571017125033" lon="15.763132502464424"><ele>524.0</ele><time>2026-04-26T09:51:42.999Z</time></trkpt><trkpt lat="40.055663203460114" lon="15.763261123967052"><ele>524.0</ele><time>2026-04-26T09:51:44.999Z</time></trkpt><trkpt lat="40.05565279898565" lon="15.763362416345737"><ele>524.0</ele><time>2026-04-26T09:51:45.999Z</time></trkpt><trkpt lat="40.05565280004852" lon="15.763475578814216"><ele>524.0</ele><time>2026-04-26T09:51:46.999Z</time></trkpt><trkpt lat="40.055622058995745" lon="15.763571383258322"><ele>522.5</ele><time>2026-04-26T09:51:47.999Z</time></trkpt><trkpt lat="40.0555669834867" lon="15.76363808324963"><ele>521.0</ele><time>2026-04-26T09:51:48.999Z</time></trkpt><trkpt lat="40.05550580162693" lon="15.763678387145271"><ele>519.5</ele><time>2026-04-26T09:51:49.999Z</time></trkpt><trkpt lat="40.055425401207515" lon="15.76370734268607"><ele>518.0</ele><time>2026-04-26T09:51:50.999Z</time></trkpt><trkpt lat="40.05533012657539" lon="15.763700198708953"><ele>516.5</ele><time>2026-04-26T09:51:51.999Z</time></trkpt><trkpt lat="40.05523245976853" lon="15.763682981325982"><ele>515.0</ele><time>2026-04-26T09:51:52.999Z</time></trkpt><trkpt lat="40.05515172556271" lon="15.763687398778268"><ele>515.0</ele><time>2026-04-26T09:51:53.999Z</time></trkpt><trkpt lat="40.05509301808182" lon="15.76373309910656"><ele>515.0</ele><time>2026-04-26T09:51:54.999Z</time></trkpt><trkpt lat="40.05505005335149" lon="15.763839186335094"><ele>515.0</ele><time>2026-04-26T09:51:55.999Z</time></trkpt><trkpt lat="40.05500438343575" lon="15.763919856182579"><ele>515.0</ele><time>2026-04-26T09:51:56.999Z</time></trkpt><trkpt lat="40.05493834769768" lon="15.763953149040418"><ele>515.0</ele><time>2026-04-26T09:51:57.999Z</time></trkpt><trkpt lat="40.05484112618729" lon="15.763944772369662"><ele>515.0</ele><time>2026-04-26T09:51:58.999Z</time></trkpt><trkpt lat="40.05470174147126" lon="15.763933586176286"><ele>514.5</ele><time>2026-04-26T09:51:59.999Z</time></trkpt><trkpt lat="40.05454450994526" lon="15.763965494914576"><ele>514.0</ele><time>2026-04-26T09:52:00.999Z</time></trkpt><trkpt lat="40.054407650132845" lon="15.764017247400485"><ele>513.5</ele><time>2026-04-26T09:52:01.999Z</time></trkpt><trkpt lat="40.054288553617" lon="15.76405753835844"><ele>513.0</ele><time>2026-04-26T09:52:02.999Z</time></trkpt><trkpt lat="40.05417363178902" lon="15.764079623620018"><ele>512.25</ele><time>2026-04-26T09:52:03.999Z</time></trkpt><trkpt lat="40.05406249406302" lon="15.764098156100912"><ele>511.5</ele><time>2026-04-26T09:52:04.999Z</time></trkpt><trkpt lat="40.053943469302155" lon="15.764115394384648"><ele>510.75</ele><time>2026-04-26T09:52:05.999Z</time></trkpt><trkpt lat="40.05382047627712" lon="15.76413424120268"><ele>510.0</ele><time>2026-04-26T09:52:06.999Z</time></trkpt><trkpt lat="40.05370559029173" lon="15.764146418579758"><ele>510.0</ele><time>2026-04-26T09:52:07.999Z</time></trkpt><trkpt lat="40.05356868853298" lon="15.76413068972622"><ele>510.0</ele><time>2026-04-26T09:52:08.999Z</time></trkpt><trkpt lat="40.053426106880146" lon="15.764094520687841"><ele>510.0</ele><time>2026-04-26T09:52:09.999Z</time></trkpt><trkpt lat="40.05328798336308" lon="15.76404987591417"><ele>510.0</ele><time>2026-04-26T09:52:10.999Z</time></trkpt><trkpt lat="40.05315671002665" lon="15.763997150933353"><ele>508.5</ele><time>2026-04-26T09:52:11.999Z</time></trkpt><trkpt lat="40.053011911659276" lon="15.76392892309346"><ele>507.0</ele><time>2026-04-26T09:52:12.999Z</time></trkpt><trkpt lat="40.05287210446811" lon="15.763878875563693"><ele>505.5</ele><time>2026-04-26T09:52:13.999Z</time></trkpt><trkpt lat="40.0527662613794" lon="15.763853852974888"><ele>504.0</ele><time>2026-04-26T09:52:14.999Z</time></trkpt><trkpt lat="40.05267497662567" lon="15.763822306993022"><ele>504.0</ele><time>2026-04-26T09:52:15.999Z</time></trkpt><trkpt lat="40.05256265325654" lon="15.763764251184638"><ele>504.0</ele><time>2026-04-26T09:52:16.999Z</time></trkpt><trkpt lat="40.052440325216104" lon="15.763675909121428"><ele>504.0</ele><time>2026-04-26T09:52:17.999Z</time></trkpt><trkpt lat="40.05232776309303" lon="15.763589939906812"><ele>504.0</ele><time>2026-04-26T09:52:18.999Z</time></trkpt><trkpt lat="40.05221398080237" lon="15.76351583258816"><ele>504.75</ele><time>2026-04-26T09:52:19.999Z</time></trkpt><trkpt lat="40.05210767243868" lon="15.763438071041623"><ele>505.5</ele><time>2026-04-26T09:52:20.999Z</time></trkpt><trkpt lat="40.05199933280529" lon="15.763376995553562"><ele>506.25</ele><time>2026-04-26T09:52:21.999Z</time></trkpt><trkpt lat="40.051881937767966" lon="15.76332729548648"><ele>507.0</ele><time>2026-04-26T09:52:22.999Z</time></trkpt><trkpt lat="40.05177390385776" lon="15.763290375830088"><ele>507.0</ele><time>2026-04-26T09:52:23.999Z</time></trkpt><trkpt lat="40.05171148760417" lon="15.763264177269674"><ele>507.00000000000006</ele><time>2026-04-26T09:52:24.999Z</time></trkpt><trkpt lat="40.05161868011873" lon="15.76329756447531"><ele>507.00000000000006</ele><time>2026-04-26T09:52:26.999Z</time></trkpt><trkpt lat="40.05156345998204" lon="15.763383719622492"><ele>507.0</ele><time>2026-04-26T09:52:27.999Z</time></trkpt><trkpt lat="40.05150312741818" lon="15.763500947665138"><ele>507.0</ele><time>2026-04-26T09:52:28.999Z</time></trkpt><trkpt lat="40.051426748787954" lon="15.76359847429592"><ele>506.20000000000005</ele><time>2026-04-26T09:52:29.999Z</time></trkpt><trkpt lat="40.05133842531861" lon="15.76368898120481"><ele>505.40000000000003</ele><time>2026-04-26T09:52:30.999Z</time></trkpt><trkpt lat="40.05125416838825" lon="15.76379418983404"><ele>504.59999999999997</ele><time>2026-04-26T09:52:31.999Z</time></trkpt><trkpt lat="40.05117424576478" lon="15.763888157345962"><ele>503.79999999999995</ele><time>2026-04-26T09:52:32.999Z</time></trkpt><trkpt lat="40.05108132037083" lon="15.763955929668883"><ele>503.0</ele><time>2026-04-26T09:52:33.998Z</time></trkpt><trkpt lat="40.050984416277004" lon="15.764002053524289"><ele>503.0</ele><time>2026-04-26T09:52:34.998Z</time></trkpt><trkpt lat="40.05087053291811" lon="15.764016502945356"><ele>502.99999999999994</ele><time>2026-04-26T09:52:35.998Z</time></trkpt><trkpt lat="40.05077689766103" lon="15.76403009315557"><ele>502.99999999999994</ele><time>2026-04-26T09:52:36.998Z</time></trkpt><trkpt lat="40.050696556916805" lon="15.764023161920946"><ele>503.0</ele><time>2026-04-26T09:52:37.998Z</time></trkpt><trkpt lat="40.05059861927084" lon="15.763986843975776"><ele>503.0</ele><time>2026-04-26T09:52:38.998Z</time></trkpt><trkpt lat="40.05048866954056" lon="15.763939118626165"><ele>503.59999999999997</ele><time>2026-04-26T09:52:39.998Z</time></trkpt><trkpt lat="40.05037695987087" lon="15.763926674879931"><ele>504.19999999999993</ele><time>2026-04-26T09:52:40.998Z</time></trkpt><trkpt lat="40.050285799773356" lon="15.763942448393767"><ele>504.8</ele><time>2026-04-26T09:52:41.998Z</time></trkpt><trkpt lat="40.050217710190005" lon="15.763974176180355"><ele>505.4</ele><time>2026-04-26T09:52:42.998Z</time></trkpt><trkpt lat="40.05016598513529" lon="15.764030489194369"><ele>506.0</ele><time>2026-04-26T09:52:43.998Z</time></trkpt><trkpt lat="40.050107339237314" lon="15.764146744508794"><ele>506.0</ele><time>2026-04-26T09:52:44.998Z</time></trkpt><trkpt lat="40.05006104579014" lon="15.764261554584106"><ele>506.0</ele><time>2026-04-26T09:52:45.998Z</time></trkpt><trkpt lat="40.04995012199171" lon="15.764348139538908"><ele>506.0</ele><time>2026-04-26T09:52:48Z</time></trkpt><trkpt lat="40.04982404398727" lon="15.76438627523396"><ele>506.0</ele><time>2026-04-26T09:52:49Z</time></trkpt><trkpt lat="40.04969152231025" lon="15.764429313519768"><ele>505.8</ele><time>2026-04-26T09:52:50Z</time></trkpt><trkpt lat="40.049596981392554" lon="15.764488162282934"><ele>505.6</ele><time>2026-04-26T09:52:51Z</time></trkpt><trkpt lat="40.04949886315661" lon="15.764521310889204"><ele>505.4</ele><time>2026-04-26T09:52:52Z</time></trkpt><trkpt lat="40.04941916237459" lon="15.764541926150219"><ele>505.2</ele><time>2026-04-26T09:52:53Z</time></trkpt><trkpt lat="40.049353943482444" lon="15.764537905904133"><ele>505.0</ele><time>2026-04-26T09:52:54Z</time></trkpt><trkpt lat="40.04926327774118" lon="15.764489938239647"><ele>505.00000000000006</ele><time>2026-04-26T09:52:55Z</time></trkpt><trkpt lat="40.04916810495401" lon="15.76441914676574"><ele>505.0</ele><time>2026-04-26T09:52:56Z</time></trkpt><trkpt lat="40.04907904429391" lon="15.764353671335645"><ele>505.0</ele><time>2026-04-26T09:52:57Z</time></trkpt><trkpt lat="40.04900057812183" lon="15.764327882493447"><ele>505.0</ele><time>2026-04-26T09:52:58Z</time></trkpt><trkpt lat="40.04892504103712" lon="15.76429025154433"><ele>505.00000000000006</ele><time>2026-04-26T09:52:59Z</time></trkpt><trkpt lat="40.04886365005843" lon="15.764247532644603"><ele>505.0</ele><time>2026-04-26T09:53:00Z</time></trkpt><trkpt lat="40.048807687424805" lon="15.764190370530974"><ele>502.4</ele><time>2026-04-26T09:53:01Z</time></trkpt><trkpt lat="40.04875435380369" lon="15.76411108209592"><ele>499.8</ele><time>2026-04-26T09:53:02Z</time></trkpt><trkpt lat="40.048689345611095" lon="15.76398397658773"><ele>497.20000000000005</ele><time>2026-04-26T09:53:03Z</time></trkpt><trkpt lat="40.04865629038137" lon="15.76387272892331"><ele>494.6</ele><time>2026-04-26T09:53:04Z</time></trkpt><trkpt lat="40.04860395595497" lon="15.7637803291251"><ele>492.0</ele><time>2026-04-26T09:53:05Z</time></trkpt><trkpt lat="40.048539654703184" lon="15.763680587315784"><ele>492.0</ele><time>2026-04-26T09:53:06Z</time></trkpt><trkpt lat="40.04848581801024" lon="15.763582063055212"><ele>492.00000000000006</ele><time>2026-04-26T09:53:07Z</time></trkpt><trkpt lat="40.048437869483514" lon="15.7634825276821"><ele>492.00000000000006</ele><time>2026-04-26T09:53:08Z</time></trkpt><trkpt lat="40.04838919561454" lon="15.763370140599458"><ele>492.0</ele><time>2026-04-26T09:53:09Z</time></trkpt><trkpt lat="40.0483396617394" lon="15.763227551980833"><ele>492.0</ele><time>2026-04-26T09:53:10Z</time></trkpt><trkpt lat="40.04828591509646" lon="15.76309997136231"><ele>492.20000000000005</ele><time>2026-04-26T09:53:11Z</time></trkpt><trkpt lat="40.048207284009465" lon="15.762983300277444"><ele>492.40000000000003</ele><time>2026-04-26T09:53:12Z</time></trkpt><trkpt lat="40.0481220897533" lon="15.762882423572563"><ele>492.59999999999997</ele><time>2026-04-26T09:53:13Z</time></trkpt><trkpt lat="40.048056256719065" lon="15.762788149656615"><ele>492.79999999999995</ele><time>2026-04-26T09:53:14Z</time></trkpt><trkpt lat="40.04800605575009" lon="15.762694379460589"><ele>493.0</ele><time>2026-04-26T09:53:15Z</time></trkpt><trkpt lat="40.04794629413821" lon="15.762586039642473"><ele>493.0</ele><time>2026-04-26T09:53:16Z</time></trkpt><trkpt lat="40.04789205135344" lon="15.762480637314864"><ele>492.99999999999994</ele><time>2026-04-26T09:53:17Z</time></trkpt><trkpt lat="40.047833624886565" lon="15.76237976859805"><ele>492.99999999999994</ele><time>2026-04-26T09:53:18Z</time></trkpt><trkpt lat="40.047762705950625" lon="15.762289778902185"><ele>493.0</ele><time>2026-04-26T09:53:19Z</time></trkpt><trkpt lat="40.04769214579306" lon="15.762220063219077"><ele>493.0</ele><time>2026-04-26T09:53:19.999Z</time></trkpt><trkpt lat="40.04762787035003" lon="15.762166021180613"><ele>493.00000000000006</ele><time>2026-04-26T09:53:20.999Z</time></trkpt><trkpt lat="40.047561641529626" lon="15.762115513300863"><ele>493.0</ele><time>2026-04-26T09:53:21.999Z</time></trkpt><trkpt lat="40.047496588911784" lon="15.762058965899211"><ele>493.0</ele><time>2026-04-26T09:53:22.999Z</time></trkpt><trkpt lat="40.04742370845542" lon="15.7620098357725"><ele>493.0</ele><time>2026-04-26T09:53:23.999Z</time></trkpt><trkpt lat="40.047353053763324" lon="15.761970414350456"><ele>493.00000000000006</ele><time>2026-04-26T09:53:24.999Z</time></trkpt><trkpt lat="40.04728004816259" lon="15.76193234687544"><ele>493.0</ele><time>2026-04-26T09:53:25.999Z</time></trkpt><trkpt lat="40.047199406986635" lon="15.761886779298068"><ele>492.00000000000006</ele><time>2026-04-26T09:53:26.999Z</time></trkpt><trkpt lat="40.047121428455455" lon="15.761815175212579"><ele>491.0</ele><time>2026-04-26T09:53:27.999Z</time></trkpt><trkpt lat="40.04706262407955" lon="15.761742682911533"><ele>490.0</ele><time>2026-04-26T09:53:28.999Z</time></trkpt><trkpt lat="40.0470105036566" lon="15.761664293416361"><ele>489.0</ele><time>2026-04-26T09:53:29.999Z</time></trkpt><trkpt lat="40.04694997630345" lon="15.761589628050787"><ele>488.00000000000006</ele><time>2026-04-26T09:53:30.999Z</time></trkpt><trkpt lat="40.04689786478903" lon="15.761506749378563"><ele>487.0</ele><time>2026-04-26T09:53:31.999Z</time></trkpt><trkpt lat="40.04679692154549" lon="15.761411894296794"><ele>487.0</ele><time>2026-04-26T09:53:33.999Z</time></trkpt><trkpt lat="40.04670675748457" lon="15.761371018007528"><ele>487.00000000000006</ele><time>2026-04-26T09:53:34.999Z</time></trkpt><trkpt lat="40.0466385838662" lon="15.761347526303178"><ele>487.00000000000006</ele><time>2026-04-26T09:53:35.999Z</time></trkpt><trkpt lat="40.04655351057433" lon="15.761207827398373"><ele>487.0</ele><time>2026-04-26T09:53:37.999Z</time></trkpt><trkpt lat="40.04653807448243" lon="15.76110536693382"><ele>487.0</ele><time>2026-04-26T09:53:38.999Z</time></trkpt><trkpt lat="40.04653052462594" lon="15.761005632016403"><ele>484.50000000000006</ele><time>2026-04-26T09:53:39.999Z</time></trkpt><trkpt lat="40.046522168242966" lon="15.760902311924081"><ele>482.0</ele><time>2026-04-26T09:53:40.999Z</time></trkpt><trkpt lat="40.04650034341756" lon="15.760800497396792"><ele>479.5</ele><time>2026-04-26T09:53:41.999Z</time></trkpt><trkpt lat="40.04646023950221" lon="15.760716022315767"><ele>477.0</ele><time>2026-04-26T09:53:42.999Z</time></trkpt><trkpt lat="40.046393590190945" lon="15.760658166295734"><ele>474.50000000000006</ele><time>2026-04-26T09:53:43.999Z</time></trkpt><trkpt lat="40.04629976646952" lon="15.76059363995262"><ele>472.0</ele><time>2026-04-26T09:53:44.999Z</time></trkpt><trkpt lat="40.04621672601995" lon="15.76051362361346"><ele>472.0</ele><time>2026-04-26T09:53:45.999Z</time></trkpt><trkpt lat="40.04612140128558" lon="15.760426527410994"><ele>472.00000000000006</ele><time>2026-04-26T09:53:46.999Z</time></trkpt><trkpt lat="40.04605444598197" lon="15.760363735919052"><ele>472.00000000000006</ele><time>2026-04-26T09:53:47.999Z</time></trkpt><trkpt lat="40.04599917529892" lon="15.760301728824556"><ele>472.0</ele><time>2026-04-26T09:53:48.999Z</time></trkpt><trkpt lat="40.045961044916446" lon="15.760210497555013"><ele>472.0</ele><time>2026-04-26T09:53:49.999Z</time></trkpt><trkpt lat="40.045937513606404" lon="15.760083626293401"><ele>476.20000000000005</ele><time>2026-04-26T09:53:50.999Z</time></trkpt><trkpt lat="40.04591643027221" lon="15.759921487181172"><ele>480.40000000000003</ele><time>2026-04-26T09:53:51.999Z</time></trkpt><trkpt lat="40.04589149992409" lon="15.759773221725498"><ele>484.59999999999997</ele><time>2026-04-26T09:53:52.999Z</time></trkpt><trkpt lat="40.045860315361395" lon="15.759639686879666"><ele>488.79999999999995</ele><time>2026-04-26T09:53:53.999Z</time></trkpt><trkpt lat="40.04583218616647" lon="15.759515772146042"><ele>493.0</ele><time>2026-04-26T09:53:54.999Z</time></trkpt><trkpt lat="40.045815827592385" lon="15.759401187106269"><ele>495.79999999999995</ele><time>2026-04-26T09:53:55.999Z</time></trkpt><trkpt lat="40.04580197955042" lon="15.759280664502421"><ele>498.59999999999997</ele><time>2026-04-26T09:53:56.999Z</time></trkpt><trkpt lat="40.04578396935538" lon="15.759152107733783"><ele>501.40000000000003</ele><time>2026-04-26T09:53:57.999Z</time></trkpt><trkpt lat="40.04577532851119" lon="15.75904420944851"><ele>504.20000000000005</ele><time>2026-04-26T09:53:58.999Z</time></trkpt><trkpt lat="40.04571923450584" lon="15.758913509347327"><ele>507.0</ele><time>2026-04-26T09:54:00.999Z</time></trkpt><trkpt lat="40.04565875585232" lon="15.758868733537923"><ele>504.71428571428567</ele><time>2026-04-26T09:54:01.999Z</time></trkpt><trkpt lat="40.045582892251126" lon="15.758842902545204"><ele>502.42857142857144</ele><time>2026-04-26T09:54:02.999Z</time></trkpt><trkpt lat="40.0455163235318" lon="15.758795579860593"><ele>500.1428571428571</ele><time>2026-04-26T09:54:03.999Z</time></trkpt><trkpt lat="40.04546947234288" lon="15.758720787910454"><ele>497.85714285714283</ele><time>2026-04-26T09:54:04.999Z</time></trkpt><trkpt lat="40.04543407008216" lon="15.75863307027712"><ele>495.57142857142856</ele><time>2026-04-26T09:54:05.999Z</time></trkpt><trkpt lat="40.04540949375659" lon="15.758548885110846"><ele>493.2857142857143</ele><time>2026-04-26T09:54:06.999Z</time></trkpt><trkpt lat="40.04538278206044" lon="15.758471418043396"><ele>491.0</ele><time>2026-04-26T09:54:07.999Z</time></trkpt><trkpt lat="40.04532168902966" lon="15.75832929281078"><ele>491.0</ele><time>2026-04-26T09:54:09.999Z</time></trkpt><trkpt lat="40.04526119695652" lon="15.758229948063496"><ele>491.0</ele><time>2026-04-26T09:54:11.999Z</time></trkpt><trkpt lat="40.04520569399364" lon="15.758126552047372"><ele>491.0</ele><time>2026-04-26T09:54:13.999Z</time></trkpt><trkpt lat="40.04514456248086" lon="15.758005025864323"><ele>491.0</ele><time>2026-04-26T09:54:15.999Z</time></trkpt><trkpt lat="40.04512790116891" lon="15.757893239550379"><ele>491.0</ele><time>2026-04-26T09:54:17.999Z</time></trkpt><trkpt lat="40.04514189362688" lon="15.757775242539061"><ele>492.20000000000005</ele><time>2026-04-26T09:54:19.999Z</time></trkpt><trkpt lat="40.04512367784554" lon="15.75768801275254"><ele>493.40000000000003</ele><time>2026-04-26T09:54:22.999Z</time></trkpt><trkpt lat="40.04508735499812" lon="15.757602267954852"><ele>494.6</ele><time>2026-04-26T09:54:24.999Z</time></trkpt><trkpt lat="40.0449978716946" lon="15.757417365063127"><ele>495.8</ele><time>2026-04-26T09:54:26.999Z</time></trkpt><trkpt lat="40.044933628280916" lon="15.757345026965131"><ele>497.0</ele><time>2026-04-26T09:54:28.999Z</time></trkpt><trkpt lat="40.044868012145805" lon="15.757211339438959"><ele>497.0</ele><time>2026-04-26T09:54:30.999Z</time></trkpt><trkpt lat="40.04479299056399" lon="15.75713548186086"><ele>497.00000000000006</ele><time>2026-04-26T09:54:32.999Z</time></trkpt><trkpt lat="40.04472626400388" lon="15.757128129532333"><ele>497.00000000000006</ele><time>2026-04-26T09:54:34.999Z</time></trkpt><trkpt lat="40.044609629231005" lon="15.757078867274993"><ele>497.0</ele><time>2026-04-26T09:54:44.998Z</time></trkpt><trkpt lat="40.04452600686211" lon="15.757049734735816"><ele>497.0</ele><time>2026-04-26T09:54:45.998Z</time></trkpt><trkpt lat="40.04441865203819" lon="15.75701500943856"><ele>496.99999999999994</ele><time>2026-04-26T09:54:47.998Z</time></trkpt><trkpt lat="40.044358390686625" lon="15.756972082355595"><ele>497.0</ele><time>2026-04-26T09:54:48.998Z</time></trkpt><trkpt lat="40.04430894153794" lon="15.756911724611154"><ele>497.0</ele><time>2026-04-26T09:54:49.998Z</time></trkpt><trkpt lat="40.04427032122444" lon="15.756832235887257"><ele>497.0</ele><time>2026-04-26T09:54:50.998Z</time></trkpt><trkpt lat="40.04422972701991" lon="15.7567426621887"><ele>496.99999999999994</ele><time>2026-04-26T09:54:51.998Z</time></trkpt><trkpt lat="40.04417801158959" lon="15.756605215430612"><ele>497.0</ele><time>2026-04-26T09:54:54Z</time></trkpt><trkpt lat="40.04416066585482" lon="15.756520052124287"><ele>498.66666666666663</ele><time>2026-04-26T09:54:55Z</time></trkpt><trkpt lat="40.04414071299885" lon="15.756418071729739"><ele>500.3333333333333</ele><time>2026-04-26T09:54:56Z</time></trkpt><trkpt lat="40.04411118035033" lon="15.756340412597748"><ele>502.0</ele><time>2026-04-26T09:54:57Z</time></trkpt><trkpt lat="40.04410118317935" lon="15.756202284483802"><ele>503.66666666666663</ele><time>2026-04-26T09:54:59Z</time></trkpt><trkpt lat="40.04408251752401" lon="15.756092997319275"><ele>505.3333333333333</ele><time>2026-04-26T09:55:00Z</time></trkpt><trkpt lat="40.04407335626142" lon="15.756005976232336"><ele>507.0</ele><time>2026-04-26T09:55:01Z</time></trkpt><trkpt lat="40.04406211404652" lon="15.755917653693256"><ele>510.0</ele><time>2026-04-26T09:55:02Z</time></trkpt><trkpt lat="40.04405229173299" lon="15.755734775790547"><ele>513.0</ele><time>2026-04-26T09:55:04Z</time></trkpt><trkpt lat="40.044037446315514" lon="15.755649069608191"><ele>516.0</ele><time>2026-04-26T09:55:05Z</time></trkpt><trkpt lat="40.04403085302189" lon="15.75551194852233"><ele>519.0</ele><time>2026-04-26T09:55:07Z</time></trkpt><trkpt lat="40.04401697114362" lon="15.755402984454669"><ele>522.0</ele><time>2026-04-26T09:55:09Z</time></trkpt><trkpt lat="40.04397957138759" lon="15.755280414587506"><ele>522.0</ele><time>2026-04-26T09:55:11Z</time></trkpt><trkpt lat="40.04393027764151" lon="15.755217620859677"><ele>522.0</ele><time>2026-04-26T09:55:13Z</time></trkpt><trkpt lat="40.04387266548131" lon="15.755165136662258"><ele>522.0</ele><time>2026-04-26T09:55:14Z</time></trkpt><trkpt lat="40.043765328714" lon="15.755167150391284"><ele>522.0</ele><time>2026-04-26T09:55:16Z</time></trkpt><trkpt lat="40.043657074750456" lon="15.755163651990852"><ele>522.0</ele><time>2026-04-26T09:55:18Z</time></trkpt><trkpt lat="40.043581626783755" lon="15.755096561193525"><ele>522.0</ele><time>2026-04-26T09:55:20Z</time></trkpt><trkpt lat="40.04351775061483" lon="15.754973526395462"><ele>523.1666666666666</ele><time>2026-04-26T09:55:22Z</time></trkpt><trkpt lat="40.04348588090793" lon="15.754895662944953"><ele>524.3333333333334</ele><time>2026-04-26T09:55:23Z</time></trkpt><trkpt lat="40.04342795246137" lon="15.754790785745575"><ele>525.5</ele><time>2026-04-26T09:55:24.999Z</time></trkpt><trkpt lat="40.04337926863981" lon="15.754685871125917"><ele>526.6666666666667</ele><time>2026-04-26T09:55:26.999Z</time></trkpt><trkpt lat="40.04333446398698" lon="15.754590637141856"><ele>527.8333333333334</ele><time>2026-04-26T09:55:28.999Z</time></trkpt><trkpt lat="40.043262863270584" lon="15.754508652373788"><ele>529.0</ele><time>2026-04-26T09:55:30.999Z</time></trkpt><trkpt lat="40.04315431630373" lon="15.754427718487724"><ele>529.0</ele><time>2026-04-26T09:55:32.999Z</time></trkpt><trkpt lat="40.04306848403221" lon="15.754362473748044"><ele>529.0</ele><time>2026-04-26T09:55:34.999Z</time></trkpt><trkpt lat="40.042985272953246" lon="15.754316832199128"><ele>529.0</ele><time>2026-04-26T09:55:36.999Z</time></trkpt><trkpt lat="40.04290453311641" lon="15.754270226876196"><ele>529.0</ele><time>2026-04-26T09:55:38.999Z</time></trkpt><trkpt lat="40.04298280595427" lon="15.754302648729603"><ele>529.0</ele><time>2026-04-26T09:56:07.999Z</time></trkpt><trkpt lat="40.04304682128896" lon="15.754338899605967"><ele>529.0</ele><time>2026-04-26T09:56:09.999Z</time></trkpt><trkpt lat="40.043128706648595" lon="15.75439666473438"><ele>529.0</ele><time>2026-04-26T09:56:11.999Z</time></trkpt><trkpt lat="40.04318781151239" lon="15.754448410141027"><ele>529.0</ele><time>2026-04-26T09:56:13.999Z</time></trkpt><trkpt lat="40.04324992701186" lon="15.754484854650142"><ele>529.0</ele><time>2026-04-26T09:56:15.999Z</time></trkpt><trkpt lat="40.04330542932477" lon="15.754535233264841"><ele>529.0</ele><time>2026-04-26T09:56:18.999Z</time></trkpt><trkpt lat="40.04336212974004" lon="15.754611775580143"><ele>529.0</ele><time>2026-04-26T09:56:25.999Z</time></trkpt><trkpt lat="40.04340665738658" lon="15.754708546543219"><ele>529.0</ele><time>2026-04-26T09:56:28.999Z</time></trkpt><trkpt lat="40.04348910405319" lon="15.754875528439369"><ele>530.1666666666667</ele><time>2026-04-26T09:56:30.999Z</time></trkpt><trkpt lat="40.04354714095648" lon="15.755002100538235"><ele>531.3333333333334</ele><time>2026-04-26T09:56:32.999Z</time></trkpt><trkpt lat="40.04359712285208" lon="15.755080394628722"><ele>532.5</ele><time>2026-04-26T09:56:34.999Z</time></trkpt><trkpt lat="40.04364980221577" lon="15.75513839513814"><ele>533.6666666666666</ele><time>2026-04-26T09:56:47.998Z</time></trkpt><trkpt lat="40.0435774861318" lon="15.755066113485304"><ele>534.8333333333333</ele><time>2026-04-26T09:57:14Z</time></trkpt><trkpt lat="40.04352419471828" lon="15.755004497629299"><ele>536.0</ele><time>2026-04-26T09:57:21Z</time></trkpt><trkpt lat="40.04345357050505" lon="15.755045349304856"><ele>536.0</ele><time>2026-04-26T09:57:25Z</time></trkpt><trkpt lat="40.04338033212468" lon="15.755082721882417"><ele>536.0</ele><time>2026-04-26T09:57:28Z</time></trkpt><trkpt lat="40.04331800337409" lon="15.7550521056612"><ele>536.0</ele><time>2026-04-26T09:57:29.999Z</time></trkpt><trkpt lat="40.04324764900883" lon="15.754999099229726"><ele>536.0</ele><time>2026-04-26T09:57:32.999Z</time></trkpt><trkpt lat="40.04314213791009" lon="15.755005933379321"><ele>536.0</ele><time>2026-04-26T09:57:36.999Z</time></trkpt><trkpt lat="40.04304162860579" lon="15.755051550326536"><ele>536.0</ele><time>2026-04-26T09:57:39.999Z</time></trkpt><trkpt lat="40.04297811234628" lon="15.755095220275708"><ele>534.8333333333333</ele><time>2026-04-26T09:57:42.999Z</time></trkpt><trkpt lat="40.042898596237336" lon="15.755157302358363"><ele>533.6666666666666</ele><time>2026-04-26T09:57:44.999Z</time></trkpt><trkpt lat="40.042830902170266" lon="15.755200949893998"><ele>532.5</ele><time>2026-04-26T09:57:47.999Z</time></trkpt><trkpt lat="40.04280072011688" lon="15.75527858508847"><ele>531.3333333333334</ele><time>2026-04-26T09:57:49.999Z</time></trkpt><trkpt lat="40.04274227730943" lon="15.75533905640183"><ele>530.1666666666667</ele><time>2026-04-26T09:57:52.999Z</time></trkpt><trkpt lat="40.0426790319722" lon="15.755391172735909"><ele>529.0</ele><time>2026-04-26T09:57:55.999Z</time></trkpt><trkpt lat="40.04262258651625" lon="15.75547400998227"><ele>526.1428571428571</ele><time>2026-04-26T09:57:59.999Z</time></trkpt><trkpt lat="40.042568655836156" lon="15.75553719679307"><ele>523.2857142857142</ele><time>2026-04-26T09:58:02.999Z</time></trkpt><trkpt lat="40.042520033664246" lon="15.755596538975594"><ele>520.4285714285713</ele><time>2026-04-26T09:58:05.999Z</time></trkpt><trkpt lat="40.04246620077606" lon="15.75564633501738"><ele>517.5714285714286</ele><time>2026-04-26T09:58:08.999Z</time></trkpt><trkpt lat="40.04246290283766" lon="15.755755208809575"><ele>514.7142857142857</ele><time>2026-04-26T09:58:12.999Z</time></trkpt><trkpt lat="40.042458246249105" lon="15.755853186908261"><ele>511.8571428571428</ele><time>2026-04-26T09:58:16.999Z</time></trkpt><trkpt lat="40.04248300499193" lon="15.75594709647935"><ele>508.99999999999994</ele><time>2026-04-26T09:58:19.999Z</time></trkpt><trkpt lat="40.042506904206185" lon="15.756064118164847"><ele>505.3333333333333</ele><time>2026-04-26T09:58:22.999Z</time></trkpt><trkpt lat="40.042477254041835" lon="15.756173135397425"><ele>501.66666666666663</ele><time>2026-04-26T09:58:25.999Z</time></trkpt><trkpt lat="40.042407656521064" lon="15.756242387189454"><ele>498.0</ele><time>2026-04-26T09:58:28.999Z</time></trkpt><trkpt lat="40.0423416024191" lon="15.756265911504334"><ele>494.33333333333337</ele><time>2026-04-26T09:58:30.999Z</time></trkpt><trkpt lat="40.042278836235724" lon="15.756254545012977"><ele>490.6666666666667</ele><time>2026-04-26T09:58:32.999Z</time></trkpt><trkpt lat="40.0421730336959" lon="15.756211315503087"><ele>487.0</ele><time>2026-04-26T09:58:35.999Z</time></trkpt><trkpt lat="40.04209966282512" lon="15.75618329987367"><ele>487.0</ele><time>2026-04-26T09:58:37.999Z</time></trkpt><trkpt lat="40.04202441918902" lon="15.756163262112347"><ele>487.0</ele><time>2026-04-26T09:58:40.999Z</time></trkpt><trkpt lat="40.04196556459645" lon="15.75612900236485"><ele>487.0</ele><time>2026-04-26T09:58:42.999Z</time></trkpt><trkpt lat="40.04195651271281" lon="15.756020791384817"><ele>487.0</ele><time>2026-04-26T09:58:45.999Z</time></trkpt><trkpt lat="40.04193682063667" lon="15.755936094918189"><ele>487.0</ele><time>2026-04-26T09:58:50.998Z</time></trkpt><trkpt lat="40.041874931633494" lon="15.755881418085039"><ele>487.0</ele><time>2026-04-26T09:58:55.998Z</time></trkpt><trkpt lat="40.041798770915705" lon="15.755883440845837"><ele>487.0</ele><time>2026-04-26T09:58:59.998Z</time></trkpt><trkpt lat="40.041731656540044" lon="15.755938632656415"><ele>487.00000000000006</ele><time>2026-04-26T09:59:05Z</time></trkpt><trkpt lat="40.041776456328314" lon="15.755999448922761"><ele>487.0</ele><time>2026-04-26T09:59:07Z</time></trkpt><trkpt lat="40.041783112399344" lon="15.756087454420543"><ele>487.0</ele><time>2026-04-26T10:00:50.999Z</time></trkpt><trkpt lat="40.04182971458021" lon="15.75622107703278"><ele>487.0</ele><time>2026-04-26T10:00:52.998Z</time></trkpt><trkpt lat="40.041862706738684" lon="15.756329076117543"><ele>487.00000000000006</ele><time>2026-04-26T10:00:53.998Z</time></trkpt><trkpt lat="40.04191790262248" lon="15.756444380142485"><ele>487.0</ele><time>2026-04-26T10:00:54.998Z</time></trkpt><trkpt lat="40.04199776609011" lon="15.7565549223073"><ele>483.20000000000005</ele><time>2026-04-26T10:00:55.998Z</time></trkpt><trkpt lat="40.04207858070171" lon="15.756653241242182"><ele>479.40000000000003</ele><time>2026-04-26T10:00:56.998Z</time></trkpt><trkpt lat="40.04214918613685" lon="15.756740926322058"><ele>475.59999999999997</ele><time>2026-04-26T10:00:57.998Z</time></trkpt><trkpt lat="40.04219221079425" lon="15.756803265681908"><ele>471.79999999999995</ele><time>2026-04-26T10:00:58.998Z</time></trkpt><trkpt lat="40.04225642766152" lon="15.75688758418241"><ele>468.0</ele><time>2026-04-26T10:01:00.998Z</time></trkpt><trkpt lat="40.042344422803716" lon="15.756901917951849"><ele>468.0</ele><time>2026-04-26T10:01:02.998Z</time></trkpt><trkpt lat="40.04245336854063" lon="15.756806941552398"><ele>467.99999999999994</ele><time>2026-04-26T10:01:04.998Z</time></trkpt><trkpt lat="40.04252499057225" lon="15.756731236894607"><ele>467.99999999999994</ele><time>2026-04-26T10:01:05.998Z</time></trkpt><trkpt lat="40.0425970179881" lon="15.756665254197891"><ele>468.0</ele><time>2026-04-26T10:01:06.998Z</time></trkpt><trkpt lat="40.04266707552083" lon="15.756636950952307"><ele>468.0</ele><time>2026-04-26T10:01:07.998Z</time></trkpt><trkpt lat="40.0427430068903" lon="15.756657417149414"><ele>467.2</ele><time>2026-04-26T10:01:08.998Z</time></trkpt><trkpt lat="40.042825605868416" lon="15.756716898742736"><ele>466.4</ele><time>2026-04-26T10:01:10Z</time></trkpt><trkpt lat="40.04289577808629" lon="15.756810708732239"><ele>465.59999999999997</ele><time>2026-04-26T10:01:11Z</time></trkpt><trkpt lat="40.04291298026428" lon="15.75692940451628"><ele>464.79999999999995</ele><time>2026-04-26T10:01:12Z</time></trkpt><trkpt lat="40.04293630941218" lon="15.757043490027963"><ele>464.0</ele><time>2026-04-26T10:01:13Z</time></trkpt><trkpt lat="40.04296322361007" lon="15.757153481699241"><ele>464.0</ele><time>2026-04-26T10:01:14Z</time></trkpt><trkpt lat="40.04304524209542" lon="15.757238903321966"><ele>464.0</ele><time>2026-04-26T10:01:15Z</time></trkpt><trkpt lat="40.04317056951392" lon="15.757309876705452"><ele>464.0</ele><time>2026-04-26T10:01:16Z</time></trkpt><trkpt lat="40.043294947128295" lon="15.757375102755313"><ele>464.0</ele><time>2026-04-26T10:01:17Z</time></trkpt><trkpt lat="40.043409809908944" lon="15.75742568502481"><ele>463.25</ele><time>2026-04-26T10:01:18Z</time></trkpt><trkpt lat="40.043496025790176" lon="15.757534340511183"><ele>462.5</ele><time>2026-04-26T10:01:19Z</time></trkpt><trkpt lat="40.04355733040113" lon="15.757658149123722"><ele>461.75</ele><time>2026-04-26T10:01:20Z</time></trkpt><trkpt lat="40.043632457999074" lon="15.757761658378753"><ele>461.0</ele><time>2026-04-26T10:01:21Z</time></trkpt><trkpt lat="40.04374330202655" lon="15.757814957382669"><ele>461.0</ele><time>2026-04-26T10:01:22Z</time></trkpt><trkpt lat="40.04386594070891" lon="15.757788339213901"><ele>461.0</ele><time>2026-04-26T10:01:23Z</time></trkpt><trkpt lat="40.04396661051207" lon="15.757791522916266"><ele>461.0</ele><time>2026-04-26T10:01:24Z</time></trkpt><trkpt lat="40.044051075564845" lon="15.75780938992956"><ele>461.0</ele><time>2026-04-26T10:01:25Z</time></trkpt><trkpt lat="40.04415045398756" lon="15.757878570427154"><ele>461.0</ele><time>2026-04-26T10:01:27Z</time></trkpt><trkpt lat="40.04414602717779" lon="15.758007195679253"><ele>461.0</ele><time>2026-04-26T10:01:29Z</time></trkpt><trkpt lat="40.044049917825376" lon="15.758035424203369"><ele>461.0</ele><time>2026-04-26T10:01:30Z</time></trkpt><trkpt lat="40.04394905703756" lon="15.758037393896704"><ele>461.0</ele><time>2026-04-26T10:01:31Z</time></trkpt><trkpt lat="40.043826231258436" lon="15.758095016221551"><ele>461.0</ele><time>2026-04-26T10:01:32Z</time></trkpt><trkpt lat="40.04372005857214" lon="15.758184058165956"><ele>461.0</ele><time>2026-04-26T10:01:33Z</time></trkpt><trkpt lat="40.04361486605278" lon="15.758283864743465"><ele>461.0</ele><time>2026-04-26T10:01:33.999Z</time></trkpt><trkpt lat="40.04350945734898" lon="15.758382874272908"><ele>461.0</ele><time>2026-04-26T10:01:34.999Z</time></trkpt><trkpt lat="40.04339964465997" lon="15.758471719173714"><ele>461.0</ele><time>2026-04-26T10:01:35.999Z</time></trkpt><trkpt lat="40.04328576580565" lon="15.758550470404558"><ele>455.25</ele><time>2026-04-26T10:01:36.999Z</time></trkpt><trkpt lat="40.04317872358074" lon="15.75862489934658"><ele>449.5</ele><time>2026-04-26T10:01:37.999Z</time></trkpt><trkpt lat="40.04307195447361" lon="15.758693234057557"><ele>443.75</ele><time>2026-04-26T10:01:38.999Z</time></trkpt><trkpt lat="40.042962108001824" lon="15.75873604677473"><ele>438.0</ele><time>2026-04-26T10:01:39.999Z</time></trkpt><trkpt lat="40.04283618379395" lon="15.758758161305375"><ele>438.0</ele><time>2026-04-26T10:01:40.999Z</time></trkpt><trkpt lat="40.04270467795499" lon="15.75876641343965"><ele>438.0</ele><time>2026-04-26T10:01:41.999Z</time></trkpt><trkpt lat="40.04257407079229" lon="15.75876682312558"><ele>438.0</ele><time>2026-04-26T10:01:42.999Z</time></trkpt><trkpt lat="40.04245095623974" lon="15.758763015925064"><ele>438.0</ele><time>2026-04-26T10:01:43.999Z</time></trkpt><trkpt lat="40.0423294002319" lon="15.758758681568906"><ele>436.1666666666667</ele><time>2026-04-26T10:01:44.999Z</time></trkpt><trkpt lat="40.04222624937641" lon="15.758755003487686"><ele>434.33333333333337</ele><time>2026-04-26T10:01:45.999Z</time></trkpt><trkpt lat="40.042145251102404" lon="15.758754430645102"><ele>432.5</ele><time>2026-04-26T10:01:46.999Z</time></trkpt><trkpt lat="40.04207310501913" lon="15.758766598654471"><ele>430.6666666666667</ele><time>2026-04-26T10:01:47.999Z</time></trkpt><trkpt lat="40.04200239243602" lon="15.758879977638886"><ele>428.83333333333337</ele><time>2026-04-26T10:01:49.999Z</time></trkpt><trkpt lat="40.04201309467436" lon="15.758978272818345"><ele>427.0</ele><time>2026-04-26T10:01:50.999Z</time></trkpt><trkpt lat="40.042064311635045" lon="15.759098438065733"><ele>427.0</ele><time>2026-04-26T10:01:51.999Z</time></trkpt><trkpt lat="40.042154303133174" lon="15.759226736118086"><ele>427.0</ele><time>2026-04-26T10:01:52.999Z</time></trkpt><trkpt lat="40.042242349744605" lon="15.759330549379216"><ele>427.0</ele><time>2026-04-26T10:01:53.999Z</time></trkpt><trkpt lat="40.04233396571728" lon="15.759419459813438"><ele>427.0</ele><time>2026-04-26T10:01:54.999Z</time></trkpt><trkpt lat="40.04243856372689" lon="15.759489770520437"><ele>424.75</ele><time>2026-04-26T10:01:55.999Z</time></trkpt><trkpt lat="40.0425503766961" lon="15.75955732709168"><ele>422.5</ele><time>2026-04-26T10:01:56.999Z</time></trkpt><trkpt lat="40.04266181667147" lon="15.759628976350774"><ele>420.25</ele><time>2026-04-26T10:01:57.999Z</time></trkpt><trkpt lat="40.04277046494155" lon="15.759712245917676"><ele>418.0</ele><time>2026-04-26T10:01:58.999Z</time></trkpt><trkpt lat="40.042867088086965" lon="15.759814153230826"><ele>418.0</ele><time>2026-04-26T10:01:59.999Z</time></trkpt><trkpt lat="40.042948193703715" lon="15.759904160565709"><ele>418.0</ele><time>2026-04-26T10:02:00.999Z</time></trkpt><trkpt lat="40.04304820592651" lon="15.759948988424755"><ele>418.0</ele><time>2026-04-26T10:02:01.999Z</time></trkpt><trkpt lat="40.043176437189466" lon="15.7599559552448"><ele>418.0</ele><time>2026-04-26T10:02:02.999Z</time></trkpt><trkpt lat="40.04328805849066" lon="15.759977050572967"><ele>418.0</ele><time>2026-04-26T10:02:03.999Z</time></trkpt><trkpt lat="40.04338358292677" lon="15.760039504839474"><ele>418.0</ele><time>2026-04-26T10:02:04.999Z</time></trkpt><trkpt lat="40.04346665772328" lon="15.760166393610039"><ele>418.0</ele><time>2026-04-26T10:02:05.999Z</time></trkpt><trkpt lat="40.043580491381384" lon="15.760201165349493"><ele>418.0</ele><time>2026-04-26T10:02:06.999Z</time></trkpt><trkpt lat="40.043685436925706" lon="15.760249678682039"><ele>412.75</ele><time>2026-04-26T10:02:07.999Z</time></trkpt><trkpt lat="40.04376166625321" lon="15.760351162173615"><ele>407.5</ele><time>2026-04-26T10:02:08.999Z</time></trkpt><trkpt lat="40.043821912094344" lon="15.760482693455316"><ele>402.25</ele><time>2026-04-26T10:02:09.999Z</time></trkpt><trkpt lat="40.04389560181363" lon="15.760618934862245"><ele>397.0</ele><time>2026-04-26T10:02:10.999Z</time></trkpt><trkpt lat="40.04397205605247" lon="15.760761763162634"><ele>397.0</ele><time>2026-04-26T10:02:11.999Z</time></trkpt><trkpt lat="40.044050764791166" lon="15.76090624860605"><ele>397.0</ele><time>2026-04-26T10:02:12.999Z</time></trkpt><trkpt lat="40.0441421951458" lon="15.761043957581052"><ele>397.0</ele><time>2026-04-26T10:02:13.999Z</time></trkpt><trkpt lat="40.044208614346715" lon="15.761190904676589"><ele>397.0</ele><time>2026-04-26T10:02:14.999Z</time></trkpt><trkpt lat="40.04427060835871" lon="15.761304069763584"><ele>393.8</ele><time>2026-04-26T10:02:15.999Z</time></trkpt><trkpt lat="40.04430410552197" lon="15.761378250767203"><ele>390.6</ele><time>2026-04-26T10:02:16.999Z</time></trkpt><trkpt lat="40.04433227883532" lon="15.761482977354069"><ele>387.40000000000003</ele><time>2026-04-26T10:02:18.999Z</time></trkpt><trkpt lat="40.0443767280235" lon="15.761555605063624"><ele>384.20000000000005</ele><time>2026-04-26T10:02:20.999Z</time></trkpt><trkpt lat="40.044434812091254" lon="15.761726478475842"><ele>381.0</ele><time>2026-04-26T10:02:22.999Z</time></trkpt><trkpt lat="40.04448955262238" lon="15.761810622572714"><ele>379.0</ele><time>2026-04-26T10:02:23.999Z</time></trkpt><trkpt lat="40.044535291463056" lon="15.76190808911181"><ele>377.0</ele><time>2026-04-26T10:02:24.999Z</time></trkpt><trkpt lat="40.04459393072358" lon="15.762003489386514"><ele>375.0</ele><time>2026-04-26T10:02:25.999Z</time></trkpt><trkpt lat="40.044639398249785" lon="15.762112837128727"><ele>373.0</ele><time>2026-04-26T10:02:26.999Z</time></trkpt><trkpt lat="40.044711492656795" lon="15.762213958434186"><ele>371.0</ele><time>2026-04-26T10:02:27.999Z</time></trkpt><trkpt lat="40.04475966863675" lon="15.762325977940987"><ele>371.0</ele><time>2026-04-26T10:02:28.999Z</time></trkpt><trkpt lat="40.04479905416833" lon="15.76242976650215"><ele>371.0</ele><time>2026-04-26T10:02:29.999Z</time></trkpt><trkpt lat="40.04481744001458" lon="15.762554049421867"><ele>371.0</ele><time>2026-04-26T10:02:30.999Z</time></trkpt><trkpt lat="40.044873219722795" lon="15.762686299458476"><ele>371.0</ele><time>2026-04-26T10:02:31.999Z</time></trkpt><trkpt lat="40.04493254817866" lon="15.76283212755568"><ele>371.0</ele><time>2026-04-26T10:02:32.999Z</time></trkpt><trkpt lat="40.044999410920994" lon="15.762968734842868"><ele>370.6</ele><time>2026-04-26T10:02:33.999Z</time></trkpt><trkpt lat="40.04506370867056" lon="15.763093640364081"><ele>370.20000000000005</ele><time>2026-04-26T10:02:34.999Z</time></trkpt><trkpt lat="40.04511068550454" lon="15.763221573013332"><ele>369.79999999999995</ele><time>2026-04-26T10:02:35.999Z</time></trkpt><trkpt lat="40.04514221966134" lon="15.763336883519308"><ele>369.4</ele><time>2026-04-26T10:02:36.999Z</time></trkpt><trkpt lat="40.04515829224703" lon="15.763465139614816"><ele>369.0</ele><time>2026-04-26T10:02:37.999Z</time></trkpt><trkpt lat="40.045211119229506" lon="15.763611452878331"><ele>366.5</ele><time>2026-04-26T10:02:38.999Z</time></trkpt><trkpt lat="40.04525454243266" lon="15.763754043030168"><ele>364.0</ele><time>2026-04-26T10:02:39.999Z</time></trkpt><trkpt lat="40.04530643010131" lon="15.763882314434136"><ele>361.5</ele><time>2026-04-26T10:02:40.999Z</time></trkpt><trkpt lat="40.04535875675501" lon="15.764002496499346"><ele>359.0</ele><time>2026-04-26T10:02:41.999Z</time></trkpt><trkpt lat="40.04542350638511" lon="15.764134714550698"><ele>359.0</ele><time>2026-04-26T10:02:42.999Z</time></trkpt><trkpt lat="40.0454692793246" lon="15.764257598582276"><ele>359.0</ele><time>2026-04-26T10:02:43.999Z</time></trkpt><trkpt lat="40.0455160822866" lon="15.764376158160095"><ele>359.0</ele><time>2026-04-26T10:02:44.999Z</time></trkpt><trkpt lat="40.045565669354524" lon="15.764496878114429"><ele>359.0</ele><time>2026-04-26T10:02:45.999Z</time></trkpt><trkpt lat="40.04559433854138" lon="15.76464245283041"><ele>359.0</ele><time>2026-04-26T10:02:46.999Z</time></trkpt><trkpt lat="40.04559778698013" lon="15.764798802082941"><ele>356.25</ele><time>2026-04-26T10:02:47.999Z</time></trkpt><trkpt lat="40.04564278572703" lon="15.764957892457184"><ele>353.5</ele><time>2026-04-26T10:02:48.999Z</time></trkpt><trkpt lat="40.04567517312137" lon="15.765107351058939"><ele>350.75</ele><time>2026-04-26T10:02:49.999Z</time></trkpt><trkpt lat="40.045731906466216" lon="15.765236231191695"><ele>348.0</ele><time>2026-04-26T10:02:50.999Z</time></trkpt><trkpt lat="40.04578598896479" lon="15.765396887079067"><ele>350.2</ele><time>2026-04-26T10:02:51.999Z</time></trkpt><trkpt lat="40.045838836438946" lon="15.765543697123471"><ele>352.4</ele><time>2026-04-26T10:02:52.999Z</time></trkpt><trkpt lat="40.04589067772107" lon="15.76567765190763"><ele>354.59999999999997</ele><time>2026-04-26T10:02:53.999Z</time></trkpt><trkpt lat="40.045929337946696" lon="15.765793008102586"><ele>356.79999999999995</ele><time>2026-04-26T10:02:54.998Z</time></trkpt><trkpt lat="40.04596313022594" lon="15.76590501498326"><ele>359.0</ele><time>2026-04-26T10:02:55.998Z</time></trkpt><trkpt lat="40.045993689955694" lon="15.766015401804232"><ele>357.79999999999995</ele><time>2026-04-26T10:02:56.998Z</time></trkpt><trkpt lat="40.04602622537765" lon="15.766131839420092"><ele>356.59999999999997</ele><time>2026-04-26T10:02:57.998Z</time></trkpt><trkpt lat="40.046053006119166" lon="15.76626898793422"><ele>355.4</ele><time>2026-04-26T10:02:58.998Z</time></trkpt><trkpt lat="40.04609166761834" lon="15.76640504530548"><ele>354.2</ele><time>2026-04-26T10:02:59.998Z</time></trkpt><trkpt lat="40.046130375894634" lon="15.766536979628501"><ele>353.0</ele><time>2026-04-26T10:03:00.998Z</time></trkpt><trkpt lat="40.04617156011988" lon="15.766666222505046"><ele>353.0</ele><time>2026-04-26T10:03:01.998Z</time></trkpt><trkpt lat="40.046215219482455" lon="15.766791147255045"><ele>353.0</ele><time>2026-04-26T10:03:02.998Z</time></trkpt><trkpt lat="40.04623263248804" lon="15.766907527770172"><ele>353.0</ele><time>2026-04-26T10:03:03.998Z</time></trkpt><trkpt lat="40.046277699463964" lon="15.767030037642213"><ele>353.0</ele><time>2026-04-26T10:03:05.998Z</time></trkpt><trkpt lat="40.04627746145389" lon="15.76712578751872"><ele>353.0</ele><time>2026-04-26T10:03:07.998Z</time></trkpt><trkpt lat="40.04628864939497" lon="15.767228773055153"><ele>351.79999999999995</ele><time>2026-04-26T10:03:10.998Z</time></trkpt><trkpt lat="40.046306582016506" lon="15.767363510506527"><ele>350.6</ele><time>2026-04-26T10:03:12.998Z</time></trkpt><trkpt lat="40.046337612944214" lon="15.76754095846837"><ele>349.4</ele><time>2026-04-26T10:03:16Z</time></trkpt><trkpt lat="40.0463556812987" lon="15.767630842942038"><ele>348.20000000000005</ele><time>2026-04-26T10:03:17Z</time></trkpt><trkpt lat="40.046406351175" lon="15.767788767420587"><ele>347.0</ele><time>2026-04-26T10:03:19Z</time></trkpt><trkpt lat="40.046436001650264" lon="15.767903874917641"><ele>344.75</ele><time>2026-04-26T10:03:20Z</time></trkpt><trkpt lat="40.046472072058904" lon="15.768021685663133"><ele>342.5</ele><time>2026-04-26T10:03:21Z</time></trkpt><trkpt lat="40.04650886033235" lon="15.768145762268594"><ele>340.25</ele><time>2026-04-26T10:03:22Z</time></trkpt><trkpt lat="40.04656064995434" lon="15.768312579248049"><ele>338.0</ele><time>2026-04-26T10:03:23Z</time></trkpt><trkpt lat="40.046616048884644" lon="15.768487890963584"><ele>338.75</ele><time>2026-04-26T10:03:24Z</time></trkpt><trkpt lat="40.04667185878137" lon="15.768699032249575"><ele>339.5</ele><time>2026-04-26T10:03:25Z</time></trkpt><trkpt lat="40.04672914862863" lon="15.768867591097946"><ele>340.25</ele><time>2026-04-26T10:03:26Z</time></trkpt><trkpt lat="40.04677306721617" lon="15.769017829674992"><ele>341.0</ele><time>2026-04-26T10:03:27Z</time></trkpt><trkpt lat="40.046814006055314" lon="15.769153023102998"><ele>341.0</ele><time>2026-04-26T10:03:28Z</time></trkpt><trkpt lat="40.04686938404566" lon="15.769284401075597"><ele>341.0</ele><time>2026-04-26T10:03:29Z</time></trkpt><trkpt lat="40.046921311123185" lon="15.76939969123322"><ele>341.0</ele><time>2026-04-26T10:03:30Z</time></trkpt><trkpt lat="40.046964965711396" lon="15.769502785764228"><ele>341.0</ele><time>2026-04-26T10:03:31Z</time></trkpt><trkpt lat="40.047022445107444" lon="15.769604170460022"><ele>341.0</ele><time>2026-04-26T10:03:32Z</time></trkpt><trkpt lat="40.047098834675104" lon="15.769683643984974"><ele>341.25</ele><time>2026-04-26T10:03:33Z</time></trkpt><trkpt lat="40.04718124372385" lon="15.76974023280053"><ele>341.5</ele><time>2026-04-26T10:03:34Z</time></trkpt><trkpt lat="40.04727728519128" lon="15.76977755201871"><ele>341.75</ele><time>2026-04-26T10:03:35Z</time></trkpt><trkpt lat="40.04741469465764" lon="15.769826100018324"><ele>342.0</ele><time>2026-04-26T10:03:35.999Z</time></trkpt><trkpt lat="40.04756561727164" lon="15.76987324097205"><ele>342.0</ele><time>2026-04-26T10:03:36.999Z</time></trkpt><trkpt lat="40.04771464163337" lon="15.769942917106983"><ele>342.0</ele><time>2026-04-26T10:03:37.999Z</time></trkpt><trkpt lat="40.04785767227202" lon="15.769995436001512"><ele>342.0</ele><time>2026-04-26T10:03:38.999Z</time></trkpt><trkpt lat="40.04796427540999" lon="15.77003191779055"><ele>342.0</ele><time>2026-04-26T10:03:39.999Z</time></trkpt><trkpt lat="40.048052276452125" lon="15.770075370385003"><ele>342.0</ele><time>2026-04-26T10:03:40.999Z</time></trkpt><trkpt lat="40.04808337589867" lon="15.77015142773778"><ele>342.0</ele><time>2026-04-26T10:03:41.999Z</time></trkpt><trkpt lat="40.04810332533256" lon="15.770239095212244"><ele>342.0</ele><time>2026-04-26T10:03:44.999Z</time></trkpt><trkpt lat="40.04813968659539" lon="15.77036498644772"><ele>342.0</ele><time>2026-04-26T10:03:45.999Z</time></trkpt><trkpt lat="40.048134885768725" lon="15.770538621052342"><ele>342.0</ele><time>2026-04-26T10:03:46.999Z</time></trkpt><trkpt lat="40.0481628613985" lon="15.770701556953922"><ele>338.8</ele><time>2026-04-26T10:03:47.999Z</time></trkpt><trkpt lat="40.04817007016797" lon="15.770851517843939"><ele>335.6</ele><time>2026-04-26T10:03:48.999Z</time></trkpt><trkpt lat="40.048181194129995" lon="15.771005275869621"><ele>332.40000000000003</ele><time>2026-04-26T10:03:49.999Z</time></trkpt><trkpt lat="40.048193355774146" lon="15.77115307143211"><ele>329.20000000000005</ele><time>2026-04-26T10:03:50.999Z</time></trkpt><trkpt lat="40.048186965908165" lon="15.77128387866988"><ele>326.0</ele><time>2026-04-26T10:03:51.999Z</time></trkpt><trkpt lat="40.04821124989372" lon="15.771406856770868"><ele>323.83333333333337</ele><time>2026-04-26T10:03:52.999Z</time></trkpt><trkpt lat="40.048205192466696" lon="15.771528337887498"><ele>321.6666666666667</ele><time>2026-04-26T10:03:53.999Z</time></trkpt><trkpt lat="40.048214374112895" lon="15.771641281142392"><ele>319.5</ele><time>2026-04-26T10:03:54.999Z</time></trkpt><trkpt lat="40.048224995854" lon="15.771740795779472"><ele>317.3333333333333</ele><time>2026-04-26T10:03:55.999Z</time></trkpt><trkpt lat="40.048261390633655" lon="15.771839119986025"><ele>315.16666666666663</ele><time>2026-04-26T10:03:56.999Z</time></trkpt><trkpt lat="40.04830338294697" lon="15.77196401529609"><ele>313.0</ele><time>2026-04-26T10:03:57.999Z</time></trkpt><trkpt lat="40.04835127945725" lon="15.772087200061094"><ele>313.0</ele><time>2026-04-26T10:03:58.999Z</time></trkpt><trkpt lat="40.0483789476664" lon="15.772214835546816"><ele>313.0</ele><time>2026-04-26T10:03:59.999Z</time></trkpt><trkpt lat="40.04842571877765" lon="15.772326014993302"><ele>313.0</ele><time>2026-04-26T10:04:00.999Z</time></trkpt><trkpt lat="40.04849248587552" lon="15.772415963917336"><ele>313.0</ele><time>2026-04-26T10:04:01.999Z</time></trkpt><trkpt lat="40.048541898888516" lon="15.772497987682327"><ele>313.0</ele><time>2026-04-26T10:04:02.999Z</time></trkpt><trkpt lat="40.048582119175805" lon="15.772573041272453"><ele>313.0</ele><time>2026-04-26T10:04:03.999Z</time></trkpt><trkpt lat="40.0485660732551" lon="15.77271799591058"><ele>313.0</ele><time>2026-04-26T10:04:05.999Z</time></trkpt><trkpt lat="40.04842792640399" lon="15.77267302101373"><ele>313.0</ele><time>2026-04-26T10:04:07.999Z</time></trkpt><trkpt lat="40.04830790728198" lon="15.772595767360484"><ele>313.0</ele><time>2026-04-26T10:04:08.999Z</time></trkpt><trkpt lat="40.04816717335967" lon="15.772542560326501"><ele>313.0</ele><time>2026-04-26T10:04:09.999Z</time></trkpt><trkpt lat="40.04805099884819" lon="15.772506386506434"><ele>310.8</ele><time>2026-04-26T10:04:10.999Z</time></trkpt><trkpt lat="40.04795109883591" lon="15.772477045405932"><ele>308.6</ele><time>2026-04-26T10:04:11.999Z</time></trkpt><trkpt lat="40.04784902039071" lon="15.772448333780005"><ele>306.4</ele><time>2026-04-26T10:04:12.999Z</time></trkpt><trkpt lat="40.04774969010045" lon="15.772417176772759"><ele>304.2</ele><time>2026-04-26T10:04:13.999Z</time></trkpt><trkpt lat="40.047664324946" lon="15.772396855598712"><ele>302.0</ele><time>2026-04-26T10:04:14.999Z</time></trkpt><trkpt lat="40.04757855139725" lon="15.772403103115339"><ele>302.0</ele><time>2026-04-26T10:04:15.999Z</time></trkpt><trkpt lat="40.04750748618251" lon="15.77249245649415"><ele>302.0</ele><time>2026-04-26T10:04:16.999Z</time></trkpt><trkpt lat="40.047437251702654" lon="15.772561526568813"><ele>302.0</ele><time>2026-04-26T10:04:17.999Z</time></trkpt><trkpt lat="40.04739935301873" lon="15.772663035165547"><ele>302.0</ele><time>2026-04-26T10:04:18.999Z</time></trkpt><trkpt lat="40.04742172891247" lon="15.77278796750896"><ele>302.0</ele><time>2026-04-26T10:04:19.999Z</time></trkpt><trkpt lat="40.04746180677508" lon="15.772922273209849"><ele>300.2</ele><time>2026-04-26T10:04:20.999Z</time></trkpt><trkpt lat="40.04753334839306" lon="15.773036228826182"><ele>298.4</ele><time>2026-04-26T10:04:21.999Z</time></trkpt><trkpt lat="40.04757486351608" lon="15.773109180847813"><ele>296.6</ele><time>2026-04-26T10:04:22.999Z</time></trkpt><trkpt lat="40.04767436353169" lon="15.773150968709608"><ele>294.8</ele><time>2026-04-26T10:04:25.999Z</time></trkpt><trkpt lat="40.04777268168478" lon="15.773228345620783"><ele>293.0</ele><time>2026-04-26T10:04:27.999Z</time></trkpt><trkpt lat="40.04783927437156" lon="15.77333848588379"><ele>293.0</ele><time>2026-04-26T10:04:28.999Z</time></trkpt><trkpt lat="40.04784195341499" lon="15.773480792934201"><ele>293.0</ele><time>2026-04-26T10:04:29.999Z</time></trkpt><trkpt lat="40.04788714261455" lon="15.77362899453074"><ele>293.0</ele><time>2026-04-26T10:04:30.999Z</time></trkpt><trkpt lat="40.04791047084209" lon="15.77376408935533"><ele>293.0</ele><time>2026-04-26T10:04:31.999Z</time></trkpt><trkpt lat="40.04794937422272" lon="15.773891121986905"><ele>293.0</ele><time>2026-04-26T10:04:32.999Z</time></trkpt><trkpt lat="40.04800393735203" lon="15.77402550819084"><ele>290.2</ele><time>2026-04-26T10:04:33.999Z</time></trkpt><trkpt lat="40.04806539627655" lon="15.774149817447906"><ele>287.4</ele><time>2026-04-26T10:04:34.999Z</time></trkpt><trkpt lat="40.048116893650345" lon="15.77426725897929"><ele>284.59999999999997</ele><time>2026-04-26T10:04:35.999Z</time></trkpt><trkpt lat="40.04817450506142" lon="15.774359504802469"><ele>281.8</ele><time>2026-04-26T10:04:36.999Z</time></trkpt><trkpt lat="40.04822958055224" lon="15.774441976595254"><ele>279.0</ele><time>2026-04-26T10:04:37.999Z</time></trkpt><trkpt lat="40.04829439556438" lon="15.7744847395596"><ele>279.0</ele><time>2026-04-26T10:04:38.999Z</time></trkpt><trkpt lat="40.04837633869979" lon="15.774489476239673"><ele>279.0</ele><time>2026-04-26T10:04:39.999Z</time></trkpt><trkpt lat="40.04845421731324" lon="15.774464763916344"><ele>279.0</ele><time>2026-04-26T10:04:40.999Z</time></trkpt><trkpt lat="40.04853602712947" lon="15.774427271504912"><ele>279.0</ele><time>2026-04-26T10:04:41.999Z</time></trkpt><trkpt lat="40.048607218371295" lon="15.774401006127599"><ele>279.0</ele><time>2026-04-26T10:04:42.999Z</time></trkpt><trkpt lat="40.048661095775806" lon="15.77429937710333"><ele>279.0</ele><time>2026-04-26T10:04:43.999Z</time></trkpt><trkpt lat="40.048748134941896" lon="15.774181860862331"><ele>280.5</ele><time>2026-04-26T10:04:44.999Z</time></trkpt><trkpt lat="40.04886187958" lon="15.774095874048387"><ele>282.0</ele><time>2026-04-26T10:04:45.999Z</time></trkpt><trkpt lat="40.04896770908191" lon="15.774004088544999"><ele>283.5</ele><time>2026-04-26T10:04:46.999Z</time></trkpt><trkpt lat="40.04907445063792" lon="15.773930952122218"><ele>285.0</ele><time>2026-04-26T10:04:47.999Z</time></trkpt><trkpt lat="40.04917409750508" lon="15.773855629170553"><ele>285.0</ele><time>2026-04-26T10:04:48.999Z</time></trkpt><trkpt lat="40.04926839097821" lon="15.773782655932761"><ele>285.0</ele><time>2026-04-26T10:04:49.999Z</time></trkpt><trkpt lat="40.04934470005958" lon="15.773715161871404"><ele>285.0</ele><time>2026-04-26T10:04:50.999Z</time></trkpt><trkpt lat="40.04941303494971" lon="15.7736291609073"><ele>285.0</ele><time>2026-04-26T10:04:51.999Z</time></trkpt><trkpt lat="40.04946926209166" lon="15.773523461898431"><ele>285.0</ele><time>2026-04-26T10:04:52.999Z</time></trkpt><trkpt lat="40.04952257838989" lon="15.773423197775953"><ele>285.0</ele><time>2026-04-26T10:04:53.999Z</time></trkpt><trkpt lat="40.04957061148802" lon="15.773356823126774"><ele>285.0</ele><time>2026-04-26T10:04:54.999Z</time></trkpt><trkpt lat="40.04963918731334" lon="15.773375424209636"><ele>285.0</ele><time>2026-04-26T10:04:56.999Z</time></trkpt><trkpt lat="40.0496312478297" lon="15.773467824996732"><ele>285.0</ele><time>2026-04-26T10:04:57.999Z</time></trkpt><trkpt lat="40.049648006626384" lon="15.773593669586228"><ele>285.0</ele><time>2026-04-26T10:04:58.998Z</time></trkpt><trkpt lat="40.049634615034925" lon="15.773731569583274"><ele>285.0</ele><time>2026-04-26T10:04:59.998Z</time></trkpt><trkpt lat="40.04962380954426" lon="15.773867659342251"><ele>285.0</ele><time>2026-04-26T10:05:00.998Z</time></trkpt><trkpt lat="40.04956363120207" lon="15.77399287875772"><ele>285.0</ele><time>2026-04-26T10:05:01.998Z</time></trkpt><trkpt lat="40.04948475748587" lon="15.774137433594527"><ele>285.0</ele><time>2026-04-26T10:05:02.998Z</time></trkpt><trkpt lat="40.04940982789581" lon="15.774270754986143"><ele>285.0</ele><time>2026-04-26T10:05:03.998Z</time></trkpt><trkpt lat="40.04933525920114" lon="15.774396696689232"><ele>283.6666666666667</ele><time>2026-04-26T10:05:04.998Z</time></trkpt><trkpt lat="40.04924792989291" lon="15.774547949842823"><ele>282.33333333333337</ele><time>2026-04-26T10:05:05.998Z</time></trkpt><trkpt lat="40.049163913760665" lon="15.77472709092572"><ele>281.0</ele><time>2026-04-26T10:05:06.998Z</time></trkpt><trkpt lat="40.04908718469511" lon="15.774909485389779"><ele>280.5</ele><time>2026-04-26T10:05:07.998Z</time></trkpt><trkpt lat="40.04899410446429" lon="15.775068798043847"><ele>280.0</ele><time>2026-04-26T10:05:08.998Z</time></trkpt><trkpt lat="40.04890051738626" lon="15.775228957613855"><ele>279.5</ele><time>2026-04-26T10:05:09.998Z</time></trkpt><trkpt lat="40.04880692205163" lon="15.775366947337352"><ele>279.0</ele><time>2026-04-26T10:05:10.998Z</time></trkpt><trkpt lat="40.04873303291127" lon="15.77547792543744"><ele>276.4</ele><time>2026-04-26T10:05:11.998Z</time></trkpt><trkpt lat="40.04869019791129" lon="15.77557634351684"><ele>273.79999999999995</ele><time>2026-04-26T10:05:12.998Z</time></trkpt><trkpt lat="40.04866287831665" lon="15.775708657867794"><ele>271.20000000000005</ele><time>2026-04-26T10:05:13.998Z</time></trkpt><trkpt lat="40.048649360376565" lon="15.77586236178655"><ele>268.6</ele><time>2026-04-26T10:05:14.998Z</time></trkpt><trkpt lat="40.04865136416642" lon="15.775978939492827"><ele>266.0</ele><time>2026-04-26T10:05:15.998Z</time></trkpt><trkpt lat="40.04866972717916" lon="15.776068989699066"><ele>266.0</ele><time>2026-04-26T10:05:16.998Z</time></trkpt><trkpt lat="40.04872975955516" lon="15.776126505761827"><ele>266.0</ele><time>2026-04-26T10:05:18.998Z</time></trkpt><trkpt lat="40.048788764954566" lon="15.776195452737477"><ele>266.0</ele><time>2026-04-26T10:05:42.999Z</time></trkpt><trkpt lat="40.048884122033535" lon="15.77618184549976"><ele>266.0</ele><time>2026-04-26T10:05:48.999Z</time></trkpt><trkpt lat="40.048945709107564" lon="15.776143240718588"><ele>266.0</ele><time>2026-04-26T10:05:49.999Z</time></trkpt><trkpt lat="40.04902007678522" lon="15.77608572491651"><ele>266.0</ele><time>2026-04-26T10:05:50.999Z</time></trkpt><trkpt lat="40.049106307041434" lon="15.776002064403244"><ele>268.8</ele><time>2026-04-26T10:05:51.999Z</time></trkpt><trkpt lat="40.04921125463565" lon="15.77589121730117"><ele>271.6</ele><time>2026-04-26T10:05:52.999Z</time></trkpt><trkpt lat="40.049300009753765" lon="15.775792752769007"><ele>274.4</ele><time>2026-04-26T10:05:53.999Z</time></trkpt><trkpt lat="40.04936832810624" lon="15.775726234879505"><ele>277.2</ele><time>2026-04-26T10:05:54.999Z</time></trkpt><trkpt lat="40.049428920287255" lon="15.775675927245356"><ele>280.0</ele><time>2026-04-26T10:05:55.999Z</time></trkpt><trkpt lat="40.04953119901059" lon="15.775666577303683"><ele>280.0</ele><time>2026-04-26T10:05:57.999Z</time></trkpt><trkpt lat="40.04966941738625" lon="15.77572300683097"><ele>280.0</ele><time>2026-04-26T10:05:59.999Z</time></trkpt><trkpt lat="40.04978290232036" lon="15.775762478746637"><ele>280.0</ele><time>2026-04-26T10:06:00.999Z</time></trkpt><trkpt lat="40.049896950576596" lon="15.775798585760992"><ele>280.0</ele><time>2026-04-26T10:06:01.999Z</time></trkpt><trkpt lat="40.050003719300996" lon="15.775832641852727"><ele>280.75</ele><time>2026-04-26T10:06:02.999Z</time></trkpt><trkpt lat="40.05011845143088" lon="15.77588513429252"><ele>281.5</ele><time>2026-04-26T10:06:03.999Z</time></trkpt><trkpt lat="40.050229864736345" lon="15.775926904204786"><ele>282.25</ele><time>2026-04-26T10:06:04.999Z</time></trkpt><trkpt lat="40.05032255575843" lon="15.776026441657363"><ele>283.0</ele><time>2026-04-26T10:06:05.999Z</time></trkpt><trkpt lat="40.05042274808111" lon="15.7761069301692"><ele>280.5</ele><time>2026-04-26T10:06:06.999Z</time></trkpt><trkpt lat="40.05052339279755" lon="15.776196614572774"><ele>278.0</ele><time>2026-04-26T10:06:07.999Z</time></trkpt><trkpt lat="40.050633245578595" lon="15.776294283623564"><ele>275.5</ele><time>2026-04-26T10:06:08.999Z</time></trkpt><trkpt lat="40.050750012476506" lon="15.776391682408951"><ele>273.0</ele><time>2026-04-26T10:06:09.999Z</time></trkpt><trkpt lat="40.05086162169186" lon="15.776481639187276"><ele>273.0</ele><time>2026-04-26T10:06:10.999Z</time></trkpt><trkpt lat="40.05098075673184" lon="15.776540111931709"><ele>273.0</ele><time>2026-04-26T10:06:11.999Z</time></trkpt><trkpt lat="40.05111559626786" lon="15.776549979916732"><ele>273.0</ele><time>2026-04-26T10:06:12.999Z</time></trkpt><trkpt lat="40.05125050722976" lon="15.77651123577516"><ele>273.0</ele><time>2026-04-26T10:06:13.999Z</time></trkpt><trkpt lat="40.05136695653478" lon="15.77642738535401"><ele>273.0</ele><time>2026-04-26T10:06:14.999Z</time></trkpt><trkpt lat="40.05145476008258" lon="15.776282955394834"><ele>273.0</ele><time>2026-04-26T10:06:15.999Z</time></trkpt><trkpt lat="40.051525901047896" lon="15.776118929927017"><ele>273.0</ele><time>2026-04-26T10:06:16.999Z</time></trkpt><trkpt lat="40.0515860410702" lon="15.77595870649194"><ele>273.0</ele><time>2026-04-26T10:06:17.999Z</time></trkpt><trkpt lat="40.051671292841526" lon="15.775834373584646"><ele>273.0</ele><time>2026-04-26T10:06:18.999Z</time></trkpt><trkpt lat="40.05178114998323" lon="15.775737077431526"><ele>273.0</ele><time>2026-04-26T10:06:19.999Z</time></trkpt><trkpt lat="40.051910055591065" lon="15.775706573548483"><ele>273.0</ele><time>2026-04-26T10:06:20.999Z</time></trkpt><trkpt lat="40.052044926676125" lon="15.77566344107871"><ele>273.0</ele><time>2026-04-26T10:06:21.999Z</time></trkpt><trkpt lat="40.05218091800202" lon="15.775651108612596"><ele>273.0</ele><time>2026-04-26T10:06:22.999Z</time></trkpt><trkpt lat="40.05232096393911" lon="15.775570473079489"><ele>273.0</ele><time>2026-04-26T10:06:23.999Z</time></trkpt><trkpt lat="40.05244944029364" lon="15.775431592264503"><ele>273.0</ele><time>2026-04-26T10:06:24.999Z</time></trkpt><trkpt lat="40.052566860693545" lon="15.775273572734653"><ele>274.25</ele><time>2026-04-26T10:06:25.999Z</time></trkpt><trkpt lat="40.05268529330322" lon="15.77516198008065"><ele>275.5</ele><time>2026-04-26T10:06:26.999Z</time></trkpt><trkpt lat="40.05281923417749" lon="15.775074995700859"><ele>276.75</ele><time>2026-04-26T10:06:27.999Z</time></trkpt><trkpt lat="40.05295027403863" lon="15.775003258908312"><ele>278.0</ele><time>2026-04-26T10:06:28.999Z</time></trkpt><trkpt lat="40.05307244866164" lon="15.77497272883656"><ele>278.0</ele><time>2026-04-26T10:06:29.999Z</time></trkpt><trkpt lat="40.05317423815629" lon="15.774957460915038"><ele>278.0</ele><time>2026-04-26T10:06:30.999Z</time></trkpt><trkpt lat="40.053266309010866" lon="15.77496723504601"><ele>278.0</ele><time>2026-04-26T10:06:31.999Z</time></trkpt><trkpt lat="40.053351126807314" lon="15.774992797179365"><ele>278.0</ele><time>2026-04-26T10:06:32.999Z</time></trkpt><trkpt lat="40.05342607693702" lon="15.775037465398553"><ele>278.0</ele><time>2026-04-26T10:06:33.999Z</time></trkpt><trkpt lat="40.053491951716005" lon="15.775084441350348"><ele>278.0</ele><time>2026-04-26T10:06:34.999Z</time></trkpt><trkpt lat="40.05354830832063" lon="15.775146365300174"><ele>270.75</ele><time>2026-04-26T10:06:35.999Z</time></trkpt><trkpt lat="40.05351756883342" lon="15.775337358362133"><ele>263.5</ele><time>2026-04-26T10:06:36.999Z</time></trkpt><trkpt lat="40.053474503626624" lon="15.775476919171417"><ele>256.25</ele><time>2026-04-26T10:06:37.999Z</time></trkpt><trkpt lat="40.053402960518135" lon="15.775613089277128"><ele>249.0</ele><time>2026-04-26T10:06:38.999Z</time></trkpt><trkpt lat="40.053300504115036" lon="15.775734075053066"><ele>250.25</ele><time>2026-04-26T10:06:39.999Z</time></trkpt><trkpt lat="40.0531727037123" lon="15.775803438471655"><ele>251.5</ele><time>2026-04-26T10:06:40.999Z</time></trkpt><trkpt lat="40.05305987636032" lon="15.775889540160804"><ele>252.75</ele><time>2026-04-26T10:06:41.999Z</time></trkpt><trkpt lat="40.05295829539362" lon="15.775973578487402"><ele>254.0</ele><time>2026-04-26T10:06:42.999Z</time></trkpt><trkpt lat="40.052888542898266" lon="15.776108250689907"><ele>250.33333333333334</ele><time>2026-04-26T10:06:43.999Z</time></trkpt><trkpt lat="40.052840267002864" lon="15.776273761133453"><ele>246.66666666666669</ele><time>2026-04-26T10:06:44.999Z</time></trkpt><trkpt lat="40.05281853285555" lon="15.776460307896826"><ele>243.0</ele><time>2026-04-26T10:06:45.999Z</time></trkpt><trkpt lat="40.05283329481178" lon="15.776689732446968"><ele>240.33333333333331</ele><time>2026-04-26T10:06:46.999Z</time></trkpt><trkpt lat="40.05284552167377" lon="15.776913236031952"><ele>237.66666666666666</ele><time>2026-04-26T10:06:47.999Z</time></trkpt><trkpt lat="40.05284876498994" lon="15.777119909988077"><ele>235.0</ele><time>2026-04-26T10:06:48.999Z</time></trkpt><trkpt lat="40.052845663261394" lon="15.777319417732413"><ele>235.0</ele><time>2026-04-26T10:06:49.999Z</time></trkpt><trkpt lat="40.0528413699002" lon="15.777506548334674"><ele>235.0</ele><time>2026-04-26T10:06:50.999Z</time></trkpt><trkpt lat="40.0528571284269" lon="15.777680425136364"><ele>235.0</ele><time>2026-04-26T10:06:51.999Z</time></trkpt><trkpt lat="40.05290547391322" lon="15.777844734518615"><ele>235.0</ele><time>2026-04-26T10:06:52.999Z</time></trkpt><trkpt lat="40.05299910344402" lon="15.778003156403432"><ele>235.0</ele><time>2026-04-26T10:06:53.999Z</time></trkpt><trkpt lat="40.053130368664384" lon="15.778140956001824"><ele>235.0</ele><time>2026-04-26T10:06:54.999Z</time></trkpt><trkpt lat="40.053287783605185" lon="15.778248744920441"><ele>235.0</ele><time>2026-04-26T10:06:55.999Z</time></trkpt><trkpt lat="40.053443207536034" lon="15.77832990734351"><ele>235.0</ele><time>2026-04-26T10:06:56.999Z</time></trkpt><trkpt lat="40.05358479529915" lon="15.778411876860888"><ele>235.0</ele><time>2026-04-26T10:06:57.999Z</time></trkpt><trkpt lat="40.05371715956872" lon="15.778505108910792"><ele>235.0</ele><time>2026-04-26T10:06:58.999Z</time></trkpt><trkpt lat="40.05384893431992" lon="15.77860973663369"><ele>233.75</ele><time>2026-04-26T10:06:59.999Z</time></trkpt><trkpt lat="40.05397168044564" lon="15.778715173748845"><ele>232.5</ele><time>2026-04-26T10:07:00.999Z</time></trkpt><trkpt lat="40.054076039424025" lon="15.778844623740536"><ele>231.25</ele><time>2026-04-26T10:07:01.999Z</time></trkpt><trkpt lat="40.05416118434382" lon="15.779013119982041"><ele>230.0</ele><time>2026-04-26T10:07:02.999Z</time></trkpt><trkpt lat="40.054228756311176" lon="15.779224467186861"><ele>230.0</ele><time>2026-04-26T10:07:03.999Z</time></trkpt><trkpt lat="40.054290608193256" lon="15.779465177770703"><ele>230.0</ele><time>2026-04-26T10:07:04.999Z</time></trkpt><trkpt lat="40.054356051331496" lon="15.779702676402234"><ele>230.0</ele><time>2026-04-26T10:07:05.999Z</time></trkpt><trkpt lat="40.054412840451604" lon="15.779922344770442"><ele>230.0</ele><time>2026-04-26T10:07:06.999Z</time></trkpt><trkpt lat="40.05446007114844" lon="15.78013539114696"><ele>230.0</ele><time>2026-04-26T10:07:07.998Z</time></trkpt><trkpt lat="40.05449782308667" lon="15.780348207340284"><ele>230.0</ele><time>2026-04-26T10:07:08.998Z</time></trkpt><trkpt lat="40.05452482163556" lon="15.780560022783135"><ele>229.0</ele><time>2026-04-26T10:07:09.998Z</time></trkpt><trkpt lat="40.054552993801124" lon="15.780763306726492"><ele>228.0</ele><time>2026-04-26T10:07:10.998Z</time></trkpt><trkpt lat="40.054615181920994" lon="15.780962117505371"><ele>227.0</ele><time>2026-04-26T10:07:11.998Z</time></trkpt><trkpt lat="40.05471585895218" lon="15.781156938519477"><ele>224.33333333333334</ele><time>2026-04-26T10:07:12.998Z</time></trkpt><trkpt lat="40.05483259537706" lon="15.781356673881055"><ele>221.66666666666669</ele><time>2026-04-26T10:07:13.998Z</time></trkpt><trkpt lat="40.054964094553014" lon="15.781558365483855"><ele>219.0</ele><time>2026-04-26T10:07:14.998Z</time></trkpt><trkpt lat="40.055093660393666" lon="15.781758918998028"><ele>216.66666666666669</ele><time>2026-04-26T10:07:15.998Z</time></trkpt><trkpt lat="40.05521284406855" lon="15.781960866241926"><ele>214.33333333333334</ele><time>2026-04-26T10:07:16.998Z</time></trkpt><trkpt lat="40.055329120906435" lon="15.782157353904832"><ele>212.0</ele><time>2026-04-26T10:07:17.998Z</time></trkpt><trkpt lat="40.05544855757681" lon="15.782350379700759"><ele>212.0</ele><time>2026-04-26T10:07:18.998Z</time></trkpt><trkpt lat="40.0555632982549" lon="15.782535771368716"><ele>212.0</ele><time>2026-04-26T10:07:19.998Z</time></trkpt><trkpt lat="40.055678538567726" lon="15.782718677487123"><ele>212.0</ele><time>2026-04-26T10:07:20.998Z</time></trkpt><trkpt lat="40.05578802515647" lon="15.782894397206988"><ele>215.33333333333334</ele><time>2026-04-26T10:07:21.998Z</time></trkpt><trkpt lat="40.05588897012464" lon="15.783066518275266"><ele>218.66666666666669</ele><time>2026-04-26T10:07:22.998Z</time></trkpt><trkpt lat="40.055992283810276" lon="15.783237052068175"><ele>222.0</ele><time>2026-04-26T10:07:23.998Z</time></trkpt><trkpt lat="40.056093590492175" lon="15.78340886250914"><ele>225.0</ele><time>2026-04-26T10:07:24.998Z</time></trkpt><trkpt lat="40.05620770027867" lon="15.783595694669424"><ele>228.0</ele><time>2026-04-26T10:07:25.998Z</time></trkpt><trkpt lat="40.05632570279671" lon="15.783784050792194"><ele>231.0</ele><time>2026-04-26T10:07:27Z</time></trkpt><trkpt lat="40.05644486061732" lon="15.783960914989045"><ele>231.0</ele><time>2026-04-26T10:07:28Z</time></trkpt><trkpt lat="40.05654842366051" lon="15.784126595438467"><ele>231.0</ele><time>2026-04-26T10:07:29Z</time></trkpt><trkpt lat="40.05664014699609" lon="15.784289644446615"><ele>231.0</ele><time>2026-04-26T10:07:30Z</time></trkpt><trkpt lat="40.05669023913863" lon="15.784480847095743"><ele>237.33333333333331</ele><time>2026-04-26T10:07:31Z</time></trkpt><trkpt lat="40.0567200718484" lon="15.784689908488987"><ele>243.66666666666666</ele><time>2026-04-26T10:07:32Z</time></trkpt><trkpt lat="40.05671130752091" lon="15.784895018077593"><ele>250.0</ele><time>2026-04-26T10:07:33Z</time></trkpt><trkpt lat="40.05666145829515" lon="15.785087799134867"><ele>251.33333333333331</ele><time>2026-04-26T10:07:34Z</time></trkpt><trkpt lat="40.056594655398975" lon="15.785295582861009"><ele>252.66666666666669</ele><time>2026-04-26T10:07:35Z</time></trkpt><trkpt lat="40.0565201220712" lon="15.785513998496812"><ele>254.0</ele><time>2026-04-26T10:07:36Z</time></trkpt><trkpt lat="40.056443895904145" lon="15.78573166065712"><ele>254.0</ele><time>2026-04-26T10:07:37Z</time></trkpt><trkpt lat="40.05636791014571" lon="15.785946982071584"><ele>254.0</ele><time>2026-04-26T10:07:38Z</time></trkpt><trkpt lat="40.056295259213876" lon="15.786152812290029"><ele>254.0</ele><time>2026-04-26T10:07:39Z</time></trkpt><trkpt lat="40.05621950944412" lon="15.786366663698864"><ele>254.66666666666669</ele><time>2026-04-26T10:07:40Z</time></trkpt><trkpt lat="40.05615550445724" lon="15.786594292288475"><ele>255.33333333333331</ele><time>2026-04-26T10:07:41Z</time></trkpt><trkpt lat="40.05608316204678" lon="15.786821171420279"><ele>256.0</ele><time>2026-04-26T10:07:42Z</time></trkpt><trkpt lat="40.05602614921159" lon="15.78706321076465"><ele>258.3333333333333</ele><time>2026-04-26T10:07:43Z</time></trkpt><trkpt lat="40.055965615902394" lon="15.787307149524336"><ele>260.6666666666667</ele><time>2026-04-26T10:07:44Z</time></trkpt><trkpt lat="40.05591010675964" lon="15.787539042047511"><ele>263.0</ele><time>2026-04-26T10:07:45Z</time></trkpt><trkpt lat="40.055853368329295" lon="15.78776398044986"><ele>262.0</ele><time>2026-04-26T10:07:45.999Z</time></trkpt><trkpt lat="40.05580096026032" lon="15.787978760661035"><ele>261.0</ele><time>2026-04-26T10:07:46.999Z</time></trkpt><trkpt lat="40.05574869946368" lon="15.788186580232612"><ele>260.0</ele><time>2026-04-26T10:07:47.999Z</time></trkpt><trkpt lat="40.0557051342481" lon="15.788382974594931"><ele>261.6</ele><time>2026-04-26T10:07:48.999Z</time></trkpt><trkpt lat="40.05568006359728" lon="15.788558034953187"><ele>263.2</ele><time>2026-04-26T10:07:49.999Z</time></trkpt><trkpt lat="40.0556820746369" lon="15.788710247649252"><ele>264.8</ele><time>2026-04-26T10:07:50.999Z</time></trkpt><trkpt lat="40.05570897505562" lon="15.788829082538289"><ele>266.4</ele><time>2026-04-26T10:07:51.999Z</time></trkpt><trkpt lat="40.05575693242801" lon="15.788929047341773"><ele>268.0</ele><time>2026-04-26T10:07:52.999Z</time></trkpt><trkpt lat="40.055833233619005" lon="15.789026623915744"><ele>271.0</ele><time>2026-04-26T10:07:53.999Z</time></trkpt><trkpt lat="40.05593652434564" lon="15.78911246341328"><ele>274.0</ele><time>2026-04-26T10:07:54.999Z</time></trkpt><trkpt lat="40.05605451825748" lon="15.78917801395509"><ele>277.0</ele><time>2026-04-26T10:07:55.999Z</time></trkpt><trkpt lat="40.056188453815956" lon="15.78920786310724"><ele>280.0</ele><time>2026-04-26T10:07:56.999Z</time></trkpt><trkpt lat="40.05633523884137" lon="15.78915297684425"><ele>280.0</ele><time>2026-04-26T10:07:57.999Z</time></trkpt><trkpt lat="40.05649447726791" lon="15.78911332635113"><ele>280.0</ele><time>2026-04-26T10:07:58.999Z</time></trkpt><trkpt lat="40.05665258750104" lon="15.789031568696878"><ele>280.0</ele><time>2026-04-26T10:07:59.999Z</time></trkpt><trkpt lat="40.05679895659014" lon="15.78891307093653"><ele>282.66666666666663</ele><time>2026-04-26T10:08:00.999Z</time></trkpt><trkpt lat="40.05692253834111" lon="15.788719892233084"><ele>285.3333333333333</ele><time>2026-04-26T10:08:01.999Z</time></trkpt><trkpt lat="40.05703232999542" lon="15.78847753294051"><ele>288.0</ele><time>2026-04-26T10:08:02.999Z</time></trkpt><trkpt lat="40.057130520231134" lon="15.78826162934324"><ele>288.0</ele><time>2026-04-26T10:08:03.999Z</time></trkpt><trkpt lat="40.05722876125641" lon="15.788101154321685"><ele>288.0</ele><time>2026-04-26T10:08:04.999Z</time></trkpt><trkpt lat="40.05734192567069" lon="15.787965207232562"><ele>288.0</ele><time>2026-04-26T10:08:05.999Z</time></trkpt><trkpt lat="40.05747159593338" lon="15.78788893058335"><ele>291.5</ele><time>2026-04-26T10:08:06.999Z</time></trkpt><trkpt lat="40.057617954350015" lon="15.78784579476613"><ele>295.0</ele><time>2026-04-26T10:08:07.999Z</time></trkpt><trkpt lat="40.057761986354585" lon="15.787853662015225"><ele>298.5</ele><time>2026-04-26T10:08:08.999Z</time></trkpt><trkpt lat="40.057905333866465" lon="15.787910639399998"><ele>302.0</ele><time>2026-04-26T10:08:09.999Z</time></trkpt><trkpt lat="40.058027771940935" lon="15.788044763696623"><ele>302.0</ele><time>2026-04-26T10:08:10.999Z</time></trkpt><trkpt lat="40.05818159847362" lon="15.788180609811816"><ele>302.0</ele><time>2026-04-26T10:08:11.999Z</time></trkpt><trkpt lat="40.058328937511405" lon="15.78834333629767"><ele>302.0</ele><time>2026-04-26T10:08:12.999Z</time></trkpt><trkpt lat="40.05850007969282" lon="15.788477726273834"><ele>308.6666666666667</ele><time>2026-04-26T10:08:13.999Z</time></trkpt><trkpt lat="40.05868099774528" lon="15.788583042140399"><ele>315.3333333333333</ele><time>2026-04-26T10:08:14.999Z</time></trkpt><trkpt lat="40.05887349117364" lon="15.788657449303253"><ele>322.0</ele><time>2026-04-26T10:08:15.999Z</time></trkpt><trkpt lat="40.05904537702579" lon="15.788709418470672"><ele>319.40000000000003</ele><time>2026-04-26T10:08:16.999Z</time></trkpt><trkpt lat="40.05917243530033" lon="15.78874534488219"><ele>316.8</ele><time>2026-04-26T10:08:17.999Z</time></trkpt><trkpt lat="40.059266137614415" lon="15.788771492696155"><ele>314.2</ele><time>2026-04-26T10:08:18.999Z</time></trkpt><trkpt lat="40.05934558792749" lon="15.788788127512175"><ele>311.6</ele><time>2026-04-26T10:08:19.999Z</time></trkpt><trkpt lat="40.05943218863171" lon="15.788787112174294"><ele>309.0</ele><time>2026-04-26T10:08:21.999Z</time></trkpt><trkpt lat="40.05949039753557" lon="15.788852309265602"><ele>309.0</ele><time>2026-04-26T10:08:23.999Z</time></trkpt><trkpt lat="40.059528208029924" lon="15.788959387429822"><ele>309.0</ele><time>2026-04-26T10:08:25.999Z</time></trkpt><trkpt lat="40.059520532291614" lon="15.789065925195622"><ele>309.0</ele><time>2026-04-26T10:08:27.999Z</time></trkpt><trkpt lat="40.05943146261175" lon="15.789128308679187"><ele>309.0</ele><time>2026-04-26T10:08:29.999Z</time></trkpt><trkpt lat="40.05933700423888" lon="15.789156482225891"><ele>309.0</ele><time>2026-04-26T10:08:30.999Z</time></trkpt><trkpt lat="40.05924817606436" lon="15.789187909924179"><ele>309.0</ele><time>2026-04-26T10:08:31.999Z</time></trkpt><trkpt lat="40.05916201422504" lon="15.789247085525991"><ele>309.0</ele><time>2026-04-26T10:08:32.999Z</time></trkpt><trkpt lat="40.05911014122664" lon="15.789340775322966"><ele>309.0</ele><time>2026-04-26T10:08:33.999Z</time></trkpt><trkpt lat="40.05907334668075" lon="15.789442789573819"><ele>309.0</ele><time>2026-04-26T10:08:34.999Z</time></trkpt><trkpt lat="40.059069917147184" lon="15.789540852039135"><ele>309.0</ele><time>2026-04-26T10:08:35.999Z</time></trkpt><trkpt lat="40.059059845830575" lon="15.789622582284347"><ele>309.0</ele><time>2026-04-26T10:08:36.999Z</time></trkpt><trkpt lat="40.0591283658119" lon="15.789710317709387"><ele>312.6</ele><time>2026-04-26T10:08:37.999Z</time></trkpt><trkpt lat="40.059198276766395" lon="15.789776331510597"><ele>316.2</ele><time>2026-04-26T10:08:38.999Z</time></trkpt><trkpt lat="40.05928068066685" lon="15.789791858509695"><ele>319.8</ele><time>2026-04-26T10:08:39.999Z</time></trkpt><trkpt lat="40.059370592055394" lon="15.789760363834384"><ele>323.40000000000003</ele><time>2026-04-26T10:08:40.999Z</time></trkpt><trkpt lat="40.05948876583656" lon="15.789703332728026"><ele>327.0</ele><time>2026-04-26T10:08:41.999Z</time></trkpt><trkpt lat="40.05963214225243" lon="15.789626972670526"><ele>327.0</ele><time>2026-04-26T10:08:42.999Z</time></trkpt><trkpt lat="40.059775607160105" lon="15.789556318634606"><ele>327.0</ele><time>2026-04-26T10:08:43.999Z</time></trkpt><trkpt lat="40.059903489640746" lon="15.789500634916312"><ele>327.0</ele><time>2026-04-26T10:08:44.999Z</time></trkpt><trkpt lat="40.06002049915461" lon="15.789453340477126"><ele>327.0</ele><time>2026-04-26T10:08:45.999Z</time></trkpt><trkpt lat="40.06013159336512" lon="15.789415711335396"><ele>329.6</ele><time>2026-04-26T10:08:46.999Z</time></trkpt><trkpt lat="40.060231839848115" lon="15.789395836656105"><ele>332.20000000000005</ele><time>2026-04-26T10:08:47.999Z</time></trkpt><trkpt lat="40.06033065822437" lon="15.789403913232144"><ele>334.8</ele><time>2026-04-26T10:08:48.999Z</time></trkpt><trkpt lat="40.060436963996146" lon="15.789438561721063"><ele>337.4</ele><time>2026-04-26T10:08:49.999Z</time></trkpt><trkpt lat="40.06054033889346" lon="15.789473380254673"><ele>340.0</ele><time>2026-04-26T10:08:50.999Z</time></trkpt><trkpt lat="40.060622361819824" lon="15.789514831905501"><ele>340.0</ele><time>2026-04-26T10:08:51.999Z</time></trkpt><trkpt lat="40.06069715000228" lon="15.789570309824137"><ele>340.0</ele><time>2026-04-26T10:08:52.999Z</time></trkpt><trkpt lat="40.06074784153192" lon="15.789647618665942"><ele>340.0</ele><time>2026-04-26T10:08:53.999Z</time></trkpt><trkpt lat="40.06077301431694" lon="15.789745221625946"><ele>340.0</ele><time>2026-04-26T10:08:54.999Z</time></trkpt><trkpt lat="40.06074948310828" lon="15.78985280846485"><ele>340.0</ele><time>2026-04-26T10:08:55.999Z</time></trkpt><trkpt lat="40.060777387233614" lon="15.789975005548124"><ele>340.0</ele><time>2026-04-26T10:08:56.999Z</time></trkpt><trkpt lat="40.060831039751456" lon="15.79010701394797"><ele>342.0</ele><time>2026-04-26T10:08:57.999Z</time></trkpt><trkpt lat="40.06092848280001" lon="15.790177770796216"><ele>344.0</ele><time>2026-04-26T10:08:58.999Z</time></trkpt><trkpt lat="40.061029260021314" lon="15.790251089129884"><ele>346.0</ele><time>2026-04-26T10:08:59.999Z</time></trkpt><trkpt lat="40.061161482358166" lon="15.790326263600758"><ele>348.0</ele><time>2026-04-26T10:09:00.999Z</time></trkpt><trkpt lat="40.06129507871988" lon="15.790399546529068"><ele>348.0</ele><time>2026-04-26T10:09:01.999Z</time></trkpt><trkpt lat="40.06139933910031" lon="15.790465368058465"><ele>348.0</ele><time>2026-04-26T10:09:02.999Z</time></trkpt><trkpt lat="40.06147077656694" lon="15.790559803631776"><ele>348.0</ele><time>2026-04-26T10:09:03.999Z</time></trkpt><trkpt lat="40.06156851246389" lon="15.790663432208067"><ele>348.0</ele><time>2026-04-26T10:09:04.999Z</time></trkpt><trkpt lat="40.061674912533334" lon="15.790828615062784"><ele>347.6666666666667</ele><time>2026-04-26T10:09:05.999Z</time></trkpt><trkpt lat="40.061778381512056" lon="15.791003139978963"><ele>347.33333333333337</ele><time>2026-04-26T10:09:06.999Z</time></trkpt><trkpt lat="40.06189935079842" lon="15.79116307279868"><ele>347.0</ele><time>2026-04-26T10:09:07.999Z</time></trkpt><trkpt lat="40.06201080862231" lon="15.791325942669953"><ele>347.0</ele><time>2026-04-26T10:09:08.999Z</time></trkpt><trkpt lat="40.06210691900387" lon="15.791455287059074"><ele>347.0</ele><time>2026-04-26T10:09:09.999Z</time></trkpt><trkpt lat="40.062183470268245" lon="15.791557550639014"><ele>347.0</ele><time>2026-04-26T10:09:10.999Z</time></trkpt><trkpt lat="40.062247686871984" lon="15.79165484407383"><ele>347.0</ele><time>2026-04-26T10:09:11.999Z</time></trkpt><trkpt lat="40.06228512629247" lon="15.79177497367535"><ele>347.0</ele><time>2026-04-26T10:09:12.999Z</time></trkpt><trkpt lat="40.062308915130835" lon="15.79189462827199"><ele>350.0</ele><time>2026-04-26T10:09:13.999Z</time></trkpt><trkpt lat="40.06232360580809" lon="15.792047625439942"><ele>353.0</ele><time>2026-04-26T10:09:14.998Z</time></trkpt><trkpt lat="40.06236477699176" lon="15.792213756905976"><ele>356.0</ele><time>2026-04-26T10:09:15.998Z</time></trkpt><trkpt lat="40.06242218719332" lon="15.79236970045275"><ele>359.0</ele><time>2026-04-26T10:09:16.998Z</time></trkpt><trkpt lat="40.06249692163036" lon="15.792504000141637"><ele>359.0</ele><time>2026-04-26T10:09:17.998Z</time></trkpt><trkpt lat="40.06258266996643" lon="15.792651781098241"><ele>359.0</ele><time>2026-04-26T10:09:18.998Z</time></trkpt><trkpt lat="40.06268298576915" lon="15.792806313594046"><ele>359.0</ele><time>2026-04-26T10:09:19.998Z</time></trkpt><trkpt lat="40.062768404678266" lon="15.792942719495395"><ele>359.0</ele><time>2026-04-26T10:09:20.998Z</time></trkpt><trkpt lat="40.06283563055899" lon="15.793052591127564"><ele>363.25</ele><time>2026-04-26T10:09:21.998Z</time></trkpt><trkpt lat="40.0628977346845" lon="15.793187486206389"><ele>367.5</ele><time>2026-04-26T10:09:22.998Z</time></trkpt><trkpt lat="40.06293827738936" lon="15.793370698821539"><ele>371.75</ele><time>2026-04-26T10:09:23.998Z</time></trkpt><trkpt lat="40.062992512769966" lon="15.793554725492651"><ele>376.0</ele><time>2026-04-26T10:09:24.998Z</time></trkpt><trkpt lat="40.063040870330376" lon="15.79372908778694"><ele>379.3333333333333</ele><time>2026-04-26T10:09:25.998Z</time></trkpt><trkpt lat="40.06309638871722" lon="15.793923069536394"><ele>382.66666666666663</ele><time>2026-04-26T10:09:26.998Z</time></trkpt><trkpt lat="40.06316591414259" lon="15.794139781689475"><ele>386.0</ele><time>2026-04-26T10:09:27.998Z</time></trkpt><trkpt lat="40.063230934735955" lon="15.794343629083405"><ele>385.20000000000005</ele><time>2026-04-26T10:09:28.998Z</time></trkpt><trkpt lat="40.0632851951048" lon="15.794526309581117"><ele>384.40000000000003</ele><time>2026-04-26T10:09:29.998Z</time></trkpt><trkpt lat="40.06333854705286" lon="15.79465030402437"><ele>383.6</ele><time>2026-04-26T10:09:30.998Z</time></trkpt><trkpt lat="40.063364120769464" lon="15.7947653918991"><ele>382.8</ele><time>2026-04-26T10:09:33Z</time></trkpt><trkpt lat="40.063387720153386" lon="15.794881284684024"><ele>382.0</ele><time>2026-04-26T10:09:34Z</time></trkpt><trkpt lat="40.06343003185182" lon="15.7950424848766"><ele>382.6</ele><time>2026-04-26T10:09:35Z</time></trkpt><trkpt lat="40.06347112943331" lon="15.79519077623973"><ele>383.20000000000005</ele><time>2026-04-26T10:09:36Z</time></trkpt><trkpt lat="40.063517192398706" lon="15.795320205989086"><ele>383.8</ele><time>2026-04-26T10:09:37Z</time></trkpt><trkpt lat="40.063551137251686" lon="15.795429945692305"><ele>384.4</ele><time>2026-04-26T10:09:38Z</time></trkpt><trkpt lat="40.06357191490825" lon="15.795520298954767"><ele>385.0</ele><time>2026-04-26T10:09:39Z</time></trkpt><trkpt lat="40.06355037945246" lon="15.795621417780556"><ele>385.0</ele><time>2026-04-26T10:09:41Z</time></trkpt><trkpt lat="40.06357991560396" lon="15.795785625946026"><ele>385.0</ele><time>2026-04-26T10:09:42Z</time></trkpt><trkpt lat="40.06332954618581" lon="15.795562619025985"><ele>385.0</ele><time>2026-04-26T10:09:44Z</time></trkpt><trkpt lat="40.06324871869594" lon="15.795540528324656"><ele>384.6666666666667</ele><time>2026-04-26T10:09:45Z</time></trkpt><trkpt lat="40.06316581467294" lon="15.795493997096957"><ele>384.33333333333337</ele><time>2026-04-26T10:09:46Z</time></trkpt><trkpt lat="40.06308593535186" lon="15.79545942955087"><ele>384.0</ele><time>2026-04-26T10:09:47Z</time></trkpt><trkpt lat="40.06300753369764" lon="15.795428452234976"><ele>383.6666666666667</ele><time>2026-04-26T10:09:48Z</time></trkpt><trkpt lat="40.06292800876254" lon="15.795400273630372"><ele>383.33333333333337</ele><time>2026-04-26T10:09:49Z</time></trkpt><trkpt lat="40.06283941601483" lon="15.795373618605373"><ele>383.0</ele><time>2026-04-26T10:09:50Z</time></trkpt><trkpt lat="40.062744160494795" lon="15.795318160272215"><ele>383.0</ele><time>2026-04-26T10:09:51Z</time></trkpt><trkpt lat="40.06263641330444" lon="15.795279338237131"><ele>383.0</ele><time>2026-04-26T10:09:52Z</time></trkpt><trkpt lat="40.06252467506457" lon="15.79526832941821"><ele>383.0</ele><time>2026-04-26T10:09:52.999Z</time></trkpt><trkpt lat="40.062418994946945" lon="15.795263005013021"><ele>383.0</ele><time>2026-04-26T10:09:53.999Z</time></trkpt><trkpt lat="40.06232097069682" lon="15.795309847121718"><ele>383.0</ele><time>2026-04-26T10:09:54.999Z</time></trkpt><trkpt lat="40.06224608099975" lon="15.795401233054754"><ele>380.79999999999995</ele><time>2026-04-26T10:09:55.999Z</time></trkpt><trkpt lat="40.062200184501904" lon="15.795512006720752"><ele>378.6</ele><time>2026-04-26T10:09:56.999Z</time></trkpt><trkpt lat="40.062199149499534" lon="15.795624090253417"><ele>376.4</ele><time>2026-04-26T10:09:57.999Z</time></trkpt><trkpt lat="40.062244562489774" lon="15.795734274409385"><ele>374.20000000000005</ele><time>2026-04-26T10:09:58.999Z</time></trkpt><trkpt lat="40.06230934794339" lon="15.79584399700701"><ele>372.0</ele><time>2026-04-26T10:09:59.999Z</time></trkpt><trkpt lat="40.06235390469275" lon="15.795953783755014"><ele>370.20000000000005</ele><time>2026-04-26T10:10:00.999Z</time></trkpt><trkpt lat="40.06237020948473" lon="15.79607653097731"><ele>368.4</ele><time>2026-04-26T10:10:01.999Z</time></trkpt><trkpt lat="40.06235887550413" lon="15.79620135362352"><ele>366.6</ele><time>2026-04-26T10:10:02.999Z</time></trkpt><trkpt lat="40.06230504578654" lon="15.796308637682259"><ele>364.79999999999995</ele><time>2026-04-26T10:10:03.999Z</time></trkpt><trkpt lat="40.06221449509231" lon="15.796363977788623"><ele>363.0</ele><time>2026-04-26T10:10:04.999Z</time></trkpt><trkpt lat="40.06212465120723" lon="15.796381116802019"><ele>363.0</ele><time>2026-04-26T10:10:05.999Z</time></trkpt><trkpt lat="40.06201672707076" lon="15.796381576374682"><ele>363.0</ele><time>2026-04-26T10:10:06.999Z</time></trkpt><trkpt lat="40.06190038580515" lon="15.796328636703343"><ele>363.0</ele><time>2026-04-26T10:10:07.999Z</time></trkpt><trkpt lat="40.06177511065395" lon="15.796280257404113"><ele>363.0</ele><time>2026-04-26T10:10:08.999Z</time></trkpt><trkpt lat="40.061654112716056" lon="15.796248130438459"><ele>363.59999999999997</ele><time>2026-04-26T10:10:09.999Z</time></trkpt><trkpt lat="40.061550589877356" lon="15.796196782929336"><ele>364.2</ele><time>2026-04-26T10:10:10.999Z</time></trkpt><trkpt lat="40.06146930375315" lon="15.796127967434254"><ele>364.8</ele><time>2026-04-26T10:10:11.999Z</time></trkpt><trkpt lat="40.06140144018762" lon="15.796015522939017"><ele>365.4</ele><time>2026-04-26T10:10:12.999Z</time></trkpt><trkpt lat="40.061361765700276" lon="15.795869330059704"><ele>366.0</ele><time>2026-04-26T10:10:13.999Z</time></trkpt><trkpt lat="40.06133184679764" lon="15.795742891045366"><ele>366.0</ele><time>2026-04-26T10:10:14.999Z</time></trkpt><trkpt lat="40.06128784143377" lon="15.795665452948196"><ele>366.0</ele><time>2026-04-26T10:10:15.999Z</time></trkpt><trkpt lat="40.06120673180764" lon="15.795627741702274"><ele>366.0</ele><time>2026-04-26T10:10:16.999Z</time></trkpt><trkpt lat="40.06110378867182" lon="15.795641881142787"><ele>366.0</ele><time>2026-04-26T10:10:17.999Z</time></trkpt><trkpt lat="40.060996893924205" lon="15.795722016636558"><ele>366.0</ele><time>2026-04-26T10:10:18.999Z</time></trkpt><trkpt lat="40.0608974137629" lon="15.795842458389762"><ele>366.0</ele><time>2026-04-26T10:10:19.999Z</time></trkpt><trkpt lat="40.06080693498965" lon="15.79595724186204"><ele>366.0</ele><time>2026-04-26T10:10:20.999Z</time></trkpt><trkpt lat="40.06069336899206" lon="15.796005234106643"><ele>366.0</ele><time>2026-04-26T10:10:21.999Z</time></trkpt><trkpt lat="40.0605605977314" lon="15.796034569352122"><ele>366.0</ele><time>2026-04-26T10:10:22.999Z</time></trkpt><trkpt lat="40.06040513203884" lon="15.79604255541402"><ele>359.3333333333333</ele><time>2026-04-26T10:10:23.999Z</time></trkpt><trkpt lat="40.06024507153656" lon="15.796060578815949"><ele>352.66666666666663</ele><time>2026-04-26T10:10:24.999Z</time></trkpt><trkpt lat="40.06009807445232" lon="15.796088632670292"><ele>346.0</ele><time>2026-04-26T10:10:25.999Z</time></trkpt><trkpt lat="40.0599617518977" lon="15.796135557832912"><ele>346.25</ele><time>2026-04-26T10:10:26.999Z</time></trkpt><trkpt lat="40.05984260017255" lon="15.796149822473758"><ele>346.5</ele><time>2026-04-26T10:10:27.999Z</time></trkpt><trkpt lat="40.05972320475642" lon="15.796133825982528"><ele>346.75</ele><time>2026-04-26T10:10:28.999Z</time></trkpt><trkpt lat="40.05959753424259" lon="15.796060335738579"><ele>347.0</ele><time>2026-04-26T10:10:29.999Z</time></trkpt><trkpt lat="40.05946427270071" lon="15.795963912728332"><ele>347.0</ele><time>2026-04-26T10:10:30.999Z</time></trkpt><trkpt lat="40.059334817384894" lon="15.795847530546023"><ele>347.0</ele><time>2026-04-26T10:10:31.999Z</time></trkpt><trkpt lat="40.05921707891594" lon="15.795696917082939"><ele>347.0</ele><time>2026-04-26T10:10:32.999Z</time></trkpt><trkpt lat="40.05909688625599" lon="15.795568573871213"><ele>344.33333333333337</ele><time>2026-04-26T10:10:33.999Z</time></trkpt><trkpt lat="40.058976730652326" lon="15.795443352132386"><ele>341.6666666666667</ele><time>2026-04-26T10:10:34.999Z</time></trkpt><trkpt lat="40.05886427254244" lon="15.795290808357793"><ele>339.0</ele><time>2026-04-26T10:10:35.999Z</time></trkpt><trkpt lat="40.05875149837948" lon="15.79513888994448"><ele>339.0</ele><time>2026-04-26T10:10:36.999Z</time></trkpt><trkpt lat="40.058646639584275" lon="15.795000218312033"><ele>339.0</ele><time>2026-04-26T10:10:37.999Z</time></trkpt><trkpt lat="40.05855347868802" lon="15.794887711118706"><ele>339.0</ele><time>2026-04-26T10:10:38.999Z</time></trkpt><trkpt lat="40.05845087061272" lon="15.794771932009503"><ele>339.0</ele><time>2026-04-26T10:10:39.999Z</time></trkpt><trkpt lat="40.05830801097288" lon="15.794688939599862"><ele>337.75</ele><time>2026-04-26T10:10:40.999Z</time></trkpt><trkpt lat="40.058165764219964" lon="15.794605633684522"><ele>336.5</ele><time>2026-04-26T10:10:41.999Z</time></trkpt><trkpt lat="40.05803056853661" lon="15.79455190243885"><ele>335.25</ele><time>2026-04-26T10:10:42.999Z</time></trkpt><trkpt lat="40.05790638782894" lon="15.794495530545541"><ele>334.0</ele><time>2026-04-26T10:10:43.999Z</time></trkpt><trkpt lat="40.05778824416926" lon="15.794477983621633"><ele>334.0</ele><time>2026-04-26T10:10:44.999Z</time></trkpt><trkpt lat="40.057686667940885" lon="15.794490112739306"><ele>334.0</ele><time>2026-04-26T10:10:45.999Z</time></trkpt><trkpt lat="40.05759736023169" lon="15.794543769522432"><ele>334.0</ele><time>2026-04-26T10:10:46.999Z</time></trkpt><trkpt lat="40.057528962409684" lon="15.794633788716261"><ele>334.0</ele><time>2026-04-26T10:10:47.999Z</time></trkpt><trkpt lat="40.0574857189605" lon="15.794745887368087"><ele>334.0</ele><time>2026-04-26T10:10:48.999Z</time></trkpt><trkpt lat="40.05748596438847" lon="15.794892826287931"><ele>334.0</ele><time>2026-04-26T10:10:49.999Z</time></trkpt><trkpt lat="40.057506541762876" lon="15.795016278384104"><ele>334.0</ele><time>2026-04-26T10:10:50.999Z</time></trkpt><trkpt lat="40.057559385050475" lon="15.795110832484864"><ele>334.0</ele><time>2026-04-26T10:10:51.999Z</time></trkpt><trkpt lat="40.05764030220505" lon="15.795202688308589"><ele>334.0</ele><time>2026-04-26T10:10:52.999Z</time></trkpt><trkpt lat="40.05776329497305" lon="15.79528908148037"><ele>334.0</ele><time>2026-04-26T10:10:53.999Z</time></trkpt><trkpt lat="40.05787579899297" lon="15.79538341550221"><ele>332.25</ele><time>2026-04-26T10:10:54.999Z</time></trkpt><trkpt lat="40.057959637465764" lon="15.795490857224637"><ele>330.5</ele><time>2026-04-26T10:10:55.999Z</time></trkpt><trkpt lat="40.05800611008798" lon="15.795611934330607"><ele>328.75</ele><time>2026-04-26T10:10:56.999Z</time></trkpt><trkpt lat="40.05800898714875" lon="15.795751597895633"><ele>327.0</ele><time>2026-04-26T10:10:57.999Z</time></trkpt><trkpt lat="40.0579575799874" lon="15.795912578536848"><ele>324.6666666666667</ele><time>2026-04-26T10:10:58.999Z</time></trkpt><trkpt lat="40.05787964428405" lon="15.796098679459723"><ele>322.33333333333337</ele><time>2026-04-26T10:10:59.999Z</time></trkpt><trkpt lat="40.057812447231015" lon="15.796321370064275"><ele>320.0</ele><time>2026-04-26T10:11:00.999Z</time></trkpt><trkpt lat="40.05773396360955" lon="15.796522609068147"><ele>320.0</ele><time>2026-04-26T10:11:01.999Z</time></trkpt><trkpt lat="40.057664346196766" lon="15.796716170922402"><ele>320.0</ele><time>2026-04-26T10:11:02.999Z</time></trkpt><trkpt lat="40.05759488561071" lon="15.796897333736432"><ele>320.0</ele><time>2026-04-26T10:11:03.999Z</time></trkpt><trkpt lat="40.05753678961539" lon="15.797054143704093"><ele>318.75</ele><time>2026-04-26T10:11:04.999Z</time></trkpt><trkpt lat="40.057499810801396" lon="15.797195460774306"><ele>317.5</ele><time>2026-04-26T10:11:05.999Z</time></trkpt><trkpt lat="40.05749803604991" lon="15.797331517223366"><ele>316.25</ele><time>2026-04-26T10:11:06.999Z</time></trkpt><trkpt lat="40.05753722079871" lon="15.797487494612593"><ele>315.0</ele><time>2026-04-26T10:11:07.999Z</time></trkpt><trkpt lat="40.05762109069935" lon="15.797644979239834"><ele>313.25</ele><time>2026-04-26T10:11:08.999Z</time></trkpt><trkpt lat="40.05771145516914" lon="15.797785089397038"><ele>311.5</ele><time>2026-04-26T10:11:09.999Z</time></trkpt><trkpt lat="40.0577742311381" lon="15.797940127056789"><ele>309.75</ele><time>2026-04-26T10:11:10.999Z</time></trkpt><trkpt lat="40.057835636442505" lon="15.798099325897237"><ele>308.0</ele><time>2026-04-26T10:11:11.999Z</time></trkpt><trkpt lat="40.05791029636555" lon="15.798250877652658"><ele>308.0</ele><time>2026-04-26T10:11:12.999Z</time></trkpt><trkpt lat="40.05799080042737" lon="15.798406043283082"><ele>308.0</ele><time>2026-04-26T10:11:13.999Z</time></trkpt><trkpt lat="40.05808567710022" lon="15.798569149076485"><ele>308.0</ele><time>2026-04-26T10:11:14.999Z</time></trkpt><trkpt lat="40.05818556987006" lon="15.798703610594655"><ele>308.0</ele><time>2026-04-26T10:11:15.999Z</time></trkpt><trkpt lat="40.05833470893052" lon="15.798822598383014"><ele>307.5</ele><time>2026-04-26T10:11:16.999Z</time></trkpt><trkpt lat="40.05844535765911" lon="15.79895125957209"><ele>307.0</ele><time>2026-04-26T10:11:17.999Z</time></trkpt><trkpt lat="40.05853063153833" lon="15.79910725216099"><ele>306.5</ele><time>2026-04-26T10:11:18.999Z</time></trkpt><trkpt lat="40.058598497927164" lon="15.799266852737214"><ele>306.0</ele><time>2026-04-26T10:11:19.999Z</time></trkpt><trkpt lat="40.05865772225837" lon="15.799407607700608"><ele>305.0</ele><time>2026-04-26T10:11:20.999Z</time></trkpt><trkpt lat="40.05870497462237" lon="15.799532349692326"><ele>304.0</ele><time>2026-04-26T10:11:21.999Z</time></trkpt><trkpt lat="40.05874883073839" lon="15.799651409963042"><ele>303.0</ele><time>2026-04-26T10:11:22.999Z</time></trkpt><trkpt lat="40.0587849560372" lon="15.799760749429145"><ele>302.0</ele><time>2026-04-26T10:11:23.998Z</time></trkpt><trkpt lat="40.05879084267011" lon="15.799866024177462"><ele>301.0</ele><time>2026-04-26T10:11:24.998Z</time></trkpt><trkpt lat="40.05879885348778" lon="15.79996165323778"><ele>301.0</ele><time>2026-04-26T10:11:25.998Z</time></trkpt><trkpt lat="40.05873827892921" lon="15.800055557106733"><ele>301.0</ele><time>2026-04-26T10:11:26.998Z</time></trkpt><trkpt lat="40.05863269397604" lon="15.800093203094253"><ele>301.0</ele><time>2026-04-26T10:11:27.998Z</time></trkpt><trkpt lat="40.0585204189407" lon="15.800111251400965"><ele>301.0</ele><time>2026-04-26T10:11:28.998Z</time></trkpt><trkpt lat="40.058395783620114" lon="15.800143662412419"><ele>301.0</ele><time>2026-04-26T10:11:29.998Z</time></trkpt><trkpt lat="40.058271880935365" lon="15.800207921425521"><ele>298.0</ele><time>2026-04-26T10:11:30.998Z</time></trkpt><trkpt lat="40.05813986018894" lon="15.800312687282235"><ele>295.0</ele><time>2026-04-26T10:11:31.998Z</time></trkpt><trkpt lat="40.058008663411435" lon="15.800459459504182"><ele>292.0</ele><time>2026-04-26T10:11:32.998Z</time></trkpt><trkpt lat="40.05788289130805" lon="15.800604780474611"><ele>292.0</ele><time>2026-04-26T10:11:33.998Z</time></trkpt><trkpt lat="40.05774332083837" lon="15.800724187383505"><ele>292.0</ele><time>2026-04-26T10:11:34.998Z</time></trkpt><trkpt lat="40.05760274024491" lon="15.800858181428339"><ele>292.0</ele><time>2026-04-26T10:11:35.998Z</time></trkpt><trkpt lat="40.05745520274348" lon="15.800982969605577"><ele>288.0</ele><time>2026-04-26T10:11:36.998Z</time></trkpt><trkpt lat="40.057309817238256" lon="15.801091297421062"><ele>284.0</ele><time>2026-04-26T10:11:37.998Z</time></trkpt><trkpt lat="40.057173071037965" lon="15.801188123910995"><ele>280.0</ele><time>2026-04-26T10:11:39Z</time></trkpt><trkpt lat="40.05706001765281" lon="15.801274683233263"><ele>280.0</ele><time>2026-04-26T10:11:40Z</time></trkpt><trkpt lat="40.056978129701285" lon="15.801379265806535"><ele>280.0</ele><time>2026-04-26T10:11:41Z</time></trkpt><trkpt lat="40.05690527319774" lon="15.801503859317569"><ele>280.0</ele><time>2026-04-26T10:11:42Z</time></trkpt><trkpt lat="40.05685911192487" lon="15.801683693751347"><ele>280.0</ele><time>2026-04-26T10:11:43Z</time></trkpt><trkpt lat="40.0568288461144" lon="15.801867152161579"><ele>279.5</ele><time>2026-04-26T10:11:44Z</time></trkpt><trkpt lat="40.05681002780724" lon="15.802018134796535"><ele>279.0</ele><time>2026-04-26T10:11:45Z</time></trkpt><trkpt lat="40.056816746231654" lon="15.802159371274682"><ele>278.5</ele><time>2026-04-26T10:11:46Z</time></trkpt><trkpt lat="40.05686169159378" lon="15.80230504614668"><ele>278.0</ele><time>2026-04-26T10:11:47Z</time></trkpt><trkpt lat="40.056943790243864" lon="15.802443048313686"><ele>278.0</ele><time>2026-04-26T10:11:48Z</time></trkpt><trkpt lat="40.05702340991206" lon="15.802562450996028"><ele>278.0</ele><time>2026-04-26T10:11:49Z</time></trkpt><trkpt lat="40.057079818676264" lon="15.802669971880933"><ele>278.0</ele><time>2026-04-26T10:11:50Z</time></trkpt><trkpt lat="40.05710065533839" lon="15.802789899579073"><ele>278.0</ele><time>2026-04-26T10:11:51Z</time></trkpt><trkpt lat="40.057062765253455" lon="15.802918581946493"><ele>278.0</ele><time>2026-04-26T10:11:52Z</time></trkpt><trkpt lat="40.05700447600932" lon="15.803045696706173"><ele>276.0</ele><time>2026-04-26T10:11:53Z</time></trkpt><trkpt lat="40.0569250584843" lon="15.803197165442683"><ele>274.0</ele><time>2026-04-26T10:11:54Z</time></trkpt><trkpt lat="40.056844720748586" lon="15.80335208878074"><ele>272.0</ele><time>2026-04-26T10:11:55Z</time></trkpt><trkpt lat="40.05677136494561" lon="15.803493548417189"><ele>270.0</ele><time>2026-04-26T10:11:56Z</time></trkpt><trkpt lat="40.056732346723706" lon="15.803622649889881"><ele>269.25</ele><time>2026-04-26T10:11:57Z</time></trkpt><trkpt lat="40.05670780830928" lon="15.803733126836512"><ele>268.5</ele><time>2026-04-26T10:11:58Z</time></trkpt><trkpt lat="40.05673222836973" lon="15.80386874937241"><ele>267.75</ele><time>2026-04-26T10:11:59Z</time></trkpt><trkpt lat="40.05681589708106" lon="15.804009770071417"><ele>267.0</ele><time>2026-04-26T10:12:00Z</time></trkpt><trkpt lat="40.05692179024619" lon="15.804138033797933"><ele>267.0</ele><time>2026-04-26T10:12:00.999Z</time></trkpt><trkpt lat="40.05699255438835" lon="15.80429100822238"><ele>267.0</ele><time>2026-04-26T10:12:01.999Z</time></trkpt><trkpt lat="40.057008358100816" lon="15.804491793614325"><ele>267.0</ele><time>2026-04-26T10:12:02.999Z</time></trkpt><trkpt lat="40.057020611181166" lon="15.804709638388013"><ele>266.6666666666667</ele><time>2026-04-26T10:12:03.999Z</time></trkpt><trkpt lat="40.057053748003696" lon="15.804934276322411"><ele>266.33333333333337</ele><time>2026-04-26T10:12:04.999Z</time></trkpt><trkpt lat="40.05707025071651" lon="15.805146300570975"><ele>266.0</ele><time>2026-04-26T10:12:05.999Z</time></trkpt><trkpt lat="40.05709003649867" lon="15.805344791667332"><ele>266.0</ele><time>2026-04-26T10:12:06.999Z</time></trkpt><trkpt lat="40.05709222477742" lon="15.805535258636027"><ele>266.0</ele><time>2026-04-26T10:12:07.999Z</time></trkpt><trkpt lat="40.05713074057119" lon="15.805713110326055"><ele>266.0</ele><time>2026-04-26T10:12:08.999Z</time></trkpt><trkpt lat="40.05716356395331" lon="15.80588360555986"><ele>266.0</ele><time>2026-04-26T10:12:09.999Z</time></trkpt><trkpt lat="40.05722126828384" lon="15.806056032567572"><ele>265.0</ele><time>2026-04-26T10:12:10.999Z</time></trkpt><trkpt lat="40.05730712947689" lon="15.806241532529528"><ele>264.0</ele><time>2026-04-26T10:12:11.999Z</time></trkpt><trkpt lat="40.0574027702403" lon="15.80643879059832"><ele>263.0</ele><time>2026-04-26T10:12:12.999Z</time></trkpt><trkpt lat="40.057470615123364" lon="15.806657264430411"><ele>263.33333333333337</ele><time>2026-04-26T10:12:13.999Z</time></trkpt><trkpt lat="40.057559284082394" lon="15.806863466470645"><ele>263.6666666666667</ele><time>2026-04-26T10:12:14.999Z</time></trkpt><trkpt lat="40.05763537025036" lon="15.807075226331982"><ele>264.0</ele><time>2026-04-26T10:12:15.999Z</time></trkpt><trkpt lat="40.057722824776086" lon="15.807277995277301"><ele>264.0</ele><time>2026-04-26T10:12:16.999Z</time></trkpt><trkpt lat="40.05780516985541" lon="15.8074660458977"><ele>264.0</ele><time>2026-04-26T10:12:17.999Z</time></trkpt><trkpt lat="40.05788037631324" lon="15.807642477218472"><ele>264.0</ele><time>2026-04-26T10:12:18.999Z</time></trkpt><trkpt lat="40.057964681579605" lon="15.807804749850774"><ele>264.2</ele><time>2026-04-26T10:12:19.999Z</time></trkpt><trkpt lat="40.05804671466661" lon="15.807907492348878"><ele>264.4</ele><time>2026-04-26T10:12:20.999Z</time></trkpt><trkpt lat="40.05811726238221" lon="15.807999307574889"><ele>264.6</ele><time>2026-04-26T10:12:21.999Z</time></trkpt><trkpt lat="40.05813593354742" lon="15.808129811658599"><ele>264.8</ele><time>2026-04-26T10:12:22.999Z</time></trkpt><trkpt lat="40.058116749730814" lon="15.808300853628948"><ele>265.0</ele><time>2026-04-26T10:12:23.999Z</time></trkpt><trkpt lat="40.05810958018666" lon="15.80847513539509"><ele>266.6</ele><time>2026-04-26T10:12:24.999Z</time></trkpt><trkpt lat="40.05808841928316" lon="15.808604163839938"><ele>268.2</ele><time>2026-04-26T10:12:25.999Z</time></trkpt><trkpt lat="40.058058445807" lon="15.808712617700092"><ele>269.8</ele><time>2026-04-26T10:12:26.999Z</time></trkpt><trkpt lat="40.05799773880907" lon="15.808804275350756"><ele>271.4</ele><time>2026-04-26T10:12:27.999Z</time></trkpt><trkpt lat="40.05789719764319" lon="15.808839654349475"><ele>273.0</ele><time>2026-04-26T10:12:28.999Z</time></trkpt><trkpt lat="40.05777328891562" lon="15.808869927756385"><ele>273.0</ele><time>2026-04-26T10:12:29.999Z</time></trkpt><trkpt lat="40.05763387054467" lon="15.80888478515676"><ele>273.0</ele><time>2026-04-26T10:12:30.999Z</time></trkpt><trkpt lat="40.057491994093745" lon="15.808924841813964"><ele>273.0</ele><time>2026-04-26T10:12:31.999Z</time></trkpt><trkpt lat="40.05735569991601" lon="15.808971086630235"><ele>273.0</ele><time>2026-04-26T10:12:32.999Z</time></trkpt><trkpt lat="40.057231043720165" lon="15.809050320000008"><ele>273.0</ele><time>2026-04-26T10:12:33.999Z</time></trkpt><trkpt lat="40.05712425626595" lon="15.809174226994811"><ele>273.0</ele><time>2026-04-26T10:12:34.999Z</time></trkpt><trkpt lat="40.057028217579514" lon="15.80932731059564"><ele>273.0</ele><time>2026-04-26T10:12:35.999Z</time></trkpt><trkpt lat="40.056941992647126" lon="15.809516896898106"><ele>274.3333333333333</ele><time>2026-04-26T10:12:36.999Z</time></trkpt><trkpt lat="40.056853055646386" lon="15.809713956129036"><ele>275.66666666666663</ele><time>2026-04-26T10:12:37.999Z</time></trkpt><trkpt lat="40.05675382056545" lon="15.809906559843805"><ele>277.0</ele><time>2026-04-26T10:12:38.999Z</time></trkpt><trkpt lat="40.05665593374548" lon="15.81009744020505"><ele>278.0</ele><time>2026-04-26T10:12:39.999Z</time></trkpt><trkpt lat="40.05655711918238" lon="15.810288556503423"><ele>279.0</ele><time>2026-04-26T10:12:40.999Z</time></trkpt><trkpt lat="40.05645477938894" lon="15.810484919287056"><ele>280.0</ele><time>2026-04-26T10:12:41.999Z</time></trkpt><trkpt lat="40.05635687989811" lon="15.810669688712418"><ele>280.0</ele><time>2026-04-26T10:12:42.999Z</time></trkpt><trkpt lat="40.056270145035505" lon="15.810822228917079"><ele>280.0</ele><time>2026-04-26T10:12:43.999Z</time></trkpt><trkpt lat="40.05618923912014" lon="15.810942129673771"><ele>280.0</ele><time>2026-04-26T10:12:44.999Z</time></trkpt><trkpt lat="40.05608265110462" lon="15.811011889930517"><ele>280.0</ele><time>2026-04-26T10:12:45.999Z</time></trkpt><trkpt lat="40.05596889251201" lon="15.811065929053182"><ele>284.3333333333333</ele><time>2026-04-26T10:12:46.999Z</time></trkpt><trkpt lat="40.05582703957287" lon="15.811102373210826"><ele>288.6666666666667</ele><time>2026-04-26T10:12:47.999Z</time></trkpt><trkpt lat="40.05567403209314" lon="15.81113543844953"><ele>293.0</ele><time>2026-04-26T10:12:48.999Z</time></trkpt><trkpt lat="40.05550330786096" lon="15.811185117623344"><ele>293.0</ele><time>2026-04-26T10:12:49.999Z</time></trkpt><trkpt lat="40.05534264262372" lon="15.81122270739988"><ele>293.0</ele><time>2026-04-26T10:12:50.999Z</time></trkpt><trkpt lat="40.05517261682284" lon="15.811239031488316"><ele>293.0</ele><time>2026-04-26T10:12:51.999Z</time></trkpt><trkpt lat="40.05500324108533" lon="15.811270814964734"><ele>294.33333333333337</ele><time>2026-04-26T10:12:52.999Z</time></trkpt><trkpt lat="40.054848551448735" lon="15.811317964356219"><ele>295.6666666666667</ele><time>2026-04-26T10:12:53.999Z</time></trkpt><trkpt lat="40.0547012828053" lon="15.811316340684163"><ele>297.0</ele><time>2026-04-26T10:12:54.999Z</time></trkpt><trkpt lat="40.05456562586457" lon="15.811252715884452"><ele>297.0</ele><time>2026-04-26T10:12:55.999Z</time></trkpt><trkpt lat="40.05444474433106" lon="15.811174739594701"><ele>297.0</ele><time>2026-04-26T10:12:56.999Z</time></trkpt><trkpt lat="40.054325069704035" lon="15.81106790718773"><ele>297.0</ele><time>2026-04-26T10:12:57.999Z</time></trkpt><trkpt lat="40.05419875985479" lon="15.810934104207252"><ele>297.0</ele><time>2026-04-26T10:12:58.999Z</time></trkpt><trkpt lat="40.054082042125835" lon="15.810792274529625"><ele>297.75</ele><time>2026-04-26T10:12:59.999Z</time></trkpt><trkpt lat="40.05396860870353" lon="15.81067619221311"><ele>298.5</ele><time>2026-04-26T10:13:00.999Z</time></trkpt><trkpt lat="40.05386773033746" lon="15.81058536418894"><ele>299.25</ele><time>2026-04-26T10:13:01.999Z</time></trkpt><trkpt lat="40.05375797750896" lon="15.81053635015412"><ele>300.0</ele><time>2026-04-26T10:13:02.999Z</time></trkpt><trkpt lat="40.05362099213706" lon="15.810545799198973"><ele>300.0</ele><time>2026-04-26T10:13:03.999Z</time></trkpt><trkpt lat="40.0534906857103" lon="15.81057482020964"><ele>300.0</ele><time>2026-04-26T10:13:04.999Z</time></trkpt><trkpt lat="40.05336484729803" lon="15.810523299893916"><ele>300.0</ele><time>2026-04-26T10:13:05.999Z</time></trkpt><trkpt lat="40.05324741655018" lon="15.810411128878977"><ele>300.0</ele><time>2026-04-26T10:13:06.999Z</time></trkpt><trkpt lat="40.05313151244411" lon="15.81030493765893"><ele>301.6</ele><time>2026-04-26T10:13:07.999Z</time></trkpt><trkpt lat="40.05301356485095" lon="15.810253459362176"><ele>303.2</ele><time>2026-04-26T10:13:08.999Z</time></trkpt><trkpt lat="40.05290570805489" lon="15.810244981695435"><ele>304.8</ele><time>2026-04-26T10:13:09.999Z</time></trkpt><trkpt lat="40.05280974628584" lon="15.810280802819639"><ele>306.4</ele><time>2026-04-26T10:13:10.999Z</time></trkpt><trkpt lat="40.05274414801514" lon="15.810357032862543"><ele>308.0</ele><time>2026-04-26T10:13:11.999Z</time></trkpt><trkpt lat="40.052708469490554" lon="15.810464388514447"><ele>308.0</ele><time>2026-04-26T10:13:12.999Z</time></trkpt><trkpt lat="40.05272273807765" lon="15.810581576549955"><ele>308.0</ele><time>2026-04-26T10:13:13.999Z</time></trkpt><trkpt lat="40.052779172192665" lon="15.810704524098146"><ele>308.0</ele><time>2026-04-26T10:13:14.999Z</time></trkpt><trkpt lat="40.052865444127946" lon="15.810822837074236"><ele>308.0</ele><time>2026-04-26T10:13:15.999Z</time></trkpt><trkpt lat="40.05295798042828" lon="15.810954499042232"><ele>308.6666666666667</ele><time>2026-04-26T10:13:16.999Z</time></trkpt><trkpt lat="40.05306697622684" lon="15.811090778631419"><ele>309.3333333333333</ele><time>2026-04-26T10:13:17.999Z</time></trkpt><trkpt lat="40.05318641165115" lon="15.811235976094707"><ele>310.0</ele><time>2026-04-26T10:13:18.999Z</time></trkpt><trkpt lat="40.0532972401803" lon="15.811374720812736"><ele>310.0</ele><time>2026-04-26T10:13:19.999Z</time></trkpt><trkpt lat="40.05340786688929" lon="15.811472037971754"><ele>310.0</ele><time>2026-04-26T10:13:20.999Z</time></trkpt><trkpt lat="40.053541264398206" lon="15.811523232157576"><ele>310.0</ele><time>2026-04-26T10:13:21.999Z</time></trkpt><trkpt lat="40.053643249025384" lon="15.811595054334667"><ele>310.0</ele><time>2026-04-26T10:13:22.999Z</time></trkpt><trkpt lat="40.05372255160324" lon="15.811682638525987"><ele>310.0</ele><time>2026-04-26T10:13:23.999Z</time></trkpt><trkpt lat="40.05377621593556" lon="15.81181213795416"><ele>310.0</ele><time>2026-04-26T10:13:24.999Z</time></trkpt><trkpt lat="40.05385270992171" lon="15.811965508149257"><ele>310.0</ele><time>2026-04-26T10:13:25.999Z</time></trkpt><trkpt lat="40.05391102696959" lon="15.812137772635657"><ele>310.0</ele><time>2026-04-26T10:13:26.999Z</time></trkpt><trkpt lat="40.05398002357297" lon="15.812300736102385"><ele>311.0</ele><time>2026-04-26T10:13:27.999Z</time></trkpt><trkpt lat="40.05405353241691" lon="15.812451978949712"><ele>312.0</ele><time>2026-04-26T10:13:28.999Z</time></trkpt><trkpt lat="40.05414811998941" lon="15.812590905038423"><ele>313.0</ele><time>2026-04-26T10:13:29.998Z</time></trkpt><trkpt lat="40.05427569932068" lon="15.812708379189216"><ele>314.0</ele><time>2026-04-26T10:13:30.998Z</time></trkpt><trkpt lat="40.054380424670526" lon="15.81283105800213"><ele>316.75</ele><time>2026-04-26T10:13:31.998Z</time></trkpt><trkpt lat="40.05448108449632" lon="15.812912655365817"><ele>319.5</ele><time>2026-04-26T10:13:32.998Z</time></trkpt><trkpt lat="40.05453738644431" lon="15.813037193683206"><ele>322.25</ele><time>2026-04-26T10:13:33.998Z</time></trkpt><trkpt lat="40.05455467964914" lon="15.813175920365467"><ele>325.0</ele><time>2026-04-26T10:13:34.998Z</time></trkpt><trkpt lat="40.05456858233379" lon="15.813353977938526"><ele>327.5</ele><time>2026-04-26T10:13:35.998Z</time></trkpt><trkpt lat="40.054611114460315" lon="15.81351789952312"><ele>330.0</ele><time>2026-04-26T10:13:36.998Z</time></trkpt><trkpt lat="40.054676125583555" lon="15.813646487467308"><ele>332.5</ele><time>2026-04-26T10:13:37.998Z</time></trkpt><trkpt lat="40.054798941271585" lon="15.813732059086103"><ele>335.0</ele><time>2026-04-26T10:13:38.998Z</time></trkpt><trkpt lat="40.05492109983966" lon="15.813803238891111"><ele>334.1666666666667</ele><time>2026-04-26T10:13:39.998Z</time></trkpt><trkpt lat="40.054985964808836" lon="15.813877287730818"><ele>333.33333333333337</ele><time>2026-04-26T10:13:40.998Z</time></trkpt><trkpt lat="40.055031404931825" lon="15.814013415859486"><ele>332.5</ele><time>2026-04-26T10:13:42.998Z</time></trkpt><trkpt lat="40.05504445150607" lon="15.814140712684106"><ele>331.6666666666667</ele><time>2026-04-26T10:13:45Z</time></trkpt><trkpt lat="40.0550238395624" lon="15.814226833265336"><ele>330.8333333333333</ele><time>2026-04-26T10:13:46Z</time></trkpt><trkpt lat="40.05499238299962" lon="15.814305279545934"><ele>330.0</ele><time>2026-04-26T10:13:47Z</time></trkpt><trkpt lat="40.0549692079064" lon="15.81442006105637"><ele>331.8333333333333</ele><time>2026-04-26T10:13:48Z</time></trkpt><trkpt lat="40.0549457066845" lon="15.814540861014128"><ele>333.6666666666667</ele><time>2026-04-26T10:13:49Z</time></trkpt><trkpt lat="40.05491026849298" lon="15.814649011743244"><ele>335.5</ele><time>2026-04-26T10:13:50Z</time></trkpt><trkpt lat="40.05486601597105" lon="15.814743133297418"><ele>337.33333333333337</ele><time>2026-04-26T10:13:51Z</time></trkpt><trkpt lat="40.0548085132419" lon="15.814806642561448"><ele>339.1666666666667</ele><time>2026-04-26T10:13:52Z</time></trkpt><trkpt lat="40.054730333957835" lon="15.81485338058996"><ele>341.0</ele><time>2026-04-26T10:13:53Z</time></trkpt><trkpt lat="40.054634911489586" lon="15.81486499345764"><ele>341.0</ele><time>2026-04-26T10:13:54Z</time></trkpt><trkpt lat="40.05452944026588" lon="15.81483511220355"><ele>341.0</ele><time>2026-04-26T10:13:55Z</time></trkpt><trkpt lat="40.054414629500215" lon="15.814824747122383"><ele>341.0</ele><time>2026-04-26T10:13:56Z</time></trkpt><trkpt lat="40.054310013844066" lon="15.81483304468291"><ele>341.0</ele><time>2026-04-26T10:13:57Z</time></trkpt><trkpt lat="40.05422301901204" lon="15.814862223853854"><ele>341.0</ele><time>2026-04-26T10:13:58Z</time></trkpt><trkpt lat="40.054147063302665" lon="15.814908805139401"><ele>343.4</ele><time>2026-04-26T10:13:59Z</time></trkpt><trkpt lat="40.05408992410064" lon="15.814999879296549"><ele>345.8</ele><time>2026-04-26T10:14:00Z</time></trkpt><trkpt lat="40.0540454143216" lon="15.81510788224541"><ele>348.2</ele><time>2026-04-26T10:14:01Z</time></trkpt><trkpt lat="40.05401504882288" lon="15.815264430106307"><ele>350.59999999999997</ele><time>2026-04-26T10:14:02Z</time></trkpt><trkpt lat="40.05398458821636" lon="15.815412637861115"><ele>353.0</ele><time>2026-04-26T10:14:03Z</time></trkpt><trkpt lat="40.05393301951276" lon="15.81553873308037"><ele>353.75</ele><time>2026-04-26T10:14:04Z</time></trkpt><trkpt lat="40.05381768994093" lon="15.815621554618632"><ele>354.5</ele><time>2026-04-26T10:14:04.999Z</time></trkpt><trkpt lat="40.05370882520896" lon="15.815722808536174"><ele>355.25</ele><time>2026-04-26T10:14:05.999Z</time></trkpt><trkpt lat="40.05359368205484" lon="15.815806049172123"><ele>356.0</ele><time>2026-04-26T10:14:06.999Z</time></trkpt><trkpt lat="40.05347802617663" lon="15.815900046448842"><ele>357.25</ele><time>2026-04-26T10:14:07.999Z</time></trkpt><trkpt lat="40.053368509955476" lon="15.815992946148983"><ele>358.5</ele><time>2026-04-26T10:14:08.999Z</time></trkpt><trkpt lat="40.05325090319778" lon="15.816072685972056"><ele>359.75</ele><time>2026-04-26T10:14:09.999Z</time></trkpt><trkpt lat="40.05313354226958" lon="15.81614059462466"><ele>361.0</ele><time>2026-04-26T10:14:10.999Z</time></trkpt><trkpt lat="40.053011845410204" lon="15.816222545049873"><ele>364.25</ele><time>2026-04-26T10:14:11.999Z</time></trkpt><trkpt lat="40.05292509480578" lon="15.816349179529327"><ele>367.5</ele><time>2026-04-26T10:14:12.999Z</time></trkpt><trkpt lat="40.0528148058544" lon="15.816413786798503"><ele>370.75</ele><time>2026-04-26T10:14:13.999Z</time></trkpt><trkpt lat="40.05270330908922" lon="15.816466148744393"><ele>374.0</ele><time>2026-04-26T10:14:14.999Z</time></trkpt><trkpt lat="40.052579700416125" lon="15.816512855680571"><ele>374.0</ele><time>2026-04-26T10:14:15.999Z</time></trkpt><trkpt lat="40.0524723704339" lon="15.816541824204148"><ele>374.0</ele><time>2026-04-26T10:14:16.999Z</time></trkpt><trkpt lat="40.052360129775025" lon="15.816559647870795"><ele>374.0</ele><time>2026-04-26T10:14:17.999Z</time></trkpt><trkpt lat="40.052246230842954" lon="15.816580115668794"><ele>374.0</ele><time>2026-04-26T10:14:18.999Z</time></trkpt><trkpt lat="40.05214314973903" lon="15.816601243710457"><ele>374.0</ele><time>2026-04-26T10:14:19.999Z</time></trkpt><trkpt lat="40.05204032223268" lon="15.816618950781708"><ele>377.25</ele><time>2026-04-26T10:14:20.999Z</time></trkpt><trkpt lat="40.05193039258258" lon="15.816655973518627"><ele>380.5</ele><time>2026-04-26T10:14:21.999Z</time></trkpt><trkpt lat="40.05182139332587" lon="15.816713231946068"><ele>383.75</ele><time>2026-04-26T10:14:22.999Z</time></trkpt><trkpt lat="40.05171020177563" lon="15.816774564831764"><ele>387.0</ele><time>2026-04-26T10:14:23.999Z</time></trkpt><trkpt lat="40.0516014140567" lon="15.816835259645083"><ele>389.25</ele><time>2026-04-26T10:14:24.999Z</time></trkpt><trkpt lat="40.05150725956662" lon="15.816925760168521"><ele>391.5</ele><time>2026-04-26T10:14:25.999Z</time></trkpt><trkpt lat="40.051412475856694" lon="15.81698131090222"><ele>393.75</ele><time>2026-04-26T10:14:26.999Z</time></trkpt><trkpt lat="40.05134910873068" lon="15.817135602315151"><ele>396.0</ele><time>2026-04-26T10:14:27.999Z</time></trkpt><trkpt lat="40.051272162606764" lon="15.817284425765338"><ele>396.0</ele><time>2026-04-26T10:14:28.999Z</time></trkpt><trkpt lat="40.051190110945505" lon="15.817459437231014"><ele>396.0</ele><time>2026-04-26T10:14:29.999Z</time></trkpt><trkpt lat="40.05110050721528" lon="15.817638949145694"><ele>396.0</ele><time>2026-04-26T10:14:30.999Z</time></trkpt><trkpt lat="40.05101900369641" lon="15.817825161232287"><ele>397.66666666666663</ele><time>2026-04-26T10:14:31.999Z</time></trkpt><trkpt lat="40.05095366565679" lon="15.81802536481649"><ele>399.3333333333333</ele><time>2026-04-26T10:14:32.999Z</time></trkpt><trkpt lat="40.05091286180301" lon="15.818260953882971"><ele>401.0</ele><time>2026-04-26T10:14:33.999Z</time></trkpt><trkpt lat="40.05085720388974" lon="15.818494261429942"><ele>401.0</ele><time>2026-04-26T10:14:34.999Z</time></trkpt><trkpt lat="40.05080479389646" lon="15.818684816941941"><ele>401.0</ele><time>2026-04-26T10:14:35.999Z</time></trkpt><trkpt lat="40.05076246878278" lon="15.81885062492959"><ele>401.0</ele><time>2026-04-26T10:14:36.999Z</time></trkpt><trkpt lat="40.050733258358406" lon="15.81900023002477"><ele>401.0</ele><time>2026-04-26T10:14:37.999Z</time></trkpt><trkpt lat="40.05068471646136" lon="15.819122673105117"><ele>401.0</ele><time>2026-04-26T10:14:38.999Z</time></trkpt><trkpt lat="40.05062854272101" lon="15.819182714318654"><ele>401.0</ele><time>2026-04-26T10:14:39.999Z</time></trkpt><trkpt lat="40.05056908199178" lon="15.819273167222509"><ele>401.0</ele><time>2026-04-26T10:14:42.999Z</time></trkpt><trkpt lat="40.05060115132393" lon="15.819392254299721"><ele>401.0</ele><time>2026-04-26T10:14:43.999Z</time></trkpt><trkpt lat="40.05061283588507" lon="15.819517541151981"><ele>401.0</ele><time>2026-04-26T10:14:44.999Z</time></trkpt><trkpt lat="40.05063827178717" lon="15.819651156373615"><ele>400.4</ele><time>2026-04-26T10:14:45.999Z</time></trkpt><trkpt lat="40.05067101847389" lon="15.819776538103795"><ele>399.8</ele><time>2026-04-26T10:14:46.999Z</time></trkpt><trkpt lat="40.050706412446075" lon="15.819889418055576"><ele>399.2</ele><time>2026-04-26T10:14:47.999Z</time></trkpt><trkpt lat="40.05074895752686" lon="15.820018176476015"><ele>398.59999999999997</ele><time>2026-04-26T10:14:48.999Z</time></trkpt><trkpt lat="40.05078950410385" lon="15.820157894134423"><ele>398.0</ele><time>2026-04-26T10:14:49.999Z</time></trkpt><trkpt lat="40.05083468745842" lon="15.82031579242567"><ele>403.3333333333333</ele><time>2026-04-26T10:14:50.999Z</time></trkpt><trkpt lat="40.05089293606449" lon="15.820487436350952"><ele>408.66666666666663</ele><time>2026-04-26T10:14:51.999Z</time></trkpt><trkpt lat="40.05096134366501" lon="15.820674659279797"><ele>414.0</ele><time>2026-04-26T10:14:52.999Z</time></trkpt><trkpt lat="40.05104200687176" lon="15.82087821821461"><ele>414.0</ele><time>2026-04-26T10:14:53.999Z</time></trkpt><trkpt lat="40.05112961268484" lon="15.821105566715467"><ele>414.0</ele><time>2026-04-26T10:14:54.999Z</time></trkpt><trkpt lat="40.051212439954945" lon="15.821332626272385"><ele>414.0</ele><time>2026-04-26T10:14:55.999Z</time></trkpt><trkpt lat="40.051281339075906" lon="15.821521718102652"><ele>414.0</ele><time>2026-04-26T10:14:56.999Z</time></trkpt><trkpt lat="40.051341183544864" lon="15.821686116658915"><ele>414.0</ele><time>2026-04-26T10:14:57.999Z</time></trkpt><trkpt lat="40.051415826479094" lon="15.82184350003978"><ele>414.0</ele><time>2026-04-26T10:14:58.999Z</time></trkpt><trkpt lat="40.0515268557397" lon="15.822000169130838"><ele>414.0</ele><time>2026-04-26T10:14:59.999Z</time></trkpt><trkpt lat="40.051647858078404" lon="15.822155786647553"><ele>414.5</ele><time>2026-04-26T10:15:00.999Z</time></trkpt><trkpt lat="40.05174740625625" lon="15.822297785179108"><ele>415.0</ele><time>2026-04-26T10:15:01.999Z</time></trkpt><trkpt lat="40.051836089240055" lon="15.822428719093052"><ele>415.5</ele><time>2026-04-26T10:15:02.999Z</time></trkpt><trkpt lat="40.05192286995765" lon="15.822553288896666"><ele>416.0</ele><time>2026-04-26T10:15:03.999Z</time></trkpt><trkpt lat="40.052011933730356" lon="15.822672122238934"><ele>416.0</ele><time>2026-04-26T10:15:04.999Z</time></trkpt><trkpt lat="40.05212684304744" lon="15.822788971662657"><ele>416.0</ele><time>2026-04-26T10:15:05.999Z</time></trkpt><trkpt lat="40.05225669861339" lon="15.822899220057936"><ele>416.0</ele><time>2026-04-26T10:15:06.999Z</time></trkpt><trkpt lat="40.052376363674135" lon="15.823005665420817"><ele>416.0</ele><time>2026-04-26T10:15:07.999Z</time></trkpt><trkpt lat="40.05248147080044" lon="15.82312451073281"><ele>416.25</ele><time>2026-04-26T10:15:08.999Z</time></trkpt><trkpt lat="40.05256280945678" lon="15.823258568421394"><ele>416.5</ele><time>2026-04-26T10:15:09.999Z</time></trkpt><trkpt lat="40.0526622557279" lon="15.8233708676976"><ele>416.75</ele><time>2026-04-26T10:15:10.999Z</time></trkpt><trkpt lat="40.052740986232074" lon="15.823503737540273"><ele>417.0</ele><time>2026-04-26T10:15:11.999Z</time></trkpt><trkpt lat="40.05278726405802" lon="15.823662445758707"><ele>417.0</ele><time>2026-04-26T10:15:12.999Z</time></trkpt><trkpt lat="40.05282993218404" lon="15.823823938756583"><ele>417.0</ele><time>2026-04-26T10:15:13.999Z</time></trkpt><trkpt lat="40.052888208953064" lon="15.823989919084097"><ele>417.0</ele><time>2026-04-26T10:15:14.999Z</time></trkpt><trkpt lat="40.05295114900711" lon="15.824143746966913"><ele>417.0</ele><time>2026-04-26T10:15:15.999Z</time></trkpt><trkpt lat="40.053039991330174" lon="15.824270708583105"><ele>417.33333333333337</ele><time>2026-04-26T10:15:16.999Z</time></trkpt><trkpt lat="40.053167696081296" lon="15.824391617862021"><ele>417.6666666666667</ele><time>2026-04-26T10:15:17.999Z</time></trkpt><trkpt lat="40.053300880489076" lon="15.824516814193831"><ele>418.0</ele><time>2026-04-26T10:15:18.999Z</time></trkpt><trkpt lat="40.05341535300925" lon="15.824657960353"><ele>418.0</ele><time>2026-04-26T10:15:19.999Z</time></trkpt><trkpt lat="40.0535114906887" lon="15.824796005160662"><ele>418.0</ele><time>2026-04-26T10:15:20.999Z</time></trkpt><trkpt lat="40.05359291139588" lon="15.824943077561633"><ele>418.0</ele><time>2026-04-26T10:15:21.999Z</time></trkpt><trkpt lat="40.053689444881314" lon="15.825055196666135"><ele>418.0</ele><time>2026-04-26T10:15:22.999Z</time></trkpt><trkpt lat="40.05377076618183" lon="15.825181147144074"><ele>416.0</ele><time>2026-04-26T10:15:23.999Z</time></trkpt><trkpt lat="40.053849479026766" lon="15.82528636133424"><ele>414.0</ele><time>2026-04-26T10:15:24.999Z</time></trkpt><trkpt lat="40.05390746333533" lon="15.825348771987608"><ele>412.0</ele><time>2026-04-26T10:15:25.999Z</time></trkpt><trkpt lat="40.05385833639559" lon="15.825447643108529"><ele>410.0</ele><time>2026-04-26T10:15:30.999Z</time></trkpt><trkpt lat="40.05379072632043" lon="15.825474536407482"><ele>408.0</ele><time>2026-04-26T10:15:31.999Z</time></trkpt><trkpt lat="40.05368820027668" lon="15.825554240047868"><ele>408.0</ele><time>2026-04-26T10:15:32.999Z</time></trkpt><trkpt lat="40.05359564434126" lon="15.82557558540768"><ele>408.0</ele><time>2026-04-26T10:15:33.999Z</time></trkpt><trkpt lat="40.05349303409688" lon="15.825598520773788"><ele>408.0</ele><time>2026-04-26T10:15:34.999Z</time></trkpt><trkpt lat="40.05338917842722" lon="15.825639481226473"><ele>408.0</ele><time>2026-04-26T10:15:35.999Z</time></trkpt><trkpt lat="40.05328231770984" lon="15.825641845960035"><ele>408.0</ele><time>2026-04-26T10:15:36.999Z</time></trkpt><trkpt lat="40.053195550938185" lon="15.825664719887646"><ele>406.0</ele><time>2026-04-26T10:15:37.998Z</time></trkpt><trkpt lat="40.053096943320426" lon="15.82569271288035"><ele>404.0</ele><time>2026-04-26T10:15:38.998Z</time></trkpt><trkpt lat="40.05301087848698" lon="15.82571647681895"><ele>402.0</ele><time>2026-04-26T10:15:39.998Z</time></trkpt><trkpt lat="40.05294191306155" lon="15.825732355449071"><ele>400.0</ele><time>2026-04-26T10:15:40.998Z</time></trkpt><trkpt lat="40.05283973585964" lon="15.825767405944005"><ele>398.0</ele><time>2026-04-26T10:15:42.998Z</time></trkpt><trkpt lat="40.05278546873606" lon="15.825825938460024"><ele>396.0</ele><time>2026-04-26T10:15:43.998Z</time></trkpt><trkpt lat="40.052770719600844" lon="15.82593925142337"><ele>393.6</ele><time>2026-04-26T10:15:44.998Z</time></trkpt><trkpt lat="40.052706043818496" lon="15.826055506483256"><ele>391.20000000000005</ele><time>2026-04-26T10:15:45.998Z</time></trkpt><trkpt lat="40.052657809178555" lon="15.826175434967658"><ele>388.79999999999995</ele><time>2026-04-26T10:15:46.998Z</time></trkpt><trkpt lat="40.05262166308971" lon="15.826255556413601"><ele>386.4</ele><time>2026-04-26T10:15:47.998Z</time></trkpt><trkpt lat="40.05257560442929" lon="15.826328038993026"><ele>384.0</ele><time>2026-04-26T10:15:48.998Z</time></trkpt><trkpt lat="40.052455395502655" lon="15.826334660591531"><ele>381.79999999999995</ele><time>2026-04-26T10:15:51Z</time></trkpt><trkpt lat="40.05236945148058" lon="15.826298240299675"><ele>379.59999999999997</ele><time>2026-04-26T10:15:52Z</time></trkpt><trkpt lat="40.05226527621906" lon="15.826281643448018"><ele>377.4</ele><time>2026-04-26T10:15:53Z</time></trkpt><trkpt lat="40.05215658489139" lon="15.82628239517283"><ele>375.2</ele><time>2026-04-26T10:15:54Z</time></trkpt><trkpt lat="40.05204475452204" lon="15.826298379383068"><ele>373.0</ele><time>2026-04-26T10:15:55Z</time></trkpt><trkpt lat="40.051931619552136" lon="15.826334321845128"><ele>373.0</ele><time>2026-04-26T10:15:55.999Z</time></trkpt><trkpt lat="40.051812377979694" lon="15.826358650383982"><ele>373.0</ele><time>2026-04-26T10:15:56.999Z</time></trkpt><trkpt lat="40.05168707963831" lon="15.826382521905234"><ele>373.0</ele><time>2026-04-26T10:15:57.999Z</time></trkpt><trkpt lat="40.051559515938024" lon="15.826413752445077"><ele>373.0</ele><time>2026-04-26T10:15:58.999Z</time></trkpt><trkpt lat="40.05142415327639" lon="15.826446432040768"><ele>370.0</ele><time>2026-04-26T10:15:59.999Z</time></trkpt><trkpt lat="40.05130865791448" lon="15.826485922512543"><ele>367.0</ele><time>2026-04-26T10:16:01Z</time></trkpt><trkpt lat="40.05120367126609" lon="15.8265585895413"><ele>364.0</ele><time>2026-04-26T10:16:01.999Z</time></trkpt><trkpt lat="40.051106659434915" lon="15.826603054915271"><ele>361.0</ele><time>2026-04-26T10:16:03Z</time></trkpt><trkpt lat="40.05101682256922" lon="15.826645854699688"><ele>358.0</ele><time>2026-04-26T10:16:04Z</time></trkpt><trkpt lat="40.05093882031751" lon="15.8267046495225"><ele>358.0</ele><time>2026-04-26T10:16:05Z</time></trkpt><trkpt lat="40.050879247850666" lon="15.826785889608955"><ele>358.0</ele><time>2026-04-26T10:16:06Z</time></trkpt><trkpt lat="40.05083451974217" lon="15.826886789610286"><ele>358.0</ele><time>2026-04-26T10:16:06.999Z</time></trkpt><trkpt lat="40.05078738434764" lon="15.827011178022348"><ele>358.0</ele><time>2026-04-26T10:16:07.999Z</time></trkpt><trkpt lat="40.050731815908236" lon="15.827108673378786"><ele>358.0</ele><time>2026-04-26T10:16:08.999Z</time></trkpt><trkpt lat="40.05064311185782" lon="15.827167386312226"><ele>354.75</ele><time>2026-04-26T10:16:09.999Z</time></trkpt><trkpt lat="40.050535502250035" lon="15.827218511982592"><ele>351.5</ele><time>2026-04-26T10:16:10.999Z</time></trkpt><trkpt lat="40.05040577624414" lon="15.827274510246259"><ele>348.25</ele><time>2026-04-26T10:16:11.999Z</time></trkpt><trkpt lat="40.05026817511663" lon="15.82733532662356"><ele>345.0</ele><time>2026-04-26T10:16:12.999Z</time></trkpt><trkpt lat="40.050139086743464" lon="15.827393982105049"><ele>345.0</ele><time>2026-04-26T10:16:13.999Z</time></trkpt><trkpt lat="40.05001638301316" lon="15.82744455425515"><ele>345.0</ele><time>2026-04-26T10:16:14.999Z</time></trkpt><trkpt lat="40.049895487442846" lon="15.827495613432266"><ele>345.0</ele><time>2026-04-26T10:16:15.999Z</time></trkpt><trkpt lat="40.04978363494968" lon="15.827568384114034"><ele>345.0</ele><time>2026-04-26T10:16:16.999Z</time></trkpt><trkpt lat="40.04966464798758" lon="15.827607990826007"><ele>339.75</ele><time>2026-04-26T10:16:17.999Z</time></trkpt><trkpt lat="40.04955383189163" lon="15.82765106720914"><ele>334.5</ele><time>2026-04-26T10:16:18.999Z</time></trkpt><trkpt lat="40.04944410031777" lon="15.827694165129992"><ele>329.25</ele><time>2026-04-26T10:16:19.999Z</time></trkpt><trkpt lat="40.04933457660608" lon="15.827744468568556"><ele>324.0</ele><time>2026-04-26T10:16:20.999Z</time></trkpt><trkpt lat="40.049230239421135" lon="15.827805484182447"><ele>321.25</ele><time>2026-04-26T10:16:21.999Z</time></trkpt><trkpt lat="40.04911928731273" lon="15.827872283983359"><ele>318.5</ele><time>2026-04-26T10:16:22.999Z</time></trkpt><trkpt lat="40.04901006846162" lon="15.827935775371362"><ele>315.75</ele><time>2026-04-26T10:16:23.999Z</time></trkpt><trkpt lat="40.048904116978896" lon="15.827990713947992"><ele>313.0</ele><time>2026-04-26T10:16:24.999Z</time></trkpt><trkpt lat="40.048797739259484" lon="15.828034037028031"><ele>313.0</ele><time>2026-04-26T10:16:25.999Z</time></trkpt><trkpt lat="40.04869804961596" lon="15.828075114590861"><ele>313.0</ele><time>2026-04-26T10:16:26.999Z</time></trkpt><trkpt lat="40.04859778026958" lon="15.828102339257033"><ele>313.0</ele><time>2026-04-26T10:16:27.999Z</time></trkpt><trkpt lat="40.048506519268955" lon="15.82809933677368"><ele>313.0</ele><time>2026-04-26T10:16:28.999Z</time></trkpt><trkpt lat="40.04843342167753" lon="15.828069092499572"><ele>313.0</ele><time>2026-04-26T10:16:29.999Z</time></trkpt><trkpt lat="40.04836558914684" lon="15.828039801232459"><ele>313.0</ele><time>2026-04-26T10:16:30.999Z</time></trkpt><trkpt lat="40.04824816911065" lon="15.828050958340445"><ele>313.0</ele><time>2026-04-26T10:16:32.999Z</time></trkpt><trkpt lat="40.0482216704943" lon="15.828151668678583"><ele>313.0</ele><time>2026-04-26T10:16:33.999Z</time></trkpt><trkpt lat="40.048280353762436" lon="15.828246147758657"><ele>313.0</ele><time>2026-04-26T10:16:34.999Z</time></trkpt><trkpt lat="40.04835490996893" lon="15.82829120125612"><ele>313.0</ele><time>2026-04-26T10:16:35.999Z</time></trkpt><trkpt lat="40.04841586315399" lon="15.828321292529536"><ele>313.0</ele><time>2026-04-26T10:16:36.999Z</time></trkpt><trkpt lat="40.048407783094035" lon="15.828438072264278"><ele>313.0</ele><time>2026-04-26T10:16:38.999Z</time></trkpt><trkpt lat="40.048347397630565" lon="15.828466108897379"><ele>310.2</ele><time>2026-04-26T10:16:39.999Z</time></trkpt><trkpt lat="40.048261230309585" lon="15.82838605624189"><ele>307.4</ele><time>2026-04-26T10:16:40.999Z</time></trkpt><trkpt lat="40.048160419848855" lon="15.828360149498259"><ele>304.59999999999997</ele><time>2026-04-26T10:16:41.999Z</time></trkpt><trkpt lat="40.04806264969918" lon="15.828355698365023"><ele>301.8</ele><time>2026-04-26T10:16:42.999Z</time></trkpt><trkpt lat="40.04798426462787" lon="15.828339200077814"><ele>299.0</ele><time>2026-04-26T10:16:43.999Z</time></trkpt><trkpt lat="40.04792182785626" lon="15.82829425710563"><ele>299.0</ele><time>2026-04-26T10:16:44.999Z</time></trkpt><trkpt lat="40.04785769785637" lon="15.828277379173256"><ele>299.0</ele><time>2026-04-26T10:16:45.999Z</time></trkpt><trkpt lat="40.04779894340207" lon="15.828233886980458"><ele>299.0</ele><time>2026-04-26T10:16:46.999Z</time></trkpt><trkpt lat="40.04768551678163" lon="15.82821007474981"><ele>299.0</ele><time>2026-04-26T10:16:48.999Z</time></trkpt><trkpt lat="40.04764464270288" lon="15.828286317968587"><ele>299.0</ele><time>2026-04-26T10:16:49.999Z</time></trkpt><trkpt lat="40.0476642607491" lon="15.828384710483867"><ele>299.0</ele><time>2026-04-26T10:16:50.999Z</time></trkpt><trkpt lat="40.04775253411867" lon="15.828487404710668"><ele>297.6666666666667</ele><time>2026-04-26T10:16:52.999Z</time></trkpt><trkpt lat="40.04774518102923" lon="15.82858349077562"><ele>296.33333333333337</ele><time>2026-04-26T10:16:54.999Z</time></trkpt><trkpt lat="40.047674922012654" lon="15.828621908937759"><ele>295.0</ele><time>2026-04-26T10:16:55.999Z</time></trkpt><trkpt lat="40.047589868044206" lon="15.828574607609498"><ele>293.6666666666667</ele><time>2026-04-26T10:16:56.999Z</time></trkpt><trkpt lat="40.04752130605463" lon="15.82858104142006"><ele>292.3333333333333</ele><time>2026-04-26T10:16:57.999Z</time></trkpt><trkpt lat="40.04743884831039" lon="15.828681935292092"><ele>291.0</ele><time>2026-04-26T10:16:59.999Z</time></trkpt><trkpt lat="40.04747090490796" lon="15.828803315895366"><ele>291.0</ele><time>2026-04-26T10:17:00.999Z</time></trkpt><trkpt lat="40.047582282246374" lon="15.828851742705742"><ele>291.0</ele><time>2026-04-26T10:17:01.999Z</time></trkpt><trkpt lat="40.04765631737202" lon="15.828892848370627"><ele>291.0</ele><time>2026-04-26T10:17:03.999Z</time></trkpt><trkpt lat="40.04770129004662" lon="15.828953794847862"><ele>291.0</ele><time>2026-04-26T10:17:07.999Z</time></trkpt><trkpt lat="40.047751782595846" lon="15.829021859680045"><ele>291.0</ele><time>2026-04-26T10:17:13.999Z</time></trkpt><trkpt lat="40.04772148494908" lon="15.829243191845482"><ele>292.25</ele><time>2026-04-26T10:17:16.999Z</time></trkpt><trkpt lat="40.04769373414917" lon="15.829404622629745"><ele>293.5</ele><time>2026-04-26T10:17:17.999Z</time></trkpt><trkpt lat="40.0476434195722" lon="15.82955996923573"><ele>294.75</ele><time>2026-04-26T10:17:18.999Z</time></trkpt><trkpt lat="40.04758826228088" lon="15.829716849362327"><ele>296.0</ele><time>2026-04-26T10:17:19.999Z</time></trkpt><trkpt lat="40.04754142665406" lon="15.829884166326684"><ele>296.0</ele><time>2026-04-26T10:17:20.999Z</time></trkpt><trkpt lat="40.047550959971474" lon="15.830073545082094"><ele>296.0</ele><time>2026-04-26T10:17:21.999Z</time></trkpt><trkpt lat="40.04755724438031" lon="15.830269307386583"><ele>296.0</ele><time>2026-04-26T10:17:22.999Z</time></trkpt><trkpt lat="40.047568693138444" lon="15.830480036766948"><ele>298.33333333333337</ele><time>2026-04-26T10:17:23.999Z</time></trkpt><trkpt lat="40.04757562340338" lon="15.830698984392908"><ele>300.6666666666667</ele><time>2026-04-26T10:17:24.999Z</time></trkpt><trkpt lat="40.04756283948561" lon="15.830914174803313"><ele>303.0</ele><time>2026-04-26T10:17:25.999Z</time></trkpt><trkpt lat="40.04756283948813" lon="15.831115358963071"><ele>305.25</ele><time>2026-04-26T10:17:26.999Z</time></trkpt><trkpt lat="40.04756164603373" lon="15.831312925366236"><ele>307.5</ele><time>2026-04-26T10:17:27.999Z</time></trkpt><trkpt lat="40.047559071014774" lon="15.831503476890742"><ele>309.75</ele><time>2026-04-26T10:17:28.999Z</time></trkpt><trkpt lat="40.047555138709996" lon="15.831667986070185"><ele>312.0</ele><time>2026-04-26T10:17:29.999Z</time></trkpt><trkpt lat="40.04754979451571" lon="15.831830997842621"><ele>313.0</ele><time>2026-04-26T10:17:30.999Z</time></trkpt><trkpt lat="40.04754385106479" lon="15.831993017409014"><ele>314.0</ele><time>2026-04-26T10:17:31.999Z</time></trkpt><trkpt lat="40.047536500544005" lon="15.832143230346642"><ele>315.0</ele><time>2026-04-26T10:17:32.999Z</time></trkpt><trkpt lat="40.047526475131484" lon="15.832270158168791"><ele>316.0</ele><time>2026-04-26T10:17:33.999Z</time></trkpt><trkpt lat="40.04751538775472" lon="15.832377066548634"><ele>317.0</ele><time>2026-04-26T10:17:34.999Z</time></trkpt><trkpt lat="40.047503934298256" lon="15.832463161279582"><ele>317.0</ele><time>2026-04-26T10:17:35.999Z</time></trkpt><trkpt lat="40.04747842416459" lon="15.832544967245981"><ele>317.0</ele><time>2026-04-26T10:17:37.999Z</time></trkpt><trkpt lat="40.04741593342239" lon="15.83258406166888"><ele>317.0</ele><time>2026-04-26T10:17:39.999Z</time></trkpt><trkpt lat="40.04736085180622" lon="15.832492158745387"><ele>317.0</ele><time>2026-04-26T10:17:40.999Z</time></trkpt><trkpt lat="40.047277202467185" lon="15.832455695129182"><ele>317.0</ele><time>2026-04-26T10:17:41.999Z</time></trkpt><trkpt lat="40.04718636018183" lon="15.832418682425493"><ele>317.0</ele><time>2026-04-26T10:17:42.999Z</time></trkpt><trkpt lat="40.04708226511039" lon="15.832376270062603"><ele>318.0</ele><time>2026-04-26T10:17:43.999Z</time></trkpt><trkpt lat="40.04695698146715" lon="15.832325175408487"><ele>319.0</ele><time>2026-04-26T10:17:44.998Z</time></trkpt><trkpt lat="40.04682632479989" lon="15.832267322113386"><ele>320.0</ele><time>2026-04-26T10:17:45.998Z</time></trkpt><trkpt lat="40.04669766054441" lon="15.832234061110078"><ele>321.0</ele><time>2026-04-26T10:17:46.998Z</time></trkpt><trkpt lat="40.04656376546711" lon="15.83218107980399"><ele>323.3333333333333</ele><time>2026-04-26T10:17:47.998Z</time></trkpt><trkpt lat="40.046414992758805" lon="15.832154551981601"><ele>325.66666666666663</ele><time>2026-04-26T10:17:48.998Z</time></trkpt><trkpt lat="40.04623770515797" lon="15.832168046653663"><ele>328.0</ele><time>2026-04-26T10:17:49.998Z</time></trkpt><trkpt lat="40.04605351306548" lon="15.83219502866188"><ele>328.0</ele><time>2026-04-26T10:17:50.998Z</time></trkpt><trkpt lat="40.045885118471574" lon="15.832141128141947"><ele>328.0</ele><time>2026-04-26T10:17:51.998Z</time></trkpt><trkpt lat="40.045725849817046" lon="15.832120719070218"><ele>328.0</ele><time>2026-04-26T10:17:52.998Z</time></trkpt><trkpt lat="40.04558475551617" lon="15.832072444037994"><ele>328.75</ele><time>2026-04-26T10:17:53.998Z</time></trkpt><trkpt lat="40.04545380294993" lon="15.832040756514353"><ele>329.5</ele><time>2026-04-26T10:17:54.998Z</time></trkpt><trkpt lat="40.04533595163537" lon="15.832012377178282"><ele>330.25</ele><time>2026-04-26T10:17:55.998Z</time></trkpt><trkpt lat="40.04520915493735" lon="15.832000179654349"><ele>331.0</ele><time>2026-04-26T10:17:57Z</time></trkpt><trkpt lat="40.04509158320459" lon="15.832004864473474"><ele>331.0</ele><time>2026-04-26T10:17:58Z</time></trkpt><trkpt lat="40.04498825584163" lon="15.832015265092132"><ele>331.0</ele><time>2026-04-26T10:17:59Z</time></trkpt><trkpt lat="40.04490316501881" lon="15.832018899727894"><ele>331.0</ele><time>2026-04-26T10:18:00Z</time></trkpt><trkpt lat="40.04483344403818" lon="15.832027900360018"><ele>331.0</ele><time>2026-04-26T10:18:01Z</time></trkpt><trkpt lat="40.04476047570216" lon="15.832030155853458"><ele>331.0</ele><time>2026-04-26T10:18:03Z</time></trkpt><trkpt lat="40.044731967766076" lon="15.83220166024346"><ele>331.0</ele><time>2026-04-26T10:18:05Z</time></trkpt><trkpt lat="40.0447816569493" lon="15.832293364880606"><ele>331.0</ele><time>2026-04-26T10:18:06Z</time></trkpt><trkpt lat="40.044840511354" lon="15.832399280520354"><ele>331.0</ele><time>2026-04-26T10:18:07Z</time></trkpt><trkpt lat="40.04493190045651" lon="15.83248111863834"><ele>331.0</ele><time>2026-04-26T10:18:08Z</time></trkpt><trkpt lat="40.04502885590227" lon="15.83255359136989"><ele>331.0</ele><time>2026-04-26T10:18:09Z</time></trkpt><trkpt lat="40.045124570556304" lon="15.832628748322751"><ele>333.20000000000005</ele><time>2026-04-26T10:18:10Z</time></trkpt><trkpt lat="40.04522035319388" lon="15.832704166067433"><ele>335.40000000000003</ele><time>2026-04-26T10:18:11Z</time></trkpt><trkpt lat="40.04531797128154" lon="15.832772634945663"><ele>337.6</ele><time>2026-04-26T10:18:12Z</time></trkpt><trkpt lat="40.045421880795516" lon="15.83281607227321"><ele>339.8</ele><time>2026-04-26T10:18:13Z</time></trkpt><trkpt lat="40.04552575261657" lon="15.83281322332224"><ele>342.0</ele><time>2026-04-26T10:18:14Z</time></trkpt><trkpt lat="40.04561838241387" lon="15.832774218925628"><ele>342.0</ele><time>2026-04-26T10:18:15Z</time></trkpt><trkpt lat="40.045682653839144" lon="15.832736089762717"><ele>342.0</ele><time>2026-04-26T10:18:16Z</time></trkpt><trkpt lat="40.045798655861745" lon="15.83275839329562"><ele>342.0</ele><time>2026-04-26T10:18:18Z</time></trkpt><trkpt lat="40.04583859154835" lon="15.832906159868337"><ele>342.0</ele><time>2026-04-26T10:18:20Z</time></trkpt><trkpt lat="40.0458004826784" lon="15.83298576588947"><ele>342.0</ele><time>2026-04-26T10:18:21Z</time></trkpt><trkpt lat="40.04573039521659" lon="15.83304425531307"><ele>342.0</ele><time>2026-04-26T10:18:22Z</time></trkpt><trkpt lat="40.04562513887737" lon="15.833040426436238"><ele>342.0</ele><time>2026-04-26T10:18:22.999Z</time></trkpt><trkpt lat="40.04552418964056" lon="15.833074948276863"><ele>342.0</ele><time>2026-04-26T10:18:23.999Z</time></trkpt><trkpt lat="40.04542569839149" lon="15.8331154205261"><ele>342.0</ele><time>2026-04-26T10:18:24.999Z</time></trkpt><trkpt lat="40.045334388209625" lon="15.833155923184544"><ele>342.0</ele><time>2026-04-26T10:18:25.999Z</time></trkpt><trkpt lat="40.045256428062785" lon="15.833213119479394"><ele>342.0</ele><time>2026-04-26T10:18:26.999Z</time></trkpt><trkpt lat="40.045174468912975" lon="15.833244410450437"><ele>342.0</ele><time>2026-04-26T10:18:27.999Z</time></trkpt><trkpt lat="40.04509802719123" lon="15.8332551187694"><ele>342.0</ele><time>2026-04-26T10:18:28.999Z</time></trkpt><trkpt lat="40.0450257619824" lon="15.833270690320717"><ele>342.0</ele><time>2026-04-26T10:18:29.999Z</time></trkpt><trkpt lat="40.044955416171355" lon="15.83325215342031"><ele>342.0</ele><time>2026-04-26T10:18:30.999Z</time></trkpt><trkpt lat="40.04486681277712" lon="15.833214852432082"><ele>342.0</ele><time>2026-04-26T10:18:31.999Z</time></trkpt><trkpt lat="40.044763406402524" lon="15.833186196415385"><ele>343.0</ele><time>2026-04-26T10:18:32.999Z</time></trkpt><trkpt lat="40.044669315556504" lon="15.833215099367624"><ele>344.0</ele><time>2026-04-26T10:18:33.999Z</time></trkpt><trkpt lat="40.04459916275565" lon="15.833216478644726"><ele>345.0</ele><time>2026-04-26T10:18:34.999Z</time></trkpt><trkpt lat="40.04453494834204" lon="15.833227893359087"><ele>346.0</ele><time>2026-04-26T10:18:35.999Z</time></trkpt><trkpt lat="40.044446385606015" lon="15.833214548771165"><ele>347.0</ele><time>2026-04-26T10:18:37.999Z</time></trkpt><trkpt lat="40.04438380769235" lon="15.833232722579803"><ele>348.0</ele><time>2026-04-26T10:18:39.999Z</time></trkpt><trkpt lat="40.04428106522165" lon="15.833192838990465"><ele>348.0</ele><time>2026-04-26T10:18:41.999Z</time></trkpt><trkpt lat="40.04419191183435" lon="15.833089671683286"><ele>348.0</ele><time>2026-04-26T10:18:43.999Z</time></trkpt><trkpt lat="40.04415454696073" lon="15.83301775600568"><ele>348.0</ele><time>2026-04-26T10:18:44.999Z</time></trkpt><trkpt lat="40.04412496596655" lon="15.832936292362795"><ele>348.0</ele><time>2026-04-26T10:18:45.999Z</time></trkpt><trkpt lat="40.044071816031654" lon="15.83281392566381"><ele>348.0</ele><time>2026-04-26T10:18:47.999Z</time></trkpt><trkpt lat="40.04399138032232" lon="15.832756778334335"><ele>348.5</ele><time>2026-04-26T10:18:49.999Z</time></trkpt><trkpt lat="40.04387966312154" lon="15.832789446585577"><ele>349.0</ele><time>2026-04-26T10:18:51.999Z</time></trkpt><trkpt lat="40.04381754090187" lon="15.832851725106977"><ele>349.5</ele><time>2026-04-26T10:18:52.999Z</time></trkpt><trkpt lat="40.04378186708442" lon="15.8329418639932"><ele>350.0</ele><time>2026-04-26T10:18:53.999Z</time></trkpt><trkpt lat="40.043777655343284" lon="15.833049762194282"><ele>350.5</ele><time>2026-04-26T10:18:54.999Z</time></trkpt><trkpt lat="40.043795030215314" lon="15.833157295641552"><ele>351.0</ele><time>2026-04-26T10:18:55.999Z</time></trkpt><trkpt lat="40.04381384480135" lon="15.833259946940133"><ele>351.0</ele><time>2026-04-26T10:18:56.999Z</time></trkpt><trkpt lat="40.04382564266732" lon="15.83336844474276"><ele>351.0</ele><time>2026-04-26T10:18:57.999Z</time></trkpt><trkpt lat="40.04383217107369" lon="15.833472701119705"><ele>351.0</ele><time>2026-04-26T10:18:58.999Z</time></trkpt><trkpt lat="40.04383389136912" lon="15.833572931161694"><ele>351.0</ele><time>2026-04-26T10:18:59.999Z</time></trkpt><trkpt lat="40.043829386188484" lon="15.833668467024426"><ele>351.0</ele><time>2026-04-26T10:19:00.999Z</time></trkpt><trkpt lat="40.043826668461605" lon="15.83375846824579"><ele>351.0</ele><time>2026-04-26T10:19:01.999Z</time></trkpt><trkpt lat="40.04380917200955" lon="15.833845998007407"><ele>352.6</ele><time>2026-04-26T10:19:02.999Z</time></trkpt><trkpt lat="40.043758102302" lon="15.833905447533908"><ele>354.20000000000005</ele><time>2026-04-26T10:19:03.999Z</time></trkpt><trkpt lat="40.04370046345618" lon="15.834023618755053"><ele>355.79999999999995</ele><time>2026-04-26T10:19:05.999Z</time></trkpt><trkpt lat="40.04362356057878" lon="15.834123921532317"><ele>357.4</ele><time>2026-04-26T10:19:07.999Z</time></trkpt><trkpt lat="40.043538312494015" lon="15.834143996642648"><ele>359.0</ele><time>2026-04-26T10:19:09.999Z</time></trkpt><trkpt lat="40.04345055004704" lon="15.834181744772186"><ele>359.0</ele><time>2026-04-26T10:19:11.999Z</time></trkpt><trkpt lat="40.04333861262999" lon="15.834221838695415"><ele>359.0</ele><time>2026-04-26T10:19:13.999Z</time></trkpt><trkpt lat="40.043267149836765" lon="15.834286108676652"><ele>359.0</ele><time>2026-04-26T10:19:15.999Z</time></trkpt><trkpt lat="40.043284186470274" lon="15.834365606731621"><ele>359.0</ele><time>2026-04-26T10:19:48.999Z</time></trkpt><trkpt lat="40.0432480315697" lon="15.834485991186057"><ele>359.0</ele><time>2026-04-26T10:19:50.999Z</time></trkpt><trkpt lat="40.04319815442689" lon="15.834593827927916"><ele>360.75</ele><time>2026-04-26T10:19:51.999Z</time></trkpt><trkpt lat="40.04312299985086" lon="15.834710491749012"><ele>362.5</ele><time>2026-04-26T10:19:52.999Z</time></trkpt><trkpt lat="40.043061191963375" lon="15.834833123487632"><ele>364.25</ele><time>2026-04-26T10:19:53.998Z</time></trkpt><trkpt lat="40.0429891480956" lon="15.834932123063185"><ele>366.0</ele><time>2026-04-26T10:19:54.998Z</time></trkpt><trkpt lat="40.042915587139305" lon="15.83505673935785"><ele>370.0</ele><time>2026-04-26T10:19:55.998Z</time></trkpt><trkpt lat="40.04283185690292" lon="15.835180858096338"><ele>374.0</ele><time>2026-04-26T10:19:56.998Z</time></trkpt><trkpt lat="40.04274235669047" lon="15.835290539091998"><ele>378.0</ele><time>2026-04-26T10:19:57.998Z</time></trkpt><trkpt lat="40.04264691912772" lon="15.835381404030871"><ele>382.0</ele><time>2026-04-26T10:19:58.998Z</time></trkpt><trkpt lat="40.042542652563334" lon="15.83547067805234"><ele>382.75</ele><time>2026-04-26T10:19:59.998Z</time></trkpt><trkpt lat="40.042433960361045" lon="15.835535807182705"><ele>383.5</ele><time>2026-04-26T10:20:00.998Z</time></trkpt><trkpt lat="40.042323143423715" lon="15.835585695726538"><ele>384.25</ele><time>2026-04-26T10:20:01.998Z</time></trkpt><trkpt lat="40.04220534968844" lon="15.83562356828584"><ele>385.0</ele><time>2026-04-26T10:20:03Z</time></trkpt><trkpt lat="40.04209308047849" lon="15.835663195520407"><ele>385.0</ele><time>2026-04-26T10:20:04Z</time></trkpt><trkpt lat="40.04200921767172" lon="15.835760085720434"><ele>385.0</ele><time>2026-04-26T10:20:05Z</time></trkpt><trkpt lat="40.04194291144736" lon="15.835807433178184"><ele>385.0</ele><time>2026-04-26T10:20:06Z</time></trkpt><trkpt lat="40.04186170640437" lon="15.835816264830775"><ele>385.0</ele><time>2026-04-26T10:20:07Z</time></trkpt><trkpt lat="40.04176623750758" lon="15.835803218048861"><ele>385.0</ele><time>2026-04-26T10:20:08Z</time></trkpt><trkpt lat="40.04166578451319" lon="15.835762348827462"><ele>385.83333333333337</ele><time>2026-04-26T10:20:09Z</time></trkpt><trkpt lat="40.041560980880476" lon="15.835720439859683"><ele>386.6666666666667</ele><time>2026-04-26T10:20:10Z</time></trkpt><trkpt lat="40.04148526309437" lon="15.83567625341834"><ele>387.5</ele><time>2026-04-26T10:20:11Z</time></trkpt><trkpt lat="40.041425552081556" lon="15.835631297582822"><ele>388.33333333333337</ele><time>2026-04-26T10:20:12Z</time></trkpt><trkpt lat="40.041335513625256" lon="15.835627168043292"><ele>389.1666666666667</ele><time>2026-04-26T10:20:14Z</time></trkpt><trkpt lat="40.04125632879474" lon="15.835618566209643"><ele>390.0</ele><time>2026-04-26T10:20:17Z</time></trkpt><trkpt lat="40.04119314526615" lon="15.835653162955625"><ele>390.0</ele><time>2026-04-26T10:20:30Z</time></trkpt><trkpt lat="40.04111610093847" lon="15.835686807518856"><ele>390.0</ele><time>2026-04-26T10:20:31.999Z</time></trkpt><trkpt lat="40.040999018541314" lon="15.835651842834531"><ele>390.0</ele><time>2026-04-26T10:20:33.999Z</time></trkpt><trkpt lat="40.040900264801216" lon="15.835578331154684"><ele>390.0</ele><time>2026-04-26T10:20:35.999Z</time></trkpt><trkpt lat="40.04079544900728" lon="15.835538170726737"><ele>390.0</ele><time>2026-04-26T10:20:37.999Z</time></trkpt><trkpt lat="40.04074511719396" lon="15.835469074921136"><ele>390.6666666666667</ele><time>2026-04-26T10:20:38.999Z</time></trkpt><trkpt lat="40.04062099562092" lon="15.83544441822648"><ele>391.33333333333337</ele><time>2026-04-26T10:20:40.999Z</time></trkpt><trkpt lat="40.04052506215085" lon="15.835433813671438"><ele>392.0</ele><time>2026-04-26T10:20:42.999Z</time></trkpt><trkpt lat="40.04045121159486" lon="15.835425749960915"><ele>392.6666666666667</ele><time>2026-04-26T10:20:45.999Z</time></trkpt><trkpt lat="40.040392196817365" lon="15.835469617233734"><ele>393.33333333333337</ele><time>2026-04-26T10:20:48.999Z</time></trkpt><trkpt lat="40.040311730132636" lon="15.835454766553507"><ele>394.0</ele><time>2026-04-26T10:21:07.999Z</time></trkpt><trkpt lat="40.040343714529946" lon="15.835382887925956"><ele>394.00000000000006</ele><time>2026-04-26T10:21:56.999Z</time></trkpt><trkpt lat="40.04031046142011" lon="15.835463553659404"><ele>394.0</ele><time>2026-04-26T10:28:33.999Z</time></trkpt><trkpt lat="40.040340154861546" lon="15.83538891749656"><ele>394.0</ele><time>2026-04-26T10:29:14.999Z</time></trkpt><trkpt lat="40.040282097235774" lon="15.835427446815867"><ele>394.0</ele><time>2026-04-26T10:30:54.999Z</time></trkpt><trkpt lat="40.040375285290146" lon="15.835434491896251"><ele>394.00000000000006</ele><time>2026-04-26T10:31:07.999Z</time></trkpt><trkpt lat="40.040489190005076" lon="15.83544942737685"><ele>394.0</ele><time>2026-04-26T10:31:09.999Z</time></trkpt><trkpt lat="40.04061345801499" lon="15.83545866099413"><ele>394.0</ele><time>2026-04-26T10:31:11.999Z</time></trkpt><trkpt lat="40.04067788186229" lon="15.835461655037015"><ele>394.0</ele><time>2026-04-26T10:31:12.999Z</time></trkpt><trkpt lat="40.04076491857711" lon="15.835496913325182"><ele>394.0</ele><time>2026-04-26T10:31:14.999Z</time></trkpt><trkpt lat="40.04087583324373" lon="15.8355653971675"><ele>394.0</ele><time>2026-04-26T10:31:16.999Z</time></trkpt><trkpt lat="40.040941401353535" lon="15.83560331938328"><ele>394.0</ele><time>2026-04-26T10:31:17.999Z</time></trkpt><trkpt lat="40.041034569656766" lon="15.835656508134626"><ele>393.33333333333337</ele><time>2026-04-26T10:31:19.999Z</time></trkpt><trkpt lat="40.04112256543906" lon="15.835699710218005"><ele>392.6666666666667</ele><time>2026-04-26T10:31:21.999Z</time></trkpt><trkpt lat="40.041215900733725" lon="15.835734098204767"><ele>392.0</ele><time>2026-04-26T10:31:23.999Z</time></trkpt><trkpt lat="40.04127633980582" lon="15.835701577313886"><ele>391.33333333333337</ele><time>2026-04-26T10:31:26.999Z</time></trkpt><trkpt lat="40.04121627377211" lon="15.83560704884074"><ele>390.6666666666667</ele><time>2026-04-26T10:31:33.999Z</time></trkpt><trkpt lat="40.04116052559971" lon="15.835662459166693"><ele>390.0</ele><time>2026-04-26T10:31:53.999Z</time></trkpt><trkpt lat="40.041080457749416" lon="15.835654112314238"><ele>390.0</ele><time>2026-04-26T10:31:56.999Z</time></trkpt><trkpt lat="40.04100265794872" lon="15.835634383688594"><ele>390.0</ele><time>2026-04-26T10:31:58.999Z</time></trkpt><trkpt lat="40.040902151443" lon="15.835570664624816"><ele>390.0</ele><time>2026-04-26T10:32:00.999Z</time></trkpt><trkpt lat="40.040807847090605" lon="15.835535404018923"><ele>390.0</ele><time>2026-04-26T10:32:02.999Z</time></trkpt><trkpt lat="40.04071416822139" lon="15.8354592986961"><ele>390.0</ele><time>2026-04-26T10:32:04.999Z</time></trkpt><trkpt lat="40.04064640789111" lon="15.83544898042551"><ele>390.6666666666667</ele><time>2026-04-26T10:32:05.999Z</time></trkpt><trkpt lat="40.04057585565295" lon="15.835442183594461"><ele>391.33333333333337</ele><time>2026-04-26T10:32:06.999Z</time></trkpt><trkpt lat="40.04050885071111" lon="15.835432043532132"><ele>392.0</ele><time>2026-04-26T10:32:07.999Z</time></trkpt><trkpt lat="40.04041088055398" lon="15.835424767143772"><ele>392.6666666666667</ele><time>2026-04-26T10:32:09.999Z</time></trkpt><trkpt lat="40.04032867428706" lon="15.835400510347226"><ele>393.33333333333337</ele><time>2026-04-26T10:32:11.999Z</time></trkpt><trkpt lat="40.04020411638891" lon="15.835385284281502"><ele>394.0</ele><time>2026-04-26T10:32:13.999Z</time></trkpt><trkpt lat="40.04011819842729" lon="15.835375570988273"><ele>394.0</ele><time>2026-04-26T10:32:14.999Z</time></trkpt><trkpt lat="40.040012995653065" lon="15.835354525528995"><ele>394.0</ele><time>2026-04-26T10:32:15.999Z</time></trkpt><trkpt lat="40.03988554190243" lon="15.835321590470853"><ele>394.0</ele><time>2026-04-26T10:32:16.999Z</time></trkpt><trkpt lat="40.03976430495846" lon="15.835269267385318"><ele>394.0</ele><time>2026-04-26T10:32:17.999Z</time></trkpt><trkpt lat="40.03964402043851" lon="15.835242894311422"><ele>394.6</ele><time>2026-04-26T10:32:18.998Z</time></trkpt><trkpt lat="40.03952574547104" lon="15.835191169756225"><ele>395.2</ele><time>2026-04-26T10:32:19.998Z</time></trkpt><trkpt lat="40.0394145835899" lon="15.835150959108883"><ele>395.8</ele><time>2026-04-26T10:32:20.998Z</time></trkpt><trkpt lat="40.03931308358991" lon="15.835112649965456"><ele>396.40000000000003</ele><time>2026-04-26T10:32:21.998Z</time></trkpt><trkpt lat="40.039224045586536" lon="15.835081557583075"><ele>397.0</ele><time>2026-04-26T10:32:22.998Z</time></trkpt><trkpt lat="40.039150490940365" lon="15.835039012176086"><ele>395.33333333333337</ele><time>2026-04-26T10:32:23.998Z</time></trkpt><trkpt lat="40.03907849652023" lon="15.835047427795141"><ele>393.6666666666667</ele><time>2026-04-26T10:32:24.998Z</time></trkpt><trkpt lat="40.038985138217065" lon="15.835095615883008"><ele>392.0</ele><time>2026-04-26T10:32:26.998Z</time></trkpt><trkpt lat="40.03896210397989" lon="15.835185630217424"><ele>390.33333333333337</ele><time>2026-04-26T10:32:28.998Z</time></trkpt><trkpt lat="40.03898695049142" lon="15.835339612600647"><ele>388.6666666666667</ele><time>2026-04-26T10:32:30.998Z</time></trkpt><trkpt lat="40.0390074480449" lon="15.835419696946605"><ele>387.0</ele><time>2026-04-26T10:32:31.998Z</time></trkpt><trkpt lat="40.03904526673323" lon="15.83551748261542"><ele>387.0</ele><time>2026-04-26T10:32:41Z</time></trkpt><trkpt lat="40.03907499175049" lon="15.835626173250773"><ele>387.0</ele><time>2026-04-26T10:32:42Z</time></trkpt><trkpt lat="40.039098916919286" lon="15.835767473961385"><ele>387.0</ele><time>2026-04-26T10:32:43Z</time></trkpt><trkpt lat="40.039148817440896" lon="15.835881095955298"><ele>387.0</ele><time>2026-04-26T10:32:44Z</time></trkpt><trkpt lat="40.03921662570833" lon="15.835981966147848"><ele>387.0</ele><time>2026-04-26T10:32:45Z</time></trkpt><trkpt lat="40.03934565276251" lon="15.836018543270363"><ele>391.0</ele><time>2026-04-26T10:32:46Z</time></trkpt><trkpt lat="40.03949144699203" lon="15.836051739062874"><ele>395.0</ele><time>2026-04-26T10:32:47Z</time></trkpt><trkpt lat="40.03962348387071" lon="15.836099884219234"><ele>399.0</ele><time>2026-04-26T10:32:48Z</time></trkpt><trkpt lat="40.03976300957826" lon="15.836175683187285"><ele>403.0</ele><time>2026-04-26T10:32:49Z</time></trkpt><trkpt lat="40.03990431005787" lon="15.836273726432129"><ele>404.0</ele><time>2026-04-26T10:32:50Z</time></trkpt><trkpt lat="40.04002840196376" lon="15.836369934458155"><ele>405.0</ele><time>2026-04-26T10:32:51Z</time></trkpt><trkpt lat="40.04012991701472" lon="15.836433222037845"><ele>406.0</ele><time>2026-04-26T10:32:52Z</time></trkpt><trkpt lat="40.040182436024615" lon="15.836502105782191"><ele>407.0</ele><time>2026-04-26T10:32:53Z</time></trkpt><trkpt lat="40.04018989052229" lon="15.836602136338948"><ele>408.0</ele><time>2026-04-26T10:32:55Z</time></trkpt><trkpt lat="40.04013523363502" lon="15.836672723285714"><ele>408.0</ele><time>2026-04-26T10:32:58Z</time></trkpt><trkpt lat="40.040079975957454" lon="15.836728826150365"><ele>408.0</ele><time>2026-04-26T10:32:59Z</time></trkpt><trkpt lat="40.03998536269297" lon="15.836779801192542"><ele>408.0</ele><time>2026-04-26T10:33:00Z</time></trkpt><trkpt lat="40.0398768841029" lon="15.836851913660213"><ele>408.0</ele><time>2026-04-26T10:33:01Z</time></trkpt><trkpt lat="40.03975857167898" lon="15.836939652929091"><ele>408.0</ele><time>2026-04-26T10:33:01.999Z</time></trkpt><trkpt lat="40.03965514170366" lon="15.837043610250294"><ele>409.0</ele><time>2026-04-26T10:33:02.999Z</time></trkpt><trkpt lat="40.03957943025856" lon="15.83713873011703"><ele>410.0</ele><time>2026-04-26T10:33:03.999Z</time></trkpt><trkpt lat="40.03953210507845" lon="15.83720036825043"><ele>411.0</ele><time>2026-04-26T10:33:04.999Z</time></trkpt><trkpt lat="40.039655907416524" lon="15.837191854357476"><ele>412.0</ele><time>2026-04-26T10:33:16.999Z</time></trkpt><trkpt lat="40.03972325307236" lon="15.837102360407922"><ele>413.0</ele><time>2026-04-26T10:33:18.999Z</time></trkpt><trkpt lat="40.03974469517108" lon="15.837010360485609"><ele>412.99999999999994</ele><time>2026-04-26T10:33:20.999Z</time></trkpt><trkpt lat="40.039677474874054" lon="15.836959482012368"><ele>413.0</ele><time>2026-04-26T10:33:21.999Z</time></trkpt><trkpt lat="40.0396159635173" lon="15.836859542207138"><ele>413.0</ele><time>2026-04-26T10:33:23.999Z</time></trkpt><trkpt lat="40.03956286450136" lon="15.836806277677404"><ele>413.0</ele><time>2026-04-26T10:33:25.999Z</time></trkpt><trkpt lat="40.039532545153335" lon="15.836904728401311"><ele>412.99999999999994</ele><time>2026-04-26T10:33:37.999Z</time></trkpt><trkpt lat="40.03946585544373" lon="15.83692274775717"><ele>413.0</ele><time>2026-04-26T10:33:58.999Z</time></trkpt><trkpt lat="40.03940655432709" lon="15.836969069097105"><ele>413.0</ele><time>2026-04-26T10:34:05.999Z</time></trkpt><trkpt lat="40.0393569102323" lon="15.837040027746461"><ele>413.0</ele><time>2026-04-26T10:34:09.999Z</time></trkpt><trkpt lat="40.03930082208697" lon="15.837079645416692"><ele>413.0</ele><time>2026-04-26T10:34:13.999Z</time></trkpt><trkpt lat="40.03924765875782" lon="15.837149243931979"><ele>413.0</ele><time>2026-04-26T10:34:17.999Z</time></trkpt><trkpt lat="40.03927187601527" lon="15.837238848637272"><ele>413.0</ele><time>2026-04-26T10:35:02Z</time></trkpt><trkpt lat="40.03930019682607" lon="15.837342496454085"><ele>413.0</ele><time>2026-04-26T10:35:06Z</time></trkpt><trkpt lat="40.03932631626229" lon="15.837421564508238"><ele>413.0</ele><time>2026-04-26T10:35:11.999Z</time></trkpt><trkpt lat="40.039262824413356" lon="15.837458606111513"><ele>412.99999999999994</ele><time>2026-04-26T10:35:51.999Z</time></trkpt><trkpt lat="40.039303517390465" lon="15.837523845621012"><ele>413.0</ele><time>2026-04-26T10:36:03.999Z</time></trkpt><trkpt lat="40.03925434124453" lon="15.837469083135485"><ele>413.0</ele><time>2026-04-26T10:36:07.999Z</time></trkpt><trkpt lat="40.0393638431348" lon="15.837447914687615"><ele>413.0</ele><time>2026-04-26T10:36:18.999Z</time></trkpt><trkpt lat="40.03930152336786" lon="15.8373989661402"><ele>412.99999999999994</ele><time>2026-04-26T10:37:08Z</time></trkpt><trkpt lat="40.03939488650169" lon="15.837367730916966"><ele>413.0</ele><time>2026-04-26T10:37:31.999Z</time></trkpt><trkpt lat="40.039328855811625" lon="15.837442943490014"><ele>412.99999999999994</ele><time>2026-04-26T10:37:36.999Z</time></trkpt><trkpt lat="40.03923751297002" lon="15.837378397423025"><ele>413.0</ele><time>2026-04-26T10:38:12.999Z</time></trkpt><trkpt lat="40.039354057972226" lon="15.837400802797612"><ele>413.0</ele><time>2026-04-26T10:39:07Z</time></trkpt><trkpt lat="40.03929060657693" lon="15.837415114025466"><ele>413.0</ele><time>2026-04-26T10:39:20.999Z</time></trkpt><trkpt lat="40.03926912542067" lon="15.837504200008796"><ele>412.99999999999994</ele><time>2026-04-26T10:41:03Z</time></trkpt><trkpt lat="40.03924035169066" lon="15.837428322332451"><ele>413.0</ele><time>2026-04-26T10:41:39.999Z</time></trkpt><trkpt lat="40.03930509449074" lon="15.837441156219356"><ele>412.99999999999994</ele><time>2026-04-26T10:41:41.999Z</time></trkpt><trkpt lat="40.03934954818877" lon="15.837363857383057"><ele>413.0</ele><time>2026-04-26T10:41:50.999Z</time></trkpt><trkpt lat="40.039401046953635" lon="15.8373149455764"><ele>413.0</ele><time>2026-04-26T10:41:56.999Z</time></trkpt><trkpt lat="40.03940208395377" lon="15.837221369641028"><ele>413.0</ele><time>2026-04-26T10:42:09.999Z</time></trkpt><trkpt lat="40.039475153491004" lon="15.837186964284683"><ele>412.99999999999994</ele><time>2026-04-26T10:42:13.999Z</time></trkpt><trkpt lat="40.03950910270095" lon="15.8370920135017"><ele>413.0</ele><time>2026-04-26T10:42:29.999Z</time></trkpt><trkpt lat="40.03943551519591" lon="15.837002274439167"><ele>412.99999999999994</ele><time>2026-04-26T10:42:56.998Z</time></trkpt><trkpt lat="40.039494242093035" lon="15.83706392675995"><ele>413.0</ele><time>2026-04-26T10:43:31.999Z</time></trkpt><trkpt lat="40.039581602600684" lon="15.837097570676127"><ele>413.0</ele><time>2026-04-26T10:43:54.999Z</time></trkpt><trkpt lat="40.03951357659065" lon="15.837106536622226"><ele>413.0</ele><time>2026-04-26T10:44:44.999Z</time></trkpt><trkpt lat="40.03941958635184" lon="15.837101511689019"><ele>412.99999999999994</ele><time>2026-04-26T10:44:56.998Z</time></trkpt><trkpt lat="40.03950963930154" lon="15.83705973413968"><ele>413.0</ele><time>2026-04-26T10:45:42.999Z</time></trkpt><trkpt lat="40.03960688912594" lon="15.83707164936515"><ele>413.0</ele><time>2026-04-26T10:47:03.998Z</time></trkpt><trkpt lat="40.03954141170634" lon="15.837049644430337"><ele>413.0</ele><time>2026-04-26T10:47:19Z</time></trkpt><trkpt lat="40.03947683999783" lon="15.836981109030035"><ele>413.0</ele><time>2026-04-26T10:48:35Z</time></trkpt><trkpt lat="40.0394994913596" lon="15.836900736098487"><ele>413.0</ele><time>2026-04-26T10:49:03.999Z</time></trkpt><trkpt lat="40.03953806976476" lon="15.8368318188845"><ele>413.0</ele><time>2026-04-26T10:49:10.999Z</time></trkpt><trkpt lat="40.039548076200816" lon="15.83673867017095"><ele>413.0</ele><time>2026-04-26T10:49:16.999Z</time></trkpt><trkpt lat="40.0395683338454" lon="15.836660157737578"><ele>413.0</ele><time>2026-04-26T11:08:53Z</time></trkpt><trkpt lat="40.03955747203122" lon="15.836754940651973"><ele>412.99999999999994</ele><time>2026-04-26T11:21:56Z</time></trkpt><trkpt lat="40.039528994352715" lon="15.83683292172563"><ele>413.0</ele><time>2026-04-26T11:22:09.999Z</time></trkpt><trkpt lat="40.03957554496443" lon="15.836908725576263"><ele>413.0</ele><time>2026-04-26T11:24:04Z</time></trkpt><trkpt lat="40.03960736989719" lon="15.837002163175605"><ele>413.0</ele><time>2026-04-26T11:24:06Z</time></trkpt><trkpt lat="40.039675266772576" lon="15.836989231928099"><ele>412.99999999999994</ele><time>2026-04-26T11:25:35Z</time></trkpt><trkpt lat="40.03965634302615" lon="15.837077417325087"><ele>413.0</ele><time>2026-04-26T11:25:38Z</time></trkpt><trkpt lat="40.03955841858335" lon="15.83720941843173"><ele>413.0</ele><time>2026-04-26T11:25:40Z</time></trkpt><trkpt lat="40.03949063072604" lon="15.83728637307832"><ele>413.0</ele><time>2026-04-26T11:25:41Z</time></trkpt><trkpt lat="40.039437891558094" lon="15.837361490108583"><ele>413.0</ele><time>2026-04-26T11:25:42Z</time></trkpt><trkpt lat="40.03939391822301" lon="15.837424748980673"><ele>413.0</ele><time>2026-04-26T11:25:43Z</time></trkpt><trkpt lat="40.03931132051785" lon="15.837552421089963"><ele>413.0</ele><time>2026-04-26T11:25:45Z</time></trkpt><trkpt lat="40.039226791723976" lon="15.83766953514948"><ele>414.79999999999995</ele><time>2026-04-26T11:25:47Z</time></trkpt><trkpt lat="40.039142343222984" lon="15.837776833484327"><ele>416.6</ele><time>2026-04-26T11:25:49Z</time></trkpt><trkpt lat="40.039095128907924" lon="15.837841112114823"><ele>418.4</ele><time>2026-04-26T11:25:50Z</time></trkpt><trkpt lat="40.03899843936808" lon="15.837933482751202"><ele>420.20000000000005</ele><time>2026-04-26T11:25:52Z</time></trkpt><trkpt lat="40.038949207953316" lon="15.838002033440823"><ele>422.0</ele><time>2026-04-26T11:25:53Z</time></trkpt><trkpt lat="40.03888314844738" lon="15.838096684815337"><ele>422.0</ele><time>2026-04-26T11:25:55Z</time></trkpt><trkpt lat="40.03879657763805" lon="15.838219767486484"><ele>422.0</ele><time>2026-04-26T11:25:57Z</time></trkpt><trkpt lat="40.03874909380656" lon="15.83828134145836"><ele>422.0</ele><time>2026-04-26T11:25:58Z</time></trkpt><trkpt lat="40.03866367568269" lon="15.838370865786443"><ele>422.0</ele><time>2026-04-26T11:26:00Z</time></trkpt><trkpt lat="40.03858466423085" lon="15.83846405707435"><ele>422.0</ele><time>2026-04-26T11:26:02Z</time></trkpt><trkpt lat="40.03849558877249" lon="15.838522220867556"><ele>423.20000000000005</ele><time>2026-04-26T11:26:04Z</time></trkpt><trkpt lat="40.03839743493823" lon="15.838564031437379"><ele>424.4</ele><time>2026-04-26T11:26:06Z</time></trkpt><trkpt lat="40.038315842290395" lon="15.83861708482971"><ele>425.59999999999997</ele><time>2026-04-26T11:26:08Z</time></trkpt><trkpt lat="40.03823708160928" lon="15.83870670800801"><ele>426.79999999999995</ele><time>2026-04-26T11:26:11Z</time></trkpt><trkpt lat="40.03812284141123" lon="15.838760836297402"><ele>428.0</ele><time>2026-04-26T11:26:13Z</time></trkpt><trkpt lat="40.038050011675494" lon="15.838810269076884"><ele>428.0</ele><time>2026-04-26T11:26:15Z</time></trkpt><trkpt lat="40.037949564208795" lon="15.838876251086354"><ele>427.99999999999994</ele><time>2026-04-26T11:26:17Z</time></trkpt><trkpt lat="40.03788374512819" lon="15.83891718705963"><ele>427.99999999999994</ele><time>2026-04-26T11:26:18Z</time></trkpt><trkpt lat="40.03780484504996" lon="15.838963033500637"><ele>428.0</ele><time>2026-04-26T11:26:19Z</time></trkpt><trkpt lat="40.03771237397114" lon="15.839009757460872"><ele>428.0</ele><time>2026-04-26T11:26:20Z</time></trkpt><trkpt lat="40.03760321260571" lon="15.839052099273893"><ele>428.0</ele><time>2026-04-26T11:26:21Z</time></trkpt><trkpt lat="40.03749528297871" lon="15.83908919603476"><ele>428.0</ele><time>2026-04-26T11:26:22Z</time></trkpt><trkpt lat="40.03738441906801" lon="15.839125060673648"><ele>428.0</ele><time>2026-04-26T11:26:23Z</time></trkpt><trkpt lat="40.03726200361189" lon="15.83919714678431"><ele>428.0</ele><time>2026-04-26T11:26:24Z</time></trkpt><trkpt lat="40.037133865043685" lon="15.839271937583826"><ele>429.59999999999997</ele><time>2026-04-26T11:26:25Z</time></trkpt><trkpt lat="40.03701102919442" lon="15.839364268897647"><ele>431.19999999999993</ele><time>2026-04-26T11:26:26Z</time></trkpt><trkpt lat="40.036909799874124" lon="15.839442683498849"><ele>432.8</ele><time>2026-04-26T11:26:27Z</time></trkpt><trkpt lat="40.036825489479526" lon="15.839510427725994"><ele>434.4</ele><time>2026-04-26T11:26:28Z</time></trkpt><trkpt lat="40.03674785027897" lon="15.839570012496504"><ele>436.0</ele><time>2026-04-26T11:26:29Z</time></trkpt><trkpt lat="40.03666584503517" lon="15.839641552225594"><ele>432.8</ele><time>2026-04-26T11:26:30Z</time></trkpt><trkpt lat="40.036594663226424" lon="15.839735042135208"><ele>429.6</ele><time>2026-04-26T11:26:31Z</time></trkpt><trkpt lat="40.03653089788063" lon="15.839837681110303"><ele>426.4</ele><time>2026-04-26T11:26:32Z</time></trkpt><trkpt lat="40.03648951377352" lon="15.839945150280608"><ele>423.2</ele><time>2026-04-26T11:26:33Z</time></trkpt><trkpt lat="40.03646027240203" lon="15.84004766468099"><ele>420.0</ele><time>2026-04-26T11:26:33.999Z</time></trkpt><trkpt lat="40.03644508445298" lon="15.840154976345744"><ele>420.0</ele><time>2026-04-26T11:26:34.999Z</time></trkpt><trkpt lat="40.03645124241689" lon="15.840304036634043"><ele>420.0</ele><time>2026-04-26T11:26:36.999Z</time></trkpt><trkpt lat="40.03645439437957" lon="15.840392600472972"><ele>420.0</ele><time>2026-04-26T11:26:37.999Z</time></trkpt><trkpt lat="40.036438973343365" lon="15.840494494564956"><ele>420.0</ele><time>2026-04-26T11:26:38.999Z</time></trkpt><trkpt lat="40.03643854347074" lon="15.840588124711296"><ele>420.0</ele><time>2026-04-26T11:26:39.999Z</time></trkpt><trkpt lat="40.0364378913319" lon="15.840730166642338"><ele>420.0</ele><time>2026-04-26T11:26:41.999Z</time></trkpt><trkpt lat="40.03645718817785" lon="15.840832495628042"><ele>420.0</ele><time>2026-04-26T11:26:44.999Z</time></trkpt><trkpt lat="40.03644565100021" lon="15.840924006556657"><ele>420.0</ele><time>2026-04-26T11:26:57.999Z</time></trkpt><trkpt lat="40.03648342950958" lon="15.840803839482566"><ele>420.0</ele><time>2026-04-26T11:27:01.999Z</time></trkpt><trkpt lat="40.036468842262664" lon="15.840700708676813"><ele>420.0</ele><time>2026-04-26T11:27:02.999Z</time></trkpt><trkpt lat="40.036462192695595" lon="15.840561439877142"><ele>420.0</ele><time>2026-04-26T11:27:03.999Z</time></trkpt><trkpt lat="40.03645744613322" lon="15.840388632642028"><ele>420.0</ele><time>2026-04-26T11:27:04.999Z</time></trkpt><trkpt lat="40.036459737214344" lon="15.840216058143719"><ele>420.0</ele><time>2026-04-26T11:27:05.999Z</time></trkpt><trkpt lat="40.03647212499957" lon="15.840075667604088"><ele>420.0</ele><time>2026-04-26T11:27:06.999Z</time></trkpt><trkpt lat="40.03651568991731" lon="15.839962256436086"><ele>420.0</ele><time>2026-04-26T11:27:07.999Z</time></trkpt><trkpt lat="40.036566471857206" lon="15.839852925727289"><ele>420.0</ele><time>2026-04-26T11:27:09.001Z</time></trkpt><trkpt lat="40.036619049498434" lon="15.839727840564423"><ele>423.2</ele><time>2026-04-26T11:27:10.001Z</time></trkpt><trkpt lat="40.03669706675462" lon="15.839620942840522"><ele>426.4</ele><time>2026-04-26T11:27:11.001Z</time></trkpt><trkpt lat="40.036798515130634" lon="15.839554339532032"><ele>429.6</ele><time>2026-04-26T11:27:12.001Z</time></trkpt><trkpt lat="40.03688589839252" lon="15.839495173245771"><ele>432.8</ele><time>2026-04-26T11:27:13.001Z</time></trkpt><trkpt lat="40.03695707238464" lon="15.839444955549537"><ele>436.0</ele><time>2026-04-26T11:27:14.001Z</time></trkpt><trkpt lat="40.03702655801697" lon="15.839393114439728"><ele>436.00000000000006</ele><time>2026-04-26T11:27:16.001Z</time></trkpt><trkpt lat="40.03707462874461" lon="15.839533659624994"><ele>436.0</ele><time>2026-04-26T11:27:20.001Z</time></trkpt><trkpt lat="40.03710122852456" lon="15.839628899940102"><ele>436.0</ele><time>2026-04-26T11:27:21.001Z</time></trkpt><trkpt lat="40.03714537670169" lon="15.839722269843515"><ele>436.0</ele><time>2026-04-26T11:27:22.001Z</time></trkpt><trkpt lat="40.037185482413236" lon="15.839808416692867"><ele>436.00000000000006</ele><time>2026-04-26T11:27:23.001Z</time></trkpt><trkpt lat="40.037213363541454" lon="15.839910541355117"><ele>436.0</ele><time>2026-04-26T11:27:24.001Z</time></trkpt><trkpt lat="40.037260773178495" lon="15.840002728936197"><ele>436.0</ele><time>2026-04-26T11:27:25.001Z</time></trkpt><trkpt lat="40.03730661862372" lon="15.840090621976582"><ele>436.0</ele><time>2026-04-26T11:27:26Z</time></trkpt><trkpt lat="40.037349051555296" lon="15.840175973213393"><ele>436.0</ele><time>2026-04-26T11:27:27Z</time></trkpt><trkpt lat="40.03740193015797" lon="15.840280014274148"><ele>436.0</ele><time>2026-04-26T11:27:29Z</time></trkpt><trkpt lat="40.037464576671084" lon="15.840396607277297"><ele>436.0</ele><time>2026-04-26T11:27:31Z</time></trkpt><trkpt lat="40.03754332439647" lon="15.840497962769772"><ele>437.50000000000006</ele><time>2026-04-26T11:27:33Z</time></trkpt><trkpt lat="40.03760078290652" lon="15.84056211831323"><ele>439.0</ele><time>2026-04-26T11:27:35Z</time></trkpt><trkpt lat="40.037540766205424" lon="15.840676875495905"><ele>440.5</ele><time>2026-04-26T11:27:38Z</time></trkpt><trkpt lat="40.03747303996515" lon="15.84073837608916"><ele>442.0</ele><time>2026-04-26T11:27:39Z</time></trkpt><trkpt lat="40.03738521498867" lon="15.840728258739711"><ele>443.50000000000006</ele><time>2026-04-26T11:27:40Z</time></trkpt><trkpt lat="40.037315565825025" lon="15.840761661505866"><ele>445.0</ele><time>2026-04-26T11:27:41Z</time></trkpt><trkpt lat="40.03727016989398" lon="15.84085063158632"><ele>445.0</ele><time>2026-04-26T11:27:42Z</time></trkpt><trkpt lat="40.03721981751214" lon="15.840901384893575"><ele>445.0</ele><time>2026-04-26T11:27:43Z</time></trkpt><trkpt lat="40.03717193790567" lon="15.840965010837749"><ele>445.0</ele><time>2026-04-26T11:27:45Z</time></trkpt><trkpt lat="40.0371131249571" lon="15.841084585166598"><ele>445.0</ele><time>2026-04-26T11:27:48Z</time></trkpt><trkpt lat="40.03729186191193" lon="15.84116393404289"><ele>445.0</ele><time>2026-04-26T11:27:49Z</time></trkpt><trkpt lat="40.03738823060002" lon="15.841227596051407"><ele>447.0</ele><time>2026-04-26T11:27:51Z</time></trkpt><trkpt lat="40.03744185252129" lon="15.841290926286854"><ele>449.0</ele><time>2026-04-26T11:27:54Z</time></trkpt><trkpt lat="40.037494228918945" lon="15.841361848981155"><ele>451.0</ele><time>2026-04-26T11:27:57Z</time></trkpt><trkpt lat="40.037530449663606" lon="15.841286174010163"><ele>453.0</ele><time>2026-04-26T11:28:00Z</time></trkpt><trkpt lat="40.037462328058965" lon="15.841254166617244"><ele>455.0</ele><time>2026-04-26T11:28:03Z</time></trkpt><trkpt lat="40.03739670407723" lon="15.841250560783033"><ele>457.0</ele><time>2026-04-26T11:28:11Z</time></trkpt><trkpt lat="40.0373528639321" lon="15.841190491610398"><ele>459.0</ele><time>2026-04-26T11:28:15Z</time></trkpt><trkpt lat="40.037250816644764" lon="15.841104910199544"><ele>459.0</ele><time>2026-04-26T11:28:21Z</time></trkpt><trkpt lat="40.037191200037974" lon="15.841010913690754"><ele>459.0</ele><time>2026-04-26T11:28:23Z</time></trkpt><trkpt lat="40.03721199501341" lon="15.840926724780667"><ele>459.0</ele><time>2026-04-26T11:28:25Z</time></trkpt><trkpt lat="40.03726959208286" lon="15.840866426265599"><ele>459.0</ele><time>2026-04-26T11:28:26Z</time></trkpt><trkpt lat="40.03732747849417" lon="15.840802939246595"><ele>459.0</ele><time>2026-04-26T11:28:27Z</time></trkpt><trkpt lat="40.03742751220324" lon="15.8407315236447"><ele>459.0</ele><time>2026-04-26T11:28:29Z</time></trkpt><trkpt lat="40.03749278039774" lon="15.840719674995428"><ele>458.3333333333333</ele><time>2026-04-26T11:28:30Z</time></trkpt><trkpt lat="40.03755202621061" lon="15.840682878961633"><ele>457.66666666666663</ele><time>2026-04-26T11:28:31Z</time></trkpt><trkpt lat="40.037614253125525" lon="15.840588452447419"><ele>457.0</ele><time>2026-04-26T11:28:33Z</time></trkpt><trkpt lat="40.037591434464346" lon="15.840479965560451"><ele>456.3333333333333</ele><time>2026-04-26T11:28:35Z</time></trkpt><trkpt lat="40.03753804491434" lon="15.840428128783481"><ele>455.66666666666663</ele><time>2026-04-26T11:28:36Z</time></trkpt><trkpt lat="40.037465910751806" lon="15.84033001650663"><ele>455.0</ele><time>2026-04-26T11:28:38Z</time></trkpt><trkpt lat="40.03739729201974" lon="15.84022297679512"><ele>451.8333333333333</ele><time>2026-04-26T11:28:40Z</time></trkpt><trkpt lat="40.03734933471478" lon="15.840097935258576"><ele>448.66666666666663</ele><time>2026-04-26T11:28:42Z</time></trkpt><trkpt lat="40.03729355001955" lon="15.840025287923387"><ele>445.5</ele><time>2026-04-26T11:28:44.999Z</time></trkpt><trkpt lat="40.037257810589274" lon="15.839919848189263"><ele>442.33333333333337</ele><time>2026-04-26T11:28:46.999Z</time></trkpt><trkpt lat="40.037218241293445" lon="15.839838903479606"><ele>439.1666666666667</ele><time>2026-04-26T11:28:47.999Z</time></trkpt><trkpt lat="40.03717799937636" lon="15.839743679507624"><ele>436.0</ele><time>2026-04-26T11:28:48.999Z</time></trkpt><trkpt lat="40.03714678935966" lon="15.839653767442439"><ele>436.0</ele><time>2026-04-26T11:28:49.999Z</time></trkpt><trkpt lat="40.03710485750326" lon="15.83957584256314"><ele>436.0</ele><time>2026-04-26T11:28:50.999Z</time></trkpt><trkpt lat="40.03708614076906" lon="15.839434192033773"><ele>436.0</ele><time>2026-04-26T11:28:52.999Z</time></trkpt><trkpt lat="40.03708160399034" lon="15.839313222863087"><ele>436.0</ele><time>2026-04-26T11:28:55.999Z</time></trkpt><trkpt lat="40.03717411222521" lon="15.839285462427407"><ele>436.0</ele><time>2026-04-26T11:28:56.999Z</time></trkpt><trkpt lat="40.03726478624047" lon="15.839229785203452"><ele>434.4</ele><time>2026-04-26T11:28:57.999Z</time></trkpt><trkpt lat="40.03736624430864" lon="15.839161471056137"><ele>432.8</ele><time>2026-04-26T11:28:58.999Z</time></trkpt><trkpt lat="40.03746700083108" lon="15.839129190264726"><ele>431.19999999999993</ele><time>2026-04-26T11:28:59.999Z</time></trkpt><trkpt lat="40.03755903433143" lon="15.839102554897698"><ele>429.59999999999997</ele><time>2026-04-26T11:29:00.999Z</time></trkpt><trkpt lat="40.03764683840237" lon="15.83907576579413"><ele>428.0</ele><time>2026-04-26T11:29:01.999Z</time></trkpt><trkpt lat="40.03772874243892" lon="15.839042920735222"><ele>428.0</ele><time>2026-04-26T11:29:02.999Z</time></trkpt><trkpt lat="40.03780873387553" lon="15.839003409085036"><ele>427.99999999999994</ele><time>2026-04-26T11:29:03.999Z</time></trkpt><trkpt lat="40.03789285663827" lon="15.838957988004239"><ele>427.99999999999994</ele><time>2026-04-26T11:29:04.999Z</time></trkpt><trkpt lat="40.03797668281302" lon="15.838901313623868"><ele>428.0</ele><time>2026-04-26T11:29:05.999Z</time></trkpt><trkpt lat="40.038043718908966" lon="15.8388593388612"><ele>428.0</ele><time>2026-04-26T11:29:06.999Z</time></trkpt><trkpt lat="40.03813946570798" lon="15.8387891953862"><ele>428.0</ele><time>2026-04-26T11:29:08.999Z</time></trkpt><trkpt lat="40.03819947225182" lon="15.838754008150065"><ele>427.99999999999994</ele><time>2026-04-26T11:29:10.999Z</time></trkpt><trkpt lat="40.03829637816989" lon="15.838666230003271"><ele>427.99999999999994</ele><time>2026-04-26T11:29:12.999Z</time></trkpt><trkpt lat="40.03839570154804" lon="15.838599302274881"><ele>428.0</ele><time>2026-04-26T11:29:13.999Z</time></trkpt><trkpt lat="40.03851113668601" lon="15.838527719227612"><ele>428.0</ele><time>2026-04-26T11:29:15.001Z</time></trkpt><trkpt lat="40.03861252742427" lon="15.838455819226228"><ele>426.79999999999995</ele><time>2026-04-26T11:29:16.001Z</time></trkpt><trkpt lat="40.03870219343883" lon="15.838382236972999"><ele>425.59999999999997</ele><time>2026-04-26T11:29:17.001Z</time></trkpt><trkpt lat="40.038771137980014" lon="15.838300630450709"><ele>424.4</ele><time>2026-04-26T11:29:18.001Z</time></trkpt><trkpt lat="40.038844496879754" lon="15.838203223494613"><ele>423.20000000000005</ele><time>2026-04-26T11:29:19.001Z</time></trkpt><trkpt lat="40.03891940870463" lon="15.83809346893925"><ele>422.0</ele><time>2026-04-26T11:29:20.001Z</time></trkpt><trkpt lat="40.03898503002395" lon="15.837998314329653"><ele>421.99999999999994</ele><time>2026-04-26T11:29:21.001Z</time></trkpt><trkpt lat="40.03903476186747" lon="15.837930185693097"><ele>422.0</ele><time>2026-04-26T11:29:22.001Z</time></trkpt><trkpt lat="40.03910056645045" lon="15.837839182200014"><ele>422.0</ele><time>2026-04-26T11:29:24.001Z</time></trkpt><trkpt lat="40.039163991264935" lon="15.837756418829784"><ele>422.0</ele><time>2026-04-26T11:29:26.001Z</time></trkpt><trkpt lat="40.03921954252919" lon="15.837681422093592"><ele>421.99999999999994</ele><time>2026-04-26T11:29:27.001Z</time></trkpt><trkpt lat="40.03928281777974" lon="15.837593256783672"><ele>422.0</ele><time>2026-04-26T11:29:28.001Z</time></trkpt><trkpt lat="40.039353343178135" lon="15.83749581123774"><ele>420.20000000000005</ele><time>2026-04-26T11:29:29.001Z</time></trkpt><trkpt lat="40.03942929582021" lon="15.837387368543535"><ele>418.4</ele><time>2026-04-26T11:29:30.001Z</time></trkpt><trkpt lat="40.03950135918766" lon="15.837284268960282"><ele>416.6</ele><time>2026-04-26T11:29:31.001Z</time></trkpt><trkpt lat="40.039558250318" lon="15.837204605048962"><ele>414.79999999999995</ele><time>2026-04-26T11:29:32.001Z</time></trkpt><trkpt lat="40.039611667738605" lon="15.837130965394348"><ele>413.0</ele><time>2026-04-26T11:29:33.001Z</time></trkpt><trkpt lat="40.039659800887186" lon="15.837064676177631"><ele>412.99999999999994</ele><time>2026-04-26T11:29:34Z</time></trkpt><trkpt lat="40.0397246270227" lon="15.837014655620758"><ele>413.0</ele><time>2026-04-26T11:29:35Z</time></trkpt><trkpt lat="40.03978717659562" lon="15.836965667319902"><ele>413.0</ele><time>2026-04-26T11:29:36Z</time></trkpt><trkpt lat="40.03984734897144" lon="15.83691845832435"><ele>413.0</ele><time>2026-04-26T11:29:37Z</time></trkpt><trkpt lat="40.03995955886786" lon="15.836844235813125"><ele>412.99999999999994</ele><time>2026-04-26T11:29:39Z</time></trkpt><trkpt lat="40.040052605194916" lon="15.836784146762223"><ele>413.0</ele><time>2026-04-26T11:29:41Z</time></trkpt><trkpt lat="40.04013854644389" lon="15.836721805550924"><ele>412.99999999999994</ele><time>2026-04-26T11:29:44Z</time></trkpt><trkpt lat="40.040197927019385" lon="15.836660164535203"><ele>413.0</ele><time>2026-04-26T11:29:46Z</time></trkpt><trkpt lat="40.04021481948467" lon="15.836571920668693"><ele>413.0</ele><time>2026-04-26T11:29:49Z</time></trkpt><trkpt lat="40.04014285424579" lon="15.836571812259239"><ele>413.0</ele><time>2026-04-26T11:32:39Z</time></trkpt><trkpt lat="40.04010372190312" lon="15.836673470455729"><ele>412.99999999999994</ele><time>2026-04-26T11:32:40Z</time></trkpt><trkpt lat="40.04004196220234" lon="15.836774464227783"><ele>413.0</ele><time>2026-04-26T11:32:41Z</time></trkpt><trkpt lat="40.03994220691343" lon="15.836844631361016"><ele>412.99999999999994</ele><time>2026-04-26T11:32:42Z</time></trkpt><trkpt lat="40.039833121607394" lon="15.836895510447711"><ele>413.0</ele><time>2026-04-26T11:32:43Z</time></trkpt><trkpt lat="40.03976396801079" lon="15.83693370302643"><ele>413.0</ele><time>2026-04-26T11:32:44Z</time></trkpt><trkpt lat="40.039689465549365" lon="15.836996945192974"><ele>413.0</ele><time>2026-04-26T11:32:46Z</time></trkpt><trkpt lat="40.0396201452141" lon="15.837073016939994"><ele>412.99999999999994</ele><time>2026-04-26T11:32:52Z</time></trkpt><trkpt lat="40.0395715242644" lon="15.837143102772117"><ele>413.0</ele><time>2026-04-26T11:32:52.999Z</time></trkpt><trkpt lat="40.0395142654781" lon="15.837218587305022"><ele>413.0</ele><time>2026-04-26T11:32:53.999Z</time></trkpt><trkpt lat="40.03944024841957" lon="15.837319986463925"><ele>413.0</ele><time>2026-04-26T11:32:54.999Z</time></trkpt><trkpt lat="40.039381032053996" lon="15.837402133791597"><ele>413.0</ele><time>2026-04-26T11:32:55.999Z</time></trkpt><trkpt lat="40.03942948399371" lon="15.837671314201943"><ele>413.0</ele><time>2026-04-26T11:32:57.999Z</time></trkpt><trkpt lat="40.03945908709785" lon="15.83782235788699"><ele>415.79999999999995</ele><time>2026-04-26T11:32:58.999Z</time></trkpt><trkpt lat="40.03947130232972" lon="15.837936004451349"><ele>418.6</ele><time>2026-04-26T11:32:59.999Z</time></trkpt><trkpt lat="40.03945718378436" lon="15.838056770283098"><ele>421.40000000000003</ele><time>2026-04-26T11:33:30.001Z</time></trkpt><trkpt lat="40.03940298429648" lon="15.83814693585269"><ele>424.20000000000005</ele><time>2026-04-26T11:33:31.001Z</time></trkpt><trkpt lat="40.03931181371212" lon="15.83824515854197"><ele>427.0</ele><time>2026-04-26T11:33:32.001Z</time></trkpt><trkpt lat="40.03921037467891" lon="15.838333984024198"><ele>426.0</ele><time>2026-04-26T11:33:33.001Z</time></trkpt><trkpt lat="40.039133440271925" lon="15.838436726941643"><ele>425.00000000000006</ele><time>2026-04-26T11:33:34.001Z</time></trkpt><trkpt lat="40.03908011596847" lon="15.838520475001053"><ele>424.0</ele><time>2026-04-26T11:33:35.001Z</time></trkpt><trkpt lat="40.03902529590521" lon="15.83864377301244"><ele>423.0</ele><time>2026-04-26T11:33:37.001Z</time></trkpt><trkpt lat="40.03911875237108" lon="15.838777230959908"><ele>422.0</ele><time>2026-04-26T11:33:39.001Z</time></trkpt><trkpt lat="40.039207974679265" lon="15.838772824385515"><ele>423.0</ele><time>2026-04-26T11:33:40.001Z</time></trkpt><trkpt lat="40.03927881424196" lon="15.838656605245554"><ele>424.0</ele><time>2026-04-26T11:33:41.001Z</time></trkpt><trkpt lat="40.03936370455524" lon="15.838564323032404"><ele>425.00000000000006</ele><time>2026-04-26T11:33:42Z</time></trkpt><trkpt lat="40.03944609208238" lon="15.838475794540619"><ele>426.0</ele><time>2026-04-26T11:33:43Z</time></trkpt><trkpt lat="40.03952118476435" lon="15.838426355848908"><ele>427.0</ele><time>2026-04-26T11:33:44Z</time></trkpt><trkpt lat="40.03959099190251" lon="15.838406755225309"><ele>427.0</ele><time>2026-04-26T11:33:45Z</time></trkpt><trkpt lat="40.039668962706585" lon="15.838425235551512"><ele>427.00000000000006</ele><time>2026-04-26T11:33:46Z</time></trkpt><trkpt lat="40.0397232936659" lon="15.838511122757884"><ele>427.00000000000006</ele><time>2026-04-26T11:33:47Z</time></trkpt><trkpt lat="40.03972683809072" lon="15.83864743779372"><ele>427.0</ele><time>2026-04-26T11:33:50Z</time></trkpt><trkpt lat="40.03964281474568" lon="15.838668878540483"><ele>427.0</ele><time>2026-04-26T11:33:51Z</time></trkpt><trkpt lat="40.039561392570185" lon="15.838752124070359"><ele>431.0</ele><time>2026-04-26T11:33:52Z</time></trkpt><trkpt lat="40.03947098977666" lon="15.838818485421235"><ele>435.00000000000006</ele><time>2026-04-26T11:33:53Z</time></trkpt><trkpt lat="40.03938722108433" lon="15.838902318473865"><ele>439.00000000000006</ele><time>2026-04-26T11:33:54Z</time></trkpt><trkpt lat="40.03931283205383" lon="15.839006196705636"><ele>443.0</ele><time>2026-04-26T11:33:55Z</time></trkpt><trkpt lat="40.0392400192068" lon="15.839137907229727"><ele>447.0</ele><time>2026-04-26T11:33:56Z</time></trkpt><trkpt lat="40.03915757925113" lon="15.839276830530999"><ele>447.6</ele><time>2026-04-26T11:33:57Z</time></trkpt><trkpt lat="40.03907183403227" lon="15.839380345170209"><ele>448.20000000000005</ele><time>2026-04-26T11:33:58Z</time></trkpt><trkpt lat="40.03900443571794" lon="15.8394843454129"><ele>448.8</ele><time>2026-04-26T11:33:59Z</time></trkpt><trkpt lat="40.038957093732535" lon="15.839572080332196"><ele>449.4</ele><time>2026-04-26T11:34:00Z</time></trkpt><trkpt lat="40.0388961421605" lon="15.839641176737581"><ele>450.0</ele><time>2026-04-26T11:34:01Z</time></trkpt><trkpt lat="40.038839891327456" lon="15.839732906289086"><ele>450.0</ele><time>2026-04-26T11:34:02Z</time></trkpt><trkpt lat="40.038779796776055" lon="15.839836670995757"><ele>450.0</ele><time>2026-04-26T11:34:03Z</time></trkpt><trkpt lat="40.03871608657368" lon="15.839954216033554"><ele>450.0</ele><time>2026-04-26T11:34:04Z</time></trkpt><trkpt lat="40.038644976034306" lon="15.84008771285062"><ele>450.0</ele><time>2026-04-26T11:34:05Z</time></trkpt><trkpt lat="40.038579830351786" lon="15.840227347126913"><ele>455.25</ele><time>2026-04-26T11:34:06Z</time></trkpt><trkpt lat="40.03852857863479" lon="15.840377833119575"><ele>460.5</ele><time>2026-04-26T11:34:07Z</time></trkpt><trkpt lat="40.03846757404169" lon="15.840513787863044"><ele>465.75</ele><time>2026-04-26T11:34:08Z</time></trkpt><trkpt lat="40.03836750610094" lon="15.84061505748219"><ele>471.0</ele><time>2026-04-26T11:34:09Z</time></trkpt><trkpt lat="40.03830433155239" lon="15.840773811157847"><ele>472.5</ele><time>2026-04-26T11:34:10Z</time></trkpt><trkpt lat="40.038241416587084" lon="15.840915419008988"><ele>474.0</ele><time>2026-04-26T11:34:11Z</time></trkpt><trkpt lat="40.03819264483854" lon="15.841056627990026"><ele>475.5</ele><time>2026-04-26T11:34:12Z</time></trkpt><trkpt lat="40.03814630060855" lon="15.841201882413403"><ele>477.0</ele><time>2026-04-26T11:34:13Z</time></trkpt><trkpt lat="40.0381150107659" lon="15.841346882009852"><ele>477.0</ele><time>2026-04-26T11:34:14Z</time></trkpt><trkpt lat="40.03808269913159" lon="15.841478215687282"><ele>477.0</ele><time>2026-04-26T11:34:15Z</time></trkpt><trkpt lat="40.03798900213341" lon="15.841565181617964"><ele>477.0</ele><time>2026-04-26T11:34:16Z</time></trkpt><trkpt lat="40.03791056657186" lon="15.841692338706423"><ele>477.0</ele><time>2026-04-26T11:34:17Z</time></trkpt><trkpt lat="40.03787681116118" lon="15.84182539851513"><ele>482.6</ele><time>2026-04-26T11:34:18Z</time></trkpt><trkpt lat="40.037847659475695" lon="15.841927992023903"><ele>488.20000000000005</ele><time>2026-04-26T11:34:19Z</time></trkpt><trkpt lat="40.03781877332958" lon="15.842003623316145"><ele>493.8</ele><time>2026-04-26T11:34:20Z</time></trkpt><trkpt lat="40.03771046925332" lon="15.842038888111306"><ele>499.4</ele><time>2026-04-26T11:34:22Z</time></trkpt><trkpt lat="40.03760597470404" lon="15.842027570113753"><ele>505.0</ele><time>2026-04-26T11:34:23Z</time></trkpt><trkpt lat="40.037519147283284" lon="15.842019831401497"><ele>500.6666666666667</ele><time>2026-04-26T11:34:24Z</time></trkpt><trkpt lat="40.03745641403936" lon="15.841993316827917"><ele>496.33333333333337</ele><time>2026-04-26T11:34:25Z</time></trkpt><trkpt lat="40.03737984785737" lon="15.841914689408966"><ele>492.0</ele><time>2026-04-26T11:34:26Z</time></trkpt><trkpt lat="40.03731496023082" lon="15.84187800346967"><ele>487.66666666666663</ele><time>2026-04-26T11:34:27Z</time></trkpt><trkpt lat="40.03723596258448" lon="15.841944787053254"><ele>483.3333333333333</ele><time>2026-04-26T11:34:29Z</time></trkpt><trkpt lat="40.03722532085307" lon="15.842044729708228"><ele>479.0</ele><time>2026-04-26T11:34:30Z</time></trkpt><trkpt lat="40.037200855825425" lon="15.842178534649534"><ele>479.0</ele><time>2026-04-26T11:34:31Z</time></trkpt><trkpt lat="40.03713286000913" lon="15.842301238895145"><ele>479.0</ele><time>2026-04-26T11:34:32Z</time></trkpt><trkpt lat="40.03713277436207" lon="15.842430074500744"><ele>479.0</ele><time>2026-04-26T11:34:33Z</time></trkpt><trkpt lat="40.037134992601274" lon="15.84257612615197"><ele>479.0</ele><time>2026-04-26T11:34:34Z</time></trkpt><trkpt lat="40.037102400299744" lon="15.842725624723595"><ele>479.0</ele><time>2026-04-26T11:34:35Z</time></trkpt><trkpt lat="40.037062562902754" lon="15.842858717453908"><ele>481.4</ele><time>2026-04-26T11:34:36Z</time></trkpt><trkpt lat="40.037009126557166" lon="15.842990422856644"><ele>483.79999999999995</ele><time>2026-04-26T11:34:37Z</time></trkpt><trkpt lat="40.03696743639475" lon="15.843125541419845"><ele>486.20000000000005</ele><time>2026-04-26T11:34:38Z</time></trkpt><trkpt lat="40.03690773247731" lon="15.843227609976099"><ele>488.6</ele><time>2026-04-26T11:34:39Z</time></trkpt><trkpt lat="40.036890195742636" lon="15.84331207265881"><ele>491.0</ele><time>2026-04-26T11:34:40Z</time></trkpt><trkpt lat="40.036914528587005" lon="15.843402649083574"><ele>490.4</ele><time>2026-04-26T11:34:41Z</time></trkpt><trkpt lat="40.036959201170866" lon="15.843481187767527"><ele>489.8</ele><time>2026-04-26T11:34:42Z</time></trkpt><trkpt lat="40.037050542576125" lon="15.8435209199621"><ele>489.19999999999993</ele><time>2026-04-26T11:34:43Z</time></trkpt><trkpt lat="40.03714674792722" lon="15.843500073386235"><ele>488.59999999999997</ele><time>2026-04-26T11:34:44Z</time></trkpt><trkpt lat="40.03724026491923" lon="15.843526880684054"><ele>488.0</ele><time>2026-04-26T11:34:45Z</time></trkpt><trkpt lat="40.03735575914505" lon="15.843545786174642"><ele>488.0</ele><time>2026-04-26T11:34:46Z</time></trkpt><trkpt lat="40.03746121223299" lon="15.843526082091538"><ele>487.99999999999994</ele><time>2026-04-26T11:34:47Z</time></trkpt><trkpt lat="40.037552484453684" lon="15.843532264933447"><ele>487.99999999999994</ele><time>2026-04-26T11:34:48Z</time></trkpt><trkpt lat="40.03762436054784" lon="15.843549330734556"><ele>488.0</ele><time>2026-04-26T11:34:49Z</time></trkpt><trkpt lat="40.037687904938586" lon="15.843692715295978"><ele>488.0</ele><time>2026-04-26T11:34:50.999Z</time></trkpt><trkpt lat="40.03780033043374" lon="15.843755081978477"><ele>491.8333333333333</ele><time>2026-04-26T11:34:52.999Z</time></trkpt><trkpt lat="40.03788462270447" lon="15.843798777348256"><ele>495.66666666666663</ele><time>2026-04-26T11:34:53.999Z</time></trkpt><trkpt lat="40.037966357825844" lon="15.843861820312588"><ele>499.5</ele><time>2026-04-26T11:34:54.999Z</time></trkpt><trkpt lat="40.0380451684831" lon="15.843917520188837"><ele>503.33333333333337</ele><time>2026-04-26T11:34:55.999Z</time></trkpt><trkpt lat="40.03810816288905" lon="15.843962041893631"><ele>507.1666666666667</ele><time>2026-04-26T11:34:56.999Z</time></trkpt><trkpt lat="40.03818786018913" lon="15.84390622700295"><ele>511.0</ele><time>2026-04-26T11:34:57.999Z</time></trkpt><trkpt lat="40.0382495564096" lon="15.843880078645089"><ele>511.00000000000006</ele><time>2026-04-26T11:34:59.999Z</time></trkpt><trkpt lat="40.03828565115617" lon="15.843780485621053"><ele>511.0</ele><time>2026-04-26T11:35:01.999Z</time></trkpt><trkpt lat="40.03835225714393" lon="15.843682039944941"><ele>511.0</ele><time>2026-04-26T11:35:03.999Z</time></trkpt><trkpt lat="40.03841400883362" lon="15.84375038673685"><ele>511.0</ele><time>2026-04-26T11:35:06.999Z</time></trkpt><trkpt lat="40.038399173272666" lon="15.84388476163929"><ele>511.00000000000006</ele><time>2026-04-26T11:35:08.999Z</time></trkpt><trkpt lat="40.03841383717259" lon="15.843976220875433"><ele>511.0</ele><time>2026-04-26T11:35:09.999Z</time></trkpt><trkpt lat="40.038433849057455" lon="15.844077790026303"><ele>515.3333333333334</ele><time>2026-04-26T11:35:10.999Z</time></trkpt><trkpt lat="40.038447552971334" lon="15.844168753695062"><ele>519.6666666666667</ele><time>2026-04-26T11:35:11.999Z</time></trkpt><trkpt lat="40.03842197536552" lon="15.844262214215982"><ele>524.0</ele><time>2026-04-26T11:35:13.999Z</time></trkpt><trkpt lat="40.03848587159911" lon="15.844226581783413"><ele>528.3333333333334</ele><time>2026-04-26T11:35:18.999Z</time></trkpt><trkpt lat="40.038503672178095" lon="15.84406209648045"><ele>532.6666666666666</ele><time>2026-04-26T11:35:20.999Z</time></trkpt><trkpt lat="40.038512353638346" lon="15.843963640092829"><ele>537.0</ele><time>2026-04-26T11:35:21.999Z</time></trkpt><trkpt lat="40.03853600411868" lon="15.843870462047548"><ele>537.0</ele><time>2026-04-26T11:35:22.999Z</time></trkpt><trkpt lat="40.038566467446394" lon="15.84375944768483"><ele>537.0</ele><time>2026-04-26T11:35:23.999Z</time></trkpt><trkpt lat="40.03859698178964" lon="15.843679627270504"><ele>537.0</ele><time>2026-04-26T11:35:24.999Z</time></trkpt><trkpt lat="40.03866155660989" lon="15.843621710486861"><ele>537.0</ele><time>2026-04-26T11:35:26.999Z</time></trkpt><trkpt lat="40.03876394888779" lon="15.843549467353673"><ele>537.0</ele><time>2026-04-26T11:35:28.999Z</time></trkpt><trkpt lat="40.038778668803666" lon="15.84343132373563"><ele>537.0</ele><time>2026-04-26T11:35:30.999Z</time></trkpt><trkpt lat="40.03869790410789" lon="15.843306646979572"><ele>537.8000000000001</ele><time>2026-04-26T11:35:33Z</time></trkpt><trkpt lat="40.03864289140874" lon="15.843208647198837"><ele>538.6</ele><time>2026-04-26T11:35:34Z</time></trkpt><trkpt lat="40.03857128586313" lon="15.843075945366445"><ele>539.4000000000001</ele><time>2026-04-26T11:35:35Z</time></trkpt><trkpt lat="40.03851391481977" lon="15.842937623445547"><ele>540.2</ele><time>2026-04-26T11:35:36Z</time></trkpt><trkpt lat="40.03847393645933" lon="15.842829761071336"><ele>541.0</ele><time>2026-04-26T11:35:37Z</time></trkpt><trkpt lat="40.038447930519794" lon="15.842739417994686"><ele>541.0</ele><time>2026-04-26T11:35:38Z</time></trkpt><trkpt lat="40.03850483626818" lon="15.842698491582508"><ele>541.0</ele><time>2026-04-26T11:35:41Z</time></trkpt><trkpt lat="40.03856698937358" lon="15.84266474157507"><ele>541.0</ele><time>2026-04-26T11:35:42Z</time></trkpt><trkpt lat="40.03863861315494" lon="15.842706793683892"><ele>541.0</ele><time>2026-04-26T11:35:43Z</time></trkpt><trkpt lat="40.03870434944862" lon="15.842771247236602"><ele>541.0</ele><time>2026-04-26T11:35:44Z</time></trkpt><trkpt lat="40.03874547634549" lon="15.842843618073605"><ele>541.0</ele><time>2026-04-26T11:35:45Z</time></trkpt><trkpt lat="40.03878385573699" lon="15.84295061400496"><ele>541.0</ele><time>2026-04-26T11:35:46Z</time></trkpt><trkpt lat="40.03883921389305" lon="15.843049069623097"><ele>541.0</ele><time>2026-04-26T11:35:47Z</time></trkpt><trkpt lat="40.03891455554866" lon="15.843162262126508"><ele>541.0</ele><time>2026-04-26T11:35:48Z</time></trkpt><trkpt lat="40.03897293639138" lon="15.84324814662332"><ele>541.0</ele><time>2026-04-26T11:35:49Z</time></trkpt><trkpt lat="40.03906821568091" lon="15.843364156004993"><ele>541.0</ele><time>2026-04-26T11:35:51Z</time></trkpt><trkpt lat="40.039126408355315" lon="15.843276835942232"><ele>541.0</ele><time>2026-04-26T11:35:54Z</time></trkpt><trkpt lat="40.03912994790745" lon="15.843112552619074"><ele>541.0</ele><time>2026-04-26T11:35:56Z</time></trkpt><trkpt lat="40.03912961071014" lon="15.843027577477153"><ele>541.0</ele><time>2026-04-26T11:35:57Z</time></trkpt><trkpt lat="40.039130003261974" lon="15.842882189229273"><ele>541.0</ele><time>2026-04-26T11:35:59Z</time></trkpt><trkpt lat="40.039213857882736" lon="15.842906043148906"><ele>541.0</ele><time>2026-04-26T11:36:02Z</time></trkpt><trkpt lat="40.03927803141417" lon="15.843068485665551"><ele>548.25</ele><time>2026-04-26T11:36:04Z</time></trkpt><trkpt lat="40.03932436511156" lon="15.843200842153669"><ele>555.5</ele><time>2026-04-26T11:36:05Z</time></trkpt><trkpt lat="40.039377375006474" lon="15.843341451712838"><ele>562.75</ele><time>2026-04-26T11:36:06Z</time></trkpt><trkpt lat="40.03944704753957" lon="15.843483436195344"><ele>570.0</ele><time>2026-04-26T11:36:07Z</time></trkpt><trkpt lat="40.03951108334214" lon="15.843611465876647"><ele>570.8333333333334</ele><time>2026-04-26T11:36:08Z</time></trkpt><trkpt lat="40.039564632881174" lon="15.84372995632827"><ele>571.6666666666666</ele><time>2026-04-26T11:36:09Z</time></trkpt><trkpt lat="40.03960032976855" lon="15.843826132236856"><ele>572.5</ele><time>2026-04-26T11:36:10Z</time></trkpt><trkpt lat="40.03959593743689" lon="15.843920603719004"><ele>573.3333333333333</ele><time>2026-04-26T11:36:11Z</time></trkpt><trkpt lat="40.03959598613288" lon="15.844017241980795"><ele>574.1666666666666</ele><time>2026-04-26T11:36:12Z</time></trkpt><trkpt lat="40.03959396526957" lon="15.844160951507465"><ele>575.0</ele><time>2026-04-26T11:36:13Z</time></trkpt><trkpt lat="40.03957796848066" lon="15.844273954698266"><ele>576.8333333333333</ele><time>2026-04-26T11:36:14Z</time></trkpt><trkpt lat="40.03954917811629" lon="15.844354901060644"><ele>578.6666666666666</ele><time>2026-04-26T11:36:15Z</time></trkpt><trkpt lat="40.03950064686254" lon="15.844436447868185"><ele>580.5</ele><time>2026-04-26T11:36:16Z</time></trkpt><trkpt lat="40.03946511600407" lon="15.844546448085206"><ele>582.3333333333334</ele><time>2026-04-26T11:36:17Z</time></trkpt><trkpt lat="40.03943525606024" lon="15.84466450671695"><ele>584.1666666666667</ele><time>2026-04-26T11:36:18Z</time></trkpt><trkpt lat="40.03940491668028" lon="15.84480058578275"><ele>586.0</ele><time>2026-04-26T11:36:19Z</time></trkpt><trkpt lat="40.039388490874835" lon="15.844952571352703"><ele>586.0</ele><time>2026-04-26T11:36:20Z</time></trkpt><trkpt lat="40.0393385414808" lon="15.845101660025097"><ele>586.0</ele><time>2026-04-26T11:36:21Z</time></trkpt><trkpt lat="40.03929914222709" lon="15.84526702844332"><ele>586.0</ele><time>2026-04-26T11:36:22Z</time></trkpt><trkpt lat="40.03925000592273" lon="15.845443202310923"><ele>586.0</ele><time>2026-04-26T11:36:23Z</time></trkpt><trkpt lat="40.03921112612616" lon="15.845606925966647"><ele>589.0</ele><time>2026-04-26T11:36:24Z</time></trkpt><trkpt lat="40.03920272453387" lon="15.845782370019855"><ele>592.0</ele><time>2026-04-26T11:36:25Z</time></trkpt><trkpt lat="40.03919211200286" lon="15.84592620443561"><ele>595.0</ele><time>2026-04-26T11:36:26Z</time></trkpt><trkpt lat="40.03917437844852" lon="15.846067031155831"><ele>598.0</ele><time>2026-04-26T11:36:27Z</time></trkpt><trkpt lat="40.039117802905345" lon="15.846185069933298"><ele>592.4</ele><time>2026-04-26T11:36:28Z</time></trkpt><trkpt lat="40.03907140651233" lon="15.846281689977483"><ele>586.8</ele><time>2026-04-26T11:36:29Z</time></trkpt><trkpt lat="40.03901471127998" lon="15.846390419107465"><ele>581.2</ele><time>2026-04-26T11:36:30Z</time></trkpt><trkpt lat="40.03895762088386" lon="15.846499546378864"><ele>575.6</ele><time>2026-04-26T11:36:31Z</time></trkpt><trkpt lat="40.03891970979176" lon="15.846594323007546"><ele>570.0</ele><time>2026-04-26T11:36:32Z</time></trkpt><trkpt lat="40.03893010096536" lon="15.84669698445686"><ele>570.0</ele><time>2026-04-26T11:36:33Z</time></trkpt><trkpt lat="40.03895192457876" lon="15.846778624095776"><ele>570.0</ele><time>2026-04-26T11:36:34Z</time></trkpt><trkpt lat="40.038973193060656" lon="15.846869459674993"><ele>570.0</ele><time>2026-04-26T11:36:35Z</time></trkpt><trkpt lat="40.039001278927664" lon="15.846970658824814"><ele>570.0</ele><time>2026-04-26T11:36:36Z</time></trkpt><trkpt lat="40.03903025847607" lon="15.847081673669251"><ele>570.0</ele><time>2026-04-26T11:36:37Z</time></trkpt><trkpt lat="40.03907370850715" lon="15.847211009730684"><ele>570.0</ele><time>2026-04-26T11:36:38Z</time></trkpt><trkpt lat="40.03909979689137" lon="15.847310392648476"><ele>571.1666666666666</ele><time>2026-04-26T11:36:39Z</time></trkpt><trkpt lat="40.03911771104611" lon="15.847450514076328"><ele>572.3333333333334</ele><time>2026-04-26T11:36:41Z</time></trkpt><trkpt lat="40.039121763458034" lon="15.847546749903646"><ele>573.5</ele><time>2026-04-26T11:37:05.999Z</time></trkpt><trkpt lat="40.039145058280596" lon="15.847689321594052"><ele>574.6666666666667</ele><time>2026-04-26T11:37:07.999Z</time></trkpt><trkpt lat="40.039154219105725" lon="15.84778370842246"><ele>575.8333333333334</ele><time>2026-04-26T11:37:08.999Z</time></trkpt><trkpt lat="40.03914876336502" lon="15.8478798781067"><ele>577.0</ele><time>2026-04-26T11:37:09.999Z</time></trkpt><trkpt lat="40.03914354529082" lon="15.84798706195328"><ele>584.8000000000001</ele><time>2026-04-26T11:37:10.999Z</time></trkpt><trkpt lat="40.03915422400287" lon="15.84809645065219"><ele>592.6</ele><time>2026-04-26T11:37:11.999Z</time></trkpt><trkpt lat="40.03915558600162" lon="15.848213713589985"><ele>600.4000000000001</ele><time>2026-04-26T11:37:12.999Z</time></trkpt><trkpt lat="40.03919322455885" lon="15.848330730062536"><ele>608.2</ele><time>2026-04-26T11:37:13.999Z</time></trkpt><trkpt lat="40.03925572086643" lon="15.848428280337291"><ele>616.0</ele><time>2026-04-26T11:37:14.999Z</time></trkpt><trkpt lat="40.03930648992227" lon="15.848525011416525"><ele>617.8333333333334</ele><time>2026-04-26T11:37:15.999Z</time></trkpt><trkpt lat="40.03935856322525" lon="15.848596889915516"><ele>619.6666666666667</ele><time>2026-04-26T11:37:16.999Z</time></trkpt><trkpt lat="40.03941501970128" lon="15.848665470212937"><ele>621.5</ele><time>2026-04-26T11:37:17.999Z</time></trkpt><trkpt lat="40.03944970194872" lon="15.848796377983534"><ele>623.3333333333334</ele><time>2026-04-26T11:37:19.999Z</time></trkpt><trkpt lat="40.039451305209965" lon="15.84887952400618"><ele>625.1666666666666</ele><time>2026-04-26T11:37:20.999Z</time></trkpt><trkpt lat="40.039433875771174" lon="15.848989739318352"><ele>627.0</ele><time>2026-04-26T11:37:21.999Z</time></trkpt><trkpt lat="40.039385202802826" lon="15.849082508623832"><ele>627.0</ele><time>2026-04-26T11:37:22.999Z</time></trkpt><trkpt lat="40.03932554642272" lon="15.849143373727363"><ele>627.0</ele><time>2026-04-26T11:37:23.999Z</time></trkpt><trkpt lat="40.039268387269914" lon="15.849210701119773"><ele>627.0</ele><time>2026-04-26T11:37:24.999Z</time></trkpt><trkpt lat="40.03918713509732" lon="15.849256244429448"><ele>627.0</ele><time>2026-04-26T11:37:25.999Z</time></trkpt><trkpt lat="40.03909002908097" lon="15.849328750757035"><ele>627.0</ele><time>2026-04-26T11:37:26.999Z</time></trkpt><trkpt lat="40.039010774918744" lon="15.849414725489327"><ele>627.6666666666666</ele><time>2026-04-26T11:37:27.999Z</time></trkpt><trkpt lat="40.03895555067278" lon="15.8494914853798"><ele>628.3333333333334</ele><time>2026-04-26T11:37:28.999Z</time></trkpt><trkpt lat="40.03892167319283" lon="15.849585937092964"><ele>629.0</ele><time>2026-04-26T11:37:29.999Z</time></trkpt><trkpt lat="40.038899029341145" lon="15.84968772130763"><ele>629.6666666666667</ele><time>2026-04-26T11:37:30.999Z</time></trkpt><trkpt lat="40.03890849813547" lon="15.849792749464266"><ele>630.3333333333334</ele><time>2026-04-26T11:37:31.999Z</time></trkpt><trkpt lat="40.03890661600284" lon="15.849888413003113"><ele>631.0</ele><time>2026-04-26T11:37:32.999Z</time></trkpt><trkpt lat="40.03891535609329" lon="15.849981215648917"><ele>631.0</ele><time>2026-04-26T11:37:33.999Z</time></trkpt><trkpt lat="40.03891721094105" lon="15.850066093296215"><ele>631.0</ele><time>2026-04-26T11:37:34.999Z</time></trkpt><trkpt lat="40.03893118224299" lon="15.850189936280708"><ele>631.0</ele><time>2026-04-26T11:37:36.999Z</time></trkpt><trkpt lat="40.03892921186101" lon="15.850323988381433"><ele>631.0</ele><time>2026-04-26T11:37:39Z</time></trkpt><trkpt lat="40.039012419336245" lon="15.85038258297121"><ele>631.0</ele><time>2026-04-26T11:37:40Z</time></trkpt><trkpt lat="40.039069050547866" lon="15.850433728835467"><ele>631.0</ele><time>2026-04-26T11:37:41Z</time></trkpt><trkpt lat="40.039113612666426" lon="15.850499767694375"><ele>633.8</ele><time>2026-04-26T11:37:42Z</time></trkpt><trkpt lat="40.039157090060755" lon="15.850637314581157"><ele>636.6</ele><time>2026-04-26T11:37:44Z</time></trkpt><trkpt lat="40.03914606609433" lon="15.850745076207954"><ele>639.4</ele><time>2026-04-26T11:37:46Z</time></trkpt><trkpt lat="40.03915647708206" lon="15.850866105556417"><ele>642.2</ele><time>2026-04-26T11:37:48Z</time></trkpt><trkpt lat="40.039151667938654" lon="15.851040137837334"><ele>645.0</ele><time>2026-04-26T11:37:52Z</time></trkpt><trkpt lat="40.03916814078426" lon="15.851188649925303"><ele>646.2</ele><time>2026-04-26T11:37:53Z</time></trkpt><trkpt lat="40.03914156672912" lon="15.851327932171179"><ele>647.4</ele><time>2026-04-26T11:37:54Z</time></trkpt><trkpt lat="40.03911952668091" lon="15.851443238753575"><ele>648.5999999999999</ele><time>2026-04-26T11:37:55Z</time></trkpt><trkpt lat="40.039084553597846" lon="15.85153524631167"><ele>649.8</ele><time>2026-04-26T11:37:56Z</time></trkpt><trkpt lat="40.039027253552675" lon="15.851616977677883"><ele>651.0</ele><time>2026-04-26T11:37:57Z</time></trkpt><trkpt lat="40.03896373979148" lon="15.851723428449652"><ele>649.0</ele><time>2026-04-26T11:37:58Z</time></trkpt><trkpt lat="40.038903680988966" lon="15.851842453853449"><ele>647.0</ele><time>2026-04-26T11:37:59Z</time></trkpt><trkpt lat="40.03884972238285" lon="15.851981885805738"><ele>645.0</ele><time>2026-04-26T11:38:00Z</time></trkpt><trkpt lat="40.038800223066545" lon="15.852130821266732"><ele>643.0</ele><time>2026-04-26T11:38:01Z</time></trkpt><trkpt lat="40.03876788676971" lon="15.852265898909195"><ele>643.0</ele><time>2026-04-26T11:38:02Z</time></trkpt><trkpt lat="40.038740634726366" lon="15.852396651199083"><ele>643.0</ele><time>2026-04-26T11:38:03Z</time></trkpt><trkpt lat="40.03871824971304" lon="15.852547057708657"><ele>643.0</ele><time>2026-04-26T11:38:04Z</time></trkpt><trkpt lat="40.03872500649553" lon="15.85271941567431"><ele>643.0</ele><time>2026-04-26T11:38:05Z</time></trkpt><trkpt lat="40.03869033121871" lon="15.852875929393251"><ele>642.3333333333334</ele><time>2026-04-26T11:38:06Z</time></trkpt><trkpt lat="40.03866697308696" lon="15.853048371993369"><ele>641.6666666666666</ele><time>2026-04-26T11:38:07Z</time></trkpt><trkpt lat="40.038630234553125" lon="15.85324832889435"><ele>641.0</ele><time>2026-04-26T11:38:08Z</time></trkpt><trkpt lat="40.03857911661003" lon="15.853469000169964"><ele>640.3333333333333</ele><time>2026-04-26T11:38:09Z</time></trkpt><trkpt lat="40.0385085509336" lon="15.853708250282603"><ele>639.6666666666666</ele><time>2026-04-26T11:38:10Z</time></trkpt><trkpt lat="40.038438923739356" lon="15.853960264329064"><ele>639.0</ele><time>2026-04-26T11:38:11Z</time></trkpt><trkpt lat="40.03836704632739" lon="15.85420663842554"><ele>640.3333333333334</ele><time>2026-04-26T11:38:12Z</time></trkpt><trkpt lat="40.03829988505765" lon="15.85443064804791"><ele>641.6666666666667</ele><time>2026-04-26T11:38:13Z</time></trkpt><trkpt lat="40.03823935437989" lon="15.854640100129506"><ele>643.0</ele><time>2026-04-26T11:38:14Z</time></trkpt><trkpt lat="40.03818627337612" lon="15.854838588939856"><ele>643.0</ele><time>2026-04-26T11:38:15Z</time></trkpt><trkpt lat="40.03816583604837" lon="15.855021027819017"><ele>643.0</ele><time>2026-04-26T11:38:16Z</time></trkpt><trkpt lat="40.03814591279144" lon="15.855171340200142"><ele>643.0</ele><time>2026-04-26T11:38:17Z</time></trkpt><trkpt lat="40.03814485434412" lon="15.855303171344424"><ele>643.0</ele><time>2026-04-26T11:38:18Z</time></trkpt><trkpt lat="40.03814326173443" lon="15.855411998969348"><ele>643.0</ele><time>2026-04-26T11:38:19Z</time></trkpt><trkpt lat="40.038139387127806" lon="15.855513027233998"><ele>643.5999999999999</ele><time>2026-04-26T11:38:20Z</time></trkpt><trkpt lat="40.038125253161226" lon="15.855606159982292"><ele>644.1999999999999</ele><time>2026-04-26T11:38:21Z</time></trkpt><trkpt lat="40.038051977296576" lon="15.855675435856083"><ele>644.8</ele><time>2026-04-26T11:38:22Z</time></trkpt><trkpt lat="40.03796058502472" lon="15.855724542579198"><ele>645.4</ele><time>2026-04-26T11:38:23Z</time></trkpt><trkpt lat="40.03786116769193" lon="15.855781387107385"><ele>646.0</ele><time>2026-04-26T11:38:24Z</time></trkpt><trkpt lat="40.03775697965471" lon="15.85577032331367"><ele>646.0</ele><time>2026-04-26T11:38:25Z</time></trkpt><trkpt lat="40.037615482187626" lon="15.855770935671265"><ele>646.0</ele><time>2026-04-26T11:38:26Z</time></trkpt><trkpt lat="40.037468880013314" lon="15.855772780035748"><ele>646.0</ele><time>2026-04-26T11:38:27Z</time></trkpt><trkpt lat="40.037334458572516" lon="15.855775009333962"><ele>646.0</ele><time>2026-04-26T11:38:28Z</time></trkpt><trkpt lat="40.037208613105385" lon="15.855760154678473"><ele>646.0</ele><time>2026-04-26T11:38:29Z</time></trkpt><trkpt lat="40.0370738180857" lon="15.855741623650825"><ele>646.0</ele><time>2026-04-26T11:38:30Z</time></trkpt><trkpt lat="40.03692467632304" lon="15.855725971534266"><ele>646.0</ele><time>2026-04-26T11:38:31Z</time></trkpt><trkpt lat="40.036768634647004" lon="15.855714684184532"><ele>646.0</ele><time>2026-04-26T11:38:32Z</time></trkpt><trkpt lat="40.03662730336775" lon="15.855705949356576"><ele>646.0</ele><time>2026-04-26T11:38:33Z</time></trkpt><trkpt lat="40.03650244399593" lon="15.855698957235456"><ele>646.0</ele><time>2026-04-26T11:38:34Z</time></trkpt><trkpt lat="40.036384008351675" lon="15.855689978784453"><ele>646.0</ele><time>2026-04-26T11:38:35Z</time></trkpt><trkpt lat="40.036270967811404" lon="15.855678020955942"><ele>646.0</ele><time>2026-04-26T11:38:36Z</time></trkpt><trkpt lat="40.03616468728786" lon="15.855668627776945"><ele>646.0</ele><time>2026-04-26T11:38:37Z</time></trkpt><trkpt lat="40.03605658272187" lon="15.85567183788944"><ele>646.0</ele><time>2026-04-26T11:38:38Z</time></trkpt><trkpt lat="40.035957273458784" lon="15.855707064060955"><ele>646.0</ele><time>2026-04-26T11:38:39Z</time></trkpt><trkpt lat="40.03586127466073" lon="15.855746622699085"><ele>646.0</ele><time>2026-04-26T11:38:40Z</time></trkpt><trkpt lat="40.03574336481373" lon="15.855798051876748"><ele>646.0</ele><time>2026-04-26T11:38:41Z</time></trkpt><trkpt lat="40.035602618978956" lon="15.85587977424184"><ele>648.0</ele><time>2026-04-26T11:38:42Z</time></trkpt><trkpt lat="40.035462614148635" lon="15.856016079764219"><ele>650.0</ele><time>2026-04-26T11:38:43Z</time></trkpt><trkpt lat="40.0353465386549" lon="15.856199724619461"><ele>652.0</ele><time>2026-04-26T11:38:44Z</time></trkpt><trkpt lat="40.035264218687225" lon="15.856383750244976"><ele>652.0</ele><time>2026-04-26T11:38:45Z</time></trkpt><trkpt lat="40.03522961210836" lon="15.856568876115787"><ele>652.0</ele><time>2026-04-26T11:38:46Z</time></trkpt><trkpt lat="40.03522750175604" lon="15.85679139742054"><ele>652.0</ele><time>2026-04-26T11:38:47Z</time></trkpt><trkpt lat="40.035189434009006" lon="15.857025028133695"><ele>652.0</ele><time>2026-04-26T11:38:48Z</time></trkpt><trkpt lat="40.035124293807186" lon="15.857258337020129"><ele>652.0</ele><time>2026-04-26T11:38:49Z</time></trkpt><trkpt lat="40.035049945723856" lon="15.857524089768562"><ele>652.0</ele><time>2026-04-26T11:38:50Z</time></trkpt><trkpt lat="40.03497649413739" lon="15.857791828018582"><ele>653.0</ele><time>2026-04-26T11:38:51Z</time></trkpt><trkpt lat="40.03490695421144" lon="15.858038603589302"><ele>654.0</ele><time>2026-04-26T11:38:52Z</time></trkpt><trkpt lat="40.034838562476935" lon="15.858281304799169"><ele>655.0</ele><time>2026-04-26T11:38:52.999Z</time></trkpt><trkpt lat="40.03478730326704" lon="15.858529485837774"><ele>655.0</ele><time>2026-04-26T11:38:53.999Z</time></trkpt><trkpt lat="40.03471939679839" lon="15.858743528993825"><ele>655.0</ele><time>2026-04-26T11:38:54.999Z</time></trkpt><trkpt lat="40.03465972948044" lon="15.858954684591131"><ele>655.0</ele><time>2026-04-26T11:38:55.999Z</time></trkpt><trkpt lat="40.03458177956585" lon="15.859168235103219"><ele>658.0</ele><time>2026-04-26T11:38:56.999Z</time></trkpt><trkpt lat="40.034465992916964" lon="15.859357056188136"><ele>661.0</ele><time>2026-04-26T11:38:57.999Z</time></trkpt><trkpt lat="40.03434062270972" lon="15.859545941196629"><ele>664.0</ele><time>2026-04-26T11:38:58.999Z</time></trkpt><trkpt lat="40.03421464830177" lon="15.859757102826435"><ele>662.6666666666667</ele><time>2026-04-26T11:38:59.999Z</time></trkpt><trkpt lat="40.03405084850937" lon="15.859938196390154"><ele>661.3333333333334</ele><time>2026-04-26T11:39:00.999Z</time></trkpt><trkpt lat="40.03386869912343" lon="15.8601114163478"><ele>660.0</ele><time>2026-04-26T11:39:01.999Z</time></trkpt><trkpt lat="40.03366386699915" lon="15.860293272234019"><ele>662.5</ele><time>2026-04-26T11:39:02.999Z</time></trkpt><trkpt lat="40.03343905994006" lon="15.860480119574802"><ele>665.0</ele><time>2026-04-26T11:39:03.999Z</time></trkpt><trkpt lat="40.03321299482097" lon="15.860626199274257"><ele>665.0</ele><time>2026-04-26T11:39:04.999Z</time></trkpt><trkpt lat="40.03304751788613" lon="15.860793731601593"><ele>665.0</ele><time>2026-04-26T11:39:05.999Z</time></trkpt><trkpt lat="40.03288320724113" lon="15.860947406028485"><ele>665.0</ele><time>2026-04-26T11:39:06.999Z</time></trkpt><trkpt lat="40.03275054729605" lon="15.861137255991352"><ele>667.6666666666666</ele><time>2026-04-26T11:39:07.999Z</time></trkpt><trkpt lat="40.03261864909308" lon="15.86133920575629"><ele>670.3333333333334</ele><time>2026-04-26T11:39:08.999Z</time></trkpt><trkpt lat="40.032488843347835" lon="15.86152623573647"><ele>673.0</ele><time>2026-04-26T11:39:09.999Z</time></trkpt><trkpt lat="40.03236897689536" lon="15.861697977636123"><ele>676.0</ele><time>2026-04-26T11:39:10.999Z</time></trkpt><trkpt lat="40.0322726853231" lon="15.86183639654485"><ele>679.0</ele><time>2026-04-26T11:39:11.999Z</time></trkpt><trkpt lat="40.03219359993089" lon="15.861954541312736"><ele>682.0</ele><time>2026-04-26T11:39:12.999Z</time></trkpt><trkpt lat="40.03215003415786" lon="15.862015656523026"><ele>685.0</ele><time>2026-04-26T11:39:13.999Z</time></trkpt><trkpt lat="40.03206842535429" lon="15.8621086810223"><ele>688.0</ele><time>2026-04-26T11:39:15.999Z</time></trkpt><trkpt lat="40.031985323227914" lon="15.862139931960481"><ele>688.0</ele><time>2026-04-26T11:39:17.999Z</time></trkpt><trkpt lat="40.031900614135566" lon="15.862094108642669"><ele>688.0</ele><time>2026-04-26T11:39:19.999Z</time></trkpt><trkpt lat="40.03184395524922" lon="15.862052340045517"><ele>688.0</ele><time>2026-04-26T11:39:20.999Z</time></trkpt><trkpt lat="40.03177744336797" lon="15.86201854371216"><ele>688.0</ele><time>2026-04-26T11:39:21.999Z</time></trkpt><trkpt lat="40.031717808966214" lon="15.861962536498554"><ele>688.0</ele><time>2026-04-26T11:39:22.999Z</time></trkpt><trkpt lat="40.03164241052419" lon="15.86192528500231"><ele>688.0</ele><time>2026-04-26T11:39:23.999Z</time></trkpt><trkpt lat="40.03156967226088" lon="15.861889423622861"><ele>688.5999999999999</ele><time>2026-04-26T11:39:24.999Z</time></trkpt><trkpt lat="40.03148512100902" lon="15.861843712652124"><ele>689.1999999999999</ele><time>2026-04-26T11:39:25.999Z</time></trkpt><trkpt lat="40.03139581008844" lon="15.861783931570807"><ele>689.8</ele><time>2026-04-26T11:39:26.999Z</time></trkpt><trkpt lat="40.03130753117156" lon="15.861712209288559"><ele>690.4</ele><time>2026-04-26T11:39:27.999Z</time></trkpt><trkpt lat="40.03119659712052" lon="15.861584295697703"><ele>691.0</ele><time>2026-04-26T11:39:28.999Z</time></trkpt><trkpt lat="40.03109923448229" lon="15.861390817740059"><ele>687.6666666666667</ele><time>2026-04-26T11:39:29.999Z</time></trkpt><trkpt lat="40.03099007597508" lon="15.861159818007543"><ele>684.3333333333334</ele><time>2026-04-26T11:39:30.999Z</time></trkpt><trkpt lat="40.0308534657194" lon="15.860917405140935"><ele>681.0</ele><time>2026-04-26T11:39:31.999Z</time></trkpt><trkpt lat="40.03072798824871" lon="15.860655875169673"><ele>679.0</ele><time>2026-04-26T11:39:32.999Z</time></trkpt><trkpt lat="40.03062319438295" lon="15.86042716457609"><ele>677.0</ele><time>2026-04-26T11:39:33.999Z</time></trkpt><trkpt lat="40.03054683081859" lon="15.860245790092"><ele>675.0</ele><time>2026-04-26T11:39:34.999Z</time></trkpt><trkpt lat="40.03047241240773" lon="15.86010569191453"><ele>672.75</ele><time>2026-04-26T11:39:35.999Z</time></trkpt><trkpt lat="40.0303757329289" lon="15.86001019067423"><ele>670.5</ele><time>2026-04-26T11:39:36.999Z</time></trkpt><trkpt lat="40.03024914067766" lon="15.859969742126534"><ele>668.25</ele><time>2026-04-26T11:39:37.999Z</time></trkpt><trkpt lat="40.03010413832169" lon="15.859989259505506"><ele>666.0</ele><time>2026-04-26T11:39:38.999Z</time></trkpt><trkpt lat="40.029946852652536" lon="15.860075861411557"><ele>667.3333333333334</ele><time>2026-04-26T11:39:39.999Z</time></trkpt><trkpt lat="40.029775481201945" lon="15.860198713480143"><ele>668.6666666666667</ele><time>2026-04-26T11:39:40.999Z</time></trkpt><trkpt lat="40.02962995111382" lon="15.860277201192538"><ele>670.0</ele><time>2026-04-26T11:39:41.999Z</time></trkpt><trkpt lat="40.02950639843123" lon="15.860292981514569"><ele>670.0</ele><time>2026-04-26T11:39:42.999Z</time></trkpt><trkpt lat="40.029385496653795" lon="15.860226132044852"><ele>670.0</ele><time>2026-04-26T11:39:43.999Z</time></trkpt><trkpt lat="40.029283678834005" lon="15.860084266612507"><ele>670.0</ele><time>2026-04-26T11:39:45Z</time></trkpt><trkpt lat="40.02913945224875" lon="15.859925592491194"><ele>668.5</ele><time>2026-04-26T11:39:46Z</time></trkpt><trkpt lat="40.02901719891203" lon="15.859772911954547"><ele>667.0</ele><time>2026-04-26T11:39:47Z</time></trkpt><trkpt lat="40.02893444849067" lon="15.85963649464147"><ele>665.5</ele><time>2026-04-26T11:39:48Z</time></trkpt><trkpt lat="40.028863332612815" lon="15.859499850507255"><ele>664.0</ele><time>2026-04-26T11:39:49Z</time></trkpt><trkpt lat="40.02885536810112" lon="15.859304305132037"><ele>663.6666666666667</ele><time>2026-04-26T11:39:50Z</time></trkpt><trkpt lat="40.02889006557406" lon="15.859087567362092"><ele>663.3333333333334</ele><time>2026-04-26T11:39:51Z</time></trkpt><trkpt lat="40.028924340138175" lon="15.858866780236529"><ele>663.0</ele><time>2026-04-26T11:39:52Z</time></trkpt><trkpt lat="40.02889465929896" lon="15.858678736758145"><ele>663.0</ele><time>2026-04-26T11:39:53Z</time></trkpt><trkpt lat="40.028821004501566" lon="15.858494235156376"><ele>663.0</ele><time>2026-04-26T11:39:54Z</time></trkpt><trkpt lat="40.02869293851369" lon="15.858311912421026"><ele>663.0</ele><time>2026-04-26T11:39:55Z</time></trkpt><trkpt lat="40.02858063084162" lon="15.858100807755259"><ele>661.6666666666666</ele><time>2026-04-26T11:39:56Z</time></trkpt><trkpt lat="40.02846796789959" lon="15.857926351142988"><ele>660.3333333333333</ele><time>2026-04-26T11:39:57Z</time></trkpt><trkpt lat="40.02838771206363" lon="15.857749499025815"><ele>659.0</ele><time>2026-04-26T11:39:58Z</time></trkpt><trkpt lat="40.028320514357546" lon="15.85756795580012"><ele>662.3333333333333</ele><time>2026-04-26T11:39:59Z</time></trkpt><trkpt lat="40.028295538748814" lon="15.857365208896706"><ele>665.6666666666666</ele><time>2026-04-26T11:40:00Z</time></trkpt><trkpt lat="40.0282601936675" lon="15.857147816348798"><ele>669.0</ele><time>2026-04-26T11:40:01Z</time></trkpt><trkpt lat="40.028214105446324" lon="15.856925029176494"><ele>666.3333333333334</ele><time>2026-04-26T11:40:02Z</time></trkpt><trkpt lat="40.028166766625056" lon="15.856711943238722"><ele>663.6666666666667</ele><time>2026-04-26T11:40:03Z</time></trkpt><trkpt lat="40.02808930247578" lon="15.856530960419782"><ele>661.0</ele><time>2026-04-26T11:40:04Z</time></trkpt><trkpt lat="40.027996246364445" lon="15.856368245044765"><ele>661.0</ele><time>2026-04-26T11:40:05Z</time></trkpt><trkpt lat="40.02791533852831" lon="15.856204525337054"><ele>661.0</ele><time>2026-04-26T11:40:06Z</time></trkpt><trkpt lat="40.027855692816196" lon="15.856041371204949"><ele>661.0</ele><time>2026-04-26T11:40:07Z</time></trkpt><trkpt lat="40.02782081045841" lon="15.855862139895697"><ele>661.0</ele><time>2026-04-26T11:40:08Z</time></trkpt><trkpt lat="40.02783940819676" lon="15.855677386326532"><ele>657.25</ele><time>2026-04-26T11:40:09Z</time></trkpt><trkpt lat="40.0278593915461" lon="15.855496125573255"><ele>653.5</ele><time>2026-04-26T11:40:10Z</time></trkpt><trkpt lat="40.02785449499778" lon="15.855336878800841"><ele>649.75</ele><time>2026-04-26T11:40:11Z</time></trkpt><trkpt lat="40.027792473375165" lon="15.855218634711743"><ele>646.0</ele><time>2026-04-26T11:40:12Z</time></trkpt><trkpt lat="40.02768307744045" lon="15.855114367863907"><ele>644.3333333333334</ele><time>2026-04-26T11:40:13Z</time></trkpt><trkpt lat="40.027533997928046" lon="15.855021713436754"><ele>642.6666666666666</ele><time>2026-04-26T11:40:14Z</time></trkpt><trkpt lat="40.02740227699307" lon="15.85490867703533"><ele>641.0</ele><time>2026-04-26T11:40:15Z</time></trkpt><trkpt lat="40.02730649820835" lon="15.854748978669292"><ele>641.0</ele><time>2026-04-26T11:40:16Z</time></trkpt><trkpt lat="40.02721885060077" lon="15.854558584661726"><ele>641.0</ele><time>2026-04-26T11:40:17Z</time></trkpt><trkpt lat="40.027122279609785" lon="15.854371798788163"><ele>641.0</ele><time>2026-04-26T11:40:18Z</time></trkpt><trkpt lat="40.02704951569393" lon="15.854185288605448"><ele>638.0</ele><time>2026-04-26T11:40:19Z</time></trkpt><trkpt lat="40.026989144428086" lon="15.853990040116935"><ele>635.0</ele><time>2026-04-26T11:40:20Z</time></trkpt><trkpt lat="40.02698673790013" lon="15.85375720377137"><ele>632.0</ele><time>2026-04-26T11:40:21Z</time></trkpt><trkpt lat="40.02699143724877" lon="15.853511673009566"><ele>631.3333333333333</ele><time>2026-04-26T11:40:22Z</time></trkpt><trkpt lat="40.02699516662263" lon="15.853283544657707"><ele>630.6666666666666</ele><time>2026-04-26T11:40:23Z</time></trkpt><trkpt lat="40.02696905219364" lon="15.853056804613482"><ele>630.0</ele><time>2026-04-26T11:40:24Z</time></trkpt><trkpt lat="40.02692179373322" lon="15.852819366450492"><ele>626.6666666666666</ele><time>2026-04-26T11:40:25Z</time></trkpt><trkpt lat="40.02685692843627" lon="15.852603790855529"><ele>623.3333333333333</ele><time>2026-04-26T11:40:26Z</time></trkpt><trkpt lat="40.0268183126813" lon="15.852411217163832"><ele>620.0</ele><time>2026-04-26T11:40:27Z</time></trkpt><trkpt lat="40.0268645021396" lon="15.852238122571245"><ele>620.0</ele><time>2026-04-26T11:40:28Z</time></trkpt><trkpt lat="40.02693824992722" lon="15.852092121543459"><ele>620.0</ele><time>2026-04-26T11:40:29Z</time></trkpt><trkpt lat="40.02699852991919" lon="15.851922645484468"><ele>620.0</ele><time>2026-04-26T11:40:30Z</time></trkpt><trkpt lat="40.02702030097171" lon="15.851747235823867"><ele>620.0</ele><time>2026-04-26T11:40:31Z</time></trkpt><trkpt lat="40.02700975541775" lon="15.851543857504488"><ele>617.6666666666666</ele><time>2026-04-26T11:40:32Z</time></trkpt><trkpt lat="40.02695744477433" lon="15.85133394660213"><ele>615.3333333333334</ele><time>2026-04-26T11:40:33Z</time></trkpt><trkpt lat="40.02689101954038" lon="15.85111453737256"><ele>613.0</ele><time>2026-04-26T11:40:34Z</time></trkpt><trkpt lat="40.026832468609406" lon="15.85088954534692"><ele>609.0</ele><time>2026-04-26T11:40:35Z</time></trkpt><trkpt lat="40.02678186426645" lon="15.850676831991116"><ele>605.0</ele><time>2026-04-26T11:40:36Z</time></trkpt><trkpt lat="40.02673896938886" lon="15.850479894961738"><ele>601.0</ele><time>2026-04-26T11:40:37Z</time></trkpt><trkpt lat="40.02671284563742" lon="15.850293346644499"><ele>601.0</ele><time>2026-04-26T11:40:38Z</time></trkpt><trkpt lat="40.02670300462656" lon="15.850107541304654"><ele>601.0</ele><time>2026-04-26T11:40:39Z</time></trkpt><trkpt lat="40.02667529541728" lon="15.849935084751847"><ele>601.0</ele><time>2026-04-26T11:40:40Z</time></trkpt><trkpt lat="40.026613782820256" lon="15.849799089994297"><ele>601.0</ele><time>2026-04-26T11:40:41Z</time></trkpt><trkpt lat="40.02652574939871" lon="15.849699645892604"><ele>601.0</ele><time>2026-04-26T11:40:42Z</time></trkpt><trkpt lat="40.026409755742264" lon="15.849624844944973"><ele>601.0</ele><time>2026-04-26T11:40:43Z</time></trkpt><trkpt lat="40.02629537212093" lon="15.849522773154208"><ele>601.0</ele><time>2026-04-26T11:40:44Z</time></trkpt><trkpt lat="40.026229855517684" lon="15.849369799651011"><ele>601.0</ele><time>2026-04-26T11:40:45Z</time></trkpt><trkpt lat="40.02616145934733" lon="15.849209314577534"><ele>596.75</ele><time>2026-04-26T11:40:46Z</time></trkpt><trkpt lat="40.02611296077899" lon="15.8490484530761"><ele>592.5</ele><time>2026-04-26T11:40:47Z</time></trkpt><trkpt lat="40.02605135205776" lon="15.84890190475039"><ele>588.25</ele><time>2026-04-26T11:40:48Z</time></trkpt><trkpt lat="40.02598750487575" lon="15.848766327150077"><ele>584.0</ele><time>2026-04-26T11:40:49Z</time></trkpt><trkpt lat="40.025909875864066" lon="15.848675770683673"><ele>584.0</ele><time>2026-04-26T11:40:50Z</time></trkpt><trkpt lat="40.02581487358132" lon="15.848637289608023"><ele>584.0</ele><time>2026-04-26T11:40:51Z</time></trkpt><trkpt lat="40.02569076027072" lon="15.848651304373835"><ele>584.0</ele><time>2026-04-26T11:40:52Z</time></trkpt><trkpt lat="40.025545644107346" lon="15.848737314025552"><ele>584.0</ele><time>2026-04-26T11:40:53Z</time></trkpt><trkpt lat="40.02540880980792" lon="15.848839576690565"><ele>579.0</ele><time>2026-04-26T11:40:53.999Z</time></trkpt><trkpt lat="40.025269417426564" lon="15.848947573285745"><ele>574.0</ele><time>2026-04-26T11:40:54.999Z</time></trkpt><trkpt lat="40.02513127430384" lon="15.849061566742112"><ele>569.0</ele><time>2026-04-26T11:40:55.999Z</time></trkpt><trkpt lat="40.025002290227306" lon="15.849193822014533"><ele>571.3333333333333</ele><time>2026-04-26T11:40:56.999Z</time></trkpt><trkpt lat="40.02487324279483" lon="15.84930726608151"><ele>573.6666666666666</ele><time>2026-04-26T11:40:57.999Z</time></trkpt><trkpt lat="40.02471967051987" lon="15.849382238867165"><ele>576.0</ele><time>2026-04-26T11:40:58.999Z</time></trkpt><trkpt lat="40.02455105635017" lon="15.849445253494435"><ele>576.0</ele><time>2026-04-26T11:40:59.999Z</time></trkpt><trkpt lat="40.024380826942306" lon="15.849540167146728"><ele>576.0</ele><time>2026-04-26T11:41:00.999Z</time></trkpt><trkpt lat="40.02420800646269" lon="15.849672419618335"><ele>576.0</ele><time>2026-04-26T11:41:01.999Z</time></trkpt><trkpt lat="40.024036808870015" lon="15.849829291096523"><ele>573.0</ele><time>2026-04-26T11:41:02.999Z</time></trkpt><trkpt lat="40.02387915209593" lon="15.849991586946908"><ele>570.0</ele><time>2026-04-26T11:41:03.999Z</time></trkpt><trkpt lat="40.02373666375966" lon="15.850151297686578"><ele>567.0</ele><time>2026-04-26T11:41:04.999Z</time></trkpt><trkpt lat="40.02361087823531" lon="15.850315680841366"><ele>567.0</ele><time>2026-04-26T11:41:05.999Z</time></trkpt><trkpt lat="40.02349765655933" lon="15.850477653649246"><ele>567.0</ele><time>2026-04-26T11:41:06.999Z</time></trkpt><trkpt lat="40.02340337823104" lon="15.850648678693636"><ele>567.0</ele><time>2026-04-26T11:41:07.999Z</time></trkpt><trkpt lat="40.02333610063763" lon="15.850837928949627"><ele>566.75</ele><time>2026-04-26T11:41:08.999Z</time></trkpt><trkpt lat="40.023277170261956" lon="15.851033938194643"><ele>566.5</ele><time>2026-04-26T11:41:09.999Z</time></trkpt><trkpt lat="40.023217107204516" lon="15.85122007946287"><ele>566.25</ele><time>2026-04-26T11:41:10.999Z</time></trkpt><trkpt lat="40.02316506498394" lon="15.851378152446658"><ele>566.0</ele><time>2026-04-26T11:41:11.999Z</time></trkpt><trkpt lat="40.02312342879395" lon="15.85150540688641"><ele>566.0</ele><time>2026-04-26T11:41:12.999Z</time></trkpt><trkpt lat="40.02307892572563" lon="15.85159728412538"><ele>566.0</ele><time>2026-04-26T11:41:13.999Z</time></trkpt><trkpt lat="40.023024917036814" lon="15.85164312096004"><ele>566.0</ele><time>2026-04-26T11:41:14.999Z</time></trkpt><trkpt lat="40.02292206419456" lon="15.851608292423773"><ele>566.0</ele><time>2026-04-26T11:41:16.999Z</time></trkpt><trkpt lat="40.02287572446071" lon="15.851539560427705"><ele>566.0</ele><time>2026-04-26T11:41:17.999Z</time></trkpt><trkpt lat="40.02284075673944" lon="15.851467092525994"><ele>566.0</ele><time>2026-04-26T11:41:18.999Z</time></trkpt><trkpt lat="40.02273336244632" lon="15.851487297878894"><ele>566.0</ele><time>2026-04-26T11:41:19.999Z</time></trkpt><trkpt lat="40.02263031792239" lon="15.851534855945072"><ele>566.0</ele><time>2026-04-26T11:41:20.999Z</time></trkpt><trkpt lat="40.02253641030178" lon="15.851576151454637"><ele>566.0</ele><time>2026-04-26T11:41:21.999Z</time></trkpt><trkpt lat="40.022440242496515" lon="15.851606740657383"><ele>566.0</ele><time>2026-04-26T11:41:22.999Z</time></trkpt><trkpt lat="40.022339343282496" lon="15.851668839817034"><ele>566.0</ele><time>2026-04-26T11:41:23.999Z</time></trkpt><trkpt lat="40.02224678055625" lon="15.851792888115074"><ele>572.3333333333333</ele><time>2026-04-26T11:41:24.999Z</time></trkpt><trkpt lat="40.02214129902901" lon="15.851928931685551"><ele>578.6666666666666</ele><time>2026-04-26T11:41:25.999Z</time></trkpt><trkpt lat="40.0220267109206" lon="15.852086446627128"><ele>585.0</ele><time>2026-04-26T11:41:26.999Z</time></trkpt><trkpt lat="40.02191659166909" lon="15.852237818560575"><ele>585.0</ele><time>2026-04-26T11:41:27.999Z</time></trkpt><trkpt lat="40.02180511050368" lon="15.8523888951503"><ele>585.0</ele><time>2026-04-26T11:41:28.999Z</time></trkpt><trkpt lat="40.02168790094789" lon="15.852541009317164"><ele>585.0</ele><time>2026-04-26T11:41:29.999Z</time></trkpt><trkpt lat="40.02155999929559" lon="15.852675215325489"><ele>586.6666666666666</ele><time>2026-04-26T11:41:30.999Z</time></trkpt><trkpt lat="40.02141973159029" lon="15.852794045778099"><ele>588.3333333333333</ele><time>2026-04-26T11:41:31.999Z</time></trkpt><trkpt lat="40.02127374925093" lon="15.852903650652"><ele>590.0</ele><time>2026-04-26T11:41:32.999Z</time></trkpt><trkpt lat="40.02113962999106" lon="15.853005441345859"><ele>590.0</ele><time>2026-04-26T11:41:33.999Z</time></trkpt><trkpt lat="40.021026328456806" lon="15.85308539262906"><ele>590.0</ele><time>2026-04-26T11:41:34.999Z</time></trkpt><trkpt lat="40.0209208159356" lon="15.853151143432065"><ele>590.0</ele><time>2026-04-26T11:41:35.999Z</time></trkpt><trkpt lat="40.02081261450268" lon="15.853202710995975"><ele>590.0</ele><time>2026-04-26T11:41:36.999Z</time></trkpt><trkpt lat="40.020698024364194" lon="15.853226766738922"><ele>593.5</ele><time>2026-04-26T11:41:37.999Z</time></trkpt><trkpt lat="40.020579494540776" lon="15.853223918624536"><ele>597.0</ele><time>2026-04-26T11:41:38.999Z</time></trkpt><trkpt lat="40.020441966509324" lon="15.853220413730718"><ele>600.5</ele><time>2026-04-26T11:41:39.999Z</time></trkpt><trkpt lat="40.02029715452852" lon="15.85323619677691"><ele>604.0</ele><time>2026-04-26T11:41:40.999Z</time></trkpt><trkpt lat="40.0201478689547" lon="15.853256209160234"><ele>604.0</ele><time>2026-04-26T11:41:41.999Z</time></trkpt><trkpt lat="40.019993194337374" lon="15.853323440345292"><ele>604.0</ele><time>2026-04-26T11:41:42.999Z</time></trkpt><trkpt lat="40.01983384114191" lon="15.8534295977465"><ele>604.0</ele><time>2026-04-26T11:41:43.999Z</time></trkpt><trkpt lat="40.0196955627141" lon="15.853525564466407"><ele>607.0</ele><time>2026-04-26T11:41:44.999Z</time></trkpt><trkpt lat="40.01957436857156" lon="15.853609155466629"><ele>610.0</ele><time>2026-04-26T11:41:45.999Z</time></trkpt><trkpt lat="40.01949225992881" lon="15.853774865366653"><ele>613.0</ele><time>2026-04-26T11:41:46.999Z</time></trkpt><trkpt lat="40.01940980807976" lon="15.853956526790224"><ele>613.0</ele><time>2026-04-26T11:41:47.999Z</time></trkpt><trkpt lat="40.01931094683861" lon="15.854085491440742"><ele>613.0</ele><time>2026-04-26T11:41:48.999Z</time></trkpt><trkpt lat="40.01922170290344" lon="15.854228810465605"><ele>613.0</ele><time>2026-04-26T11:41:50Z</time></trkpt><trkpt lat="40.01908432305051" lon="15.854330519314068"><ele>613.0</ele><time>2026-04-26T11:41:51Z</time></trkpt><trkpt lat="40.01894683464307" lon="15.854453906073584"><ele>620.3333333333334</ele><time>2026-04-26T11:41:52Z</time></trkpt><trkpt lat="40.018829070122464" lon="15.854580409338812"><ele>627.6666666666666</ele><time>2026-04-26T11:41:53Z</time></trkpt><trkpt lat="40.01876990820876" lon="15.85475252983795"><ele>635.0</ele><time>2026-04-26T11:41:54Z</time></trkpt><trkpt lat="40.01871777389409" lon="15.85494744415882"><ele>632.0</ele><time>2026-04-26T11:41:55Z</time></trkpt><trkpt lat="40.01864791010727" lon="15.855156276568138"><ele>629.0</ele><time>2026-04-26T11:41:56Z</time></trkpt><trkpt lat="40.01856339551918" lon="15.855354426863505"><ele>626.0</ele><time>2026-04-26T11:41:57Z</time></trkpt><trkpt lat="40.0184651798481" lon="15.855567039565258"><ele>626.0</ele><time>2026-04-26T11:41:58Z</time></trkpt><trkpt lat="40.018377009138085" lon="15.855759628794903"><ele>626.0</ele><time>2026-04-26T11:41:59Z</time></trkpt><trkpt lat="40.01830353121989" lon="15.85592012429823"><ele>626.0</ele><time>2026-04-26T11:42:00Z</time></trkpt><trkpt lat="40.018233746209155" lon="15.856062215993015"><ele>626.0</ele><time>2026-04-26T11:42:01Z</time></trkpt><trkpt lat="40.01815827685036" lon="15.856198184117574"><ele>630.3333333333333</ele><time>2026-04-26T11:42:02Z</time></trkpt><trkpt lat="40.01805258273209" lon="15.856316363680683"><ele>634.6666666666666</ele><time>2026-04-26T11:42:03Z</time></trkpt><trkpt lat="40.01791885783598" lon="15.856440037861507"><ele>639.0</ele><time>2026-04-26T11:42:04Z</time></trkpt><trkpt lat="40.01777782659861" lon="15.85657225133362"><ele>639.0</ele><time>2026-04-26T11:42:05Z</time></trkpt><trkpt lat="40.017631691376025" lon="15.856677384639916"><ele>639.0</ele><time>2026-04-26T11:42:06Z</time></trkpt><trkpt lat="40.01746629451617" lon="15.856766490044203"><ele>639.0</ele><time>2026-04-26T11:42:07Z</time></trkpt><trkpt lat="40.01728585914764" lon="15.8568330163489"><ele>639.0</ele><time>2026-04-26T11:42:08Z</time></trkpt><trkpt lat="40.01707094662908" lon="15.856927459001307"><ele>639.0</ele><time>2026-04-26T11:42:09Z</time></trkpt><trkpt lat="40.0168833145815" lon="15.857060144332086"><ele>639.0</ele><time>2026-04-26T11:42:10Z</time></trkpt><trkpt lat="40.01670956734144" lon="15.857185206737967"><ele>643.6666666666666</ele><time>2026-04-26T11:42:11Z</time></trkpt><trkpt lat="40.016540883797234" lon="15.857310288256063"><ele>648.3333333333333</ele><time>2026-04-26T11:42:12Z</time></trkpt><trkpt lat="40.016387555966766" lon="15.857426724438072"><ele>653.0</ele><time>2026-04-26T11:42:13Z</time></trkpt><trkpt lat="40.01623524255219" lon="15.857550334867149"><ele>648.3333333333333</ele><time>2026-04-26T11:42:14Z</time></trkpt><trkpt lat="40.01607560511569" lon="15.8576834316935"><ele>643.6666666666666</ele><time>2026-04-26T11:42:15Z</time></trkpt><trkpt lat="40.015917759391954" lon="15.857815034694868"><ele>639.0</ele><time>2026-04-26T11:42:16Z</time></trkpt><trkpt lat="40.015769627299925" lon="15.857938539007048"><ele>639.0</ele><time>2026-04-26T11:42:17Z</time></trkpt><trkpt lat="40.01563795089093" lon="15.858069881720056"><ele>639.0</ele><time>2026-04-26T11:42:18Z</time></trkpt><trkpt lat="40.01549099776881" lon="15.858170545224102"><ele>639.0</ele><time>2026-04-26T11:42:19Z</time></trkpt><trkpt lat="40.01533777168457" lon="15.858259532092854"><ele>639.0</ele><time>2026-04-26T11:42:20Z</time></trkpt><trkpt lat="40.0151652321788" lon="15.858345300171111"><ele>639.0</ele><time>2026-04-26T11:42:21Z</time></trkpt><trkpt lat="40.0149760067225" lon="15.858442281621079"><ele>639.0</ele><time>2026-04-26T11:42:22Z</time></trkpt><trkpt lat="40.01476919724943" lon="15.858528672306583"><ele>636.5</ele><time>2026-04-26T11:42:23Z</time></trkpt><trkpt lat="40.01457218625433" lon="15.85867990793909"><ele>634.0</ele><time>2026-04-26T11:42:24Z</time></trkpt><trkpt lat="40.01436945312478" lon="15.85883192055178"><ele>637.0</ele><time>2026-04-26T11:42:25Z</time></trkpt><trkpt lat="40.014145337840496" lon="15.85894457041009"><ele>640.0</ele><time>2026-04-26T11:42:26Z</time></trkpt><trkpt lat="40.0139179731416" lon="15.859057078826732"><ele>640.0</ele><time>2026-04-26T11:42:27Z</time></trkpt><trkpt lat="40.01371903574788" lon="15.859175874033191"><ele>640.0</ele><time>2026-04-26T11:42:28Z</time></trkpt><trkpt lat="40.01352988348414" lon="15.859266460058581"><ele>640.0</ele><time>2026-04-26T11:42:29Z</time></trkpt><trkpt lat="40.01333944363608" lon="15.859360397066986"><ele>640.3333333333334</ele><time>2026-04-26T11:42:30Z</time></trkpt><trkpt lat="40.01314473380013" lon="15.859456991030294"><ele>640.6666666666666</ele><time>2026-04-26T11:42:31Z</time></trkpt><trkpt lat="40.01296004224851" lon="15.859543896208864"><ele>641.0</ele><time>2026-04-26T11:42:32Z</time></trkpt><trkpt lat="40.012781427371536" lon="15.859618470395676"><ele>641.0</ele><time>2026-04-26T11:42:33Z</time></trkpt><trkpt lat="40.01259704807079" lon="15.859675268109344"><ele>641.0</ele><time>2026-04-26T11:42:34Z</time></trkpt><trkpt lat="40.012401245841225" lon="15.85971275928284"><ele>641.0</ele><time>2026-04-26T11:42:35Z</time></trkpt><trkpt lat="40.01219053907308" lon="15.859742123474543"><ele>642.0</ele><time>2026-04-26T11:42:36Z</time></trkpt><trkpt lat="40.01197479246701" lon="15.859778281020937"><ele>643.0</ele><time>2026-04-26T11:42:37Z</time></trkpt><trkpt lat="40.01175620787235" lon="15.859816267533517"><ele>644.0</ele><time>2026-04-26T11:42:38Z</time></trkpt><trkpt lat="40.01154138565437" lon="15.85985055839153"><ele>644.6666666666666</ele><time>2026-04-26T11:42:39Z</time></trkpt><trkpt lat="40.01133488846407" lon="15.859882217944214"><ele>645.3333333333334</ele><time>2026-04-26T11:42:40Z</time></trkpt><trkpt lat="40.01113593807686" lon="15.859919019498543"><ele>646.0</ele><time>2026-04-26T11:42:41Z</time></trkpt><trkpt lat="40.01093674300609" lon="15.859956838389758"><ele>648.0</ele><time>2026-04-26T11:42:42Z</time></trkpt><trkpt lat="40.010731344364864" lon="15.860001159043424"><ele>650.0</ele><time>2026-04-26T11:42:43Z</time></trkpt><trkpt lat="40.01053240670844" lon="15.860037089005205"><ele>652.0</ele><time>2026-04-26T11:42:44Z</time></trkpt><trkpt lat="40.01033950723431" lon="15.860059216964894"><ele>652.0</ele><time>2026-04-26T11:42:45Z</time></trkpt><trkpt lat="40.0101405212445" lon="15.86006535805744"><ele>652.0</ele><time>2026-04-26T11:42:46Z</time></trkpt><trkpt lat="40.00993194649496" lon="15.86004107698871"><ele>652.0</ele><time>2026-04-26T11:42:47Z</time></trkpt><trkpt lat="40.00972284616874" lon="15.86000594518245"><ele>655.3333333333334</ele><time>2026-04-26T11:42:48Z</time></trkpt><trkpt lat="40.009533721161596" lon="15.859974372458453"><ele>658.6666666666666</ele><time>2026-04-26T11:42:49Z</time></trkpt><trkpt lat="40.00936810036223" lon="15.859965188019975"><ele>662.0</ele><time>2026-04-26T11:42:50Z</time></trkpt><trkpt lat="40.00923339080473" lon="15.859984827042569"><ele>662.75</ele><time>2026-04-26T11:42:51Z</time></trkpt><trkpt lat="40.0091216829013" lon="15.860042336642302"><ele>663.5</ele><time>2026-04-26T11:42:52Z</time></trkpt><trkpt lat="40.00904219223467" lon="15.860152293242825"><ele>664.25</ele><time>2026-04-26T11:42:53Z</time></trkpt><trkpt lat="40.00897207557905" lon="15.86032155582558"><ele>665.0</ele><time>2026-04-26T11:42:54Z</time></trkpt><trkpt lat="40.00888862565462" lon="15.860484404966567"><ele>665.0</ele><time>2026-04-26T11:42:55Z</time></trkpt><trkpt lat="40.00883718525004" lon="15.860624968379147"><ele>665.0</ele><time>2026-04-26T11:42:56Z</time></trkpt><trkpt lat="40.00875196108176" lon="15.860707239680567"><ele>665.0</ele><time>2026-04-26T11:42:56.999Z</time></trkpt><trkpt lat="40.00863412352881" lon="15.860758593765391"><ele>665.0</ele><time>2026-04-26T11:42:57.999Z</time></trkpt><trkpt lat="40.008482997668914" lon="15.860768038621917"><ele>668.0</ele><time>2026-04-26T11:42:58.999Z</time></trkpt><trkpt lat="40.00832342696249" lon="15.86081540959124"><ele>671.0</ele><time>2026-04-26T11:42:59.999Z</time></trkpt><trkpt lat="40.008160371249495" lon="15.860861244856915"><ele>674.0</ele><time>2026-04-26T11:43:00.999Z</time></trkpt><trkpt lat="40.007992244906006" lon="15.860917610242769"><ele>668.6666666666666</ele><time>2026-04-26T11:43:01.999Z</time></trkpt><trkpt lat="40.00781858630854" lon="15.860951692400485"><ele>663.3333333333334</ele><time>2026-04-26T11:43:02.999Z</time></trkpt><trkpt lat="40.00764418784464" lon="15.860970430412511"><ele>658.0</ele><time>2026-04-26T11:43:03.999Z</time></trkpt><trkpt lat="40.00747160621328" lon="15.860990711923629"><ele>658.0</ele><time>2026-04-26T11:43:04.999Z</time></trkpt><trkpt lat="40.007303898726335" lon="15.86101620096372"><ele>658.0</ele><time>2026-04-26T11:43:05.999Z</time></trkpt><trkpt lat="40.007127871263386" lon="15.861043847810986"><ele>658.0</ele><time>2026-04-26T11:43:06.999Z</time></trkpt><trkpt lat="40.006951814818116" lon="15.86106832112833"><ele>658.0</ele><time>2026-04-26T11:43:07.999Z</time></trkpt><trkpt lat="40.00678999461797" lon="15.861093583914274"><ele>658.0</ele><time>2026-04-26T11:43:08.999Z</time></trkpt><trkpt lat="40.00664227101991" lon="15.861114713032675"><ele>658.0</ele><time>2026-04-26T11:43:09.999Z</time></trkpt><trkpt lat="40.006501507933045" lon="15.861138905988264"><ele>659.75</ele><time>2026-04-26T11:43:10.999Z</time></trkpt><trkpt lat="40.00635670477652" lon="15.861141777115295"><ele>661.5</ele><time>2026-04-26T11:43:11.999Z</time></trkpt><trkpt lat="40.006207494102476" lon="15.861115898754097"><ele>663.25</ele><time>2026-04-26T11:43:12.999Z</time></trkpt><trkpt lat="40.006069289337994" lon="15.861056485923973"><ele>665.0</ele><time>2026-04-26T11:43:13.999Z</time></trkpt><trkpt lat="40.00593487777691" lon="15.861004756466452"><ele>666.75</ele><time>2026-04-26T11:43:14.999Z</time></trkpt><trkpt lat="40.005798010959744" lon="15.861011250381466"><ele>668.5</ele><time>2026-04-26T11:43:15.999Z</time></trkpt><trkpt lat="40.00566198816221" lon="15.861059448113394"><ele>670.25</ele><time>2026-04-26T11:43:16.999Z</time></trkpt><trkpt lat="40.005518691171076" lon="15.861157364071463"><ele>672.0</ele><time>2026-04-26T11:43:17.999Z</time></trkpt><trkpt lat="40.00537655799518" lon="15.861253935620034"><ele>672.0</ele><time>2026-04-26T11:43:18.999Z</time></trkpt><trkpt lat="40.005257284189845" lon="15.861310883303886"><ele>672.0</ele><time>2026-04-26T11:43:19.999Z</time></trkpt><trkpt lat="40.00513096006897" lon="15.86137482860009"><ele>672.0</ele><time>2026-04-26T11:43:20.999Z</time></trkpt><trkpt lat="40.00500755547861" lon="15.861418639595351"><ele>672.0</ele><time>2026-04-26T11:43:21.999Z</time></trkpt><trkpt lat="40.004880626608156" lon="15.86145157746749"><ele>673.75</ele><time>2026-04-26T11:43:22.999Z</time></trkpt><trkpt lat="40.00475046731205" lon="15.861463888636706"><ele>675.5</ele><time>2026-04-26T11:43:23.999Z</time></trkpt><trkpt lat="40.004618604743854" lon="15.861452562468065"><ele>677.25</ele><time>2026-04-26T11:43:24.999Z</time></trkpt><trkpt lat="40.00448750977607" lon="15.861428624679393"><ele>679.0</ele><time>2026-04-26T11:43:25.999Z</time></trkpt><trkpt lat="40.0043596708722" lon="15.86140410921017"><ele>679.0</ele><time>2026-04-26T11:43:26.999Z</time></trkpt><trkpt lat="40.00422209094877" lon="15.861393041376044"><ele>679.0</ele><time>2026-04-26T11:43:27.999Z</time></trkpt><trkpt lat="40.00408217271287" lon="15.861390838885825"><ele>679.0</ele><time>2026-04-26T11:43:28.999Z</time></trkpt><trkpt lat="40.00394142983243" lon="15.861378021264578"><ele>679.0</ele><time>2026-04-26T11:43:29.999Z</time></trkpt><trkpt lat="40.003797813772316" lon="15.861364067511142"><ele>677.6666666666667</ele><time>2026-04-26T11:43:30.999Z</time></trkpt><trkpt lat="40.00364802559326" lon="15.861325065959125"><ele>676.3333333333334</ele><time>2026-04-26T11:43:31.999Z</time></trkpt><trkpt lat="40.00350009773337" lon="15.861289315804536"><ele>675.0</ele><time>2026-04-26T11:43:32.999Z</time></trkpt><trkpt lat="40.00334518737296" lon="15.86125332938474"><ele>675.0</ele><time>2026-04-26T11:43:33.999Z</time></trkpt><trkpt lat="40.00319954787438" lon="15.861205024979952"><ele>675.0</ele><time>2026-04-26T11:43:34.999Z</time></trkpt><trkpt lat="40.003055260181696" lon="15.861177416385722"><ele>675.0</ele><time>2026-04-26T11:43:35.999Z</time></trkpt><trkpt lat="40.002921574232325" lon="15.861182929011509"><ele>675.0</ele><time>2026-04-26T11:43:36.999Z</time></trkpt><trkpt lat="40.002792845473564" lon="15.861168874479533"><ele>675.0</ele><time>2026-04-26T11:43:37.999Z</time></trkpt><trkpt lat="40.002675274278154" lon="15.86115384795677"><ele>675.0</ele><time>2026-04-26T11:43:38.999Z</time></trkpt><trkpt lat="40.00255573730063" lon="15.861137507986172"><ele>675.0</ele><time>2026-04-26T11:43:39.999Z</time></trkpt><trkpt lat="40.00243743941307" lon="15.861132115041748"><ele>675.0</ele><time>2026-04-26T11:43:40.999Z</time></trkpt><trkpt lat="40.00231961509919" lon="15.86112121617494"><ele>676.0</ele><time>2026-04-26T11:43:41.999Z</time></trkpt><trkpt lat="40.002201401319304" lon="15.861104971136601"><ele>677.0</ele><time>2026-04-26T11:43:42.999Z</time></trkpt><trkpt lat="40.00208696296851" lon="15.861093193141338"><ele>678.0</ele><time>2026-04-26T11:43:43.999Z</time></trkpt><trkpt lat="40.001976734903764" lon="15.861064294234824"><ele>679.0</ele><time>2026-04-26T11:43:44.999Z</time></trkpt><trkpt lat="40.001888983369064" lon="15.86100866612976"><ele>680.0</ele><time>2026-04-26T11:43:45.999Z</time></trkpt><trkpt lat="40.00178241727647" lon="15.860962300663173"><ele>682.5</ele><time>2026-04-26T11:43:46.999Z</time></trkpt><trkpt lat="40.00167051660104" lon="15.860911886038387"><ele>685.0</ele><time>2026-04-26T11:43:47.999Z</time></trkpt><trkpt lat="40.00155832834889" lon="15.860846238407227"><ele>687.5</ele><time>2026-04-26T11:43:48.999Z</time></trkpt><trkpt lat="40.00145831180885" lon="15.860779923870918"><ele>690.0</ele><time>2026-04-26T11:43:49.999Z</time></trkpt><trkpt lat="40.00136375677987" lon="15.860721664230221"><ele>690.0</ele><time>2026-04-26T11:43:50.999Z</time></trkpt><trkpt lat="40.00126960932214" lon="15.860672016052947"><ele>690.0</ele><time>2026-04-26T11:43:51.999Z</time></trkpt><trkpt lat="40.0011704262614" lon="15.860625329447435"><ele>690.0</ele><time>2026-04-26T11:43:52.999Z</time></trkpt><trkpt lat="40.00107135084879" lon="15.860594188630563"><ele>690.0</ele><time>2026-04-26T11:43:53.999Z</time></trkpt><trkpt lat="40.00097015233357" lon="15.860573119740073"><ele>690.0</ele><time>2026-04-26T11:43:55Z</time></trkpt><trkpt lat="40.000874035122806" lon="15.860556105624307"><ele>690.6</ele><time>2026-04-26T11:43:56Z</time></trkpt><trkpt lat="40.000770222264386" lon="15.860547177776155"><ele>691.2</ele><time>2026-04-26T11:43:57Z</time></trkpt><trkpt lat="40.00066276607714" lon="15.860538802603434"><ele>691.8</ele><time>2026-04-26T11:43:58Z</time></trkpt><trkpt lat="40.00055152349316" lon="15.860525467811495"><ele>692.4</ele><time>2026-04-26T11:43:59Z</time></trkpt><trkpt lat="40.00043517520174" lon="15.86051104070349"><ele>693.0</ele><time>2026-04-26T11:44:00Z</time></trkpt><trkpt lat="40.000332765086945" lon="15.860484282092187"><ele>693.0</ele><time>2026-04-26T11:44:01Z</time></trkpt><trkpt lat="40.000246748146" lon="15.860472322004538"><ele>693.0</ele><time>2026-04-26T11:44:02Z</time></trkpt><trkpt lat="40.000179270895366" lon="15.860498134662494"><ele>693.0</ele><time>2026-04-26T11:44:03Z</time></trkpt><trkpt lat="40.000138527119084" lon="15.86056137072215"><ele>693.0</ele><time>2026-04-26T11:44:04Z</time></trkpt><trkpt lat="40.00010460344136" lon="15.860643336793872"><ele>693.0</ele><time>2026-04-26T11:44:05Z</time></trkpt><trkpt lat="40.000086044236774" lon="15.860746595087726"><ele>693.0</ele><time>2026-04-26T11:44:06Z</time></trkpt><trkpt lat="40.0001056158505" lon="15.860878088001845"><ele>693.6666666666666</ele><time>2026-04-26T11:44:07Z</time></trkpt><trkpt lat="40.000124407490325" lon="15.860991118554635"><ele>694.3333333333334</ele><time>2026-04-26T11:44:08Z</time></trkpt><trkpt lat="40.00014444828729" lon="15.861089857259225"><ele>695.0</ele><time>2026-04-26T11:44:09Z</time></trkpt><trkpt lat="40.00016266431732" lon="15.861179583200688"><ele>695.6666666666667</ele><time>2026-04-26T11:44:10Z</time></trkpt><trkpt lat="40.00021403136956" lon="15.861251970894049"><ele>696.3333333333334</ele><time>2026-04-26T11:44:11Z</time></trkpt><trkpt lat="40.00029515510757" lon="15.86129187905375"><ele>697.0</ele><time>2026-04-26T11:44:12Z</time></trkpt><trkpt lat="40.00039163764886" lon="15.861287036863963"><ele>697.0</ele><time>2026-04-26T11:44:13Z</time></trkpt><trkpt lat="40.00049120182337" lon="15.861301589078609"><ele>697.0</ele><time>2026-04-26T11:44:14Z</time></trkpt><trkpt lat="40.00058973466476" lon="15.861354187998291"><ele>697.0</ele><time>2026-04-26T11:44:15Z</time></trkpt><trkpt lat="40.00068513319716" lon="15.861425072715706"><ele>697.0</ele><time>2026-04-26T11:44:16Z</time></trkpt><trkpt lat="40.000768565983094" lon="15.861495462294002"><ele>697.0</ele><time>2026-04-26T11:44:17Z</time></trkpt><trkpt lat="40.00082490877289" lon="15.861585149639508"><ele>696.2</ele><time>2026-04-26T11:44:18Z</time></trkpt><trkpt lat="40.00084125774153" lon="15.861723107591374"><ele>695.4000000000001</ele><time>2026-04-26T11:44:19Z</time></trkpt><trkpt lat="40.000829209625216" lon="15.861864695906764"><ele>694.5999999999999</ele><time>2026-04-26T11:44:20Z</time></trkpt><trkpt lat="40.00079616875268" lon="15.86199336619529"><ele>693.8</ele><time>2026-04-26T11:44:21Z</time></trkpt><trkpt lat="40.00074977799363" lon="15.862104982994365"><ele>693.0</ele><time>2026-04-26T11:44:22Z</time></trkpt><trkpt lat="40.000681161774686" lon="15.862181952917027"><ele>695.5</ele><time>2026-04-26T11:44:23Z</time></trkpt><trkpt lat="40.00059398139893" lon="15.862223587160118"><ele>698.0</ele><time>2026-04-26T11:44:24Z</time></trkpt><trkpt lat="40.00046513097104" lon="15.862228519887978"><ele>700.5</ele><time>2026-04-26T11:44:25Z</time></trkpt><trkpt lat="40.00034793270801" lon="15.86223341757001"><ele>703.0</ele><time>2026-04-26T11:44:26Z</time></trkpt><trkpt lat="40.00023284888686" lon="15.862252685471002"><ele>703.0</ele><time>2026-04-26T11:44:27Z</time></trkpt><trkpt lat="40.00012546231307" lon="15.862291073025043"><ele>703.0</ele><time>2026-04-26T11:44:28Z</time></trkpt><trkpt lat="40.000023555257364" lon="15.862369344588332"><ele>703.0</ele><time>2026-04-26T11:44:29Z</time></trkpt><trkpt lat="39.999926454047504" lon="15.862482184139868"><ele>703.0</ele><time>2026-04-26T11:44:30Z</time></trkpt><trkpt lat="39.999835601560086" lon="15.862626267675763"><ele>702.0</ele><time>2026-04-26T11:44:31Z</time></trkpt><trkpt lat="39.99975150860302" lon="15.862776570344314"><ele>701.0</ele><time>2026-04-26T11:44:32Z</time></trkpt><trkpt lat="39.9996709516611" lon="15.862907710759364"><ele>700.0</ele><time>2026-04-26T11:44:33Z</time></trkpt><trkpt lat="39.99960310599571" lon="15.863021643887798"><ele>699.0</ele><time>2026-04-26T11:44:34Z</time></trkpt><trkpt lat="39.9995330582266" lon="15.863119884872692"><ele>699.0</ele><time>2026-04-26T11:44:35Z</time></trkpt><trkpt lat="39.999447231828185" lon="15.863203907060086"><ele>699.0</ele><time>2026-04-26T11:44:36Z</time></trkpt><trkpt lat="39.99934420114846" lon="15.863241631631606"><ele>699.0</ele><time>2026-04-26T11:44:37Z</time></trkpt><trkpt lat="39.9992304509393" lon="15.863243192602129"><ele>699.0</ele><time>2026-04-26T11:44:38Z</time></trkpt><trkpt lat="39.99910940958148" lon="15.863214562372919"><ele>702.5</ele><time>2026-04-26T11:44:39Z</time></trkpt><trkpt lat="39.998997983111536" lon="15.863183443362507"><ele>706.0</ele><time>2026-04-26T11:44:40Z</time></trkpt><trkpt lat="39.99889161684963" lon="15.863184411777604"><ele>709.5</ele><time>2026-04-26T11:44:41Z</time></trkpt><trkpt lat="39.99877988037398" lon="15.863219399479396"><ele>713.0</ele><time>2026-04-26T11:44:42Z</time></trkpt><trkpt lat="39.99867229911712" lon="15.863280340553477"><ele>713.0</ele><time>2026-04-26T11:44:43Z</time></trkpt><trkpt lat="39.99857310850899" lon="15.863363192294653"><ele>713.0</ele><time>2026-04-26T11:44:44Z</time></trkpt><trkpt lat="39.9984857991926" lon="15.863480724516938"><ele>713.0</ele><time>2026-04-26T11:44:45Z</time></trkpt><trkpt lat="39.99840442274154" lon="15.863623355905526"><ele>713.0</ele><time>2026-04-26T11:44:46Z</time></trkpt><trkpt lat="39.99832651757694" lon="15.863764477968399"><ele>715.75</ele><time>2026-04-26T11:44:47Z</time></trkpt><trkpt lat="39.99824680983053" lon="15.863909034112309"><ele>718.5</ele><time>2026-04-26T11:44:48Z</time></trkpt><trkpt lat="39.9981726279859" lon="15.864055127514845"><ele>721.25</ele><time>2026-04-26T11:44:49Z</time></trkpt><trkpt lat="39.998119755901385" lon="15.8641999320068"><ele>724.0</ele><time>2026-04-26T11:44:50Z</time></trkpt><trkpt lat="39.99808063846717" lon="15.864329949680902"><ele>726.2</ele><time>2026-04-26T11:44:51Z</time></trkpt><trkpt lat="39.99804980255413" lon="15.864452684047565"><ele>728.4000000000001</ele><time>2026-04-26T11:44:52Z</time></trkpt><trkpt lat="39.998021691886564" lon="15.864579772823012"><ele>730.6</ele><time>2026-04-26T11:44:53Z</time></trkpt><trkpt lat="39.99799255228245" lon="15.864720672199544"><ele>732.8</ele><time>2026-04-26T11:44:54Z</time></trkpt><trkpt lat="39.997958225923966" lon="15.864856667610447"><ele>735.0</ele><time>2026-04-26T11:44:55Z</time></trkpt><trkpt lat="39.997917224632104" lon="15.86498021380861"><ele>735.0</ele><time>2026-04-26T11:44:56Z</time></trkpt><trkpt lat="39.99786800473424" lon="15.865084373373866"><ele>735.0</ele><time>2026-04-26T11:44:57Z</time></trkpt><trkpt lat="39.99779316508259" lon="15.865165174808928"><ele>735.0</ele><time>2026-04-26T11:44:58Z</time></trkpt><trkpt lat="39.99768804402306" lon="15.865221300222865"><ele>735.0</ele><time>2026-04-26T11:44:59Z</time></trkpt><trkpt lat="39.99756386692465" lon="15.865256436454434"><ele>735.0</ele><time>2026-04-26T11:45:00Z</time></trkpt><trkpt lat="39.9974402552752" lon="15.86528813121973"><ele>736.8</ele><time>2026-04-26T11:45:01Z</time></trkpt><trkpt lat="39.99733008450427" lon="15.865330783513654"><ele>738.6</ele><time>2026-04-26T11:45:01.999Z</time></trkpt><trkpt lat="39.99723615566944" lon="15.865375998540568"><ele>740.4000000000001</ele><time>2026-04-26T11:45:02.999Z</time></trkpt><trkpt lat="39.99716194469138" lon="15.865461844950147"><ele>742.2</ele><time>2026-04-26T11:45:03.999Z</time></trkpt><trkpt lat="39.997100586769584" lon="15.865596125120966"><ele>744.0</ele><time>2026-04-26T11:45:04.999Z</time></trkpt><trkpt lat="39.99704386951703" lon="15.865758106718669"><ele>744.0</ele><time>2026-04-26T11:45:05.999Z</time></trkpt><trkpt lat="39.99698582582743" lon="15.86592159869717"><ele>744.0</ele><time>2026-04-26T11:45:06.999Z</time></trkpt><trkpt lat="39.996929429646826" lon="15.86605327593527"><ele>744.0</ele><time>2026-04-26T11:45:07.999Z</time></trkpt><trkpt lat="39.99686020004911" lon="15.866164809536668"><ele>744.0</ele><time>2026-04-26T11:45:08.999Z</time></trkpt><trkpt lat="39.99676526870051" lon="15.866268827286602"><ele>742.25</ele><time>2026-04-26T11:45:09.999Z</time></trkpt><trkpt lat="39.996671293829756" lon="15.86636489363383"><ele>740.5</ele><time>2026-04-26T11:45:10.999Z</time></trkpt><trkpt lat="39.99655895937769" lon="15.866434748946997"><ele>738.75</ele><time>2026-04-26T11:45:11.999Z</time></trkpt><trkpt lat="39.99646188989177" lon="15.866542027336221"><ele>737.0</ele><time>2026-04-26T11:45:12.999Z</time></trkpt><trkpt lat="39.996367302949224" lon="15.86664835601262"><ele>740.75</ele><time>2026-04-26T11:45:13.999Z</time></trkpt><trkpt lat="39.99628624354511" lon="15.866746433878124"><ele>744.5</ele><time>2026-04-26T11:45:14.999Z</time></trkpt><trkpt lat="39.99621039679712" lon="15.866847318319046"><ele>748.25</ele><time>2026-04-26T11:45:15.999Z</time></trkpt><trkpt lat="39.99613278420671" lon="15.866951498091792"><ele>752.0</ele><time>2026-04-26T11:45:16.999Z</time></trkpt><trkpt lat="39.99604966524994" lon="15.867064421007818"><ele>753.3333333333333</ele><time>2026-04-26T11:45:17.999Z</time></trkpt><trkpt lat="39.99592501777448" lon="15.867129113619958"><ele>754.6666666666666</ele><time>2026-04-26T11:45:18.999Z</time></trkpt><trkpt lat="39.99578816774453" lon="15.867192028336172"><ele>756.0</ele><time>2026-04-26T11:45:19.999Z</time></trkpt><trkpt lat="39.99562976231754" lon="15.867281007174554"><ele>756.75</ele><time>2026-04-26T11:45:20.999Z</time></trkpt><trkpt lat="39.99549360621942" lon="15.867386448845071"><ele>757.5</ele><time>2026-04-26T11:45:21.999Z</time></trkpt><trkpt lat="39.99537141524253" lon="15.867482280078288"><ele>758.25</ele><time>2026-04-26T11:45:22.999Z</time></trkpt><trkpt lat="39.99525644325947" lon="15.86756725510974"><ele>759.0</ele><time>2026-04-26T11:45:23.999Z</time></trkpt><trkpt lat="39.99513424834324" lon="15.86764254776206"><ele>760.5</ele><time>2026-04-26T11:45:24.999Z</time></trkpt><trkpt lat="39.99499103347958" lon="15.867678288430344"><ele>762.0</ele><time>2026-04-26T11:45:25.999Z</time></trkpt><trkpt lat="39.99485605722476" lon="15.867699964512525"><ele>763.5</ele><time>2026-04-26T11:45:26.999Z</time></trkpt><trkpt lat="39.994751334820414" lon="15.867710537289113"><ele>765.0</ele><time>2026-04-26T11:45:27.999Z</time></trkpt><trkpt lat="39.9946738156003" lon="15.867709406986808"><ele>765.0</ele><time>2026-04-26T11:45:28.999Z</time></trkpt><trkpt lat="39.99460721301695" lon="15.867707572587811"><ele>765.0</ele><time>2026-04-26T11:45:29.999Z</time></trkpt><trkpt lat="39.99455097886189" lon="15.867936564049627"><ele>765.0</ele><time>2026-04-26T11:45:30.999Z</time></trkpt><trkpt lat="39.994471138086105" lon="15.868007409027227"><ele>765.0</ele><time>2026-04-26T11:45:31.999Z</time></trkpt><trkpt lat="39.99439511192483" lon="15.868071500209961"><ele>765.0</ele><time>2026-04-26T11:45:32.999Z</time></trkpt><trkpt lat="39.99431399409991" lon="15.868157132753556"><ele>765.0</ele><time>2026-04-26T11:45:33.999Z</time></trkpt><trkpt lat="39.99422093469343" lon="15.868241315231552"><ele>765.0</ele><time>2026-04-26T11:45:34.999Z</time></trkpt><trkpt lat="39.994161047444514" lon="15.868349386528942"><ele>765.0</ele><time>2026-04-26T11:45:35.999Z</time></trkpt><trkpt lat="39.99414840305677" lon="15.868473600709942"><ele>765.0</ele><time>2026-04-26T11:45:36.999Z</time></trkpt><trkpt lat="39.994168437020235" lon="15.868615263282518"><ele>765.0</ele><time>2026-04-26T11:45:37.999Z</time></trkpt><trkpt lat="39.99417381257528" lon="15.868752986248039"><ele>766.6</ele><time>2026-04-26T11:45:38.999Z</time></trkpt><trkpt lat="39.99416723929686" lon="15.868913319633494"><ele>768.2</ele><time>2026-04-26T11:45:39.999Z</time></trkpt><trkpt lat="39.99414656303732" lon="15.869059408782432"><ele>769.8</ele><time>2026-04-26T11:45:40.999Z</time></trkpt><trkpt lat="39.994117811962504" lon="15.86917918248111"><ele>771.4</ele><time>2026-04-26T11:45:41.999Z</time></trkpt><trkpt lat="39.994071933598974" lon="15.869271220362245"><ele>773.0</ele><time>2026-04-26T11:45:42.999Z</time></trkpt><trkpt lat="39.99399904195719" lon="15.869345412150118"><ele>774.5999999999999</ele><time>2026-04-26T11:45:43.999Z</time></trkpt><trkpt lat="39.99389888095404" lon="15.869393325952437"><ele>776.1999999999999</ele><time>2026-04-26T11:45:44.999Z</time></trkpt><trkpt lat="39.99380401728424" lon="15.869464045217642"><ele>777.8</ele><time>2026-04-26T11:45:45.999Z</time></trkpt><trkpt lat="39.99373006179283" lon="15.869537483315133"><ele>779.4</ele><time>2026-04-26T11:45:46.999Z</time></trkpt><trkpt lat="39.99366702686526" lon="15.869645572529722"><ele>781.0</ele><time>2026-04-26T11:45:47.999Z</time></trkpt><trkpt lat="39.99358209745628" lon="15.869751970638186"><ele>781.0</ele><time>2026-04-26T11:45:48.999Z</time></trkpt><trkpt lat="39.99353101486581" lon="15.869877904412663"><ele>781.0</ele><time>2026-04-26T11:45:49.999Z</time></trkpt><trkpt lat="39.99345670908094" lon="15.869990142271792"><ele>781.0</ele><time>2026-04-26T11:45:50.999Z</time></trkpt><trkpt lat="39.99338937552014" lon="15.870119148613254"><ele>781.0</ele><time>2026-04-26T11:45:51.999Z</time></trkpt><trkpt lat="39.99331889890963" lon="15.870250695365584"><ele>783.75</ele><time>2026-04-26T11:45:52.999Z</time></trkpt><trkpt lat="39.99324201461594" lon="15.870392205508471"><ele>786.5</ele><time>2026-04-26T11:45:53.999Z</time></trkpt><trkpt lat="39.993156368506234" lon="15.870527977786312"><ele>789.25</ele><time>2026-04-26T11:45:54.999Z</time></trkpt><trkpt lat="39.99306537278796" lon="15.870644296437836"><ele>792.0</ele><time>2026-04-26T11:45:55.999Z</time></trkpt><trkpt lat="39.992984775219654" lon="15.87077457661564"><ele>792.0</ele><time>2026-04-26T11:45:56.999Z</time></trkpt><trkpt lat="39.99287050001746" lon="15.870855430088323"><ele>792.0</ele><time>2026-04-26T11:45:57.999Z</time></trkpt><trkpt lat="39.992757412506194" lon="15.870954744727127"><ele>792.0</ele><time>2026-04-26T11:45:58.999Z</time></trkpt><trkpt lat="39.99265017435479" lon="15.871073567159378"><ele>792.0</ele><time>2026-04-26T11:45:59.999Z</time></trkpt><trkpt lat="39.992538245343546" lon="15.871166189117648"><ele>795.5</ele><time>2026-04-26T11:46:01Z</time></trkpt><trkpt lat="39.992416262775215" lon="15.871223905002749"><ele>799.0</ele><time>2026-04-26T11:46:02Z</time></trkpt><trkpt lat="39.992301349926585" lon="15.87128337996807"><ele>802.5</ele><time>2026-04-26T11:46:03Z</time></trkpt><trkpt lat="39.992181211382785" lon="15.87131805636238"><ele>806.0</ele><time>2026-04-26T11:46:04Z</time></trkpt><trkpt lat="39.99206551116466" lon="15.871357690701045"><ele>806.0</ele><time>2026-04-26T11:46:05Z</time></trkpt><trkpt lat="39.99195532568157" lon="15.871413055791148"><ele>806.0</ele><time>2026-04-26T11:46:06Z</time></trkpt><trkpt lat="39.991843963186895" lon="15.871460147580073"><ele>806.0</ele><time>2026-04-26T11:46:07Z</time></trkpt><trkpt lat="39.99173543859648" lon="15.871489640311033"><ele>806.0</ele><time>2026-04-26T11:46:08Z</time></trkpt><trkpt lat="39.991633457340086" lon="15.871552079694068"><ele>809.25</ele><time>2026-04-26T11:46:09Z</time></trkpt><trkpt lat="39.99152907920265" lon="15.871620686844011"><ele>812.5</ele><time>2026-04-26T11:46:10Z</time></trkpt><trkpt lat="39.99142941284939" lon="15.871687423880532"><ele>815.75</ele><time>2026-04-26T11:46:11Z</time></trkpt><trkpt lat="39.99132931254207" lon="15.871772362758563"><ele>819.0</ele><time>2026-04-26T11:46:12Z</time></trkpt><trkpt lat="39.991224339104875" lon="15.871866621620816"><ele>819.25</ele><time>2026-04-26T11:46:13Z</time></trkpt><trkpt lat="39.99113313128262" lon="15.872004493365957"><ele>819.5</ele><time>2026-04-26T11:46:14Z</time></trkpt><trkpt lat="39.991037191319165" lon="15.872138606276362"><ele>819.75</ele><time>2026-04-26T11:46:15Z</time></trkpt><trkpt lat="39.99095455226014" lon="15.872255478054232"><ele>820.0</ele><time>2026-04-26T11:46:16Z</time></trkpt><trkpt lat="39.99088173283748" lon="15.87236384657019"><ele>822.0</ele><time>2026-04-26T11:46:17Z</time></trkpt><trkpt lat="39.99081071007648" lon="15.872461962487588"><ele>824.0</ele><time>2026-04-26T11:46:18Z</time></trkpt><trkpt lat="39.990744359787364" lon="15.872545000664328"><ele>826.0</ele><time>2026-04-26T11:46:19Z</time></trkpt><trkpt lat="39.99064776454823" lon="15.872574957113597"><ele>828.0</ele><time>2026-04-26T11:46:20Z</time></trkpt><trkpt lat="39.9905402464259" lon="15.872590199618442"><ele>830.0</ele><time>2026-04-26T11:46:21Z</time></trkpt><trkpt lat="39.990418054379255" lon="15.872593256856891"><ele>829.6</ele><time>2026-04-26T11:46:22Z</time></trkpt><trkpt lat="39.990315800870704" lon="15.872668348736134"><ele>829.2</ele><time>2026-04-26T11:46:23Z</time></trkpt><trkpt lat="39.99022550055689" lon="15.872743542460723"><ele>828.8</ele><time>2026-04-26T11:46:24Z</time></trkpt><trkpt lat="39.990139178415745" lon="15.872825727091127"><ele>828.4</ele><time>2026-04-26T11:46:25Z</time></trkpt><trkpt lat="39.99005142627498" lon="15.872899499156285"><ele>828.0</ele><time>2026-04-26T11:46:26Z</time></trkpt><trkpt lat="39.98996647124269" lon="15.872956741338692"><ele>829.3333333333334</ele><time>2026-04-26T11:46:27Z</time></trkpt><trkpt lat="39.98988639254217" lon="15.872975902983354"><ele>830.6666666666667</ele><time>2026-04-26T11:46:28Z</time></trkpt><trkpt lat="39.989810130053314" lon="15.872953002121598"><ele>832.0</ele><time>2026-04-26T11:46:29Z</time></trkpt><trkpt lat="39.989734117089256" lon="15.872902571081841"><ele>833.3333333333334</ele><time>2026-04-26T11:46:30Z</time></trkpt><trkpt lat="39.98966364631498" lon="15.87283458536407"><ele>834.6666666666667</ele><time>2026-04-26T11:46:31Z</time></trkpt><trkpt lat="39.989598586257536" lon="15.87276705041809"><ele>836.0</ele><time>2026-04-26T11:46:32Z</time></trkpt><trkpt lat="39.989527901123374" lon="15.872690375391887"><ele>837.1999999999999</ele><time>2026-04-26T11:46:34Z</time></trkpt><trkpt lat="39.989417583301105" lon="15.872598678536653"><ele>838.4</ele><time>2026-04-26T11:46:36Z</time></trkpt><trkpt lat="39.989332155294235" lon="15.87255382060405"><ele>839.6</ele><time>2026-04-26T11:46:37Z</time></trkpt><trkpt lat="39.98925472853494" lon="15.872493798854055"><ele>840.8</ele><time>2026-04-26T11:46:38Z</time></trkpt><trkpt lat="39.98916569501757" lon="15.87247387410962"><ele>842.0</ele><time>2026-04-26T11:46:39Z</time></trkpt><trkpt lat="39.989068460973165" lon="15.872508621771305"><ele>841.6</ele><time>2026-04-26T11:46:40Z</time></trkpt><trkpt lat="39.9889982551762" lon="15.872645943748315"><ele>841.2</ele><time>2026-04-26T11:46:41Z</time></trkpt><trkpt lat="39.98892288722114" lon="15.872702622920091"><ele>840.8</ele><time>2026-04-26T11:46:42Z</time></trkpt><trkpt lat="39.98884569086615" lon="15.87274612515681"><ele>840.4</ele><time>2026-04-26T11:46:43Z</time></trkpt><trkpt lat="39.988768621724205" lon="15.872781788903804"><ele>840.0</ele><time>2026-04-26T11:46:44Z</time></trkpt><trkpt lat="39.98868959641547" lon="15.872818258475975"><ele>840.0</ele><time>2026-04-26T11:46:45Z</time></trkpt><trkpt lat="39.98861615945711" lon="15.872876265335165"><ele>840.0</ele><time>2026-04-26T11:46:46Z</time></trkpt><trkpt lat="39.98855655146299" lon="15.872966392353693"><ele>840.0</ele><time>2026-04-26T11:46:47Z</time></trkpt><trkpt lat="39.98853204972643" lon="15.873086032783602"><ele>840.0</ele><time>2026-04-26T11:46:48Z</time></trkpt><trkpt lat="39.988524648696696" lon="15.873208630875888"><ele>840.0</ele><time>2026-04-26T11:46:49Z</time></trkpt><trkpt lat="39.988499476307716" lon="15.873335952351562"><ele>840.2</ele><time>2026-04-26T11:46:50Z</time></trkpt><trkpt lat="39.98846309285654" lon="15.873461147528666"><ele>840.4</ele><time>2026-04-26T11:46:51Z</time></trkpt><trkpt lat="39.98840783433536" lon="15.87357753375456"><ele>840.5999999999999</ele><time>2026-04-26T11:46:52Z</time></trkpt><trkpt lat="39.988316177252024" lon="15.873650758270095"><ele>840.8</ele><time>2026-04-26T11:46:53Z</time></trkpt><trkpt lat="39.98822061372174" lon="15.873738979155824"><ele>841.0</ele><time>2026-04-26T11:46:54Z</time></trkpt><trkpt lat="39.988122374808405" lon="15.873850795269725"><ele>841.0</ele><time>2026-04-26T11:46:55Z</time></trkpt><trkpt lat="39.988014272452425" lon="15.873957078975726"><ele>841.0</ele><time>2026-04-26T11:46:56Z</time></trkpt><trkpt lat="39.98790758176744" lon="15.874066914371799"><ele>841.0</ele><time>2026-04-26T11:46:57Z</time></trkpt><trkpt lat="39.98781832708592" lon="15.87416476115583"><ele>841.0</ele><time>2026-04-26T11:46:58Z</time></trkpt><trkpt lat="39.987740865306755" lon="15.874253100490542"><ele>840.5999999999999</ele><time>2026-04-26T11:46:59Z</time></trkpt><trkpt lat="39.98766839788677" lon="15.874327989368872"><ele>840.2</ele><time>2026-04-26T11:47:00Z</time></trkpt><trkpt lat="39.98759723345499" lon="15.874397399144822"><ele>839.8</ele><time>2026-04-26T11:47:01Z</time></trkpt><trkpt lat="39.98751383514618" lon="15.87444816928399"><ele>839.4000000000001</ele><time>2026-04-26T11:47:02Z</time></trkpt><trkpt lat="39.98741891014985" lon="15.874508244203835"><ele>839.0</ele><time>2026-04-26T11:47:03Z</time></trkpt><trkpt lat="39.98731034816289" lon="15.874564494476795"><ele>839.0</ele><time>2026-04-26T11:47:04Z</time></trkpt><trkpt lat="39.987179740586754" lon="15.874625883621356"><ele>839.0</ele><time>2026-04-26T11:47:05Z</time></trkpt><trkpt lat="39.98705231941378" lon="15.874697582013924"><ele>839.0</ele><time>2026-04-26T11:47:06Z</time></trkpt><trkpt lat="39.98693293812001" lon="15.874743175937073"><ele>839.0</ele><time>2026-04-26T11:47:07Z</time></trkpt><trkpt lat="39.98680788943051" lon="15.874767455843681"><ele>838.75</ele><time>2026-04-26T11:47:07.999Z</time></trkpt><trkpt lat="39.98667460982734" lon="15.87482232400646"><ele>838.5</ele><time>2026-04-26T11:47:08.999Z</time></trkpt><trkpt lat="39.98656235159248" lon="15.8749301282284"><ele>838.25</ele><time>2026-04-26T11:47:09.999Z</time></trkpt><trkpt lat="39.986472306620115" lon="15.875041185812726"><ele>838.0</ele><time>2026-04-26T11:47:10.999Z</time></trkpt><trkpt lat="39.986395625769944" lon="15.87515225302385"><ele>838.0</ele><time>2026-04-26T11:47:11.999Z</time></trkpt><trkpt lat="39.98631148257174" lon="15.87525054709675"><ele>838.0</ele><time>2026-04-26T11:47:12.999Z</time></trkpt><trkpt lat="39.98620805312852" lon="15.87535214668341"><ele>838.0</ele><time>2026-04-26T11:47:13.999Z</time></trkpt><trkpt lat="39.986090787300384" lon="15.875422769106114"><ele>838.0</ele><time>2026-04-26T11:47:14.999Z</time></trkpt><trkpt lat="39.985988595842386" lon="15.875498013502948"><ele>838.0</ele><time>2026-04-26T11:47:15.999Z</time></trkpt><trkpt lat="39.98587976040107" lon="15.875543559514476"><ele>838.0</ele><time>2026-04-26T11:47:16.999Z</time></trkpt><trkpt lat="39.985775628334174" lon="15.875598729250363"><ele>838.0</ele><time>2026-04-26T11:47:17.999Z</time></trkpt><trkpt lat="39.98567136807887" lon="15.875656420896686"><ele>838.0</ele><time>2026-04-26T11:47:18.999Z</time></trkpt><trkpt lat="39.985575542486615" lon="15.875732445006111"><ele>837.5</ele><time>2026-04-26T11:47:19.999Z</time></trkpt><trkpt lat="39.98547369558631" lon="15.87579093947259"><ele>837.0</ele><time>2026-04-26T11:47:20.999Z</time></trkpt><trkpt lat="39.98536847209594" lon="15.875857493353108"><ele>836.5</ele><time>2026-04-26T11:47:21.999Z</time></trkpt><trkpt lat="39.98525400605737" lon="15.875896950035917"><ele>836.0</ele><time>2026-04-26T11:47:22.999Z</time></trkpt><trkpt lat="39.985130085574966" lon="15.87593838337466"><ele>836.25</ele><time>2026-04-26T11:47:23.999Z</time></trkpt><trkpt lat="39.984992910437064" lon="15.87595543680748"><ele>836.5</ele><time>2026-04-26T11:47:24.999Z</time></trkpt><trkpt lat="39.98485711487207" lon="15.875947397933896"><ele>836.75</ele><time>2026-04-26T11:47:25.999Z</time></trkpt><trkpt lat="39.98472479113615" lon="15.875949179348773"><ele>837.0</ele><time>2026-04-26T11:47:26.999Z</time></trkpt><trkpt lat="39.98460892373004" lon="15.87595259366749"><ele>837.0</ele><time>2026-04-26T11:47:27.999Z</time></trkpt><trkpt lat="39.984504546830344" lon="15.875995515921492"><ele>837.0</ele><time>2026-04-26T11:47:28.999Z</time></trkpt><trkpt lat="39.98440578927849" lon="15.876069627978072"><ele>837.0</ele><time>2026-04-26T11:47:29.999Z</time></trkpt><trkpt lat="39.984325226063916" lon="15.876183082012524"><ele>837.0</ele><time>2026-04-26T11:47:30.999Z</time></trkpt><trkpt lat="39.984254284960635" lon="15.87631043521872"><ele>837.0</ele><time>2026-04-26T11:47:31.999Z</time></trkpt><trkpt lat="39.984189469191016" lon="15.876415541822606"><ele>837.0</ele><time>2026-04-26T11:47:32.999Z</time></trkpt><trkpt lat="39.98411677761414" lon="15.87649211446657"><ele>837.0</ele><time>2026-04-26T11:47:33.999Z</time></trkpt><trkpt lat="39.98402220015246" lon="15.87652285700774"><ele>837.0</ele><time>2026-04-26T11:47:34.999Z</time></trkpt><trkpt lat="39.98390498739191" lon="15.876562729229573"><ele>837.0</ele><time>2026-04-26T11:47:35.999Z</time></trkpt><trkpt lat="39.98377046891032" lon="15.876568326532876"><ele>840.5</ele><time>2026-04-26T11:47:36.999Z</time></trkpt><trkpt lat="39.98364553454109" lon="15.876572800016028"><ele>844.0</ele><time>2026-04-26T11:47:37.999Z</time></trkpt><trkpt lat="39.98352157221475" lon="15.876567672725566"><ele>847.5</ele><time>2026-04-26T11:47:38.999Z</time></trkpt><trkpt lat="39.983383457954126" lon="15.876534365282616"><ele>851.0</ele><time>2026-04-26T11:47:39.999Z</time></trkpt><trkpt lat="39.983253693492536" lon="15.876478638234504"><ele>851.0</ele><time>2026-04-26T11:47:40.999Z</time></trkpt><trkpt lat="39.98313068110096" lon="15.87643586401122"><ele>851.0</ele><time>2026-04-26T11:47:41.999Z</time></trkpt><trkpt lat="39.982996135851465" lon="15.87641596474543"><ele>851.0</ele><time>2026-04-26T11:47:42.999Z</time></trkpt><trkpt lat="39.98285627031509" lon="15.87642747651771"><ele>851.0</ele><time>2026-04-26T11:47:43.999Z</time></trkpt><trkpt lat="39.98272444720166" lon="15.87647335269998"><ele>851.0</ele><time>2026-04-26T11:47:44.999Z</time></trkpt><trkpt lat="39.98260918377547" lon="15.876545066472264"><ele>851.0</ele><time>2026-04-26T11:47:45.999Z</time></trkpt><trkpt lat="39.98250640018449" lon="15.876650402591752"><ele>851.0</ele><time>2026-04-26T11:47:46.999Z</time></trkpt><trkpt lat="39.9824174647022" lon="15.87677855161433"><ele>851.0</ele><time>2026-04-26T11:47:47.999Z</time></trkpt><trkpt lat="39.98235100157457" lon="15.876910416527544"><ele>848.5999999999999</ele><time>2026-04-26T11:47:48.999Z</time></trkpt><trkpt lat="39.982296682840705" lon="15.877031224531535"><ele>846.2</ele><time>2026-04-26T11:47:49.999Z</time></trkpt><trkpt lat="39.982233034583736" lon="15.877141563185642"><ele>843.8</ele><time>2026-04-26T11:47:50.999Z</time></trkpt><trkpt lat="39.982136460498225" lon="15.877220636289747"><ele>841.4000000000001</ele><time>2026-04-26T11:47:51.999Z</time></trkpt><trkpt lat="39.98205036959309" lon="15.87731425932571"><ele>839.0</ele><time>2026-04-26T11:47:52.999Z</time></trkpt><trkpt lat="39.981948330987116" lon="15.877386693112433"><ele>839.0</ele><time>2026-04-26T11:47:53.999Z</time></trkpt><trkpt lat="39.9818496057095" lon="15.877473671514812"><ele>839.0</ele><time>2026-04-26T11:47:54.999Z</time></trkpt><trkpt lat="39.981782632495744" lon="15.877590230528677"><ele>839.0</ele><time>2026-04-26T11:47:55.999Z</time></trkpt><trkpt lat="39.98176197298935" lon="15.87771408328727"><ele>839.0</ele><time>2026-04-26T11:47:56.999Z</time></trkpt><trkpt lat="39.981736515287594" lon="15.87786060231845"><ele>839.0</ele><time>2026-04-26T11:47:57.999Z</time></trkpt><trkpt lat="39.98174276184829" lon="15.878012888036979"><ele>837.8000000000001</ele><time>2026-04-26T11:47:58.999Z</time></trkpt><trkpt lat="39.981740115596374" lon="15.878142123584452"><ele>836.6</ele><time>2026-04-26T11:47:59.999Z</time></trkpt><trkpt lat="39.98173121237178" lon="15.878250238355873"><ele>835.4</ele><time>2026-04-26T11:48:00.999Z</time></trkpt><trkpt lat="39.98170975384356" lon="15.878350493358383"><ele>834.2</ele><time>2026-04-26T11:48:01.999Z</time></trkpt><trkpt lat="39.98168050245131" lon="15.878464353724368"><ele>833.0</ele><time>2026-04-26T11:48:02.999Z</time></trkpt><trkpt lat="39.98159447063248" lon="15.878560156177382"><ele>833.0</ele><time>2026-04-26T11:48:03.999Z</time></trkpt><trkpt lat="39.98150064299772" lon="15.878641360834832"><ele>833.0</ele><time>2026-04-26T11:48:04.999Z</time></trkpt><trkpt lat="39.981427959614045" lon="15.878729409931797"><ele>833.0</ele><time>2026-04-26T11:48:06Z</time></trkpt><trkpt lat="39.981368863633804" lon="15.878819887912188"><ele>833.0</ele><time>2026-04-26T11:48:07Z</time></trkpt><trkpt lat="39.98132352676918" lon="15.878924193389055"><ele>833.0</ele><time>2026-04-26T11:48:08Z</time></trkpt><trkpt lat="39.981292424774274" lon="15.879052734997819"><ele>833.0</ele><time>2026-04-26T11:48:09Z</time></trkpt><trkpt lat="39.98126717685658" lon="15.879203965303894"><ele>833.0</ele><time>2026-04-26T11:48:10Z</time></trkpt><trkpt lat="39.98122461293145" lon="15.879346340955184"><ele>833.0</ele><time>2026-04-26T11:48:11Z</time></trkpt><trkpt lat="39.98119406420798" lon="15.879476363369621"><ele>833.0</ele><time>2026-04-26T11:48:12Z</time></trkpt><trkpt lat="39.9811566603047" lon="15.879601328779996"><ele>833.0</ele><time>2026-04-26T11:48:13Z</time></trkpt><trkpt lat="39.98113068551673" lon="15.879728112346985"><ele>831.1666666666667</ele><time>2026-04-26T11:48:14Z</time></trkpt><trkpt lat="39.98106573687413" lon="15.879828426103511"><ele>829.3333333333334</ele><time>2026-04-26T11:48:15Z</time></trkpt><trkpt lat="39.98099578458045" lon="15.879900570507054"><ele>827.5</ele><time>2026-04-26T11:48:16Z</time></trkpt><trkpt lat="39.98092466344266" lon="15.87993918447696"><ele>825.6666666666667</ele><time>2026-04-26T11:48:17Z</time></trkpt><trkpt lat="39.980856923127554" lon="15.879927806002751"><ele>823.8333333333334</ele><time>2026-04-26T11:48:18Z</time></trkpt><trkpt lat="39.980779892854606" lon="15.879841421009056"><ele>822.0</ele><time>2026-04-26T11:48:19Z</time></trkpt><trkpt lat="39.98069984043741" lon="15.879693520927052"><ele>828.25</ele><time>2026-04-26T11:48:20Z</time></trkpt><trkpt lat="39.98062269630146" lon="15.879527093375938"><ele>834.5</ele><time>2026-04-26T11:48:21Z</time></trkpt><trkpt lat="39.98055101683863" lon="15.87935499935268"><ele>840.75</ele><time>2026-04-26T11:48:22Z</time></trkpt><trkpt lat="39.980484798901216" lon="15.879192259950322"><ele>847.0</ele><time>2026-04-26T11:48:23Z</time></trkpt><trkpt lat="39.98041722799293" lon="15.879034792496203"><ele>848.5</ele><time>2026-04-26T11:48:24Z</time></trkpt><trkpt lat="39.98034980849006" lon="15.8788667555656"><ele>850.0</ele><time>2026-04-26T11:48:25Z</time></trkpt><trkpt lat="39.98028509587585" lon="15.878711845369313"><ele>851.5</ele><time>2026-04-26T11:48:26Z</time></trkpt><trkpt lat="39.98024582869278" lon="15.878563791827784"><ele>853.0</ele><time>2026-04-26T11:48:27Z</time></trkpt><trkpt lat="39.98018927052766" lon="15.878434270631155"><ele>854.4</ele><time>2026-04-26T11:48:28Z</time></trkpt><trkpt lat="39.98008989037771" lon="15.878346472348708"><ele>855.8</ele><time>2026-04-26T11:48:29Z</time></trkpt><trkpt lat="39.97999698020926" lon="15.87827976170006"><ele>857.2</ele><time>2026-04-26T11:48:30Z</time></trkpt><trkpt lat="39.97991391164624" lon="15.87822320058866"><ele>858.6</ele><time>2026-04-26T11:48:31Z</time></trkpt><trkpt lat="39.979832583897355" lon="15.87817264236124"><ele>860.0</ele><time>2026-04-26T11:48:32Z</time></trkpt><trkpt lat="39.979756819858615" lon="15.878134121459006"><ele>857.0000000000001</ele><time>2026-04-26T11:48:33Z</time></trkpt><trkpt lat="39.97968624140924" lon="15.878127218513177"><ele>854.0</ele><time>2026-04-26T11:48:34Z</time></trkpt><trkpt lat="39.979623279312385" lon="15.87812292769017"><ele>851.0</ele><time>2026-04-26T11:48:35Z</time></trkpt><trkpt lat="39.97955876918765" lon="15.878201278383939"><ele>848.0</ele><time>2026-04-26T11:48:36Z</time></trkpt><trkpt lat="39.979539731624286" lon="15.878342125237308"><ele>845.0000000000001</ele><time>2026-04-26T11:48:37Z</time></trkpt><trkpt lat="39.979528490030305" lon="15.878486871464084"><ele>842.0</ele><time>2026-04-26T11:48:38Z</time></trkpt><trkpt lat="39.979522704460194" lon="15.878634548317885"><ele>840.5</ele><time>2026-04-26T11:48:39Z</time></trkpt><trkpt lat="39.97951384973952" lon="15.878785672618612"><ele>839.0</ele><time>2026-04-26T11:48:40Z</time></trkpt><trkpt lat="39.97950063821156" lon="15.878937278645882"><ele>837.5</ele><time>2026-04-26T11:48:41Z</time></trkpt><trkpt lat="39.97948136441448" lon="15.879106738796308"><ele>836.0</ele><time>2026-04-26T11:48:42Z</time></trkpt><trkpt lat="39.97946216922543" lon="15.879308521400361"><ele>835.0</ele><time>2026-04-26T11:48:43Z</time></trkpt><trkpt lat="39.97943659187304" lon="15.879503830249584"><ele>834.0</ele><time>2026-04-26T11:48:44Z</time></trkpt><trkpt lat="39.97940651229322" lon="15.87968685057871"><ele>833.0</ele><time>2026-04-26T11:48:45Z</time></trkpt><trkpt lat="39.97934845936084" lon="15.879861067973556"><ele>832.0</ele><time>2026-04-26T11:48:46Z</time></trkpt><trkpt lat="39.979298631145106" lon="15.88003511137254"><ele>833.0</ele><time>2026-04-26T11:48:47Z</time></trkpt><trkpt lat="39.97922854981649" lon="15.880174910305229"><ele>834.0</ele><time>2026-04-26T11:48:48Z</time></trkpt><trkpt lat="39.97915490024549" lon="15.880286360863737"><ele>835.0</ele><time>2026-04-26T11:48:49Z</time></trkpt><trkpt lat="39.97905670553401" lon="15.88035600066393"><ele>836.0</ele><time>2026-04-26T11:48:50Z</time></trkpt><trkpt lat="39.97895350844422" lon="15.880414301175048"><ele>832.0</ele><time>2026-04-26T11:48:51Z</time></trkpt><trkpt lat="39.978830692974256" lon="15.880484967434505"><ele>828.0</ele><time>2026-04-26T11:48:52Z</time></trkpt><trkpt lat="39.97868882846071" lon="15.880536059294718"><ele>824.0</ele><time>2026-04-26T11:48:53Z</time></trkpt><trkpt lat="39.97855100849405" lon="15.880610117700945"><ele>820.0</ele><time>2026-04-26T11:48:54Z</time></trkpt><trkpt lat="39.97841705290136" lon="15.880691865194539"><ele>820.25</ele><time>2026-04-26T11:48:55Z</time></trkpt><trkpt lat="39.9782816509366" lon="15.88078241072706"><ele>820.5</ele><time>2026-04-26T11:48:56Z</time></trkpt><trkpt lat="39.97815448758935" lon="15.88087385720298"><ele>820.75</ele><time>2026-04-26T11:48:57Z</time></trkpt><trkpt lat="39.97803754406651" lon="15.880943916834863"><ele>821.0</ele><time>2026-04-26T11:48:58Z</time></trkpt><trkpt lat="39.97793305710253" lon="15.880989061979529"><ele>821.75</ele><time>2026-04-26T11:48:59Z</time></trkpt><trkpt lat="39.977817620197705" lon="15.881008335794862"><ele>822.5</ele><time>2026-04-26T11:49:00Z</time></trkpt><trkpt lat="39.977706086502664" lon="15.880962468624194"><ele>823.25</ele><time>2026-04-26T11:49:01Z</time></trkpt><trkpt lat="39.977588802706705" lon="15.880932887568191"><ele>824.0</ele><time>2026-04-26T11:49:02Z</time></trkpt><trkpt lat="39.97747639284033" lon="15.880891437688188"><ele>824.0</ele><time>2026-04-26T11:49:03Z</time></trkpt><trkpt lat="39.97736163032322" lon="15.88087452338882"><ele>824.0</ele><time>2026-04-26T11:49:04Z</time></trkpt><trkpt lat="39.97724832189455" lon="15.880896947793493"><ele>824.0</ele><time>2026-04-26T11:49:05Z</time></trkpt><trkpt lat="39.97714278188847" lon="15.880962376807382"><ele>824.0</ele><time>2026-04-26T11:49:06Z</time></trkpt><trkpt lat="39.97705208680231" lon="15.881052799849778"><ele>822.75</ele><time>2026-04-26T11:49:07Z</time></trkpt><trkpt lat="39.976963436471124" lon="15.881163469701224"><ele>821.5</ele><time>2026-04-26T11:49:08Z</time></trkpt><trkpt lat="39.97686232038614" lon="15.881274203261038"><ele>820.25</ele><time>2026-04-26T11:49:09Z</time></trkpt><trkpt lat="39.9767519628669" lon="15.881365540933542"><ele>819.0</ele><time>2026-04-26T11:49:10Z</time></trkpt><trkpt lat="39.97663049929784" lon="15.881424469604434"><ele>819.0</ele><time>2026-04-26T11:49:10.999Z</time></trkpt><trkpt lat="39.9765002136807" lon="15.881479540362445"><ele>819.0</ele><time>2026-04-26T11:49:11.999Z</time></trkpt><trkpt lat="39.976361882891425" lon="15.88152323335128"><ele>819.0</ele><time>2026-04-26T11:49:12.999Z</time></trkpt><trkpt lat="39.97622489216597" lon="15.881567232539721"><ele>819.0</ele><time>2026-04-26T11:49:13.999Z</time></trkpt><trkpt lat="39.97609610136932" lon="15.881611907508992"><ele>819.0</ele><time>2026-04-26T11:49:14.999Z</time></trkpt><trkpt lat="39.97596732489771" lon="15.881677084106483"><ele>819.0</ele><time>2026-04-26T11:49:15.999Z</time></trkpt><trkpt lat="39.9758416324451" lon="15.881721847110228"><ele>819.0</ele><time>2026-04-26T11:49:16.999Z</time></trkpt><trkpt lat="39.975715651238914" lon="15.881770431718088"><ele>819.0</ele><time>2026-04-26T11:49:17.999Z</time></trkpt><trkpt lat="39.97560023462782" lon="15.881828885863976"><ele>819.0</ele><time>2026-04-26T11:49:18.999Z</time></trkpt><trkpt lat="39.9754935599733" lon="15.88190573848501"><ele>819.0</ele><time>2026-04-26T11:49:19.999Z</time></trkpt><trkpt lat="39.97536887337483" lon="15.881989647950336"><ele>819.0</ele><time>2026-04-26T11:49:20.999Z</time></trkpt><trkpt lat="39.97523783153601" lon="15.882060983428705"><ele>819.0</ele><time>2026-04-26T11:49:21.999Z</time></trkpt><trkpt lat="39.975094161068895" lon="15.882079991400357"><ele>821.6666666666667</ele><time>2026-04-26T11:49:22.999Z</time></trkpt><trkpt lat="39.97493552834254" lon="15.882083353032069"><ele>824.3333333333334</ele><time>2026-04-26T11:49:23.999Z</time></trkpt><trkpt lat="39.97475583938725" lon="15.882077962863681"><ele>827.0</ele><time>2026-04-26T11:49:24.999Z</time></trkpt><trkpt lat="39.97457460893359" lon="15.882086384135752"><ele>827.0</ele><time>2026-04-26T11:49:25.999Z</time></trkpt><trkpt lat="39.97438871413736" lon="15.882077998770006"><ele>827.0</ele><time>2026-04-26T11:49:26.999Z</time></trkpt><trkpt lat="39.97420917582464" lon="15.882072117481911"><ele>827.0</ele><time>2026-04-26T11:49:27.999Z</time></trkpt><trkpt lat="39.97403784755633" lon="15.88207138177252"><ele>828.3333333333334</ele><time>2026-04-26T11:49:28.999Z</time></trkpt><trkpt lat="39.973865083180826" lon="15.882068709086322"><ele>829.6666666666667</ele><time>2026-04-26T11:49:29.999Z</time></trkpt><trkpt lat="39.9737036183807" lon="15.882068551108343"><ele>831.0</ele><time>2026-04-26T11:49:30.999Z</time></trkpt><trkpt lat="39.973566406437534" lon="15.882070733421745"><ele>831.0</ele><time>2026-04-26T11:49:31.999Z</time></trkpt><trkpt lat="39.97343352234587" lon="15.882057324123538"><ele>831.0</ele><time>2026-04-26T11:49:32.999Z</time></trkpt><trkpt lat="39.9733014433221" lon="15.882034585443517"><ele>831.0</ele><time>2026-04-26T11:49:33.999Z</time></trkpt><trkpt lat="39.973167059861005" lon="15.882032080032397"><ele>831.0</ele><time>2026-04-26T11:49:34.999Z</time></trkpt><trkpt lat="39.97303356189692" lon="15.882065951942161"><ele>832.0</ele><time>2026-04-26T11:49:35.999Z</time></trkpt><trkpt lat="39.97289072801721" lon="15.882112985847105"><ele>833.0</ele><time>2026-04-26T11:49:36.999Z</time></trkpt><trkpt lat="39.97273556218753" lon="15.882141673650864"><ele>834.0</ele><time>2026-04-26T11:49:37.999Z</time></trkpt><trkpt lat="39.97259779980624" lon="15.88215938195535"><ele>835.0</ele><time>2026-04-26T11:49:38.999Z</time></trkpt><trkpt lat="39.97248177672499" lon="15.882153497251652"><ele>836.8571428571429</ele><time>2026-04-26T11:49:39.999Z</time></trkpt><trkpt lat="39.97238726678304" lon="15.882188775925888"><ele>838.7142857142858</ele><time>2026-04-26T11:49:40.999Z</time></trkpt><trkpt lat="39.97231187894431" lon="15.882199718860274"><ele>840.5714285714287</ele><time>2026-04-26T11:49:41.999Z</time></trkpt><trkpt lat="39.97225734866519" lon="15.88224678221593"><ele>842.4285714285714</ele><time>2026-04-26T11:49:42.999Z</time></trkpt><trkpt lat="39.97221355039262" lon="15.882317117660728"><ele>844.2857142857142</ele><time>2026-04-26T11:49:43.999Z</time></trkpt><trkpt lat="39.97220604351469" lon="15.882411500457945"><ele>846.1428571428572</ele><time>2026-04-26T11:49:44.999Z</time></trkpt><trkpt lat="39.97223716440614" lon="15.882489265878931"><ele>848.0</ele><time>2026-04-26T11:49:45.999Z</time></trkpt><trkpt lat="39.97224652181931" lon="15.882610003612097"><ele>848.0</ele><time>2026-04-26T11:49:47.999Z</time></trkpt><trkpt lat="39.97228236332429" lon="15.882715417479758"><ele>848.0</ele><time>2026-04-26T11:49:48.999Z</time></trkpt><trkpt lat="39.97231345133259" lon="15.882845714429656"><ele>848.0</ele><time>2026-04-26T11:49:49.999Z</time></trkpt><trkpt lat="39.97234153191412" lon="15.882979944899613"><ele>848.0</ele><time>2026-04-26T11:49:50.999Z</time></trkpt><trkpt lat="39.97236104010519" lon="15.883092782656044"><ele>848.0</ele><time>2026-04-26T11:49:51.999Z</time></trkpt><trkpt lat="39.97237133418793" lon="15.883200681322682"><ele>848.0</ele><time>2026-04-26T11:49:52.999Z</time></trkpt><trkpt lat="39.97237372031416" lon="15.883293425752141"><ele>848.0</ele><time>2026-04-26T11:49:53.999Z</time></trkpt><trkpt lat="39.972327969300146" lon="15.883378253629198"><ele>848.0</ele><time>2026-04-26T11:49:54.999Z</time></trkpt><trkpt lat="39.972228338295615" lon="15.883447832949985"><ele>848.0</ele><time>2026-04-26T11:49:55.999Z</time></trkpt><trkpt lat="39.97211636681798" lon="15.883518691202202"><ele>848.0</ele><time>2026-04-26T11:49:56.999Z</time></trkpt><trkpt lat="39.97199157889518" lon="15.883594897776392"><ele>851.25</ele><time>2026-04-26T11:49:57.999Z</time></trkpt><trkpt lat="39.971866909397065" lon="15.88366533477039"><ele>854.5</ele><time>2026-04-26T11:49:58.999Z</time></trkpt><trkpt lat="39.97173839142321" lon="15.883728492937053"><ele>857.75</ele><time>2026-04-26T11:49:59.999Z</time></trkpt><trkpt lat="39.971600946702054" lon="15.883776645102884"><ele>861.0</ele><time>2026-04-26T11:50:00.999Z</time></trkpt><trkpt lat="39.97146394926064" lon="15.88382779983468"><ele>862.75</ele><time>2026-04-26T11:50:01.999Z</time></trkpt><trkpt lat="39.971312658851055" lon="15.883847480015016"><ele>864.5</ele><time>2026-04-26T11:50:02.999Z</time></trkpt><trkpt lat="39.971177437040964" lon="15.883873795415854"><ele>866.25</ele><time>2026-04-26T11:50:03.999Z</time></trkpt><trkpt lat="39.97104302381597" lon="15.88389442222784"><ele>868.0</ele><time>2026-04-26T11:50:04.999Z</time></trkpt><trkpt lat="39.97089480099946" lon="15.883896122689137"><ele>868.25</ele><time>2026-04-26T11:50:05.999Z</time></trkpt><trkpt lat="39.97073245455308" lon="15.883876308661993"><ele>868.5</ele><time>2026-04-26T11:50:06.999Z</time></trkpt><trkpt lat="39.970583410064215" lon="15.883850226750326"><ele>868.75</ele><time>2026-04-26T11:50:07.999Z</time></trkpt><trkpt lat="39.97044827195107" lon="15.883829957786803"><ele>869.0</ele><time>2026-04-26T11:50:08.999Z</time></trkpt><trkpt lat="39.97031906785008" lon="15.883819001212425"><ele>869.0</ele><time>2026-04-26T11:50:09.999Z</time></trkpt><trkpt lat="39.970175880518504" lon="15.883817959605269"><ele>869.0</ele><time>2026-04-26T11:50:10.999Z</time></trkpt><trkpt lat="39.970022951468096" lon="15.883820337200717"><ele>869.0</ele><time>2026-04-26T11:50:12Z</time></trkpt><trkpt lat="39.969852797953784" lon="15.883836077166148"><ele>868.0</ele><time>2026-04-26T11:50:13Z</time></trkpt><trkpt lat="39.969686960799" lon="15.883870534542726"><ele>867.0</ele><time>2026-04-26T11:50:14Z</time></trkpt><trkpt lat="39.969539195687965" lon="15.88390055660542"><ele>866.0</ele><time>2026-04-26T11:50:15Z</time></trkpt><trkpt lat="39.969381271852626" lon="15.883921868051983"><ele>866.0</ele><time>2026-04-26T11:50:16Z</time></trkpt><trkpt lat="39.96924505984064" lon="15.883938018568095"><ele>866.0</ele><time>2026-04-26T11:50:17Z</time></trkpt><trkpt lat="39.96911573216605" lon="15.883956204645344"><ele>866.0</ele><time>2026-04-26T11:50:18Z</time></trkpt><trkpt lat="39.968974915221715" lon="15.883940334710507"><ele>866.0</ele><time>2026-04-26T11:50:19Z</time></trkpt><trkpt lat="39.968825705451835" lon="15.88393580656519"><ele>865.0</ele><time>2026-04-26T11:50:20Z</time></trkpt><trkpt lat="39.968673661539135" lon="15.883928030967242"><ele>864.0</ele><time>2026-04-26T11:50:21Z</time></trkpt><trkpt lat="39.96851462914462" lon="15.883909060088188"><ele>863.0</ele><time>2026-04-26T11:50:22Z</time></trkpt><trkpt lat="39.96836011963844" lon="15.883899909709813"><ele>863.5</ele><time>2026-04-26T11:50:23Z</time></trkpt><trkpt lat="39.96820875084945" lon="15.8839183820026"><ele>864.0</ele><time>2026-04-26T11:50:24Z</time></trkpt><trkpt lat="39.96806749465587" lon="15.883946032618574"><ele>864.5</ele><time>2026-04-26T11:50:25Z</time></trkpt><trkpt lat="39.96792269483829" lon="15.883973081017793"><ele>865.0</ele><time>2026-04-26T11:50:26Z</time></trkpt><trkpt lat="39.96777668044098" lon="15.883986381391097"><ele>865.0</ele><time>2026-04-26T11:50:27Z</time></trkpt><trkpt lat="39.967624062707245" lon="15.88399544768112"><ele>865.0</ele><time>2026-04-26T11:50:28Z</time></trkpt><trkpt lat="39.96746825601239" lon="15.884010263971575"><ele>865.0</ele><time>2026-04-26T11:50:29Z</time></trkpt><trkpt lat="39.967326376508986" lon="15.883998348080903"><ele>865.5</ele><time>2026-04-26T11:50:30Z</time></trkpt><trkpt lat="39.96718760795266" lon="15.883986331502566"><ele>866.0</ele><time>2026-04-26T11:50:31Z</time></trkpt><trkpt lat="39.967055630553546" lon="15.883977403026911"><ele>866.5</ele><time>2026-04-26T11:50:32Z</time></trkpt><trkpt lat="39.96692747474503" lon="15.88396441021248"><ele>867.0</ele><time>2026-04-26T11:50:33Z</time></trkpt><trkpt lat="39.96679258015998" lon="15.883943440010142"><ele>864.0</ele><time>2026-04-26T11:50:34Z</time></trkpt><trkpt lat="39.9666444266598" lon="15.883911633402647"><ele>861.0</ele><time>2026-04-26T11:50:35Z</time></trkpt><trkpt lat="39.96649062386494" lon="15.883854577925064"><ele>858.0</ele><time>2026-04-26T11:50:36Z</time></trkpt><trkpt lat="39.966349892832795" lon="15.88382642464519"><ele>858.0</ele><time>2026-04-26T11:50:37Z</time></trkpt><trkpt lat="39.966219564913615" lon="15.883771295742989"><ele>858.0</ele><time>2026-04-26T11:50:38Z</time></trkpt><trkpt lat="39.96609959525312" lon="15.883710563871432"><ele>858.0</ele><time>2026-04-26T11:50:39Z</time></trkpt><trkpt lat="39.965987629923525" lon="15.883665983849175"><ele>858.0</ele><time>2026-04-26T11:50:40Z</time></trkpt><trkpt lat="39.96589533720293" lon="15.883643321973429"><ele>858.0</ele><time>2026-04-26T11:50:41Z</time></trkpt><trkpt lat="39.96579013500843" lon="15.88368258513935"><ele>858.0</ele><time>2026-04-26T11:50:42Z</time></trkpt><trkpt lat="39.96570569377793" lon="15.883786088547339"><ele>858.0</ele><time>2026-04-26T11:50:43Z</time></trkpt><trkpt lat="39.9656203865231" lon="15.883885933584613"><ele>858.0</ele><time>2026-04-26T11:50:44Z</time></trkpt><trkpt lat="39.96554675641648" lon="15.884016164434785"><ele>858.0</ele><time>2026-04-26T11:50:45Z</time></trkpt><trkpt lat="39.965491717923456" lon="15.884148540509987"><ele>858.0</ele><time>2026-04-26T11:50:46Z</time></trkpt><trkpt lat="39.965465475475376" lon="15.884282804527887"><ele>858.0</ele><time>2026-04-26T11:50:47Z</time></trkpt><trkpt lat="39.9654736607143" lon="15.88442890913136"><ele>858.0</ele><time>2026-04-26T11:50:48Z</time></trkpt><trkpt lat="39.96550473545619" lon="15.884594718397022"><ele>857.5</ele><time>2026-04-26T11:50:49Z</time></trkpt><trkpt lat="39.96554810902158" lon="15.884761259108874"><ele>857.0</ele><time>2026-04-26T11:50:50Z</time></trkpt><trkpt lat="39.96558272831627" lon="15.884912037509935"><ele>856.5</ele><time>2026-04-26T11:50:51Z</time></trkpt><trkpt lat="39.96560787608592" lon="15.885054093373098"><ele>856.0</ele><time>2026-04-26T11:50:52Z</time></trkpt><trkpt lat="39.96562970404616" lon="15.885195568999622"><ele>856.0</ele><time>2026-04-26T11:50:53Z</time></trkpt><trkpt lat="39.96564077281153" lon="15.885343775735517"><ele>856.0</ele><time>2026-04-26T11:50:54Z</time></trkpt><trkpt lat="39.96563040007423" lon="15.885497172819043"><ele>856.0</ele><time>2026-04-26T11:50:55Z</time></trkpt><trkpt lat="39.965591086747956" lon="15.885640761736788"><ele>856.0</ele><time>2026-04-26T11:50:56Z</time></trkpt><trkpt lat="39.96554472589885" lon="15.885784948892539"><ele>856.0</ele><time>2026-04-26T11:50:57Z</time></trkpt><trkpt lat="39.965488088254226" lon="15.885921414380624"><ele>855.9999999999999</ele><time>2026-04-26T11:50:58Z</time></trkpt><trkpt lat="39.96542914625269" lon="15.886045725744578"><ele>855.9999999999999</ele><time>2026-04-26T11:50:59Z</time></trkpt><trkpt lat="39.96535442785736" lon="15.886133190170904"><ele>856.0</ele><time>2026-04-26T11:51:00Z</time></trkpt><trkpt lat="39.96527291946066" lon="15.886215090491806"><ele>856.0</ele><time>2026-04-26T11:51:01Z</time></trkpt><trkpt lat="39.965172751155826" lon="15.886260338003328"><ele>857.25</ele><time>2026-04-26T11:51:02Z</time></trkpt><trkpt lat="39.96508075375079" lon="15.886327700169076"><ele>858.5</ele><time>2026-04-26T11:51:03Z</time></trkpt><trkpt lat="39.96497684353532" lon="15.886370583297868"><ele>859.75</ele><time>2026-04-26T11:51:04Z</time></trkpt><trkpt lat="39.964864600066235" lon="15.886418131349542"><ele>861.0</ele><time>2026-04-26T11:51:05Z</time></trkpt><trkpt lat="39.96474722467034" lon="15.886461890467176"><ele>863.5</ele><time>2026-04-26T11:51:06Z</time></trkpt><trkpt lat="39.96461885262914" lon="15.88649893545535"><ele>866.0</ele><time>2026-04-26T11:51:07Z</time></trkpt><trkpt lat="39.964487098778434" lon="15.88653115335742"><ele>868.5</ele><time>2026-04-26T11:51:08Z</time></trkpt><trkpt lat="39.96436239105713" lon="15.88656439338143"><ele>871.0</ele><time>2026-04-26T11:51:09Z</time></trkpt><trkpt lat="39.96424026441073" lon="15.886596356049969"><ele>869.0</ele><time>2026-04-26T11:51:10Z</time></trkpt><trkpt lat="39.96411607127489" lon="15.88662346913067"><ele>867.0</ele><time>2026-04-26T11:51:11Z</time></trkpt><trkpt lat="39.96399183368237" lon="15.88661732565852"><ele>865.0</ele><time>2026-04-26T11:51:12Z</time></trkpt><trkpt lat="39.96385449200951" lon="15.88662099361398"><ele>863.0</ele><time>2026-04-26T11:51:13Z</time></trkpt><trkpt lat="39.96370285629266" lon="15.886609703464098"><ele>863.0</ele><time>2026-04-26T11:51:13.999Z</time></trkpt><trkpt lat="39.963534375262945" lon="15.886600049750518"><ele>863.0</ele><time>2026-04-26T11:51:14.999Z</time></trkpt><trkpt lat="39.96335947834949" lon="15.886592274998462"><ele>863.0</ele><time>2026-04-26T11:51:15.999Z</time></trkpt><trkpt lat="39.96316826575701" lon="15.886584957465566"><ele>858.3333333333334</ele><time>2026-04-26T11:51:16.999Z</time></trkpt><trkpt lat="39.96298070880747" lon="15.88658040796807"><ele>853.6666666666667</ele><time>2026-04-26T11:51:17.999Z</time></trkpt><trkpt lat="39.962802397773594" lon="15.886575106849827"><ele>849.0</ele><time>2026-04-26T11:51:18.999Z</time></trkpt><trkpt lat="39.962629539057225" lon="15.88656976076595"><ele>845.3333333333333</ele><time>2026-04-26T11:51:19.999Z</time></trkpt><trkpt lat="39.96245971234483" lon="15.886570678746018"><ele>841.6666666666666</ele><time>2026-04-26T11:51:20.999Z</time></trkpt><trkpt lat="39.962293467261084" lon="15.886581925444023"><ele>838.0</ele><time>2026-04-26T11:51:21.999Z</time></trkpt><trkpt lat="39.962140485803424" lon="15.886518635242611"><ele>838.0</ele><time>2026-04-26T11:51:22.999Z</time></trkpt><trkpt lat="39.96198646742003" lon="15.886454754993482"><ele>838.0</ele><time>2026-04-26T11:51:23.999Z</time></trkpt><trkpt lat="39.96182494608341" lon="15.886378957673523"><ele>838.0</ele><time>2026-04-26T11:51:24.999Z</time></trkpt><trkpt lat="39.961668893107536" lon="15.886302526794376"><ele>837.0</ele><time>2026-04-26T11:51:25.999Z</time></trkpt><trkpt lat="39.9615181328294" lon="15.886225842490624"><ele>836.0</ele><time>2026-04-26T11:51:26.999Z</time></trkpt><trkpt lat="39.961366890167255" lon="15.886138174675242"><ele>835.0</ele><time>2026-04-26T11:51:27.999Z</time></trkpt><trkpt lat="39.961202086104656" lon="15.88607819887132"><ele>835.0</ele><time>2026-04-26T11:51:28.999Z</time></trkpt><trkpt lat="39.96103891742054" lon="15.886026703738851"><ele>835.0</ele><time>2026-04-26T11:51:29.999Z</time></trkpt><trkpt lat="39.96087048184781" lon="15.885973594641479"><ele>835.0</ele><time>2026-04-26T11:51:30.999Z</time></trkpt><trkpt lat="39.96071382737612" lon="15.885900984123854"><ele>834.0</ele><time>2026-04-26T11:51:31.999Z</time></trkpt><trkpt lat="39.96056387587259" lon="15.885817346339604"><ele>833.0</ele><time>2026-04-26T11:51:32.999Z</time></trkpt><trkpt lat="39.96042125035845" lon="15.885730380174335"><ele>832.0</ele><time>2026-04-26T11:51:33.999Z</time></trkpt><trkpt lat="39.960288317759584" lon="15.885649412980523"><ele>832.0</ele><time>2026-04-26T11:51:34.999Z</time></trkpt><trkpt lat="39.96016615956572" lon="15.885568761673584"><ele>832.0</ele><time>2026-04-26T11:51:35.999Z</time></trkpt><trkpt lat="39.96005985486356" lon="15.885482790515894"><ele>832.0</ele><time>2026-04-26T11:51:36.999Z</time></trkpt><trkpt lat="39.95996691550898" lon="15.885377129132948"><ele>832.0</ele><time>2026-04-26T11:51:37.999Z</time></trkpt><trkpt lat="39.95986808854895" lon="15.885264977006447"><ele>831.75</ele><time>2026-04-26T11:51:38.999Z</time></trkpt><trkpt lat="39.959768782663105" lon="15.885161667275081"><ele>831.5</ele><time>2026-04-26T11:51:39.999Z</time></trkpt><trkpt lat="39.959656944318894" lon="15.885083484138526"><ele>831.25</ele><time>2026-04-26T11:51:40.999Z</time></trkpt><trkpt lat="39.95953157500317" lon="15.885030742889937"><ele>831.0</ele><time>2026-04-26T11:51:41.999Z</time></trkpt><trkpt lat="39.95938145852358" lon="15.885057031411009"><ele>831.0</ele><time>2026-04-26T11:51:42.999Z</time></trkpt><trkpt lat="39.95922387308882" lon="15.885102341819834"><ele>831.0</ele><time>2026-04-26T11:51:43.999Z</time></trkpt><trkpt lat="39.95905584403251" lon="15.885150564340647"><ele>831.0</ele><time>2026-04-26T11:51:44.999Z</time></trkpt><trkpt lat="39.95889389869226" lon="15.885196505026503"><ele>829.0</ele><time>2026-04-26T11:51:45.999Z</time></trkpt><trkpt lat="39.958725038559805" lon="15.885226952983347"><ele>827.0</ele><time>2026-04-26T11:51:46.999Z</time></trkpt><trkpt lat="39.958550874668774" lon="15.885249042877689"><ele>825.0</ele><time>2026-04-26T11:51:47.999Z</time></trkpt><trkpt lat="39.95837299961915" lon="15.88525965918363"><ele>823.6666666666667</ele><time>2026-04-26T11:51:48.999Z</time></trkpt><trkpt lat="39.958204371660486" lon="15.885259784967783"><ele>822.3333333333334</ele><time>2026-04-26T11:51:49.999Z</time></trkpt><trkpt lat="39.95804071762485" lon="15.885251975112707"><ele>821.0</ele><time>2026-04-26T11:51:50.999Z</time></trkpt><trkpt lat="39.95787315910916" lon="15.88523177651305"><ele>821.0</ele><time>2026-04-26T11:51:51.999Z</time></trkpt><trkpt lat="39.95770893042579" lon="15.885203520965357"><ele>821.0</ele><time>2026-04-26T11:51:52.999Z</time></trkpt><trkpt lat="39.9575540520585" lon="15.885175830144686"><ele>821.0</ele><time>2026-04-26T11:51:53.999Z</time></trkpt><trkpt lat="39.957405178897275" lon="15.88514911059552"><ele>821.5</ele><time>2026-04-26T11:51:54.999Z</time></trkpt><trkpt lat="39.95726312117224" lon="15.885123396012618"><ele>822.0</ele><time>2026-04-26T11:51:55.999Z</time></trkpt><trkpt lat="39.957127806371176" lon="15.885096023711217"><ele>822.5</ele><time>2026-04-26T11:51:56.999Z</time></trkpt><trkpt lat="39.956991795682974" lon="15.885065084460475"><ele>823.0</ele><time>2026-04-26T11:51:57.999Z</time></trkpt><trkpt lat="39.956865761949274" lon="15.88502699226646"><ele>823.0</ele><time>2026-04-26T11:51:58.999Z</time></trkpt><trkpt lat="39.956740157852586" lon="15.884984559722847"><ele>823.0</ele><time>2026-04-26T11:51:59.999Z</time></trkpt><trkpt lat="39.956621209823716" lon="15.884925780607858"><ele>823.0</ele><time>2026-04-26T11:52:00.999Z</time></trkpt><trkpt lat="39.95650502060124" lon="15.884847269339192"><ele>823.0</ele><time>2026-04-26T11:52:01.999Z</time></trkpt><trkpt lat="39.95639544663723" lon="15.884741231929425"><ele>823.0</ele><time>2026-04-26T11:52:02.999Z</time></trkpt><trkpt lat="39.95629873226701" lon="15.884594621554747"><ele>823.0</ele><time>2026-04-26T11:52:03.999Z</time></trkpt><trkpt lat="39.95619486117262" lon="15.88442866045754"><ele>823.0</ele><time>2026-04-26T11:52:04.999Z</time></trkpt><trkpt lat="39.95609365445179" lon="15.88425641665189"><ele>821.6666666666666</ele><time>2026-04-26T11:52:05.999Z</time></trkpt><trkpt lat="39.95600050526435" lon="15.884082989897179"><ele>820.3333333333333</ele><time>2026-04-26T11:52:06.999Z</time></trkpt><trkpt lat="39.95591171413225" lon="15.883916817098546"><ele>819.0</ele><time>2026-04-26T11:52:07.999Z</time></trkpt><trkpt lat="39.95581391868702" lon="15.88376009863197"><ele>815.6666666666667</ele><time>2026-04-26T11:52:08.999Z</time></trkpt><trkpt lat="39.95569966387523" lon="15.883624679855135"><ele>812.3333333333334</ele><time>2026-04-26T11:52:09.999Z</time></trkpt><trkpt lat="39.95556445538054" lon="15.883504398039245"><ele>809.0</ele><time>2026-04-26T11:52:10.999Z</time></trkpt><trkpt lat="39.955420745306526" lon="15.883411375313674"><ele>808.0</ele><time>2026-04-26T11:52:11.999Z</time></trkpt><trkpt lat="39.95526266012398" lon="15.88333814552686"><ele>807.0</ele><time>2026-04-26T11:52:12.999Z</time></trkpt><trkpt lat="39.95509323863573" lon="15.883272947312951"><ele>806.0</ele><time>2026-04-26T11:52:13.999Z</time></trkpt><trkpt lat="39.954913287867846" lon="15.883225682380104"><ele>804.3333333333334</ele><time>2026-04-26T11:52:14.999Z</time></trkpt><trkpt lat="39.95473154196922" lon="15.883179086906983"><ele>802.6666666666667</ele><time>2026-04-26T11:52:15.999Z</time></trkpt><trkpt lat="39.954553113445726" lon="15.883133437474111"><ele>801.0</ele><time>2026-04-26T11:52:16.999Z</time></trkpt><trkpt lat="39.95436884338368" lon="15.883086293402176"><ele>799.3333333333333</ele><time>2026-04-26T11:52:18Z</time></trkpt><trkpt lat="39.95417769036705" lon="15.883050033041398"><ele>797.6666666666666</ele><time>2026-04-26T11:52:19Z</time></trkpt><trkpt lat="39.953985515493855" lon="15.883066016502067"><ele>796.0</ele><time>2026-04-26T11:52:20Z</time></trkpt><trkpt lat="39.95379454484845" lon="15.883092355846266"><ele>796.0</ele><time>2026-04-26T11:52:21Z</time></trkpt><trkpt lat="39.953591405024035" lon="15.88312225511618"><ele>796.0</ele><time>2026-04-26T11:52:22Z</time></trkpt><trkpt lat="39.953396299385695" lon="15.883205177774714"><ele>796.0</ele><time>2026-04-26T11:52:23Z</time></trkpt><trkpt lat="39.9532073799606" lon="15.883269540511892"><ele>796.3333333333333</ele><time>2026-04-26T11:52:24Z</time></trkpt><trkpt lat="39.95302411246668" lon="15.883334677767886"><ele>796.6666666666667</ele><time>2026-04-26T11:52:25Z</time></trkpt><trkpt lat="39.95284371018039" lon="15.883377100368566"><ele>797.0</ele><time>2026-04-26T11:52:26Z</time></trkpt><trkpt lat="39.952676551933955" lon="15.883438794535769"><ele>797.6666666666667</ele><time>2026-04-26T11:52:27Z</time></trkpt><trkpt lat="39.95253077239989" lon="15.883528822392504"><ele>798.3333333333333</ele><time>2026-04-26T11:52:28Z</time></trkpt><trkpt lat="39.95238564770585" lon="15.883582150761686"><ele>799.0</ele><time>2026-04-26T11:52:29Z</time></trkpt><trkpt lat="39.95224399004771" lon="15.883594321726745"><ele>799.0</ele><time>2026-04-26T11:52:30Z</time></trkpt><trkpt lat="39.95209636248561" lon="15.883629024312079"><ele>799.0</ele><time>2026-04-26T11:52:31Z</time></trkpt><trkpt lat="39.95194557796634" lon="15.883661328039308"><ele>799.0</ele><time>2026-04-26T11:52:32Z</time></trkpt><trkpt lat="39.951827092927985" lon="15.883674582922309"><ele>799.0</ele><time>2026-04-26T11:52:33Z</time></trkpt><trkpt lat="39.95174895403414" lon="15.883679887148757"><ele>798.9999999999999</ele><time>2026-04-26T11:52:34Z</time></trkpt><trkpt lat="39.951684573315816" lon="15.88368009679055"><ele>799.0</ele><time>2026-04-26T11:52:39Z</time></trkpt><trkpt lat="39.95173550032863" lon="15.883829230930067"><ele>799.0</ele><time>2026-04-26T11:52:47Z</time></trkpt><trkpt lat="39.95169751769628" lon="15.883954222193513"><ele>799.0</ele><time>2026-04-26T11:52:50Z</time></trkpt><trkpt lat="39.951657401148154" lon="15.88401995280617"><ele>798.9999999999999</ele><time>2026-04-26T11:52:51Z</time></trkpt><trkpt lat="39.951613730481505" lon="15.884108160815964"><ele>799.0</ele><time>2026-04-26T11:52:52Z</time></trkpt><trkpt lat="39.951569325888244" lon="15.884235557977107"><ele>797.5</ele><time>2026-04-26T11:52:53Z</time></trkpt><trkpt lat="39.951517549253005" lon="15.884387952000887"><ele>796.0</ele><time>2026-04-26T11:52:54Z</time></trkpt><trkpt lat="39.95145315386223" lon="15.884558465698142"><ele>794.5</ele><time>2026-04-26T11:52:55Z</time></trkpt><trkpt lat="39.95139109694133" lon="15.884736056906304"><ele>793.0</ele><time>2026-04-26T11:52:56Z</time></trkpt><trkpt lat="39.95133820474698" lon="15.884904951325822"><ele>793.0</ele><time>2026-04-26T11:52:57Z</time></trkpt><trkpt lat="39.951285421204155" lon="15.885059910694974"><ele>793.0</ele><time>2026-04-26T11:52:58Z</time></trkpt><trkpt lat="39.95123225517831" lon="15.885195787493217"><ele>793.0</ele><time>2026-04-26T11:52:59Z</time></trkpt><trkpt lat="39.95117704701007" lon="15.885308104468525"><ele>793.0</ele><time>2026-04-26T11:53:00Z</time></trkpt><trkpt lat="39.95111780231124" lon="15.885412385681601"><ele>793.0</ele><time>2026-04-26T11:53:01Z</time></trkpt><trkpt lat="39.95104796018157" lon="15.88549959241797"><ele>792.5</ele><time>2026-04-26T11:53:02Z</time></trkpt><trkpt lat="39.950955243346876" lon="15.885530697739117"><ele>792.0</ele><time>2026-04-26T11:53:03Z</time></trkpt><trkpt lat="39.95084655604595" lon="15.885570301011972"><ele>791.5</ele><time>2026-04-26T11:53:04Z</time></trkpt><trkpt lat="39.950712611347896" lon="15.88561101541205"><ele>791.0</ele><time>2026-04-26T11:53:05Z</time></trkpt><trkpt lat="39.95058111314619" lon="15.885672901428693"><ele>791.0</ele><time>2026-04-26T11:53:06Z</time></trkpt><trkpt lat="39.9504515950623" lon="15.88575284818679"><ele>791.0</ele><time>2026-04-26T11:53:07Z</time></trkpt><trkpt lat="39.95035969670251" lon="15.885890887883962"><ele>791.0</ele><time>2026-04-26T11:53:08Z</time></trkpt><trkpt lat="39.95027690897412" lon="15.886029458547824"><ele>791.0</ele><time>2026-04-26T11:53:09Z</time></trkpt><trkpt lat="39.95019529136797" lon="15.886176873874701"><ele>789.5</ele><time>2026-04-26T11:53:10Z</time></trkpt><trkpt lat="39.95009782255004" lon="15.886266739672207"><ele>788.0</ele><time>2026-04-26T11:53:11Z</time></trkpt><trkpt lat="39.94999276308295" lon="15.886339348502831"><ele>786.5</ele><time>2026-04-26T11:53:12Z</time></trkpt><trkpt lat="39.949892686720595" lon="15.886383600230182"><ele>785.0</ele><time>2026-04-26T11:53:13Z</time></trkpt><trkpt lat="39.94976962651596" lon="15.886427891561125"><ele>785.0</ele><time>2026-04-26T11:53:14Z</time></trkpt><trkpt lat="39.94964208678557" lon="15.88649091057332"><ele>785.0</ele><time>2026-04-26T11:53:15Z</time></trkpt><trkpt lat="39.949527301964345" lon="15.886533340389754"><ele>785.0</ele><time>2026-04-26T11:53:16Z</time></trkpt><trkpt lat="39.949426193465484" lon="15.886586190577411"><ele>785.0</ele><time>2026-04-26T11:53:17Z</time></trkpt><trkpt lat="39.94934166548264" lon="15.88664680037405"><ele>785.0000000000001</ele><time>2026-04-26T11:53:18Z</time></trkpt><trkpt lat="39.94928055179407" lon="15.886721011094162"><ele>785.0</ele><time>2026-04-26T11:53:18.999Z</time></trkpt><trkpt lat="39.949236717964325" lon="15.886787403679087"><ele>785.0</ele><time>2026-04-26T11:53:19.999Z</time></trkpt><trkpt lat="39.94923555920805" lon="15.886885064514471"><ele>785.0</ele><time>2026-04-26T11:53:20.999Z</time></trkpt><trkpt lat="39.949266836716255" lon="15.886973417083183"><ele>785.0000000000001</ele><time>2026-04-26T11:53:21.999Z</time></trkpt><trkpt lat="39.94935591438476" lon="15.887030916326006"><ele>785.0</ele><time>2026-04-26T11:53:22.999Z</time></trkpt><trkpt lat="39.94943784250121" lon="15.88710139866347"><ele>784.0</ele><time>2026-04-26T11:53:23.999Z</time></trkpt><trkpt lat="39.94948075858715" lon="15.887195734750124"><ele>783.0</ele><time>2026-04-26T11:53:24.999Z</time></trkpt><trkpt lat="39.94951765913507" lon="15.88737799184479"><ele>782.0</ele><time>2026-04-26T11:53:25.999Z</time></trkpt><trkpt lat="39.949572001250935" lon="15.88758864191721"><ele>781.0</ele><time>2026-04-26T11:53:26.999Z</time></trkpt><trkpt lat="39.94964080905382" lon="15.88778034447904"><ele>783.0</ele><time>2026-04-26T11:53:27.999Z</time></trkpt><trkpt lat="39.94971170215233" lon="15.887953233455185"><ele>785.0</ele><time>2026-04-26T11:53:28.999Z</time></trkpt><trkpt lat="39.94978269063281" lon="15.888092605758386"><ele>787.0</ele><time>2026-04-26T11:53:29.999Z</time></trkpt><trkpt lat="39.949794966343696" lon="15.888236968321914"><ele>789.0</ele><time>2026-04-26T11:53:30.999Z</time></trkpt><trkpt lat="39.94979850453099" lon="15.888359836942733"><ele>790.6666666666666</ele><time>2026-04-26T11:53:31.999Z</time></trkpt><trkpt lat="39.94979245543835" lon="15.88847745231408"><ele>792.3333333333333</ele><time>2026-04-26T11:53:32.999Z</time></trkpt><trkpt lat="39.94976607202597" lon="15.888591904332097"><ele>794.0</ele><time>2026-04-26T11:53:33.999Z</time></trkpt><trkpt lat="39.949728563410766" lon="15.88870178645925"><ele>795.6666666666666</ele><time>2026-04-26T11:53:34.999Z</time></trkpt><trkpt lat="39.94969493328299" lon="15.888802122554265"><ele>797.3333333333333</ele><time>2026-04-26T11:53:35.999Z</time></trkpt><trkpt lat="39.94967517682976" lon="15.888899106869207"><ele>799.0</ele><time>2026-04-26T11:53:36.999Z</time></trkpt><trkpt lat="39.949691106006" lon="15.888991517064815"><ele>799.0</ele><time>2026-04-26T11:53:37.999Z</time></trkpt><trkpt lat="39.94974434678218" lon="15.889073273903776"><ele>799.0</ele><time>2026-04-26T11:53:38.999Z</time></trkpt><trkpt lat="39.949860861653384" lon="15.889101313835923"><ele>799.0</ele><time>2026-04-26T11:53:39.999Z</time></trkpt><trkpt lat="39.94998185911403" lon="15.889135291391705"><ele>799.0</ele><time>2026-04-26T11:53:40.999Z</time></trkpt><trkpt lat="39.95008125107253" lon="15.88917102896142"><ele>799.0</ele><time>2026-04-26T11:53:41.999Z</time></trkpt><trkpt lat="39.95016525540955" lon="15.889224434272148"><ele>796.2</ele><time>2026-04-26T11:53:42.999Z</time></trkpt><trkpt lat="39.95025106688026" lon="15.88930438035065"><ele>793.4000000000001</ele><time>2026-04-26T11:53:43.999Z</time></trkpt><trkpt lat="39.950310874267146" lon="15.889393526301243"><ele>790.6</ele><time>2026-04-26T11:53:44.999Z</time></trkpt><trkpt lat="39.95034122445118" lon="15.889492363162807"><ele>787.8</ele><time>2026-04-26T11:53:45.999Z</time></trkpt><trkpt lat="39.95035655769431" lon="15.88960797632025"><ele>785.0</ele><time>2026-04-26T11:53:46.999Z</time></trkpt><trkpt lat="39.95034800760663" lon="15.889751306986321"><ele>785.0</ele><time>2026-04-26T11:53:47.999Z</time></trkpt><trkpt lat="39.950353566571735" lon="15.889893895103347"><ele>785.0</ele><time>2026-04-26T11:53:48.999Z</time></trkpt><trkpt lat="39.950354350517685" lon="15.890001770094402"><ele>785.0</ele><time>2026-04-26T11:53:49.999Z</time></trkpt><trkpt lat="39.95033997053982" lon="15.89012643872565"><ele>785.0</ele><time>2026-04-26T11:53:51.999Z</time></trkpt><trkpt lat="39.95023396480053" lon="15.890224354085179"><ele>785.0</ele><time>2026-04-26T11:53:53.999Z</time></trkpt><trkpt lat="39.95015873568069" lon="15.890302299659828"><ele>784.8</ele><time>2026-04-26T11:53:54.999Z</time></trkpt><trkpt lat="39.95009557543908" lon="15.890386745687012"><ele>784.6</ele><time>2026-04-26T11:53:55.999Z</time></trkpt><trkpt lat="39.95005789788526" lon="15.890508482811093"><ele>784.4000000000001</ele><time>2026-04-26T11:53:56.999Z</time></trkpt><trkpt lat="39.95004767857257" lon="15.890617751598425"><ele>784.2</ele><time>2026-04-26T11:53:57.999Z</time></trkpt><trkpt lat="39.9500828195837" lon="15.890745302470481"><ele>784.0</ele><time>2026-04-26T11:53:58.999Z</time></trkpt><trkpt lat="39.9501895578697" lon="15.890865739187745"><ele>783.25</ele><time>2026-04-26T11:53:59.999Z</time></trkpt><trkpt lat="39.950273570477655" lon="15.890977482549898"><ele>782.5</ele><time>2026-04-26T11:54:00.999Z</time></trkpt><trkpt lat="39.9503517778161" lon="15.891094521407004"><ele>781.75</ele><time>2026-04-26T11:54:01.999Z</time></trkpt><trkpt lat="39.95042819848949" lon="15.891199587258043"><ele>781.0</ele><time>2026-04-26T11:54:02.999Z</time></trkpt><trkpt lat="39.950524479448625" lon="15.891297419966287"><ele>781.0</ele><time>2026-04-26T11:54:03.999Z</time></trkpt><trkpt lat="39.95062938501771" lon="15.891379981617058"><ele>781.0</ele><time>2026-04-26T11:54:04.999Z</time></trkpt><trkpt lat="39.95074624611163" lon="15.891445762391468"><ele>781.0</ele><time>2026-04-26T11:54:05.999Z</time></trkpt><trkpt lat="39.950868606714145" lon="15.891487436196375"><ele>781.0</ele><time>2026-04-26T11:54:06.999Z</time></trkpt><trkpt lat="39.95100104266593" lon="15.891478530210964"><ele>778.5999999999999</ele><time>2026-04-26T11:54:07.999Z</time></trkpt><trkpt lat="39.95112110195361" lon="15.891494416503221"><ele>776.2</ele><time>2026-04-26T11:54:08.999Z</time></trkpt><trkpt lat="39.95120983722858" lon="15.891496161225312"><ele>773.8</ele><time>2026-04-26T11:54:09.999Z</time></trkpt><trkpt lat="39.951278189338815" lon="15.89151073911116"><ele>771.4000000000001</ele><time>2026-04-26T11:54:10.999Z</time></trkpt><trkpt lat="39.95135413209571" lon="15.8916389318029"><ele>769.0</ele><time>2026-04-26T11:54:12.999Z</time></trkpt><trkpt lat="39.95134362068657" lon="15.891737877116757"><ele>768.8333333333333</ele><time>2026-04-26T11:54:13.999Z</time></trkpt><trkpt lat="39.95134448859281" lon="15.891862435621134"><ele>768.6666666666666</ele><time>2026-04-26T11:54:14.999Z</time></trkpt><trkpt lat="39.95132828214677" lon="15.891967661980356"><ele>768.5</ele><time>2026-04-26T11:54:15.999Z</time></trkpt><trkpt lat="39.95130604992721" lon="15.892051586432293"><ele>768.3333333333333</ele><time>2026-04-26T11:54:16.999Z</time></trkpt><trkpt lat="39.95130354043587" lon="15.892144989508507"><ele>768.1666666666666</ele><time>2026-04-26T11:54:17.999Z</time></trkpt><trkpt lat="39.951354095968995" lon="15.892245595018883"><ele>768.0</ele><time>2026-04-26T11:54:18.999Z</time></trkpt><trkpt lat="39.9515026515016" lon="15.89224692764592"><ele>768.0</ele><time>2026-04-26T11:54:19.999Z</time></trkpt><trkpt lat="39.95161664433014" lon="15.892278291469923"><ele>768.0</ele><time>2026-04-26T11:54:20.999Z</time></trkpt><trkpt lat="39.95171347817909" lon="15.89234421896525"><ele>768.0</ele><time>2026-04-26T11:54:21.999Z</time></trkpt><trkpt lat="39.95180095762387" lon="15.892427693729514"><ele>768.0</ele><time>2026-04-26T11:54:23Z</time></trkpt><trkpt lat="39.951888420816054" lon="15.892525390619237"><ele>768.0</ele><time>2026-04-26T11:54:24Z</time></trkpt><trkpt lat="39.95196152705405" lon="15.892635969972156"><ele>764.8</ele><time>2026-04-26T11:54:25Z</time></trkpt><trkpt lat="39.952041771106245" lon="15.892749061850175"><ele>761.5999999999999</ele><time>2026-04-26T11:54:26Z</time></trkpt><trkpt lat="39.95212946951099" lon="15.892832932884005"><ele>758.4000000000001</ele><time>2026-04-26T11:54:27Z</time></trkpt><trkpt lat="39.95220847557645" lon="15.892878899064177"><ele>755.2</ele><time>2026-04-26T11:54:28Z</time></trkpt><trkpt lat="39.952329449178556" lon="15.892828828927323"><ele>752.0</ele><time>2026-04-26T11:54:29Z</time></trkpt><trkpt lat="39.952411010403026" lon="15.892748258549435"><ele>752.0</ele><time>2026-04-26T11:54:30Z</time></trkpt><trkpt lat="39.95248951129846" lon="15.89266642128288"><ele>752.0</ele><time>2026-04-26T11:54:31Z</time></trkpt><trkpt lat="39.952540145322025" lon="15.892545907687461"><ele>752.0</ele><time>2026-04-26T11:54:32Z</time></trkpt><trkpt lat="39.952583529363004" lon="15.892403687157483"><ele>752.0</ele><time>2026-04-26T11:54:33Z</time></trkpt><trkpt lat="39.95262217923319" lon="15.892246572104256"><ele>753.0</ele><time>2026-04-26T11:54:34Z</time></trkpt><trkpt lat="39.95267606360448" lon="15.892117011788386"><ele>754.0</ele><time>2026-04-26T11:54:35Z</time></trkpt><trkpt lat="39.952741755987134" lon="15.892033144404655"><ele>755.0</ele><time>2026-04-26T11:54:36Z</time></trkpt><trkpt lat="39.9528095740848" lon="15.89197387694531"><ele>756.0</ele><time>2026-04-26T11:54:37Z</time></trkpt><trkpt lat="39.95288993706292" lon="15.89194684925511"><ele>757.0</ele><time>2026-04-26T11:54:38Z</time></trkpt><trkpt lat="39.95300303945058" lon="15.891952545567934"><ele>757.0</ele><time>2026-04-26T11:54:39Z</time></trkpt><trkpt lat="39.95312991378673" lon="15.891966854419502"><ele>757.0</ele><time>2026-04-26T11:54:40Z</time></trkpt><trkpt lat="39.95326160932338" lon="15.891981566872103"><ele>757.0</ele><time>2026-04-26T11:54:41Z</time></trkpt><trkpt lat="39.95339322201823" lon="15.89199870819177"><ele>757.0</ele><time>2026-04-26T11:54:42Z</time></trkpt><trkpt lat="39.95352445656518" lon="15.892019979187793"><ele>760.25</ele><time>2026-04-26T11:54:43Z</time></trkpt><trkpt lat="39.95365284259957" lon="15.89206116084281"><ele>763.5</ele><time>2026-04-26T11:54:44Z</time></trkpt><trkpt lat="39.95376445694771" lon="15.892122454889515"><ele>766.75</ele><time>2026-04-26T11:54:45Z</time></trkpt><trkpt lat="39.95387633290839" lon="15.892187116379038"><ele>770.0</ele><time>2026-04-26T11:54:46Z</time></trkpt><trkpt lat="39.95395224852356" lon="15.892249890030143"><ele>770.0</ele><time>2026-04-26T11:54:47Z</time></trkpt><trkpt lat="39.95400957529233" lon="15.892327261144825"><ele>770.0</ele><time>2026-04-26T11:54:48Z</time></trkpt><trkpt lat="39.954077972425935" lon="15.892426182094544"><ele>770.0</ele><time>2026-04-26T11:54:49Z</time></trkpt><trkpt lat="39.95416786122046" lon="15.892514291829947"><ele>770.0</ele><time>2026-04-26T11:54:50Z</time></trkpt><trkpt lat="39.95427544109722" lon="15.892561014199309"><ele>770.0</ele><time>2026-04-26T11:54:51Z</time></trkpt><trkpt lat="39.95438835966006" lon="15.892590120746137"><ele>772.2</ele><time>2026-04-26T11:54:52Z</time></trkpt><trkpt lat="39.9545029949925" lon="15.892583233378156"><ele>774.4</ele><time>2026-04-26T11:54:53Z</time></trkpt><trkpt lat="39.95461326112714" lon="15.892537904306602"><ele>776.5999999999999</ele><time>2026-04-26T11:54:54Z</time></trkpt><trkpt lat="39.95470854151451" lon="15.892520157708525"><ele>778.8</ele><time>2026-04-26T11:54:55Z</time></trkpt><trkpt lat="39.95476481486517" lon="15.89258577040732"><ele>781.0</ele><time>2026-04-26T11:54:56Z</time></trkpt><trkpt lat="39.95482597082792" lon="15.892653136303602"><ele>781.0</ele><time>2026-04-26T11:54:57Z</time></trkpt><trkpt lat="39.95489031462843" lon="15.892742622292854"><ele>781.0</ele><time>2026-04-26T11:54:58Z</time></trkpt><trkpt lat="39.95498857067332" lon="15.892834836527872"><ele>781.0</ele><time>2026-04-26T11:54:59Z</time></trkpt><trkpt lat="39.955072284280725" lon="15.8929388111912"><ele>781.0</ele><time>2026-04-26T11:55:00Z</time></trkpt><trkpt lat="39.955179389956164" lon="15.89302716411195"><ele>784.75</ele><time>2026-04-26T11:55:01Z</time></trkpt><trkpt lat="39.95529802044691" lon="15.893104430745776"><ele>788.5</ele><time>2026-04-26T11:55:02Z</time></trkpt><trkpt lat="39.95543387302054" lon="15.893184343592269"><ele>792.25</ele><time>2026-04-26T11:55:03Z</time></trkpt><trkpt lat="39.955571713488176" lon="15.893259069655501"><ele>796.0</ele><time>2026-04-26T11:55:04Z</time></trkpt><trkpt lat="39.955712096776324" lon="15.893329771134239"><ele>796.0</ele><time>2026-04-26T11:55:05Z</time></trkpt><trkpt lat="39.95585023630836" lon="15.893377015613245"><ele>796.0</ele><time>2026-04-26T11:55:06Z</time></trkpt><trkpt lat="39.95598580939693" lon="15.893449510774907"><ele>796.0</ele><time>2026-04-26T11:55:07Z</time></trkpt><trkpt lat="39.95611802865423" lon="15.893523315207224"><ele>796.0</ele><time>2026-04-26T11:55:08Z</time></trkpt><trkpt lat="39.95624725290813" lon="15.893596430749307"><ele>796.25</ele><time>2026-04-26T11:55:09Z</time></trkpt><trkpt lat="39.95637435898034" lon="15.893672660111285"><ele>796.5</ele><time>2026-04-26T11:55:10Z</time></trkpt><trkpt lat="39.956490357671115" lon="15.893722894056475"><ele>796.75</ele><time>2026-04-26T11:55:11Z</time></trkpt><trkpt lat="39.956629355514714" lon="15.893792902419356"><ele>797.0</ele><time>2026-04-26T11:55:12Z</time></trkpt><trkpt lat="39.956766253474505" lon="15.893860944906999"><ele>797.5</ele><time>2026-04-26T11:55:13Z</time></trkpt><trkpt lat="39.95690376443377" lon="15.893939806997432"><ele>798.0</ele><time>2026-04-26T11:55:14Z</time></trkpt><trkpt lat="39.956997676619636" lon="15.894052191284551"><ele>798.5</ele><time>2026-04-26T11:55:15Z</time></trkpt><trkpt lat="39.95708981210403" lon="15.894156119577808"><ele>799.0</ele><time>2026-04-26T11:55:16Z</time></trkpt><trkpt lat="39.95719466929371" lon="15.894247004056586"><ele>797.0</ele><time>2026-04-26T11:55:17Z</time></trkpt><trkpt lat="39.95731106729175" lon="15.894309325249623"><ele>795.0</ele><time>2026-04-26T11:55:18Z</time></trkpt><trkpt lat="39.95741576927164" lon="15.894392567376846"><ele>793.0</ele><time>2026-04-26T11:55:19Z</time></trkpt><trkpt lat="39.95752229492632" lon="15.894439268323701"><ele>791.0</ele><time>2026-04-26T11:55:20Z</time></trkpt><trkpt lat="39.95759607360795" lon="15.894504558158424"><ele>789.5000000000001</ele><time>2026-04-26T11:55:21Z</time></trkpt><trkpt lat="39.95766574329323" lon="15.894550649630965"><ele>788.0</ele><time>2026-04-26T11:55:22Z</time></trkpt><trkpt lat="39.95772998072251" lon="15.89457399644921"><ele>786.5</ele><time>2026-04-26T11:55:23Z</time></trkpt><trkpt lat="39.95779987656165" lon="15.894598912485739"><ele>785.0</ele><time>2026-04-26T11:55:23.999Z</time></trkpt><trkpt lat="39.957878857549936" lon="15.894529221200356"><ele>783.5000000000001</ele><time>2026-04-26T11:55:24.999Z</time></trkpt><trkpt lat="39.95795633095298" lon="15.894472756396883"><ele>782.0</ele><time>2026-04-26T11:55:25.999Z</time></trkpt><trkpt lat="39.95803043281724" lon="15.894475451306239"><ele>782.0</ele><time>2026-04-26T11:55:26.999Z</time></trkpt><trkpt lat="39.95813677931258" lon="15.894530804819654"><ele>782.0</ele><time>2026-04-26T11:55:28.999Z</time></trkpt><trkpt lat="39.95816263532594" lon="15.8946243253135"><ele>782.0</ele><time>2026-04-26T11:55:29.999Z</time></trkpt><trkpt lat="39.95814746897392" lon="15.894789220565729"><ele>782.0</ele><time>2026-04-26T11:55:30.999Z</time></trkpt><trkpt lat="39.95811627591952" lon="15.89497516443128"><ele>778.75</ele><time>2026-04-26T11:55:31.999Z</time></trkpt><trkpt lat="39.958109926846795" lon="15.895145604242089"><ele>775.5</ele><time>2026-04-26T11:55:32.999Z</time></trkpt><trkpt lat="39.95811607242945" lon="15.89529598400641"><ele>772.25</ele><time>2026-04-26T11:55:33.999Z</time></trkpt><trkpt lat="39.958128305399924" lon="15.895430279515057"><ele>769.0</ele><time>2026-04-26T11:55:34.999Z</time></trkpt><trkpt lat="39.958116690515716" lon="15.89557406066951"><ele>769.0</ele><time>2026-04-26T11:55:35.999Z</time></trkpt><trkpt lat="39.958121934030515" lon="15.895725226290066"><ele>769.0</ele><time>2026-04-26T11:55:36.999Z</time></trkpt><trkpt lat="39.95812524040982" lon="15.895880911906483"><ele>769.0</ele><time>2026-04-26T11:55:37.999Z</time></trkpt><trkpt lat="39.95812449849056" lon="15.896041798364054"><ele>769.0</ele><time>2026-04-26T11:55:38.999Z</time></trkpt><trkpt lat="39.95810888443726" lon="15.89620085613682"><ele>766.5</ele><time>2026-04-26T11:55:39.999Z</time></trkpt><trkpt lat="39.9580921381091" lon="15.896368037925916"><ele>764.0</ele><time>2026-04-26T11:55:40.999Z</time></trkpt><trkpt lat="39.95805885819297" lon="15.896529227592618"><ele>761.5</ele><time>2026-04-26T11:55:41.999Z</time></trkpt><trkpt lat="39.9580222470567" lon="15.896683953728777"><ele>759.0</ele><time>2026-04-26T11:55:42.999Z</time></trkpt><trkpt lat="39.95798815001169" lon="15.896829108090673"><ele>756.0</ele><time>2026-04-26T11:55:43.999Z</time></trkpt><trkpt lat="39.95795660658581" lon="15.896973888171596"><ele>753.0</ele><time>2026-04-26T11:55:44.999Z</time></trkpt><trkpt lat="39.957929653388994" lon="15.8971054006654"><ele>750.0</ele><time>2026-04-26T11:55:45.999Z</time></trkpt><trkpt lat="39.95791058133159" lon="15.897236176816184"><ele>747.0</ele><time>2026-04-26T11:55:46.999Z</time></trkpt><trkpt lat="39.957870917209064" lon="15.897358417883705"><ele>744.0</ele><time>2026-04-26T11:55:47.999Z</time></trkpt><trkpt lat="39.95784670515742" lon="15.897472783356847"><ele>744.0</ele><time>2026-04-26T11:55:48.999Z</time></trkpt><trkpt lat="39.95782850578857" lon="15.89756933965765"><ele>744.0</ele><time>2026-04-26T11:55:49.999Z</time></trkpt><trkpt lat="39.95782853067703" lon="15.897662402869683"><ele>744.0</ele><time>2026-04-26T11:55:50.999Z</time></trkpt><trkpt lat="39.95783506750105" lon="15.8978201061203"><ele>744.0</ele><time>2026-04-26T11:55:52.999Z</time></trkpt><trkpt lat="39.957951975129156" lon="15.89784571490086"><ele>744.0</ele><time>2026-04-26T11:55:53.999Z</time></trkpt><trkpt lat="39.95802645521737" lon="15.89791746168807"><ele>738.8000000000001</ele><time>2026-04-26T11:55:54.999Z</time></trkpt><trkpt lat="39.95807398304968" lon="15.898016633625515"><ele>733.6</ele><time>2026-04-26T11:55:55.999Z</time></trkpt><trkpt lat="39.958117304549006" lon="15.898146169856844"><ele>728.4</ele><time>2026-04-26T11:55:56.999Z</time></trkpt><trkpt lat="39.95817545654172" lon="15.898291631511178"><ele>723.2</ele><time>2026-04-26T11:55:57.999Z</time></trkpt><trkpt lat="39.958235996692416" lon="15.898429700075933"><ele>718.0</ele><time>2026-04-26T11:55:58.999Z</time></trkpt><trkpt lat="39.9583084698492" lon="15.89855161880692"><ele>713.0</ele><time>2026-04-26T11:55:59.999Z</time></trkpt><trkpt lat="39.958395363801905" lon="15.898636523977299"><ele>708.0</ele><time>2026-04-26T11:56:00.999Z</time></trkpt><trkpt lat="39.95849008449185" lon="15.898717413884592"><ele>703.0</ele><time>2026-04-26T11:56:01.999Z</time></trkpt><trkpt lat="39.95860231690944" lon="15.898808198903618"><ele>698.0</ele><time>2026-04-26T11:56:02.999Z</time></trkpt><trkpt lat="39.958722109947956" lon="15.898872846530544"><ele>698.0</ele><time>2026-04-26T11:56:03.999Z</time></trkpt><trkpt lat="39.958842270956694" lon="15.898922156389087"><ele>698.0</ele><time>2026-04-26T11:56:04.999Z</time></trkpt><trkpt lat="39.958955705527856" lon="15.898961887416123"><ele>698.0</ele><time>2026-04-26T11:56:05.999Z</time></trkpt><trkpt lat="39.95906410281338" lon="15.8989642060303"><ele>698.0</ele><time>2026-04-26T11:56:06.999Z</time></trkpt><trkpt lat="39.95916014662731" lon="15.898997601366732"><ele>697.2</ele><time>2026-04-26T11:56:07.999Z</time></trkpt><trkpt lat="39.959240951725626" lon="15.899060495121926"><ele>696.4</ele><time>2026-04-26T11:56:08.999Z</time></trkpt><trkpt lat="39.95928136674682" lon="15.899162904827964"><ele>695.6</ele><time>2026-04-26T11:56:09.999Z</time></trkpt><trkpt lat="39.95928832240221" lon="15.899287987361866"><ele>694.8000000000001</ele><time>2026-04-26T11:56:10.999Z</time></trkpt><trkpt lat="39.9593241026488" lon="15.899428176423186"><ele>694.0</ele><time>2026-04-26T11:56:11.999Z</time></trkpt><trkpt lat="39.95935405657779" lon="15.8995805775107"><ele>694.0</ele><time>2026-04-26T11:56:12.999Z</time></trkpt><trkpt lat="39.959384698834086" lon="15.899736625481456"><ele>694.0</ele><time>2026-04-26T11:56:13.999Z</time></trkpt><trkpt lat="39.95938454611354" lon="15.89990097382886"><ele>694.0</ele><time>2026-04-26T11:56:14.999Z</time></trkpt><trkpt lat="39.95937525920098" lon="15.900063398484306"><ele>694.0</ele><time>2026-04-26T11:56:15.999Z</time></trkpt><trkpt lat="39.959371411212096" lon="15.900214467132134"><ele>690.0</ele><time>2026-04-26T11:56:16.999Z</time></trkpt><trkpt lat="39.959345209920954" lon="15.90034091523738"><ele>686.0</ele><time>2026-04-26T11:56:17.999Z</time></trkpt><trkpt lat="39.95933823627935" lon="15.900453707512215"><ele>682.0</ele><time>2026-04-26T11:56:18.999Z</time></trkpt><trkpt lat="39.959343924789565" lon="15.900552324530793"><ele>678.0</ele><time>2026-04-26T11:56:19.999Z</time></trkpt><trkpt lat="39.95937716392605" lon="15.900653339902385"><ele>674.0</ele><time>2026-04-26T11:56:20.999Z</time></trkpt><trkpt lat="39.95949209483777" lon="15.900715444293311"><ele>674.0</ele><time>2026-04-26T11:56:21.999Z</time></trkpt><trkpt lat="39.9596374915069" lon="15.900657958755128"><ele>674.0</ele><time>2026-04-26T11:56:22.999Z</time></trkpt><trkpt lat="39.95975675044467" lon="15.90068169300785"><ele>674.0</ele><time>2026-04-26T11:56:23.999Z</time></trkpt><trkpt lat="39.95985837980991" lon="15.90070298896596"><ele>674.0</ele><time>2026-04-26T11:56:24.999Z</time></trkpt><trkpt lat="39.95994023969167" lon="15.900741669717478"><ele>674.0</ele><time>2026-04-26T11:56:25.999Z</time></trkpt><trkpt lat="39.96002741190194" lon="15.900807172839123"><ele>674.0</ele><time>2026-04-26T11:56:26.999Z</time></trkpt><trkpt lat="39.96010191962868" lon="15.900919966209576"><ele>674.0</ele><time>2026-04-26T11:56:27.999Z</time></trkpt><trkpt lat="39.96018006950171" lon="15.901048626256875"><ele>674.0</ele><time>2026-04-26T11:56:29Z</time></trkpt><trkpt lat="39.96025873254895" lon="15.901202941460404"><ele>667.6666666666666</ele><time>2026-04-26T11:56:30Z</time></trkpt><trkpt lat="39.96031734962026" lon="15.901374098611834"><ele>661.3333333333334</ele><time>2026-04-26T11:56:31Z</time></trkpt><trkpt lat="39.96037754142217" lon="15.901565898111418"><ele>655.0</ele><time>2026-04-26T11:56:32Z</time></trkpt><trkpt lat="39.960437267780414" lon="15.901750065794753"><ele>653.25</ele><time>2026-04-26T11:56:33Z</time></trkpt><trkpt lat="39.960495878731" lon="15.901930794113602"><ele>651.5</ele><time>2026-04-26T11:56:34Z</time></trkpt><trkpt lat="39.96054811854409" lon="15.902103399575472"><ele>649.75</ele><time>2026-04-26T11:56:35Z</time></trkpt><trkpt lat="39.96060403701886" lon="15.902266436152289"><ele>648.0</ele><time>2026-04-26T11:56:36Z</time></trkpt><trkpt lat="39.96066483176333" lon="15.90239515509339"><ele>648.0</ele><time>2026-04-26T11:56:37Z</time></trkpt><trkpt lat="39.960728479280505" lon="15.902504484913285"><ele>648.0</ele><time>2026-04-26T11:56:38Z</time></trkpt><trkpt lat="39.96075594449009" lon="15.902635889369126"><ele>648.0</ele><time>2026-04-26T11:56:39Z</time></trkpt><trkpt lat="39.960741302401466" lon="15.902788442076938"><ele>648.0</ele><time>2026-04-26T11:56:40Z</time></trkpt><trkpt lat="39.96074636281052" lon="15.902954406165108"><ele>648.25</ele><time>2026-04-26T11:56:41Z</time></trkpt><trkpt lat="39.960743442406724" lon="15.903119053657248"><ele>648.5</ele><time>2026-04-26T11:56:42Z</time></trkpt><trkpt lat="39.96073429102514" lon="15.90326156658313"><ele>648.75</ele><time>2026-04-26T11:56:43Z</time></trkpt><trkpt lat="39.96073906934925" lon="15.903400864215884"><ele>649.0</ele><time>2026-04-26T11:56:44Z</time></trkpt><trkpt lat="39.960704656034245" lon="15.903538494112953"><ele>649.0</ele><time>2026-04-26T11:56:45Z</time></trkpt><trkpt lat="39.960647833125336" lon="15.90369060819752"><ele>649.0</ele><time>2026-04-26T11:56:46Z</time></trkpt><trkpt lat="39.96059910862609" lon="15.90386391664426"><ele>649.0</ele><time>2026-04-26T11:56:47Z</time></trkpt><trkpt lat="39.96055104566032" lon="15.904038918650656"><ele>649.0</ele><time>2026-04-26T11:56:48Z</time></trkpt><trkpt lat="39.96051262771676" lon="15.904203734051311"><ele>648.8000000000001</ele><time>2026-04-26T11:56:49Z</time></trkpt><trkpt lat="39.96048162380473" lon="15.904357098909847"><ele>648.6</ele><time>2026-04-26T11:56:50Z</time></trkpt><trkpt lat="39.96046228759532" lon="15.90450515128416"><ele>648.4</ele><time>2026-04-26T11:56:51Z</time></trkpt><trkpt lat="39.96043802481934" lon="15.904637231079892"><ele>648.2</ele><time>2026-04-26T11:56:52Z</time></trkpt><trkpt lat="39.96039250674256" lon="15.904753107101202"><ele>648.0</ele><time>2026-04-26T11:56:53Z</time></trkpt><trkpt lat="39.960345974895475" lon="15.904881582718854"><ele>648.0</ele><time>2026-04-26T11:56:54Z</time></trkpt><trkpt lat="39.960303077122646" lon="15.90501662509015"><ele>648.0</ele><time>2026-04-26T11:56:55Z</time></trkpt><trkpt lat="39.960286359670974" lon="15.90518627608567"><ele>648.0</ele><time>2026-04-26T11:56:56Z</time></trkpt><trkpt lat="39.96029026301639" lon="15.90534478294245"><ele>648.0</ele><time>2026-04-26T11:56:57Z</time></trkpt><trkpt lat="39.96025473888618" lon="15.905492800522623"><ele>647.0</ele><time>2026-04-26T11:56:58Z</time></trkpt><trkpt lat="39.96024287457328" lon="15.905631543481512"><ele>646.0</ele><time>2026-04-26T11:56:59Z</time></trkpt><trkpt lat="39.96024564091438" lon="15.90575607379193"><ele>645.0</ele><time>2026-04-26T11:57:00Z</time></trkpt><trkpt lat="39.960298391033916" lon="15.905871453489986"><ele>644.0</ele><time>2026-04-26T11:57:01Z</time></trkpt><trkpt lat="39.96033512328957" lon="15.905994162466806"><ele>643.0</ele><time>2026-04-26T11:57:02Z</time></trkpt><trkpt lat="39.96037365026721" lon="15.906109731953507"><ele>641.4</ele><time>2026-04-26T11:57:03Z</time></trkpt><trkpt lat="39.96036648914888" lon="15.906231408044702"><ele>639.8</ele><time>2026-04-26T11:57:04Z</time></trkpt><trkpt lat="39.96033658748098" lon="15.906352919728034"><ele>638.2</ele><time>2026-04-26T11:57:05Z</time></trkpt><trkpt lat="39.96030701045966" lon="15.906459786799628"><ele>636.6</ele><time>2026-04-26T11:57:06Z</time></trkpt><trkpt lat="39.960279293889165" lon="15.906577484752866"><ele>635.0</ele><time>2026-04-26T11:57:07Z</time></trkpt><trkpt lat="39.960265727555644" lon="15.906685877889814"><ele>633.0</ele><time>2026-04-26T11:57:08Z</time></trkpt><trkpt lat="39.960271909959275" lon="15.906780575303975"><ele>631.0</ele><time>2026-04-26T11:57:09Z</time></trkpt><trkpt lat="39.96027790461651" lon="15.90687271068495"><ele>629.0</ele><time>2026-04-26T11:57:10Z</time></trkpt><trkpt lat="39.96026988784891" lon="15.90696767973866"><ele>627.0</ele><time>2026-04-26T11:57:11Z</time></trkpt><trkpt lat="39.96020706066039" lon="15.907071954657427"><ele>625.0</ele><time>2026-04-26T11:57:13Z</time></trkpt><trkpt lat="39.960138352351514" lon="15.907035371609082"><ele>623.0</ele><time>2026-04-26T11:57:15Z</time></trkpt><trkpt lat="39.960141511948564" lon="15.906885184921286"><ele>623.0</ele><time>2026-04-26T11:57:17Z</time></trkpt><trkpt lat="39.96015136804377" lon="15.906782069151497"><ele>623.0</ele><time>2026-04-26T11:57:18Z</time></trkpt><trkpt lat="39.960136263100914" lon="15.906669176200245"><ele>623.0</ele><time>2026-04-26T11:57:19Z</time></trkpt><trkpt lat="39.960075356607845" lon="15.906553703804935"><ele>623.0</ele><time>2026-04-26T11:57:20Z</time></trkpt><trkpt lat="39.9600112756563" lon="15.906453704031724"><ele>623.0</ele><time>2026-04-26T11:57:21Z</time></trkpt><trkpt lat="39.959972218450524" lon="15.906327505130674"><ele>623.0</ele><time>2026-04-26T11:57:22Z</time></trkpt><trkpt lat="39.95990894383824" lon="15.906203613309039"><ele>623.0</ele><time>2026-04-26T11:57:23Z</time></trkpt><trkpt lat="39.959861393306205" lon="15.906059716261693"><ele>623.0</ele><time>2026-04-26T11:57:24Z</time></trkpt><trkpt lat="39.959814557696696" lon="15.905921799738913"><ele>623.0</ele><time>2026-04-26T11:57:25Z</time></trkpt><trkpt lat="39.959765664765364" lon="15.905783890276224"><ele>623.6</ele><time>2026-04-26T11:57:26Z</time></trkpt><trkpt lat="39.959720673647396" lon="15.90564114236824"><ele>624.1999999999999</ele><time>2026-04-26T11:57:27Z</time></trkpt><trkpt lat="39.959685278138096" lon="15.90550372805511"><ele>624.8</ele><time>2026-04-26T11:57:28Z</time></trkpt><trkpt lat="39.959654119855884" lon="15.905380646780712"><ele>625.4</ele><time>2026-04-26T11:57:29Z</time></trkpt><trkpt lat="39.95959543875386" lon="15.905272298770774"><ele>626.0</ele><time>2026-04-26T11:57:30Z</time></trkpt><trkpt lat="39.95952648047162" lon="15.905141740297898"><ele>625.0</ele><time>2026-04-26T11:57:31Z</time></trkpt><trkpt lat="39.95943006519061" lon="15.90503042202819"><ele>624.0</ele><time>2026-04-26T11:57:32Z</time></trkpt><trkpt lat="39.95931721460251" lon="15.904919626384723"><ele>623.0</ele><time>2026-04-26T11:57:33Z</time></trkpt><trkpt lat="39.959203457556654" lon="15.904814135045697"><ele>622.0</ele><time>2026-04-26T11:57:34Z</time></trkpt><trkpt lat="39.95908235686564" lon="15.90471188549403"><ele>622.0</ele><time>2026-04-26T11:57:35Z</time></trkpt><trkpt lat="39.95894041069314" lon="15.904615518922357"><ele>622.0</ele><time>2026-04-26T11:57:36Z</time></trkpt><trkpt lat="39.95880427646586" lon="15.904534131743377"><ele>622.0</ele><time>2026-04-26T11:57:36.999Z</time></trkpt><trkpt lat="39.958680847747004" lon="15.90446034037141"><ele>622.0</ele><time>2026-04-26T11:57:37.999Z</time></trkpt><trkpt lat="39.95857502782267" lon="15.904402081552712"><ele>622.0</ele><time>2026-04-26T11:57:38.999Z</time></trkpt><trkpt lat="39.95846544839585" lon="15.904408745962261"><ele>622.0</ele><time>2026-04-26T11:57:39.999Z</time></trkpt><trkpt lat="39.95835665373142" lon="15.904425846092085"><ele>622.0</ele><time>2026-04-26T11:57:40.999Z</time></trkpt><trkpt lat="39.9582320208618" lon="15.904432418373569"><ele>622.0</ele><time>2026-04-26T11:57:41.999Z</time></trkpt><trkpt lat="39.95810347312591" lon="15.9044243204361"><ele>619.5</ele><time>2026-04-26T11:57:42.999Z</time></trkpt><trkpt lat="39.95795469973654" lon="15.904407858144536"><ele>617.0</ele><time>2026-04-26T11:57:43.999Z</time></trkpt><trkpt lat="39.95782061796587" lon="15.904390925510537"><ele>614.5</ele><time>2026-04-26T11:57:44.999Z</time></trkpt><trkpt lat="39.95769413704462" lon="15.904368860348422"><ele>612.0</ele><time>2026-04-26T11:57:45.999Z</time></trkpt><trkpt lat="39.957562216335575" lon="15.904336129399303"><ele>613.0</ele><time>2026-04-26T11:57:46.999Z</time></trkpt><trkpt lat="39.957422844033076" lon="15.904287142269178"><ele>614.0</ele><time>2026-04-26T11:57:47.999Z</time></trkpt><trkpt lat="39.957286166793445" lon="15.904232671590977"><ele>615.0</ele><time>2026-04-26T11:57:48.999Z</time></trkpt><trkpt lat="39.957159039026365" lon="15.904184493704737"><ele>616.0</ele><time>2026-04-26T11:57:49.999Z</time></trkpt><trkpt lat="39.9570341756027" lon="15.904150272036883"><ele>616.0</ele><time>2026-04-26T11:57:50.999Z</time></trkpt><trkpt lat="39.95688911510289" lon="15.904150950866956"><ele>616.0</ele><time>2026-04-26T11:57:51.999Z</time></trkpt><trkpt lat="39.956752048658025" lon="15.904154198444907"><ele>616.0</ele><time>2026-04-26T11:57:52.999Z</time></trkpt><trkpt lat="39.9566268741587" lon="15.90416090537947"><ele>616.0</ele><time>2026-04-26T11:57:53.999Z</time></trkpt><trkpt lat="39.9565133781183" lon="15.904189801086892"><ele>612.5</ele><time>2026-04-26T11:57:54.999Z</time></trkpt><trkpt lat="39.95642656960968" lon="15.904293313235414"><ele>609.0</ele><time>2026-04-26T11:57:55.999Z</time></trkpt><trkpt lat="39.956346875248556" lon="15.904413046895364"><ele>605.5</ele><time>2026-04-26T11:57:56.999Z</time></trkpt><trkpt lat="39.956256268663864" lon="15.904529156655713"><ele>602.0</ele><time>2026-04-26T11:57:57.999Z</time></trkpt><trkpt lat="39.95616877428598" lon="15.90461719803407"><ele>602.0</ele><time>2026-04-26T11:57:58.999Z</time></trkpt><trkpt lat="39.95608985230644" lon="15.904675280806671"><ele>602.0</ele><time>2026-04-26T11:57:59.999Z</time></trkpt><trkpt lat="39.956010106731284" lon="15.90469406016461"><ele>602.0</ele><time>2026-04-26T11:58:00.999Z</time></trkpt><trkpt lat="39.95594509899227" lon="15.904650398436065"><ele>602.0</ele><time>2026-04-26T11:58:01.999Z</time></trkpt><trkpt lat="39.95586213434032" lon="15.904589798881604"><ele>602.0</ele><time>2026-04-26T11:58:02.999Z</time></trkpt><trkpt lat="39.95576974367779" lon="15.90454093443044"><ele>602.0</ele><time>2026-04-26T11:58:03.999Z</time></trkpt><trkpt lat="39.955656185158624" lon="15.904563397971465"><ele>601.5</ele><time>2026-04-26T11:58:04.999Z</time></trkpt><trkpt lat="39.95552360163819" lon="15.90463093789513"><ele>601.0</ele><time>2026-04-26T11:58:05.999Z</time></trkpt><trkpt lat="39.95541288010174" lon="15.904673827818945"><ele>600.5</ele><time>2026-04-26T11:58:06.999Z</time></trkpt><trkpt lat="39.95531836557788" lon="15.904693860109822"><ele>600.0</ele><time>2026-04-26T11:58:07.999Z</time></trkpt><trkpt lat="39.955210491230126" lon="15.904689535823541"><ele>600.0</ele><time>2026-04-26T11:58:08.999Z</time></trkpt><trkpt lat="39.955086091806685" lon="15.904666031397952"><ele>600.0</ele><time>2026-04-26T11:58:09.999Z</time></trkpt><trkpt lat="39.95497313847583" lon="15.904663475005794"><ele>600.0</ele><time>2026-04-26T11:58:10.999Z</time></trkpt><trkpt lat="39.95488234944383" lon="15.904622410135042"><ele>600.0</ele><time>2026-04-26T11:58:11.999Z</time></trkpt><trkpt lat="39.95480111796293" lon="15.90462280948633"><ele>600.0</ele><time>2026-04-26T11:58:12.999Z</time></trkpt><trkpt lat="39.95472234887254" lon="15.90465139789081"><ele>600.0</ele><time>2026-04-26T11:58:13.999Z</time></trkpt><trkpt lat="39.954663422476436" lon="15.904714796932955"><ele>600.0</ele><time>2026-04-26T11:58:14.999Z</time></trkpt><trkpt lat="39.95463540958903" lon="15.904791631913072"><ele>600.0</ele><time>2026-04-26T11:58:15.999Z</time></trkpt><trkpt lat="39.95462489121425" lon="15.904921765846858"><ele>600.0</ele><time>2026-04-26T11:58:16.999Z</time></trkpt><trkpt lat="39.954621363908316" lon="15.905049481354474"><ele>600.0</ele><time>2026-04-26T11:58:17.999Z</time></trkpt><trkpt lat="39.95456857030225" lon="15.905117193852458"><ele>600.0</ele><time>2026-04-26T11:58:18.999Z</time></trkpt><trkpt lat="39.95462807492565" lon="15.905263863533458"><ele>598.75</ele><time>2026-04-26T11:58:19.999Z</time></trkpt><trkpt lat="39.954705052209285" lon="15.905386317626675"><ele>597.5</ele><time>2026-04-26T11:58:20.999Z</time></trkpt><trkpt lat="39.95474880354792" lon="15.905514708799492"><ele>596.25</ele><time>2026-04-26T11:58:21.999Z</time></trkpt><trkpt lat="39.95472772902531" lon="15.905689002595919"><ele>595.0</ele><time>2026-04-26T11:58:22.999Z</time></trkpt><trkpt lat="39.95470710014747" lon="15.905878278204618"><ele>594.6</ele><time>2026-04-26T11:58:23.999Z</time></trkpt><trkpt lat="39.954692027201936" lon="15.90602121781032"><ele>594.2</ele><time>2026-04-26T11:58:24.999Z</time></trkpt><trkpt lat="39.95465302364637" lon="15.906126041862949"><ele>593.8</ele><time>2026-04-26T11:58:25.999Z</time></trkpt><trkpt lat="39.9546245685148" lon="15.906229411461183"><ele>593.4</ele><time>2026-04-26T11:58:26.999Z</time></trkpt><trkpt lat="39.954562890824675" lon="15.90630352173438"><ele>593.0</ele><time>2026-04-26T11:58:27.999Z</time></trkpt><trkpt lat="39.95446996955092" lon="15.906320943846989"><ele>593.0</ele><time>2026-04-26T11:58:28.999Z</time></trkpt><trkpt lat="39.95434464178907" lon="15.906319368144182"><ele>593.0</ele><time>2026-04-26T11:58:29.999Z</time></trkpt><trkpt lat="39.954218872759334" lon="15.90635228907935"><ele>593.0</ele><time>2026-04-26T11:58:30.999Z</time></trkpt><trkpt lat="39.954110127587725" lon="15.906396611425139"><ele>593.0</ele><time>2026-04-26T11:58:31.999Z</time></trkpt><trkpt lat="39.954050823275196" lon="15.906463225877232"><ele>593.0</ele><time>2026-04-26T11:58:32.999Z</time></trkpt><trkpt lat="39.953956355308414" lon="15.906585618654248"><ele>597.25</ele><time>2026-04-26T11:58:35Z</time></trkpt><trkpt lat="39.9539816592075" lon="15.90668785110047"><ele>601.5</ele><time>2026-04-26T11:58:36Z</time></trkpt><trkpt lat="39.95403084235511" lon="15.906785854843086"><ele>605.75</ele><time>2026-04-26T11:58:37Z</time></trkpt><trkpt lat="39.954175833693704" lon="15.906964735272583"><ele>610.0</ele><time>2026-04-26T11:58:38Z</time></trkpt><trkpt lat="39.954192205589244" lon="15.907083279773897"><ele>611.3333333333334</ele><time>2026-04-26T11:58:39Z</time></trkpt><trkpt lat="39.95417116381115" lon="15.90719896604636"><ele>612.6666666666667</ele><time>2026-04-26T11:58:40Z</time></trkpt><trkpt lat="39.95411399460502" lon="15.907275247613578"><ele>614.0</ele><time>2026-04-26T11:58:41Z</time></trkpt><trkpt lat="39.954043986229166" lon="15.907351464043064"><ele>615.3333333333334</ele><time>2026-04-26T11:58:42Z</time></trkpt><trkpt lat="39.95403869195451" lon="15.907437841556604"><ele>616.6666666666666</ele><time>2026-04-26T11:58:43Z</time></trkpt><trkpt lat="39.95408714530665" lon="15.907506797906008"><ele>618.0</ele><time>2026-04-26T11:58:44Z</time></trkpt><trkpt lat="39.954174616542595" lon="15.907584960057267"><ele>613.4</ele><time>2026-04-26T11:58:45Z</time></trkpt><trkpt lat="39.954255767538825" lon="15.907645449077089"><ele>608.8</ele><time>2026-04-26T11:58:46Z</time></trkpt><trkpt lat="39.95431404534209" lon="15.9077256908968"><ele>604.2</ele><time>2026-04-26T11:58:47Z</time></trkpt><trkpt lat="39.954328271570915" lon="15.907823347289815"><ele>599.6</ele><time>2026-04-26T11:58:48Z</time></trkpt><trkpt lat="39.954307008994654" lon="15.907969068836525"><ele>595.0</ele><time>2026-04-26T11:58:49Z</time></trkpt><trkpt lat="39.95422111706433" lon="15.908093145669456"><ele>601.75</ele><time>2026-04-26T11:58:50Z</time></trkpt><trkpt lat="39.95415407943022" lon="15.90822883061868"><ele>608.5</ele><time>2026-04-26T11:58:51Z</time></trkpt><trkpt lat="39.954122019563485" lon="15.908388747454891"><ele>615.25</ele><time>2026-04-26T11:58:52Z</time></trkpt><trkpt lat="39.954094782991305" lon="15.908553304794777"><ele>622.0</ele><time>2026-04-26T11:58:53Z</time></trkpt><trkpt lat="39.95406578452756" lon="15.908706066187095"><ele>622.4</ele><time>2026-04-26T11:58:54Z</time></trkpt><trkpt lat="39.95402745818178" lon="15.908837940903148"><ele>622.8000000000001</ele><time>2026-04-26T11:58:55Z</time></trkpt><trkpt lat="39.95397703503682" lon="15.908968937943165"><ele>623.2</ele><time>2026-04-26T11:58:56Z</time></trkpt><trkpt lat="39.953903196302974" lon="15.909056618035626"><ele>623.6</ele><time>2026-04-26T11:58:57Z</time></trkpt><trkpt lat="39.95380194940414" lon="15.909094749452679"><ele>624.0</ele><time>2026-04-26T11:58:58Z</time></trkpt><trkpt lat="39.953706075839904" lon="15.909119862948318"><ele>624.0</ele><time>2026-04-26T11:58:59Z</time></trkpt><trkpt lat="39.95362175040364" lon="15.909205215787644"><ele>624.0</ele><time>2026-04-26T11:59:00Z</time></trkpt><trkpt lat="39.95357191579672" lon="15.909311699641506"><ele>624.0</ele><time>2026-04-26T11:59:01Z</time></trkpt><trkpt lat="39.953541563718545" lon="15.909402812074703"><ele>624.0</ele><time>2026-04-26T11:59:02Z</time></trkpt><trkpt lat="39.95354915165677" lon="15.909487810044247"><ele>624.0</ele><time>2026-04-26T11:59:03Z</time></trkpt><trkpt lat="39.95359611790956" lon="15.909551513594948"><ele>624.0</ele><time>2026-04-26T11:59:04Z</time></trkpt><trkpt lat="39.95367103934095" lon="15.909574501366448"><ele>626.8</ele><time>2026-04-26T11:59:05Z</time></trkpt><trkpt lat="39.95375791711464" lon="15.909562667634674"><ele>629.5999999999999</ele><time>2026-04-26T11:59:06Z</time></trkpt><trkpt lat="39.953862930812356" lon="15.909544809047834"><ele>632.4</ele><time>2026-04-26T11:59:07Z</time></trkpt><trkpt lat="39.953959783286834" lon="15.90956158665473"><ele>635.1999999999999</ele><time>2026-04-26T11:59:08Z</time></trkpt><trkpt lat="39.95403326476126" lon="15.90964244307006"><ele>638.0</ele><time>2026-04-26T11:59:09Z</time></trkpt><trkpt lat="39.95410987727274" lon="15.9097771409791"><ele>638.0</ele><time>2026-04-26T11:59:10Z</time></trkpt><trkpt lat="39.95420393408347" lon="15.909896747631842"><ele>638.0</ele><time>2026-04-26T11:59:11Z</time></trkpt><trkpt lat="39.95432566066268" lon="15.909970849628705"><ele>638.0</ele><time>2026-04-26T11:59:12Z</time></trkpt><trkpt lat="39.954423778959175" lon="15.910053303253717"><ele>638.0</ele><time>2026-04-26T11:59:13Z</time></trkpt><trkpt lat="39.954505121830515" lon="15.910181038811732"><ele>636.25</ele><time>2026-04-26T11:59:14Z</time></trkpt><trkpt lat="39.95457687049983" lon="15.910322099177332"><ele>634.5</ele><time>2026-04-26T11:59:15Z</time></trkpt><trkpt lat="39.95461018275808" lon="15.91051363326236"><ele>632.75</ele><time>2026-04-26T11:59:16Z</time></trkpt><trkpt lat="39.954637990396286" lon="15.910724219750007"><ele>631.0</ele><time>2026-04-26T11:59:17Z</time></trkpt><trkpt lat="39.95465188052505" lon="15.910918590777463"><ele>630.0</ele><time>2026-04-26T11:59:18Z</time></trkpt><trkpt lat="39.95467842866479" lon="15.911084189145956"><ele>629.0</ele><time>2026-04-26T11:59:19Z</time></trkpt><trkpt lat="39.954711976594744" lon="15.911227455285161"><ele>628.0</ele><time>2026-04-26T11:59:20Z</time></trkpt><trkpt lat="39.95473337035863" lon="15.911342406890967"><ele>627.0</ele><time>2026-04-26T11:59:21Z</time></trkpt><trkpt lat="39.95471354585411" lon="15.911431820164028"><ele>626.0</ele><time>2026-04-26T11:59:22Z</time></trkpt><trkpt lat="39.9546525608466" lon="15.911491248525357"><ele>626.0</ele><time>2026-04-26T11:59:23Z</time></trkpt><trkpt lat="39.954555357646385" lon="15.911500305819228"><ele>626.0</ele><time>2026-04-26T11:59:24Z</time></trkpt><trkpt lat="39.954442789223066" lon="15.911487768294629"><ele>626.0</ele><time>2026-04-26T11:59:25Z</time></trkpt><trkpt lat="39.95433713378697" lon="15.911513558450883"><ele>626.0</ele><time>2026-04-26T11:59:26Z</time></trkpt><trkpt lat="39.95424357992986" lon="15.911612917444334"><ele>626.0</ele><time>2026-04-26T11:59:27Z</time></trkpt><trkpt lat="39.95416155361204" lon="15.911753461243608"><ele>627.75</ele><time>2026-04-26T11:59:28Z</time></trkpt><trkpt lat="39.95406690275022" lon="15.911862772391625"><ele>629.5</ele><time>2026-04-26T11:59:29Z</time></trkpt><trkpt lat="39.95395356595807" lon="15.91192058689827"><ele>631.25</ele><time>2026-04-26T11:59:30Z</time></trkpt><trkpt lat="39.9538430174496" lon="15.911938647241186"><ele>633.0</ele><time>2026-04-26T11:59:31Z</time></trkpt><trkpt lat="39.95372519087662" lon="15.911906394518383"><ele>633.0</ele><time>2026-04-26T11:59:32Z</time></trkpt><trkpt lat="39.953606945619626" lon="15.9118468898801"><ele>633.0</ele><time>2026-04-26T11:59:33Z</time></trkpt><trkpt lat="39.95351054932992" lon="15.911763734561795"><ele>633.0</ele><time>2026-04-26T11:59:34Z</time></trkpt><trkpt lat="39.95343085861527" lon="15.911662941067"><ele>633.0</ele><time>2026-04-26T11:59:35Z</time></trkpt><trkpt lat="39.95335889996616" lon="15.911570624219284"><ele>636.0</ele><time>2026-04-26T11:59:36Z</time></trkpt><trkpt lat="39.95329330941876" lon="15.91152407925722"><ele>639.0</ele><time>2026-04-26T11:59:37Z</time></trkpt><trkpt lat="39.953226341207056" lon="15.911540563138756"><ele>642.0</ele><time>2026-04-26T11:59:38Z</time></trkpt><trkpt lat="39.953179608336164" lon="15.911610038260198"><ele>645.0</ele><time>2026-04-26T11:59:39Z</time></trkpt><trkpt lat="39.9531780072192" lon="15.911718409708698"><ele>648.0</ele><time>2026-04-26T11:59:40Z</time></trkpt><trkpt lat="39.95321626730047" lon="15.911837097172443"><ele>651.0</ele><time>2026-04-26T11:59:41Z</time></trkpt><trkpt lat="39.95326230543865" lon="15.911975865317457"><ele>651.0</ele><time>2026-04-26T11:59:42Z</time></trkpt><trkpt lat="39.95329196168346" lon="15.912131575430065"><ele>651.0</ele><time>2026-04-26T11:59:42.999Z</time></trkpt><trkpt lat="39.95330526762694" lon="15.912271317004626"><ele>651.0</ele><time>2026-04-26T11:59:43.999Z</time></trkpt><trkpt lat="39.95330116936228" lon="15.912379681728098"><ele>651.0</ele><time>2026-04-26T11:59:44.999Z</time></trkpt><trkpt lat="39.95326712476674" lon="15.912485232902023"><ele>651.0</ele><time>2026-04-26T11:59:45.999Z</time></trkpt><trkpt lat="39.953175848315475" lon="15.912569693179353"><ele>652.4</ele><time>2026-04-26T11:59:46.999Z</time></trkpt><trkpt lat="39.953083985529574" lon="15.912633148653873"><ele>653.8</ele><time>2026-04-26T11:59:47.999Z</time></trkpt><trkpt lat="39.95298596447012" lon="15.912655775623692"><ele>655.1999999999999</ele><time>2026-04-26T11:59:48.999Z</time></trkpt><trkpt lat="39.95288574209928" lon="15.912680393325411"><ele>656.5999999999999</ele><time>2026-04-26T11:59:49.999Z</time></trkpt><trkpt lat="39.95279806863458" lon="15.912688528678597"><ele>658.0</ele><time>2026-04-26T11:59:50.999Z</time></trkpt><trkpt lat="39.952730642452494" lon="15.912731307155918"><ele>658.0</ele><time>2026-04-26T11:59:51.999Z</time></trkpt><trkpt lat="39.952696129089276" lon="15.912838783131571"><ele>658.0</ele><time>2026-04-26T11:59:52.999Z</time></trkpt><trkpt lat="39.95272059154252" lon="15.912963900087597"><ele>658.0</ele><time>2026-04-26T11:59:53.999Z</time></trkpt><trkpt lat="39.952782376982846" lon="15.913056157576701"><ele>658.0</ele><time>2026-04-26T11:59:54.999Z</time></trkpt><trkpt lat="39.95288469949125" lon="15.913105480190197"><ele>658.0</ele><time>2026-04-26T11:59:55.999Z</time></trkpt><trkpt lat="39.9530120387425" lon="15.91312785857956"><ele>658.0</ele><time>2026-04-26T11:59:56.999Z</time></trkpt><trkpt lat="39.95310675863877" lon="15.913188638663557"><ele>658.0</ele><time>2026-04-26T11:59:57.999Z</time></trkpt><trkpt lat="39.95316356429272" lon="15.913286857670668"><ele>658.0</ele><time>2026-04-26T11:59:58.999Z</time></trkpt><trkpt lat="39.953186666863054" lon="15.913418773430873"><ele>658.0</ele><time>2026-04-26T11:59:59.999Z</time></trkpt><trkpt lat="39.9531799536778" lon="15.913533376629317"><ele>658.0</ele><time>2026-04-26T12:00:00.999Z</time></trkpt><trkpt lat="39.95314675802148" lon="15.91364833963779"><ele>660.0</ele><time>2026-04-26T12:00:01.999Z</time></trkpt><trkpt lat="39.95316942469575" lon="15.913744058574654"><ele>662.0</ele><time>2026-04-26T12:00:02.999Z</time></trkpt><trkpt lat="39.95323883723395" lon="15.913807768222634"><ele>664.0</ele><time>2026-04-26T12:00:03.999Z</time></trkpt><trkpt lat="39.953340246762444" lon="15.913813057906957"><ele>666.0</ele><time>2026-04-26T12:00:04.999Z</time></trkpt><trkpt lat="39.953440571300526" lon="15.913755419159202"><ele>668.0</ele><time>2026-04-26T12:00:05.999Z</time></trkpt><trkpt lat="39.95353591806046" lon="15.913689604243077"><ele>668.0</ele><time>2026-04-26T12:00:06.999Z</time></trkpt><trkpt lat="39.95362450554474" lon="15.913636181976079"><ele>668.0</ele><time>2026-04-26T12:00:07.999Z</time></trkpt><trkpt lat="39.95374449615564" lon="15.913652698868576"><ele>668.0</ele><time>2026-04-26T12:00:08.999Z</time></trkpt><trkpt lat="39.95385059506397" lon="15.913689562126311"><ele>668.0</ele><time>2026-04-26T12:00:09.999Z</time></trkpt><trkpt lat="39.95393081291005" lon="15.91375905653845"><ele>668.0</ele><time>2026-04-26T12:00:10.999Z</time></trkpt><trkpt lat="39.95402911798586" lon="15.913906118169116"><ele>668.0</ele><time>2026-04-26T12:00:11.999Z</time></trkpt><trkpt lat="39.95411637823829" lon="15.914036485220388"><ele>668.0</ele><time>2026-04-26T12:00:12.999Z</time></trkpt><trkpt lat="39.95420634308481" lon="15.914157363889544"><ele>668.0</ele><time>2026-04-26T12:00:13.999Z</time></trkpt><trkpt lat="39.95430244424109" lon="15.91425685227723"><ele>668.0</ele><time>2026-04-26T12:00:14.999Z</time></trkpt><trkpt lat="39.95439081062479" lon="15.91434792485284"><ele>663.0</ele><time>2026-04-26T12:00:15.999Z</time></trkpt><trkpt lat="39.95446281943294" lon="15.914444890257464"><ele>658.0</ele><time>2026-04-26T12:00:16.999Z</time></trkpt><trkpt lat="39.95449795182786" lon="15.914562951498464"><ele>653.0</ele><time>2026-04-26T12:00:17.999Z</time></trkpt><trkpt lat="39.95448018474668" lon="15.91469509310283"><ele>648.0</ele><time>2026-04-26T12:00:18.999Z</time></trkpt><trkpt lat="39.95441400952548" lon="15.914823624007735"><ele>643.0</ele><time>2026-04-26T12:00:19.999Z</time></trkpt><trkpt lat="39.954309643464214" lon="15.914922906010538"><ele>643.0</ele><time>2026-04-26T12:00:20.999Z</time></trkpt><trkpt lat="39.95424010503419" lon="15.915038434987686"><ele>643.0</ele><time>2026-04-26T12:00:21.999Z</time></trkpt><trkpt lat="39.95421616718105" lon="15.915168836960186"><ele>643.0</ele><time>2026-04-26T12:00:22.999Z</time></trkpt><trkpt lat="39.954220390257184" lon="15.9153183072274"><ele>643.0</ele><time>2026-04-26T12:00:23.999Z</time></trkpt><trkpt lat="39.95419743487553" lon="15.915448506985651"><ele>643.0</ele><time>2026-04-26T12:00:24.999Z</time></trkpt><trkpt lat="39.95412576483597" lon="15.91555164612264"><ele>645.8</ele><time>2026-04-26T12:00:25.999Z</time></trkpt><trkpt lat="39.954051933585106" lon="15.915643423953655"><ele>648.5999999999999</ele><time>2026-04-26T12:00:26.999Z</time></trkpt><trkpt lat="39.95402725303101" lon="15.915762530359363"><ele>651.4000000000001</ele><time>2026-04-26T12:00:27.999Z</time></trkpt><trkpt lat="39.95405383735997" lon="15.915887250963243"><ele>654.2</ele><time>2026-04-26T12:00:28.999Z</time></trkpt><trkpt lat="39.95413159003887" lon="15.916004360831375"><ele>657.0</ele><time>2026-04-26T12:00:29.999Z</time></trkpt><trkpt lat="39.95423817397606" lon="15.916108161329161"><ele>657.0</ele><time>2026-04-26T12:00:30.999Z</time></trkpt><trkpt lat="39.954340665716494" lon="15.916195501934407"><ele>657.0</ele><time>2026-04-26T12:00:31.999Z</time></trkpt><trkpt lat="39.95442457408386" lon="15.916287122751049"><ele>657.0</ele><time>2026-04-26T12:00:32.999Z</time></trkpt><trkpt lat="39.95448936321917" lon="15.91639179249286"><ele>657.0</ele><time>2026-04-26T12:00:33.999Z</time></trkpt><trkpt lat="39.95452432155968" lon="15.916518798514524"><ele>657.0</ele><time>2026-04-26T12:00:34.999Z</time></trkpt><trkpt lat="39.95453699143862" lon="15.916676130141385"><ele>660.0</ele><time>2026-04-26T12:00:35.999Z</time></trkpt><trkpt lat="39.95454285373879" lon="15.916839923697584"><ele>663.0</ele><time>2026-04-26T12:00:36.999Z</time></trkpt><trkpt lat="39.95454842972034" lon="15.916981732639847"><ele>666.0</ele><time>2026-04-26T12:00:37.999Z</time></trkpt><trkpt lat="39.954557790075846" lon="15.9171129545438"><ele>669.0</ele><time>2026-04-26T12:00:38.999Z</time></trkpt><trkpt lat="39.95455990717459" lon="15.917252150040618"><ele>672.0</ele><time>2026-04-26T12:00:40Z</time></trkpt><trkpt lat="39.95458191273452" lon="15.91737784449638"><ele>672.0</ele><time>2026-04-26T12:00:41Z</time></trkpt><trkpt lat="39.954624678461016" lon="15.91748124495479"><ele>672.0</ele><time>2026-04-26T12:00:42Z</time></trkpt><trkpt lat="39.9546801802355" lon="15.917539764561527"><ele>672.0</ele><time>2026-04-26T12:00:43Z</time></trkpt><trkpt lat="39.95475658057191" lon="15.917574471332756"><ele>672.0</ele><time>2026-04-26T12:00:45Z</time></trkpt><trkpt lat="39.954817997341515" lon="15.91768955234684"><ele>672.0</ele><time>2026-04-26T12:00:53Z</time></trkpt><trkpt lat="39.954883885453384" lon="15.917793409528503"><ele>672.8333333333334</ele><time>2026-04-26T12:00:54Z</time></trkpt><trkpt lat="39.9549215387391" lon="15.917891191224962"><ele>673.6666666666666</ele><time>2026-04-26T12:00:55Z</time></trkpt><trkpt lat="39.954926263759916" lon="15.917988222548486"><ele>674.5</ele><time>2026-04-26T12:00:56Z</time></trkpt><trkpt lat="39.9549091135849" lon="15.91808811966636"><ele>675.3333333333333</ele><time>2026-04-26T12:00:57Z</time></trkpt><trkpt lat="39.95486175665442" lon="15.918181560719876"><ele>676.1666666666666</ele><time>2026-04-26T12:00:58Z</time></trkpt><trkpt lat="39.954778363854764" lon="15.918269838272751"><ele>677.0</ele><time>2026-04-26T12:00:59Z</time></trkpt><trkpt lat="39.95468015112294" lon="15.91835044452724"><ele>675.2</ele><time>2026-04-26T12:01:00Z</time></trkpt><trkpt lat="39.954586956753666" lon="15.918426084295092"><ele>673.4000000000001</ele><time>2026-04-26T12:01:01Z</time></trkpt><trkpt lat="39.95448619220094" lon="15.918487851357922"><ele>671.5999999999999</ele><time>2026-04-26T12:01:02Z</time></trkpt><trkpt lat="39.954382326575654" lon="15.918520587590304"><ele>669.8</ele><time>2026-04-26T12:01:03Z</time></trkpt><trkpt lat="39.9542957591184" lon="15.918545928830296"><ele>668.0</ele><time>2026-04-26T12:01:04Z</time></trkpt><trkpt lat="39.95421900778676" lon="15.91857764883516"><ele>666.6666666666666</ele><time>2026-04-26T12:01:05Z</time></trkpt><trkpt lat="39.95414248592947" lon="15.918615137427999"><ele>665.3333333333333</ele><time>2026-04-26T12:01:06Z</time></trkpt><trkpt lat="39.954058911107396" lon="15.91865299128902"><ele>664.0</ele><time>2026-04-26T12:01:07Z</time></trkpt><trkpt lat="39.95397724807388" lon="15.918686705597523"><ele>662.6666666666666</ele><time>2026-04-26T12:01:08Z</time></trkpt><trkpt lat="39.95389722846087" lon="15.918727831069893"><ele>661.3333333333334</ele><time>2026-04-26T12:01:09Z</time></trkpt><trkpt lat="39.95380847319521" lon="15.918769946612976"><ele>660.0</ele><time>2026-04-26T12:01:10Z</time></trkpt><trkpt lat="39.953711330674516" lon="15.918802445823967"><ele>660.0</ele><time>2026-04-26T12:01:11Z</time></trkpt><trkpt lat="39.953608734244675" lon="15.918810279926118"><ele>660.0</ele><time>2026-04-26T12:01:12Z</time></trkpt><trkpt lat="39.95350382347128" lon="15.918801951893872"><ele>660.0</ele><time>2026-04-26T12:01:13Z</time></trkpt><trkpt lat="39.95341232023913" lon="15.918793863772455"><ele>660.0</ele><time>2026-04-26T12:01:14Z</time></trkpt><trkpt lat="39.95332926936971" lon="15.918785935039605"><ele>660.0</ele><time>2026-04-26T12:01:15Z</time></trkpt><trkpt lat="39.9532425367309" lon="15.9187542189224"><ele>660.25</ele><time>2026-04-26T12:01:16Z</time></trkpt><trkpt lat="39.953139407350356" lon="15.91870095421325"><ele>660.5</ele><time>2026-04-26T12:01:17Z</time></trkpt><trkpt lat="39.953029513723834" lon="15.918617876796919"><ele>660.75</ele><time>2026-04-26T12:01:18Z</time></trkpt><trkpt lat="39.9529287271115" lon="15.91852012999418"><ele>661.0</ele><time>2026-04-26T12:01:19Z</time></trkpt><trkpt lat="39.952846215144284" lon="15.91843785010929"><ele>659.8</ele><time>2026-04-26T12:01:20Z</time></trkpt><trkpt lat="39.9527785186456" lon="15.91838376176432"><ele>658.5999999999999</ele><time>2026-04-26T12:01:21Z</time></trkpt><trkpt lat="39.952701758746095" lon="15.91837447152548"><ele>657.4</ele><time>2026-04-26T12:01:22Z</time></trkpt><trkpt lat="39.95261582255995" lon="15.918375428153317"><ele>656.2</ele><time>2026-04-26T12:01:23Z</time></trkpt><trkpt lat="39.95252800845375" lon="15.918494824896213"><ele>655.0</ele><time>2026-04-26T12:01:24Z</time></trkpt><trkpt lat="39.95245865963212" lon="15.918563272021832"><ele>655.0</ele><time>2026-04-26T12:01:25Z</time></trkpt><trkpt lat="39.95239018505407" lon="15.918611275969198"><ele>655.0</ele><time>2026-04-26T12:01:26Z</time></trkpt><trkpt lat="39.952299997080644" lon="15.918622479619803"><ele>655.0</ele><time>2026-04-26T12:01:27Z</time></trkpt><trkpt lat="39.95219251196864" lon="15.918572561283886"><ele>655.0</ele><time>2026-04-26T12:01:28Z</time></trkpt><trkpt lat="39.95208091415909" lon="15.918512905903745"><ele>655.0</ele><time>2026-04-26T12:01:29Z</time></trkpt><trkpt lat="39.95196525899369" lon="15.918453286719622"><ele>655.0</ele><time>2026-04-26T12:01:30Z</time></trkpt><trkpt lat="39.95180111545799" lon="15.918445021244574"><ele>655.0</ele><time>2026-04-26T12:01:31Z</time></trkpt><trkpt lat="39.95164509526224" lon="15.918469582968466"><ele>655.0</ele><time>2026-04-26T12:01:32Z</time></trkpt><trkpt lat="39.95152231906742" lon="15.918476305305601"><ele>655.0</ele><time>2026-04-26T12:01:33Z</time></trkpt><trkpt lat="39.95137416579948" lon="15.918456850167816"><ele>654.3333333333334</ele><time>2026-04-26T12:01:34Z</time></trkpt><trkpt lat="39.95121832983523" lon="15.918439030781624"><ele>653.6666666666666</ele><time>2026-04-26T12:01:35Z</time></trkpt><trkpt lat="39.951073139897744" lon="15.918429071461084"><ele>653.0</ele><time>2026-04-26T12:01:36Z</time></trkpt><trkpt lat="39.95092174041602" lon="15.918429514857955"><ele>652.75</ele><time>2026-04-26T12:01:37Z</time></trkpt><trkpt lat="39.950791347704794" lon="15.91843275260782"><ele>652.5</ele><time>2026-04-26T12:01:38Z</time></trkpt><trkpt lat="39.95067082704117" lon="15.91840837174462"><ele>652.25</ele><time>2026-04-26T12:01:39Z</time></trkpt><trkpt lat="39.950549189015376" lon="15.91836264698503"><ele>652.0</ele><time>2026-04-26T12:01:40Z</time></trkpt><trkpt lat="39.950440383685" lon="15.918333519329433"><ele>652.0</ele><time>2026-04-26T12:01:41Z</time></trkpt><trkpt lat="39.95030542812186" lon="15.91838519253038"><ele>652.0</ele><time>2026-04-26T12:01:42Z</time></trkpt><trkpt lat="39.95017098958773" lon="15.918468833592302"><ele>652.0</ele><time>2026-04-26T12:01:43Z</time></trkpt><trkpt lat="39.95004252349331" lon="15.918521654400335"><ele>652.0</ele><time>2026-04-26T12:01:44Z</time></trkpt><trkpt lat="39.94992844526996" lon="15.918582790160498"><ele>652.2</ele><time>2026-04-26T12:01:45Z</time></trkpt><trkpt lat="39.94983484931429" lon="15.918631788360194"><ele>652.4000000000001</ele><time>2026-04-26T12:01:46Z</time></trkpt><trkpt lat="39.949754957015664" lon="15.918656506427041"><ele>652.5999999999999</ele><time>2026-04-26T12:01:47Z</time></trkpt><trkpt lat="39.94967171525917" lon="15.918659452590429"><ele>652.8</ele><time>2026-04-26T12:01:47.999Z</time></trkpt><trkpt lat="39.94959348642297" lon="15.918594089503562"><ele>653.0</ele><time>2026-04-26T12:01:48.999Z</time></trkpt><trkpt lat="39.94949590942995" lon="15.918498461731287"><ele>653.0</ele><time>2026-04-26T12:01:49.999Z</time></trkpt><trkpt lat="39.94938005017199" lon="15.918434784034496"><ele>653.0</ele><time>2026-04-26T12:01:50.999Z</time></trkpt><trkpt lat="39.94926793918175" lon="15.918398626364517"><ele>653.0</ele><time>2026-04-26T12:01:51.999Z</time></trkpt><trkpt lat="39.94914315027579" lon="15.91837181760696"><ele>653.0</ele><time>2026-04-26T12:01:52.999Z</time></trkpt><trkpt lat="39.94902264446306" lon="15.918359687417409"><ele>652.25</ele><time>2026-04-26T12:01:53.999Z</time></trkpt><trkpt lat="39.948879319314734" lon="15.918361499943476"><ele>651.5</ele><time>2026-04-26T12:01:54.999Z</time></trkpt><trkpt lat="39.948758527553004" lon="15.918389615933778"><ele>650.75</ele><time>2026-04-26T12:01:55.999Z</time></trkpt><trkpt lat="39.94866237378654" lon="15.918410059743113"><ele>650.0</ele><time>2026-04-26T12:01:56.999Z</time></trkpt><trkpt lat="39.948551529292565" lon="15.918382753508762"><ele>656.3333333333333</ele><time>2026-04-26T12:01:57.999Z</time></trkpt><trkpt lat="39.94842446513041" lon="15.918302154944483"><ele>662.6666666666666</ele><time>2026-04-26T12:01:58.999Z</time></trkpt><trkpt lat="39.94826730961244" lon="15.918218394795078"><ele>669.0</ele><time>2026-04-26T12:01:59.999Z</time></trkpt><trkpt lat="39.94813194358838" lon="15.918174227288448"><ele>669.0</ele><time>2026-04-26T12:02:00.999Z</time></trkpt><trkpt lat="39.947995171924866" lon="15.918142649262682"><ele>669.0</ele><time>2026-04-26T12:02:01.999Z</time></trkpt><trkpt lat="39.94787780211936" lon="15.918121098527234"><ele>669.0</ele><time>2026-04-26T12:02:02.999Z</time></trkpt><trkpt lat="39.947775325238034" lon="15.918085200149072"><ele>669.0</ele><time>2026-04-26T12:02:03.999Z</time></trkpt><trkpt lat="39.94767261287775" lon="15.918066164213187"><ele>669.0</ele><time>2026-04-26T12:02:04.999Z</time></trkpt><trkpt lat="39.94759183060141" lon="15.91804057053776"><ele>669.0</ele><time>2026-04-26T12:02:05.999Z</time></trkpt><trkpt lat="39.94748540965954" lon="15.918114073815422"><ele>669.0</ele><time>2026-04-26T12:02:06.999Z</time></trkpt><trkpt lat="39.94742237788563" lon="15.918273484772175"><ele>669.0</ele><time>2026-04-26T12:02:07.999Z</time></trkpt><trkpt lat="39.94736524991485" lon="15.91844733539155"><ele>666.4000000000001</ele><time>2026-04-26T12:02:08.999Z</time></trkpt><trkpt lat="39.94730983735657" lon="15.91859402678576"><ele>663.8</ele><time>2026-04-26T12:02:09.999Z</time></trkpt><trkpt lat="39.947264358227294" lon="15.918690991966887"><ele>661.2</ele><time>2026-04-26T12:02:10.999Z</time></trkpt><trkpt lat="39.9471611305912" lon="15.918773255530386"><ele>658.5999999999999</ele><time>2026-04-26T12:02:12.999Z</time></trkpt><trkpt lat="39.947079823227035" lon="15.918742367677089"><ele>656.0</ele><time>2026-04-26T12:02:13.999Z</time></trkpt><trkpt lat="39.94700181252729" lon="15.918678168802288"><ele>656.0</ele><time>2026-04-26T12:02:14.999Z</time></trkpt><trkpt lat="39.9469315483984" lon="15.918622887132836"><ele>656.0</ele><time>2026-04-26T12:02:15.999Z</time></trkpt><trkpt lat="39.946861178725065" lon="15.91860798650054"><ele>656.0</ele><time>2026-04-26T12:02:16.999Z</time></trkpt><trkpt lat="39.94675266289927" lon="15.918593027686507"><ele>656.0</ele><time>2026-04-26T12:02:18.999Z</time></trkpt><trkpt lat="39.946626318716326" lon="15.918579939904854"><ele>656.0</ele><time>2026-04-26T12:02:20.999Z</time></trkpt><trkpt lat="39.94657747657679" lon="15.918522118214131"><ele>655.8</ele><time>2026-04-26T12:02:21.999Z</time></trkpt><trkpt lat="39.9465332661698" lon="15.91844299213529"><ele>655.5999999999999</ele><time>2026-04-26T12:02:22.999Z</time></trkpt><trkpt lat="39.94652210256749" lon="15.918304530157727"><ele>655.4</ele><time>2026-04-26T12:02:23.999Z</time></trkpt><trkpt lat="39.94650934955004" lon="15.918151303706136"><ele>655.2</ele><time>2026-04-26T12:02:24.999Z</time></trkpt><trkpt lat="39.94646743233823" lon="15.917998015831309"><ele>655.0</ele><time>2026-04-26T12:02:25.999Z</time></trkpt><trkpt lat="39.94636923960347" lon="15.917852329039045"><ele>655.0</ele><time>2026-04-26T12:02:26.999Z</time></trkpt><trkpt lat="39.946242829677544" lon="15.917686716761374"><ele>655.0</ele><time>2026-04-26T12:02:27.999Z</time></trkpt><trkpt lat="39.946137748762055" lon="15.917517540940286"><ele>655.0</ele><time>2026-04-26T12:02:28.999Z</time></trkpt><trkpt lat="39.9460453308781" lon="15.917363252927974"><ele>654.0</ele><time>2026-04-26T12:02:29.999Z</time></trkpt><trkpt lat="39.94596192744235" lon="15.91720838354616"><ele>653.0</ele><time>2026-04-26T12:02:30.999Z</time></trkpt><trkpt lat="39.945891367103464" lon="15.91705393104791"><ele>652.0</ele><time>2026-04-26T12:02:31.999Z</time></trkpt><trkpt lat="39.94581112831102" lon="15.916925334335248"><ele>651.0</ele><time>2026-04-26T12:02:32.999Z</time></trkpt><trkpt lat="39.94571944825156" lon="15.91684085832454"><ele>650.4</ele><time>2026-04-26T12:02:33.999Z</time></trkpt><trkpt lat="39.945618131260694" lon="15.91678761619945"><ele>649.8</ele><time>2026-04-26T12:02:34.999Z</time></trkpt><trkpt lat="39.945523888749335" lon="15.91674279899599"><ele>649.1999999999999</ele><time>2026-04-26T12:02:35.999Z</time></trkpt><trkpt lat="39.945421327104064" lon="15.916728756283561"><ele>648.5999999999999</ele><time>2026-04-26T12:02:36.999Z</time></trkpt><trkpt lat="39.945304212490136" lon="15.91676235263319"><ele>648.0</ele><time>2026-04-26T12:02:37.999Z</time></trkpt><trkpt lat="39.94516642017032" lon="15.916796330674057"><ele>647.5999999999999</ele><time>2026-04-26T12:02:38.999Z</time></trkpt><trkpt lat="39.94504174321942" lon="15.916863150910368"><ele>647.1999999999999</ele><time>2026-04-26T12:02:39.999Z</time></trkpt><trkpt lat="39.94495458129067" lon="15.916890412832542"><ele>646.8</ele><time>2026-04-26T12:02:40.999Z</time></trkpt><trkpt lat="39.944868949340574" lon="15.916888772659966"><ele>646.4</ele><time>2026-04-26T12:02:41.999Z</time></trkpt><trkpt lat="39.944786048256994" lon="15.916858184796672"><ele>646.0</ele><time>2026-04-26T12:02:42.999Z</time></trkpt><trkpt lat="39.94469489765765" lon="15.916793447937938"><ele>646.5</ele><time>2026-04-26T12:02:43.999Z</time></trkpt><trkpt lat="39.94458224604833" lon="15.916706045752834"><ele>647.0</ele><time>2026-04-26T12:02:44.999Z</time></trkpt><trkpt lat="39.944487766647946" lon="15.91659970829381"><ele>647.5</ele><time>2026-04-26T12:02:46Z</time></trkpt><trkpt lat="39.94440309285018" lon="15.916519731659669"><ele>648.0</ele><time>2026-04-26T12:02:47Z</time></trkpt><trkpt lat="39.94430804696393" lon="15.91646572982528"><ele>649.25</ele><time>2026-04-26T12:02:48Z</time></trkpt><trkpt lat="39.94418618239493" lon="15.916425552565961"><ele>650.5</ele><time>2026-04-26T12:02:49Z</time></trkpt><trkpt lat="39.944050616685374" lon="15.916427223012533"><ele>651.75</ele><time>2026-04-26T12:02:50Z</time></trkpt><trkpt lat="39.94392771870904" lon="15.916416115826861"><ele>653.0</ele><time>2026-04-26T12:02:51Z</time></trkpt><trkpt lat="39.94382992365638" lon="15.916421272109517"><ele>653.0</ele><time>2026-04-26T12:02:52Z</time></trkpt><trkpt lat="39.94373430816011" lon="15.91642495558784"><ele>653.0</ele><time>2026-04-26T12:02:53Z</time></trkpt><trkpt lat="39.94364434779813" lon="15.916435805040496"><ele>653.0</ele><time>2026-04-26T12:02:54Z</time></trkpt><trkpt lat="39.94356059094282" lon="15.916401950987801"><ele>653.0</ele><time>2026-04-26T12:02:55Z</time></trkpt><trkpt lat="39.94347061077421" lon="15.916324421349989"><ele>653.0</ele><time>2026-04-26T12:02:56Z</time></trkpt><trkpt lat="39.94337357419248" lon="15.916211574853383"><ele>652.6666666666666</ele><time>2026-04-26T12:02:57Z</time></trkpt><trkpt lat="39.94327326134745" lon="15.91606064810598"><ele>652.3333333333334</ele><time>2026-04-26T12:02:58Z</time></trkpt><trkpt lat="39.943173404141035" lon="15.915899643924746"><ele>652.0</ele><time>2026-04-26T12:02:59Z</time></trkpt><trkpt lat="39.94308095536142" lon="15.915741111683479"><ele>653.25</ele><time>2026-04-26T12:03:00Z</time></trkpt><trkpt lat="39.94299100266005" lon="15.9155895655434"><ele>654.5</ele><time>2026-04-26T12:03:01Z</time></trkpt><trkpt lat="39.94290450384614" lon="15.915467554348249"><ele>655.75</ele><time>2026-04-26T12:03:02Z</time></trkpt><trkpt lat="39.94281386807243" lon="15.915380669584621"><ele>657.0</ele><time>2026-04-26T12:03:03Z</time></trkpt><trkpt lat="39.942731964554895" lon="15.91532649078824"><ele>657.0</ele><time>2026-04-26T12:03:04Z</time></trkpt><trkpt lat="39.942644686613164" lon="15.915268639743703"><ele>657.0</ele><time>2026-04-26T12:03:05Z</time></trkpt><trkpt lat="39.942566846158165" lon="15.915241334741479"><ele>657.0</ele><time>2026-04-26T12:03:06Z</time></trkpt><trkpt lat="39.94244579637142" lon="15.915302328317514"><ele>657.0</ele><time>2026-04-26T12:03:07Z</time></trkpt><trkpt lat="39.9423197979251" lon="15.915354475095908"><ele>657.0</ele><time>2026-04-26T12:03:08Z</time></trkpt><trkpt lat="39.94222390655238" lon="15.915389823240659"><ele>655.5</ele><time>2026-04-26T12:03:09Z</time></trkpt><trkpt lat="39.94211567930701" lon="15.915435474837718"><ele>654.0</ele><time>2026-04-26T12:03:10Z</time></trkpt><trkpt lat="39.94199301704132" lon="15.915502170294749"><ele>652.5</ele><time>2026-04-26T12:03:11Z</time></trkpt><trkpt lat="39.941867401612505" lon="15.915592878924885"><ele>651.0</ele><time>2026-04-26T12:03:12Z</time></trkpt><trkpt lat="39.941738936949164" lon="15.91571660794558"><ele>652.25</ele><time>2026-04-26T12:03:13Z</time></trkpt><trkpt lat="39.94162508567131" lon="15.915848371176018"><ele>653.5</ele><time>2026-04-26T12:03:14Z</time></trkpt><trkpt lat="39.941518010851404" lon="15.915989742247705"><ele>654.75</ele><time>2026-04-26T12:03:15Z</time></trkpt><trkpt lat="39.941435791449535" lon="15.916139774706506"><ele>656.0</ele><time>2026-04-26T12:03:16Z</time></trkpt><trkpt lat="39.94135434911355" lon="15.91624953173832"><ele>656.0</ele><time>2026-04-26T12:03:17Z</time></trkpt><trkpt lat="39.941268255938915" lon="15.916318675439836"><ele>656.0</ele><time>2026-04-26T12:03:18Z</time></trkpt><trkpt lat="39.941168616764855" lon="15.916352205168659"><ele>656.0</ele><time>2026-04-26T12:03:19Z</time></trkpt><trkpt lat="39.94104845584488" lon="15.916397400503726"><ele>656.0</ele><time>2026-04-26T12:03:20Z</time></trkpt><trkpt lat="39.94091142576328" lon="15.916436699954799"><ele>655.0</ele><time>2026-04-26T12:03:21Z</time></trkpt><trkpt lat="39.94078087045907" lon="15.916473842462873"><ele>654.0</ele><time>2026-04-26T12:03:22Z</time></trkpt><trkpt lat="39.94064557375911" lon="15.916519288843563"><ele>653.0</ele><time>2026-04-26T12:03:23Z</time></trkpt><trkpt lat="39.94050413354685" lon="15.916598355058312"><ele>652.0</ele><time>2026-04-26T12:03:24Z</time></trkpt><trkpt lat="39.940364103562814" lon="15.9167075375323"><ele>651.75</ele><time>2026-04-26T12:03:25Z</time></trkpt><trkpt lat="39.94023230298339" lon="15.916809785310882"><ele>651.5</ele><time>2026-04-26T12:03:26Z</time></trkpt><trkpt lat="39.94011273470182" lon="15.916895261262871"><ele>651.25</ele><time>2026-04-26T12:03:27Z</time></trkpt><trkpt lat="39.94000120902441" lon="15.916976031810208"><ele>651.0</ele><time>2026-04-26T12:03:28Z</time></trkpt><trkpt lat="39.93988669077305" lon="15.91706222050502"><ele>651.0</ele><time>2026-04-26T12:03:29Z</time></trkpt><trkpt lat="39.939774885816846" lon="15.917153870001487"><ele>651.0</ele><time>2026-04-26T12:03:30Z</time></trkpt><trkpt lat="39.939648100335866" lon="15.917250358728875"><ele>651.0</ele><time>2026-04-26T12:03:31Z</time></trkpt><trkpt lat="39.939514681763704" lon="15.917340547739718"><ele>651.0</ele><time>2026-04-26T12:03:32Z</time></trkpt><trkpt lat="39.93939067070382" lon="15.91741524165541"><ele>651.0</ele><time>2026-04-26T12:03:33Z</time></trkpt><trkpt lat="39.93926312913646" lon="15.91751731068343"><ele>651.0</ele><time>2026-04-26T12:03:34Z</time></trkpt><trkpt lat="39.93914899602725" lon="15.917671026301957"><ele>651.0</ele><time>2026-04-26T12:03:35Z</time></trkpt><trkpt lat="39.93904361557225" lon="15.917838232089126"><ele>650.25</ele><time>2026-04-26T12:03:36Z</time></trkpt><trkpt lat="39.93893246268974" lon="15.917993851748278"><ele>649.5</ele><time>2026-04-26T12:03:37Z</time></trkpt><trkpt lat="39.93882851012096" lon="15.918121819437902"><ele>648.75</ele><time>2026-04-26T12:03:38Z</time></trkpt><trkpt lat="39.93872485271927" lon="15.918235947784863"><ele>648.0</ele><time>2026-04-26T12:03:39Z</time></trkpt><trkpt lat="39.9386179239793" lon="15.9183341323945"><ele>647.75</ele><time>2026-04-26T12:03:40Z</time></trkpt><trkpt lat="39.93851620141766" lon="15.91842693965348"><ele>647.5</ele><time>2026-04-26T12:03:41Z</time></trkpt><trkpt lat="39.93841189956968" lon="15.918536156440728"><ele>647.25</ele><time>2026-04-26T12:03:42Z</time></trkpt><trkpt lat="39.93831942243554" lon="15.918651646764891"><ele>647.0</ele><time>2026-04-26T12:03:43Z</time></trkpt><trkpt lat="39.93824301579073" lon="15.918753780090487"><ele>647.0</ele><time>2026-04-26T12:03:44Z</time></trkpt><trkpt lat="39.93817029444092" lon="15.918826890285061"><ele>647.0</ele><time>2026-04-26T12:03:45Z</time></trkpt><trkpt lat="39.938095316827614" lon="15.918894162758992"><ele>647.0</ele><time>2026-04-26T12:03:46Z</time></trkpt><trkpt lat="39.93801998261858" lon="15.918971050174438"><ele>647.0</ele><time>2026-04-26T12:03:47Z</time></trkpt><trkpt lat="39.937950859957596" lon="15.91904287446742"><ele>647.0</ele><time>2026-04-26T12:03:48Z</time></trkpt><trkpt lat="39.93788988724476" lon="15.919084042790198"><ele>647.0</ele><time>2026-04-26T12:03:49Z</time></trkpt><trkpt lat="39.93780256180322" lon="15.919110305408642"><ele>647.0</ele><time>2026-04-26T12:03:50Z</time></trkpt><trkpt lat="39.93767023936633" lon="15.919072297784286"><ele>647.0</ele><time>2026-04-26T12:03:51Z</time></trkpt><trkpt lat="39.93752249386421" lon="15.919012534969104"><ele>647.0</ele><time>2026-04-26T12:03:52Z</time></trkpt><trkpt lat="39.9373790286773" lon="15.918922265331389"><ele>647.0</ele><time>2026-04-26T12:03:53Z</time></trkpt><trkpt lat="39.93724305689931" lon="15.918821168151283"><ele>645.5</ele><time>2026-04-26T12:03:54Z</time></trkpt><trkpt lat="39.937111913398624" lon="15.918743948597788"><ele>644.0</ele><time>2026-04-26T12:03:55Z</time></trkpt><trkpt lat="39.93698558580384" lon="15.918686400282175"><ele>642.5</ele><time>2026-04-26T12:03:55.999Z</time></trkpt><trkpt lat="39.936867159849605" lon="15.918634821095404"><ele>641.0</ele><time>2026-04-26T12:03:56.999Z</time></trkpt><trkpt lat="39.936756330963235" lon="15.918573318757785"><ele>640.0</ele><time>2026-04-26T12:03:57.999Z</time></trkpt><trkpt lat="39.93664915968662" lon="15.918493045855017"><ele>639.0</ele><time>2026-04-26T12:03:58.999Z</time></trkpt><trkpt lat="39.93654353301543" lon="15.918387760507619"><ele>638.0</ele><time>2026-04-26T12:03:59.999Z</time></trkpt><trkpt lat="39.93645514662604" lon="15.918257155326547"><ele>637.0</ele><time>2026-04-26T12:04:00.999Z</time></trkpt><trkpt lat="39.936378981654265" lon="15.918122501256697"><ele>637.0</ele><time>2026-04-26T12:04:01.999Z</time></trkpt><trkpt lat="39.93629092723508" lon="15.918021914246253"><ele>637.0</ele><time>2026-04-26T12:04:02.999Z</time></trkpt><trkpt lat="39.936172282517866" lon="15.91798122560234"><ele>637.0</ele><time>2026-04-26T12:04:03.999Z</time></trkpt><trkpt lat="39.93608756651932" lon="15.917979327908357"><ele>637.0</ele><time>2026-04-26T12:04:04.999Z</time></trkpt><trkpt lat="39.93600605547304" lon="15.917979515948815"><ele>637.0</ele><time>2026-04-26T12:04:06.999Z</time></trkpt><trkpt lat="39.935927134376286" lon="15.917958915477104"><ele>636.5</ele><time>2026-04-26T12:04:13.999Z</time></trkpt><trkpt lat="39.93583531512582" lon="15.917875186681277"><ele>636.0</ele><time>2026-04-26T12:04:15.999Z</time></trkpt><trkpt lat="39.93573805346226" lon="15.917793458487271"><ele>635.5</ele><time>2026-04-26T12:04:17.999Z</time></trkpt><trkpt lat="39.9356810129336" lon="15.917746272920114"><ele>635.0</ele><time>2026-04-26T12:04:18.999Z</time></trkpt><trkpt lat="39.93561761549973" lon="15.917700616106785"><ele>634.5</ele><time>2026-04-26T12:04:19.999Z</time></trkpt><trkpt lat="39.93555645283656" lon="15.917648875650343"><ele>634.0</ele><time>2026-04-26T12:04:20.999Z</time></trkpt><trkpt lat="39.935522647884774" lon="15.917566835428913"><ele>635.3333333333334</ele><time>2026-04-26T12:04:21.999Z</time></trkpt><trkpt lat="39.93547303370899" lon="15.917489736762723"><ele>636.6666666666667</ele><time>2026-04-26T12:04:22.999Z</time></trkpt><trkpt lat="39.935423932805335" lon="15.917411670647661"><ele>638.0</ele><time>2026-04-26T12:04:23.999Z</time></trkpt><trkpt lat="39.935375491974874" lon="15.917322837067308"><ele>639.3333333333334</ele><time>2026-04-26T12:04:24.999Z</time></trkpt><trkpt lat="39.9353187900927" lon="15.917220692571847"><ele>640.6666666666666</ele><time>2026-04-26T12:04:25.999Z</time></trkpt><trkpt lat="39.93525706659806" lon="15.917134550166296"><ele>642.0</ele><time>2026-04-26T12:04:26.999Z</time></trkpt><trkpt lat="39.9351848994712" lon="15.91705048147528"><ele>642.0</ele><time>2026-04-26T12:04:27.999Z</time></trkpt><trkpt lat="39.935097019213714" lon="15.916979905647903"><ele>642.0</ele><time>2026-04-26T12:04:28.999Z</time></trkpt><trkpt lat="39.93501524789134" lon="15.916922059540461"><ele>642.0</ele><time>2026-04-26T12:04:29.999Z</time></trkpt><trkpt lat="39.93493731452022" lon="15.916842063041104"><ele>642.0</ele><time>2026-04-26T12:04:30.999Z</time></trkpt><trkpt lat="39.93485287223813" lon="15.91678073661157"><ele>642.0</ele><time>2026-04-26T12:04:31.999Z</time></trkpt><trkpt lat="39.934771107209016" lon="15.916743207263723"><ele>642.8333333333334</ele><time>2026-04-26T12:04:32.999Z</time></trkpt><trkpt lat="39.93468761416153" lon="15.916720478030522"><ele>643.6666666666666</ele><time>2026-04-26T12:04:33.999Z</time></trkpt><trkpt lat="39.93461934855349" lon="15.916659958257748"><ele>644.5</ele><time>2026-04-26T12:04:34.999Z</time></trkpt><trkpt lat="39.934551449595894" lon="15.916628559551755"><ele>645.3333333333333</ele><time>2026-04-26T12:04:35.999Z</time></trkpt><trkpt lat="39.93449456593518" lon="15.916557486300803"><ele>646.1666666666666</ele><time>2026-04-26T12:04:36.999Z</time></trkpt><trkpt lat="39.93442511122802" lon="15.916501421312846"><ele>647.0</ele><time>2026-04-26T12:04:37.999Z</time></trkpt><trkpt lat="39.9343399426541" lon="15.916430651351993"><ele>647.0</ele><time>2026-04-26T12:04:38.999Z</time></trkpt><trkpt lat="39.93424563333232" lon="15.916347698272304"><ele>647.0</ele><time>2026-04-26T12:04:39.999Z</time></trkpt><trkpt lat="39.934129641188285" lon="15.916272571171625"><ele>647.0</ele><time>2026-04-26T12:04:40.999Z</time></trkpt><trkpt lat="39.93403844385176" lon="15.916173140339202"><ele>647.0</ele><time>2026-04-26T12:04:41.999Z</time></trkpt><trkpt lat="39.93393099963061" lon="15.916090472759807"><ele>645.0</ele><time>2026-04-26T12:04:42.999Z</time></trkpt><trkpt lat="39.93383248341599" lon="15.916029436343669"><ele>643.0</ele><time>2026-04-26T12:04:43.999Z</time></trkpt><trkpt lat="39.93373790151176" lon="15.915943393054055"><ele>641.0</ele><time>2026-04-26T12:04:44.999Z</time></trkpt><trkpt lat="39.93363959626113" lon="15.915848332307451"><ele>639.0</ele><time>2026-04-26T12:04:45.999Z</time></trkpt><trkpt lat="39.93355710217347" lon="15.915763715443111"><ele>641.6</ele><time>2026-04-26T12:04:46.999Z</time></trkpt><trkpt lat="39.933465445853095" lon="15.915668855402203"><ele>644.2</ele><time>2026-04-26T12:04:47.999Z</time></trkpt><trkpt lat="39.93337987996997" lon="15.915559510997191"><ele>646.8000000000001</ele><time>2026-04-26T12:04:48.999Z</time></trkpt><trkpt lat="39.93330417921943" lon="15.915475277633277"><ele>649.4</ele><time>2026-04-26T12:04:49.999Z</time></trkpt><trkpt lat="39.93325629954283" lon="15.91540295259824"><ele>652.0</ele><time>2026-04-26T12:04:50.999Z</time></trkpt><trkpt lat="39.93318753256371" lon="15.915349152869547"><ele>652.0</ele><time>2026-04-26T12:04:53Z</time></trkpt><trkpt lat="39.933159777110724" lon="15.915272957237125"><ele>652.0</ele><time>2026-04-26T12:05:08Z</time></trkpt><trkpt lat="39.93310581423604" lon="15.915181278354696"><ele>652.0</ele><time>2026-04-26T12:05:12Z</time></trkpt><trkpt lat="39.93300836543902" lon="15.915053759518754"><ele>652.0</ele><time>2026-04-26T12:05:14Z</time></trkpt><trkpt lat="39.93293635925835" lon="15.914966242708228"><ele>652.0</ele><time>2026-04-26T12:05:15Z</time></trkpt><trkpt lat="39.93287255249069" lon="15.914884705086003"><ele>654.8</ele><time>2026-04-26T12:05:16Z</time></trkpt><trkpt lat="39.93282878286141" lon="15.914769561456167"><ele>657.6</ele><time>2026-04-26T12:05:17Z</time></trkpt><trkpt lat="39.932789551852075" lon="15.914646659058704"><ele>660.4</ele><time>2026-04-26T12:05:18Z</time></trkpt><trkpt lat="39.93274073601957" lon="15.91456246297753"><ele>663.1999999999999</ele><time>2026-04-26T12:05:19Z</time></trkpt><trkpt lat="39.932713931712335" lon="15.914454247051342"><ele>666.0</ele><time>2026-04-26T12:05:20Z</time></trkpt><trkpt lat="39.93278034271266" lon="15.91431140852239"><ele>668.4</ele><time>2026-04-26T12:05:21Z</time></trkpt><trkpt lat="39.93280548836975" lon="15.914184113255113"><ele>670.8</ele><time>2026-04-26T12:05:22Z</time></trkpt><trkpt lat="39.93278303176602" lon="15.91406502239881"><ele>673.1999999999999</ele><time>2026-04-26T12:05:23Z</time></trkpt><trkpt lat="39.93280856019404" lon="15.91397451160165"><ele>675.5999999999999</ele><time>2026-04-26T12:05:24Z</time></trkpt><trkpt lat="39.93288679239437" lon="15.913863933763475"><ele>678.0</ele><time>2026-04-26T12:05:26Z</time></trkpt><trkpt lat="39.932990927903624" lon="15.913810126774644"><ele>678.0</ele><time>2026-04-26T12:05:28Z</time></trkpt><trkpt lat="39.93303248298934" lon="15.913738805607425"><ele>678.0</ele><time>2026-04-26T12:05:29Z</time></trkpt><trkpt lat="39.933048627909734" lon="15.913635398108179"><ele>678.0</ele><time>2026-04-26T12:05:30Z</time></trkpt><trkpt lat="39.933049273099776" lon="15.913524722013465"><ele>678.0</ele><time>2026-04-26T12:05:31Z</time></trkpt><trkpt lat="39.93304692328298" lon="15.91340339277703"><ele>678.0</ele><time>2026-04-26T12:05:32Z</time></trkpt><trkpt lat="39.93302029973991" lon="15.913316598301483"><ele>678.0</ele><time>2026-04-26T12:05:33Z</time></trkpt><trkpt lat="39.93298769770828" lon="15.913218728006198"><ele>680.0</ele><time>2026-04-26T12:05:34Z</time></trkpt><trkpt lat="39.932908568225976" lon="15.913106477108093"><ele>682.0</ele><time>2026-04-26T12:05:35Z</time></trkpt><trkpt lat="39.93283785571191" lon="15.91303695997928"><ele>684.0</ele><time>2026-04-26T12:05:36Z</time></trkpt><trkpt lat="39.93275404162201" lon="15.912974666801606"><ele>686.0</ele><time>2026-04-26T12:05:37Z</time></trkpt><trkpt lat="39.9326779241588" lon="15.91293827371569"><ele>688.0</ele><time>2026-04-26T12:05:38Z</time></trkpt><trkpt lat="39.93259317032219" lon="15.912891493877517"><ele>685.8333333333334</ele><time>2026-04-26T12:05:39Z</time></trkpt><trkpt lat="39.93250404701511" lon="15.9128636308716"><ele>683.6666666666667</ele><time>2026-04-26T12:05:40Z</time></trkpt><trkpt lat="39.93244392124544" lon="15.912824529715627"><ele>681.5</ele><time>2026-04-26T12:05:41Z</time></trkpt><trkpt lat="39.93236438367138" lon="15.912793775179827"><ele>679.3333333333334</ele><time>2026-04-26T12:05:42Z</time></trkpt><trkpt lat="39.93227101273655" lon="15.912760288885934"><ele>677.1666666666666</ele><time>2026-04-26T12:05:43Z</time></trkpt><trkpt lat="39.93219975458423" lon="15.91275169011531"><ele>675.0</ele><time>2026-04-26T12:05:44Z</time></trkpt><trkpt lat="39.93213011301946" lon="15.912699731433923"><ele>675.0</ele><time>2026-04-26T12:05:45Z</time></trkpt><trkpt lat="39.93207330453195" lon="15.912639529251543"><ele>675.0</ele><time>2026-04-26T12:05:46Z</time></trkpt><trkpt lat="39.93201728056653" lon="15.912549259985186"><ele>675.0</ele><time>2026-04-26T12:05:47Z</time></trkpt><trkpt lat="39.931950489486226" lon="15.91247379745184"><ele>675.0</ele><time>2026-04-26T12:05:48Z</time></trkpt><trkpt lat="39.93188692658233" lon="15.912419955466202"><ele>675.0</ele><time>2026-04-26T12:05:49Z</time></trkpt><trkpt lat="39.931798904088296" lon="15.91237421068282"><ele>675.0</ele><time>2026-04-26T12:05:50Z</time></trkpt><trkpt lat="39.931718297483414" lon="15.912326861324978"><ele>677.6666666666666</ele><time>2026-04-26T12:05:51Z</time></trkpt><trkpt lat="39.93163172323662" lon="15.912294434637182"><ele>680.3333333333334</ele><time>2026-04-26T12:05:52Z</time></trkpt><trkpt lat="39.931543886045766" lon="15.912277082553455"><ele>683.0</ele><time>2026-04-26T12:05:53Z</time></trkpt><trkpt lat="39.931458134083066" lon="15.91226015684808"><ele>685.6666666666667</ele><time>2026-04-26T12:05:54Z</time></trkpt><trkpt lat="39.93136750476133" lon="15.912239017443293"><ele>688.3333333333334</ele><time>2026-04-26T12:05:55Z</time></trkpt><trkpt lat="39.9313010014831" lon="15.912247792839306"><ele>691.0</ele><time>2026-04-26T12:05:56Z</time></trkpt><trkpt lat="39.93122885649558" lon="15.912256544979634"><ele>691.0</ele><time>2026-04-26T12:05:57Z</time></trkpt><trkpt lat="39.93115873147458" lon="15.9122480724065"><ele>691.0</ele><time>2026-04-26T12:05:58Z</time></trkpt><trkpt lat="39.931079572673674" lon="15.912221473571758"><ele>691.0</ele><time>2026-04-26T12:05:59Z</time></trkpt><trkpt lat="39.93097896073499" lon="15.912195145015529"><ele>691.0</ele><time>2026-04-26T12:05:59.999Z</time></trkpt><trkpt lat="39.93089504572296" lon="15.912167474065933"><ele>691.0</ele><time>2026-04-26T12:06:00.999Z</time></trkpt><trkpt lat="39.930821327508" lon="15.91212475479726"><ele>691.0</ele><time>2026-04-26T12:06:01.999Z</time></trkpt><trkpt lat="39.93075387735814" lon="15.912084260251063"><ele>694.0</ele><time>2026-04-26T12:06:02.999Z</time></trkpt><trkpt lat="39.930666351953604" lon="15.911989895661106"><ele>697.0</ele><time>2026-04-26T12:06:03.999Z</time></trkpt><trkpt lat="39.93059297338353" lon="15.911864879032056"><ele>700.0</ele><time>2026-04-26T12:06:04.999Z</time></trkpt><trkpt lat="39.930526381409464" lon="15.911721395410789"><ele>703.0</ele><time>2026-04-26T12:06:05.999Z</time></trkpt><trkpt lat="39.930449810883125" lon="15.911608277332865"><ele>707.8</ele><time>2026-04-26T12:06:06.999Z</time></trkpt><trkpt lat="39.930400573976996" lon="15.911509971047732"><ele>712.5999999999999</ele><time>2026-04-26T12:06:07.999Z</time></trkpt><trkpt lat="39.93034498727919" lon="15.911419398852098"><ele>717.4000000000001</ele><time>2026-04-26T12:06:08.999Z</time></trkpt><trkpt lat="39.93026908191248" lon="15.91134356910812"><ele>722.2</ele><time>2026-04-26T12:06:09.999Z</time></trkpt><trkpt lat="39.93021845460922" lon="15.911229642738034"><ele>727.0</ele><time>2026-04-26T12:06:10.999Z</time></trkpt><trkpt lat="39.93014935608838" lon="15.911145963258733"><ele>727.0</ele><time>2026-04-26T12:06:11.999Z</time></trkpt><trkpt lat="39.93009794908807" lon="15.911035531859019"><ele>727.0</ele><time>2026-04-26T12:06:13.999Z</time></trkpt><trkpt lat="39.92995092114981" lon="15.910951765638513"><ele>727.0</ele><time>2026-04-26T12:06:16.999Z</time></trkpt><trkpt lat="39.92988149361923" lon="15.911022176041646"><ele>727.0</ele><time>2026-04-26T12:06:17.999Z</time></trkpt><trkpt lat="39.929784088336405" lon="15.911138500177898"><ele>728.6666666666667</ele><time>2026-04-26T12:06:19.999Z</time></trkpt><trkpt lat="39.92971704226936" lon="15.911220430152868"><ele>730.3333333333334</ele><time>2026-04-26T12:06:21.999Z</time></trkpt><trkpt lat="39.92965936288916" lon="15.91127702105088"><ele>732.0</ele><time>2026-04-26T12:06:23.999Z</time></trkpt><trkpt lat="39.92958722946848" lon="15.911341124884132"><ele>733.6666666666666</ele><time>2026-04-26T12:06:24.999Z</time></trkpt><trkpt lat="39.929534116297" lon="15.911387347234673"><ele>735.3333333333333</ele><time>2026-04-26T12:06:25.999Z</time></trkpt><trkpt lat="39.929528204172556" lon="15.911284667767141"><ele>737.0</ele><time>2026-04-26T12:06:45.999Z</time></trkpt><trkpt lat="39.92949364349155" lon="15.911209511922307"><ele>737.0</ele><time>2026-04-26T12:06:47.999Z</time></trkpt><trkpt lat="39.929417150525566" lon="15.911284268091046"><ele>737.0</ele><time>2026-04-26T12:06:49.999Z</time></trkpt><trkpt lat="39.929390373943015" lon="15.91139389759893"><ele>737.0</ele><time>2026-04-26T12:06:51.999Z</time></trkpt><trkpt lat="39.929319127544744" lon="15.911489075871458"><ele>737.0</ele><time>2026-04-26T12:06:53.999Z</time></trkpt><trkpt lat="39.92925869595694" lon="15.911528222189187"><ele>737.0</ele><time>2026-04-26T12:06:54.999Z</time></trkpt><trkpt lat="39.92919852425936" lon="15.911562658286735"><ele>737.0</ele><time>2026-04-26T12:06:55.999Z</time></trkpt><trkpt lat="39.929136824012836" lon="15.911597118849395"><ele>741.6666666666666</ele><time>2026-04-26T12:06:56.999Z</time></trkpt><trkpt lat="39.92905533936298" lon="15.911627728589968"><ele>746.3333333333333</ele><time>2026-04-26T12:06:58Z</time></trkpt><trkpt lat="39.92898323886115" lon="15.91163951911016"><ele>751.0</ele><time>2026-04-26T12:06:59Z</time></trkpt><trkpt lat="39.928907082344644" lon="15.911645367619832"><ele>755.6666666666666</ele><time>2026-04-26T12:07:00Z</time></trkpt><trkpt lat="39.928824855270086" lon="15.911633971309572"><ele>760.3333333333334</ele><time>2026-04-26T12:07:02Z</time></trkpt><trkpt lat="39.92883238141528" lon="15.911522197594447"><ele>765.0</ele><time>2026-04-26T12:07:05Z</time></trkpt><trkpt lat="39.92886770410793" lon="15.911446353640667"><ele>765.0</ele><time>2026-04-26T12:07:10Z</time></trkpt><trkpt lat="39.928825955985275" lon="15.911359232664617"><ele>765.0</ele><time>2026-04-26T12:07:13Z</time></trkpt><trkpt lat="39.928762731619756" lon="15.911291733793774"><ele>765.0</ele><time>2026-04-26T12:07:15Z</time></trkpt><trkpt lat="39.92874496848757" lon="15.911127615342684"><ele>765.0</ele><time>2026-04-26T12:07:16Z</time></trkpt><trkpt lat="39.928697644669434" lon="15.911048095394833"><ele>765.0</ele><time>2026-04-26T12:07:17Z</time></trkpt><trkpt lat="39.92863629293565" lon="15.910980928747362"><ele>765.0</ele><time>2026-04-26T12:07:18Z</time></trkpt><trkpt lat="39.928576885457616" lon="15.910940235736158"><ele>765.0000000000001</ele><time>2026-04-26T12:07:19Z</time></trkpt><trkpt lat="39.92851083481762" lon="15.910923867122163"><ele>765.0</ele><time>2026-04-26T12:07:20Z</time></trkpt><trkpt lat="39.92844369241045" lon="15.910908310915552"><ele>765.0</ele><time>2026-04-26T12:07:21Z</time></trkpt><trkpt lat="39.9283737152617" lon="15.91090988892555"><ele>765.0</ele><time>2026-04-26T12:07:22Z</time></trkpt><trkpt lat="39.928300203470535" lon="15.910912901692233"><ele>765.0</ele><time>2026-04-26T12:07:23Z</time></trkpt><trkpt lat="39.928230224511985" lon="15.910908753855825"><ele>765.0000000000001</ele><time>2026-04-26T12:07:24Z</time></trkpt><trkpt lat="39.92814844189108" lon="15.9108705486965"><ele>765.0</ele><time>2026-04-26T12:07:25Z</time></trkpt><trkpt lat="39.92808122866894" lon="15.910795400503778"><ele>768.4</ele><time>2026-04-26T12:07:27Z</time></trkpt><trkpt lat="39.92811065443327" lon="15.910702432490167"><ele>771.8</ele><time>2026-04-26T12:07:28Z</time></trkpt><trkpt lat="39.92819311325293" lon="15.910608961476893"><ele>775.2</ele><time>2026-04-26T12:07:30Z</time></trkpt><trkpt lat="39.92825443206585" lon="15.910543478008323"><ele>778.6</ele><time>2026-04-26T12:07:31Z</time></trkpt><trkpt lat="39.928324897859866" lon="15.910444578196957"><ele>782.0</ele><time>2026-04-26T12:07:32Z</time></trkpt><trkpt lat="39.928399521562746" lon="15.910346443321757"><ele>782.0000000000001</ele><time>2026-04-26T12:07:33Z</time></trkpt><trkpt lat="39.92847537806725" lon="15.910266522719622"><ele>782.0</ele><time>2026-04-26T12:07:34Z</time></trkpt><trkpt lat="39.92852715520525" lon="15.910206574513259"><ele>782.0</ele><time>2026-04-26T12:07:35Z</time></trkpt><trkpt lat="39.92846165757354" lon="15.910171695403895"><ele>782.0</ele><time>2026-04-26T12:07:38Z</time></trkpt><trkpt lat="39.9284358443341" lon="15.910031683082966"><ele>782.0000000000001</ele><time>2026-04-26T12:07:41Z</time></trkpt><trkpt lat="39.92849046316826" lon="15.909969028671041"><ele>782.0</ele><time>2026-04-26T12:07:44Z</time></trkpt><trkpt lat="39.928550601055136" lon="15.909896290971533"><ele>787.2</ele><time>2026-04-26T12:07:47Z</time></trkpt><trkpt lat="39.92855272577049" lon="15.909811358107582"><ele>792.4000000000001</ele><time>2026-04-26T12:07:49Z</time></trkpt><trkpt lat="39.92855662850102" lon="15.909716334732403"><ele>797.5999999999999</ele><time>2026-04-26T12:07:52Z</time></trkpt><trkpt lat="39.92858920409879" lon="15.909606125015047"><ele>802.8</ele><time>2026-04-26T12:07:56Z</time></trkpt><trkpt lat="39.92859334454358" lon="15.909514548621392"><ele>808.0</ele><time>2026-04-26T12:07:59Z</time></trkpt><trkpt lat="39.92863892041907" lon="15.909300732134186"><ele>811.4999999999999</ele><time>2026-04-26T12:08:00Z</time></trkpt><trkpt lat="39.92860642508194" lon="15.90920924249904"><ele>815.0</ele><time>2026-04-26T12:08:02Z</time></trkpt><trkpt lat="39.92862656677035" lon="15.909068385161115"><ele>818.5</ele><time>2026-04-26T12:08:03Z</time></trkpt><trkpt lat="39.928591638272614" lon="15.908995487439052"><ele>822.0</ele><time>2026-04-26T12:08:04Z</time></trkpt><trkpt lat="39.92857973924246" lon="15.908913350994682"><ele>825.4999999999999</ele><time>2026-04-26T12:08:04.999Z</time></trkpt><trkpt lat="39.92857108312185" lon="15.908813322819116"><ele>829.0</ele><time>2026-04-26T12:08:05.999Z</time></trkpt><trkpt lat="39.928558150943104" lon="15.908702679947881"><ele>829.0</ele><time>2026-04-26T12:08:06.999Z</time></trkpt><trkpt lat="39.92854138677541" lon="15.908607921803343"><ele>829.0</ele><time>2026-04-26T12:08:07.999Z</time></trkpt><trkpt lat="39.92851577665471" lon="15.908525083930773"><ele>829.0</ele><time>2026-04-26T12:08:08.999Z</time></trkpt><trkpt lat="39.92847318572104" lon="15.908428211498352"><ele>829.0</ele><time>2026-04-26T12:08:09.999Z</time></trkpt><trkpt lat="39.92845385803971" lon="15.908331036149509"><ele>829.0</ele><time>2026-04-26T12:08:10.999Z</time></trkpt><trkpt lat="39.928441029639565" lon="15.908235690926801"><ele>829.0</ele><time>2026-04-26T12:08:11.999Z</time></trkpt><trkpt lat="39.92841643952066" lon="15.908158913147807"><ele>829.0</ele><time>2026-04-26T12:08:12.999Z</time></trkpt><trkpt lat="39.92837240471594" lon="15.908052902576376"><ele>831.9999999999999</ele><time>2026-04-26T12:08:13.999Z</time></trkpt><trkpt lat="39.92834029442467" lon="15.907952117458278"><ele>835.0</ele><time>2026-04-26T12:08:14.999Z</time></trkpt><trkpt lat="39.92830547526958" lon="15.907840220596249"><ele>838.0</ele><time>2026-04-26T12:08:15.999Z</time></trkpt><trkpt lat="39.928274883311595" lon="15.907731956325994"><ele>841.0</ele><time>2026-04-26T12:08:16.999Z</time></trkpt><trkpt lat="39.92825237744833" lon="15.907625035389957"><ele>843.9999999999999</ele><time>2026-04-26T12:08:17.999Z</time></trkpt><trkpt lat="39.92823285801798" lon="15.90752004110389"><ele>847.0</ele><time>2026-04-26T12:08:18.999Z</time></trkpt><trkpt lat="39.928203547930046" lon="15.907404352130467"><ele>851.2</ele><time>2026-04-26T12:08:19.999Z</time></trkpt><trkpt lat="39.9281695352355" lon="15.907297818458899"><ele>855.4000000000001</ele><time>2026-04-26T12:08:20.999Z</time></trkpt><trkpt lat="39.92811520767725" lon="15.907163461999078"><ele>859.5999999999999</ele><time>2026-04-26T12:08:22.999Z</time></trkpt><trkpt lat="39.928075651024336" lon="15.907056223597156"><ele>863.8</ele><time>2026-04-26T12:08:23.999Z</time></trkpt><trkpt lat="39.92802708245684" lon="15.906947075580868"><ele>868.0</ele><time>2026-04-26T12:08:24.999Z</time></trkpt><trkpt lat="39.92797104151058" lon="15.9068306455633"><ele>873.2</ele><time>2026-04-26T12:08:25.999Z</time></trkpt><trkpt lat="39.9279055903937" lon="15.906699478823173"><ele>878.4</ele><time>2026-04-26T12:08:26.999Z</time></trkpt><trkpt lat="39.92784991880758" lon="15.906551738069842"><ele>883.6000000000001</ele><time>2026-04-26T12:08:27.999Z</time></trkpt><trkpt lat="39.92780159485257" lon="15.906438089373786"><ele>888.8000000000001</ele><time>2026-04-26T12:08:28.999Z</time></trkpt><trkpt lat="39.927759334878324" lon="15.90634526694259"><ele>894.0</ele><time>2026-04-26T12:08:29.999Z</time></trkpt><trkpt lat="39.927713447105" lon="15.906254669482216"><ele>894.0</ele><time>2026-04-26T12:08:30.999Z</time></trkpt><trkpt lat="39.92765678311123" lon="15.906140359042718"><ele>894.0000000000001</ele><time>2026-04-26T12:08:31.999Z</time></trkpt><trkpt lat="39.927592965616455" lon="15.906030719015098"><ele>894.0000000000001</ele><time>2026-04-26T12:08:32.999Z</time></trkpt><trkpt lat="39.927530122539615" lon="15.905925742093297"><ele>894.0</ele><time>2026-04-26T12:08:33.999Z</time></trkpt><trkpt lat="39.92748473548856" lon="15.905846862724868"><ele>894.0</ele><time>2026-04-26T12:08:34.999Z</time></trkpt><trkpt lat="39.92745160940151" lon="15.905773327232176"><ele>890.2</ele><time>2026-04-26T12:08:35.999Z</time></trkpt><trkpt lat="39.92742505879903" lon="15.905627622541292"><ele>886.4000000000001</ele><time>2026-04-26T12:08:37.999Z</time></trkpt><trkpt lat="39.92741839724435" lon="15.905457640119202"><ele>882.6</ele><time>2026-04-26T12:08:39.999Z</time></trkpt><trkpt lat="39.927410889851274" lon="15.905352224592743"><ele>878.8</ele><time>2026-04-26T12:08:40.999Z</time></trkpt><trkpt lat="39.92741842764944" lon="15.905239792936763"><ele>875.0</ele><time>2026-04-26T12:08:41.999Z</time></trkpt><trkpt lat="39.927438616506635" lon="15.905123503106777"><ele>875.8333333333334</ele><time>2026-04-26T12:08:42.999Z</time></trkpt><trkpt lat="39.92746154979477" lon="15.905003490568205"><ele>876.6666666666667</ele><time>2026-04-26T12:08:43.999Z</time></trkpt><trkpt lat="39.92748866547095" lon="15.90488419637956"><ele>877.5</ele><time>2026-04-26T12:08:44.999Z</time></trkpt><trkpt lat="39.927522533110164" lon="15.904785628562525"><ele>878.3333333333333</ele><time>2026-04-26T12:08:45.999Z</time></trkpt><trkpt lat="39.92755621126478" lon="15.904697981826159"><ele>879.1666666666666</ele><time>2026-04-26T12:08:46.999Z</time></trkpt><trkpt lat="39.92760092525287" lon="15.904630669395043"><ele>880.0</ele><time>2026-04-26T12:08:47.999Z</time></trkpt><trkpt lat="39.927660655838814" lon="15.904568925718676"><ele>889.4</ele><time>2026-04-26T12:08:48.999Z</time></trkpt><trkpt lat="39.92770698623142" lon="15.90450923908701"><ele>898.8</ele><time>2026-04-26T12:08:49.999Z</time></trkpt><trkpt lat="39.92771076628243" lon="15.904363618736202"><ele>908.2</ele><time>2026-04-26T12:08:51.999Z</time></trkpt><trkpt lat="39.92768090220457" lon="15.904261188281126"><ele>917.6</ele><time>2026-04-26T12:08:52.999Z</time></trkpt><trkpt lat="39.92765071434723" lon="15.904127466124907"><ele>927.0</ele><time>2026-04-26T12:08:53.999Z</time></trkpt><trkpt lat="39.927613740237945" lon="15.903981127013285"><ele>927.3333333333334</ele><time>2026-04-26T12:08:54.999Z</time></trkpt><trkpt lat="39.92757062074283" lon="15.903852728253787"><ele>927.6666666666667</ele><time>2026-04-26T12:08:55.999Z</time></trkpt><trkpt lat="39.92754676223469" lon="15.903768219760526"><ele>928.0</ele><time>2026-04-26T12:08:56.999Z</time></trkpt><trkpt lat="39.92755611234968" lon="15.903615434266465"><ele>928.3333333333334</ele><time>2026-04-26T12:08:58.999Z</time></trkpt><trkpt lat="39.927553081354986" lon="15.903528867879968"><ele>928.6666666666667</ele><time>2026-04-26T12:08:59.999Z</time></trkpt><trkpt lat="39.927538753261665" lon="15.903440315282106"><ele>929.0</ele><time>2026-04-26T12:09:00.999Z</time></trkpt><trkpt lat="39.92750577775753" lon="15.90335432097057"><ele>923.8333333333334</ele><time>2026-04-26T12:09:01.999Z</time></trkpt><trkpt lat="39.927453344490196" lon="15.903271322295664"><ele>918.6666666666667</ele><time>2026-04-26T12:09:02.999Z</time></trkpt><trkpt lat="39.92739272559938" lon="15.90319270064398"><ele>913.5</ele><time>2026-04-26T12:09:04Z</time></trkpt><trkpt lat="39.92733424278925" lon="15.90312303993373"><ele>908.3333333333333</ele><time>2026-04-26T12:09:05Z</time></trkpt><trkpt lat="39.927269237472025" lon="15.90306439115491"><ele>903.1666666666666</ele><time>2026-04-26T12:09:06Z</time></trkpt><trkpt lat="39.927206388222245" lon="15.903020329506923"><ele>898.0</ele><time>2026-04-26T12:09:07Z</time></trkpt><trkpt lat="39.92712371066572" lon="15.902955556175472"><ele>898.0</ele><time>2026-04-26T12:09:09Z</time></trkpt><trkpt lat="39.92706541008789" lon="15.902805488264375"><ele>898.0</ele><time>2026-04-26T12:09:11Z</time></trkpt><trkpt lat="39.92705348289855" lon="15.90271797983959"><ele>898.0</ele><time>2026-04-26T12:09:12Z</time></trkpt><trkpt lat="39.9270419235522" lon="15.90261878852996"><ele>898.0</ele><time>2026-04-26T12:09:13Z</time></trkpt><trkpt lat="39.92702090783094" lon="15.902492616099135"><ele>898.0</ele><time>2026-04-26T12:09:14Z</time></trkpt><trkpt lat="39.92699915674588" lon="15.902354989870956"><ele>904.25</ele><time>2026-04-26T12:09:15Z</time></trkpt><trkpt lat="39.9269778053809" lon="15.902182511599836"><ele>910.5</ele><time>2026-04-26T12:09:16Z</time></trkpt><trkpt lat="39.92695653865993" lon="15.902009170408597"><ele>916.75</ele><time>2026-04-26T12:09:17Z</time></trkpt><trkpt lat="39.92693739132017" lon="15.901852749070262"><ele>923.0</ele><time>2026-04-26T12:09:18Z</time></trkpt><trkpt lat="39.92687216886257" lon="15.901712223017432"><ele>924.8333333333334</ele><time>2026-04-26T12:09:19Z</time></trkpt><trkpt lat="39.926856920306655" lon="15.90157387011583"><ele>926.6666666666667</ele><time>2026-04-26T12:09:20Z</time></trkpt><trkpt lat="39.926851688713754" lon="15.901485186806552"><ele>928.5</ele><time>2026-04-26T12:09:21Z</time></trkpt><trkpt lat="39.926909415842225" lon="15.90133742390659"><ele>930.3333333333333</ele><time>2026-04-26T12:09:23Z</time></trkpt><trkpt lat="39.926926478854234" lon="15.901248022279496"><ele>932.1666666666666</ele><time>2026-04-26T12:09:24Z</time></trkpt><trkpt lat="39.926955520487105" lon="15.901164909302523"><ele>934.0</ele><time>2026-04-26T12:09:25Z</time></trkpt><trkpt lat="39.92699451034082" lon="15.901050139744259"><ele>933.9999999999999</ele><time>2026-04-26T12:09:26Z</time></trkpt><trkpt lat="39.92703092503715" lon="15.900929678029781"><ele>934.0</ele><time>2026-04-26T12:09:27Z</time></trkpt><trkpt lat="39.927043251834654" lon="15.900848508111068"><ele>934.0</ele><time>2026-04-26T12:09:28Z</time></trkpt><trkpt lat="39.927017034926656" lon="15.900750805990237"><ele>934.0</ele><time>2026-04-26T12:09:29Z</time></trkpt><trkpt lat="39.92702415406361" lon="15.900636785256427"><ele>933.9999999999999</ele><time>2026-04-26T12:09:30Z</time></trkpt><trkpt lat="39.92703621347393" lon="15.900523670044345"><ele>934.0</ele><time>2026-04-26T12:09:31Z</time></trkpt><trkpt lat="39.92705699307851" lon="15.900402848223443"><ele>935.6</ele><time>2026-04-26T12:09:32Z</time></trkpt><trkpt lat="39.927089681824306" lon="15.900280327299905"><ele>937.2</ele><time>2026-04-26T12:09:33Z</time></trkpt><trkpt lat="39.92711378785967" lon="15.900201133683838"><ele>938.8000000000001</ele><time>2026-04-26T12:09:34Z</time></trkpt><trkpt lat="39.92716644361979" lon="15.900048920586176"><ele>940.4000000000001</ele><time>2026-04-26T12:09:36Z</time></trkpt><trkpt lat="39.92717600390923" lon="15.899955338570367"><ele>942.0</ele><time>2026-04-26T12:09:37Z</time></trkpt><trkpt lat="39.92713687609252" lon="15.89984599169999"><ele>943.0</ele><time>2026-04-26T12:09:38Z</time></trkpt><trkpt lat="39.92709496156035" lon="15.899734008455106"><ele>944.0</ele><time>2026-04-26T12:09:39Z</time></trkpt><trkpt lat="39.92705066688084" lon="15.899588130923677"><ele>945.0</ele><time>2026-04-26T12:09:40Z</time></trkpt><trkpt lat="39.92701302356788" lon="15.899439562246723"><ele>946.0</ele><time>2026-04-26T12:09:41Z</time></trkpt><trkpt lat="39.926991202044626" lon="15.899299915315291"><ele>947.0</ele><time>2026-04-26T12:09:42Z</time></trkpt><trkpt lat="39.92698203527958" lon="15.899160328389637"><ele>949.5</ele><time>2026-04-26T12:09:43Z</time></trkpt><trkpt lat="39.927008494038155" lon="15.899006882015096"><ele>952.0</ele><time>2026-04-26T12:09:44Z</time></trkpt><trkpt lat="39.92698648968749" lon="15.89885826314881"><ele>954.5</ele><time>2026-04-26T12:09:45Z</time></trkpt><trkpt lat="39.92695795492219" lon="15.898721746014191"><ele>957.0</ele><time>2026-04-26T12:09:46Z</time></trkpt><trkpt lat="39.92692896443281" lon="15.898591042847613"><ele>957.0</ele><time>2026-04-26T12:09:47Z</time></trkpt><trkpt lat="39.92691078362331" lon="15.89847402685475"><ele>957.0</ele><time>2026-04-26T12:09:48Z</time></trkpt><trkpt lat="39.92690686208227" lon="15.898367258338737"><ele>957.0</ele><time>2026-04-26T12:09:49Z</time></trkpt><trkpt lat="39.92688987191776" lon="15.898271748206863"><ele>957.0</ele><time>2026-04-26T12:09:50Z</time></trkpt><trkpt lat="39.92683546689555" lon="15.8981724627799"><ele>957.0</ele><time>2026-04-26T12:09:52Z</time></trkpt><trkpt lat="39.92676062960158" lon="15.898103571789635"><ele>957.0</ele><time>2026-04-26T12:09:54Z</time></trkpt><trkpt lat="39.92664567748299" lon="15.897997777697233"><ele>958.5</ele><time>2026-04-26T12:09:56Z</time></trkpt><trkpt lat="39.92659447198971" lon="15.897925115774738"><ele>960.0</ele><time>2026-04-26T12:09:57Z</time></trkpt><trkpt lat="39.92654937842934" lon="15.897821663119602"><ele>961.5</ele><time>2026-04-26T12:09:58Z</time></trkpt><trkpt lat="39.92654348377493" lon="15.89771800444284"><ele>963.0</ele><time>2026-04-26T12:09:59Z</time></trkpt><trkpt lat="39.926558963720524" lon="15.897627119142468"><ele>964.5</ele><time>2026-04-26T12:10:00Z</time></trkpt><trkpt lat="39.9265967443669" lon="15.897551070016895"><ele>966.0</ele><time>2026-04-26T12:10:01Z</time></trkpt><trkpt lat="39.926676793236396" lon="15.897455979168017"><ele>972.0</ele><time>2026-04-26T12:10:03Z</time></trkpt><trkpt lat="39.92676034759696" lon="15.897340594758536"><ele>977.9999999999999</ele><time>2026-04-26T12:10:05Z</time></trkpt><trkpt lat="39.926796057089604" lon="15.897238804495519"><ele>983.9999999999999</ele><time>2026-04-26T12:10:06Z</time></trkpt><trkpt lat="39.92682981175901" lon="15.897109975093727"><ele>990.0</ele><time>2026-04-26T12:10:07Z</time></trkpt><trkpt lat="39.92682850247061" lon="15.89701283525158"><ele>996.0</ele><time>2026-04-26T12:10:08Z</time></trkpt><trkpt lat="39.926828817867666" lon="15.896894850725102"><ele>996.0</ele><time>2026-04-26T12:10:09Z</time></trkpt><trkpt lat="39.92683608809084" lon="15.896795610405768"><ele>996.0</ele><time>2026-04-26T12:10:10Z</time></trkpt><trkpt lat="39.92685957545099" lon="15.89668722147235"><ele>996.0</ele><time>2026-04-26T12:10:11.999Z</time></trkpt><trkpt lat="39.92688770560785" lon="15.896610790081033"><ele>996.0</ele><time>2026-04-26T12:10:14.999Z</time></trkpt><trkpt lat="39.92683903934821" lon="15.89651201869125"><ele>996.0</ele><time>2026-04-26T12:12:36.999Z</time></trkpt><trkpt lat="39.92674986806705" lon="15.896510704341376"><ele>996.0</ele><time>2026-04-26T12:12:39.999Z</time></trkpt><trkpt lat="39.926702918646704" lon="15.896423673968892"><ele>997.0</ele><time>2026-04-26T12:12:42.999Z</time></trkpt><trkpt lat="39.92673918961354" lon="15.896303756890815"><ele>997.9999999999999</ele><time>2026-04-26T12:12:44.999Z</time></trkpt><trkpt lat="39.92676547480685" lon="15.89622638503251"><ele>998.9999999999999</ele><time>2026-04-26T12:12:45.999Z</time></trkpt><trkpt lat="39.92678612753496" lon="15.89614329068901"><ele>1000.0</ele><time>2026-04-26T12:12:46.999Z</time></trkpt><trkpt lat="39.92699356294621" lon="15.896120494197833"><ele>1001.0</ele><time>2026-04-26T12:12:47.999Z</time></trkpt><trkpt lat="39.92700887909442" lon="15.896024158337127"><ele>1001.0000000000001</ele><time>2026-04-26T12:12:48.999Z</time></trkpt><trkpt lat="39.92702461059699" lon="15.895925209961064"><ele>1001.0</ele><time>2026-04-26T12:12:49.999Z</time></trkpt><trkpt lat="39.92704095608954" lon="15.895820187860636"><ele>1001.0</ele><time>2026-04-26T12:12:50.999Z</time></trkpt><trkpt lat="39.9270570864393" lon="15.895707796174351"><ele>1001.0</ele><time>2026-04-26T12:12:51.999Z</time></trkpt><trkpt lat="39.927066926508104" lon="15.895593898107192"><ele>1001.0000000000001</ele><time>2026-04-26T12:12:52.999Z</time></trkpt><trkpt lat="39.92707489491264" lon="15.895456198350605"><ele>1001.0</ele><time>2026-04-26T12:12:53.999Z</time></trkpt><trkpt lat="39.92707908601732" lon="15.89533383447295"><ele>999.75</ele><time>2026-04-26T12:12:54.999Z</time></trkpt><trkpt lat="39.92708025910299" lon="15.895187769879845"><ele>998.5</ele><time>2026-04-26T12:12:55.999Z</time></trkpt><trkpt lat="39.92707542664314" lon="15.895004109934359"><ele>997.25</ele><time>2026-04-26T12:12:56.999Z</time></trkpt><trkpt lat="39.92706141861885" lon="15.894856227622657"><ele>996.0</ele><time>2026-04-26T12:12:57.999Z</time></trkpt><trkpt lat="39.92704017481665" lon="15.894715356634512"><ele>994.8</ele><time>2026-04-26T12:12:58.999Z</time></trkpt><trkpt lat="39.92701917196949" lon="15.89456845029511"><ele>993.5999999999999</ele><time>2026-04-26T12:12:59.999Z</time></trkpt><trkpt lat="39.92699621130152" lon="15.894413129668969"><ele>992.4</ele><time>2026-04-26T12:13:00.999Z</time></trkpt><trkpt lat="39.92697801723946" lon="15.89429280462973"><ele>991.2</ele><time>2026-04-26T12:13:01.999Z</time></trkpt><trkpt lat="39.92696117717999" lon="15.894181434547601"><ele>990.0</ele><time>2026-04-26T12:13:02.999Z</time></trkpt><trkpt lat="39.92694346335472" lon="15.894064286658807"><ele>988.75</ele><time>2026-04-26T12:13:03.999Z</time></trkpt><trkpt lat="39.92692550089195" lon="15.893945494485228"><ele>987.5</ele><time>2026-04-26T12:13:04.999Z</time></trkpt><trkpt lat="39.92690903039645" lon="15.893836569214523"><ele>986.25</ele><time>2026-04-26T12:13:05.999Z</time></trkpt><trkpt lat="39.92689664380746" lon="15.8937546522167"><ele>985.0</ele><time>2026-04-26T12:13:06.999Z</time></trkpt><trkpt lat="39.926448182837355" lon="15.893801629313106"><ele>986.8333333333333</ele><time>2026-04-26T12:13:07.999Z</time></trkpt><trkpt lat="39.92643947526627" lon="15.893713032382577"><ele>988.6666666666666</ele><time>2026-04-26T12:13:08.999Z</time></trkpt><trkpt lat="39.926430791204325" lon="15.893578834191588"><ele>990.5</ele><time>2026-04-26T12:13:10.999Z</time></trkpt><trkpt lat="39.92638647622523" lon="15.893509659215558"><ele>992.3333333333333</ele><time>2026-04-26T12:13:19Z</time></trkpt><trkpt lat="39.926315244090056" lon="15.893476590051751"><ele>994.1666666666666</ele><time>2026-04-26T12:13:22Z</time></trkpt><trkpt lat="39.92622667333315" lon="15.89347240973849"><ele>996.0</ele><time>2026-04-26T12:13:24Z</time></trkpt><trkpt lat="39.926152923994906" lon="15.893400685001387"><ele>996.8</ele><time>2026-04-26T12:13:26Z</time></trkpt><trkpt lat="39.926074564513485" lon="15.893322928158685"><ele>997.5999999999999</ele><time>2026-04-26T12:13:28Z</time></trkpt><trkpt lat="39.92600206425749" lon="15.893249038257288"><ele>998.4</ele><time>2026-04-26T12:13:31Z</time></trkpt><trkpt lat="39.925923031194046" lon="15.893100214572808"><ele>999.2</ele><time>2026-04-26T12:13:33Z</time></trkpt><trkpt lat="39.9258843015483" lon="15.893018561170772"><ele>1000.0</ele><time>2026-04-26T12:13:34Z</time></trkpt><trkpt lat="39.92584931148817" lon="15.892947655751065"><ele>1005.2</ele><time>2026-04-26T12:13:35Z</time></trkpt><trkpt lat="39.925739089280604" lon="15.892850799939238"><ele>1010.4</ele><time>2026-04-26T12:13:37Z</time></trkpt><trkpt lat="39.925652708168606" lon="15.892786278544264"><ele>1015.5999999999999</ele><time>2026-04-26T12:13:39Z</time></trkpt><trkpt lat="39.925544512971484" lon="15.892757947344323"><ele>1020.8</ele><time>2026-04-26T12:13:41Z</time></trkpt><trkpt lat="39.92546558079226" lon="15.892671571650736"><ele>1026.0</ele><time>2026-04-26T12:13:43Z</time></trkpt><trkpt lat="39.92540846109962" lon="15.892618834860242"><ele>1025.5</ele><time>2026-04-26T12:13:44Z</time></trkpt><trkpt lat="39.92527950636518" lon="15.892562496590223"><ele>1025.0</ele><time>2026-04-26T12:13:46Z</time></trkpt><trkpt lat="39.925205956054626" lon="15.892522095845043"><ele>1024.5</ele><time>2026-04-26T12:13:47Z</time></trkpt><trkpt lat="39.92514201531614" lon="15.89247288941885"><ele>1024.0</ele><time>2026-04-26T12:13:48Z</time></trkpt><trkpt lat="39.92508597075963" lon="15.892401947663316"><ele>1023.5</ele><time>2026-04-26T12:13:49Z</time></trkpt><trkpt lat="39.92503295701107" lon="15.892344386023401"><ele>1023.0</ele><time>2026-04-26T12:13:50Z</time></trkpt><trkpt lat="39.9249663469489" lon="15.89230042714981"><ele>1027.1666666666667</ele><time>2026-04-26T12:13:51Z</time></trkpt><trkpt lat="39.924889270094546" lon="15.892249156794414"><ele>1031.3333333333333</ele><time>2026-04-26T12:13:52Z</time></trkpt><trkpt lat="39.92481743216422" lon="15.892185043693614"><ele>1035.5</ele><time>2026-04-26T12:13:53Z</time></trkpt><trkpt lat="39.92477419561518" lon="15.89210789508345"><ele>1039.6666666666665</ele><time>2026-04-26T12:13:54Z</time></trkpt><trkpt lat="39.9247362334139" lon="15.89202602121481"><ele>1043.8333333333333</ele><time>2026-04-26T12:13:55Z</time></trkpt><trkpt lat="39.924684343724465" lon="15.89187577127919"><ele>1048.0</ele><time>2026-04-26T12:13:57Z</time></trkpt><trkpt lat="39.92465091909478" lon="15.89180201237376"><ele>1047.8333333333333</ele><time>2026-04-26T12:13:58Z</time></trkpt><trkpt lat="39.92459722829468" lon="15.891720868568603"><ele>1047.6666666666665</ele><time>2026-04-26T12:13:59Z</time></trkpt><trkpt lat="39.92453156733887" lon="15.891582977027296"><ele>1047.5</ele><time>2026-04-26T12:14:01Z</time></trkpt><trkpt lat="39.924481855032774" lon="15.891528916428252"><ele>1047.3333333333333</ele><time>2026-04-26T12:14:02Z</time></trkpt><trkpt lat="39.924394351895124" lon="15.891520204914388"><ele>1047.1666666666667</ele><time>2026-04-26T12:14:03Z</time></trkpt><trkpt lat="39.924318403054556" lon="15.891506691024222"><ele>1047.0</ele><time>2026-04-26T12:14:04Z</time></trkpt><trkpt lat="39.924208104550125" lon="15.89146546452264"><ele>1050.6</ele><time>2026-04-26T12:14:06Z</time></trkpt><trkpt lat="39.92414676921335" lon="15.891423115707191"><ele>1054.2</ele><time>2026-04-26T12:14:07Z</time></trkpt><trkpt lat="39.924035091848666" lon="15.891428822185558"><ele>1057.8</ele><time>2026-04-26T12:14:09Z</time></trkpt><trkpt lat="39.92393729155612" lon="15.89153442766355"><ele>1061.4</ele><time>2026-04-26T12:14:11Z</time></trkpt><trkpt lat="39.92386129579539" lon="15.891556824288049"><ele>1065.0</ele><time>2026-04-26T12:14:12Z</time></trkpt><trkpt lat="39.92376600685518" lon="15.891586495174616"><ele>1065.0</ele><time>2026-04-26T12:14:13Z</time></trkpt><trkpt lat="39.92369569404507" lon="15.891633141829601"><ele>1065.0</ele><time>2026-04-26T12:14:14Z</time></trkpt><trkpt lat="39.92363631001394" lon="15.891679015074358"><ele>1065.0</ele><time>2026-04-26T12:14:16Z</time></trkpt><trkpt lat="39.92354775007976" lon="15.891613208412265"><ele>1065.0</ele><time>2026-04-26T12:14:18Z</time></trkpt><trkpt lat="39.92343840935637" lon="15.891554511276672"><ele>1065.0</ele><time>2026-04-26T12:14:19.999Z</time></trkpt><trkpt lat="39.9233689991092" lon="15.891556794978015"><ele>1065.0</ele><time>2026-04-26T12:14:20.999Z</time></trkpt><trkpt lat="39.92330416626146" lon="15.891571705483866"><ele>1068.6666666666667</ele><time>2026-04-26T12:14:21.999Z</time></trkpt><trkpt lat="39.923196981567116" lon="15.891584270192393"><ele>1072.3333333333333</ele><time>2026-04-26T12:14:23.999Z</time></trkpt><trkpt lat="39.92313067276703" lon="15.89157210406505"><ele>1076.0</ele><time>2026-04-26T12:14:24.999Z</time></trkpt><trkpt lat="39.92305758483189" lon="15.891552217148012"><ele>1079.6666666666665</ele><time>2026-04-26T12:14:25.999Z</time></trkpt><trkpt lat="39.9229905701162" lon="15.89154017240996"><ele>1083.3333333333333</ele><time>2026-04-26T12:14:26.999Z</time></trkpt><trkpt lat="39.92292933732533" lon="15.891509433797141"><ele>1087.0</ele><time>2026-04-26T12:14:27.999Z</time></trkpt><trkpt lat="39.922830219410365" lon="15.89140988432291"><ele>1087.0</ele><time>2026-04-26T12:14:29.999Z</time></trkpt><trkpt lat="39.92275510775306" lon="15.891345110442227"><ele>1087.0</ele><time>2026-04-26T12:14:30.999Z</time></trkpt><trkpt lat="39.922689298656785" lon="15.89130891258084"><ele>1087.0</ele><time>2026-04-26T12:14:31.999Z</time></trkpt><trkpt lat="39.92261049990607" lon="15.891300675900366"><ele>1087.0</ele><time>2026-04-26T12:14:32.999Z</time></trkpt><trkpt lat="39.92252609526495" lon="15.891273594567199"><ele>1087.0</ele><time>2026-04-26T12:14:33.999Z</time></trkpt><trkpt lat="39.922430497585005" lon="15.891238735767798"><ele>1087.0</ele><time>2026-04-26T12:14:34.999Z</time></trkpt><trkpt lat="39.92234561771519" lon="15.891185660785222"><ele>1088.8</ele><time>2026-04-26T12:14:35.999Z</time></trkpt><trkpt lat="39.922277214579246" lon="15.891118173587152"><ele>1090.6</ele><time>2026-04-26T12:14:36.999Z</time></trkpt><trkpt lat="39.922200183476676" lon="15.891026976183342"><ele>1092.3999999999999</ele><time>2026-04-26T12:14:37.999Z</time></trkpt><trkpt lat="39.922106202986335" lon="15.890951986409846"><ele>1094.2</ele><time>2026-04-26T12:14:38.999Z</time></trkpt><trkpt lat="39.922022162238555" lon="15.890903885577428"><ele>1096.0</ele><time>2026-04-26T12:14:39.999Z</time></trkpt><trkpt lat="39.92193855466841" lon="15.890867401459706"><ele>1096.0</ele><time>2026-04-26T12:14:40.999Z</time></trkpt><trkpt lat="39.92185969467037" lon="15.890836280614717"><ele>1096.0</ele><time>2026-04-26T12:14:41.999Z</time></trkpt><trkpt lat="39.92179370585926" lon="15.890836250101236"><ele>1096.0</ele><time>2026-04-26T12:14:42.999Z</time></trkpt><trkpt lat="39.92172689232709" lon="15.890843638392377"><ele>1096.0</ele><time>2026-04-26T12:14:43.999Z</time></trkpt><trkpt lat="39.921627214124015" lon="15.890819607690466"><ele>1096.0</ele><time>2026-04-26T12:14:45.999Z</time></trkpt><trkpt lat="39.92156818128442" lon="15.89076107551646"><ele>1096.0</ele><time>2026-04-26T12:14:46.999Z</time></trkpt><trkpt lat="39.92150448921622" lon="15.890704206608758"><ele>1098.5</ele><time>2026-04-26T12:14:47.999Z</time></trkpt><trkpt lat="39.92144703581421" lon="15.890649731910766"><ele>1101.0</ele><time>2026-04-26T12:14:48.999Z</time></trkpt><trkpt lat="39.92139116748667" lon="15.890595381156983"><ele>1103.5</ele><time>2026-04-26T12:14:49.999Z</time></trkpt><trkpt lat="39.921336075404426" lon="15.890539263844104"><ele>1106.0</ele><time>2026-04-26T12:14:50.999Z</time></trkpt><trkpt lat="39.92122351730326" lon="15.890497272037601"><ele>1108.5</ele><time>2026-04-26T12:14:52.999Z</time></trkpt><trkpt lat="39.921146035173415" lon="15.890438548958581"><ele>1111.0</ele><time>2026-04-26T12:14:53.999Z</time></trkpt><trkpt lat="39.921084959862064" lon="15.890357705180097"><ele>1111.0</ele><time>2026-04-26T12:14:54.999Z</time></trkpt><trkpt lat="39.92103775565011" lon="15.890282711471297"><ele>1111.0</ele><time>2026-04-26T12:14:55.999Z</time></trkpt><trkpt lat="39.920985718213956" lon="15.89021939309948"><ele>1111.0</ele><time>2026-04-26T12:14:56.999Z</time></trkpt><trkpt lat="39.92092248544087" lon="15.890167810822703"><ele>1111.0</ele><time>2026-04-26T12:14:57.999Z</time></trkpt><trkpt lat="39.92084448321316" lon="15.890099671682217"><ele>1111.0</ele><time>2026-04-26T12:14:59.999Z</time></trkpt><trkpt lat="39.9207812060988" lon="15.890039770717848"><ele>1111.0</ele><time>2026-04-26T12:15:44Z</time></trkpt><trkpt lat="39.92069713319737" lon="15.889960750475106"><ele>1113.6666666666665</ele><time>2026-04-26T12:15:46Z</time></trkpt><trkpt lat="39.920616138216765" lon="15.889878438763054"><ele>1116.3333333333333</ele><time>2026-04-26T12:15:48Z</time></trkpt><trkpt lat="39.92053637545372" lon="15.889819889442734"><ele>1119.0</ele><time>2026-04-26T12:15:50Z</time></trkpt><trkpt lat="39.920452556265325" lon="15.889764044285569"><ele>1121.6666666666667</ele><time>2026-04-26T12:15:52Z</time></trkpt><trkpt lat="39.920383055939844" lon="15.889715730996993"><ele>1124.3333333333335</ele><time>2026-04-26T12:16:05Z</time></trkpt><trkpt lat="39.92030601618719" lon="15.889691555050023"><ele>1127.0</ele><time>2026-04-26T12:16:08Z</time></trkpt><trkpt lat="39.920261523398445" lon="15.889624334579254"><ele>1127.0</ele><time>2026-04-26T12:16:11Z</time></trkpt><trkpt lat="39.92020684885555" lon="15.889579481400744"><ele>1127.0</ele><time>2026-04-26T12:16:13Z</time></trkpt><trkpt lat="39.920110351078044" lon="15.889538073724303"><ele>1127.0</ele><time>2026-04-26T12:16:15Z</time></trkpt><trkpt lat="39.92002815506651" lon="15.88944414781912"><ele>1127.0</ele><time>2026-04-26T12:16:17Z</time></trkpt><trkpt lat="39.91996758927338" lon="15.889309569071644"><ele>1127.0</ele><time>2026-04-26T12:16:19Z</time></trkpt><trkpt lat="39.91989839972404" lon="15.889268826521237"><ele>1130.0</ele><time>2026-04-26T12:16:20Z</time></trkpt><trkpt lat="39.9198288765281" lon="15.889230897590135"><ele>1133.0</ele><time>2026-04-26T12:16:21Z</time></trkpt><trkpt lat="39.91973845533285" lon="15.889168504233584"><ele>1136.0</ele><time>2026-04-26T12:16:21.999Z</time></trkpt><trkpt lat="39.91963580021901" lon="15.889101178361132"><ele>1139.0</ele><time>2026-04-26T12:16:22.999Z</time></trkpt><trkpt lat="39.91953094809101" lon="15.889021789306236"><ele>1142.0</ele><time>2026-04-26T12:16:23.999Z</time></trkpt><trkpt lat="39.91944968386083" lon="15.88893251016061"><ele>1142.0</ele><time>2026-04-26T12:16:24.999Z</time></trkpt><trkpt lat="39.9193632434985" lon="15.888845928535769"><ele>1142.0</ele><time>2026-04-26T12:16:25.999Z</time></trkpt><trkpt lat="39.919297379758454" lon="15.888759127675186"><ele>1142.0</ele><time>2026-04-26T12:16:26.999Z</time></trkpt><trkpt lat="39.91922005631509" lon="15.888664520151021"><ele>1142.0</ele><time>2026-04-26T12:16:27.999Z</time></trkpt><trkpt lat="39.91913522807482" lon="15.888556766184239"><ele>1142.0</ele><time>2026-04-26T12:16:28.999Z</time></trkpt><trkpt lat="39.91903433990359" lon="15.888431759412303"><ele>1144.2</ele><time>2026-04-26T12:16:29.999Z</time></trkpt><trkpt lat="39.9189460213866" lon="15.888329798525309"><ele>1146.4</ele><time>2026-04-26T12:16:30.999Z</time></trkpt><trkpt lat="39.918875857512354" lon="15.888250077001858"><ele>1148.6</ele><time>2026-04-26T12:16:31.999Z</time></trkpt><trkpt lat="39.918802301859735" lon="15.888172507188465"><ele>1150.8</ele><time>2026-04-26T12:16:32.999Z</time></trkpt><trkpt lat="39.9187525434524" lon="15.888112614654416"><ele>1153.0</ele><time>2026-04-26T12:16:33.999Z</time></trkpt><trkpt lat="39.918649043473835" lon="15.888051562080868"><ele>1153.0</ele><time>2026-04-26T12:16:35.999Z</time></trkpt><trkpt lat="39.918586659819944" lon="15.888009916683494"><ele>1153.0</ele><time>2026-04-26T12:16:36.999Z</time></trkpt><trkpt lat="39.9184975065817" lon="15.887932575709625"><ele>1153.0</ele><time>2026-04-26T12:16:37.999Z</time></trkpt><trkpt lat="39.91842387392115" lon="15.8878163735221"><ele>1153.0</ele><time>2026-04-26T12:16:38.999Z</time></trkpt><trkpt lat="39.918352893692024" lon="15.887684676741397"><ele>1153.0</ele><time>2026-04-26T12:16:39.999Z</time></trkpt><trkpt lat="39.91827582383558" lon="15.887542683844817"><ele>1154.4</ele><time>2026-04-26T12:16:40.999Z</time></trkpt><trkpt lat="39.918201667205594" lon="15.887412332542484"><ele>1155.8</ele><time>2026-04-26T12:16:41.999Z</time></trkpt><trkpt lat="39.91814525678736" lon="15.887280825545947"><ele>1157.2</ele><time>2026-04-26T12:16:42.999Z</time></trkpt><trkpt lat="39.91808622411314" lon="15.88718272021692"><ele>1158.6</ele><time>2026-04-26T12:16:43.999Z</time></trkpt><trkpt lat="39.9180395882251" lon="15.887077856285694"><ele>1160.0</ele><time>2026-04-26T12:16:44.999Z</time></trkpt><trkpt lat="39.91800442345178" lon="15.88696307683735"><ele>1160.0</ele><time>2026-04-26T12:16:45.999Z</time></trkpt><trkpt lat="39.917979057751545" lon="15.88684644739214"><ele>1160.0</ele><time>2026-04-26T12:16:46.999Z</time></trkpt><trkpt lat="39.91793369476876" lon="15.886747755248773"><ele>1160.0</ele><time>2026-04-26T12:16:47.999Z</time></trkpt><trkpt lat="39.917871845037546" lon="15.886685822800269"><ele>1160.0</ele><time>2026-04-26T12:16:48.999Z</time></trkpt><trkpt lat="39.91779834604399" lon="15.886644783509068"><ele>1160.0</ele><time>2026-04-26T12:16:49.999Z</time></trkpt><trkpt lat="39.917732594970744" lon="15.88662840209428"><ele>1160.0</ele><time>2026-04-26T12:16:50.999Z</time></trkpt><trkpt lat="39.91766813969043" lon="15.886600314712801"><ele>1160.5</ele><time>2026-04-26T12:16:51.999Z</time></trkpt><trkpt lat="39.91756356430115" lon="15.886511382465326"><ele>1161.0</ele><time>2026-04-26T12:16:53.999Z</time></trkpt><trkpt lat="39.917513914001674" lon="15.886449908579962"><ele>1161.5</ele><time>2026-04-26T12:16:54.999Z</time></trkpt><trkpt lat="39.91745188575956" lon="15.886373041369838"><ele>1162.0</ele><time>2026-04-26T12:16:55.999Z</time></trkpt><trkpt lat="39.917396027875064" lon="15.886304230070268"><ele>1162.5</ele><time>2026-04-26T12:16:56.999Z</time></trkpt><trkpt lat="39.91733755454902" lon="15.886233299048547"><ele>1163.0</ele><time>2026-04-26T12:16:57.999Z</time></trkpt><trkpt lat="39.917277615467164" lon="15.886169556508486"><ele>1163.0</ele><time>2026-04-26T12:16:58.999Z</time></trkpt><trkpt lat="39.91722921621982" lon="15.88611479449736"><ele>1163.0</ele><time>2026-04-26T12:16:59.999Z</time></trkpt><trkpt lat="39.91716716133449" lon="15.88603240666744"><ele>1163.0</ele><time>2026-04-26T12:17:01.999Z</time></trkpt><trkpt lat="39.917106612393376" lon="15.885971777158007"><ele>1163.0</ele><time>2026-04-26T12:17:08.999Z</time></trkpt><trkpt lat="39.91702767688517" lon="15.885851282993299"><ele>1163.0</ele><time>2026-04-26T12:17:11.999Z</time></trkpt><trkpt lat="39.916991318511286" lon="15.885675518172913"><ele>1162.8333333333335</ele><time>2026-04-26T12:17:13.999Z</time></trkpt><trkpt lat="39.916954724074515" lon="15.88559846140736"><ele>1162.6666666666667</ele><time>2026-04-26T12:17:14.999Z</time></trkpt><trkpt lat="39.91691082109076" lon="15.885517479741676"><ele>1162.5</ele><time>2026-04-26T12:17:15.999Z</time></trkpt><trkpt lat="39.91685174244575" lon="15.88544892322328"><ele>1162.3333333333333</ele><time>2026-04-26T12:17:16.999Z</time></trkpt><trkpt lat="39.916786236704354" lon="15.88538472143079"><ele>1162.1666666666665</ele><time>2026-04-26T12:17:17.999Z</time></trkpt><trkpt lat="39.91673318026732" lon="15.885339556342933"><ele>1162.0</ele><time>2026-04-26T12:17:18.999Z</time></trkpt><trkpt lat="39.91665554538677" lon="15.885225768335484"><ele>1162.0</ele><time>2026-04-26T12:17:20.999Z</time></trkpt><trkpt lat="39.916630328949964" lon="15.885148975740162"><ele>1162.0</ele><time>2026-04-26T12:17:21.999Z</time></trkpt><trkpt lat="39.916605296108386" lon="15.885046834790352"><ele>1162.0</ele><time>2026-04-26T12:17:22.999Z</time></trkpt><trkpt lat="39.91657094841058" lon="15.884930315512069"><ele>1162.0</ele><time>2026-04-26T12:17:23.999Z</time></trkpt><trkpt lat="39.91653093114537" lon="15.884816972878516"><ele>1162.0</ele><time>2026-04-26T12:17:24.999Z</time></trkpt><trkpt lat="39.91648876253274" lon="15.884743698397678"><ele>1162.0</ele><time>2026-04-26T12:17:25.999Z</time></trkpt><trkpt lat="39.9164079026234" lon="15.884681177601884"><ele>1166.8</ele><time>2026-04-26T12:17:28Z</time></trkpt><trkpt lat="39.91630534454213" lon="15.884697748259743"><ele>1171.6</ele><time>2026-04-26T12:17:30Z</time></trkpt><trkpt lat="39.91620403339467" lon="15.884679188600055"><ele>1176.3999999999999</ele><time>2026-04-26T12:17:32Z</time></trkpt><trkpt lat="39.916147023473144" lon="15.884643860157269"><ele>1181.2</ele><time>2026-04-26T12:17:33Z</time></trkpt><trkpt lat="39.91606426697297" lon="15.88460883838908"><ele>1186.0</ele><time>2026-04-26T12:17:35Z</time></trkpt><trkpt lat="39.91603950464944" lon="15.884485481522875"><ele>1186.0</ele><time>2026-04-26T12:17:37Z</time></trkpt><trkpt lat="39.91602660125669" lon="15.884392362972767"><ele>1186.0</ele><time>2026-04-26T12:17:38Z</time></trkpt><trkpt lat="39.91601201185459" lon="15.884269943934052"><ele>1186.0</ele><time>2026-04-26T12:17:39Z</time></trkpt><trkpt lat="39.91598837642185" lon="15.884132050256607"><ele>1186.0</ele><time>2026-04-26T12:17:40Z</time></trkpt><trkpt lat="39.91594876717017" lon="15.884014640026146"><ele>1186.0</ele><time>2026-04-26T12:17:41Z</time></trkpt><trkpt lat="39.91589071821612" lon="15.883924220553995"><ele>1186.3333333333333</ele><time>2026-04-26T12:17:42Z</time></trkpt><trkpt lat="39.91582271743857" lon="15.883863779336682"><ele>1186.6666666666665</ele><time>2026-04-26T12:17:43Z</time></trkpt><trkpt lat="39.91576262686458" lon="15.883792727432681"><ele>1187.0</ele><time>2026-04-26T12:17:44Z</time></trkpt><trkpt lat="39.915715637241284" lon="15.883728942688384"><ele>1187.3333333333333</ele><time>2026-04-26T12:17:45Z</time></trkpt><trkpt lat="39.915668313614944" lon="15.883644706459343"><ele>1187.6666666666667</ele><time>2026-04-26T12:17:47Z</time></trkpt><trkpt lat="39.91566325183669" lon="15.883485500471924"><ele>1188.0</ele><time>2026-04-26T12:17:49Z</time></trkpt><trkpt lat="39.91566741967544" lon="15.883401983948453"><ele>1188.0</ele><time>2026-04-26T12:17:50Z</time></trkpt><trkpt lat="39.91567028799647" lon="15.883286943968828"><ele>1188.0</ele><time>2026-04-26T12:17:52Z</time></trkpt><trkpt lat="39.91568298606476" lon="15.883159352028752"><ele>1188.0</ele><time>2026-04-26T12:17:54Z</time></trkpt><trkpt lat="39.91570855251053" lon="15.883050689654109"><ele>1188.0</ele><time>2026-04-26T12:17:56Z</time></trkpt><trkpt lat="39.91575716600181" lon="15.882955255968666"><ele>1188.0</ele><time>2026-04-26T12:17:58Z</time></trkpt><trkpt lat="39.91582148717283" lon="15.882867212436478"><ele>1188.0</ele><time>2026-04-26T12:18:00Z</time></trkpt><trkpt lat="39.91587322288099" lon="15.882766585923832"><ele>1188.0</ele><time>2026-04-26T12:18:02Z</time></trkpt><trkpt lat="39.915941067155536" lon="15.882674334386852"><ele>1188.0</ele><time>2026-04-26T12:18:04Z</time></trkpt><trkpt lat="39.91600250550746" lon="15.88258896692897"><ele>1188.0</ele><time>2026-04-26T12:18:06Z</time></trkpt><trkpt lat="39.91607505848379" lon="15.882487941768895"><ele>1188.0</ele><time>2026-04-26T12:18:08Z</time></trkpt><trkpt lat="39.91615440581973" lon="15.882421806172454"><ele>1186.2</ele><time>2026-04-26T12:18:10Z</time></trkpt><trkpt lat="39.91618615619743" lon="15.882316330515726"><ele>1184.4</ele><time>2026-04-26T12:18:12Z</time></trkpt><trkpt lat="39.91619456273251" lon="15.882182117946977"><ele>1182.6000000000001</ele><time>2026-04-26T12:18:14Z</time></trkpt><trkpt lat="39.91627130666518" lon="15.882045956244012"><ele>1180.8</ele><time>2026-04-26T12:18:16Z</time></trkpt><trkpt lat="39.916306878187946" lon="15.881969366005304"><ele>1179.0</ele><time>2026-04-26T12:18:17Z</time></trkpt><trkpt lat="39.91635703763671" lon="15.881861959905368"><ele>1179.0</ele><time>2026-04-26T12:18:19Z</time></trkpt><trkpt lat="39.91641178763654" lon="15.881817737751316"><ele>1179.0</ele><time>2026-04-26T12:18:20Z</time></trkpt><trkpt lat="39.91649098781998" lon="15.881768613628866"><ele>1179.0</ele><time>2026-04-26T12:18:21Z</time></trkpt><trkpt lat="39.916558474010614" lon="15.881720644311685"><ele>1179.0</ele><time>2026-04-26T12:18:22Z</time></trkpt><trkpt lat="39.9166240286375" lon="15.881609456868556"><ele>1179.0</ele><time>2026-04-26T12:18:24Z</time></trkpt><trkpt lat="39.916591888418296" lon="15.881419270851563"><ele>1176.6666666666667</ele><time>2026-04-26T12:18:27Z</time></trkpt><trkpt lat="39.916581406265294" lon="15.881335037025636"><ele>1174.3333333333333</ele><time>2026-04-26T12:18:28Z</time></trkpt><trkpt lat="39.91656619633164" lon="15.881229954137522"><ele>1172.0</ele><time>2026-04-26T12:18:28.999Z</time></trkpt><trkpt lat="39.916548565947714" lon="15.881133706903446"><ele>1169.6666666666665</ele><time>2026-04-26T12:18:29.999Z</time></trkpt><trkpt lat="39.9165088157668" lon="15.881051550913613"><ele>1167.3333333333333</ele><time>2026-04-26T12:18:30.999Z</time></trkpt><trkpt lat="39.91646001834655" lon="15.88098743550928"><ele>1165.0</ele><time>2026-04-26T12:18:31.999Z</time></trkpt><trkpt lat="39.91634740068002" lon="15.880952768832273"><ele>1165.0</ele><time>2026-04-26T12:18:33.999Z</time></trkpt><trkpt lat="39.91627650766088" lon="15.880967774150736"><ele>1165.0</ele><time>2026-04-26T12:18:34.999Z</time></trkpt><trkpt lat="39.916199242728744" lon="15.880997528888416"><ele>1165.0</ele><time>2026-04-26T12:18:35.999Z</time></trkpt><trkpt lat="39.916135222834356" lon="15.881018009427429"><ele>1165.0</ele><time>2026-04-26T12:18:36.999Z</time></trkpt><trkpt lat="39.91607384161277" lon="15.881044990565027"><ele>1165.0</ele><time>2026-04-26T12:18:37.999Z</time></trkpt><trkpt lat="39.91598341325907" lon="15.881145296481167"><ele>1165.0</ele><time>2026-04-26T12:18:39.999Z</time></trkpt><trkpt lat="39.915930746628085" lon="15.881190704465158"><ele>1163.0</ele><time>2026-04-26T12:18:40.999Z</time></trkpt><trkpt lat="39.91583214916594" lon="15.881270858678828"><ele>1161.0</ele><time>2026-04-26T12:18:42.999Z</time></trkpt><trkpt lat="39.91577309474702" lon="15.881305816565304"><ele>1159.0</ele><time>2026-04-26T12:18:43.999Z</time></trkpt><trkpt lat="39.91567867496291" lon="15.881283504649268"><ele>1157.0</ele><time>2026-04-26T12:18:45.999Z</time></trkpt><trkpt lat="39.91562484977682" lon="15.88122336154878"><ele>1155.0</ele><time>2026-04-26T12:18:47.999Z</time></trkpt><trkpt lat="39.91564151344345" lon="15.881119099496397"><ele>1153.0</ele><time>2026-04-26T12:18:49.999Z</time></trkpt><trkpt lat="39.91567395893001" lon="15.881037575358908"><ele>1153.0</ele><time>2026-04-26T12:18:50.999Z</time></trkpt><trkpt lat="39.91571429280196" lon="15.880960264326621"><ele>1153.0</ele><time>2026-04-26T12:18:51.999Z</time></trkpt><trkpt lat="39.91557512141228" lon="15.880810340328907"><ele>1153.0</ele><time>2026-04-26T12:18:54.999Z</time></trkpt><trkpt lat="39.915503303308434" lon="15.880706512783417"><ele>1153.0</ele><time>2026-04-26T12:18:56.999Z</time></trkpt><trkpt lat="39.915409981100304" lon="15.880619831263232"><ele>1151.0</ele><time>2026-04-26T12:18:58.999Z</time></trkpt><trkpt lat="39.915334622781835" lon="15.880508204062942"><ele>1149.0</ele><time>2026-04-26T12:19:00.999Z</time></trkpt><trkpt lat="39.91525435013442" lon="15.880372975524459"><ele>1147.0</ele><time>2026-04-26T12:19:02.999Z</time></trkpt><trkpt lat="39.91520598915979" lon="15.880280986330325"><ele>1145.0</ele><time>2026-04-26T12:19:03.999Z</time></trkpt><trkpt lat="39.915162104043816" lon="15.880176406415206"><ele>1143.0</ele><time>2026-04-26T12:19:04.999Z</time></trkpt><trkpt lat="39.91512151749663" lon="15.880074151147303"><ele>1141.5</ele><time>2026-04-26T12:19:05.999Z</time></trkpt><trkpt lat="39.915080823680874" lon="15.879979326688618"><ele>1140.0</ele><time>2026-04-26T12:19:06.999Z</time></trkpt><trkpt lat="39.9150428708056" lon="15.879900047695505"><ele>1138.5</ele><time>2026-04-26T12:19:07.999Z</time></trkpt><trkpt lat="39.91500917347776" lon="15.879827012787036"><ele>1137.0</ele><time>2026-04-26T12:19:08.999Z</time></trkpt><trkpt lat="39.91497068099133" lon="15.879691091318469"><ele>1135.5</ele><time>2026-04-26T12:19:10.999Z</time></trkpt><trkpt lat="39.91495494442516" lon="15.879561742973193"><ele>1134.0</ele><time>2026-04-26T12:19:12.999Z</time></trkpt><trkpt lat="39.91495104705937" lon="15.879473169025296"><ele>1130.8</ele><time>2026-04-26T12:19:13.999Z</time></trkpt><trkpt lat="39.91496303901335" lon="15.87936303729393"><ele>1127.6000000000001</ele><time>2026-04-26T12:19:14.999Z</time></trkpt><trkpt lat="39.91499019420168" lon="15.8792250457081"><ele>1124.4</ele><time>2026-04-26T12:19:15.999Z</time></trkpt><trkpt lat="39.915011012835095" lon="15.879134796510112"><ele>1121.2</ele><time>2026-04-26T12:19:17.999Z</time></trkpt><trkpt lat="39.915090479856524" lon="15.879041327699925"><ele>1118.0</ele><time>2026-04-26T12:19:19.999Z</time></trkpt><trkpt lat="39.91516164084967" lon="15.878965914360311"><ele>1117.8</ele><time>2026-04-26T12:19:20.999Z</time></trkpt><trkpt lat="39.915229411561405" lon="15.878910407553276"><ele>1117.6</ele><time>2026-04-26T12:19:21.999Z</time></trkpt><trkpt lat="39.91530904303176" lon="15.878830690530688"><ele>1117.4</ele><time>2026-04-26T12:19:23.999Z</time></trkpt><trkpt lat="39.91536587550432" lon="15.878713639940173"><ele>1117.2</ele><time>2026-04-26T12:19:25.999Z</time></trkpt><trkpt lat="39.91539223952173" lon="15.878559448902092"><ele>1117.0</ele><time>2026-04-26T12:19:27.999Z</time></trkpt><trkpt lat="39.915418771422644" lon="15.878452572999228"><ele>1113.6666666666665</ele><time>2026-04-26T12:19:28.999Z</time></trkpt><trkpt lat="39.91544564616526" lon="15.87833248284665"><ele>1110.3333333333333</ele><time>2026-04-26T12:19:29.999Z</time></trkpt><trkpt lat="39.91547109490403" lon="15.87822511709809"><ele>1107.0</ele><time>2026-04-26T12:19:30.999Z</time></trkpt><trkpt lat="39.91549684657313" lon="15.878118530800894"><ele>1103.6666666666667</ele><time>2026-04-26T12:19:31.999Z</time></trkpt><trkpt lat="39.915526689018144" lon="15.878020493511075"><ele>1100.3333333333335</ele><time>2026-04-26T12:19:33Z</time></trkpt><trkpt lat="39.91553388587186" lon="15.877931681396262"><ele>1097.0</ele><time>2026-04-26T12:19:35Z</time></trkpt><trkpt lat="39.915610893529134" lon="15.877926793046537"><ele>1097.0</ele><time>2026-04-26T12:19:38Z</time></trkpt><trkpt lat="39.915689282830115" lon="15.877969029220466"><ele>1097.0</ele><time>2026-04-26T12:20:54.999Z</time></trkpt><trkpt lat="39.91578097966168" lon="15.878006059981539"><ele>1097.0</ele><time>2026-04-26T12:20:56.999Z</time></trkpt><trkpt lat="39.91585833737267" lon="15.877984751019769"><ele>1097.0</ele><time>2026-04-26T12:20:59.999Z</time></trkpt><trkpt lat="39.91585116461222" lon="15.877903051594332"><ele>1097.0</ele><time>2026-04-26T12:21:01.999Z</time></trkpt><trkpt lat="39.915764572420656" lon="15.877792808375206"><ele>1097.0</ele><time>2026-04-26T12:21:03.999Z</time></trkpt><trkpt lat="39.9157099052012" lon="15.877718671639785"><ele>1097.0</ele><time>2026-04-26T12:21:04.999Z</time></trkpt><trkpt lat="39.915674434141394" lon="15.877634823796207"><ele>1097.0</ele><time>2026-04-26T12:21:05.999Z</time></trkpt><trkpt lat="39.915655268655044" lon="15.877543674065057"><ele>1097.0</ele><time>2026-04-26T12:21:06.999Z</time></trkpt><trkpt lat="39.91564278273158" lon="15.877421420366586"><ele>1097.0</ele><time>2026-04-26T12:21:08.999Z</time></trkpt><trkpt lat="39.91568746514335" lon="15.877308829327008"><ele>1097.0</ele><time>2026-04-26T12:21:10.999Z</time></trkpt><trkpt lat="39.915732073515066" lon="15.87724762534681"><ele>1097.0</ele><time>2026-04-26T12:21:13.999Z</time></trkpt><trkpt lat="39.91578112427691" lon="15.877333669792863"><ele>1094.6666666666667</ele><time>2026-04-26T12:21:16.999Z</time></trkpt><trkpt lat="39.91583116192249" lon="15.877402304326466"><ele>1092.3333333333335</ele><time>2026-04-26T12:21:18.999Z</time></trkpt><trkpt lat="39.91590822795215" lon="15.877427681599636"><ele>1090.0</ele><time>2026-04-26T12:21:19.999Z</time></trkpt><trkpt lat="39.91600132111258" lon="15.877405735192331"><ele>1087.6666666666667</ele><time>2026-04-26T12:21:20.999Z</time></trkpt><trkpt lat="39.91607456617711" lon="15.877373352275386"><ele>1085.3333333333333</ele><time>2026-04-26T12:21:21.999Z</time></trkpt><trkpt lat="39.91613532476109" lon="15.877323430425974"><ele>1083.0</ele><time>2026-04-26T12:21:22.999Z</time></trkpt><trkpt lat="39.91619122273444" lon="15.877280898181883"><ele>1078.6</ele><time>2026-04-26T12:21:23.999Z</time></trkpt><trkpt lat="39.91627929596153" lon="15.877226396612624"><ele>1074.1999999999998</ele><time>2026-04-26T12:21:25.999Z</time></trkpt><trkpt lat="39.9163513810182" lon="15.877264965443093"><ele>1069.8</ele><time>2026-04-26T12:21:28.999Z</time></trkpt><trkpt lat="39.91639614190932" lon="15.877372598651032"><ele>1065.3999999999999</ele><time>2026-04-26T12:21:31.999Z</time></trkpt><trkpt lat="39.916477886096544" lon="15.877431181255638"><ele>1061.0</ele><time>2026-04-26T12:21:34.999Z</time></trkpt><trkpt lat="39.91655495812839" lon="15.877330634832672"><ele>1055.3999999999999</ele><time>2026-04-26T12:21:36.999Z</time></trkpt><trkpt lat="39.91674449504446" lon="15.877327421359485"><ele>1049.8</ele><time>2026-04-26T12:21:38Z</time></trkpt><trkpt lat="39.91680071199257" lon="15.877253462038789"><ele>1044.1999999999998</ele><time>2026-04-26T12:21:39Z</time></trkpt><trkpt lat="39.91686716410662" lon="15.877182287662771"><ele>1038.6</ele><time>2026-04-26T12:21:40Z</time></trkpt><trkpt lat="39.916928557957604" lon="15.877129050309213"><ele>1033.0</ele><time>2026-04-26T12:21:41Z</time></trkpt><trkpt lat="39.916993512970336" lon="15.877094055665998"><ele>1033.0</ele><time>2026-04-26T12:21:42Z</time></trkpt><trkpt lat="39.91704766266467" lon="15.877172516286747"><ele>1033.0</ele><time>2026-04-26T12:21:45Z</time></trkpt><trkpt lat="39.91711122339287" lon="15.877252372308146"><ele>1033.0</ele><time>2026-04-26T12:21:47Z</time></trkpt><trkpt lat="39.9171780343912" lon="15.877324593877978"><ele>1033.0</ele><time>2026-04-26T12:21:50Z</time></trkpt><trkpt lat="39.91724852969559" lon="15.877381273547334"><ele>1033.0</ele><time>2026-04-26T12:21:52Z</time></trkpt><trkpt lat="39.91730509729301" lon="15.877438210742953"><ele>1033.0</ele><time>2026-04-26T12:21:53Z</time></trkpt><trkpt lat="39.91738837467557" lon="15.877489242826488"><ele>1033.0</ele><time>2026-04-26T12:21:54Z</time></trkpt><trkpt lat="39.917501176654355" lon="15.877535099092373"><ele>1033.0</ele><time>2026-04-26T12:21:55Z</time></trkpt><trkpt lat="39.91761541370567" lon="15.877580402394418"><ele>1033.0</ele><time>2026-04-26T12:21:56Z</time></trkpt><trkpt lat="39.917710284862586" lon="15.877620500744797"><ele>1033.0</ele><time>2026-04-26T12:21:57Z</time></trkpt><trkpt lat="39.917781522873476" lon="15.877670133828726"><ele>1033.0</ele><time>2026-04-26T12:21:58Z</time></trkpt><trkpt lat="39.917726269629384" lon="15.877845585555548"><ele>1025.6666666666665</ele><time>2026-04-26T12:21:59Z</time></trkpt><trkpt lat="39.917894536477135" lon="15.878034116097556"><ele>1018.3333333333333</ele><time>2026-04-26T12:22:01Z</time></trkpt><trkpt lat="39.918019900205664" lon="15.87818865566877"><ele>1011.0</ele><time>2026-04-26T12:22:02Z</time></trkpt><trkpt lat="39.91811195141166" lon="15.878283767718877"><ele>1011.0</ele><time>2026-04-26T12:22:03Z</time></trkpt><trkpt lat="39.91817823381838" lon="15.878366286638068"><ele>1010.9999999999999</ele><time>2026-04-26T12:22:04Z</time></trkpt><trkpt lat="39.918248963031374" lon="15.878441753064251"><ele>1010.9999999999999</ele><time>2026-04-26T12:22:05Z</time></trkpt><trkpt lat="39.91832437099993" lon="15.878486167443846"><ele>1011.0</ele><time>2026-04-26T12:22:06Z</time></trkpt><trkpt lat="39.918417291786184" lon="15.878519418966272"><ele>1011.0</ele><time>2026-04-26T12:22:07Z</time></trkpt><trkpt lat="39.9185018164883" lon="15.878555342781533"><ele>1014.0</ele><time>2026-04-26T12:22:08Z</time></trkpt><trkpt lat="39.91858930377724" lon="15.878582756256694"><ele>1016.9999999999999</ele><time>2026-04-26T12:22:09Z</time></trkpt><trkpt lat="39.91867785773345" lon="15.878597402309858"><ele>1019.9999999999999</ele><time>2026-04-26T12:22:10Z</time></trkpt><trkpt lat="39.918780528382044" lon="15.878601162293977"><ele>1023.0</ele><time>2026-04-26T12:22:11Z</time></trkpt><trkpt lat="39.91889682832428" lon="15.878577344227812"><ele>1026.0</ele><time>2026-04-26T12:22:12Z</time></trkpt><trkpt lat="39.919015125986434" lon="15.878552355477131"><ele>1026.0</ele><time>2026-04-26T12:22:13Z</time></trkpt><trkpt lat="39.91912373433348" lon="15.878534162077866"><ele>1026.0</ele><time>2026-04-26T12:22:14Z</time></trkpt><trkpt lat="39.919227792565295" lon="15.87855111347084"><ele>1026.0</ele><time>2026-04-26T12:22:15Z</time></trkpt><trkpt lat="39.919320154248375" lon="15.878572002889227"><ele>1026.0</ele><time>2026-04-26T12:22:16Z</time></trkpt><trkpt lat="39.919414654076554" lon="15.87855382053251"><ele>1026.0</ele><time>2026-04-26T12:22:17Z</time></trkpt><trkpt lat="39.91951254473019" lon="15.878523996879464"><ele>1023.0</ele><time>2026-04-26T12:22:18Z</time></trkpt><trkpt lat="39.9196158401679" lon="15.87849383524931"><ele>1019.9999999999999</ele><time>2026-04-26T12:22:19Z</time></trkpt><trkpt lat="39.919706134536" lon="15.878482037580863"><ele>1016.9999999999999</ele><time>2026-04-26T12:22:20Z</time></trkpt><trkpt lat="39.91981352435779" lon="15.878495529028992"><ele>1014.0</ele><time>2026-04-26T12:22:21Z</time></trkpt><trkpt lat="39.919922093428056" lon="15.878518907791207"><ele>1011.0</ele><time>2026-04-26T12:22:22Z</time></trkpt><trkpt lat="39.92003913625178" lon="15.878526272968367"><ele>1005.5</ele><time>2026-04-26T12:22:23Z</time></trkpt><trkpt lat="39.92016187081926" lon="15.878542121852457"><ele>1000.0</ele><time>2026-04-26T12:22:24Z</time></trkpt><trkpt lat="39.920272930505675" lon="15.878584298384768"><ele>994.5</ele><time>2026-04-26T12:22:25Z</time></trkpt><trkpt lat="39.92038484155005" lon="15.878637296183935"><ele>989.0</ele><time>2026-04-26T12:22:26Z</time></trkpt><trkpt lat="39.92049905792911" lon="15.878668249625996"><ele>989.0000000000001</ele><time>2026-04-26T12:22:27Z</time></trkpt><trkpt lat="39.920606826675865" lon="15.87868564875815"><ele>989.0</ele><time>2026-04-26T12:22:28Z</time></trkpt><trkpt lat="39.92070197144244" lon="15.878690028037015"><ele>989.0</ele><time>2026-04-26T12:22:29Z</time></trkpt><trkpt lat="39.92078113884092" lon="15.878668206970042"><ele>989.0</ele><time>2026-04-26T12:22:30Z</time></trkpt><trkpt lat="39.92085686264338" lon="15.878644283320982"><ele>989.0000000000001</ele><time>2026-04-26T12:22:31Z</time></trkpt><trkpt lat="39.92092952331008" lon="15.878670008492705"><ele>989.0</ele><time>2026-04-26T12:22:32Z</time></trkpt><trkpt lat="39.921004883970845" lon="15.87873283978432"><ele>986.1666666666667</ele><time>2026-04-26T12:22:33Z</time></trkpt><trkpt lat="39.921076254560205" lon="15.878792314044148"><ele>983.3333333333334</ele><time>2026-04-26T12:22:34Z</time></trkpt><trkpt lat="39.92115452214327" lon="15.878844257653023"><ele>980.5</ele><time>2026-04-26T12:22:35Z</time></trkpt><trkpt lat="39.92122576298967" lon="15.878879027957657"><ele>977.6666666666667</ele><time>2026-04-26T12:22:36Z</time></trkpt><trkpt lat="39.9213002139556" lon="15.878871113855228"><ele>974.8333333333334</ele><time>2026-04-26T12:22:36.999Z</time></trkpt><trkpt lat="39.92139405246229" lon="15.87884918700007"><ele>972.0</ele><time>2026-04-26T12:22:37.999Z</time></trkpt><trkpt lat="39.92148029751637" lon="15.878863575500167"><ele>972.0</ele><time>2026-04-26T12:22:38.999Z</time></trkpt><trkpt lat="39.92156082756671" lon="15.87889632004099"><ele>972.0</ele><time>2026-04-26T12:22:39.999Z</time></trkpt><trkpt lat="39.92167795248028" lon="15.878936123331801"><ele>972.0</ele><time>2026-04-26T12:22:40.999Z</time></trkpt><trkpt lat="39.92182838473141" lon="15.878998825205013"><ele>972.0</ele><time>2026-04-26T12:22:41.999Z</time></trkpt><trkpt lat="39.921970191591285" lon="15.879075009006165"><ele>969.5</ele><time>2026-04-26T12:22:42.999Z</time></trkpt><trkpt lat="39.92209209694094" lon="15.879154917691755"><ele>967.0</ele><time>2026-04-26T12:22:43.999Z</time></trkpt><trkpt lat="39.92222931753001" lon="15.879217994648071"><ele>964.5</ele><time>2026-04-26T12:22:44.999Z</time></trkpt><trkpt lat="39.922353886704585" lon="15.879236759338813"><ele>962.0</ele><time>2026-04-26T12:22:45.999Z</time></trkpt><trkpt lat="39.92247683759676" lon="15.879249625220373"><ele>964.2</ele><time>2026-04-26T12:22:46.999Z</time></trkpt><trkpt lat="39.922571259472306" lon="15.879295028295076"><ele>966.4000000000001</ele><time>2026-04-26T12:22:47.999Z</time></trkpt><trkpt lat="39.922653076074326" lon="15.87935128657045"><ele>968.5999999999999</ele><time>2026-04-26T12:22:48.999Z</time></trkpt><trkpt lat="39.92273513207178" lon="15.879402129628719"><ele>970.8</ele><time>2026-04-26T12:22:49.999Z</time></trkpt><trkpt lat="39.92281699077733" lon="15.879455578908624"><ele>973.0</ele><time>2026-04-26T12:22:50.999Z</time></trkpt><trkpt lat="39.922926830992026" lon="15.879532768273759"><ele>973.0</ele><time>2026-04-26T12:22:51.999Z</time></trkpt><trkpt lat="39.9230677674612" lon="15.879604894957552"><ele>973.0</ele><time>2026-04-26T12:22:52.999Z</time></trkpt><trkpt lat="39.92322481996281" lon="15.879693534848203"><ele>973.0</ele><time>2026-04-26T12:22:53.999Z</time></trkpt><trkpt lat="39.92336265851312" lon="15.879758079044437"><ele>970.25</ele><time>2026-04-26T12:22:54.999Z</time></trkpt><trkpt lat="39.92349948500168" lon="15.879798884587313"><ele>967.5</ele><time>2026-04-26T12:22:55.999Z</time></trkpt><trkpt lat="39.92361654660511" lon="15.879827063023221"><ele>964.75</ele><time>2026-04-26T12:22:56.999Z</time></trkpt><trkpt lat="39.92370159854811" lon="15.879851482903184"><ele>962.0</ele><time>2026-04-26T12:22:57.999Z</time></trkpt><trkpt lat="39.9238200633344" lon="15.879772779989011"><ele>962.0</ele><time>2026-04-26T12:22:59.999Z</time></trkpt><trkpt lat="39.92387961177882" lon="15.879676198435519"><ele>962.0</ele><time>2026-04-26T12:23:00.999Z</time></trkpt><trkpt lat="39.9239364048503" lon="15.879528240898534"><ele>962.0</ele><time>2026-04-26T12:23:01.999Z</time></trkpt><trkpt lat="39.923990306777974" lon="15.87938644911289"><ele>962.0</ele><time>2026-04-26T12:23:02.999Z</time></trkpt><trkpt lat="39.9240192156118" lon="15.87923967871667"><ele>961.0</ele><time>2026-04-26T12:23:03.999Z</time></trkpt><trkpt lat="39.92405445464925" lon="15.879114644416983"><ele>960.0</ele><time>2026-04-26T12:23:04.999Z</time></trkpt><trkpt lat="39.92409985263063" lon="15.87901858835613"><ele>959.0</ele><time>2026-04-26T12:23:05.999Z</time></trkpt><trkpt lat="39.924162259195484" lon="15.878932078149889"><ele>958.0</ele><time>2026-04-26T12:23:06.999Z</time></trkpt><trkpt lat="39.92423971305649" lon="15.878850762144479"><ele>957.0</ele><time>2026-04-26T12:23:07.999Z</time></trkpt><trkpt lat="39.924326434441404" lon="15.878763244420547"><ele>955.0</ele><time>2026-04-26T12:23:08.999Z</time></trkpt><trkpt lat="39.92440404118923" lon="15.878670238374117"><ele>953.0</ele><time>2026-04-26T12:23:09.999Z</time></trkpt><trkpt lat="39.92448375339115" lon="15.878577864592017"><ele>951.0</ele><time>2026-04-26T12:23:10.999Z</time></trkpt><trkpt lat="39.92455408108107" lon="15.878476062311623"><ele>949.0</ele><time>2026-04-26T12:23:11.999Z</time></trkpt><trkpt lat="39.92462595828498" lon="15.878342003764194"><ele>947.0</ele><time>2026-04-26T12:23:12.999Z</time></trkpt><trkpt lat="39.92469509553423" lon="15.878194171717789"><ele>947.0</ele><time>2026-04-26T12:23:13.999Z</time></trkpt><trkpt lat="39.924764907601" lon="15.878056399395462"><ele>947.0</ele><time>2026-04-26T12:23:14.999Z</time></trkpt><trkpt lat="39.924847766034496" lon="15.87792754368453"><ele>947.0</ele><time>2026-04-26T12:23:15.999Z</time></trkpt><trkpt lat="39.924933022476566" lon="15.877801492909857"><ele>947.0</ele><time>2026-04-26T12:23:16.999Z</time></trkpt><trkpt lat="39.92499909941089" lon="15.877649876337152"><ele>947.0</ele><time>2026-04-26T12:23:17.999Z</time></trkpt><trkpt lat="39.92504939812517" lon="15.877506201950279"><ele>947.0</ele><time>2026-04-26T12:23:18.999Z</time></trkpt><trkpt lat="39.92507676856234" lon="15.877356346296896"><ele>947.0</ele><time>2026-04-26T12:23:19.999Z</time></trkpt><trkpt lat="39.92509448808309" lon="15.87720593360795"><ele>947.0</ele><time>2026-04-26T12:23:20.999Z</time></trkpt><trkpt lat="39.92508342754439" lon="15.877058142800598"><ele>947.0</ele><time>2026-04-26T12:23:21.999Z</time></trkpt><trkpt lat="39.92511126503766" lon="15.876923055493103"><ele>947.0</ele><time>2026-04-26T12:23:22.999Z</time></trkpt><trkpt lat="39.9250574114117" lon="15.87679930015995"><ele>947.0</ele><time>2026-04-26T12:23:23.999Z</time></trkpt><trkpt lat="39.92505091446337" lon="15.87667837065503"><ele>947.0</ele><time>2026-04-26T12:23:24.999Z</time></trkpt><trkpt lat="39.925050018372325" lon="15.876573091470313"><ele>947.0</ele><time>2026-04-26T12:23:25.999Z</time></trkpt><trkpt lat="39.925056464601965" lon="15.876479329312646"><ele>944.4000000000001</ele><time>2026-04-26T12:23:26.999Z</time></trkpt><trkpt lat="39.92509244347772" lon="15.876371629126357"><ele>941.8000000000001</ele><time>2026-04-26T12:23:27.999Z</time></trkpt><trkpt lat="39.9251728545795" lon="15.876268901392764"><ele>939.2</ele><time>2026-04-26T12:23:28.999Z</time></trkpt><trkpt lat="39.92525193511333" lon="15.8761617471135"><ele>936.6</ele><time>2026-04-26T12:23:29.999Z</time></trkpt><trkpt lat="39.92533465911033" lon="15.876064271353528"><ele>934.0</ele><time>2026-04-26T12:23:30.999Z</time></trkpt><trkpt lat="39.92541543263608" lon="15.875967694029555"><ele>932.8000000000001</ele><time>2026-04-26T12:23:31.999Z</time></trkpt><trkpt lat="39.925486299857106" lon="15.875867741528953"><ele>931.6000000000001</ele><time>2026-04-26T12:23:32.999Z</time></trkpt><trkpt lat="39.925552764009375" lon="15.875775557694952"><ele>930.4</ele><time>2026-04-26T12:23:33.999Z</time></trkpt><trkpt lat="39.92561281001959" lon="15.875677545645154"><ele>929.2</ele><time>2026-04-26T12:23:34.999Z</time></trkpt><trkpt lat="39.925672648382715" lon="15.875591537928878"><ele>928.0</ele><time>2026-04-26T12:23:35.999Z</time></trkpt><trkpt lat="39.92575394936881" lon="15.87549605800655"><ele>928.0</ele><time>2026-04-26T12:23:36.999Z</time></trkpt><trkpt lat="39.92585327762052" lon="15.875417373529379"><ele>928.0</ele><time>2026-04-26T12:23:37.999Z</time></trkpt><trkpt lat="39.92595684642766" lon="15.875349862595545"><ele>928.0</ele><time>2026-04-26T12:23:38.999Z</time></trkpt><trkpt lat="39.926052014909864" lon="15.87529943308439"><ele>928.0</ele><time>2026-04-26T12:23:39.999Z</time></trkpt><trkpt lat="39.926128767249075" lon="15.875264811466057"><ele>928.0</ele><time>2026-04-26T12:23:40.999Z</time></trkpt><trkpt lat="39.926197505384906" lon="15.875210488775624"><ele>925.2</ele><time>2026-04-26T12:23:41.999Z</time></trkpt><trkpt lat="39.926269673681574" lon="15.875102198357295"><ele>922.4</ele><time>2026-04-26T12:23:42.999Z</time></trkpt><trkpt lat="39.92633499501877" lon="15.874973163037327"><ele>919.6000000000001</ele><time>2026-04-26T12:23:44Z</time></trkpt><trkpt lat="39.92639122396894" lon="15.874873328327265"><ele>916.8000000000001</ele><time>2026-04-26T12:23:45Z</time></trkpt><trkpt lat="39.92642193917631" lon="15.874747917775986"><ele>914.0</ele><time>2026-04-26T12:23:47Z</time></trkpt><trkpt lat="39.92641233833149" lon="15.87462855182732"><ele>914.0</ele><time>2026-04-26T12:23:49Z</time></trkpt><trkpt lat="39.926353722168756" lon="15.874585662234391"><ele>914.0000000000001</ele><time>2026-04-26T12:23:51Z</time></trkpt><trkpt lat="39.9262823671859" lon="15.874596886238606"><ele>914.0000000000001</ele><time>2026-04-26T12:23:53Z</time></trkpt><trkpt lat="39.926188684702424" lon="15.874630865244963"><ele>914.0</ele><time>2026-04-26T12:23:54Z</time></trkpt><trkpt lat="39.926081893027494" lon="15.8747187905167"><ele>914.0</ele><time>2026-04-26T12:23:56Z</time></trkpt><trkpt lat="39.92597836327562" lon="15.874819043381542"><ele>914.0000000000001</ele><time>2026-04-26T12:23:58Z</time></trkpt><trkpt lat="39.92592824792872" lon="15.874870326843451"><ele>914.0</ele><time>2026-04-26T12:23:59Z</time></trkpt><trkpt lat="39.925877183063506" lon="15.874919184749753"><ele>914.0</ele><time>2026-04-26T12:24:00Z</time></trkpt><trkpt lat="39.925818010813046" lon="15.875059486292413"><ele>914.0</ele><time>2026-04-26T12:24:02Z</time></trkpt><trkpt lat="39.92573536071359" lon="15.875125129107161"><ele>914.0000000000001</ele><time>2026-04-26T12:24:04Z</time></trkpt><trkpt lat="39.92566946366722" lon="15.875091250922901"><ele>914.0</ele><time>2026-04-26T12:24:06Z</time></trkpt><trkpt lat="39.92559166771933" lon="15.875063256375762"><ele>915.0000000000001</ele><time>2026-04-26T12:24:08Z</time></trkpt><trkpt lat="39.92550749643837" lon="15.875054461212668"><ele>916.0</ele><time>2026-04-26T12:24:10Z</time></trkpt><trkpt lat="39.925418880547674" lon="15.87503856287597"><ele>917.0</ele><time>2026-04-26T12:24:12Z</time></trkpt><trkpt lat="39.92532899596055" lon="15.875025927933766"><ele>918.0</ele><time>2026-04-26T12:24:14Z</time></trkpt><trkpt lat="39.92524194310958" lon="15.87501771153559"><ele>919.0000000000001</ele><time>2026-04-26T12:24:16Z</time></trkpt><trkpt lat="39.92516162222476" lon="15.874989741869634"><ele>920.0</ele><time>2026-04-26T12:24:18Z</time></trkpt><trkpt lat="39.9250801581672" lon="15.874945765106842"><ele>919.4</ele><time>2026-04-26T12:24:20Z</time></trkpt><trkpt lat="39.924982440316825" lon="15.874901682753029"><ele>918.8</ele><time>2026-04-26T12:24:22Z</time></trkpt><trkpt lat="39.924930685678376" lon="15.874854045969826"><ele>918.2</ele><time>2026-04-26T12:24:23Z</time></trkpt><trkpt lat="39.92484437025276" lon="15.874734686437552"><ele>917.6</ele><time>2026-04-26T12:24:25Z</time></trkpt><trkpt lat="39.92476316935227" lon="15.874647216025156"><ele>917.0</ele><time>2026-04-26T12:24:27Z</time></trkpt><trkpt lat="39.92468370639682" lon="15.874628004353486"><ele>917.0000000000001</ele><time>2026-04-26T12:24:29Z</time></trkpt><trkpt lat="39.92461910121807" lon="15.874662674946034"><ele>917.0</ele><time>2026-04-26T12:24:31Z</time></trkpt><trkpt lat="39.924577776801236" lon="15.87474717258522"><ele>917.0</ele><time>2026-04-26T12:24:33Z</time></trkpt><trkpt lat="39.924557090651525" lon="15.874858075720212"><ele>917.0</ele><time>2026-04-26T12:24:35Z</time></trkpt><trkpt lat="39.924542664349325" lon="15.874969256201409"><ele>917.0000000000001</ele><time>2026-04-26T12:24:37Z</time></trkpt><trkpt lat="39.924517846774435" lon="15.875069779887276"><ele>917.0</ele><time>2026-04-26T12:24:38.999Z</time></trkpt><trkpt lat="39.92446377434942" lon="15.875160014050108"><ele>916.8333333333334</ele><time>2026-04-26T12:24:40.999Z</time></trkpt><trkpt lat="39.924414566338946" lon="15.875242552967583"><ele>916.6666666666667</ele><time>2026-04-26T12:24:42.999Z</time></trkpt><trkpt lat="39.92434545127872" lon="15.875274622951153"><ele>916.5</ele><time>2026-04-26T12:25:14.999Z</time></trkpt><trkpt lat="39.92424420428173" lon="15.875292816221519"><ele>916.3333333333333</ele><time>2026-04-26T12:25:17.999Z</time></trkpt><trkpt lat="39.92412423703006" lon="15.875314097595753"><ele>916.1666666666666</ele><time>2026-04-26T12:25:19.999Z</time></trkpt><trkpt lat="39.92406053584861" lon="15.875327874921734"><ele>916.0</ele><time>2026-04-26T12:25:20.999Z</time></trkpt><trkpt lat="39.923994609949084" lon="15.87531482991737"><ele>916.0</ele><time>2026-04-26T12:25:21.999Z</time></trkpt><trkpt lat="39.9238768647185" lon="15.87534385140871"><ele>915.9999999999999</ele><time>2026-04-26T12:25:23.999Z</time></trkpt><trkpt lat="39.92379263403464" lon="15.875388732900978"><ele>915.9999999999999</ele><time>2026-04-26T12:25:25.999Z</time></trkpt><trkpt lat="39.92369397652607" lon="15.875294599685372"><ele>916.0</ele><time>2026-04-26T12:25:27.999Z</time></trkpt><trkpt lat="39.92365204639625" lon="15.875189356593932"><ele>916.0</ele><time>2026-04-26T12:25:28.999Z</time></trkpt><trkpt lat="39.92360141292462" lon="15.875129013210026"><ele>914.8333333333333</ele><time>2026-04-26T12:25:29.999Z</time></trkpt><trkpt lat="39.923490862566936" lon="15.875081462303758"><ele>913.6666666666666</ele><time>2026-04-26T12:25:31.999Z</time></trkpt><trkpt lat="39.92342671450106" lon="15.875083417440917"><ele>912.5</ele><time>2026-04-26T12:25:32.999Z</time></trkpt><trkpt lat="39.9233614764159" lon="15.875067058745064"><ele>911.3333333333333</ele><time>2026-04-26T12:25:33.999Z</time></trkpt><trkpt lat="39.923297932446125" lon="15.87507180812071"><ele>910.1666666666666</ele><time>2026-04-26T12:25:34.999Z</time></trkpt><trkpt lat="39.92318628994826" lon="15.875112015581385"><ele>909.0</ele><time>2026-04-26T12:25:36.999Z</time></trkpt><trkpt lat="39.92312021230838" lon="15.87518384789125"><ele>908.5</ele><time>2026-04-26T12:25:37.999Z</time></trkpt><trkpt lat="39.92305350241195" lon="15.875269676073891"><ele>908.0</ele><time>2026-04-26T12:25:38.999Z</time></trkpt><trkpt lat="39.922980321481035" lon="15.87536860686655"><ele>907.5</ele><time>2026-04-26T12:25:39.999Z</time></trkpt><trkpt lat="39.92290839154023" lon="15.875465649524891"><ele>907.0</ele><time>2026-04-26T12:25:40.999Z</time></trkpt><trkpt lat="39.92285746318895" lon="15.875544376502372"><ele>906.5</ele><time>2026-04-26T12:25:41.999Z</time></trkpt><trkpt lat="39.9227992899533" lon="15.875589694059618"><ele>906.0</ele><time>2026-04-26T12:25:43.999Z</time></trkpt><trkpt lat="39.92272982077071" lon="15.875556916014508"><ele>906.0</ele><time>2026-04-26T12:25:45.999Z</time></trkpt><trkpt lat="39.92268069683707" lon="15.875485024327272"><ele>906.0</ele><time>2026-04-26T12:25:46.999Z</time></trkpt><trkpt lat="39.92261232489593" lon="15.875409051471184"><ele>906.0</ele><time>2026-04-26T12:25:47.999Z</time></trkpt><trkpt lat="39.92255242611729" lon="15.875332950154107"><ele>906.0</ele><time>2026-04-26T12:25:48.999Z</time></trkpt><trkpt lat="39.92249854311788" lon="15.87523863605406"><ele>906.0</ele><time>2026-04-26T12:25:50Z</time></trkpt><trkpt lat="39.92242460458944" lon="15.875155875613304"><ele>906.0</ele><time>2026-04-26T12:25:51Z</time></trkpt><trkpt lat="39.9223736125636" lon="15.875104722428608"><ele>906.5</ele><time>2026-04-26T12:25:52Z</time></trkpt><trkpt lat="39.92223887088729" lon="15.87510108563404"><ele>907.0</ele><time>2026-04-26T12:25:54Z</time></trkpt><trkpt lat="39.92215342134607" lon="15.875164751158175"><ele>907.5</ele><time>2026-04-26T12:25:55Z</time></trkpt><trkpt lat="39.922057208968745" lon="15.875245986183119"><ele>908.0</ele><time>2026-04-26T12:25:56Z</time></trkpt><trkpt lat="39.92194936155104" lon="15.87533747235253"><ele>908.0</ele><time>2026-04-26T12:25:57Z</time></trkpt><trkpt lat="39.921854683200706" lon="15.87541098579985"><ele>908.0</ele><time>2026-04-26T12:25:58Z</time></trkpt><trkpt lat="39.92177907351171" lon="15.875453545420237"><ele>908.0</ele><time>2026-04-26T12:25:59Z</time></trkpt><trkpt lat="39.92169336927222" lon="15.875460476251082"><ele>908.0</ele><time>2026-04-26T12:26:00Z</time></trkpt><trkpt lat="39.921591491552746" lon="15.875446883917748"><ele>908.0</ele><time>2026-04-26T12:26:01Z</time></trkpt><trkpt lat="39.921510664150695" lon="15.875432153983361"><ele>908.75</ele><time>2026-04-26T12:26:02Z</time></trkpt><trkpt lat="39.921438065497156" lon="15.875337402723305"><ele>909.5</ele><time>2026-04-26T12:26:04Z</time></trkpt><trkpt lat="39.921488715145856" lon="15.875168992303253"><ele>910.25</ele><time>2026-04-26T12:26:06Z</time></trkpt><trkpt lat="39.92156769416174" lon="15.875080461105314"><ele>911.0</ele><time>2026-04-26T12:26:07Z</time></trkpt><trkpt lat="39.92167127235017" lon="15.874972511904934"><ele>908.4</ele><time>2026-04-26T12:26:08Z</time></trkpt><trkpt lat="39.921743352610015" lon="15.874864865484266"><ele>905.8</ele><time>2026-04-26T12:26:09Z</time></trkpt><trkpt lat="39.92179190403821" lon="15.874749182824226"><ele>903.1999999999999</ele><time>2026-04-26T12:26:10Z</time></trkpt><trkpt lat="39.92183736095573" lon="15.87461447750741"><ele>900.5999999999999</ele><time>2026-04-26T12:26:11Z</time></trkpt><trkpt lat="39.92185983685003" lon="15.874465395461366"><ele>898.0</ele><time>2026-04-26T12:26:12Z</time></trkpt><trkpt lat="39.92188741405153" lon="15.87434198530504"><ele>895.4</ele><time>2026-04-26T12:26:13Z</time></trkpt><trkpt lat="39.92189721277083" lon="15.874212178530989"><ele>892.8</ele><time>2026-04-26T12:26:14Z</time></trkpt><trkpt lat="39.921904796673815" lon="15.874073454550706"><ele>890.2</ele><time>2026-04-26T12:26:15Z</time></trkpt><trkpt lat="39.921917052447576" lon="15.873928633507578"><ele>887.6</ele><time>2026-04-26T12:26:16Z</time></trkpt><trkpt lat="39.92193346865191" lon="15.873795696994605"><ele>885.0</ele><time>2026-04-26T12:26:17Z</time></trkpt><trkpt lat="39.921947980519874" lon="15.873681799239968"><ele>885.0</ele><time>2026-04-26T12:26:18Z</time></trkpt><trkpt lat="39.921949259622956" lon="15.873588383188364"><ele>885.0</ele><time>2026-04-26T12:26:19Z</time></trkpt><trkpt lat="39.92194120170787" lon="15.873504875737737"><ele>885.0</ele><time>2026-04-26T12:26:20Z</time></trkpt><trkpt lat="39.921923375726436" lon="15.873424894096521"><ele>885.0</ele><time>2026-04-26T12:26:21Z</time></trkpt><trkpt lat="39.92186319240807" lon="15.873316048450679"><ele>885.0</ele><time>2026-04-26T12:26:22Z</time></trkpt><trkpt lat="39.921828908512275" lon="15.873167110166717"><ele>885.0</ele><time>2026-04-26T12:26:23Z</time></trkpt><trkpt lat="39.921779606059275" lon="15.873050258509265"><ele>886.1666666666666</ele><time>2026-04-26T12:26:24Z</time></trkpt><trkpt lat="39.92170348046273" lon="15.872998581237233"><ele>887.3333333333333</ele><time>2026-04-26T12:26:25Z</time></trkpt><trkpt lat="39.92164809526555" lon="15.872950139555517"><ele>888.5</ele><time>2026-04-26T12:26:26Z</time></trkpt><trkpt lat="39.92156844235705" lon="15.872913704065509"><ele>889.6666666666666</ele><time>2026-04-26T12:26:27Z</time></trkpt><trkpt lat="39.92150190067353" lon="15.87284943789694"><ele>890.8333333333333</ele><time>2026-04-26T12:26:28Z</time></trkpt><trkpt lat="39.92146255583979" lon="15.87276728019226"><ele>892.0</ele><time>2026-04-26T12:26:29Z</time></trkpt><trkpt lat="39.92147195600809" lon="15.872665494002906"><ele>889.2857142857142</ele><time>2026-04-26T12:26:30Z</time></trkpt><trkpt lat="39.92146432867614" lon="15.872576451392762"><ele>886.5714285714286</ele><time>2026-04-26T12:26:31Z</time></trkpt><trkpt lat="39.92147741537699" lon="15.872482933577924"><ele>883.8571428571429</ele><time>2026-04-26T12:26:32Z</time></trkpt><trkpt lat="39.92149837646481" lon="15.87238279364363"><ele>881.1428571428571</ele><time>2026-04-26T12:26:33Z</time></trkpt><trkpt lat="39.92152938713962" lon="15.872293778543384"><ele>878.4285714285714</ele><time>2026-04-26T12:26:34Z</time></trkpt><trkpt lat="39.921519943902304" lon="15.872210531718244"><ele>875.7142857142857</ele><time>2026-04-26T12:26:35Z</time></trkpt><trkpt lat="39.92155214108761" lon="15.872134012675359"><ele>873.0</ele><time>2026-04-26T12:26:36Z</time></trkpt><trkpt lat="39.921521368275855" lon="15.872060840703616"><ele>873.0</ele><time>2026-04-26T12:26:37Z</time></trkpt><trkpt lat="39.921473247935594" lon="15.87198526921497"><ele>873.0</ele><time>2026-04-26T12:26:38Z</time></trkpt><trkpt lat="39.92140330746587" lon="15.87189867291871"><ele>873.0</ele><time>2026-04-26T12:26:39Z</time></trkpt><trkpt lat="39.92132116494004" lon="15.871820434433886"><ele>873.0</ele><time>2026-04-26T12:26:40Z</time></trkpt><trkpt lat="39.92124982105457" lon="15.871757748732488"><ele>873.0</ele><time>2026-04-26T12:26:41Z</time></trkpt><trkpt lat="39.92118612600449" lon="15.871697544775463"><ele>873.0</ele><time>2026-04-26T12:26:42Z</time></trkpt><trkpt lat="39.92113632414171" lon="15.871616279835273"><ele>870.1666666666666</ele><time>2026-04-26T12:26:43Z</time></trkpt><trkpt lat="39.92109461380294" lon="15.871506281014069"><ele>867.3333333333333</ele><time>2026-04-26T12:26:44Z</time></trkpt><trkpt lat="39.92104988546777" lon="15.871397738997436"><ele>864.5</ele><time>2026-04-26T12:26:45Z</time></trkpt><trkpt lat="39.921024775338076" lon="15.871301474781886"><ele>861.6666666666666</ele><time>2026-04-26T12:26:46Z</time></trkpt><trkpt lat="39.92101226212638" lon="15.871194822416927"><ele>858.8333333333333</ele><time>2026-04-26T12:26:47Z</time></trkpt><trkpt lat="39.9209929784503" lon="15.87109140762993"><ele>856.0</ele><time>2026-04-26T12:26:47.999Z</time></trkpt><trkpt lat="39.920963771864535" lon="15.870989524158011"><ele>854.0</ele><time>2026-04-26T12:26:48.999Z</time></trkpt><trkpt lat="39.92090234827365" lon="15.870862980247587"><ele>851.9999999999999</ele><time>2026-04-26T12:26:49.999Z</time></trkpt><trkpt lat="39.920854718704696" lon="15.870747633534856"><ele>850.0</ele><time>2026-04-26T12:26:50.999Z</time></trkpt><trkpt lat="39.92082963605166" lon="15.870643345997586"><ele>848.0</ele><time>2026-04-26T12:26:51.999Z</time></trkpt><trkpt lat="39.92085235157359" lon="15.870491646164206"><ele>846.0</ele><time>2026-04-26T12:26:53.999Z</time></trkpt><trkpt lat="39.920895389308434" lon="15.87039982076887"><ele>851.0</ele><time>2026-04-26T12:26:54.999Z</time></trkpt><trkpt lat="39.920890693080494" lon="15.870290566502968"><ele>856.0</ele><time>2026-04-26T12:26:55.999Z</time></trkpt><trkpt lat="39.92082627635546" lon="15.870141196974028"><ele>860.9999999999999</ele><time>2026-04-26T12:26:57.999Z</time></trkpt><trkpt lat="39.92080778775009" lon="15.870026709763327"><ele>866.0</ele><time>2026-04-26T12:26:58.999Z</time></trkpt><trkpt lat="39.92080680661076" lon="15.869913518317226"><ele>871.0</ele><time>2026-04-26T12:26:59.999Z</time></trkpt><trkpt lat="39.92086018163749" lon="15.869779120129692"><ele>871.0</ele><time>2026-04-26T12:27:00.999Z</time></trkpt><trkpt lat="39.920893414412944" lon="15.869625390972383"><ele>871.0</ele><time>2026-04-26T12:27:01.999Z</time></trkpt><trkpt lat="39.920942857342176" lon="15.869519844381896"><ele>871.0</ele><time>2026-04-26T12:27:02.999Z</time></trkpt><trkpt lat="39.92101522866642" lon="15.86942416696473"><ele>871.0</ele><time>2026-04-26T12:27:03.999Z</time></trkpt><trkpt lat="39.921118451260746" lon="15.869318627496533"><ele>869.0</ele><time>2026-04-26T12:27:04.999Z</time></trkpt><trkpt lat="39.92122053516867" lon="15.869213267534457"><ele>866.9999999999999</ele><time>2026-04-26T12:27:05.999Z</time></trkpt><trkpt lat="39.921282033931824" lon="15.869131566119343"><ele>864.9999999999999</ele><time>2026-04-26T12:27:06.999Z</time></trkpt><trkpt lat="39.921401691431285" lon="15.869099097676775"><ele>863.0</ele><time>2026-04-26T12:27:08.999Z</time></trkpt><trkpt lat="39.92149934206593" lon="15.869080983467157"><ele>861.0</ele><time>2026-04-26T12:27:09.999Z</time></trkpt><trkpt lat="39.92159065783109" lon="15.86909850104633"><ele>861.0</ele><time>2026-04-26T12:27:10.999Z</time></trkpt><trkpt lat="39.92167604024336" lon="15.869103154254338"><ele>861.0</ele><time>2026-04-26T12:27:11.999Z</time></trkpt><trkpt lat="39.92175514862378" lon="15.86910501250236"><ele>861.0</ele><time>2026-04-26T12:27:12.999Z</time></trkpt><trkpt lat="39.9218282086232" lon="15.869089326341514"><ele>861.0</ele><time>2026-04-26T12:27:13.999Z</time></trkpt><trkpt lat="39.92191882730325" lon="15.869035749697531"><ele>861.0</ele><time>2026-04-26T12:27:14.999Z</time></trkpt><trkpt lat="39.922005655621476" lon="15.869001349675273"><ele>861.0</ele><time>2026-04-26T12:27:15.999Z</time></trkpt><trkpt lat="39.92209237520438" lon="15.868976109474655"><ele>858.0</ele><time>2026-04-26T12:27:16.999Z</time></trkpt><trkpt lat="39.92216836473466" lon="15.868973464560305"><ele>854.9999999999999</ele><time>2026-04-26T12:27:17.999Z</time></trkpt><trkpt lat="39.92226237545563" lon="15.869007437705152"><ele>852.0</ele><time>2026-04-26T12:27:18.999Z</time></trkpt><trkpt lat="39.92235551407851" lon="15.869007437703981"><ele>849.0</ele><time>2026-04-26T12:27:19.999Z</time></trkpt><trkpt lat="39.922431211668474" lon="15.868951188649332"><ele>846.0</ele><time>2026-04-26T12:27:20.999Z</time></trkpt><trkpt lat="39.92252825248568" lon="15.868907412115961"><ele>840.4</ele><time>2026-04-26T12:27:22.999Z</time></trkpt><trkpt lat="39.92259200824052" lon="15.868771797372656"><ele>834.8</ele><time>2026-04-26T12:27:24.999Z</time></trkpt><trkpt lat="39.92265690452637" lon="15.86861667272312"><ele>829.1999999999999</ele><time>2026-04-26T12:27:26.999Z</time></trkpt><trkpt lat="39.92268633726941" lon="15.868517243336697"><ele>823.5999999999999</ele><time>2026-04-26T12:27:27.999Z</time></trkpt><trkpt lat="39.92271531577863" lon="15.86838239934717"><ele>818.0</ele><time>2026-04-26T12:27:28.999Z</time></trkpt><trkpt lat="39.9227516476755" lon="15.868246392301453"><ele>818.0</ele><time>2026-04-26T12:27:29.999Z</time></trkpt><trkpt lat="39.92279260460913" lon="15.86812327285088"><ele>818.0</ele><time>2026-04-26T12:27:30.999Z</time></trkpt><trkpt lat="39.92282981017066" lon="15.868020845449603"><ele>818.0</ele><time>2026-04-26T12:27:31.999Z</time></trkpt><trkpt lat="39.92287475515353" lon="15.86791911189263"><ele>818.0</ele><time>2026-04-26T12:27:33.999Z</time></trkpt><trkpt lat="39.922825920323696" lon="15.867813115039933"><ele>818.0</ele><time>2026-04-26T12:27:35.999Z</time></trkpt><trkpt lat="39.922729093656834" lon="15.867709911304756"><ele>818.0000000000001</ele><time>2026-04-26T12:27:37.999Z</time></trkpt><trkpt lat="39.92267147167761" lon="15.867668562723042"><ele>818.0</ele><time>2026-04-26T12:27:38.999Z</time></trkpt><trkpt lat="39.92258917857468" lon="15.867650806964587"><ele>818.0</ele><time>2026-04-26T12:27:39.999Z</time></trkpt><trkpt lat="39.922503577415085" lon="15.867652232966298"><ele>818.0</ele><time>2026-04-26T12:27:40.999Z</time></trkpt><trkpt lat="39.92242544104945" lon="15.867641443869095"><ele>818.0000000000001</ele><time>2026-04-26T12:27:41.999Z</time></trkpt><trkpt lat="39.92234804556736" lon="15.86761995172942"><ele>818.0</ele><time>2026-04-26T12:27:42.999Z</time></trkpt><trkpt lat="39.92226844720166" lon="15.867570199351524"><ele>822.4</ele><time>2026-04-26T12:27:43.999Z</time></trkpt><trkpt lat="39.92221051873689" lon="15.867486236734738"><ele>826.8</ele><time>2026-04-26T12:27:44.999Z</time></trkpt><trkpt lat="39.922164478797555" lon="15.867386345391614"><ele>831.2</ele><time>2026-04-26T12:27:45.999Z</time></trkpt><trkpt lat="39.92212031185509" lon="15.86731339064425"><ele>835.6</ele><time>2026-04-26T12:27:46.999Z</time></trkpt><trkpt lat="39.92202703707045" lon="15.867272575185533"><ele>840.0</ele><time>2026-04-26T12:27:48.999Z</time></trkpt><trkpt lat="39.92189987360144" lon="15.86730865458186"><ele>840.0</ele><time>2026-04-26T12:27:50.999Z</time></trkpt><trkpt lat="39.921853155550494" lon="15.867401963066126"><ele>840.0</ele><time>2026-04-26T12:27:51.999Z</time></trkpt><trkpt lat="39.921773112010314" lon="15.86743211807942"><ele>840.0</ele><time>2026-04-26T12:27:52.999Z</time></trkpt><trkpt lat="39.92167421110257" lon="15.867426259822333"><ele>840.0</ele><time>2026-04-26T12:27:53.999Z</time></trkpt><trkpt lat="39.92155911688486" lon="15.86739192232328"><ele>840.0</ele><time>2026-04-26T12:27:54.999Z</time></trkpt><trkpt lat="39.92146089366959" lon="15.86734216138181"><ele>839.8</ele><time>2026-04-26T12:27:56Z</time></trkpt><trkpt lat="39.92139486728677" lon="15.867280496886268"><ele>839.6</ele><time>2026-04-26T12:27:57Z</time></trkpt><trkpt lat="39.92133865952989" lon="15.867208636284415"><ele>839.4000000000001</ele><time>2026-04-26T12:27:58Z</time></trkpt><trkpt lat="39.92129459112911" lon="15.867138373323002"><ele>839.2</ele><time>2026-04-26T12:27:59Z</time></trkpt><trkpt lat="39.92115902852808" lon="15.867089098586995"><ele>839.0</ele><time>2026-04-26T12:28:01Z</time></trkpt><trkpt lat="39.9210747940319" lon="15.867067930041802"><ele>839.0</ele><time>2026-04-26T12:28:02Z</time></trkpt><trkpt lat="39.92102279170678" lon="15.86698867109652"><ele>839.0</ele><time>2026-04-26T12:28:03Z</time></trkpt><trkpt lat="39.92097280150873" lon="15.866868403445467"><ele>839.0</ele><time>2026-04-26T12:28:04Z</time></trkpt><trkpt lat="39.92091949217202" lon="15.86674551638088"><ele>839.0</ele><time>2026-04-26T12:28:05Z</time></trkpt><trkpt lat="39.92087444066762" lon="15.866644988363705"><ele>839.0</ele><time>2026-04-26T12:28:06Z</time></trkpt><trkpt lat="39.920834232018656" lon="15.86654620387682"><ele>836.3333333333334</ele><time>2026-04-26T12:28:07Z</time></trkpt><trkpt lat="39.920793856223106" lon="15.8664538469882"><ele>833.6666666666667</ele><time>2026-04-26T12:28:08Z</time></trkpt><trkpt lat="39.92075303692042" lon="15.866372711448609"><ele>831.0</ele><time>2026-04-26T12:28:09Z</time></trkpt><trkpt lat="39.92071111080847" lon="15.866303108043562"><ele>828.3333333333333</ele><time>2026-04-26T12:28:10Z</time></trkpt><trkpt lat="39.920640064083905" lon="15.866193011276742"><ele>825.6666666666666</ele><time>2026-04-26T12:28:12Z</time></trkpt><trkpt lat="39.92060793523165" lon="15.86611879605616"><ele>823.0</ele><time>2026-04-26T12:28:13Z</time></trkpt><trkpt lat="39.92055708162415" lon="15.866037569062437"><ele>819.3333333333333</ele><time>2026-04-26T12:28:14Z</time></trkpt><trkpt lat="39.920530441813305" lon="15.865943432740533"><ele>815.6666666666666</ele><time>2026-04-26T12:28:15Z</time></trkpt><trkpt lat="39.92051963868085" lon="15.865849236018002"><ele>812.0</ele><time>2026-04-26T12:28:16Z</time></trkpt><trkpt lat="39.92050038601808" lon="15.865769047664596"><ele>808.3333333333333</ele><time>2026-04-26T12:28:17Z</time></trkpt><trkpt lat="39.920434826600754" lon="15.865638538168353"><ele>804.6666666666666</ele><time>2026-04-26T12:28:19Z</time></trkpt><trkpt lat="39.92035796189852" lon="15.865558395557684"><ele>801.0</ele><time>2026-04-26T12:28:20Z</time></trkpt><trkpt lat="39.92030682232448" lon="15.86543790775286"><ele>801.0</ele><time>2026-04-26T12:28:21Z</time></trkpt><trkpt lat="39.920220666782356" lon="15.865355971638591"><ele>801.0</ele><time>2026-04-26T12:28:22Z</time></trkpt><trkpt lat="39.920133324781325" lon="15.865266573534022"><ele>801.0</ele><time>2026-04-26T12:28:23Z</time></trkpt><trkpt lat="39.92005039916285" lon="15.865204119628224"><ele>801.0</ele><time>2026-04-26T12:28:24Z</time></trkpt><trkpt lat="39.919976776011204" lon="15.865140473753096"><ele>801.0</ele><time>2026-04-26T12:28:25Z</time></trkpt><trkpt lat="39.919920256113755" lon="15.86506875212298"><ele>800.8</ele><time>2026-04-26T12:28:26Z</time></trkpt><trkpt lat="39.919879714189165" lon="15.86499335469705"><ele>800.5999999999999</ele><time>2026-04-26T12:28:27Z</time></trkpt><trkpt lat="39.91987267120708" lon="15.864852294225487"><ele>800.4</ele><time>2026-04-26T12:28:28Z</time></trkpt><trkpt lat="39.919883583764296" lon="15.864724807250886"><ele>800.2</ele><time>2026-04-26T12:28:29Z</time></trkpt><trkpt lat="39.919885813926484" lon="15.864603714437262"><ele>800.0</ele><time>2026-04-26T12:28:30Z</time></trkpt><trkpt lat="39.919896364934914" lon="15.864483857569775"><ele>800.0000000000001</ele><time>2026-04-26T12:28:31Z</time></trkpt><trkpt lat="39.919903193356134" lon="15.864369094063163"><ele>800.0</ele><time>2026-04-26T12:28:32Z</time></trkpt><trkpt lat="39.919900234106976" lon="15.864272539141586"><ele>800.0</ele><time>2026-04-26T12:28:33Z</time></trkpt><trkpt lat="39.91990118779481" lon="15.864164742759929"><ele>800.0</ele><time>2026-04-26T12:28:34Z</time></trkpt><trkpt lat="39.9199005595088" lon="15.864052902829766"><ele>800.0000000000001</ele><time>2026-04-26T12:28:35Z</time></trkpt><trkpt lat="39.919891691845535" lon="15.863947854106264"><ele>800.0</ele><time>2026-04-26T12:28:36Z</time></trkpt><trkpt lat="39.919858611065976" lon="15.863864737099695"><ele>796.6</ele><time>2026-04-26T12:28:37Z</time></trkpt><trkpt lat="39.91977810570213" lon="15.863773868399342"><ele>793.2</ele><time>2026-04-26T12:28:38Z</time></trkpt><trkpt lat="39.91970527622222" lon="15.863703064448233"><ele>789.8</ele><time>2026-04-26T12:28:39Z</time></trkpt><trkpt lat="39.91965401026028" lon="15.863633451185951"><ele>786.4</ele><time>2026-04-26T12:28:40Z</time></trkpt><trkpt lat="39.919631303992226" lon="15.863468051326654"><ele>783.0</ele><time>2026-04-26T12:28:42Z</time></trkpt><trkpt lat="39.919644436619066" lon="15.863360752146127"><ele>779.3333333333334</ele><time>2026-04-26T12:28:43Z</time></trkpt><trkpt lat="39.9196264308301" lon="15.86326924967663"><ele>775.6666666666666</ele><time>2026-04-26T12:28:44Z</time></trkpt><trkpt lat="39.91958017410888" lon="15.863200214295388"><ele>772.0</ele><time>2026-04-26T12:28:45Z</time></trkpt><trkpt lat="39.919498793147476" lon="15.863122874273637"><ele>768.3333333333333</ele><time>2026-04-26T12:28:46Z</time></trkpt><trkpt lat="39.919412758403446" lon="15.863052517914687"><ele>764.6666666666666</ele><time>2026-04-26T12:28:47Z</time></trkpt><trkpt lat="39.919347419620834" lon="15.86298319655993"><ele>761.0</ele><time>2026-04-26T12:28:48Z</time></trkpt><trkpt lat="39.91930348476277" lon="15.862899653075115"><ele>761.0</ele><time>2026-04-26T12:28:49Z</time></trkpt><trkpt lat="39.91928099032662" lon="15.862792588938307"><ele>761.0</ele><time>2026-04-26T12:28:50Z</time></trkpt><trkpt lat="39.91926780274807" lon="15.862677979529597"><ele>761.0</ele><time>2026-04-26T12:28:50.999Z</time></trkpt><trkpt lat="39.91922546014126" lon="15.862591223400713"><ele>761.0</ele><time>2026-04-26T12:28:51.999Z</time></trkpt><trkpt lat="39.91916482301801" lon="15.862519666230526"><ele>761.0</ele><time>2026-04-26T12:28:52.999Z</time></trkpt><trkpt lat="39.919120277624" lon="15.862458213352662"><ele>761.0</ele><time>2026-04-26T12:28:53.999Z</time></trkpt><trkpt lat="39.91910196197227" lon="15.86232954402783"><ele>759.0</ele><time>2026-04-26T12:28:55.999Z</time></trkpt><trkpt lat="39.91917122600259" lon="15.862211975848407"><ele>757.0</ele><time>2026-04-26T12:28:57.999Z</time></trkpt><trkpt lat="39.91924275566561" lon="15.862151931456175"><ele>755.0</ele><time>2026-04-26T12:28:58.999Z</time></trkpt><trkpt lat="39.91932640775197" lon="15.862127330674397"><ele>753.0</ele><time>2026-04-26T12:28:59.999Z</time></trkpt><trkpt lat="39.91939694775535" lon="15.862072252684488"><ele>751.0</ele><time>2026-04-26T12:29:00.999Z</time></trkpt><trkpt lat="39.91947746805454" lon="15.862010270410464"><ele>751.0</ele><time>2026-04-26T12:29:01.999Z</time></trkpt><trkpt lat="39.91956162959293" lon="15.86194765471301"><ele>751.0</ele><time>2026-04-26T12:29:02.999Z</time></trkpt><trkpt lat="39.91963824097894" lon="15.861871387963156"><ele>751.0</ele><time>2026-04-26T12:29:03.999Z</time></trkpt><trkpt lat="39.91972345821499" lon="15.861816245466837"><ele>751.0</ele><time>2026-04-26T12:29:04.999Z</time></trkpt><trkpt lat="39.91980352890767" lon="15.861742567318622"><ele>751.0</ele><time>2026-04-26T12:29:05.999Z</time></trkpt><trkpt lat="39.91987474066169" lon="15.861651718553961"><ele>751.1999999999999</ele><time>2026-04-26T12:29:06.999Z</time></trkpt><trkpt lat="39.919936670046724" lon="15.861575142770688"><ele>751.4</ele><time>2026-04-26T12:29:07.999Z</time></trkpt><trkpt lat="39.91999807895884" lon="15.861527381123908"><ele>751.6</ele><time>2026-04-26T12:29:08.999Z</time></trkpt><trkpt lat="39.920083306119004" lon="15.861513774075364"><ele>751.8</ele><time>2026-04-26T12:29:09.999Z</time></trkpt><trkpt lat="39.920174270739764" lon="15.861662887553097"><ele>752.0</ele><time>2026-04-26T12:29:10.999Z</time></trkpt><trkpt lat="39.92028877967226" lon="15.861701343284007"><ele>752.0</ele><time>2026-04-26T12:29:11.999Z</time></trkpt><trkpt lat="39.92040185959899" lon="15.861732088697314"><ele>752.0</ele><time>2026-04-26T12:29:12.999Z</time></trkpt><trkpt lat="39.920520278606794" lon="15.861727036373395"><ele>752.0</ele><time>2026-04-26T12:29:13.999Z</time></trkpt><trkpt lat="39.92060898312598" lon="15.861683623312707"><ele>752.0</ele><time>2026-04-26T12:29:14.999Z</time></trkpt><trkpt lat="39.92066310887214" lon="15.86160363788966"><ele>752.0</ele><time>2026-04-26T12:29:15.999Z</time></trkpt><trkpt lat="39.92073542200702" lon="15.861534459225695"><ele>752.0</ele><time>2026-04-26T12:29:16.999Z</time></trkpt><trkpt lat="39.92082099562023" lon="15.861426334477043"><ele>752.0</ele><time>2026-04-26T12:29:17.999Z</time></trkpt><trkpt lat="39.9209156237095" lon="15.861298275719284"><ele>752.0</ele><time>2026-04-26T12:29:18.999Z</time></trkpt><trkpt lat="39.92101416153902" lon="15.861173312463329"><ele>752.0</ele><time>2026-04-26T12:29:19.999Z</time></trkpt><trkpt lat="39.9210878742946" lon="15.861064388830387"><ele>749.2</ele><time>2026-04-26T12:29:20.999Z</time></trkpt><trkpt lat="39.92114281551324" lon="15.860928527955705"><ele>746.4000000000001</ele><time>2026-04-26T12:29:21.999Z</time></trkpt><trkpt lat="39.921171649074914" lon="15.86078936692119"><ele>743.5999999999999</ele><time>2026-04-26T12:29:22.999Z</time></trkpt><trkpt lat="39.92120116437722" lon="15.860685167266647"><ele>740.8</ele><time>2026-04-26T12:29:23.999Z</time></trkpt><trkpt lat="39.92131329160722" lon="15.860686228464456"><ele>738.0</ele><time>2026-04-26T12:29:24.999Z</time></trkpt><trkpt lat="39.92138130565993" lon="15.86057867708201"><ele>738.0</ele><time>2026-04-26T12:29:26.999Z</time></trkpt><trkpt lat="39.92143556957046" lon="15.860534096429888"><ele>738.0</ele><time>2026-04-26T12:29:27.999Z</time></trkpt><trkpt lat="39.92148846843381" lon="15.860450878960574"><ele>738.0</ele><time>2026-04-26T12:29:28.999Z</time></trkpt><trkpt lat="39.92149773378923" lon="15.860331301340535"><ele>738.0</ele><time>2026-04-26T12:29:29.999Z</time></trkpt><trkpt lat="39.92151450779255" lon="15.860201955502742"><ele>738.0</ele><time>2026-04-26T12:29:30.999Z</time></trkpt><trkpt lat="39.92153192964924" lon="15.86003755521113"><ele>739.2</ele><time>2026-04-26T12:29:31.999Z</time></trkpt><trkpt lat="39.92157825646674" lon="15.859890860423038"><ele>740.4</ele><time>2026-04-26T12:29:32.999Z</time></trkpt><trkpt lat="39.92157872319247" lon="15.859761286208872"><ele>741.6</ele><time>2026-04-26T12:29:33.999Z</time></trkpt><trkpt lat="39.92156290064416" lon="15.859644523520352"><ele>742.8000000000001</ele><time>2026-04-26T12:29:34.999Z</time></trkpt><trkpt lat="39.921512166961435" lon="15.859525514259603"><ele>744.0</ele><time>2026-04-26T12:29:35.999Z</time></trkpt><trkpt lat="39.92145941793423" lon="15.859413331985076"><ele>744.0</ele><time>2026-04-26T12:29:36.999Z</time></trkpt><trkpt lat="39.92142924083084" lon="15.859330756432566"><ele>744.0</ele><time>2026-04-26T12:29:37.999Z</time></trkpt><trkpt lat="39.92144566807875" lon="15.859148273040438"><ele>744.0</ele><time>2026-04-26T12:29:39.999Z</time></trkpt><trkpt lat="39.92148535312296" lon="15.859004384138936"><ele>744.0</ele><time>2026-04-26T12:29:40.999Z</time></trkpt><trkpt lat="39.92151530371296" lon="15.858855694533434"><ele>744.0</ele><time>2026-04-26T12:29:41.999Z</time></trkpt><trkpt lat="39.92150719302198" lon="15.858715632947039"><ele>743.75</ele><time>2026-04-26T12:29:42.999Z</time></trkpt><trkpt lat="39.92152414401079" lon="15.858531432280705"><ele>743.5</ele><time>2026-04-26T12:29:43.999Z</time></trkpt><trkpt lat="39.921531476723324" lon="15.858361792397755"><ele>743.25</ele><time>2026-04-26T12:29:44.999Z</time></trkpt><trkpt lat="39.921540871256816" lon="15.858194381881958"><ele>743.0</ele><time>2026-04-26T12:29:45.999Z</time></trkpt><trkpt lat="39.921535232682665" lon="15.8580114193256"><ele>743.0</ele><time>2026-04-26T12:29:46.999Z</time></trkpt><trkpt lat="39.92152798521644" lon="15.857828085037701"><ele>743.0</ele><time>2026-04-26T12:29:47.999Z</time></trkpt><trkpt lat="39.92153262745787" lon="15.857659322607484"><ele>743.0</ele><time>2026-04-26T12:29:48.999Z</time></trkpt><trkpt lat="39.92152519298292" lon="15.857498189430641"><ele>743.0</ele><time>2026-04-26T12:29:49.999Z</time></trkpt><trkpt lat="39.92150068583047" lon="15.857347444306603"><ele>743.0</ele><time>2026-04-26T12:29:50.999Z</time></trkpt><trkpt lat="39.92146833693431" lon="15.857208449843695"><ele>743.0</ele><time>2026-04-26T12:29:51.999Z</time></trkpt><trkpt lat="39.92145367588242" lon="15.857077042476998"><ele>743.0</ele><time>2026-04-26T12:29:52.999Z</time></trkpt><trkpt lat="39.921448680410975" lon="15.856960658532815"><ele>743.0</ele><time>2026-04-26T12:29:53.999Z</time></trkpt><trkpt lat="39.92146523133157" lon="15.856844262298756"><ele>743.0</ele><time>2026-04-26T12:29:54.999Z</time></trkpt><trkpt lat="39.92149858816522" lon="15.856719482955448"><ele>743.0</ele><time>2026-04-26T12:29:55.999Z</time></trkpt><trkpt lat="39.921567009269886" lon="15.856605539010145"><ele>743.0</ele><time>2026-04-26T12:29:56.999Z</time></trkpt><trkpt lat="39.92164135308632" lon="15.85649702006466"><ele>743.0</ele><time>2026-04-26T12:29:57.999Z</time></trkpt><trkpt lat="39.92177848298499" lon="15.856432020395712"><ele>743.0</ele><time>2026-04-26T12:29:58.999Z</time></trkpt><trkpt lat="39.921872179372734" lon="15.856341724953467"><ele>738.2</ele><time>2026-04-26T12:29:59.999Z</time></trkpt><trkpt lat="39.92196512006611" lon="15.856232454260669"><ele>733.4</ele><time>2026-04-26T12:30:00.999Z</time></trkpt><trkpt lat="39.92202752927304" lon="15.856126935174567"><ele>728.6</ele><time>2026-04-26T12:30:02Z</time></trkpt><trkpt lat="39.9220586523056" lon="15.856042192702619"><ele>723.8000000000001</ele><time>2026-04-26T12:30:03Z</time></trkpt><trkpt lat="39.9220694626278" lon="15.855931506335958"><ele>719.0</ele><time>2026-04-26T12:30:04Z</time></trkpt><trkpt lat="39.92205374500656" lon="15.855820537227585"><ele>719.0</ele><time>2026-04-26T12:30:05Z</time></trkpt><trkpt lat="39.92204373606782" lon="15.855678926102957"><ele>719.0</ele><time>2026-04-26T12:30:06Z</time></trkpt><trkpt lat="39.92201959380625" lon="15.85554667478545"><ele>719.0</ele><time>2026-04-26T12:30:07Z</time></trkpt><trkpt lat="39.92199387903804" lon="15.855434354326395"><ele>719.0</ele><time>2026-04-26T12:30:08Z</time></trkpt><trkpt lat="39.9219495263951" lon="15.855344830018579"><ele>719.0</ele><time>2026-04-26T12:30:09Z</time></trkpt><trkpt lat="39.92190979538699" lon="15.85528096747195"><ele>719.0</ele><time>2026-04-26T12:30:10Z</time></trkpt><trkpt lat="39.921851859428436" lon="15.855239370933166"><ele>719.0</ele><time>2026-04-26T12:30:11Z</time></trkpt><trkpt lat="39.92177492095354" lon="15.855180064720024"><ele>719.0</ele><time>2026-04-26T12:30:12Z</time></trkpt><trkpt lat="39.921698252149724" lon="15.855099553563742"><ele>719.0</ele><time>2026-04-26T12:30:13Z</time></trkpt><trkpt lat="39.92160450713304" lon="15.85499334017937"><ele>719.0</ele><time>2026-04-26T12:30:14Z</time></trkpt><trkpt lat="39.92150036758327" lon="15.854887150921261"><ele>719.0</ele><time>2026-04-26T12:30:15Z</time></trkpt><trkpt lat="39.92140759182607" lon="15.85475984928344"><ele>717.8000000000001</ele><time>2026-04-26T12:30:16Z</time></trkpt><trkpt lat="39.921327348693744" lon="15.85464392013426"><ele>716.6</ele><time>2026-04-26T12:30:17Z</time></trkpt><trkpt lat="39.92126181924105" lon="15.854541446143607"><ele>715.4</ele><time>2026-04-26T12:30:18Z</time></trkpt><trkpt lat="39.92120559648607" lon="15.854450468704732"><ele>714.2</ele><time>2026-04-26T12:30:19Z</time></trkpt><trkpt lat="39.92115553253476" lon="15.854365439658412"><ele>713.0</ele><time>2026-04-26T12:30:20Z</time></trkpt><trkpt lat="39.92109946696461" lon="15.854275618759337"><ele>713.0</ele><time>2026-04-26T12:30:21Z</time></trkpt><trkpt lat="39.92102531238027" lon="15.854199825853234"><ele>713.0</ele><time>2026-04-26T12:30:22Z</time></trkpt><trkpt lat="39.921004136726765" lon="15.854104065472898"><ele>713.0</ele><time>2026-04-26T12:30:23Z</time></trkpt><trkpt lat="39.92099903849426" lon="15.85399729830637"><ele>713.0</ele><time>2026-04-26T12:30:24Z</time></trkpt><trkpt lat="39.92098899557175" lon="15.85390010703315"><ele>713.0</ele><time>2026-04-26T12:30:25Z</time></trkpt><trkpt lat="39.92097145629616" lon="15.853798432354555"><ele>713.0</ele><time>2026-04-26T12:30:26Z</time></trkpt><trkpt lat="39.92091574637213" lon="15.853714635104556"><ele>712.5999999999999</ele><time>2026-04-26T12:30:27Z</time></trkpt><trkpt lat="39.92083930765358" lon="15.853585771993226"><ele>712.1999999999999</ele><time>2026-04-26T12:30:29Z</time></trkpt><trkpt lat="39.92085639092015" lon="15.853447141124184"><ele>711.8</ele><time>2026-04-26T12:30:31Z</time></trkpt><trkpt lat="39.920976725568124" lon="15.853402921184543"><ele>711.4</ele><time>2026-04-26T12:30:33Z</time></trkpt><trkpt lat="39.92105357716592" lon="15.853385853142662"><ele>711.0</ele><time>2026-04-26T12:30:34Z</time></trkpt><trkpt lat="39.92116290046776" lon="15.853315331460566"><ele>711.0</ele><time>2026-04-26T12:30:35Z</time></trkpt><trkpt lat="39.921249917840285" lon="15.853232384407463"><ele>711.0</ele><time>2026-04-26T12:30:36Z</time></trkpt><trkpt lat="39.92132852555124" lon="15.853119374363141"><ele>711.0</ele><time>2026-04-26T12:30:37Z</time></trkpt><trkpt lat="39.92142898380759" lon="15.853015528717972"><ele>711.0</ele><time>2026-04-26T12:30:38Z</time></trkpt><trkpt lat="39.921505694401006" lon="15.852936683958797"><ele>711.0</ele><time>2026-04-26T12:30:39Z</time></trkpt><trkpt lat="39.921579878544115" lon="15.852848606217938"><ele>711.0</ele><time>2026-04-26T12:30:41Z</time></trkpt><trkpt lat="39.921577348898595" lon="15.852740216611426"><ele>711.0</ele><time>2026-04-26T12:33:29.999Z</time></trkpt><trkpt lat="39.92160496426102" lon="15.85261893018662"><ele>711.0</ele><time>2026-04-26T12:33:30.999Z</time></trkpt><trkpt lat="39.92162288852261" lon="15.852482114213103"><ele>711.0</ele><time>2026-04-26T12:33:31.999Z</time></trkpt><trkpt lat="39.92163255456395" lon="15.852348325752384"><ele>710.5999999999999</ele><time>2026-04-26T12:33:32.999Z</time></trkpt><trkpt lat="39.92163125588207" lon="15.852228400783078"><ele>710.2</ele><time>2026-04-26T12:33:33.999Z</time></trkpt><trkpt lat="39.921623901419984" lon="15.852118984963537"><ele>709.8</ele><time>2026-04-26T12:33:34.999Z</time></trkpt><trkpt lat="39.92163424562325" lon="15.852003491558506"><ele>709.4000000000001</ele><time>2026-04-26T12:33:35.999Z</time></trkpt><trkpt lat="39.921657394293504" lon="15.851888881147497"><ele>709.0</ele><time>2026-04-26T12:33:36.999Z</time></trkpt><trkpt lat="39.92164639483201" lon="15.851756559621144"><ele>709.0</ele><time>2026-04-26T12:33:38.999Z</time></trkpt><trkpt lat="39.92159185078638" lon="15.851700638768529"><ele>709.0</ele><time>2026-04-26T12:33:39.999Z</time></trkpt><trkpt lat="39.92150919110333" lon="15.85164963808115"><ele>709.0</ele><time>2026-04-26T12:33:40.999Z</time></trkpt><trkpt lat="39.92140330469059" lon="15.851612627545645"><ele>709.0</ele><time>2026-04-26T12:33:41.999Z</time></trkpt><trkpt lat="39.921323782167605" lon="15.851563609966945"><ele>709.0</ele><time>2026-04-26T12:33:42.999Z</time></trkpt><trkpt lat="39.921251443540655" lon="15.851455228272274"><ele>709.0</ele><time>2026-04-26T12:33:43.999Z</time></trkpt><trkpt lat="39.92118030137896" lon="15.8512979375964"><ele>709.0</ele><time>2026-04-26T12:33:44.999Z</time></trkpt><trkpt lat="39.92111252780011" lon="15.85117143201631"><ele>709.0</ele><time>2026-04-26T12:33:45.999Z</time></trkpt><trkpt lat="39.921040460209994" lon="15.851089254938763"><ele>709.0</ele><time>2026-04-26T12:33:46.999Z</time></trkpt><trkpt lat="39.92091197712413" lon="15.850980731058259"><ele>710.25</ele><time>2026-04-26T12:33:47.999Z</time></trkpt><trkpt lat="39.92079697860133" lon="15.85083454261006"><ele>711.5</ele><time>2026-04-26T12:33:48.999Z</time></trkpt><trkpt lat="39.920727588560084" lon="15.850684226817503"><ele>712.75</ele><time>2026-04-26T12:33:49.999Z</time></trkpt><trkpt lat="39.920684879294015" lon="15.850592087818908"><ele>714.0</ele><time>2026-04-26T12:33:50.999Z</time></trkpt><trkpt lat="39.9206570858207" lon="15.850474129407974"><ele>714.0</ele><time>2026-04-26T12:33:51.999Z</time></trkpt><trkpt lat="39.920660618148126" lon="15.850346967148077"><ele>714.0</ele><time>2026-04-26T12:33:52.999Z</time></trkpt><trkpt lat="39.920703479864834" lon="15.850205444240649"><ele>714.0</ele><time>2026-04-26T12:33:53.999Z</time></trkpt><trkpt lat="39.92075653649079" lon="15.850017786981477"><ele>714.0</ele><time>2026-04-26T12:33:54.999Z</time></trkpt><trkpt lat="39.92078602516447" lon="15.849819000555296"><ele>711.0</ele><time>2026-04-26T12:33:55.999Z</time></trkpt><trkpt lat="39.92080995487703" lon="15.849667464797117"><ele>708.0</ele><time>2026-04-26T12:33:56.999Z</time></trkpt><trkpt lat="39.92083158004764" lon="15.849566414066098"><ele>705.0</ele><time>2026-04-26T12:33:57.999Z</time></trkpt><trkpt lat="39.92090011948174" lon="15.84946168743102"><ele>702.0</ele><time>2026-04-26T12:34:00.999Z</time></trkpt><trkpt lat="39.9209324478196" lon="15.849299600742944"><ele>699.0</ele><time>2026-04-26T12:34:01.999Z</time></trkpt><trkpt lat="39.92095972577362" lon="15.849084802778751"><ele>694.75</ele><time>2026-04-26T12:34:02.999Z</time></trkpt><trkpt lat="39.920996539813764" lon="15.84888424080321"><ele>690.5</ele><time>2026-04-26T12:34:03.999Z</time></trkpt><trkpt lat="39.92104631736001" lon="15.848710140748906"><ele>686.25</ele><time>2026-04-26T12:34:04.999Z</time></trkpt><trkpt lat="39.92109640120069" lon="15.848590395692328"><ele>682.0</ele><time>2026-04-26T12:34:05.999Z</time></trkpt><trkpt lat="39.92113182732798" lon="15.848516605983463"><ele>682.0</ele><time>2026-04-26T12:34:06.999Z</time></trkpt><trkpt lat="39.921204005320284" lon="15.84844620091942"><ele>682.0</ele><time>2026-04-26T12:34:10.999Z</time></trkpt><trkpt lat="39.921244021404014" lon="15.848324375704829"><ele>682.0</ele><time>2026-04-26T12:34:13Z</time></trkpt><trkpt lat="39.92117970276226" lon="15.848461840011437"><ele>682.0</ele><time>2026-04-26T12:34:20Z</time></trkpt><trkpt lat="39.921131097450534" lon="15.848566416184697"><ele>682.0</ele><time>2026-04-26T12:34:21Z</time></trkpt><trkpt lat="39.92107996771954" lon="15.848666811903843"><ele>682.0</ele><time>2026-04-26T12:34:22Z</time></trkpt><trkpt lat="39.92104424594013" lon="15.848743539673345"><ele>682.0</ele><time>2026-04-26T12:34:23Z</time></trkpt><trkpt lat="39.92099845954975" lon="15.848845763818082"><ele>682.0</ele><time>2026-04-26T12:34:25Z</time></trkpt><trkpt lat="39.92097593499231" lon="15.848933901605427"><ele>682.0</ele><time>2026-04-26T12:34:32Z</time></trkpt><trkpt lat="39.92095092869627" lon="15.84906802712226"><ele>682.0</ele><time>2026-04-26T12:34:34Z</time></trkpt><trkpt lat="39.920934492147936" lon="15.849166720814972"><ele>682.0</ele><time>2026-04-26T12:34:35Z</time></trkpt><trkpt lat="39.92089887878064" lon="15.849262402425765"><ele>684.8333333333334</ele><time>2026-04-26T12:34:36Z</time></trkpt><trkpt lat="39.92088439425295" lon="15.849346019035307"><ele>687.6666666666667</ele><time>2026-04-26T12:34:37Z</time></trkpt><trkpt lat="39.920883810325115" lon="15.849441923213327"><ele>690.5</ele><time>2026-04-26T12:34:38Z</time></trkpt><trkpt lat="39.92085416399531" lon="15.849548097321566"><ele>693.3333333333334</ele><time>2026-04-26T12:34:40Z</time></trkpt><trkpt lat="39.92086157238149" lon="15.84963144369201"><ele>696.1666666666666</ele><time>2026-04-26T12:34:43Z</time></trkpt><trkpt lat="39.92088078412341" lon="15.84972473420912"><ele>699.0</ele><time>2026-04-26T12:34:45Z</time></trkpt><trkpt lat="39.92085015944185" lon="15.849892294153552"><ele>699.0</ele><time>2026-04-26T12:34:47Z</time></trkpt><trkpt lat="39.920835652788796" lon="15.849977111221031"><ele>699.0</ele><time>2026-04-26T12:34:48Z</time></trkpt><trkpt lat="39.92083065035125" lon="15.85007594562904"><ele>699.0</ele><time>2026-04-26T12:34:49Z</time></trkpt><trkpt lat="39.92083138818301" lon="15.850189485733114"><ele>699.0</ele><time>2026-04-26T12:34:50Z</time></trkpt><trkpt lat="39.920829548998675" lon="15.85028407617301"><ele>699.0</ele><time>2026-04-26T12:34:51Z</time></trkpt><trkpt lat="39.92084052529331" lon="15.850366001587023"><ele>699.0</ele><time>2026-04-26T12:34:52Z</time></trkpt><trkpt lat="39.92086835037608" lon="15.85051562437663"><ele>697.2</ele><time>2026-04-26T12:34:54Z</time></trkpt><trkpt lat="39.920907917923024" lon="15.850608750426556"><ele>695.4000000000001</ele><time>2026-04-26T12:34:56Z</time></trkpt><trkpt lat="39.92100597938056" lon="15.850689940569618"><ele>693.6</ele><time>2026-04-26T12:34:58Z</time></trkpt><trkpt lat="39.921084220799045" lon="15.850739950810746"><ele>691.8</ele><time>2026-04-26T12:34:59.999Z</time></trkpt><trkpt lat="39.921189322815984" lon="15.85079604939339"><ele>690.0</ele><time>2026-04-26T12:35:01.999Z</time></trkpt><trkpt lat="39.92129375550865" lon="15.850863813855401"><ele>690.0</ele><time>2026-04-26T12:35:03.999Z</time></trkpt><trkpt lat="39.92139213447971" lon="15.850914978682022"><ele>690.0</ele><time>2026-04-26T12:35:05.999Z</time></trkpt><trkpt lat="39.92148361900004" lon="15.850915216921903"><ele>690.0</ele><time>2026-04-26T12:35:07.999Z</time></trkpt><trkpt lat="39.921554823092464" lon="15.85089820881865"><ele>690.0</ele><time>2026-04-26T12:35:09.999Z</time></trkpt><trkpt lat="39.921652561001274" lon="15.850860530673392"><ele>690.0</ele><time>2026-04-26T12:35:12.999Z</time></trkpt><trkpt lat="39.921727640836274" lon="15.850844276722002"><ele>690.0</ele><time>2026-04-26T12:35:14.999Z</time></trkpt><trkpt lat="39.92180303599249" lon="15.850817362812538"><ele>686.8333333333334</ele><time>2026-04-26T12:35:16.999Z</time></trkpt><trkpt lat="39.92188066950404" lon="15.850763550935756"><ele>683.6666666666666</ele><time>2026-04-26T12:35:18.999Z</time></trkpt><trkpt lat="39.9219512103152" lon="15.850773418490146"><ele>680.5</ele><time>2026-04-26T12:35:20.999Z</time></trkpt><trkpt lat="39.92203332778909" lon="15.850798941923566"><ele>677.3333333333333</ele><time>2026-04-26T12:35:23.999Z</time></trkpt><trkpt lat="39.92210697375343" lon="15.850829526600197"><ele>674.1666666666666</ele><time>2026-04-26T12:35:26.999Z</time></trkpt><trkpt lat="39.922179056567174" lon="15.850846426992462"><ele>671.0</ele><time>2026-04-26T12:35:28.999Z</time></trkpt><trkpt lat="39.922240803173565" lon="15.850824466284607"><ele>671.0</ele><time>2026-04-26T12:35:30.999Z</time></trkpt><trkpt lat="39.922309087830314" lon="15.850774739829847"><ele>671.0</ele><time>2026-04-26T12:35:33.999Z</time></trkpt><trkpt lat="39.922491621623706" lon="15.850702244661093"><ele>671.0</ele><time>2026-04-26T12:35:35.999Z</time></trkpt><trkpt lat="39.92258093204077" lon="15.850686015660841"><ele>671.0</ele><time>2026-04-26T12:35:37.999Z</time></trkpt><trkpt lat="39.922682789499355" lon="15.850638701728"><ele>666.1999999999999</ele><time>2026-04-26T12:35:39.999Z</time></trkpt><trkpt lat="39.92274779832088" lon="15.850600853053791"><ele>661.4</ele><time>2026-04-26T12:35:40.999Z</time></trkpt><trkpt lat="39.92280365730713" lon="15.850464940024885"><ele>656.6</ele><time>2026-04-26T12:35:42.999Z</time></trkpt><trkpt lat="39.922902786119415" lon="15.850374756498827"><ele>651.8</ele><time>2026-04-26T12:35:44.999Z</time></trkpt><trkpt lat="39.92293153740012" lon="15.850206676872908"><ele>647.0</ele><time>2026-04-26T12:35:46.999Z</time></trkpt><trkpt lat="39.92297053998272" lon="15.850128355868016"><ele>649.6</ele><time>2026-04-26T12:35:47.999Z</time></trkpt><trkpt lat="39.923022102506295" lon="15.85002080092249"><ele>652.2</ele><time>2026-04-26T12:35:48.999Z</time></trkpt><trkpt lat="39.92308079043832" lon="15.849896382880614"><ele>654.8</ele><time>2026-04-26T12:35:49.999Z</time></trkpt><trkpt lat="39.9231645685145" lon="15.849798674173305"><ele>657.4</ele><time>2026-04-26T12:35:50.999Z</time></trkpt><trkpt lat="39.92321044613203" lon="15.849699816198548"><ele>660.0</ele><time>2026-04-26T12:35:51.999Z</time></trkpt><trkpt lat="39.92325211751318" lon="15.849597486446516"><ele>660.0</ele><time>2026-04-26T12:35:52.999Z</time></trkpt><trkpt lat="39.92329687507537" lon="15.849501505804328"><ele>660.0</ele><time>2026-04-26T12:35:53.999Z</time></trkpt><trkpt lat="39.923345099495236" lon="15.849416058626558"><ele>660.0</ele><time>2026-04-26T12:35:54.999Z</time></trkpt><trkpt lat="39.92337804551956" lon="15.849271453246352"><ele>660.0</ele><time>2026-04-26T12:35:56.999Z</time></trkpt><trkpt lat="39.92340414316245" lon="15.84918691607854"><ele>660.0</ele><time>2026-04-26T12:35:57.999Z</time></trkpt><trkpt lat="39.92340837776704" lon="15.849071182278736"><ele>660.0</ele><time>2026-04-26T12:35:58.999Z</time></trkpt><trkpt lat="39.92340192149438" lon="15.848932316644651"><ele>656.8333333333334</ele><time>2026-04-26T12:35:59.999Z</time></trkpt><trkpt lat="39.92339956123421" lon="15.848812206976225"><ele>653.6666666666666</ele><time>2026-04-26T12:36:00.999Z</time></trkpt><trkpt lat="39.92340535302357" lon="15.848713749753882"><ele>650.5</ele><time>2026-04-26T12:36:01.999Z</time></trkpt><trkpt lat="39.923444792605515" lon="15.848636396027981"><ele>647.3333333333333</ele><time>2026-04-26T12:36:02.999Z</time></trkpt><trkpt lat="39.92346891638255" lon="15.84852430703136"><ele>644.1666666666666</ele><time>2026-04-26T12:36:03.999Z</time></trkpt><trkpt lat="39.92349305073147" lon="15.8484100017663"><ele>641.0</ele><time>2026-04-26T12:36:04.999Z</time></trkpt><trkpt lat="39.92348279236541" lon="15.848271785448222"><ele>640.75</ele><time>2026-04-26T12:36:05.999Z</time></trkpt><trkpt lat="39.92345529624264" lon="15.848134717956325"><ele>640.5</ele><time>2026-04-26T12:36:06.999Z</time></trkpt><trkpt lat="39.92341513581547" lon="15.84796949721668"><ele>640.25</ele><time>2026-04-26T12:36:07.999Z</time></trkpt><trkpt lat="39.92338198815815" lon="15.847810519785366"><ele>640.0</ele><time>2026-04-26T12:36:08.999Z</time></trkpt><trkpt lat="39.92335033170598" lon="15.847664376760953"><ele>644.4</ele><time>2026-04-26T12:36:09.999Z</time></trkpt><trkpt lat="39.92332276640814" lon="15.847527077673348"><ele>648.8</ele><time>2026-04-26T12:36:10.999Z</time></trkpt><trkpt lat="39.92330491588474" lon="15.847398165942442"><ele>653.2</ele><time>2026-04-26T12:36:11.999Z</time></trkpt><trkpt lat="39.92330653161528" lon="15.847285669335793"><ele>657.6</ele><time>2026-04-26T12:36:12.999Z</time></trkpt><trkpt lat="39.92330009621982" lon="15.847180283606724"><ele>662.0</ele><time>2026-04-26T12:36:13.999Z</time></trkpt><trkpt lat="39.92328498641038" lon="15.847045114833051"><ele>662.0</ele><time>2026-04-26T12:36:14.999Z</time></trkpt><trkpt lat="39.92328122771903" lon="15.846891059246126"><ele>662.0</ele><time>2026-04-26T12:36:15.999Z</time></trkpt><trkpt lat="39.92328128143561" lon="15.846767324168624"><ele>662.0</ele><time>2026-04-26T12:36:16.999Z</time></trkpt><trkpt lat="39.92327993533815" lon="15.846650307998992"><ele>662.0</ele><time>2026-04-26T12:36:18Z</time></trkpt><trkpt lat="39.92327193074713" lon="15.846527235969685"><ele>662.0</ele><time>2026-04-26T12:36:19Z</time></trkpt><trkpt lat="39.92325420518891" lon="15.846405464672374"><ele>660.3333333333333</ele><time>2026-04-26T12:36:20Z</time></trkpt><trkpt lat="39.92323646117092" lon="15.846281226901795"><ele>658.6666666666666</ele><time>2026-04-26T12:36:21Z</time></trkpt><trkpt lat="39.923217599614695" lon="15.846177128114613"><ele>657.0</ele><time>2026-04-26T12:36:22Z</time></trkpt><trkpt lat="39.92323250040664" lon="15.846074318944236"><ele>655.3333333333334</ele><time>2026-04-26T12:36:23Z</time></trkpt><trkpt lat="39.92323436754412" lon="15.845976405553857"><ele>653.6666666666667</ele><time>2026-04-26T12:36:24Z</time></trkpt><trkpt lat="39.92322725164359" lon="15.84585975370502"><ele>652.0</ele><time>2026-04-26T12:36:25Z</time></trkpt><trkpt lat="39.923236157199696" lon="15.845725053236915"><ele>651.0</ele><time>2026-04-26T12:36:26Z</time></trkpt><trkpt lat="39.923240304680014" lon="15.845595226462038"><ele>650.0</ele><time>2026-04-26T12:36:27Z</time></trkpt><trkpt lat="39.92326201661081" lon="15.84547696797365"><ele>649.0</ele><time>2026-04-26T12:36:28Z</time></trkpt><trkpt lat="39.92327644579048" lon="15.845368072531498"><ele>648.0</ele><time>2026-04-26T12:36:29Z</time></trkpt><trkpt lat="39.923287848955326" lon="15.845268597186406"><ele>647.0</ele><time>2026-04-26T12:36:30Z</time></trkpt><trkpt lat="39.923321595645504" lon="15.845194031430376"><ele>646.0</ele><time>2026-04-26T12:36:31Z</time></trkpt><trkpt lat="39.92337025813763" lon="15.845139593654864"><ele>640.3333333333334</ele><time>2026-04-26T12:36:32Z</time></trkpt><trkpt lat="39.92343535785429" lon="15.84508962724435"><ele>634.6666666666667</ele><time>2026-04-26T12:36:33Z</time></trkpt><trkpt lat="39.923505591902014" lon="15.845029535194532"><ele>629.0</ele><time>2026-04-26T12:36:34Z</time></trkpt><trkpt lat="39.92356370165889" lon="15.844974484541726"><ele>623.3333333333334</ele><time>2026-04-26T12:36:35Z</time></trkpt><trkpt lat="39.92362268075462" lon="15.844939334061742"><ele>617.6666666666666</ele><time>2026-04-26T12:36:36Z</time></trkpt><trkpt lat="39.92366839982573" lon="15.844877693870536"><ele>612.0</ele><time>2026-04-26T12:36:37Z</time></trkpt><trkpt lat="39.92366617943394" lon="15.844745314078223"><ele>612.0</ele><time>2026-04-26T12:36:38Z</time></trkpt><trkpt lat="39.92366866236315" lon="15.844611590980012"><ele>612.0</ele><time>2026-04-26T12:36:39Z</time></trkpt><trkpt lat="39.92365598994171" lon="15.844472330632351"><ele>612.0</ele><time>2026-04-26T12:36:40Z</time></trkpt><trkpt lat="39.923636128418124" lon="15.844337018722175"><ele>612.0</ele><time>2026-04-26T12:36:41Z</time></trkpt><trkpt lat="39.92361200650212" lon="15.84422828398596"><ele>612.0</ele><time>2026-04-26T12:36:42Z</time></trkpt><trkpt lat="39.92357706979646" lon="15.844143943363738"><ele>611.3333333333334</ele><time>2026-04-26T12:36:43Z</time></trkpt><trkpt lat="39.9235256094095" lon="15.844078675125251"><ele>610.6666666666666</ele><time>2026-04-26T12:36:44Z</time></trkpt><trkpt lat="39.92346785231936" lon="15.844010948991876"><ele>610.0</ele><time>2026-04-26T12:36:45Z</time></trkpt><trkpt lat="39.92337494368051" lon="15.844003544466261"><ele>609.3333333333333</ele><time>2026-04-26T12:36:46Z</time></trkpt><trkpt lat="39.92328517345482" lon="15.843998331471965"><ele>608.6666666666666</ele><time>2026-04-26T12:36:47Z</time></trkpt><trkpt lat="39.923208698191466" lon="15.844007376748765"><ele>608.0</ele><time>2026-04-26T12:36:48Z</time></trkpt><trkpt lat="39.92314518711752" lon="15.843975644051199"><ele>611.2857142857142</ele><time>2026-04-26T12:36:49Z</time></trkpt><trkpt lat="39.92307940498249" lon="15.84396195840708"><ele>614.5714285714287</ele><time>2026-04-26T12:36:50Z</time></trkpt><trkpt lat="39.923019087415284" lon="15.843897352836857"><ele>617.8571428571429</ele><time>2026-04-26T12:36:51Z</time></trkpt><trkpt lat="39.922961754125545" lon="15.843823242671634"><ele>621.1428571428571</ele><time>2026-04-26T12:36:52Z</time></trkpt><trkpt lat="39.92291182292855" lon="15.843741583958945"><ele>624.4285714285713</ele><time>2026-04-26T12:36:53Z</time></trkpt><trkpt lat="39.92287645259911" lon="15.843663228858768"><ele>627.7142857142858</ele><time>2026-04-26T12:36:54Z</time></trkpt><trkpt lat="39.92284408152048" lon="15.843582594335391"><ele>631.0</ele><time>2026-04-26T12:36:55Z</time></trkpt><trkpt lat="39.92281556046252" lon="15.843493004989735"><ele>627.2</ele><time>2026-04-26T12:36:56Z</time></trkpt><trkpt lat="39.92278745742938" lon="15.84341790193955"><ele>623.4000000000001</ele><time>2026-04-26T12:36:57Z</time></trkpt><trkpt lat="39.92274038639226" lon="15.84328114248995"><ele>619.6</ele><time>2026-04-26T12:36:59Z</time></trkpt><trkpt lat="39.92267828953958" lon="15.843177919342857"><ele>615.8000000000001</ele><time>2026-04-26T12:37:01Z</time></trkpt><trkpt lat="39.92262241558291" lon="15.843048789903698"><ele>612.0</ele><time>2026-04-26T12:37:03Z</time></trkpt><trkpt lat="39.922565822167776" lon="15.84289488181699"><ele>611.1666666666666</ele><time>2026-04-26T12:37:05Z</time></trkpt><trkpt lat="39.922531073605164" lon="15.842822186243522"><ele>610.3333333333334</ele><time>2026-04-26T12:37:06Z</time></trkpt><trkpt lat="39.92249172623727" lon="15.842756056312847"><ele>609.5</ele><time>2026-04-26T12:37:07Z</time></trkpt><trkpt lat="39.92238483772469" lon="15.842684615200723"><ele>608.6666666666667</ele><time>2026-04-26T12:37:09Z</time></trkpt><trkpt lat="39.9222854280724" lon="15.842638803210487"><ele>607.8333333333334</ele><time>2026-04-26T12:37:10.999Z</time></trkpt><trkpt lat="39.92224571741899" lon="15.842547761336968"><ele>607.0</ele><time>2026-04-26T12:37:12.999Z</time></trkpt><trkpt lat="39.922294776582156" lon="15.842406263346614"><ele>607.0</ele><time>2026-04-26T12:37:14.999Z</time></trkpt><trkpt lat="39.922328902924235" lon="15.842328418082158"><ele>607.0</ele><time>2026-04-26T12:37:15.999Z</time></trkpt><trkpt lat="39.92234994983651" lon="15.842245106917057"><ele>607.0</ele><time>2026-04-26T12:37:16.999Z</time></trkpt><trkpt lat="39.922380115728444" lon="15.842149442691037"><ele>607.0</ele><time>2026-04-26T12:37:17.999Z</time></trkpt><trkpt lat="39.92240396053175" lon="15.84206342218894"><ele>607.0</ele><time>2026-04-26T12:37:18.999Z</time></trkpt><trkpt lat="39.922480290159285" lon="15.84193745470438"><ele>607.0</ele><time>2026-04-26T12:37:20.999Z</time></trkpt><trkpt lat="39.92252407428142" lon="15.841874269328862"><ele>604.5</ele><time>2026-04-26T12:37:21.999Z</time></trkpt><trkpt lat="39.922566705257545" lon="15.841804304915897"><ele>602.0</ele><time>2026-04-26T12:37:22.999Z</time></trkpt><trkpt lat="39.92262803334834" lon="15.841686391198865"><ele>599.5</ele><time>2026-04-26T12:37:24.999Z</time></trkpt><trkpt lat="39.92266576739709" lon="15.841615876118963"><ele>597.0</ele><time>2026-04-26T12:37:25.999Z</time></trkpt><trkpt lat="39.922610013117634" lon="15.841493735027342"><ele>594.5</ele><time>2026-04-26T12:37:26.999Z</time></trkpt><trkpt lat="39.9225757344358" lon="15.84141038502323"><ele>592.0</ele><time>2026-04-26T12:37:27.999Z</time></trkpt><trkpt lat="39.92252393248237" lon="15.841342989090379"><ele>591.8333333333334</ele><time>2026-04-26T12:37:28.999Z</time></trkpt><trkpt lat="39.922467487448195" lon="15.841245611158037"><ele>591.6666666666667</ele><time>2026-04-26T12:37:29.999Z</time></trkpt><trkpt lat="39.9224273256002" lon="15.841136935115792"><ele>591.5</ele><time>2026-04-26T12:37:30.999Z</time></trkpt><trkpt lat="39.92236789316216" lon="15.84103742611556"><ele>591.3333333333334</ele><time>2026-04-26T12:37:31.999Z</time></trkpt><trkpt lat="39.92230951140982" lon="15.84096222097471"><ele>591.1666666666666</ele><time>2026-04-26T12:37:32.999Z</time></trkpt><trkpt lat="39.92225309373917" lon="15.840905029707647"><ele>591.0</ele><time>2026-04-26T12:37:33.999Z</time></trkpt><trkpt lat="39.92214424837037" lon="15.840813316637862"><ele>587.4</ele><time>2026-04-26T12:37:35.999Z</time></trkpt><trkpt lat="39.92204544205992" lon="15.840805665409194"><ele>583.8</ele><time>2026-04-26T12:37:36.999Z</time></trkpt><trkpt lat="39.921941660131885" lon="15.840847001717487"><ele>580.1999999999999</ele><time>2026-04-26T12:37:37.999Z</time></trkpt><trkpt lat="39.92184428739775" lon="15.840863396075948"><ele>576.6</ele><time>2026-04-26T12:37:38.999Z</time></trkpt><trkpt lat="39.921730261372545" lon="15.840870402042446"><ele>573.0</ele><time>2026-04-26T12:37:39.999Z</time></trkpt><trkpt lat="39.92162996236952" lon="15.84086986471124"><ele>572.6</ele><time>2026-04-26T12:37:40.999Z</time></trkpt><trkpt lat="39.921512624272516" lon="15.840900386529567"><ele>572.1999999999999</ele><time>2026-04-26T12:37:41.999Z</time></trkpt><trkpt lat="39.92139235429692" lon="15.840891377839899"><ele>571.8</ele><time>2026-04-26T12:37:42.999Z</time></trkpt><trkpt lat="39.92128149668279" lon="15.84087949630896"><ele>571.4</ele><time>2026-04-26T12:37:43.999Z</time></trkpt><trkpt lat="39.921184800980406" lon="15.840876985615727"><ele>571.0</ele><time>2026-04-26T12:37:44.999Z</time></trkpt><trkpt lat="39.921113035838935" lon="15.840880253644292"><ele>571.0</ele><time>2026-04-26T12:37:45.999Z</time></trkpt><trkpt lat="39.92101337327775" lon="15.840832909234129"><ele>571.0</ele><time>2026-04-26T12:37:47.999Z</time></trkpt><trkpt lat="39.920999454225274" lon="15.840693085138795"><ele>571.0</ele><time>2026-04-26T12:37:49.999Z</time></trkpt><trkpt lat="39.9210047535111" lon="15.840590328738328"><ele>571.0</ele><time>2026-04-26T12:37:50.999Z</time></trkpt><trkpt lat="39.920968661702524" lon="15.840506059549071"><ele>571.0</ele><time>2026-04-26T12:37:51.999Z</time></trkpt><trkpt lat="39.920902033639365" lon="15.840456913154972"><ele>571.0</ele><time>2026-04-26T12:37:52.999Z</time></trkpt><trkpt lat="39.92082555474682" lon="15.840420763840372"><ele>571.5</ele><time>2026-04-26T12:37:53.999Z</time></trkpt><trkpt lat="39.92076341603858" lon="15.840367671532738"><ele>572.0</ele><time>2026-04-26T12:37:54.999Z</time></trkpt><trkpt lat="39.920712002853506" lon="15.84029195311687"><ele>572.5</ele><time>2026-04-26T12:37:55.999Z</time></trkpt><trkpt lat="39.92067681856128" lon="15.840196635904967"><ele>573.0</ele><time>2026-04-26T12:37:56.999Z</time></trkpt><trkpt lat="39.9206608586391" lon="15.84007941546236"><ele>573.5</ele><time>2026-04-26T12:37:57.999Z</time></trkpt><trkpt lat="39.92065504689328" lon="15.839939533884882"><ele>574.0</ele><time>2026-04-26T12:37:58.999Z</time></trkpt><trkpt lat="39.92063977567873" lon="15.839820407800497"><ele>573.0</ele><time>2026-04-26T12:37:59.999Z</time></trkpt><trkpt lat="39.92060223625387" lon="15.839747323891801"><ele>572.0</ele><time>2026-04-26T12:38:00.999Z</time></trkpt><trkpt lat="39.92054093127692" lon="15.839722272783334"><ele>571.0</ele><time>2026-04-26T12:38:01.999Z</time></trkpt><trkpt lat="39.92045714942585" lon="15.839731628134608"><ele>570.0</ele><time>2026-04-26T12:38:02.999Z</time></trkpt><trkpt lat="39.9203512527392" lon="15.839713912872924"><ele>569.0</ele><time>2026-04-26T12:38:03.999Z</time></trkpt><trkpt lat="39.920256263890785" lon="15.839740887896463"><ele>568.0</ele><time>2026-04-26T12:38:04.999Z</time></trkpt><trkpt lat="39.920181162056444" lon="15.839703373001688"><ele>568.0</ele><time>2026-04-26T12:38:05.999Z</time></trkpt><trkpt lat="39.92010408390444" lon="15.839622456852934"><ele>568.0</ele><time>2026-04-26T12:38:06.999Z</time></trkpt><trkpt lat="39.919994999659885" lon="15.839520268078909"><ele>568.0</ele><time>2026-04-26T12:38:07.999Z</time></trkpt><trkpt lat="39.91986265996586" lon="15.839434109911428"><ele>568.0</ele><time>2026-04-26T12:38:08.999Z</time></trkpt><trkpt lat="39.91972983474162" lon="15.839374008664091"><ele>567.25</ele><time>2026-04-26T12:38:09.999Z</time></trkpt><trkpt lat="39.919606043443046" lon="15.839320630669818"><ele>566.5</ele><time>2026-04-26T12:38:10.999Z</time></trkpt><trkpt lat="39.91948704932222" lon="15.839250410288173"><ele>565.75</ele><time>2026-04-26T12:38:11.999Z</time></trkpt><trkpt lat="39.91936877561867" lon="15.839173179422046"><ele>565.0</ele><time>2026-04-26T12:38:12.999Z</time></trkpt><trkpt lat="39.91925800528368" lon="15.839080158868418"><ele>565.0</ele><time>2026-04-26T12:38:13.999Z</time></trkpt><trkpt lat="39.91917312423564" lon="15.838960396815052"><ele>565.0</ele><time>2026-04-26T12:38:14.999Z</time></trkpt><trkpt lat="39.91906173297379" lon="15.838910745706885"><ele>565.0</ele><time>2026-04-26T12:38:15.999Z</time></trkpt><trkpt lat="39.918937974281306" lon="15.838884755241267"><ele>565.0</ele><time>2026-04-26T12:38:16.999Z</time></trkpt><trkpt lat="39.91883885650288" lon="15.83883665628266"><ele>565.0</ele><time>2026-04-26T12:38:17.999Z</time></trkpt><trkpt lat="39.91876962045902" lon="15.838794901753857"><ele>565.0</ele><time>2026-04-26T12:38:18.999Z</time></trkpt><trkpt lat="39.918710628203854" lon="15.838719130313658"><ele>565.0</ele><time>2026-04-26T12:38:19.999Z</time></trkpt><trkpt lat="39.91865313722975" lon="15.838589395952871"><ele>565.0</ele><time>2026-04-26T12:38:20.999Z</time></trkpt><trkpt lat="39.91856077947413" lon="15.838443582684592"><ele>565.0</ele><time>2026-04-26T12:38:21.999Z</time></trkpt><trkpt lat="39.91847289492654" lon="15.838300000383962"><ele>565.0</ele><time>2026-04-26T12:38:23Z</time></trkpt><trkpt lat="39.91841770704434" lon="15.83818132830644"><ele>565.0</ele><time>2026-04-26T12:38:24Z</time></trkpt><trkpt lat="39.918398804997025" lon="15.838063533034356"><ele>565.0</ele><time>2026-04-26T12:38:25Z</time></trkpt><trkpt lat="39.918402942641606" lon="15.837916450119435"><ele>565.0</ele><time>2026-04-26T12:38:26Z</time></trkpt><trkpt lat="39.91839487202671" lon="15.837751391643753"><ele>565.0</ele><time>2026-04-26T12:38:27Z</time></trkpt><trkpt lat="39.91834986318197" lon="15.837590678817845"><ele>565.0</ele><time>2026-04-26T12:38:28Z</time></trkpt><trkpt lat="39.91827577091991" lon="15.837441849807634"><ele>565.0</ele><time>2026-04-26T12:38:29Z</time></trkpt><trkpt lat="39.91821544903615" lon="15.837312071528148"><ele>565.0</ele><time>2026-04-26T12:38:30Z</time></trkpt><trkpt lat="39.91819779752559" lon="15.837181730847043"><ele>565.0</ele><time>2026-04-26T12:38:31Z</time></trkpt><trkpt lat="39.91818856529109" lon="15.837048357249673"><ele>565.0</ele><time>2026-04-26T12:38:32Z</time></trkpt><trkpt lat="39.91816072459126" lon="15.836958303398422"><ele>565.0</ele><time>2026-04-26T12:38:33Z</time></trkpt><trkpt lat="39.918082399507604" lon="15.836895990672415"><ele>565.0</ele><time>2026-04-26T12:38:34Z</time></trkpt><trkpt lat="39.91797140780024" lon="15.83691895273643"><ele>565.0</ele><time>2026-04-26T12:38:35Z</time></trkpt><trkpt lat="39.91788190746728" lon="15.837017793923863"><ele>565.0</ele><time>2026-04-26T12:38:36Z</time></trkpt><trkpt lat="39.917833764668295" lon="15.837169872324914"><ele>565.0</ele><time>2026-04-26T12:38:37Z</time></trkpt><trkpt lat="39.91778562464567" lon="15.837298623013133"><ele>565.0</ele><time>2026-04-26T12:38:38Z</time></trkpt><trkpt lat="39.917743085724766" lon="15.837425920867368"><ele>565.0</ele><time>2026-04-26T12:38:39Z</time></trkpt><trkpt lat="39.91769473807797" lon="15.837543962238854"><ele>565.0</ele><time>2026-04-26T12:38:40Z</time></trkpt><trkpt lat="39.917628664517174" lon="15.837623362917187"><ele>565.0</ele><time>2026-04-26T12:38:41Z</time></trkpt><trkpt lat="39.91753937398298" lon="15.83769005024253"><ele>569.0</ele><time>2026-04-26T12:38:42Z</time></trkpt><trkpt lat="39.917418583847216" lon="15.837702037922066"><ele>573.0</ele><time>2026-04-26T12:38:43Z</time></trkpt><trkpt lat="39.91728897060253" lon="15.83769930086263"><ele>577.0</ele><time>2026-04-26T12:38:44Z</time></trkpt><trkpt lat="39.917155431654294" lon="15.837704769758234"><ele>581.0</ele><time>2026-04-26T12:38:45Z</time></trkpt><trkpt lat="39.917029971739204" lon="15.837711881521077"><ele>581.0</ele><time>2026-04-26T12:38:46Z</time></trkpt><trkpt lat="39.916907806722186" lon="15.837757613090657"><ele>581.0</ele><time>2026-04-26T12:38:47Z</time></trkpt><trkpt lat="39.91679554267512" lon="15.837786835495647"><ele>581.0</ele><time>2026-04-26T12:38:48Z</time></trkpt><trkpt lat="39.91669576434833" lon="15.837805754095445"><ele>581.0</ele><time>2026-04-26T12:38:49Z</time></trkpt><trkpt lat="39.91659475623381" lon="15.837820114529563"><ele>581.0</ele><time>2026-04-26T12:38:50Z</time></trkpt><trkpt lat="39.916490767226875" lon="15.837834418604135"><ele>580.0</ele><time>2026-04-26T12:38:51Z</time></trkpt><trkpt lat="39.91637777684702" lon="15.837838428170567"><ele>579.0</ele><time>2026-04-26T12:38:52Z</time></trkpt><trkpt lat="39.91625908351403" lon="15.837839253625903"><ele>578.0</ele><time>2026-04-26T12:38:53Z</time></trkpt><trkpt lat="39.91615030473606" lon="15.8378396169354"><ele>577.0</ele><time>2026-04-26T12:38:54Z</time></trkpt><trkpt lat="39.916052493262356" lon="15.837824600498427"><ele>576.0</ele><time>2026-04-26T12:38:55Z</time></trkpt><trkpt lat="39.915948726965084" lon="15.837788560018005"><ele>575.2</ele><time>2026-04-26T12:38:56Z</time></trkpt><trkpt lat="39.91584490670727" lon="15.837742689847177"><ele>574.4000000000001</ele><time>2026-04-26T12:38:57Z</time></trkpt><trkpt lat="39.91575448694755" lon="15.837711096542819"><ele>573.6</ele><time>2026-04-26T12:38:58Z</time></trkpt><trkpt lat="39.915685262434195" lon="15.837691418907587"><ele>572.8000000000001</ele><time>2026-04-26T12:38:59Z</time></trkpt><trkpt lat="39.915603868293985" lon="15.8375984771972"><ele>572.0</ele><time>2026-04-26T12:39:01Z</time></trkpt><trkpt lat="39.91565120189266" lon="15.837462739668567"><ele>569.3333333333333</ele><time>2026-04-26T12:39:03Z</time></trkpt><trkpt lat="39.91572519953896" lon="15.837444713941249"><ele>566.6666666666666</ele><time>2026-04-26T12:39:04Z</time></trkpt><trkpt lat="39.91580902651318" lon="15.837519837063308"><ele>564.0</ele><time>2026-04-26T12:39:05Z</time></trkpt><trkpt lat="39.91588627520283" lon="15.837519837067177"><ele>561.3333333333334</ele><time>2026-04-26T12:39:06Z</time></trkpt><trkpt lat="39.915948452559036" lon="15.837424007445515"><ele>558.6666666666667</ele><time>2026-04-26T12:39:07Z</time></trkpt><trkpt lat="39.91598283626877" lon="15.837308312026828"><ele>556.0</ele><time>2026-04-26T12:39:08Z</time></trkpt><trkpt lat="39.915998452445045" lon="15.837169210522873"><ele>556.0</ele><time>2026-04-26T12:39:09Z</time></trkpt><trkpt lat="39.91598309711182" lon="15.837026067847145"><ele>556.0</ele><time>2026-04-26T12:39:10Z</time></trkpt><trkpt lat="39.915952604644644" lon="15.836887817445545"><ele>556.0</ele><time>2026-04-26T12:39:11Z</time></trkpt><trkpt lat="39.91592759301562" lon="15.83676749609208"><ele>556.0</ele><time>2026-04-26T12:39:12Z</time></trkpt><trkpt lat="39.915930862565105" lon="15.836655096557346"><ele>556.0</ele><time>2026-04-26T12:39:13Z</time></trkpt><trkpt lat="39.91595840312885" lon="15.836558380884048"><ele>552.25</ele><time>2026-04-26T12:39:14Z</time></trkpt><trkpt lat="39.916022734505546" lon="15.836463617464426"><ele>548.5</ele><time>2026-04-26T12:39:15Z</time></trkpt><trkpt lat="39.9160979006381" lon="15.836337194815826"><ele>544.75</ele><time>2026-04-26T12:39:15.999Z</time></trkpt><trkpt lat="39.916156715971525" lon="15.836175084064577"><ele>541.0</ele><time>2026-04-26T12:39:16.999Z</time></trkpt><trkpt lat="39.91621718898431" lon="15.836018588853465"><ele>540.0</ele><time>2026-04-26T12:39:17.999Z</time></trkpt><trkpt lat="39.91627021657642" lon="15.835865705713632"><ele>539.0</ele><time>2026-04-26T12:39:18.999Z</time></trkpt><trkpt lat="39.91632319754367" lon="15.835704940127268"><ele>538.0</ele><time>2026-04-26T12:39:19.999Z</time></trkpt><trkpt lat="39.91638301004161" lon="15.835537230442664"><ele>537.0</ele><time>2026-04-26T12:39:20.999Z</time></trkpt><trkpt lat="39.916464639789595" lon="15.835401895950854"><ele>537.0</ele><time>2026-04-26T12:39:21.999Z</time></trkpt><trkpt lat="39.916537430926695" lon="15.835255765597053"><ele>537.0</ele><time>2026-04-26T12:39:22.999Z</time></trkpt><trkpt lat="39.916608172020915" lon="15.835120041362359"><ele>537.0</ele><time>2026-04-26T12:39:23.999Z</time></trkpt><trkpt lat="39.91668713955775" lon="15.834988916517528"><ele>537.0</ele><time>2026-04-26T12:39:24.999Z</time></trkpt><trkpt lat="39.9167790537429" lon="15.834862940546008"><ele>536.25</ele><time>2026-04-26T12:39:25.999Z</time></trkpt><trkpt lat="39.91687995840345" lon="15.834724835442207"><ele>535.5</ele><time>2026-04-26T12:39:26.999Z</time></trkpt><trkpt lat="39.91697362146005" lon="15.834582343891595"><ele>534.75</ele><time>2026-04-26T12:39:27.999Z</time></trkpt><trkpt lat="39.91705150933734" lon="15.83443147818405"><ele>534.0</ele><time>2026-04-26T12:39:28.999Z</time></trkpt><trkpt lat="39.91712961742531" lon="15.834305190103844"><ele>535.0</ele><time>2026-04-26T12:39:29.999Z</time></trkpt><trkpt lat="39.9171963650446" lon="15.83420541705854"><ele>536.0</ele><time>2026-04-26T12:39:30.999Z</time></trkpt><trkpt lat="39.91724936470458" lon="15.834088625619815"><ele>537.0</ele><time>2026-04-26T12:39:31.999Z</time></trkpt><trkpt lat="39.91727813271891" lon="15.833976596849125"><ele>538.0</ele><time>2026-04-26T12:39:32.999Z</time></trkpt><trkpt lat="39.917287753800935" lon="15.833817630494911"><ele>539.0</ele><time>2026-04-26T12:39:33.999Z</time></trkpt><trkpt lat="39.91728848966882" lon="15.833612053759875"><ele>537.3333333333333</ele><time>2026-04-26T12:39:34.999Z</time></trkpt><trkpt lat="39.91733029084272" lon="15.833414087540845"><ele>535.6666666666666</ele><time>2026-04-26T12:39:35.999Z</time></trkpt><trkpt lat="39.91740467262709" lon="15.833227010126988"><ele>534.0</ele><time>2026-04-26T12:39:36.999Z</time></trkpt><trkpt lat="39.91744231215512" lon="15.833061643896421"><ele>534.0</ele><time>2026-04-26T12:39:37.999Z</time></trkpt><trkpt lat="39.917441720403104" lon="15.832884602641828"><ele>534.0</ele><time>2026-04-26T12:39:38.999Z</time></trkpt><trkpt lat="39.91740900249371" lon="15.832695504908905"><ele>534.0</ele><time>2026-04-26T12:39:39.999Z</time></trkpt><trkpt lat="39.917359680116924" lon="15.83250622977054"><ele>534.0</ele><time>2026-04-26T12:39:40.999Z</time></trkpt><trkpt lat="39.91732269032759" lon="15.832326758805696"><ele>531.0</ele><time>2026-04-26T12:39:41.999Z</time></trkpt><trkpt lat="39.917294123225005" lon="15.832163447583358"><ele>528.0</ele><time>2026-04-26T12:39:42.999Z</time></trkpt><trkpt lat="39.917277973009696" lon="15.832010479440891"><ele>525.0</ele><time>2026-04-26T12:39:43.999Z</time></trkpt><trkpt lat="39.91730202029868" lon="15.831850387753018"><ele>522.0</ele><time>2026-04-26T12:39:44.999Z</time></trkpt><trkpt lat="39.917347868251376" lon="15.831672961843628"><ele>518.75</ele><time>2026-04-26T12:39:45.999Z</time></trkpt><trkpt lat="39.91738554061242" lon="15.831491449346142"><ele>515.5</ele><time>2026-04-26T12:39:46.999Z</time></trkpt><trkpt lat="39.917408518205676" lon="15.831304055594726"><ele>512.25</ele><time>2026-04-26T12:39:47.999Z</time></trkpt><trkpt lat="39.91743665514799" lon="15.83111683170037"><ele>509.0</ele><time>2026-04-26T12:39:48.999Z</time></trkpt><trkpt lat="39.91747508788992" lon="15.830932131970602"><ele>507.79999999999995</ele><time>2026-04-26T12:39:49.999Z</time></trkpt><trkpt lat="39.9175091807285" lon="15.830774861430477"><ele>506.59999999999997</ele><time>2026-04-26T12:39:50.999Z</time></trkpt><trkpt lat="39.91754053930157" lon="15.830636002274675"><ele>505.4</ele><time>2026-04-26T12:39:51.999Z</time></trkpt><trkpt lat="39.91757267684502" lon="15.83050945964502"><ele>504.2</ele><time>2026-04-26T12:39:52.999Z</time></trkpt><trkpt lat="39.91758011953212" lon="15.830373272782813"><ele>503.0</ele><time>2026-04-26T12:39:53.999Z</time></trkpt><trkpt lat="39.917549646793425" lon="15.830223289139997"><ele>501.2</ele><time>2026-04-26T12:39:54.999Z</time></trkpt><trkpt lat="39.917499044310674" lon="15.830067356572194"><ele>499.4</ele><time>2026-04-26T12:39:55.999Z</time></trkpt><trkpt lat="39.9174387944671" lon="15.829934531609858"><ele>497.59999999999997</ele><time>2026-04-26T12:39:56.999Z</time></trkpt><trkpt lat="39.917392538065066" lon="15.829834902338664"><ele>495.79999999999995</ele><time>2026-04-26T12:39:57.999Z</time></trkpt><trkpt lat="39.9173571876951" lon="15.82973864063236"><ele>494.0</ele><time>2026-04-26T12:39:58.999Z</time></trkpt><trkpt lat="39.917363338644826" lon="15.82961732513824"><ele>494.0</ele><time>2026-04-26T12:39:59.999Z</time></trkpt><trkpt lat="39.917447590851" lon="15.829507491669098"><ele>494.0</ele><time>2026-04-26T12:40:00.999Z</time></trkpt><trkpt lat="39.91748076242627" lon="15.829346899172"><ele>494.0</ele><time>2026-04-26T12:40:01.999Z</time></trkpt><trkpt lat="39.917510013946085" lon="15.829180251349793"><ele>494.0</ele><time>2026-04-26T12:40:02.999Z</time></trkpt><trkpt lat="39.917508339711006" lon="15.829000772670641"><ele>492.0</ele><time>2026-04-26T12:40:03.999Z</time></trkpt><trkpt lat="39.917521972306815" lon="15.828820321713858"><ele>490.0</ele><time>2026-04-26T12:40:04.999Z</time></trkpt><trkpt lat="39.917555976900005" lon="15.828637400154538"><ele>488.0</ele><time>2026-04-26T12:40:05.999Z</time></trkpt><trkpt lat="39.91761415653783" lon="15.828453603086357"><ele>486.0</ele><time>2026-04-26T12:40:06.999Z</time></trkpt><trkpt lat="39.91767587482173" lon="15.828276359620036"><ele>485.5</ele><time>2026-04-26T12:40:07.999Z</time></trkpt><trkpt lat="39.91771842064254" lon="15.828101085951973"><ele>485.0</ele><time>2026-04-26T12:40:08.999Z</time></trkpt><trkpt lat="39.91774985424113" lon="15.827930348869792"><ele>484.5</ele><time>2026-04-26T12:40:09.999Z</time></trkpt><trkpt lat="39.91777150474035" lon="15.827774850492716"><ele>484.0</ele><time>2026-04-26T12:40:10.999Z</time></trkpt><trkpt lat="39.91779086553098" lon="15.827644101379756"><ele>482.2</ele><time>2026-04-26T12:40:11.999Z</time></trkpt><trkpt lat="39.91783841872992" lon="15.827540177567744"><ele>480.4</ele><time>2026-04-26T12:40:12.999Z</time></trkpt><trkpt lat="39.917936062414704" lon="15.827469352762762"><ele>478.6</ele><time>2026-04-26T12:40:13.999Z</time></trkpt><trkpt lat="39.91800219529255" lon="15.82734750895544"><ele>476.8</ele><time>2026-04-26T12:40:14.999Z</time></trkpt><trkpt lat="39.918049536170216" lon="15.827197451154875"><ele>475.0</ele><time>2026-04-26T12:40:15.999Z</time></trkpt><trkpt lat="39.91807769223696" lon="15.827027108288954"><ele>475.0</ele><time>2026-04-26T12:40:16.999Z</time></trkpt><trkpt lat="39.91812594970293" lon="15.826875193717537"><ele>475.0</ele><time>2026-04-26T12:40:17.999Z</time></trkpt><trkpt lat="39.91820687900824" lon="15.826734877109011"><ele>475.0</ele><time>2026-04-26T12:40:18.999Z</time></trkpt><trkpt lat="39.9182907080233" lon="15.826583414408088"><ele>475.0</ele><time>2026-04-26T12:40:19.999Z</time></trkpt><trkpt lat="39.91835372587623" lon="15.826402216838748"><ele>474.0</ele><time>2026-04-26T12:40:20.999Z</time></trkpt><trkpt lat="39.91839121023259" lon="15.826222154053728"><ele>473.0</ele><time>2026-04-26T12:40:21.999Z</time></trkpt><trkpt lat="39.918433558455995" lon="15.826054916876735"><ele>472.0</ele><time>2026-04-26T12:40:22.999Z</time></trkpt><trkpt lat="39.9184975363295" lon="15.82589899679985"><ele>471.0</ele><time>2026-04-26T12:40:23.999Z</time></trkpt><trkpt lat="39.91858408043441" lon="15.825756683962373"><ele>468.25</ele><time>2026-04-26T12:40:24.999Z</time></trkpt><trkpt lat="39.918687635556076" lon="15.825616411229662"><ele>465.5</ele><time>2026-04-26T12:40:25.999Z</time></trkpt><trkpt lat="39.91878496444634" lon="15.825472285167596"><ele>462.75</ele><time>2026-04-26T12:40:26.999Z</time></trkpt><trkpt lat="39.91887792866504" lon="15.825329657947307"><ele>460.0</ele><time>2026-04-26T12:40:27.999Z</time></trkpt><trkpt lat="39.91898348347115" lon="15.825206134053104"><ele>457.75</ele><time>2026-04-26T12:40:29Z</time></trkpt><trkpt lat="39.91910193374854" lon="15.825093112647979"><ele>455.5</ele><time>2026-04-26T12:40:30Z</time></trkpt><trkpt lat="39.919218760966" lon="15.824991152678148"><ele>453.25</ele><time>2026-04-26T12:40:31Z</time></trkpt><trkpt lat="39.91932675334643" lon="15.8248806259104"><ele>451.0</ele><time>2026-04-26T12:40:32Z</time></trkpt><trkpt lat="39.91942585613629" lon="15.82476193840164"><ele>450.83333333333337</ele><time>2026-04-26T12:40:33Z</time></trkpt><trkpt lat="39.919523379574855" lon="15.824654753539479"><ele>450.6666666666667</ele><time>2026-04-26T12:40:34Z</time></trkpt><trkpt lat="39.91960655362632" lon="15.824576501478843"><ele>450.5</ele><time>2026-04-26T12:40:35Z</time></trkpt><trkpt lat="39.91966663907333" lon="15.824512243416786"><ele>450.33333333333337</ele><time>2026-04-26T12:40:36Z</time></trkpt><trkpt lat="39.91970102683285" lon="15.824435327303808"><ele>450.1666666666667</ele><time>2026-04-26T12:40:37Z</time></trkpt><trkpt lat="39.91971234959833" lon="15.824345099558398"><ele>450.0</ele><time>2026-04-26T12:40:38Z</time></trkpt><trkpt lat="39.919725001058076" lon="15.824259719854952"><ele>448.0</ele><time>2026-04-26T12:40:39Z</time></trkpt><trkpt lat="39.91978533896828" lon="15.8241725734452"><ele>446.0</ele><time>2026-04-26T12:40:40Z</time></trkpt><trkpt lat="39.91987945899996" lon="15.824089990702914"><ele>444.0</ele><time>2026-04-26T12:40:41Z</time></trkpt><trkpt lat="39.91999441362337" lon="15.824016798373194"><ele>442.0</ele><time>2026-04-26T12:40:42Z</time></trkpt><trkpt lat="39.92010321760154" lon="15.82395517445152"><ele>440.6</ele><time>2026-04-26T12:40:43Z</time></trkpt><trkpt lat="39.92020973552353" lon="15.823895847066721"><ele>439.20000000000005</ele><time>2026-04-26T12:40:44Z</time></trkpt><trkpt lat="39.920310849715925" lon="15.823862805705112"><ele>437.8</ele><time>2026-04-26T12:40:45Z</time></trkpt><trkpt lat="39.92039262038317" lon="15.823833419180119"><ele>436.4</ele><time>2026-04-26T12:40:46Z</time></trkpt><trkpt lat="39.920473521600734" lon="15.823829265359151"><ele>435.0</ele><time>2026-04-26T12:40:47Z</time></trkpt><trkpt lat="39.920562642158195" lon="15.82380545950814"><ele>435.0</ele><time>2026-04-26T12:40:49Z</time></trkpt><trkpt lat="39.92052984358456" lon="15.823719861741468"><ele>435.0</ele><time>2026-04-26T12:40:50Z</time></trkpt><trkpt lat="39.92051666443458" lon="15.823624711920283"><ele>435.0</ele><time>2026-04-26T12:40:51Z</time></trkpt><trkpt lat="39.92048815356675" lon="15.823524158604496"><ele>435.0</ele><time>2026-04-26T12:40:52Z</time></trkpt><trkpt lat="39.920448047029055" lon="15.823403588071631"><ele>435.0</ele><time>2026-04-26T12:40:53Z</time></trkpt><trkpt lat="39.92040468080334" lon="15.823252295271761"><ele>436.25</ele><time>2026-04-26T12:40:54Z</time></trkpt><trkpt lat="39.92033665655089" lon="15.823097139789436"><ele>437.5</ele><time>2026-04-26T12:40:55Z</time></trkpt><trkpt lat="39.92025372429663" lon="15.82295498138499"><ele>438.75</ele><time>2026-04-26T12:40:56Z</time></trkpt><trkpt lat="39.92015785201795" lon="15.8228230395115"><ele>440.0</ele><time>2026-04-26T12:40:57Z</time></trkpt><trkpt lat="39.920055228952094" lon="15.822686119848846"><ele>443.0</ele><time>2026-04-26T12:40:58Z</time></trkpt><trkpt lat="39.919967136898315" lon="15.822560235555608"><ele>446.0</ele><time>2026-04-26T12:40:59Z</time></trkpt><trkpt lat="39.91988364460474" lon="15.82241189611988"><ele>449.0</ele><time>2026-04-26T12:41:00Z</time></trkpt><trkpt lat="39.91983221499784" lon="15.822270460947143"><ele>452.0</ele><time>2026-04-26T12:41:01Z</time></trkpt><trkpt lat="39.91979610130497" lon="15.822138041757746"><ele>452.0</ele><time>2026-04-26T12:41:02Z</time></trkpt><trkpt lat="39.919784292339436" lon="15.82199527604638"><ele>452.0</ele><time>2026-04-26T12:41:03Z</time></trkpt><trkpt lat="39.91981582791626" lon="15.8218509475744"><ele>452.0</ele><time>2026-04-26T12:41:04Z</time></trkpt><trkpt lat="39.91987580748824" lon="15.82171150972878"><ele>452.0</ele><time>2026-04-26T12:41:05Z</time></trkpt><trkpt lat="39.919947635310564" lon="15.821576257295115"><ele>454.5</ele><time>2026-04-26T12:41:06Z</time></trkpt><trkpt lat="39.92003326653928" lon="15.821425245338263"><ele>457.0</ele><time>2026-04-26T12:41:07Z</time></trkpt><trkpt lat="39.920148295759866" lon="15.821313283566207"><ele>459.5</ele><time>2026-04-26T12:41:08Z</time></trkpt><trkpt lat="39.92023087448838" lon="15.821209818533369"><ele>462.0</ele><time>2026-04-26T12:41:09Z</time></trkpt><trkpt lat="39.92027854064916" lon="15.821081473552136"><ele>463.75</ele><time>2026-04-26T12:41:10Z</time></trkpt><trkpt lat="39.920281712477966" lon="15.820920643496535"><ele>465.5</ele><time>2026-04-26T12:41:11Z</time></trkpt><trkpt lat="39.92024023356676" lon="15.82076684898047"><ele>467.25</ele><time>2026-04-26T12:41:12Z</time></trkpt><trkpt lat="39.920193466718914" lon="15.820608128293472"><ele>469.0</ele><time>2026-04-26T12:41:13Z</time></trkpt><trkpt lat="39.92015295169632" lon="15.820456623228095"><ele>469.0</ele><time>2026-04-26T12:41:14Z</time></trkpt><trkpt lat="39.92011016324417" lon="15.82029920533275"><ele>469.0</ele><time>2026-04-26T12:41:15Z</time></trkpt><trkpt lat="39.920122354887134" lon="15.820134058977375"><ele>469.0</ele><time>2026-04-26T12:41:16Z</time></trkpt><trkpt lat="39.92017223850663" lon="15.819975411380177"><ele>469.0</ele><time>2026-04-26T12:41:17Z</time></trkpt><trkpt lat="39.92025188997095" lon="15.81982549177916"><ele>472.6666666666667</ele><time>2026-04-26T12:41:18Z</time></trkpt><trkpt lat="39.920346443675605" lon="15.819685097285802"><ele>476.33333333333337</ele><time>2026-04-26T12:41:19Z</time></trkpt><trkpt lat="39.92046299571724" lon="15.81955759088868"><ele>480.0</ele><time>2026-04-26T12:41:20Z</time></trkpt><trkpt lat="39.92060079258749" lon="15.819449449046163"><ele>480.0</ele><time>2026-04-26T12:41:21Z</time></trkpt><trkpt lat="39.92075255347251" lon="15.819349245976257"><ele>480.0</ele><time>2026-04-26T12:41:22Z</time></trkpt><trkpt lat="39.92088335593185" lon="15.819256889848491"><ele>480.0</ele><time>2026-04-26T12:41:23Z</time></trkpt><trkpt lat="39.92099923136349" lon="15.819170853011801"><ele>482.0</ele><time>2026-04-26T12:41:24Z</time></trkpt><trkpt lat="39.9211096399912" lon="15.81910596667924"><ele>484.0</ele><time>2026-04-26T12:41:25Z</time></trkpt><trkpt lat="39.92122662921679" lon="15.819045286097182"><ele>486.0</ele><time>2026-04-26T12:41:25.999Z</time></trkpt><trkpt lat="39.92131664092763" lon="15.818976569157009"><ele>488.0</ele><time>2026-04-26T12:41:26.999Z</time></trkpt><trkpt lat="39.921403985293914" lon="15.818885931873456"><ele>488.0</ele><time>2026-04-26T12:41:27.999Z</time></trkpt><trkpt lat="39.921489577843694" lon="15.818788027012017"><ele>488.0</ele><time>2026-04-26T12:41:28.999Z</time></trkpt><trkpt lat="39.92155598392047" lon="15.818668732006412"><ele>488.0</ele><time>2026-04-26T12:41:29.999Z</time></trkpt><trkpt lat="39.92160754419992" lon="15.818517751439801"><ele>488.0</ele><time>2026-04-26T12:41:30.999Z</time></trkpt><trkpt lat="39.92163578692631" lon="15.818351174921512"><ele>491.0</ele><time>2026-04-26T12:41:31.999Z</time></trkpt><trkpt lat="39.92163659392202" lon="15.818186308479955"><ele>494.0</ele><time>2026-04-26T12:41:32.999Z</time></trkpt><trkpt lat="39.92160886234209" lon="15.818028393467785"><ele>497.0</ele><time>2026-04-26T12:41:33.999Z</time></trkpt><trkpt lat="39.92158747791289" lon="15.817896550075195"><ele>500.0</ele><time>2026-04-26T12:41:34.999Z</time></trkpt><trkpt lat="39.9216006302913" lon="15.81776223218074"><ele>503.5</ele><time>2026-04-26T12:41:35.999Z</time></trkpt><trkpt lat="39.921645788796674" lon="15.817624691135133"><ele>507.0</ele><time>2026-04-26T12:41:36.999Z</time></trkpt><trkpt lat="39.92171943570199" lon="15.817508177970458"><ele>510.5</ele><time>2026-04-26T12:41:37.999Z</time></trkpt><trkpt lat="39.92181684200113" lon="15.81743078611297"><ele>514.0</ele><time>2026-04-26T12:41:38.999Z</time></trkpt><trkpt lat="39.921924697942465" lon="15.817349147021035"><ele>514.0</ele><time>2026-04-26T12:41:39.999Z</time></trkpt><trkpt lat="39.92200233026332" lon="15.817238392686932"><ele>514.0</ele><time>2026-04-26T12:41:40.999Z</time></trkpt><trkpt lat="39.9220583788538" lon="15.817090088623551"><ele>514.0</ele><time>2026-04-26T12:41:41.999Z</time></trkpt><trkpt lat="39.92208579787641" lon="15.816913873928039"><ele>514.0</ele><time>2026-04-26T12:41:42.999Z</time></trkpt><trkpt lat="39.92211755405798" lon="15.816750743725128"><ele>516.0</ele><time>2026-04-26T12:41:43.999Z</time></trkpt><trkpt lat="39.922178004356304" lon="15.816627849182625"><ele>518.0</ele><time>2026-04-26T12:41:44.999Z</time></trkpt><trkpt lat="39.92225216813687" lon="15.816535856448677"><ele>520.0</ele><time>2026-04-26T12:41:45.999Z</time></trkpt><trkpt lat="39.92230494064164" lon="15.816466470722517"><ele>522.0</ele><time>2026-04-26T12:41:46.999Z</time></trkpt><trkpt lat="39.92231073562596" lon="15.816383267673924"><ele>524.0</ele><time>2026-04-26T12:41:47.999Z</time></trkpt><trkpt lat="39.92225682643017" lon="15.816297513919306"><ele>526.0</ele><time>2026-04-26T12:41:48.999Z</time></trkpt><trkpt lat="39.92217247054475" lon="15.81621639883736"><ele>526.0</ele><time>2026-04-26T12:41:49.999Z</time></trkpt><trkpt lat="39.922107403753266" lon="15.81613446934479"><ele>526.0</ele><time>2026-04-26T12:41:50.999Z</time></trkpt><trkpt lat="39.922089462491016" lon="15.816046364183027"><ele>526.0</ele><time>2026-04-26T12:41:51.999Z</time></trkpt><trkpt lat="39.922128987264244" lon="15.815927216810795"><ele>526.0</ele><time>2026-04-26T12:41:53.999Z</time></trkpt><trkpt lat="39.922155617267386" lon="15.815756966252062"><ele>526.0</ele><time>2026-04-26T12:41:56.999Z</time></trkpt><trkpt lat="39.922125736077774" lon="15.815609724400847"><ele>524.75</ele><time>2026-04-26T12:41:57.999Z</time></trkpt><trkpt lat="39.92205645247318" lon="15.815447066591215"><ele>523.5</ele><time>2026-04-26T12:41:58.999Z</time></trkpt><trkpt lat="39.921985630204716" lon="15.81531372922219"><ele>522.25</ele><time>2026-04-26T12:41:59.999Z</time></trkpt><trkpt lat="39.92192446046318" lon="15.815205679003212"><ele>521.0</ele><time>2026-04-26T12:42:00.999Z</time></trkpt><trkpt lat="39.9218686305246" lon="15.815117236702207"><ele>521.0</ele><time>2026-04-26T12:42:01.999Z</time></trkpt><trkpt lat="39.921828000063584" lon="15.81505194236947"><ele>521.0</ele><time>2026-04-26T12:42:02.999Z</time></trkpt><trkpt lat="39.92169328040687" lon="15.81510630456194"><ele>521.0</ele><time>2026-04-26T12:42:07.999Z</time></trkpt><trkpt lat="39.921732357528306" lon="15.815191403474614"><ele>521.0</ele><time>2026-04-26T12:42:08.999Z</time></trkpt><trkpt lat="39.92177309321995" lon="15.815301194365263"><ele>521.0</ele><time>2026-04-26T12:42:09.999Z</time></trkpt><trkpt lat="39.921834267018184" lon="15.815429712533126"><ele>521.0</ele><time>2026-04-26T12:42:10.999Z</time></trkpt><trkpt lat="39.921890601956" lon="15.815523395547284"><ele>521.0</ele><time>2026-04-26T12:42:11.999Z</time></trkpt><trkpt lat="39.92192664947825" lon="15.81560490541756"><ele>521.0</ele><time>2026-04-26T12:42:12.999Z</time></trkpt><trkpt lat="39.9218939769525" lon="15.815690906337087"><ele>521.0</ele><time>2026-04-26T12:42:14.999Z</time></trkpt><trkpt lat="39.92181275015293" lon="15.815710541793239"><ele>521.0</ele><time>2026-04-26T12:42:16.999Z</time></trkpt><trkpt lat="39.92173836045454" lon="15.81565138118904"><ele>521.0</ele><time>2026-04-26T12:42:17.999Z</time></trkpt><trkpt lat="39.92165907743887" lon="15.81560745362765"><ele>521.8</ele><time>2026-04-26T12:42:18.999Z</time></trkpt><trkpt lat="39.92157158570997" lon="15.81561887184495"><ele>522.6</ele><time>2026-04-26T12:42:19.999Z</time></trkpt><trkpt lat="39.92148316998291" lon="15.815676240539215"><ele>523.4</ele><time>2026-04-26T12:42:20.999Z</time></trkpt><trkpt lat="39.92139428312519" lon="15.815753604618022"><ele>524.2</ele><time>2026-04-26T12:42:21.999Z</time></trkpt><trkpt lat="39.92131296063124" lon="15.815828663394946"><ele>525.0</ele><time>2026-04-26T12:42:22.999Z</time></trkpt><trkpt lat="39.921291161290654" lon="15.81598886042821"><ele>525.0</ele><time>2026-04-26T12:42:23.999Z</time></trkpt><trkpt lat="39.92123333141952" lon="15.816099946249372"><ele>525.0</ele><time>2026-04-26T12:42:24.999Z</time></trkpt><trkpt lat="39.92118093696592" lon="15.816177605221986"><ele>525.0</ele><time>2026-04-26T12:42:25.999Z</time></trkpt><trkpt lat="39.92110899260191" lon="15.816237967422513"><ele>525.0</ele><time>2026-04-26T12:42:26.999Z</time></trkpt><trkpt lat="39.921045993818964" lon="15.816307349866165"><ele>525.0</ele><time>2026-04-26T12:42:27.999Z</time></trkpt><trkpt lat="39.920989374568904" lon="15.816388767055662"><ele>525.0</ele><time>2026-04-26T12:42:28.999Z</time></trkpt><trkpt lat="39.92093262118402" lon="15.816467493322499"><ele>528.1666666666666</ele><time>2026-04-26T12:42:29.999Z</time></trkpt><trkpt lat="39.92088260517743" lon="15.816530634349748"><ele>531.3333333333334</ele><time>2026-04-26T12:42:30.999Z</time></trkpt><trkpt lat="39.92077741948007" lon="15.816534829137483"><ele>534.5</ele><time>2026-04-26T12:42:32.999Z</time></trkpt><trkpt lat="39.92074073543202" lon="15.816458734664986"><ele>537.6666666666667</ele><time>2026-04-26T12:42:33.999Z</time></trkpt><trkpt lat="39.920763951000524" lon="15.816345798224086"><ele>540.8333333333334</ele><time>2026-04-26T12:42:35Z</time></trkpt><trkpt lat="39.92077823770128" lon="15.816200602653272"><ele>544.0</ele><time>2026-04-26T12:42:36Z</time></trkpt><trkpt lat="39.92079238996705" lon="15.816016362233174"><ele>549.0</ele><time>2026-04-26T12:42:37Z</time></trkpt><trkpt lat="39.920795550477436" lon="15.815792761615812"><ele>554.0</ele><time>2026-04-26T12:42:38Z</time></trkpt><trkpt lat="39.920814653492585" lon="15.815567206383886"><ele>559.0</ele><time>2026-04-26T12:42:39Z</time></trkpt><trkpt lat="39.92081871005927" lon="15.815378354549763"><ele>559.0</ele><time>2026-04-26T12:42:40Z</time></trkpt><trkpt lat="39.92080154846142" lon="15.815234370160939"><ele>559.0</ele><time>2026-04-26T12:42:41Z</time></trkpt><trkpt lat="39.920783822621004" lon="15.815091715417768"><ele>559.0</ele><time>2026-04-26T12:42:42Z</time></trkpt><trkpt lat="39.92073398749007" lon="15.814914562602752"><ele>559.0</ele><time>2026-04-26T12:42:43Z</time></trkpt><trkpt lat="39.920670222148075" lon="15.814760596695677"><ele>559.0</ele><time>2026-04-26T12:42:44Z</time></trkpt><trkpt lat="39.9206110746806" lon="15.814613329177476"><ele>559.0</ele><time>2026-04-26T12:42:45Z</time></trkpt><trkpt lat="39.92053126831713" lon="15.814448534843683"><ele>559.0</ele><time>2026-04-26T12:42:46Z</time></trkpt><trkpt lat="39.920441025482134" lon="15.814311227681848"><ele>559.0</ele><time>2026-04-26T12:42:47Z</time></trkpt><trkpt lat="39.920346708172154" lon="15.81418740790423"><ele>559.0</ele><time>2026-04-26T12:42:48Z</time></trkpt><trkpt lat="39.9202570595943" lon="15.814056782237914"><ele>559.0</ele><time>2026-04-26T12:42:49Z</time></trkpt><trkpt lat="39.92016509346451" lon="15.813916795973455"><ele>559.0</ele><time>2026-04-26T12:42:50Z</time></trkpt><trkpt lat="39.9200629671549" lon="15.813769093365753"><ele>559.0</ele><time>2026-04-26T12:42:51Z</time></trkpt><trkpt lat="39.91995457594099" lon="15.813620018813365"><ele>565.6666666666667</ele><time>2026-04-26T12:42:52Z</time></trkpt><trkpt lat="39.91984739008007" lon="15.813470871483919"><ele>572.3333333333334</ele><time>2026-04-26T12:42:53Z</time></trkpt><trkpt lat="39.91975427418408" lon="15.813322643837685"><ele>579.0</ele><time>2026-04-26T12:42:54Z</time></trkpt><trkpt lat="39.91968160351604" lon="15.813157370678342"><ele>579.0</ele><time>2026-04-26T12:42:55Z</time></trkpt><trkpt lat="39.91960898501107" lon="15.812970832803941"><ele>579.0</ele><time>2026-04-26T12:42:56Z</time></trkpt><trkpt lat="39.91955589032959" lon="15.81277284128015"><ele>579.0</ele><time>2026-04-26T12:42:57Z</time></trkpt><trkpt lat="39.91947963075858" lon="15.812635714559148"><ele>579.3333333333334</ele><time>2026-04-26T12:42:58Z</time></trkpt><trkpt lat="39.919443310432186" lon="15.812528604373487"><ele>579.6666666666666</ele><time>2026-04-26T12:42:59Z</time></trkpt><trkpt lat="39.91941792114904" lon="15.812451829420707"><ele>580.0</ele><time>2026-04-26T12:43:00Z</time></trkpt><trkpt lat="39.91936943863951" lon="15.812370082924046"><ele>580.3333333333333</ele><time>2026-04-26T12:43:02Z</time></trkpt><trkpt lat="39.91928472151799" lon="15.812385232083487"><ele>580.6666666666666</ele><time>2026-04-26T12:43:04Z</time></trkpt><trkpt lat="39.919251955432344" lon="15.812455587149687"><ele>581.0</ele><time>2026-04-26T12:43:05Z</time></trkpt><trkpt lat="39.91928492074686" lon="15.812570490065998"><ele>580.6</ele><time>2026-04-26T12:43:06Z</time></trkpt><trkpt lat="39.91935653969821" lon="15.812671358449522"><ele>580.2</ele><time>2026-04-26T12:43:07Z</time></trkpt><trkpt lat="39.919386213597605" lon="15.812773229629183"><ele>579.8</ele><time>2026-04-26T12:43:08Z</time></trkpt><trkpt lat="39.9193887033204" lon="15.812895339001967"><ele>579.4</ele><time>2026-04-26T12:43:09Z</time></trkpt><trkpt lat="39.919398734766546" lon="15.813054523706631"><ele>579.0</ele><time>2026-04-26T12:43:10Z</time></trkpt><trkpt lat="39.9194038421231" lon="15.813215623394413"><ele>579.0</ele><time>2026-04-26T12:43:11Z</time></trkpt><trkpt lat="39.91939378905798" lon="15.813366274156182"><ele>579.0</ele><time>2026-04-26T12:43:12Z</time></trkpt><trkpt lat="39.919384745631035" lon="15.813508771252314"><ele>579.0</ele><time>2026-04-26T12:43:13Z</time></trkpt><trkpt lat="39.919386258314056" lon="15.813642147650997"><ele>579.0</ele><time>2026-04-26T12:43:14Z</time></trkpt><trkpt lat="39.919429093571715" lon="15.813773718109701"><ele>579.0</ele><time>2026-04-26T12:43:15Z</time></trkpt><trkpt lat="39.91946312511404" lon="15.81390234323684"><ele>581.2</ele><time>2026-04-26T12:43:16Z</time></trkpt><trkpt lat="39.91953260550489" lon="15.814047227881732"><ele>583.4</ele><time>2026-04-26T12:43:17Z</time></trkpt><trkpt lat="39.919644968487546" lon="15.814118485297433"><ele>585.6</ele><time>2026-04-26T12:43:18Z</time></trkpt><trkpt lat="39.91970757412776" lon="15.814215665125003"><ele>587.8</ele><time>2026-04-26T12:43:19Z</time></trkpt><trkpt lat="39.9197109681505" lon="15.814315504348142"><ele>590.0</ele><time>2026-04-26T12:43:20Z</time></trkpt><trkpt lat="39.91973421489168" lon="15.8144628342167"><ele>592.0</ele><time>2026-04-26T12:43:21Z</time></trkpt><trkpt lat="39.91974988366631" lon="15.814600949999903"><ele>594.0</ele><time>2026-04-26T12:43:22Z</time></trkpt><trkpt lat="39.919734451389445" lon="15.81470340964424"><ele>596.0</ele><time>2026-04-26T12:43:23Z</time></trkpt><trkpt lat="39.91971784227927" lon="15.814787755901815"><ele>598.0</ele><time>2026-04-26T12:43:24Z</time></trkpt><trkpt lat="39.919673598372896" lon="15.814878171151937"><ele>600.0</ele><time>2026-04-26T12:43:25Z</time></trkpt><trkpt lat="39.91959880899905" lon="15.81500316860527"><ele>600.0</ele><time>2026-04-26T12:43:26Z</time></trkpt><trkpt lat="39.91950562472784" lon="15.815120209615394"><ele>600.0</ele><time>2026-04-26T12:43:27Z</time></trkpt><trkpt lat="39.91941778806744" lon="15.815204253752535"><ele>600.0</ele><time>2026-04-26T12:43:28Z</time></trkpt><trkpt lat="39.91931906138376" lon="15.815261495799675"><ele>600.0</ele><time>2026-04-26T12:43:29Z</time></trkpt><trkpt lat="39.91919285324772" lon="15.815315273588647"><ele>600.2</ele><time>2026-04-26T12:43:30Z</time></trkpt><trkpt lat="39.91907164426571" lon="15.815363253858246"><ele>600.4</ele><time>2026-04-26T12:43:30.999Z</time></trkpt><trkpt lat="39.91894835948993" lon="15.815404727593888"><ele>600.6</ele><time>2026-04-26T12:43:31.999Z</time></trkpt><trkpt lat="39.918846767877724" lon="15.815427041999403"><ele>600.8</ele><time>2026-04-26T12:43:32.999Z</time></trkpt><trkpt lat="39.91875601044685" lon="15.815426496280013"><ele>601.0</ele><time>2026-04-26T12:43:33.999Z</time></trkpt><trkpt lat="39.91867636767169" lon="15.815365480299493"><ele>601.0</ele><time>2026-04-26T12:43:34.999Z</time></trkpt><trkpt lat="39.91859255038127" lon="15.81526196157198"><ele>601.0</ele><time>2026-04-26T12:43:35.999Z</time></trkpt><trkpt lat="39.91850944868001" lon="15.815153713164845"><ele>601.0</ele><time>2026-04-26T12:43:36.999Z</time></trkpt><trkpt lat="39.9184293856027" lon="15.81509570488019"><ele>601.0</ele><time>2026-04-26T12:43:37.999Z</time></trkpt><trkpt lat="39.91834307819253" lon="15.815088203357082"><ele>601.0</ele><time>2026-04-26T12:43:38.999Z</time></trkpt><trkpt lat="39.918267615159294" lon="15.815105642098938"><ele>604.4</ele><time>2026-04-26T12:43:39.999Z</time></trkpt><trkpt lat="39.91820108444031" lon="15.815152736461076"><ele>607.8</ele><time>2026-04-26T12:43:40.999Z</time></trkpt><trkpt lat="39.91813876277965" lon="15.815234840702455"><ele>611.1999999999999</ele><time>2026-04-26T12:43:41.999Z</time></trkpt><trkpt lat="39.91808941870988" lon="15.81533279431485"><ele>614.6</ele><time>2026-04-26T12:43:42.999Z</time></trkpt><trkpt lat="39.918040964191434" lon="15.815452918230728"><ele>618.0</ele><time>2026-04-26T12:43:43.999Z</time></trkpt><trkpt lat="39.917952345015095" lon="15.815569372212382"><ele>618.0</ele><time>2026-04-26T12:43:44.999Z</time></trkpt><trkpt lat="39.917861289113254" lon="15.815700326882443"><ele>618.0</ele><time>2026-04-26T12:43:45.999Z</time></trkpt><trkpt lat="39.917799924070444" lon="15.815827740540668"><ele>618.0</ele><time>2026-04-26T12:43:46.999Z</time></trkpt><trkpt lat="39.91771797092387" lon="15.815910230440315"><ele>618.0</ele><time>2026-04-26T12:43:47.999Z</time></trkpt><trkpt lat="39.91764723536091" lon="15.815983475593196"><ele>618.0</ele><time>2026-04-26T12:43:48.999Z</time></trkpt><trkpt lat="39.917565275750675" lon="15.816014729947275"><ele>619.0</ele><time>2026-04-26T12:43:49.999Z</time></trkpt><trkpt lat="39.91748287984853" lon="15.816035824854374"><ele>620.0</ele><time>2026-04-26T12:43:50.999Z</time></trkpt><trkpt lat="39.91736386774902" lon="15.816075029346441"><ele>621.0</ele><time>2026-04-26T12:43:51.999Z</time></trkpt><trkpt lat="39.917199378815475" lon="15.816075144567789"><ele>622.0</ele><time>2026-04-26T12:43:52.999Z</time></trkpt><trkpt lat="39.917046941990115" lon="15.816083954295882"><ele>622.0</ele><time>2026-04-26T12:43:53.999Z</time></trkpt><trkpt lat="39.9169278271231" lon="15.816101606948964"><ele>622.0</ele><time>2026-04-26T12:43:54.999Z</time></trkpt><trkpt lat="39.916847265048894" lon="15.816131649467183"><ele>622.0</ele><time>2026-04-26T12:43:55.999Z</time></trkpt><trkpt lat="39.91676226986503" lon="15.816184138160542"><ele>622.0</ele><time>2026-04-26T12:43:56.999Z</time></trkpt><trkpt lat="39.91668458432671" lon="15.816237420937512"><ele>622.0</ele><time>2026-04-26T12:43:57.999Z</time></trkpt><trkpt lat="39.916614853079686" lon="15.81626236165573"><ele>625.0</ele><time>2026-04-26T12:43:58.999Z</time></trkpt><trkpt lat="39.9165413059738" lon="15.816292316416904"><ele>628.0</ele><time>2026-04-26T12:43:59.999Z</time></trkpt><trkpt lat="39.91644214747657" lon="15.816250743585494"><ele>631.0</ele><time>2026-04-26T12:44:00.999Z</time></trkpt><trkpt lat="39.91633662188872" lon="15.816178871281386"><ele>634.0</ele><time>2026-04-26T12:44:01.999Z</time></trkpt><trkpt lat="39.9162422124475" lon="15.816082362262627"><ele>637.0</ele><time>2026-04-26T12:44:02.999Z</time></trkpt><trkpt lat="39.9161830362481" lon="15.81594349151034"><ele>640.5</ele><time>2026-04-26T12:44:03.999Z</time></trkpt><trkpt lat="39.91611985076792" lon="15.815804201105264"><ele>644.0</ele><time>2026-04-26T12:44:04.999Z</time></trkpt><trkpt lat="39.91603104243466" lon="15.815703388836354"><ele>647.5</ele><time>2026-04-26T12:44:05.999Z</time></trkpt><trkpt lat="39.91591963077436" lon="15.815604773448033"><ele>651.0</ele><time>2026-04-26T12:44:06.999Z</time></trkpt><trkpt lat="39.91580841291093" lon="15.815494187265259"><ele>651.0</ele><time>2026-04-26T12:44:07.999Z</time></trkpt><trkpt lat="39.91570486358111" lon="15.815391504033952"><ele>651.0</ele><time>2026-04-26T12:44:08.999Z</time></trkpt><trkpt lat="39.915585001671936" lon="15.815318172881181"><ele>651.0</ele><time>2026-04-26T12:44:09.999Z</time></trkpt><trkpt lat="39.915458124960075" lon="15.81528828665708"><ele>651.0</ele><time>2026-04-26T12:44:10.999Z</time></trkpt><trkpt lat="39.91531356399422" lon="15.8152740771439"><ele>651.0</ele><time>2026-04-26T12:44:11.999Z</time></trkpt><trkpt lat="39.915179431242585" lon="15.815253155962548"><ele>651.0</ele><time>2026-04-26T12:44:12.999Z</time></trkpt><trkpt lat="39.9150671313928" lon="15.815241624162017"><ele>651.0</ele><time>2026-04-26T12:44:13.999Z</time></trkpt><trkpt lat="39.9149802912641" lon="15.815236509359586"><ele>651.0</ele><time>2026-04-26T12:44:14.999Z</time></trkpt><trkpt lat="39.914863326554745" lon="15.815302361355034"><ele>651.0</ele><time>2026-04-26T12:44:16.999Z</time></trkpt><trkpt lat="39.914792637613985" lon="15.815402773592988"><ele>651.0</ele><time>2026-04-26T12:44:17.999Z</time></trkpt><trkpt lat="39.91471299736967" lon="15.815492241444685"><ele>651.0</ele><time>2026-04-26T12:44:18.999Z</time></trkpt><trkpt lat="39.91460980508447" lon="15.815560981549014"><ele>651.0</ele><time>2026-04-26T12:44:19.999Z</time></trkpt><trkpt lat="39.91446061132717" lon="15.81563664037067"><ele>651.0</ele><time>2026-04-26T12:44:20.999Z</time></trkpt><trkpt lat="39.914302817981074" lon="15.815754527765755"><ele>651.0</ele><time>2026-04-26T12:44:21.999Z</time></trkpt><trkpt lat="39.91417621599785" lon="15.815858184764304"><ele>651.0</ele><time>2026-04-26T12:44:22.999Z</time></trkpt><trkpt lat="39.914064842773506" lon="15.815953822142935"><ele>649.0</ele><time>2026-04-26T12:44:23.999Z</time></trkpt><trkpt lat="39.91396294486729" lon="15.81604881254019"><ele>647.0</ele><time>2026-04-26T12:44:24.999Z</time></trkpt><trkpt lat="39.91385831800047" lon="15.81612400089828"><ele>645.0</ele><time>2026-04-26T12:44:25.999Z</time></trkpt><trkpt lat="39.91374925549162" lon="15.816123142828022"><ele>643.0</ele><time>2026-04-26T12:44:26.999Z</time></trkpt><trkpt lat="39.913633869563924" lon="15.816102897840684"><ele>643.0</ele><time>2026-04-26T12:44:27.999Z</time></trkpt><trkpt lat="39.91348751051712" lon="15.816079388416329"><ele>643.0</ele><time>2026-04-26T12:44:28.999Z</time></trkpt><trkpt lat="39.9133527296495" lon="15.816019738868562"><ele>643.0</ele><time>2026-04-26T12:44:29.999Z</time></trkpt><trkpt lat="39.9132304830781" lon="15.815939454867626"><ele>643.0</ele><time>2026-04-26T12:44:30.999Z</time></trkpt><trkpt lat="39.91311847566652" lon="15.815836231321905"><ele>649.75</ele><time>2026-04-26T12:44:31.999Z</time></trkpt><trkpt lat="39.91302104917583" lon="15.815732650080893"><ele>656.5</ele><time>2026-04-26T12:44:32.999Z</time></trkpt><trkpt lat="39.91294872635503" lon="15.815625403220492"><ele>663.25</ele><time>2026-04-26T12:44:33.999Z</time></trkpt><trkpt lat="39.91288065103428" lon="15.815493560014803"><ele>670.0</ele><time>2026-04-26T12:44:34.999Z</time></trkpt><trkpt lat="39.91280197178674" lon="15.815337568322546"><ele>670.0</ele><time>2026-04-26T12:44:35.999Z</time></trkpt><trkpt lat="39.91272849254499" lon="15.815189111309419"><ele>670.0</ele><time>2026-04-26T12:44:36.999Z</time></trkpt><trkpt lat="39.91266558257972" lon="15.81505987040329"><ele>670.0</ele><time>2026-04-26T12:44:37.999Z</time></trkpt><trkpt lat="39.91259882201957" lon="15.81494176573679"><ele>670.0</ele><time>2026-04-26T12:44:38.999Z</time></trkpt><trkpt lat="39.91253072693042" lon="15.814836601052802"><ele>668.6</ele><time>2026-04-26T12:44:40Z</time></trkpt><trkpt lat="39.91247207386087" lon="15.814755831747421"><ele>667.2</ele><time>2026-04-26T12:44:41Z</time></trkpt><trkpt lat="39.912364113475434" lon="15.814708602326421"><ele>665.8</ele><time>2026-04-26T12:44:43Z</time></trkpt><trkpt lat="39.91224896555486" lon="15.814780918533446"><ele>664.4</ele><time>2026-04-26T12:44:45Z</time></trkpt><trkpt lat="39.91218897155703" lon="15.81486631735074"><ele>663.0</ele><time>2026-04-26T12:44:46Z</time></trkpt><trkpt lat="39.91213371332965" lon="15.814998504746523"><ele>663.0</ele><time>2026-04-26T12:44:47Z</time></trkpt><trkpt lat="39.91207649814256" lon="15.815092270526659"><ele>663.0</ele><time>2026-04-26T12:44:48Z</time></trkpt><trkpt lat="39.91200022218521" lon="15.815121398758876"><ele>663.0</ele><time>2026-04-26T12:44:49Z</time></trkpt><trkpt lat="39.911892648909884" lon="15.815100398335932"><ele>663.0</ele><time>2026-04-26T12:44:50Z</time></trkpt><trkpt lat="39.91176864066454" lon="15.815047282317627"><ele>663.0</ele><time>2026-04-26T12:44:51Z</time></trkpt><trkpt lat="39.911667333977306" lon="15.815000743991938"><ele>664.3333333333334</ele><time>2026-04-26T12:44:52Z</time></trkpt><trkpt lat="39.911573327506545" lon="15.814965977524682"><ele>665.6666666666666</ele><time>2026-04-26T12:44:53Z</time></trkpt><trkpt lat="39.91149248792581" lon="15.814936106925936"><ele>667.0</ele><time>2026-04-26T12:44:54Z</time></trkpt><trkpt lat="39.911419191206384" lon="15.8149068245074"><ele>668.3333333333333</ele><time>2026-04-26T12:44:55Z</time></trkpt><trkpt lat="39.91135153573634" lon="15.814886359334446"><ele>669.6666666666666</ele><time>2026-04-26T12:44:56Z</time></trkpt><trkpt lat="39.91128306019309" lon="15.814875958854689"><ele>671.0</ele><time>2026-04-26T12:44:57Z</time></trkpt><trkpt lat="39.91121539341985" lon="15.814881035632883"><ele>671.0</ele><time>2026-04-26T12:44:58Z</time></trkpt><trkpt lat="39.911146766324755" lon="15.814896652752223"><ele>671.0</ele><time>2026-04-26T12:44:59Z</time></trkpt><trkpt lat="39.91106818882338" lon="15.814925994970544"><ele>671.0</ele><time>2026-04-26T12:45:00Z</time></trkpt><trkpt lat="39.91099636650309" lon="15.814975424187583"><ele>671.0</ele><time>2026-04-26T12:45:01Z</time></trkpt><trkpt lat="39.91094652043719" lon="15.815050375071216"><ele>671.0</ele><time>2026-04-26T12:45:02Z</time></trkpt><trkpt lat="39.910895507357814" lon="15.81512303416042"><ele>671.0</ele><time>2026-04-26T12:45:03Z</time></trkpt><trkpt lat="39.91085708611966" lon="15.81520096301674"><ele>671.8333333333333</ele><time>2026-04-26T12:45:04Z</time></trkpt><trkpt lat="39.9108372313644" lon="15.815289226615777"><ele>672.6666666666666</ele><time>2026-04-26T12:45:05Z</time></trkpt><trkpt lat="39.91081431021069" lon="15.815383581628407"><ele>673.5</ele><time>2026-04-26T12:45:06Z</time></trkpt><trkpt lat="39.91080436963282" lon="15.815485713290578"><ele>674.3333333333334</ele><time>2026-04-26T12:45:07Z</time></trkpt><trkpt lat="39.910799170899224" lon="15.815593935200438"><ele>675.1666666666667</ele><time>2026-04-26T12:45:08Z</time></trkpt><trkpt lat="39.910778092528965" lon="15.815710414616623"><ele>676.0</ele><time>2026-04-26T12:45:09Z</time></trkpt><trkpt lat="39.91073852241497" lon="15.815826366813058"><ele>676.0</ele><time>2026-04-26T12:45:10Z</time></trkpt><trkpt lat="39.910684277267215" lon="15.81593076165255"><ele>676.0</ele><time>2026-04-26T12:45:11Z</time></trkpt><trkpt lat="39.910620250839095" lon="15.816030425793047"><ele>676.0</ele><time>2026-04-26T12:45:12Z</time></trkpt><trkpt lat="39.910556144212094" lon="15.816131716610657"><ele>676.0</ele><time>2026-04-26T12:45:13Z</time></trkpt><trkpt lat="39.910490972389965" lon="15.816229577834195"><ele>676.0</ele><time>2026-04-26T12:45:14Z</time></trkpt><trkpt lat="39.910405781825474" lon="15.816333912986465"><ele>669.3333333333334</ele><time>2026-04-26T12:45:15Z</time></trkpt><trkpt lat="39.910294081553126" lon="15.816458385623863"><ele>662.6666666666666</ele><time>2026-04-26T12:45:16Z</time></trkpt><trkpt lat="39.91016528062494" lon="15.816623562553954"><ele>656.0</ele><time>2026-04-26T12:45:17Z</time></trkpt><trkpt lat="39.91003335285926" lon="15.816799913125516"><ele>661.0</ele><time>2026-04-26T12:45:18Z</time></trkpt><trkpt lat="39.90989329927293" lon="15.81697642909879"><ele>666.0</ele><time>2026-04-26T12:45:19Z</time></trkpt><trkpt lat="39.90976078168798" lon="15.817139789552286"><ele>671.0</ele><time>2026-04-26T12:45:20Z</time></trkpt><trkpt lat="39.90965003926274" lon="15.817294716511878"><ele>671.0</ele><time>2026-04-26T12:45:21Z</time></trkpt><trkpt lat="39.90956028663108" lon="15.817446798096318"><ele>671.0</ele><time>2026-04-26T12:45:22Z</time></trkpt><trkpt lat="39.909488510956784" lon="15.817599782690642"><ele>671.0</ele><time>2026-04-26T12:45:23Z</time></trkpt><trkpt lat="39.90941951671588" lon="15.817740797319994"><ele>671.0</ele><time>2026-04-26T12:45:24Z</time></trkpt><trkpt lat="39.90933158060968" lon="15.817863933242762"><ele>674.5</ele><time>2026-04-26T12:45:25Z</time></trkpt><trkpt lat="39.90921845435154" lon="15.817981339369865"><ele>678.0</ele><time>2026-04-26T12:45:26Z</time></trkpt><trkpt lat="39.9091116173582" lon="15.818085874043085"><ele>681.5</ele><time>2026-04-26T12:45:27Z</time></trkpt><trkpt lat="39.9090275107122" lon="15.818153724330616"><ele>685.0</ele><time>2026-04-26T12:45:28Z</time></trkpt><trkpt lat="39.908938984469664" lon="15.818170078995873"><ele>685.0</ele><time>2026-04-26T12:45:29Z</time></trkpt><trkpt lat="39.90885168753273" lon="15.818162913116279"><ele>685.0</ele><time>2026-04-26T12:45:30Z</time></trkpt><trkpt lat="39.90872851640146" lon="15.818159510128229"><ele>685.0</ele><time>2026-04-26T12:45:30.999Z</time></trkpt><trkpt lat="39.90858439767485" lon="15.818169045795822"><ele>685.0</ele><time>2026-04-26T12:45:31.999Z</time></trkpt><trkpt lat="39.90845695435594" lon="15.818162525631843"><ele>687.0</ele><time>2026-04-26T12:45:32.999Z</time></trkpt><trkpt lat="39.90835737797936" lon="15.818173958623186"><ele>689.0</ele><time>2026-04-26T12:45:33.999Z</time></trkpt><trkpt lat="39.908277707211774" lon="15.818217567054905"><ele>691.0</ele><time>2026-04-26T12:45:34.999Z</time></trkpt><trkpt lat="39.90818850408687" lon="15.81828240500323"><ele>693.0</ele><time>2026-04-26T12:45:35.999Z</time></trkpt><trkpt lat="39.908070770091044" lon="15.818321995912404"><ele>695.0</ele><time>2026-04-26T12:45:36.999Z</time></trkpt><trkpt lat="39.90794004192414" lon="15.81833777154872"><ele>695.0</ele><time>2026-04-26T12:45:37.999Z</time></trkpt><trkpt lat="39.90782304373065" lon="15.81833929452205"><ele>695.0</ele><time>2026-04-26T12:45:38.999Z</time></trkpt><trkpt lat="39.90774286783733" lon="15.818344582977753"><ele>695.0</ele><time>2026-04-26T12:45:39.999Z</time></trkpt><trkpt lat="39.90767998564139" lon="15.818360922478197"><ele>695.0</ele><time>2026-04-26T12:45:40.999Z</time></trkpt><trkpt lat="39.90759121319995" lon="15.818427452553536"><ele>695.0</ele><time>2026-04-26T12:45:42.999Z</time></trkpt><trkpt lat="39.9075529793869" lon="15.818526102391756"><ele>695.0</ele><time>2026-04-26T12:45:43.999Z</time></trkpt><trkpt lat="39.9075223683846" lon="15.818648267297599"><ele>692.0</ele><time>2026-04-26T12:45:44.999Z</time></trkpt><trkpt lat="39.90749254151885" lon="15.818739524181927"><ele>689.0</ele><time>2026-04-26T12:45:45.999Z</time></trkpt><trkpt lat="39.9073971196353" lon="15.818807731131583"><ele>686.0</ele><time>2026-04-26T12:45:47.999Z</time></trkpt><trkpt lat="39.90731281986731" lon="15.818808749431863"><ele>683.0</ele><time>2026-04-26T12:45:48.999Z</time></trkpt><trkpt lat="39.90720490424701" lon="15.818752428288652"><ele>680.0</ele><time>2026-04-26T12:45:49.999Z</time></trkpt><trkpt lat="39.90708961887703" lon="15.818683340731942"><ele>680.0</ele><time>2026-04-26T12:45:50.999Z</time></trkpt><trkpt lat="39.90697566342018" lon="15.818610589501764"><ele>680.0</ele><time>2026-04-26T12:45:51.999Z</time></trkpt><trkpt lat="39.90686996492972" lon="15.818527220781656"><ele>680.0</ele><time>2026-04-26T12:45:52.999Z</time></trkpt><trkpt lat="39.90676898237438" lon="15.818436010699575"><ele>680.0</ele><time>2026-04-26T12:45:53.999Z</time></trkpt><trkpt lat="39.90666834290719" lon="15.818340700544923"><ele>680.1666666666666</ele><time>2026-04-26T12:45:54.999Z</time></trkpt><trkpt lat="39.90659496635267" lon="15.818219444437334"><ele>680.3333333333333</ele><time>2026-04-26T12:45:55.999Z</time></trkpt><trkpt lat="39.90651221282948" lon="15.81813576421433"><ele>680.5</ele><time>2026-04-26T12:45:56.999Z</time></trkpt><trkpt lat="39.906454077672635" lon="15.818056345062923"><ele>680.6666666666666</ele><time>2026-04-26T12:45:57.999Z</time></trkpt><trkpt lat="39.906398981915764" lon="15.818012691970315"><ele>680.8333333333334</ele><time>2026-04-26T12:45:58.999Z</time></trkpt><trkpt lat="39.90633512666891" lon="15.817990938450844"><ele>681.0</ele><time>2026-04-26T12:45:59.999Z</time></trkpt><trkpt lat="39.90625011780884" lon="15.81798979154251"><ele>681.0</ele><time>2026-04-26T12:46:00.999Z</time></trkpt><trkpt lat="39.90616054536434" lon="15.81799310763765"><ele>681.0</ele><time>2026-04-26T12:46:01.999Z</time></trkpt><trkpt lat="39.906077733216655" lon="15.817928051828583"><ele>681.0</ele><time>2026-04-26T12:46:02.999Z</time></trkpt><trkpt lat="39.90598744691901" lon="15.817844014881793"><ele>681.0</ele><time>2026-04-26T12:46:03.999Z</time></trkpt><trkpt lat="39.90589280010053" lon="15.817773067954091"><ele>681.0</ele><time>2026-04-26T12:46:04.999Z</time></trkpt><trkpt lat="39.905801447865315" lon="15.817693195637629"><ele>680.8</ele><time>2026-04-26T12:46:05.999Z</time></trkpt><trkpt lat="39.905712726748945" lon="15.817629057176548"><ele>680.5999999999999</ele><time>2026-04-26T12:46:06.999Z</time></trkpt><trkpt lat="39.90562458310353" lon="15.817566150384382"><ele>680.4</ele><time>2026-04-26T12:46:07.999Z</time></trkpt><trkpt lat="39.90553385367076" lon="15.817505250361894"><ele>680.2</ele><time>2026-04-26T12:46:08.999Z</time></trkpt><trkpt lat="39.90544237210504" lon="15.817448875009529"><ele>680.0</ele><time>2026-04-26T12:46:09.999Z</time></trkpt><trkpt lat="39.90534880466416" lon="15.817401210503016"><ele>680.0</ele><time>2026-04-26T12:46:10.999Z</time></trkpt><trkpt lat="39.905258358114686" lon="15.817355759012258"><ele>680.0</ele><time>2026-04-26T12:46:11.999Z</time></trkpt><trkpt lat="39.905169266352736" lon="15.817289870870734"><ele>680.0</ele><time>2026-04-26T12:46:12.999Z</time></trkpt><trkpt lat="39.90507956778198" lon="15.817196861575333"><ele>680.0</ele><time>2026-04-26T12:46:13.999Z</time></trkpt><trkpt lat="39.90497199061472" lon="15.817081997879196"><ele>679.0</ele><time>2026-04-26T12:46:14.999Z</time></trkpt><trkpt lat="39.90485185120733" lon="15.816978808010997"><ele>678.0</ele><time>2026-04-26T12:46:15.999Z</time></trkpt><trkpt lat="39.90473407889428" lon="15.816884224663864"><ele>677.0</ele><time>2026-04-26T12:46:16.999Z</time></trkpt><trkpt lat="39.904622747569626" lon="15.816794826139763"><ele>676.0</ele><time>2026-04-26T12:46:17.999Z</time></trkpt><trkpt lat="39.90451686614902" lon="15.816708714104749"><ele>676.0</ele><time>2026-04-26T12:46:18.999Z</time></trkpt><trkpt lat="39.904418248764706" lon="15.81661589927679"><ele>676.0</ele><time>2026-04-26T12:46:19.999Z</time></trkpt><trkpt lat="39.90432325430642" lon="15.816511201037367"><ele>676.0</ele><time>2026-04-26T12:46:20.999Z</time></trkpt><trkpt lat="39.90422172366299" lon="15.816402732837961"><ele>676.0</ele><time>2026-04-26T12:46:21.999Z</time></trkpt><trkpt lat="39.90411419037006" lon="15.816319471747823"><ele>673.0</ele><time>2026-04-26T12:46:22.999Z</time></trkpt><trkpt lat="39.90399872594002" lon="15.81627621302628"><ele>670.0</ele><time>2026-04-26T12:46:23.999Z</time></trkpt><trkpt lat="39.903912796928026" lon="15.816246189323417"><ele>667.0</ele><time>2026-04-26T12:46:24.999Z</time></trkpt><trkpt lat="39.90383501997395" lon="15.816229587965365"><ele>664.0</ele><time>2026-04-26T12:46:25.999Z</time></trkpt><trkpt lat="39.90376794421219" lon="15.816229537137136"><ele>661.0</ele><time>2026-04-26T12:46:26.999Z</time></trkpt><trkpt lat="39.90367918507054" lon="15.816255233714804"><ele>658.0</ele><time>2026-04-26T12:46:28.999Z</time></trkpt><trkpt lat="39.90360434031716" lon="15.816266461791841"><ele>658.0</ele><time>2026-04-26T12:46:30.999Z</time></trkpt><trkpt lat="39.90351261512312" lon="15.816236631793064"><ele>658.0</ele><time>2026-04-26T12:46:32.999Z</time></trkpt><trkpt lat="39.90343386417913" lon="15.816131795095325"><ele>658.0</ele><time>2026-04-26T12:46:34.999Z</time></trkpt><trkpt lat="39.903382389704376" lon="15.815992151253297"><ele>658.0</ele><time>2026-04-26T12:46:36.999Z</time></trkpt><trkpt lat="39.90336613699538" lon="15.81590543318727"><ele>658.0</ele><time>2026-04-26T12:46:37.999Z</time></trkpt><trkpt lat="39.90333912370485" lon="15.815822670653072"><ele>656.8</ele><time>2026-04-26T12:46:38.999Z</time></trkpt><trkpt lat="39.90328677915844" lon="15.815716681877133"><ele>655.5999999999999</ele><time>2026-04-26T12:46:40.999Z</time></trkpt><trkpt lat="39.9031930032742" lon="15.815702907176993"><ele>654.4000000000001</ele><time>2026-04-26T12:46:42.999Z</time></trkpt><trkpt lat="39.903127787574945" lon="15.815692967901326"><ele>653.2</ele><time>2026-04-26T12:46:43.999Z</time></trkpt><trkpt lat="39.9030471372731" lon="15.815680369009605"><ele>652.0</ele><time>2026-04-26T12:46:46Z</time></trkpt><trkpt lat="39.902991135515684" lon="15.81554849693083"><ele>652.0</ele><time>2026-04-26T12:46:48Z</time></trkpt><trkpt lat="39.90296671983545" lon="15.815455208663135"><ele>652.0</ele><time>2026-04-26T12:46:49Z</time></trkpt><trkpt lat="39.902952794592046" lon="15.815354924100808"><ele>652.0</ele><time>2026-04-26T12:46:50Z</time></trkpt><trkpt lat="39.90293089829704" lon="15.815245677489292"><ele>652.0</ele><time>2026-04-26T12:46:51Z</time></trkpt><trkpt lat="39.902915043377355" lon="15.815146395437992"><ele>652.0</ele><time>2026-04-26T12:46:52Z</time></trkpt><trkpt lat="39.902948517525445" lon="15.815038074074426"><ele>652.0</ele><time>2026-04-26T12:46:53Z</time></trkpt><trkpt lat="39.90292516916857" lon="15.814944447263654"><ele>653.6666666666667</ele><time>2026-04-26T12:46:54Z</time></trkpt><trkpt lat="39.90291005447941" lon="15.814854854318396"><ele>655.3333333333334</ele><time>2026-04-26T12:46:55Z</time></trkpt><trkpt lat="39.902868112839656" lon="15.814776391020093"><ele>657.0</ele><time>2026-04-26T12:46:56Z</time></trkpt><trkpt lat="39.9028361007646" lon="15.814695806710704"><ele>658.6666666666666</ele><time>2026-04-26T12:46:57Z</time></trkpt><trkpt lat="39.902846402613925" lon="15.81455314577908"><ele>660.3333333333333</ele><time>2026-04-26T12:46:59Z</time></trkpt><trkpt lat="39.90289101847695" lon="15.814440416598611"><ele>662.0</ele><time>2026-04-26T12:47:05Z</time></trkpt><trkpt lat="39.902910618090715" lon="15.814282716100456"><ele>662.8571428571429</ele><time>2026-04-26T12:47:07Z</time></trkpt><trkpt lat="39.90291064884367" lon="15.814196500315036"><ele>663.7142857142857</ele><time>2026-04-26T12:47:08Z</time></trkpt><trkpt lat="39.9028969131931" lon="15.814074753386592"><ele>664.5714285714286</ele><time>2026-04-26T12:47:10Z</time></trkpt><trkpt lat="39.902863684198834" lon="15.81397912979765"><ele>665.4285714285714</ele><time>2026-04-26T12:47:12Z</time></trkpt><trkpt lat="39.90282652255537" lon="15.813909547537687"><ele>666.2857142857143</ele><time>2026-04-26T12:47:13Z</time></trkpt><trkpt lat="39.90278083773467" lon="15.813851215550828"><ele>667.1428571428571</ele><time>2026-04-26T12:47:14Z</time></trkpt><trkpt lat="39.90273480329716" lon="15.813793520807035"><ele>668.0</ele><time>2026-04-26T12:47:15Z</time></trkpt><trkpt lat="39.902678233696925" lon="15.81371347946835"><ele>668.0</ele><time>2026-04-26T12:47:16Z</time></trkpt><trkpt lat="39.90262384102467" lon="15.813622121258804"><ele>668.0</ele><time>2026-04-26T12:47:17Z</time></trkpt><trkpt lat="39.902575363127816" lon="15.813555028791674"><ele>668.0</ele><time>2026-04-26T12:47:18Z</time></trkpt><trkpt lat="39.90248576082269" lon="15.81345987221869"><ele>668.0</ele><time>2026-04-26T12:47:20Z</time></trkpt><trkpt lat="39.90244580425698" lon="15.813395791276966"><ele>668.0</ele><time>2026-04-26T12:47:21Z</time></trkpt><trkpt lat="39.902377367390294" lon="15.813293363220609"><ele>668.0</ele><time>2026-04-26T12:47:23Z</time></trkpt><trkpt lat="39.90232669404464" lon="15.813228964155991"><ele>665.4</ele><time>2026-04-26T12:47:25Z</time></trkpt><trkpt lat="39.90225981248897" lon="15.81312754096605"><ele>662.8</ele><time>2026-04-26T12:49:26Z</time></trkpt><trkpt lat="39.902220897403105" lon="15.813062914833298"><ele>660.2</ele><time>2026-04-26T12:49:27Z</time></trkpt><trkpt lat="39.90216164598786" lon="15.812926093296408"><ele>657.6</ele><time>2026-04-26T12:49:29Z</time></trkpt><trkpt lat="39.90214767303038" lon="15.812798373731175"><ele>655.0</ele><time>2026-04-26T12:49:31Z</time></trkpt><trkpt lat="39.90213663781695" lon="15.812670854207996"><ele>654.1428571428571</ele><time>2026-04-26T12:49:34Z</time></trkpt><trkpt lat="39.90208774552746" lon="15.81259327089284"><ele>653.2857142857142</ele><time>2026-04-26T12:49:35.999Z</time></trkpt><trkpt lat="39.90200101343242" lon="15.812562416614934"><ele>652.4285714285713</ele><time>2026-04-26T12:49:37.999Z</time></trkpt><trkpt lat="39.901930564938915" lon="15.812559531222576"><ele>651.5714285714286</ele><time>2026-04-26T12:49:38.999Z</time></trkpt><trkpt lat="39.90186018222249" lon="15.812559527732022"><ele>650.7142857142857</ele><time>2026-04-26T12:49:39.999Z</time></trkpt><trkpt lat="39.90179785787001" lon="15.81253907720426"><ele>649.8571428571428</ele><time>2026-04-26T12:49:40.999Z</time></trkpt><trkpt lat="39.90174137198013" lon="15.812486359890434"><ele>649.0</ele><time>2026-04-26T12:49:41.999Z</time></trkpt><trkpt lat="39.901635033487516" lon="15.812426265063515"><ele>647.6666666666667</ele><time>2026-04-26T12:49:43.999Z</time></trkpt><trkpt lat="39.90158714778531" lon="15.812372304779872"><ele>646.3333333333334</ele><time>2026-04-26T12:49:44.999Z</time></trkpt><trkpt lat="39.90150848100892" lon="15.812281883435896"><ele>645.0</ele><time>2026-04-26T12:49:46.999Z</time></trkpt><trkpt lat="39.90144812988789" lon="15.812211469201513"><ele>643.6666666666666</ele><time>2026-04-26T12:49:49.999Z</time></trkpt><trkpt lat="39.90149518688055" lon="15.812155330309725"><ele>642.3333333333333</ele><time>2026-04-26T12:49:51.999Z</time></trkpt><trkpt lat="39.90159329245043" lon="15.81219620348644"><ele>641.0</ele><time>2026-04-26T12:49:53.999Z</time></trkpt><trkpt lat="39.9016854968328" lon="15.81217662227406"><ele>642.5999999999999</ele><time>2026-04-26T12:49:54.999Z</time></trkpt><trkpt lat="39.90177736643054" lon="15.81221004603111"><ele>644.2</ele><time>2026-04-26T12:49:55.999Z</time></trkpt><trkpt lat="39.90189470494114" lon="15.81227341595836"><ele>645.8</ele><time>2026-04-26T12:49:57.999Z</time></trkpt><trkpt lat="39.90198175233388" lon="15.812308100884746"><ele>647.4000000000001</ele><time>2026-04-26T12:49:58.999Z</time></trkpt><trkpt lat="39.90206833308052" lon="15.812320001294069"><ele>649.0</ele><time>2026-04-26T12:49:59.999Z</time></trkpt><trkpt lat="39.90215256899748" lon="15.812336726400655"><ele>649.0</ele><time>2026-04-26T12:50:01.999Z</time></trkpt><trkpt lat="39.90220850338705" lon="15.812256343694528"><ele>649.0</ele><time>2026-04-26T12:50:03.999Z</time></trkpt><trkpt lat="39.90224242444818" lon="15.812184376207492"><ele>649.0</ele><time>2026-04-26T12:50:04.999Z</time></trkpt><trkpt lat="39.90228990818004" lon="15.812124050384796"><ele>649.0</ele><time>2026-04-26T12:50:05.999Z</time></trkpt><trkpt lat="39.9023667241355" lon="15.81213835940186"><ele>649.0</ele><time>2026-04-26T12:50:06.999Z</time></trkpt><trkpt lat="39.90244641026593" lon="15.812069908909553"><ele>649.0</ele><time>2026-04-26T12:50:07.999Z</time></trkpt><trkpt lat="39.90253984129415" lon="15.812011605912685"><ele>648.4000000000001</ele><time>2026-04-26T12:50:08.999Z</time></trkpt><trkpt lat="39.90263045081435" lon="15.811947295812098"><ele>647.8</ele><time>2026-04-26T12:50:09.999Z</time></trkpt><trkpt lat="39.902706678074075" lon="15.811878131244878"><ele>647.2</ele><time>2026-04-26T12:50:10.999Z</time></trkpt><trkpt lat="39.90277903418839" lon="15.811808016085877"><ele>646.5999999999999</ele><time>2026-04-26T12:50:11.999Z</time></trkpt><trkpt lat="39.90284771571436" lon="15.811736427102627"><ele>646.0</ele><time>2026-04-26T12:50:12.999Z</time></trkpt><trkpt lat="39.902920035806204" lon="15.811586964291921"><ele>646.0</ele><time>2026-04-26T12:50:14.999Z</time></trkpt><trkpt lat="39.902949006790955" lon="15.811464013102666"><ele>646.0</ele><time>2026-04-26T12:50:15.999Z</time></trkpt><trkpt lat="39.90297863502545" lon="15.81136433513092"><ele>646.0</ele><time>2026-04-26T12:50:16.999Z</time></trkpt><trkpt lat="39.90304644846629" lon="15.811253318357226"><ele>646.0</ele><time>2026-04-26T12:50:18.999Z</time></trkpt><trkpt lat="39.90310304761013" lon="15.811201677831429"><ele>646.0</ele><time>2026-04-26T12:50:19.999Z</time></trkpt><trkpt lat="39.903206587731" lon="15.811141253989884"><ele>646.0</ele><time>2026-04-26T12:50:20.999Z</time></trkpt><trkpt lat="39.903258505718185" lon="15.81103135832363"><ele>646.0</ele><time>2026-04-26T12:50:21.999Z</time></trkpt><trkpt lat="39.903319481420176" lon="15.810981695767234"><ele>646.0</ele><time>2026-04-26T12:50:22.999Z</time></trkpt><trkpt lat="39.903405891606845" lon="15.810902834317103"><ele>646.0</ele><time>2026-04-26T12:50:24.999Z</time></trkpt><trkpt lat="39.90342116009299" lon="15.8107888516644"><ele>646.0</ele><time>2026-04-26T12:50:26.999Z</time></trkpt><trkpt lat="39.903348314907824" lon="15.810723689279122"><ele>642.5</ele><time>2026-04-26T12:50:27.999Z</time></trkpt><trkpt lat="39.903290681409125" lon="15.81065961055073"><ele>639.0</ele><time>2026-04-26T12:50:28.999Z</time></trkpt><trkpt lat="39.90324866020884" lon="15.81058605534066"><ele>635.5</ele><time>2026-04-26T12:50:29.999Z</time></trkpt><trkpt lat="39.90320828842973" lon="15.81048888878608"><ele>632.0</ele><time>2026-04-26T12:50:31.999Z</time></trkpt><trkpt lat="39.90322542405102" lon="15.81035155798734"><ele>628.5</ele><time>2026-04-26T12:50:34.999Z</time></trkpt><trkpt lat="39.9032804499513" lon="15.810301349069503"><ele>625.0</ele><time>2026-04-26T12:50:36.999Z</time></trkpt><trkpt lat="39.90324885734055" lon="15.810180856656054"><ele>625.0</ele><time>2026-04-26T12:50:42.999Z</time></trkpt><trkpt lat="39.90315796444225" lon="15.810156012447084"><ele>625.0</ele><time>2026-04-26T12:50:43.999Z</time></trkpt><trkpt lat="39.903105160259436" lon="15.810097881037569"><ele>625.0</ele><time>2026-04-26T12:50:44.999Z</time></trkpt><trkpt lat="39.903025814365016" lon="15.810065372178835"><ele>625.0</ele><time>2026-04-26T12:50:45.999Z</time></trkpt><trkpt lat="39.90295774684189" lon="15.810048978338237"><ele>625.0</ele><time>2026-04-26T12:50:46.999Z</time></trkpt><trkpt lat="39.902874921977634" lon="15.810087255875054"><ele>625.0</ele><time>2026-04-26T12:50:48.999Z</time></trkpt><trkpt lat="39.90287417751646" lon="15.810217037258445"><ele>625.0</ele><time>2026-04-26T12:50:50.999Z</time></trkpt><trkpt lat="39.9028093153207" lon="15.810261127829587"><ele>625.0</ele><time>2026-04-26T12:50:53.999Z</time></trkpt><trkpt lat="39.9027195049633" lon="15.810153920341254"><ele>625.0</ele><time>2026-04-26T12:50:55.999Z</time></trkpt><trkpt lat="39.90263991189441" lon="15.810056221150772"><ele>625.0</ele><time>2026-04-26T12:50:58Z</time></trkpt><trkpt lat="39.902656665070445" lon="15.809941755840876"><ele>625.0</ele><time>2026-04-26T12:51:01Z</time></trkpt><trkpt lat="39.902716282118575" lon="15.809836836191318"><ele>622.0</ele><time>2026-04-26T12:51:03Z</time></trkpt><trkpt lat="39.902795312218565" lon="15.809745214803563"><ele>619.0</ele><time>2026-04-26T12:51:05Z</time></trkpt><trkpt lat="39.90287278182126" lon="15.809715789512726"><ele>616.0</ele><time>2026-04-26T12:51:06Z</time></trkpt><trkpt lat="39.9029447538502" lon="15.8096820182226"><ele>613.0</ele><time>2026-04-26T12:51:07Z</time></trkpt><trkpt lat="39.90301321544623" lon="15.80963431182727"><ele>610.0</ele><time>2026-04-26T12:51:08Z</time></trkpt><trkpt lat="39.90307859305417" lon="15.809582139963688"><ele>607.0</ele><time>2026-04-26T12:51:09Z</time></trkpt><trkpt lat="39.903190252204894" lon="15.809511213941247"><ele>607.0</ele><time>2026-04-26T12:51:11Z</time></trkpt><trkpt lat="39.90325967245133" lon="15.809412760004383"><ele>607.0</ele><time>2026-04-26T12:51:13Z</time></trkpt><trkpt lat="39.90327815232212" lon="15.809323065362353"><ele>607.0</ele><time>2026-04-26T12:51:14Z</time></trkpt><trkpt lat="39.90326678259596" lon="15.809224740380975"><ele>607.0</ele><time>2026-04-26T12:51:15Z</time></trkpt><trkpt lat="39.903236889693424" lon="15.809134219804308"><ele>607.0</ele><time>2026-04-26T12:51:16Z</time></trkpt><trkpt lat="39.90312458856125" lon="15.809073376792178"><ele>607.0</ele><time>2026-04-26T12:51:18Z</time></trkpt><trkpt lat="39.903011073780725" lon="15.809095812281658"><ele>605.6666666666667</ele><time>2026-04-26T12:51:20Z</time></trkpt><trkpt lat="39.902942378688216" lon="15.809120327272295"><ele>604.3333333333334</ele><time>2026-04-26T12:51:21Z</time></trkpt><trkpt lat="39.90284953215423" lon="15.809013884800452"><ele>603.0</ele><time>2026-04-26T12:51:23Z</time></trkpt><trkpt lat="39.90279598084493" lon="15.80892603997138"><ele>601.6666666666666</ele><time>2026-04-26T12:51:24Z</time></trkpt><trkpt lat="39.90274197184166" lon="15.80886714877183"><ele>600.3333333333333</ele><time>2026-04-26T12:51:25Z</time></trkpt><trkpt lat="39.90266065111136" lon="15.808804964527564"><ele>599.0</ele><time>2026-04-26T12:51:26Z</time></trkpt><trkpt lat="39.902564900998726" lon="15.80874425278847"><ele>596.6</ele><time>2026-04-26T12:51:27Z</time></trkpt><trkpt lat="39.90246612676164" lon="15.808710182474103"><ele>594.2</ele><time>2026-04-26T12:51:28Z</time></trkpt><trkpt lat="39.90237584817793" lon="15.808694502131875"><ele>591.8000000000001</ele><time>2026-04-26T12:51:29Z</time></trkpt><trkpt lat="39.90230855221834" lon="15.808679311537823"><ele>589.4</ele><time>2026-04-26T12:51:30Z</time></trkpt><trkpt lat="39.90222052179198" lon="15.808635016803446"><ele>587.0</ele><time>2026-04-26T12:51:32Z</time></trkpt><trkpt lat="39.90214419306143" lon="15.808562816973835"><ele>588.2</ele><time>2026-04-26T12:51:34Z</time></trkpt><trkpt lat="39.90212071725525" lon="15.808404809985491"><ele>589.4000000000001</ele><time>2026-04-26T12:51:36Z</time></trkpt><trkpt lat="39.90213548838665" lon="15.808309058400233"><ele>590.5999999999999</ele><time>2026-04-26T12:51:37Z</time></trkpt><trkpt lat="39.902094137668676" lon="15.80818214335088"><ele>591.8</ele><time>2026-04-26T12:51:39Z</time></trkpt><trkpt lat="39.90203003852223" lon="15.808143956462587"><ele>593.0</ele><time>2026-04-26T12:51:40Z</time></trkpt><trkpt lat="39.90193012532878" lon="15.808105823219034"><ele>593.0</ele><time>2026-04-26T12:51:41Z</time></trkpt><trkpt lat="39.901854059661154" lon="15.80807360770386"><ele>593.0</ele><time>2026-04-26T12:51:42Z</time></trkpt><trkpt lat="39.90179885807783" lon="15.80801304279446"><ele>593.0</ele><time>2026-04-26T12:51:42.999Z</time></trkpt><trkpt lat="39.90173976287264" lon="15.807929398558768"><ele>593.0</ele><time>2026-04-26T12:51:43.999Z</time></trkpt><trkpt lat="39.90169756306661" lon="15.807827977100024"><ele>593.0</ele><time>2026-04-26T12:51:44.999Z</time></trkpt><trkpt lat="39.90166800562459" lon="15.807725781088896"><ele>593.0</ele><time>2026-04-26T12:51:45.999Z</time></trkpt><trkpt lat="39.90168682472792" lon="15.80761160642833"><ele>591.0</ele><time>2026-04-26T12:51:47.999Z</time></trkpt><trkpt lat="39.901744146742494" lon="15.807559834925963"><ele>589.0</ele><time>2026-04-26T12:52:12.999Z</time></trkpt><trkpt lat="39.90172146652957" lon="15.807468384140213"><ele>587.0</ele><time>2026-04-26T12:52:15.999Z</time></trkpt><trkpt lat="39.90167267005395" lon="15.807353923721614"><ele>585.0</ele><time>2026-04-26T12:52:18.999Z</time></trkpt><trkpt lat="39.90162482687688" lon="15.807292463536115"><ele>583.0</ele><time>2026-04-26T12:52:19.999Z</time></trkpt><trkpt lat="39.901566143564416" lon="15.807230647544863"><ele>581.0</ele><time>2026-04-26T12:52:20.999Z</time></trkpt><trkpt lat="39.901513094376085" lon="15.807173128940757"><ele>581.0</ele><time>2026-04-26T12:52:21.999Z</time></trkpt><trkpt lat="39.90147697095672" lon="15.807093690864505"><ele>581.0</ele><time>2026-04-26T12:52:22.999Z</time></trkpt><trkpt lat="39.901445621168904" lon="15.806995529157597"><ele>581.0</ele><time>2026-04-26T12:52:23.999Z</time></trkpt><trkpt lat="39.90142650781588" lon="15.806915910271854"><ele>581.0</ele><time>2026-04-26T12:52:24.999Z</time></trkpt><trkpt lat="39.90138336241668" lon="15.806823069897415"><ele>581.0</ele><time>2026-04-26T12:52:26.999Z</time></trkpt><trkpt lat="39.901318853693105" lon="15.80670972157561"><ele>581.0</ele><time>2026-04-26T12:52:29.999Z</time></trkpt><trkpt lat="39.90127090201912" lon="15.806604872487947"><ele>579.2</ele><time>2026-04-26T12:52:31.999Z</time></trkpt><trkpt lat="39.90119585732282" lon="15.80649884952663"><ele>577.4000000000001</ele><time>2026-04-26T12:52:33.999Z</time></trkpt><trkpt lat="39.90112108235519" lon="15.806370607269036"><ele>575.6</ele><time>2026-04-26T12:52:35.999Z</time></trkpt><trkpt lat="39.90106266083923" lon="15.806324120565993"><ele>573.8000000000001</ele><time>2026-04-26T12:52:36.999Z</time></trkpt><trkpt lat="39.9009992301424" lon="15.806288438984108"><ele>572.0</ele><time>2026-04-26T12:52:37.999Z</time></trkpt><trkpt lat="39.90092333626604" lon="15.806193837125516"><ele>572.6666666666666</ele><time>2026-04-26T12:52:39.999Z</time></trkpt><trkpt lat="39.90087813068096" lon="15.806058915962435"><ele>573.3333333333333</ele><time>2026-04-26T12:52:41.999Z</time></trkpt><trkpt lat="39.900832702423315" lon="15.805978457408894"><ele>574.0</ele><time>2026-04-26T12:52:42.999Z</time></trkpt><trkpt lat="39.90077584367629" lon="15.805937319537806"><ele>574.6666666666666</ele><time>2026-04-26T12:52:43.999Z</time></trkpt><trkpt lat="39.900731331752304" lon="15.805834258445486"><ele>575.3333333333334</ele><time>2026-04-26T12:52:45.999Z</time></trkpt><trkpt lat="39.90073377018447" lon="15.805726895206911"><ele>576.0</ele><time>2026-04-26T12:52:46.999Z</time></trkpt><trkpt lat="39.9007095214133" lon="15.80560804272876"><ele>574.0</ele><time>2026-04-26T12:52:48.999Z</time></trkpt><trkpt lat="39.900659534891176" lon="15.805532853791282"><ele>572.0</ele><time>2026-04-26T12:52:50.999Z</time></trkpt><trkpt lat="39.90068206655239" lon="15.80545043813462"><ele>570.0</ele><time>2026-04-26T12:52:52.999Z</time></trkpt><trkpt lat="39.90074207538623" lon="15.805351904868289"><ele>568.0</ele><time>2026-04-26T12:52:54.999Z</time></trkpt><trkpt lat="39.9007815595515" lon="15.805260606723989"><ele>566.0</ele><time>2026-04-26T12:52:56.999Z</time></trkpt><trkpt lat="39.90073703859456" lon="15.805151850483501"><ele>564.0</ele><time>2026-04-26T12:52:58.999Z</time></trkpt><trkpt lat="39.90067676835058" lon="15.805074676180206"><ele>562.0</ele><time>2026-04-26T12:53:00.999Z</time></trkpt><trkpt lat="39.900619101024446" lon="15.804975089764298"><ele>560.0</ele><time>2026-04-26T12:53:05Z</time></trkpt><trkpt lat="39.900571441588454" lon="15.80489964027787"><ele>558.0</ele><time>2026-04-26T12:53:08Z</time></trkpt><trkpt lat="39.900536415181236" lon="15.804813145199518"><ele>556.0</ele><time>2026-04-26T12:53:10Z</time></trkpt><trkpt lat="39.90050173168878" lon="15.804709032094966"><ele>554.0</ele><time>2026-04-26T12:53:12Z</time></trkpt><trkpt lat="39.90050244320319" lon="15.804616554445829"><ele>552.0</ele><time>2026-04-26T12:53:14Z</time></trkpt><trkpt lat="39.90048247884306" lon="15.804534495948827"><ele>552.0</ele><time>2026-04-26T12:53:16Z</time></trkpt><trkpt lat="39.90042211163503" lon="15.804453101712564"><ele>552.0</ele><time>2026-04-26T12:53:19Z</time></trkpt><trkpt lat="39.90038920429691" lon="15.80435137112281"><ele>552.0</ele><time>2026-04-26T12:53:22Z</time></trkpt><trkpt lat="39.90037239186687" lon="15.804165051101888"><ele>552.0</ele><time>2026-04-26T12:53:24Z</time></trkpt><trkpt lat="39.90033157839242" lon="15.804068084643502"><ele>552.0</ele><time>2026-04-26T12:53:26Z</time></trkpt><trkpt lat="39.90029489277647" lon="15.803956573839866"><ele>551.6666666666666</ele><time>2026-04-26T12:53:28Z</time></trkpt><trkpt lat="39.90023736189018" lon="15.803877520886129"><ele>551.3333333333334</ele><time>2026-04-26T12:53:30Z</time></trkpt><trkpt lat="39.900179438880485" lon="15.803831259672371"><ele>551.0</ele><time>2026-04-26T12:53:32Z</time></trkpt><trkpt lat="39.90010113522012" lon="15.80380165116642"><ele>550.6666666666667</ele><time>2026-04-26T12:53:34Z</time></trkpt><trkpt lat="39.90002342425414" lon="15.80379394803186"><ele>550.3333333333334</ele><time>2026-04-26T12:53:36Z</time></trkpt><trkpt lat="39.899934172574305" lon="15.803757150545124"><ele>550.0</ele><time>2026-04-26T12:53:38Z</time></trkpt><trkpt lat="39.899826351151816" lon="15.803706932049591"><ele>550.0</ele><time>2026-04-26T12:53:40Z</time></trkpt><trkpt lat="39.89976923961507" lon="15.8036696477683"><ele>550.0</ele><time>2026-04-26T12:53:41Z</time></trkpt><trkpt lat="39.899665825744414" lon="15.80358511858156"><ele>550.0</ele><time>2026-04-26T12:53:43Z</time></trkpt><trkpt lat="39.899621407561774" lon="15.803525073751816"><ele>550.0</ele><time>2026-04-26T12:53:44Z</time></trkpt><trkpt lat="39.899525491747646" lon="15.803465338902823"><ele>550.0</ele><time>2026-04-26T12:53:46Z</time></trkpt><trkpt lat="39.8994448741386" lon="15.803426433929262"><ele>550.0</ele><time>2026-04-26T12:53:47Z</time></trkpt><trkpt lat="39.8993555435351" lon="15.803382142340736"><ele>545.6666666666667</ele><time>2026-04-26T12:53:48Z</time></trkpt><trkpt lat="39.8992774780874" lon="15.803350504678088"><ele>541.3333333333334</ele><time>2026-04-26T12:53:48.999Z</time></trkpt><trkpt lat="39.899202452947435" lon="15.803322986043215"><ele>537.0</ele><time>2026-04-26T12:53:49.999Z</time></trkpt><trkpt lat="39.89913464389139" lon="15.80330293436441"><ele>532.6666666666666</ele><time>2026-04-26T12:53:50.999Z</time></trkpt><trkpt lat="39.89907217864247" lon="15.803270332029106"><ele>528.3333333333333</ele><time>2026-04-26T12:53:51.999Z</time></trkpt><trkpt lat="39.89897551283208" lon="15.803168737055216"><ele>524.0</ele><time>2026-04-26T12:53:53.999Z</time></trkpt><trkpt lat="39.89891715909723" lon="15.80312885564793"><ele>524.0</ele><time>2026-04-26T12:53:54.999Z</time></trkpt><trkpt lat="39.898836310238615" lon="15.803111875967753"><ele>524.0</ele><time>2026-04-26T12:53:55.999Z</time></trkpt><trkpt lat="39.898761370778075" lon="15.803108293845124"><ele>524.0</ele><time>2026-04-26T12:53:56.999Z</time></trkpt><trkpt lat="39.898695872964716" lon="15.803118252490515"><ele>524.0</ele><time>2026-04-26T12:53:57.999Z</time></trkpt><trkpt lat="39.89863927980076" lon="15.803168341615425"><ele>524.0</ele><time>2026-04-26T12:53:58.999Z</time></trkpt><trkpt lat="39.89856074448489" lon="15.803249798340968"><ele>524.0</ele><time>2026-04-26T12:53:59.999Z</time></trkpt><trkpt lat="39.89848844287751" lon="15.803301227531499"><ele>522.5</ele><time>2026-04-26T12:54:00.999Z</time></trkpt><trkpt lat="39.89840052039938" lon="15.803350192656085"><ele>521.0</ele><time>2026-04-26T12:54:01.999Z</time></trkpt><trkpt lat="39.89831952169595" lon="15.803417065501806"><ele>519.5</ele><time>2026-04-26T12:54:02.999Z</time></trkpt><trkpt lat="39.8982610981283" lon="15.803462180926623"><ele>518.0</ele><time>2026-04-26T12:54:03.999Z</time></trkpt><trkpt lat="39.89818399268275" lon="15.803483820489424"><ele>516.5</ele><time>2026-04-26T12:54:04.999Z</time></trkpt><trkpt lat="39.898093153468636" lon="15.80350843379743"><ele>515.0</ele><time>2026-04-26T12:54:05.999Z</time></trkpt><trkpt lat="39.89799614926348" lon="15.803581336312112"><ele>518.0</ele><time>2026-04-26T12:54:06.999Z</time></trkpt><trkpt lat="39.89792059039684" lon="15.803649308953565"><ele>521.0</ele><time>2026-04-26T12:54:07.999Z</time></trkpt><trkpt lat="39.89786116032939" lon="15.803700655767349"><ele>524.0</ele><time>2026-04-26T12:54:08.999Z</time></trkpt><trkpt lat="39.897734823750284" lon="15.803755715123296"><ele>527.0</ele><time>2026-04-26T12:54:10.999Z</time></trkpt><trkpt lat="39.8976670303491" lon="15.803790853196695"><ele>530.0</ele><time>2026-04-26T12:54:11.999Z</time></trkpt><trkpt lat="39.89759889554948" lon="15.803827591868412"><ele>533.0</ele><time>2026-04-26T12:54:12.999Z</time></trkpt><trkpt lat="39.897520157015755" lon="15.803868749017509"><ele>533.0</ele><time>2026-04-26T12:54:14.999Z</time></trkpt><trkpt lat="39.89743039903071" lon="15.803921937476812"><ele>533.0</ele><time>2026-04-26T12:54:52.999Z</time></trkpt><trkpt lat="39.89737073814633" lon="15.803951740779763"><ele>533.0</ele><time>2026-04-26T12:54:53.999Z</time></trkpt><trkpt lat="39.8972997113571" lon="15.803986191957373"><ele>533.0</ele><time>2026-04-26T12:54:54.999Z</time></trkpt><trkpt lat="39.897224621599335" lon="15.804023616080876"><ele>533.0</ele><time>2026-04-26T12:54:55.999Z</time></trkpt><trkpt lat="39.8971564680107" lon="15.804052946326571"><ele>533.0</ele><time>2026-04-26T12:54:56.999Z</time></trkpt><trkpt lat="39.897088443835486" lon="15.804064693838532"><ele>533.0</ele><time>2026-04-26T12:54:57.999Z</time></trkpt><trkpt lat="39.89702093922903" lon="15.804078250089885"><ele>533.0</ele><time>2026-04-26T12:54:58.999Z</time></trkpt><trkpt lat="39.8969204515082" lon="15.804147982180226"><ele>533.0</ele><time>2026-04-26T12:55:00.999Z</time></trkpt><trkpt lat="39.89680940499215" lon="15.804201632853166"><ele>533.0</ele><time>2026-04-26T12:55:02.999Z</time></trkpt><trkpt lat="39.89672038084585" lon="15.80424601476836"><ele>533.0</ele><time>2026-04-26T12:55:04.999Z</time></trkpt><trkpt lat="39.89663108316195" lon="15.804358262661648"><ele>534.6666666666666</ele><time>2026-04-26T12:55:06.999Z</time></trkpt><trkpt lat="39.89657759001287" lon="15.80445774473973"><ele>536.3333333333333</ele><time>2026-04-26T12:55:08Z</time></trkpt><trkpt lat="39.896513920302596" lon="15.804529674619436"><ele>538.0</ele><time>2026-04-26T12:55:09Z</time></trkpt><trkpt lat="39.896439416988024" lon="15.804597658116924"><ele>539.6666666666666</ele><time>2026-04-26T12:55:10Z</time></trkpt><trkpt lat="39.896380978735166" lon="15.804688402076643"><ele>541.3333333333334</ele><time>2026-04-26T12:55:11Z</time></trkpt><trkpt lat="39.896339671560014" lon="15.804778787990713"><ele>543.0</ele><time>2026-04-26T12:55:12Z</time></trkpt><trkpt lat="39.89628714901787" lon="15.804891997480691"><ele>543.0</ele><time>2026-04-26T12:55:14Z</time></trkpt><trkpt lat="39.89618220155127" lon="15.804961865664431"><ele>543.0</ele><time>2026-04-26T12:55:16Z</time></trkpt><trkpt lat="39.89609735843023" lon="15.80499021763574"><ele>543.0</ele><time>2026-04-26T12:55:17Z</time></trkpt><trkpt lat="39.896021497338644" lon="15.805035280491397"><ele>543.0</ele><time>2026-04-26T12:55:18Z</time></trkpt><trkpt lat="39.89595846609301" lon="15.80507978482849"><ele>543.0</ele><time>2026-04-26T12:55:19Z</time></trkpt><trkpt lat="39.8958363784479" lon="15.8050605880651"><ele>544.4285714285714</ele><time>2026-04-26T12:55:21Z</time></trkpt><trkpt lat="39.895768759514475" lon="15.805028241357176"><ele>545.8571428571429</ele><time>2026-04-26T12:55:22Z</time></trkpt><trkpt lat="39.89570097298532" lon="15.805015239990103"><ele>547.2857142857142</ele><time>2026-04-26T12:55:23Z</time></trkpt><trkpt lat="39.89563067030918" lon="15.805033949740757"><ele>548.7142857142858</ele><time>2026-04-26T12:55:24Z</time></trkpt><trkpt lat="39.895556472089496" lon="15.80507050094989"><ele>550.1428571428571</ele><time>2026-04-26T12:55:25Z</time></trkpt><trkpt lat="39.895487274659736" lon="15.805120988615228"><ele>551.5714285714286</ele><time>2026-04-26T12:55:26Z</time></trkpt><trkpt lat="39.895419880183944" lon="15.805158275448623"><ele>553.0</ele><time>2026-04-26T12:55:27Z</time></trkpt><trkpt lat="39.89535810903368" lon="15.805184556664868"><ele>553.0</ele><time>2026-04-26T12:55:28Z</time></trkpt><trkpt lat="39.89523998119777" lon="15.805185197695257"><ele>553.0</ele><time>2026-04-26T12:55:30Z</time></trkpt><trkpt lat="39.89514426689125" lon="15.80508807295404"><ele>553.0</ele><time>2026-04-26T12:55:32Z</time></trkpt><trkpt lat="39.89506431319453" lon="15.80508948130013"><ele>553.0</ele><time>2026-04-26T12:55:34Z</time></trkpt><trkpt lat="39.895021442815924" lon="15.805150167408875"><ele>553.0</ele><time>2026-04-26T12:55:35Z</time></trkpt><trkpt lat="39.89498248149513" lon="15.80524812178123"><ele>549.5</ele><time>2026-04-26T12:55:36Z</time></trkpt><trkpt lat="39.89493852347478" lon="15.805345592158059"><ele>546.0</ele><time>2026-04-26T12:55:37Z</time></trkpt><trkpt lat="39.8948963783437" lon="15.805427923580663"><ele>542.5</ele><time>2026-04-26T12:55:38Z</time></trkpt><trkpt lat="39.89486366570933" lon="15.805504620718173"><ele>539.0</ele><time>2026-04-26T12:55:39Z</time></trkpt><trkpt lat="39.89485533386274" lon="15.805617675562056"><ele>535.5</ele><time>2026-04-26T12:55:41Z</time></trkpt><trkpt lat="39.894788893222184" lon="15.80564643380612"><ele>532.0</ele><time>2026-04-26T12:55:43Z</time></trkpt><trkpt lat="39.894715127291725" lon="15.805532591028964"><ele>532.0</ele><time>2026-04-26T12:55:45Z</time></trkpt><trkpt lat="39.89468077141724" lon="15.805424515573149"><ele>532.0</ele><time>2026-04-26T12:55:46Z</time></trkpt><trkpt lat="39.89463679549056" lon="15.805332709805619"><ele>532.0</ele><time>2026-04-26T12:55:47Z</time></trkpt><trkpt lat="39.894567256187734" lon="15.805247973979899"><ele>532.0</ele><time>2026-04-26T12:55:48Z</time></trkpt><trkpt lat="39.89449151464471" lon="15.80517831564096"><ele>532.0</ele><time>2026-04-26T12:55:49Z</time></trkpt><trkpt lat="39.894421159203624" lon="15.80514561388501"><ele>532.0</ele><time>2026-04-26T12:55:50Z</time></trkpt><trkpt lat="39.89432472091786" lon="15.805117426544552"><ele>530.0</ele><time>2026-04-26T12:55:51.999Z</time></trkpt><trkpt lat="39.89428914869096" lon="15.805039807191294"><ele>528.0</ele><time>2026-04-26T12:55:52.999Z</time></trkpt><trkpt lat="39.89425232331083" lon="15.804924101509595"><ele>526.0</ele><time>2026-04-26T12:55:53.999Z</time></trkpt><trkpt lat="39.89421332416198" lon="15.804839236309068"><ele>524.0</ele><time>2026-04-26T12:55:54.999Z</time></trkpt><trkpt lat="39.894153268834074" lon="15.804880668848398"><ele>522.0</ele><time>2026-04-26T12:55:56.999Z</time></trkpt><trkpt lat="39.894170919189015" lon="15.805005610518966"><ele>520.0</ele><time>2026-04-26T12:55:58.999Z</time></trkpt><trkpt lat="39.89419035061521" lon="15.805122494255366"><ele>522.0</ele><time>2026-04-26T12:56:01.999Z</time></trkpt><trkpt lat="39.89421195942201" lon="15.805227318276303"><ele>524.0</ele><time>2026-04-26T12:56:03.999Z</time></trkpt><trkpt lat="39.894265589395694" lon="15.805279573896273"><ele>526.0</ele><time>2026-04-26T12:56:05.999Z</time></trkpt><trkpt lat="39.894323801529126" lon="15.805324442132687"><ele>528.0</ele><time>2026-04-26T12:56:06.999Z</time></trkpt><trkpt lat="39.894428368175944" lon="15.805344515512386"><ele>530.0</ele><time>2026-04-26T12:56:08.999Z</time></trkpt><trkpt lat="39.894477421531846" lon="15.805410038832632"><ele>532.0</ele><time>2026-04-26T12:56:12.999Z</time></trkpt><trkpt lat="39.89441353452648" lon="15.805470697342995"><ele>532.0</ele><time>2026-04-26T12:56:18.999Z</time></trkpt><trkpt lat="39.89433470261202" lon="15.805460351145907"><ele>532.0</ele><time>2026-04-26T12:56:20.999Z</time></trkpt><trkpt lat="39.89428142165054" lon="15.805545505011565"><ele>532.0</ele><time>2026-04-26T12:56:22.999Z</time></trkpt><trkpt lat="39.89422144554743" lon="15.805718465820348"><ele>532.0</ele><time>2026-04-26T12:56:24.999Z</time></trkpt><trkpt lat="39.89416434205264" lon="15.805768133903367"><ele>532.0</ele><time>2026-04-26T12:56:25.999Z</time></trkpt><trkpt lat="39.8940722584243" lon="15.805851695277536"><ele>532.8333333333334</ele><time>2026-04-26T12:56:27.999Z</time></trkpt><trkpt lat="39.89396052380542" lon="15.805921513349244"><ele>533.6666666666667</ele><time>2026-04-26T12:56:29.999Z</time></trkpt><trkpt lat="39.893899271977006" lon="15.8059621362033"><ele>534.5</ele><time>2026-04-26T12:56:30.999Z</time></trkpt><trkpt lat="39.89383765812033" lon="15.80598936985251"><ele>535.3333333333334</ele><time>2026-04-26T12:56:31.999Z</time></trkpt><trkpt lat="39.89377532922377" lon="15.806023769304446"><ele>536.1666666666666</ele><time>2026-04-26T12:56:32.999Z</time></trkpt><trkpt lat="39.89371708730096" lon="15.806065037311535"><ele>537.0</ele><time>2026-04-26T12:56:33.999Z</time></trkpt><trkpt lat="39.89365674779611" lon="15.806120500515723"><ele>536.6666666666666</ele><time>2026-04-26T12:56:34.999Z</time></trkpt><trkpt lat="39.89359700858314" lon="15.806168052283494"><ele>536.3333333333334</ele><time>2026-04-26T12:56:35.999Z</time></trkpt><trkpt lat="39.89347961613631" lon="15.80622322824236"><ele>536.0</ele><time>2026-04-26T12:56:37.999Z</time></trkpt><trkpt lat="39.893402395873764" lon="15.806249260490901"><ele>535.6666666666667</ele><time>2026-04-26T12:56:38.999Z</time></trkpt><trkpt lat="39.89332217234581" lon="15.806280482950932"><ele>535.3333333333334</ele><time>2026-04-26T12:56:39.999Z</time></trkpt><trkpt lat="39.893235504411834" lon="15.806310080004637"><ele>535.0</ele><time>2026-04-26T12:56:40.999Z</time></trkpt><trkpt lat="39.89315059737048" lon="15.806344558872809"><ele>535.0</ele><time>2026-04-26T12:56:41.999Z</time></trkpt><trkpt lat="39.89308539166058" lon="15.806368244695337"><ele>535.0</ele><time>2026-04-26T12:56:42.999Z</time></trkpt><trkpt lat="39.89296431340479" lon="15.806315248351801"><ele>535.0</ele><time>2026-04-26T12:56:44.999Z</time></trkpt><trkpt lat="39.89283964465879" lon="15.806347846641506"><ele>535.0</ele><time>2026-04-26T12:56:46.999Z</time></trkpt><trkpt lat="39.892719845287445" lon="15.806355796777577"><ele>535.0</ele><time>2026-04-26T12:56:48.999Z</time></trkpt><trkpt lat="39.892603685457196" lon="15.806400964157282"><ele>534.0</ele><time>2026-04-26T12:56:50.999Z</time></trkpt><trkpt lat="39.89249807518027" lon="15.806432721485287"><ele>533.0</ele><time>2026-04-26T12:56:52.999Z</time></trkpt><trkpt lat="39.89243467055302" lon="15.80644923575492"><ele>532.0</ele><time>2026-04-26T12:56:53.999Z</time></trkpt><trkpt lat="39.892331668639535" lon="15.806462762629735"><ele>531.0</ele><time>2026-04-26T12:56:55.999Z</time></trkpt><trkpt lat="39.8922384583214" lon="15.806438187049034"><ele>530.0</ele><time>2026-04-26T12:56:57.999Z</time></trkpt><trkpt lat="39.892146395098464" lon="15.806419629553718"><ele>530.0</ele><time>2026-04-26T12:56:59.999Z</time></trkpt><trkpt lat="39.89205845696355" lon="15.806383107423063"><ele>530.0</ele><time>2026-04-26T12:57:01.999Z</time></trkpt><trkpt lat="39.891965598384" lon="15.806318133981383"><ele>530.0</ele><time>2026-04-26T12:57:03.999Z</time></trkpt><trkpt lat="39.891871809316775" lon="15.806243838795101"><ele>530.0</ele><time>2026-04-26T12:57:05.999Z</time></trkpt><trkpt lat="39.89177884381978" lon="15.806235288796726"><ele>530.0</ele><time>2026-04-26T12:57:07.999Z</time></trkpt><trkpt lat="39.89171735239206" lon="15.806270775937044"><ele>528.4</ele><time>2026-04-26T12:57:08.999Z</time></trkpt><trkpt lat="39.891617545974825" lon="15.806390951947499"><ele>526.8</ele><time>2026-04-26T12:57:10.999Z</time></trkpt><trkpt lat="39.891546859268615" lon="15.806510503806818"><ele>525.2</ele><time>2026-04-26T12:57:12.999Z</time></trkpt><trkpt lat="39.89145617664718" lon="15.806617870487344"><ele>523.6</ele><time>2026-04-26T12:57:15Z</time></trkpt><trkpt lat="39.89139800717226" lon="15.80666637358896"><ele>522.0</ele><time>2026-04-26T12:57:16Z</time></trkpt><trkpt lat="39.89133983500288" lon="15.806713732365253"><ele>522.0</ele><time>2026-04-26T12:57:17Z</time></trkpt><trkpt lat="39.891282615590654" lon="15.806756257910507"><ele>522.0</ele><time>2026-04-26T12:57:18Z</time></trkpt><trkpt lat="39.89117169779486" lon="15.80675510288022"><ele>522.0</ele><time>2026-04-26T12:57:20Z</time></trkpt><trkpt lat="39.891107600832164" lon="15.806719260792962"><ele>522.0</ele><time>2026-04-26T12:57:21Z</time></trkpt><trkpt lat="39.89102107431649" lon="15.806636284267363"><ele>522.0</ele><time>2026-04-26T12:57:23Z</time></trkpt><trkpt lat="39.8909604122755" lon="15.806583603072411"><ele>522.0</ele><time>2026-04-26T12:57:25Z</time></trkpt><trkpt lat="39.890914341624075" lon="15.80664664924789"><ele>522.0</ele><time>2026-04-26T12:57:27Z</time></trkpt><trkpt lat="39.89094961416008" lon="15.806813377808915"><ele>522.0</ele><time>2026-04-26T12:57:29Z</time></trkpt><trkpt lat="39.89099068822472" lon="15.806913120178734"><ele>522.0</ele><time>2026-04-26T12:57:30Z</time></trkpt><trkpt lat="39.89101421017573" lon="15.807000205359998"><ele>522.0</ele><time>2026-04-26T12:57:31Z</time></trkpt><trkpt lat="39.89104590257345" lon="15.807076764386885"><ele>522.0</ele><time>2026-04-26T12:57:32Z</time></trkpt><trkpt lat="39.89110152479211" lon="15.807140342325445"><ele>522.0</ele><time>2026-04-26T12:57:33Z</time></trkpt><trkpt lat="39.89115610512925" lon="15.807184168645707"><ele>519.6666666666666</ele><time>2026-04-26T12:57:34Z</time></trkpt><trkpt lat="39.89128719649059" lon="15.807219559108535"><ele>517.3333333333334</ele><time>2026-04-26T12:57:36Z</time></trkpt><trkpt lat="39.891370211104366" lon="15.807227918464829"><ele>515.0</ele><time>2026-04-26T12:57:37Z</time></trkpt><trkpt lat="39.89143610712055" lon="15.807242869308197"><ele>512.6666666666667</ele><time>2026-04-26T12:57:38Z</time></trkpt><trkpt lat="39.891505156342795" lon="15.80723634277802"><ele>510.33333333333337</ele><time>2026-04-26T12:57:41Z</time></trkpt><trkpt lat="39.891472687726015" lon="15.807344499973759"><ele>508.0</ele><time>2026-04-26T12:58:05.999Z</time></trkpt><trkpt lat="39.89137581328914" lon="15.807404278382876"><ele>508.0</ele><time>2026-04-26T12:58:07.999Z</time></trkpt><trkpt lat="39.89128005189333" lon="15.807415191418773"><ele>507.99999999999994</ele><time>2026-04-26T12:58:09.999Z</time></trkpt><trkpt lat="39.89118049606269" lon="15.80743038480858"><ele>507.99999999999994</ele><time>2026-04-26T12:58:11.999Z</time></trkpt><trkpt lat="39.89110914203415" lon="15.807485171834132"><ele>508.0</ele><time>2026-04-26T12:58:13.999Z</time></trkpt><trkpt lat="39.89101708368593" lon="15.807540485226365"><ele>508.0</ele><time>2026-04-26T12:58:15.999Z</time></trkpt><trkpt lat="39.89092298716739" lon="15.80758292579444"><ele>505.2</ele><time>2026-04-26T12:58:17.999Z</time></trkpt><trkpt lat="39.890845663593616" lon="15.807611084470414"><ele>502.4</ele><time>2026-04-26T12:58:19.999Z</time></trkpt><trkpt lat="39.89072239572077" lon="15.807585223942265"><ele>499.59999999999997</ele><time>2026-04-26T12:58:21.999Z</time></trkpt><trkpt lat="39.890613717271464" lon="15.807511018069162"><ele>496.79999999999995</ele><time>2026-04-26T12:58:23.999Z</time></trkpt><trkpt lat="39.89055743620521" lon="15.807471786844111"><ele>494.0</ele><time>2026-04-26T12:58:24.999Z</time></trkpt><trkpt lat="39.89048043433083" lon="15.807427684562734"><ele>494.0</ele><time>2026-04-26T12:58:26.999Z</time></trkpt><trkpt lat="39.89038878059564" lon="15.807437978821099"><ele>494.0</ele><time>2026-04-26T12:58:28.999Z</time></trkpt><trkpt lat="39.89028769428391" lon="15.807465179461008"><ele>494.0</ele><time>2026-04-26T12:58:30.999Z</time></trkpt><trkpt lat="39.890173428104504" lon="15.807492308831424"><ele>494.0</ele><time>2026-04-26T12:58:32.999Z</time></trkpt><trkpt lat="39.89009812932362" lon="15.807476448121733"><ele>494.0</ele><time>2026-04-26T12:58:33.999Z</time></trkpt><trkpt lat="39.88999806445575" lon="15.80742926064211"><ele>490.4</ele><time>2026-04-26T12:58:34.999Z</time></trkpt><trkpt lat="39.889887104750024" lon="15.807382893664968"><ele>486.79999999999995</ele><time>2026-04-26T12:58:35.999Z</time></trkpt><trkpt lat="39.88978997773187" lon="15.807352679861955"><ele>483.20000000000005</ele><time>2026-04-26T12:58:36.999Z</time></trkpt><trkpt lat="39.88970740624716" lon="15.807326310863852"><ele>479.6</ele><time>2026-04-26T12:58:37.999Z</time></trkpt><trkpt lat="39.8896359129496" lon="15.807302578795047"><ele>476.0</ele><time>2026-04-26T12:58:38.999Z</time></trkpt><trkpt lat="39.88954959065558" lon="15.80725519510794"><ele>476.0</ele><time>2026-04-26T12:58:40.999Z</time></trkpt><trkpt lat="39.88947388659054" lon="15.80723641664752"><ele>476.0</ele><time>2026-04-26T12:59:32Z</time></trkpt><trkpt lat="39.889351166967366" lon="15.807258422900704"><ele>476.0</ele><time>2026-04-26T12:59:34Z</time></trkpt><trkpt lat="39.88923772885626" lon="15.807262816537454"><ele>476.0</ele><time>2026-04-26T12:59:36Z</time></trkpt><trkpt lat="39.88910400940772" lon="15.807228761692373"><ele>474.0</ele><time>2026-04-26T12:59:38Z</time></trkpt><trkpt lat="39.88902082625013" lon="15.807199748828"><ele>472.0</ele><time>2026-04-26T12:59:39Z</time></trkpt><trkpt lat="39.88892580555378" lon="15.80715131815347"><ele>470.0</ele><time>2026-04-26T12:59:40Z</time></trkpt><trkpt lat="39.8888204396101" lon="15.807077645902188"><ele>468.0</ele><time>2026-04-26T12:59:41Z</time></trkpt><trkpt lat="39.8887318320962" lon="15.80702208550564"><ele>466.0</ele><time>2026-04-26T12:59:42Z</time></trkpt><trkpt lat="39.888666596513076" lon="15.806979875264954"><ele>466.00000000000006</ele><time>2026-04-26T12:59:43Z</time></trkpt><trkpt lat="39.888608375484424" lon="15.806938587786762"><ele>466.0</ele><time>2026-04-26T12:59:44Z</time></trkpt><trkpt lat="39.88854146041161" lon="15.806901554700387"><ele>466.0</ele><time>2026-04-26T12:59:45Z</time></trkpt><trkpt lat="39.888429526418854" lon="15.806874070636518"><ele>466.0</ele><time>2026-04-26T12:59:47Z</time></trkpt><trkpt lat="39.88831736994138" lon="15.806849389144002"><ele>466.00000000000006</ele><time>2026-04-26T12:59:49Z</time></trkpt><trkpt lat="39.88824316796894" lon="15.806844393839093"><ele>466.0</ele><time>2026-04-26T12:59:51Z</time></trkpt><trkpt lat="39.88820442751064" lon="15.806728651997012"><ele>466.83333333333337</ele><time>2026-04-26T12:59:53Z</time></trkpt><trkpt lat="39.888250249607744" lon="15.806596101681853"><ele>467.6666666666667</ele><time>2026-04-26T12:59:55Z</time></trkpt><trkpt lat="39.88830601857402" lon="15.80655190161873"><ele>468.5</ele><time>2026-04-26T12:59:56Z</time></trkpt><trkpt lat="39.88837782972701" lon="15.806513536677388"><ele>469.33333333333337</ele><time>2026-04-26T12:59:57Z</time></trkpt><trkpt lat="39.8884497584349" lon="15.806508459632637"><ele>470.1666666666667</ele><time>2026-04-26T12:59:58Z</time></trkpt><trkpt lat="39.8885176745725" lon="15.806502966889305"><ele>471.0</ele><time>2026-04-26T12:59:59Z</time></trkpt><trkpt lat="39.8885756750043" lon="15.80643663647017"><ele>471.0</ele><time>2026-04-26T13:00:01Z</time></trkpt><trkpt lat="39.888558374397164" lon="15.806308682019457"><ele>471.0</ele><time>2026-04-26T13:00:02.999Z</time></trkpt><trkpt lat="39.8885031393466" lon="15.806229941195173"><ele>471.0</ele><time>2026-04-26T13:00:03.999Z</time></trkpt><trkpt lat="39.888415637931665" lon="15.806167208161153"><ele>471.0</ele><time>2026-04-26T13:00:04.999Z</time></trkpt><trkpt lat="39.88830162788119" lon="15.806094111926042"><ele>471.0</ele><time>2026-04-26T13:00:05.999Z</time></trkpt><trkpt lat="39.888175982199144" lon="15.806013160618406"><ele>468.25</ele><time>2026-04-26T13:00:06.999Z</time></trkpt><trkpt lat="39.88803645886576" lon="15.80598176940803"><ele>465.5</ele><time>2026-04-26T13:00:07.999Z</time></trkpt><trkpt lat="39.887915047874266" lon="15.805925768309192"><ele>462.75</ele><time>2026-04-26T13:00:08.999Z</time></trkpt><trkpt lat="39.887792869057996" lon="15.80586317106458"><ele>460.0</ele><time>2026-04-26T13:00:09.999Z</time></trkpt><trkpt lat="39.887684502481164" lon="15.805768017193598"><ele>452.25</ele><time>2026-04-26T13:00:10.999Z</time></trkpt><trkpt lat="39.88756729263812" lon="15.805638939740799"><ele>444.5</ele><time>2026-04-26T13:00:11.999Z</time></trkpt><trkpt lat="39.887470907635326" lon="15.805513889645532"><ele>436.75</ele><time>2026-04-26T13:00:12.999Z</time></trkpt><trkpt lat="39.887375517845726" lon="15.805385775066815"><ele>429.0</ele><time>2026-04-26T13:00:13.999Z</time></trkpt><trkpt lat="39.88729246120114" lon="15.805252889462674"><ele>431.75</ele><time>2026-04-26T13:00:14.999Z</time></trkpt><trkpt lat="39.88721603994965" lon="15.805119277736493"><ele>434.5</ele><time>2026-04-26T13:00:15.999Z</time></trkpt><trkpt lat="39.88715645841536" lon="15.804983047623447"><ele>437.25</ele><time>2026-04-26T13:00:16.999Z</time></trkpt><trkpt lat="39.88709888988489" lon="15.80486932448432"><ele>440.0</ele><time>2026-04-26T13:00:17.999Z</time></trkpt><trkpt lat="39.8870418098045" lon="15.804754696117906"><ele>440.0</ele><time>2026-04-26T13:00:18.999Z</time></trkpt><trkpt lat="39.88698728965325" lon="15.80463616692742"><ele>440.0</ele><time>2026-04-26T13:00:19.999Z</time></trkpt><trkpt lat="39.88693389727124" lon="15.804512362307744"><ele>440.0</ele><time>2026-04-26T13:00:20.999Z</time></trkpt><trkpt lat="39.88687943308231" lon="15.804378911634092"><ele>440.0</ele><time>2026-04-26T13:00:21.999Z</time></trkpt><trkpt lat="39.88683393831397" lon="15.80425533875636"><ele>440.0</ele><time>2026-04-26T13:00:22.999Z</time></trkpt><trkpt lat="39.88679143801007" lon="15.804123583956533"><ele>429.5</ele><time>2026-04-26T13:00:23.999Z</time></trkpt><trkpt lat="39.88676097217301" lon="15.803972580058202"><ele>419.0</ele><time>2026-04-26T13:00:24.999Z</time></trkpt><trkpt lat="39.886726184641894" lon="15.803822132609167"><ele>408.5</ele><time>2026-04-26T13:00:25.999Z</time></trkpt><trkpt lat="39.886686024746346" lon="15.803670889933047"><ele>398.0</ele><time>2026-04-26T13:00:26.999Z</time></trkpt><trkpt lat="39.886647139625055" lon="15.803523677113686"><ele>398.0</ele><time>2026-04-26T13:00:27.999Z</time></trkpt><trkpt lat="39.886611500258994" lon="15.803382275242113"><ele>398.0</ele><time>2026-04-26T13:00:28.999Z</time></trkpt><trkpt lat="39.88657418047681" lon="15.803246151235065"><ele>398.0</ele><time>2026-04-26T13:00:29.999Z</time></trkpt><trkpt lat="39.886539523089716" lon="15.803118405145224"><ele>398.0</ele><time>2026-04-26T13:00:30.999Z</time></trkpt><trkpt lat="39.88649588274931" lon="15.802989235054062"><ele>398.0</ele><time>2026-04-26T13:00:31.999Z</time></trkpt><trkpt lat="39.886450488921575" lon="15.802867418893536"><ele>397.99999999999994</ele><time>2026-04-26T13:00:32.999Z</time></trkpt><trkpt lat="39.886383422295665" lon="15.802760186426996"><ele>398.0</ele><time>2026-04-26T13:00:33.999Z</time></trkpt><trkpt lat="39.886325025439675" lon="15.802665659869607"><ele>398.0</ele><time>2026-04-26T13:00:34.999Z</time></trkpt><trkpt lat="39.886289968550734" lon="15.802580856742233"><ele>398.0</ele><time>2026-04-26T13:00:35.999Z</time></trkpt><trkpt lat="39.88627227498718" lon="15.802464896247017"><ele>397.99999999999994</ele><time>2026-04-26T13:00:37.999Z</time></trkpt><trkpt lat="39.88626997947665" lon="15.802369476141113"><ele>398.0</ele><time>2026-04-26T13:01:44Z</time></trkpt><trkpt lat="39.88641228325593" lon="15.802313035296846"><ele>395.2</ele><time>2026-04-26T13:01:46Z</time></trkpt><trkpt lat="39.88650450818584" lon="15.802267267461684"><ele>392.4</ele><time>2026-04-26T13:01:47Z</time></trkpt><trkpt lat="39.88658477174623" lon="15.802233337827346"><ele>389.59999999999997</ele><time>2026-04-26T13:01:48Z</time></trkpt><trkpt lat="39.886665084140375" lon="15.802145793459655"><ele>386.79999999999995</ele><time>2026-04-26T13:01:49Z</time></trkpt><trkpt lat="39.88672232306734" lon="15.802014112227672"><ele>384.0</ele><time>2026-04-26T13:01:50Z</time></trkpt><trkpt lat="39.88675950342767" lon="15.801856804227851"><ele>387.0</ele><time>2026-04-26T13:01:51Z</time></trkpt><trkpt lat="39.886782518625694" lon="15.801711677863278"><ele>390.0</ele><time>2026-04-26T13:01:52Z</time></trkpt><trkpt lat="39.88678729248671" lon="15.801573830564934"><ele>393.0</ele><time>2026-04-26T13:01:53Z</time></trkpt><trkpt lat="39.886771747754345" lon="15.801437267004053"><ele>396.0</ele><time>2026-04-26T13:01:54Z</time></trkpt><trkpt lat="39.88675514742647" lon="15.801292120248984"><ele>399.0</ele><time>2026-04-26T13:01:55Z</time></trkpt><trkpt lat="39.886746188805624" lon="15.801179381943362"><ele>392.3333333333333</ele><time>2026-04-26T13:01:56Z</time></trkpt><trkpt lat="39.88672930364296" lon="15.801098037089234"><ele>385.6666666666667</ele><time>2026-04-26T13:01:57Z</time></trkpt><trkpt lat="39.88667464538156" lon="15.801029978166088"><ele>379.0</ele><time>2026-04-26T13:02:00Z</time></trkpt><trkpt lat="39.886641917696245" lon="15.801122493507968"><ele>372.33333333333337</ele><time>2026-04-26T13:02:02Z</time></trkpt><trkpt lat="39.88657710663012" lon="15.801229793348037"><ele>365.6666666666667</ele><time>2026-04-26T13:02:03Z</time></trkpt><trkpt lat="39.886567610874025" lon="15.801327309189732"><ele>359.0</ele><time>2026-04-26T13:02:04Z</time></trkpt><trkpt lat="39.88654260085096" lon="15.801413743060982"><ele>359.0</ele><time>2026-04-26T13:02:05Z</time></trkpt><trkpt lat="39.88645745608678" lon="15.80143886890815"><ele>359.0</ele><time>2026-04-26T13:02:07Z</time></trkpt><trkpt lat="39.88641269748491" lon="15.80137324525934"><ele>359.0</ele><time>2026-04-26T13:02:08Z</time></trkpt><trkpt lat="39.886363267626045" lon="15.801172243725421"><ele>359.0</ele><time>2026-04-26T13:02:10Z</time></trkpt><trkpt lat="39.88636360394569" lon="15.80104694247576"><ele>359.0</ele><time>2026-04-26T13:02:11Z</time></trkpt><trkpt lat="39.886318625819385" lon="15.800985892116294"><ele>355.5</ele><time>2026-04-26T13:02:11.999Z</time></trkpt><trkpt lat="39.88627099283295" lon="15.800915651957979"><ele>352.0</ele><time>2026-04-26T13:02:12.999Z</time></trkpt><trkpt lat="39.88622626712607" lon="15.800843196505635"><ele>348.5</ele><time>2026-04-26T13:02:13.999Z</time></trkpt><trkpt lat="39.886196709258684" lon="15.800762385661066"><ele>345.0</ele><time>2026-04-26T13:02:14.999Z</time></trkpt><trkpt lat="39.88620161656781" lon="15.800666954272133"><ele>341.5</ele><time>2026-04-26T13:02:15.999Z</time></trkpt><trkpt lat="39.88623409668875" lon="15.800555638947193"><ele>338.0</ele><time>2026-04-26T13:02:16.999Z</time></trkpt><trkpt lat="39.88626973507632" lon="15.800447692876649"><ele>338.0</ele><time>2026-04-26T13:02:17.999Z</time></trkpt><trkpt lat="39.88632067234402" lon="15.800355284245743"><ele>338.0</ele><time>2026-04-26T13:02:18.999Z</time></trkpt><trkpt lat="39.8863904181289" lon="15.800273616414389"><ele>338.0</ele><time>2026-04-26T13:02:19.999Z</time></trkpt><trkpt lat="39.886495753939336" lon="15.800204651751558"><ele>338.0</ele><time>2026-04-26T13:02:20.999Z</time></trkpt><trkpt lat="39.886624308152456" lon="15.800139848185447"><ele>338.0</ele><time>2026-04-26T13:02:21.999Z</time></trkpt><trkpt lat="39.8867287308339" lon="15.800064181251537"><ele>337.2</ele><time>2026-04-26T13:02:22.999Z</time></trkpt><trkpt lat="39.88680907196181" lon="15.79996170446503"><ele>336.4</ele><time>2026-04-26T13:02:23.999Z</time></trkpt><trkpt lat="39.88686866963125" lon="15.79983047922733"><ele>335.59999999999997</ele><time>2026-04-26T13:02:24.999Z</time></trkpt><trkpt lat="39.88690394980045" lon="15.799706342447633"><ele>334.79999999999995</ele><time>2026-04-26T13:02:25.999Z</time></trkpt><trkpt lat="39.886939188922256" lon="15.79962820644626"><ele>334.0</ele><time>2026-04-26T13:02:26.999Z</time></trkpt><trkpt lat="39.88693336535558" lon="15.799513514052432"><ele>334.0</ele><time>2026-04-26T13:02:28.999Z</time></trkpt><trkpt lat="39.88684608881634" lon="15.799539455693921"><ele>334.0</ele><time>2026-04-26T13:02:30.999Z</time></trkpt><trkpt lat="39.88675658106857" lon="15.799592282573142"><ele>334.0</ele><time>2026-04-26T13:02:31.999Z</time></trkpt><trkpt lat="39.88670318091566" lon="15.799710395588825"><ele>334.0</ele><time>2026-04-26T13:02:32.999Z</time></trkpt><trkpt lat="39.88666512877444" lon="15.79980614117625"><ele>334.0</ele><time>2026-04-26T13:02:33.999Z</time></trkpt><trkpt lat="39.88661574922607" lon="15.799896663687868"><ele>329.0</ele><time>2026-04-26T13:02:34.999Z</time></trkpt><trkpt lat="39.88655778764899" lon="15.799933585321659"><ele>324.0</ele><time>2026-04-26T13:02:35.999Z</time></trkpt><trkpt lat="39.88645283886274" lon="15.799905808879576"><ele>319.0</ele><time>2026-04-26T13:02:37.999Z</time></trkpt><trkpt lat="39.88642831576278" lon="15.799827079391338"><ele>314.0</ele><time>2026-04-26T13:02:38.999Z</time></trkpt><trkpt lat="39.886473923736645" lon="15.799669403292697"><ele>309.0</ele><time>2026-04-26T13:02:40.999Z</time></trkpt><trkpt lat="39.88655006138852" lon="15.799573998745174"><ele>309.0</ele><time>2026-04-26T13:02:41.999Z</time></trkpt><trkpt lat="39.88660698366693" lon="15.799469642446159"><ele>309.0</ele><time>2026-04-26T13:02:42.999Z</time></trkpt><trkpt lat="39.886665387665914" lon="15.79935951069229"><ele>309.0</ele><time>2026-04-26T13:02:43.999Z</time></trkpt><trkpt lat="39.88672797656905" lon="15.799242577010396"><ele>309.0</ele><time>2026-04-26T13:02:44.999Z</time></trkpt><trkpt lat="39.886798812319554" lon="15.799139033586707"><ele>309.0</ele><time>2026-04-26T13:02:45.999Z</time></trkpt><trkpt lat="39.88688639599707" lon="15.79902811951388"><ele>308.5</ele><time>2026-04-26T13:02:46.999Z</time></trkpt><trkpt lat="39.88696472341081" lon="15.798922809858862"><ele>308.0</ele><time>2026-04-26T13:02:47.999Z</time></trkpt><trkpt lat="39.887019462058866" lon="15.798821375160458"><ele>307.5</ele><time>2026-04-26T13:02:48.999Z</time></trkpt><trkpt lat="39.887046773561316" lon="15.798740975352434"><ele>307.0</ele><time>2026-04-26T13:02:49.999Z</time></trkpt><trkpt lat="39.88697414201645" lon="15.798666574763557"><ele>306.5</ele><time>2026-04-26T13:02:51.999Z</time></trkpt><trkpt lat="39.88689495444603" lon="15.798648007916606"><ele>306.0</ele><time>2026-04-26T13:02:52.999Z</time></trkpt><trkpt lat="39.8868099230723" lon="15.798710667288628"><ele>301.0</ele><time>2026-04-26T13:02:53.999Z</time></trkpt><trkpt lat="39.88670016215005" lon="15.798766498550323"><ele>296.0</ele><time>2026-04-26T13:02:54.999Z</time></trkpt><trkpt lat="39.88658733621372" lon="15.798823887248647"><ele>291.0</ele><time>2026-04-26T13:02:55.999Z</time></trkpt><trkpt lat="39.88647757393507" lon="15.798919093126008"><ele>286.0</ele><time>2026-04-26T13:02:56.999Z</time></trkpt><trkpt lat="39.8863621583283" lon="15.79897485886521"><ele>286.0</ele><time>2026-04-26T13:02:57.999Z</time></trkpt><trkpt lat="39.88624884653926" lon="15.799027761215022"><ele>286.0</ele><time>2026-04-26T13:02:58.999Z</time></trkpt><trkpt lat="39.88613542342181" lon="15.799091936561117"><ele>286.0</ele><time>2026-04-26T13:02:59.999Z</time></trkpt><trkpt lat="39.88606686207622" lon="15.799054934777475"><ele>286.0</ele><time>2026-04-26T13:03:00.999Z</time></trkpt><trkpt lat="39.88594253900046" lon="15.799108140824968"><ele>286.0</ele><time>2026-04-26T13:03:01.999Z</time></trkpt><trkpt lat="39.88584614326849" lon="15.799129054157396"><ele>283.16666666666663</ele><time>2026-04-26T13:03:02.999Z</time></trkpt><trkpt lat="39.88576699515687" lon="15.799161316648414"><ele>280.3333333333333</ele><time>2026-04-26T13:03:03.999Z</time></trkpt><trkpt lat="39.88569875149692" lon="15.799115102465379"><ele>277.5</ele><time>2026-04-26T13:03:04.999Z</time></trkpt><trkpt lat="39.885647057194994" lon="15.799037344517638"><ele>274.6666666666667</ele><time>2026-04-26T13:03:05.999Z</time></trkpt><trkpt lat="39.885644951983004" lon="15.798907257985283"><ele>271.83333333333337</ele><time>2026-04-26T13:03:06.999Z</time></trkpt><trkpt lat="39.885685938396215" lon="15.798818531460908"><ele>269.0</ele><time>2026-04-26T13:03:07.999Z</time></trkpt><trkpt lat="39.88575861118876" lon="15.798742808800528"><ele>269.0</ele><time>2026-04-26T13:03:08.999Z</time></trkpt><trkpt lat="39.885871784302495" lon="15.798675526547992"><ele>269.0</ele><time>2026-04-26T13:03:09.999Z</time></trkpt><trkpt lat="39.88599636420545" lon="15.798614125674478"><ele>269.0</ele><time>2026-04-26T13:03:10.999Z</time></trkpt><trkpt lat="39.886096185864425" lon="15.79856206460567"><ele>269.0</ele><time>2026-04-26T13:03:11.999Z</time></trkpt><trkpt lat="39.88617951261937" lon="15.798508985494058"><ele>267.0</ele><time>2026-04-26T13:03:12.999Z</time></trkpt><trkpt lat="39.88624013624637" lon="15.798421208952064"><ele>265.0</ele><time>2026-04-26T13:03:13.999Z</time></trkpt><trkpt lat="39.886274603319585" lon="15.798302508288675"><ele>263.0</ele><time>2026-04-26T13:03:14.999Z</time></trkpt><trkpt lat="39.88630344931222" lon="15.798179320419406"><ele>261.0</ele><time>2026-04-26T13:03:15.999Z</time></trkpt><trkpt lat="39.886362907299926" lon="15.798072617637995"><ele>259.0</ele><time>2026-04-26T13:03:16.999Z</time></trkpt><trkpt lat="39.88646646103832" lon="15.797981943297037"><ele>259.0</ele><time>2026-04-26T13:03:17.999Z</time></trkpt><trkpt lat="39.88658757644385" lon="15.797877750598726"><ele>259.0</ele><time>2026-04-26T13:03:18.999Z</time></trkpt><trkpt lat="39.886696819242665" lon="15.797767556058474"><ele>259.0</ele><time>2026-04-26T13:03:19.999Z</time></trkpt><trkpt lat="39.886795893943706" lon="15.797664454807437"><ele>259.0</ele><time>2026-04-26T13:03:20.999Z</time></trkpt><trkpt lat="39.88689188526941" lon="15.79756840648957"><ele>256.59999999999997</ele><time>2026-04-26T13:03:21.999Z</time></trkpt><trkpt lat="39.88697220744355" lon="15.797460632024482"><ele>254.2</ele><time>2026-04-26T13:03:22.999Z</time></trkpt><trkpt lat="39.887035795000685" lon="15.797345440834237"><ele>251.79999999999998</ele><time>2026-04-26T13:03:23.999Z</time></trkpt><trkpt lat="39.88709465414176" lon="15.797244537066682"><ele>249.39999999999998</ele><time>2026-04-26T13:03:24.999Z</time></trkpt><trkpt lat="39.88713976403411" lon="15.797161722459645"><ele>247.0</ele><time>2026-04-26T13:03:25.999Z</time></trkpt><trkpt lat="39.88716294950403" lon="15.797084222808886"><ele>247.0</ele><time>2026-04-26T13:03:26.999Z</time></trkpt><trkpt lat="39.88713714072715" lon="15.796948948968687"><ele>247.0</ele><time>2026-04-26T13:03:28.999Z</time></trkpt><trkpt lat="39.887008170325274" lon="15.79694893123123"><ele>247.0</ele><time>2026-04-26T13:03:30.999Z</time></trkpt><trkpt lat="39.88690854625311" lon="15.797028660113018"><ele>247.0</ele><time>2026-04-26T13:03:32Z</time></trkpt><trkpt lat="39.8868041805701" lon="15.79710171382404"><ele>243.75</ele><time>2026-04-26T13:03:33Z</time></trkpt><trkpt lat="39.88670059350687" lon="15.797136316084165"><ele>240.5</ele><time>2026-04-26T13:03:34Z</time></trkpt><trkpt lat="39.88659331306796" lon="15.797128828516689"><ele>237.25</ele><time>2026-04-26T13:03:35Z</time></trkpt><trkpt lat="39.88647511361652" lon="15.79709117869485"><ele>234.0</ele><time>2026-04-26T13:03:36Z</time></trkpt><trkpt lat="39.88635397461488" lon="15.797082410032301"><ele>234.0</ele><time>2026-04-26T13:03:37Z</time></trkpt><trkpt lat="39.88625210432774" lon="15.797096082828213"><ele>234.0</ele><time>2026-04-26T13:03:38Z</time></trkpt><trkpt lat="39.88617418181469" lon="15.797108109000808"><ele>234.0</ele><time>2026-04-26T13:03:39Z</time></trkpt><trkpt lat="39.88610660424362" lon="15.797155094533213"><ele>234.0</ele><time>2026-04-26T13:03:40Z</time></trkpt><trkpt lat="39.886046900308486" lon="15.797119114817873"><ele>234.0</ele><time>2026-04-26T13:03:41Z</time></trkpt><trkpt lat="39.88603058805475" lon="15.796987210206359"><ele>234.0</ele><time>2026-04-26T13:03:42Z</time></trkpt><trkpt lat="39.88617345797076" lon="15.796936711462543"><ele>228.5</ele><time>2026-04-26T13:03:43Z</time></trkpt><trkpt lat="39.88626257788775" lon="15.796826349544627"><ele>223.0</ele><time>2026-04-26T13:03:44Z</time></trkpt><trkpt lat="39.88633881143134" lon="15.796653676479666"><ele>217.5</ele><time>2026-04-26T13:03:45Z</time></trkpt><trkpt lat="39.886442584546906" lon="15.796512002474032"><ele>212.0</ele><time>2026-04-26T13:03:46Z</time></trkpt><trkpt lat="39.8865299984411" lon="15.79640390142454"><ele>212.00000000000003</ele><time>2026-04-26T13:03:47Z</time></trkpt><trkpt lat="39.88659952522152" lon="15.796324421294827"><ele>212.0</ele><time>2026-04-26T13:03:48Z</time></trkpt><trkpt lat="39.88665438979141" lon="15.796249401230803"><ele>212.0</ele><time>2026-04-26T13:03:49Z</time></trkpt><trkpt lat="39.886689253770406" lon="15.796175968173223"><ele>212.0</ele><time>2026-04-26T13:03:50Z</time></trkpt><trkpt lat="39.88668945591056" lon="15.796088956419926"><ele>212.00000000000003</ele><time>2026-04-26T13:03:51Z</time></trkpt><trkpt lat="39.88666796036747" lon="15.79598128713846"><ele>212.0</ele><time>2026-04-26T13:03:52Z</time></trkpt><trkpt lat="39.88668257064064" lon="15.795873219565895"><ele>209.75</ele><time>2026-04-26T13:03:53Z</time></trkpt><trkpt lat="39.88675622963399" lon="15.795743450138621"><ele>207.5</ele><time>2026-04-26T13:03:54Z</time></trkpt><trkpt lat="39.886866455861295" lon="15.795651032432136"><ele>205.25</ele><time>2026-04-26T13:03:55Z</time></trkpt><trkpt lat="39.886987235109885" lon="15.795598330556592"><ele>203.0</ele><time>2026-04-26T13:03:56Z</time></trkpt><trkpt lat="39.887089772952294" lon="15.795566329567352"><ele>203.0</ele><time>2026-04-26T13:03:57Z</time></trkpt><trkpt lat="39.88716310413637" lon="15.795536582342125"><ele>203.0</ele><time>2026-04-26T13:03:58Z</time></trkpt><trkpt lat="39.887222105475125" lon="15.79548080010988"><ele>203.0</ele><time>2026-04-26T13:03:59Z</time></trkpt><trkpt lat="39.88727485525403" lon="15.795375912664479"><ele>203.0</ele><time>2026-04-26T13:04:00Z</time></trkpt><trkpt lat="39.88731105285274" lon="15.795243474873086"><ele>203.0</ele><time>2026-04-26T13:04:01Z</time></trkpt><trkpt lat="39.88736801852142" lon="15.795136113488596"><ele>199.4</ele><time>2026-04-26T13:04:02Z</time></trkpt><trkpt lat="39.887396415375946" lon="15.795021934363259"><ele>195.8</ele><time>2026-04-26T13:04:03Z</time></trkpt><trkpt lat="39.887410976742615" lon="15.794901414147263"><ele>192.2</ele><time>2026-04-26T13:04:04Z</time></trkpt><trkpt lat="39.88741650840594" lon="15.794783593727063"><ele>188.6</ele><time>2026-04-26T13:04:05Z</time></trkpt><trkpt lat="39.88743420617728" lon="15.794673058017517"><ele>185.0</ele><time>2026-04-26T13:04:06Z</time></trkpt><trkpt lat="39.88752387454527" lon="15.794615443549649"><ele>185.25</ele><time>2026-04-26T13:04:07Z</time></trkpt><trkpt lat="39.887622487232605" lon="15.794606678313071"><ele>185.5</ele><time>2026-04-26T13:04:08Z</time></trkpt><trkpt lat="39.88775519862578" lon="15.79451798206792"><ele>185.75</ele><time>2026-04-26T13:04:09Z</time></trkpt><trkpt lat="39.88786371386675" lon="15.794436791524573"><ele>186.0</ele><time>2026-04-26T13:04:10Z</time></trkpt><trkpt lat="39.887960134764604" lon="15.794374606920142"><ele>183.0</ele><time>2026-04-26T13:04:11Z</time></trkpt><trkpt lat="39.88805361948397" lon="15.794323301721649"><ele>180.0</ele><time>2026-04-26T13:04:12Z</time></trkpt><trkpt lat="39.888145361075" lon="15.79428929476376"><ele>177.0</ele><time>2026-04-26T13:04:13Z</time></trkpt><trkpt lat="39.888247649833716" lon="15.794256103370609"><ele>174.0</ele><time>2026-04-26T13:04:14Z</time></trkpt><trkpt lat="39.88832935491959" lon="15.794278831723176"><ele>171.0</ele><time>2026-04-26T13:04:15Z</time></trkpt><trkpt lat="39.88841437356358" lon="15.794272686980893"><ele>173.20000000000002</ele><time>2026-04-26T13:04:16Z</time></trkpt><trkpt lat="39.888484606694036" lon="15.794267610975352"><ele>175.4</ele><time>2026-04-26T13:04:17Z</time></trkpt><trkpt lat="39.88858190973655" lon="15.794218390007696"><ele>177.6</ele><time>2026-04-26T13:04:18Z</time></trkpt><trkpt lat="39.88864486128795" lon="15.794035392309157"><ele>179.8</ele><time>2026-04-26T13:04:19Z</time></trkpt><trkpt lat="39.88863910017619" lon="15.793900917150332"><ele>182.0</ele><time>2026-04-26T13:04:20Z</time></trkpt><trkpt lat="39.888664686694575" lon="15.79379811420412"><ele>182.0</ele><time>2026-04-26T13:04:21Z</time></trkpt><trkpt lat="39.88870650585922" lon="15.793714698378071"><ele>182.0</ele><time>2026-04-26T13:04:22Z</time></trkpt><trkpt lat="39.88878797274471" lon="15.793702404350778"><ele>182.0</ele><time>2026-04-26T13:04:23Z</time></trkpt><trkpt lat="39.888873297682146" lon="15.7936211376501"><ele>182.0</ele><time>2026-04-26T13:04:24Z</time></trkpt><trkpt lat="39.888939644816794" lon="15.793542589184677"><ele>182.0</ele><time>2026-04-26T13:04:25Z</time></trkpt><trkpt lat="39.888992730752605" lon="15.79346451041994"><ele>182.0</ele><time>2026-04-26T13:04:26Z</time></trkpt><trkpt lat="39.889049304238036" lon="15.793383714007605"><ele>180.2</ele><time>2026-04-26T13:04:27Z</time></trkpt><trkpt lat="39.8890792963347" lon="15.793248253698094"><ele>178.39999999999998</ele><time>2026-04-26T13:04:28Z</time></trkpt><trkpt lat="39.88913539818576" lon="15.793158433255849"><ele>176.60000000000002</ele><time>2026-04-26T13:04:28.999Z</time></trkpt><trkpt lat="39.88920198623112" lon="15.793071413000797"><ele>174.8</ele><time>2026-04-26T13:04:29.999Z</time></trkpt><trkpt lat="39.88927722573108" lon="15.793027855274277"><ele>173.0</ele><time>2026-04-26T13:04:30.999Z</time></trkpt><trkpt lat="39.88935278202846" lon="15.792960191271858"><ele>173.0</ele><time>2026-04-26T13:04:31.999Z</time></trkpt><trkpt lat="39.88942343604313" lon="15.79288755733165"><ele>173.0</ele><time>2026-04-26T13:04:32.999Z</time></trkpt><trkpt lat="39.88949244958657" lon="15.792812633132883"><ele>173.0</ele><time>2026-04-26T13:04:33.999Z</time></trkpt><trkpt lat="39.88957681083327" lon="15.79275836263748"><ele>173.0</ele><time>2026-04-26T13:04:34.999Z</time></trkpt><trkpt lat="39.88966803078147" lon="15.792721620546013"><ele>173.0</ele><time>2026-04-26T13:04:35.999Z</time></trkpt><trkpt lat="39.889755618281455" lon="15.792697733564877"><ele>173.0</ele><time>2026-04-26T13:04:36.999Z</time></trkpt><trkpt lat="39.8898403618063" lon="15.792673856203649"><ele>173.0</ele><time>2026-04-26T13:04:37.999Z</time></trkpt><trkpt lat="39.88990942906466" lon="15.792663155098976"><ele>173.0</ele><time>2026-04-26T13:04:38.999Z</time></trkpt><trkpt lat="39.88998572413278" lon="15.792651982333176"><ele>173.0</ele><time>2026-04-26T13:04:39.999Z</time></trkpt><trkpt lat="39.89006080295126" lon="15.792641979664996"><ele>173.0</ele><time>2026-04-26T13:04:40.999Z</time></trkpt><trkpt lat="39.890149440738284" lon="15.79262994590458"><ele>173.0</ele><time>2026-04-26T13:04:42.999Z</time></trkpt><trkpt lat="39.89006377414607" lon="15.792472371437464"><ele>169.20000000000002</ele><time>2026-04-26T13:04:48.999Z</time></trkpt><trkpt lat="39.89005649570167" lon="15.79237285206546"><ele>165.4</ele><time>2026-04-26T13:05:32.999Z</time></trkpt><trkpt lat="39.88996527642105" lon="15.792348231629337"><ele>161.60000000000002</ele><time>2026-04-26T13:05:34.999Z</time></trkpt><trkpt lat="39.88993104031645" lon="15.792277666175911"><ele>157.8</ele><time>2026-04-26T13:05:38Z</time></trkpt><trkpt lat="39.889824019910286" lon="15.79218921742922"><ele>154.0</ele><time>2026-04-26T13:05:44Z</time></trkpt><trkpt lat="39.889735459268444" lon="15.792212920960411"><ele>154.0</ele><time>2026-04-26T13:05:45Z</time></trkpt><trkpt lat="39.889638480296775" lon="15.792270945391602"><ele>154.0</ele><time>2026-04-26T13:05:46Z</time></trkpt><trkpt lat="39.88952383985884" lon="15.792339061990385"><ele>154.0</ele><time>2026-04-26T13:05:47Z</time></trkpt><trkpt lat="39.8893877608319" lon="15.792386018048864"><ele>154.0</ele><time>2026-04-26T13:05:48Z</time></trkpt><trkpt lat="39.88924744957534" lon="15.792435110772372"><ele>154.0</ele><time>2026-04-26T13:05:49Z</time></trkpt><trkpt lat="39.88911324030368" lon="15.792498112060212"><ele>154.0</ele><time>2026-04-26T13:05:50Z</time></trkpt><trkpt lat="39.88898086281077" lon="15.792560015205694"><ele>154.0</ele><time>2026-04-26T13:05:51Z</time></trkpt><trkpt lat="39.88884264656341" lon="15.792623424432039"><ele>154.0</ele><time>2026-04-26T13:05:52Z</time></trkpt><trkpt lat="39.88869323519742" lon="15.792694566724808"><ele>154.66666666666669</ele><time>2026-04-26T13:05:53Z</time></trkpt><trkpt lat="39.888531919755" lon="15.79276747962305"><ele>155.33333333333334</ele><time>2026-04-26T13:05:54Z</time></trkpt><trkpt lat="39.88836237869558" lon="15.792841642455446"><ele>156.0</ele><time>2026-04-26T13:05:55Z</time></trkpt><trkpt lat="39.88820041587617" lon="15.79291627206373"><ele>156.0</ele><time>2026-04-26T13:05:56Z</time></trkpt><trkpt lat="39.88804214441931" lon="15.792991304355748"><ele>156.0</ele><time>2026-04-26T13:05:57Z</time></trkpt><trkpt lat="39.887875455809215" lon="15.793068560078037"><ele>156.0</ele><time>2026-04-26T13:05:58Z</time></trkpt><trkpt lat="39.88771173957865" lon="15.793141367788605"><ele>153.66666666666666</ele><time>2026-04-26T13:05:59Z</time></trkpt><trkpt lat="39.88754840027829" lon="15.793206949469647"><ele>151.33333333333331</ele><time>2026-04-26T13:06:00Z</time></trkpt><trkpt lat="39.88738138817011" lon="15.793272564549234"><ele>149.0</ele><time>2026-04-26T13:06:01Z</time></trkpt><trkpt lat="39.8872146150533" lon="15.793338303334345"><ele>149.0</ele><time>2026-04-26T13:06:02Z</time></trkpt><trkpt lat="39.88705563649146" lon="15.793396367399344"><ele>149.0</ele><time>2026-04-26T13:06:03Z</time></trkpt><trkpt lat="39.886897239804746" lon="15.793437086974981"><ele>149.0</ele><time>2026-04-26T13:06:04Z</time></trkpt><trkpt lat="39.8867220316605" lon="15.793466086246632"><ele>147.66666666666666</ele><time>2026-04-26T13:06:05Z</time></trkpt><trkpt lat="39.88653157574245" lon="15.793482270370594"><ele>146.33333333333334</ele><time>2026-04-26T13:06:06Z</time></trkpt><trkpt lat="39.88633612990383" lon="15.793502840901947"><ele>145.0</ele><time>2026-04-26T13:06:07Z</time></trkpt><trkpt lat="39.88613715520703" lon="15.793528266995429"><ele>147.0</ele><time>2026-04-26T13:06:08Z</time></trkpt><trkpt lat="39.88593861940649" lon="15.793556600637197"><ele>149.0</ele><time>2026-04-26T13:06:09Z</time></trkpt><trkpt lat="39.885739680529404" lon="15.793578604332499"><ele>151.0</ele><time>2026-04-26T13:06:10Z</time></trkpt><trkpt lat="39.88554095264265" lon="15.793602394313956"><ele>151.0</ele><time>2026-04-26T13:06:11Z</time></trkpt><trkpt lat="39.88533938077435" lon="15.793623150499917"><ele>151.0</ele><time>2026-04-26T13:06:12Z</time></trkpt><trkpt lat="39.88513612546902" lon="15.793645472256816"><ele>151.0</ele><time>2026-04-26T13:06:13Z</time></trkpt><trkpt lat="39.884931153374055" lon="15.793666927292119"><ele>143.0</ele><time>2026-04-26T13:06:14Z</time></trkpt><trkpt lat="39.88472621730591" lon="15.793691060626326"><ele>135.0</ele><time>2026-04-26T13:06:15Z</time></trkpt><trkpt lat="39.884524574400714" lon="15.793713316716833"><ele>127.0</ele><time>2026-04-26T13:06:16Z</time></trkpt><trkpt lat="39.88432541747273" lon="15.793736049605148"><ele>127.0</ele><time>2026-04-26T13:06:17Z</time></trkpt><trkpt lat="39.88412784620527" lon="15.79375895668642"><ele>127.0</ele><time>2026-04-26T13:06:18Z</time></trkpt><trkpt lat="39.88393498278828" lon="15.793781653286382"><ele>127.0</ele><time>2026-04-26T13:06:19Z</time></trkpt><trkpt lat="39.883738474252254" lon="15.793804598827753"><ele>127.0</ele><time>2026-04-26T13:06:20Z</time></trkpt><trkpt lat="39.883542909923904" lon="15.793829988569247"><ele>127.0</ele><time>2026-04-26T13:06:21Z</time></trkpt><trkpt lat="39.8833432235218" lon="15.793854977815656"><ele>127.0</ele><time>2026-04-26T13:06:22Z</time></trkpt><trkpt lat="39.88313950185013" lon="15.79388383187904"><ele>130.33333333333334</ele><time>2026-04-26T13:06:23Z</time></trkpt><trkpt lat="39.88293579885107" lon="15.793922063628644"><ele>133.66666666666666</ele><time>2026-04-26T13:06:24Z</time></trkpt><trkpt lat="39.88273264790853" lon="15.793961218259998"><ele>137.0</ele><time>2026-04-26T13:06:25Z</time></trkpt><trkpt lat="39.88253072557274" lon="15.79400228905742"><ele>137.0</ele><time>2026-04-26T13:06:26Z</time></trkpt><trkpt lat="39.88233109800683" lon="15.794048842571188"><ele>137.0</ele><time>2026-04-26T13:06:27Z</time></trkpt><trkpt lat="39.88213261651541" lon="15.794102231019206"><ele>137.0</ele><time>2026-04-26T13:06:28Z</time></trkpt><trkpt lat="39.88193103268329" lon="15.794153251281971"><ele>135.33333333333331</ele><time>2026-04-26T13:06:29Z</time></trkpt><trkpt lat="39.88172441789862" lon="15.794199229724821"><ele>133.66666666666666</ele><time>2026-04-26T13:06:30Z</time></trkpt><trkpt lat="39.881515701025286" lon="15.794251091492319"><ele>132.0</ele><time>2026-04-26T13:06:30.999Z</time></trkpt><trkpt lat="39.88131808183807" lon="15.794301721810585"><ele>133.66666666666666</ele><time>2026-04-26T13:06:31.999Z</time></trkpt><trkpt lat="39.88112860393775" lon="15.794347974422767"><ele>135.33333333333331</ele><time>2026-04-26T13:06:32.999Z</time></trkpt><trkpt lat="39.88093986236387" lon="15.79439731119278"><ele>137.0</ele><time>2026-04-26T13:06:33.999Z</time></trkpt><trkpt lat="39.88075040554674" lon="15.794446368963118"><ele>137.0</ele><time>2026-04-26T13:06:34.999Z</time></trkpt><trkpt lat="39.88056112067065" lon="15.7944935701483"><ele>137.0</ele><time>2026-04-26T13:06:35.999Z</time></trkpt><trkpt lat="39.8803750107229" lon="15.79453814446084"><ele>137.0</ele><time>2026-04-26T13:06:36.999Z</time></trkpt><trkpt lat="39.880189908428" lon="15.794585256393614"><ele>135.0</ele><time>2026-04-26T13:06:37.999Z</time></trkpt><trkpt lat="39.88000362296203" lon="15.794633185031882"><ele>133.0</ele><time>2026-04-26T13:06:38.999Z</time></trkpt><trkpt lat="39.8798158922772" lon="15.79467520304078"><ele>131.0</ele><time>2026-04-26T13:06:39.999Z</time></trkpt><trkpt lat="39.87962682920278" lon="15.794721312358051"><ele>131.0</ele><time>2026-04-26T13:06:40.999Z</time></trkpt><trkpt lat="39.87943664809286" lon="15.79477480824762"><ele>131.0</ele><time>2026-04-26T13:06:41.999Z</time></trkpt><trkpt lat="39.879243916137376" lon="15.79482101467115"><ele>131.0</ele><time>2026-04-26T13:06:42.999Z</time></trkpt><trkpt lat="39.879048139056145" lon="15.794865593323877"><ele>129.66666666666666</ele><time>2026-04-26T13:06:43.999Z</time></trkpt><trkpt lat="39.87885289653966" lon="15.794913463574648"><ele>128.33333333333334</ele><time>2026-04-26T13:06:44.999Z</time></trkpt><trkpt lat="39.87865639143056" lon="15.7949594183637"><ele>127.0</ele><time>2026-04-26T13:06:45.999Z</time></trkpt><trkpt lat="39.878460936670756" lon="15.795002057318028"><ele>125.66666666666667</ele><time>2026-04-26T13:06:46.999Z</time></trkpt><trkpt lat="39.878265036091136" lon="15.795038277918968"><ele>124.33333333333334</ele><time>2026-04-26T13:06:47.999Z</time></trkpt><trkpt lat="39.878068703778155" lon="15.795066601923475"><ele>123.0</ele><time>2026-04-26T13:06:48.999Z</time></trkpt><trkpt lat="39.87787508374588" lon="15.795088523649886"><ele>123.0</ele><time>2026-04-26T13:06:49.999Z</time></trkpt><trkpt lat="39.877682903715495" lon="15.795102289797718"><ele>123.0</ele><time>2026-04-26T13:06:50.999Z</time></trkpt><trkpt lat="39.877485225816784" lon="15.795105511445424"><ele>123.0</ele><time>2026-04-26T13:06:51.999Z</time></trkpt><trkpt lat="39.877287881788945" lon="15.795105536056562"><ele>123.0</ele><time>2026-04-26T13:06:52.999Z</time></trkpt><trkpt lat="39.87709594543649" lon="15.795102393435705"><ele>123.0</ele><time>2026-04-26T13:06:53.999Z</time></trkpt><trkpt lat="39.8769050067095" lon="15.795094963636474"><ele>123.0</ele><time>2026-04-26T13:06:54.999Z</time></trkpt><trkpt lat="39.87671104831946" lon="15.795088923756513"><ele>123.0</ele><time>2026-04-26T13:06:55.999Z</time></trkpt><trkpt lat="39.87651329145412" lon="15.795085488701059"><ele>123.0</ele><time>2026-04-26T13:06:56.999Z</time></trkpt><trkpt lat="39.876314959427425" lon="15.795084648443392"><ele>123.0</ele><time>2026-04-26T13:06:57.999Z</time></trkpt><trkpt lat="39.876113627903955" lon="15.795081672966749"><ele>122.33333333333334</ele><time>2026-04-26T13:06:58.999Z</time></trkpt><trkpt lat="39.87591247420718" lon="15.795071943379506"><ele>121.66666666666667</ele><time>2026-04-26T13:06:59.999Z</time></trkpt><trkpt lat="39.875707979990636" lon="15.79505852888461"><ele>121.0</ele><time>2026-04-26T13:07:00.999Z</time></trkpt><trkpt lat="39.87550798547537" lon="15.79505011764243"><ele>121.0</ele><time>2026-04-26T13:07:01.999Z</time></trkpt><trkpt lat="39.875309063361904" lon="15.795046014472794"><ele>121.0</ele><time>2026-04-26T13:07:02.999Z</time></trkpt><trkpt lat="39.875107791782376" lon="15.795041467261198"><ele>121.0</ele><time>2026-04-26T13:07:03.999Z</time></trkpt><trkpt lat="39.87490653338919" lon="15.795034960701853"><ele>120.0</ele><time>2026-04-26T13:07:04.999Z</time></trkpt><trkpt lat="39.874700458488384" lon="15.795028376118593"><ele>119.0</ele><time>2026-04-26T13:07:05.999Z</time></trkpt><trkpt lat="39.87448961719722" lon="15.79502503223216"><ele>118.0</ele><time>2026-04-26T13:07:06.999Z</time></trkpt><trkpt lat="39.874275933243354" lon="15.795017830510295"><ele>117.0</ele><time>2026-04-26T13:07:07.999Z</time></trkpt><trkpt lat="39.874060392254286" lon="15.79501348002377"><ele>116.0</ele><time>2026-04-26T13:07:08.999Z</time></trkpt><trkpt lat="39.87384509896968" lon="15.79500949127304"><ele>115.0</ele><time>2026-04-26T13:07:09.999Z</time></trkpt><trkpt lat="39.87363157790753" lon="15.795004024537159"><ele>114.0</ele><time>2026-04-26T13:07:10.999Z</time></trkpt><trkpt lat="39.87341598156841" lon="15.794996206644512"><ele>113.0</ele><time>2026-04-26T13:07:11.999Z</time></trkpt><trkpt lat="39.87320120022588" lon="15.79499118512514"><ele>112.0</ele><time>2026-04-26T13:07:12.999Z</time></trkpt><trkpt lat="39.87298437394655" lon="15.794986675308262"><ele>112.0</ele><time>2026-04-26T13:07:13.999Z</time></trkpt><trkpt lat="39.872768239299994" lon="15.794982013301725"><ele>112.0</ele><time>2026-04-26T13:07:14.999Z</time></trkpt><trkpt lat="39.87255614237124" lon="15.794980616462043"><ele>112.0</ele><time>2026-04-26T13:07:15.999Z</time></trkpt><trkpt lat="39.8723565555109" lon="15.794977056931984"><ele>110.66666666666667</ele><time>2026-04-26T13:07:16.999Z</time></trkpt><trkpt lat="39.872156859953904" lon="15.794972492919122"><ele>109.33333333333334</ele><time>2026-04-26T13:07:17.999Z</time></trkpt><trkpt lat="39.87195578498356" lon="15.794979796832207"><ele>108.0</ele><time>2026-04-26T13:07:18.999Z</time></trkpt><trkpt lat="39.87175419570599" lon="15.795005109695738"><ele>107.0</ele><time>2026-04-26T13:07:19.999Z</time></trkpt><trkpt lat="39.871554149769544" lon="15.795041291064356"><ele>106.0</ele><time>2026-04-26T13:07:20.999Z</time></trkpt><trkpt lat="39.871356822980744" lon="15.79508112357791"><ele>105.0</ele><time>2026-04-26T13:07:21.999Z</time></trkpt><trkpt lat="39.871162191738975" lon="15.795133952604951"><ele>103.33333333333334</ele><time>2026-04-26T13:07:22.999Z</time></trkpt><trkpt lat="39.87096839382949" lon="15.795197522844575"><ele>101.66666666666667</ele><time>2026-04-26T13:07:23.999Z</time></trkpt><trkpt lat="39.87077570251448" lon="15.795264416175062"><ele>100.0</ele><time>2026-04-26T13:07:24.999Z</time></trkpt><trkpt lat="39.8705845678189" lon="15.795338251539118"><ele>100.0</ele><time>2026-04-26T13:07:25.999Z</time></trkpt><trkpt lat="39.870394916975286" lon="15.79541010024794"><ele>100.0</ele><time>2026-04-26T13:07:26.999Z</time></trkpt><trkpt lat="39.870204953184164" lon="15.795478659878574"><ele>100.0</ele><time>2026-04-26T13:07:27.999Z</time></trkpt><trkpt lat="39.870023317113336" lon="15.795543915735829"><ele>92.66666666666667</ele><time>2026-04-26T13:07:28.999Z</time></trkpt><trkpt lat="39.86985018491487" lon="15.795612765614814"><ele>85.33333333333334</ele><time>2026-04-26T13:07:29.999Z</time></trkpt><trkpt lat="39.86967688051749" lon="15.795682051217417"><ele>78.0</ele><time>2026-04-26T13:07:30.999Z</time></trkpt><trkpt lat="39.86950645610677" lon="15.795748913059999"><ele>78.0</ele><time>2026-04-26T13:07:31.999Z</time></trkpt><trkpt lat="39.86933478718489" lon="15.79581158321239"><ele>78.0</ele><time>2026-04-26T13:07:32.999Z</time></trkpt><trkpt lat="39.869161902843615" lon="15.795869299875374"><ele>78.0</ele><time>2026-04-26T13:07:33.999Z</time></trkpt><trkpt lat="39.86899038446486" lon="15.795935549365419"><ele>82.0</ele><time>2026-04-26T13:07:34.999Z</time></trkpt><trkpt lat="39.868815592661875" lon="15.796003158058832"><ele>86.0</ele><time>2026-04-26T13:07:35.999Z</time></trkpt><trkpt lat="39.868640952877534" lon="15.79606783138724"><ele>90.0</ele><time>2026-04-26T13:07:36.999Z</time></trkpt><trkpt lat="39.86846261506332" lon="15.796131835544209"><ele>96.0</ele><time>2026-04-26T13:07:37.999Z</time></trkpt><trkpt lat="39.86828098627137" lon="15.79619046031212"><ele>102.0</ele><time>2026-04-26T13:07:38.999Z</time></trkpt><trkpt lat="39.868095863636164" lon="15.796239566290616"><ele>108.0</ele><time>2026-04-26T13:07:39.999Z</time></trkpt><trkpt lat="39.867905842940075" lon="15.79627521639547"><ele>108.0</ele><time>2026-04-26T13:07:40.999Z</time></trkpt><trkpt lat="39.86771627382433" lon="15.796292856671387"><ele>108.0</ele><time>2026-04-26T13:07:41.999Z</time></trkpt><trkpt lat="39.867528515136385" lon="15.796333006027176"><ele>108.0</ele><time>2026-04-26T13:07:42.999Z</time></trkpt><trkpt lat="39.867338035779426" lon="15.796314811277462"><ele>106.0</ele><time>2026-04-26T13:07:44Z</time></trkpt><trkpt lat="39.86715426523875" lon="15.796333868017946"><ele>104.0</ele><time>2026-04-26T13:07:45Z</time></trkpt><trkpt lat="39.86697072213116" lon="15.796350554941538"><ele>102.0</ele><time>2026-04-26T13:07:46Z</time></trkpt><trkpt lat="39.866793041384625" lon="15.796362101167675"><ele>104.33333333333334</ele><time>2026-04-26T13:07:47Z</time></trkpt><trkpt lat="39.866615464981216" lon="15.796375293053774"><ele>106.66666666666667</ele><time>2026-04-26T13:07:48Z</time></trkpt><trkpt lat="39.86644005798406" lon="15.796392387452178"><ele>109.0</ele><time>2026-04-26T13:07:49Z</time></trkpt><trkpt lat="39.86626308699563" lon="15.79640881715034"><ele>109.0</ele><time>2026-04-26T13:07:50Z</time></trkpt><trkpt lat="39.86608217842061" lon="15.796415711635682"><ele>109.0</ele><time>2026-04-26T13:07:51Z</time></trkpt><trkpt lat="39.86589843613557" lon="15.796426440685446"><ele>109.0</ele><time>2026-04-26T13:07:52Z</time></trkpt><trkpt lat="39.86571119463587" lon="15.796441934819693"><ele>110.33333333333334</ele><time>2026-04-26T13:07:53Z</time></trkpt><trkpt lat="39.865521539191334" lon="15.796451497747071"><ele>111.66666666666666</ele><time>2026-04-26T13:07:54Z</time></trkpt><trkpt lat="39.86533037657161" lon="15.79645723664943"><ele>113.0</ele><time>2026-04-26T13:07:55Z</time></trkpt><trkpt lat="39.865140951674285" lon="15.796468696103208"><ele>114.66666666666666</ele><time>2026-04-26T13:07:56Z</time></trkpt><trkpt lat="39.86495198907319" lon="15.796483920042785"><ele>116.33333333333334</ele><time>2026-04-26T13:07:57Z</time></trkpt><trkpt lat="39.86476348612516" lon="15.796501800531509"><ele>118.0</ele><time>2026-04-26T13:07:58Z</time></trkpt><trkpt lat="39.86457436753404" lon="15.796513949972459"><ele>118.0</ele><time>2026-04-26T13:07:59Z</time></trkpt><trkpt lat="39.864385867278635" lon="15.796524174621405"><ele>118.0</ele><time>2026-04-26T13:08:00Z</time></trkpt><trkpt lat="39.86419725804098" lon="15.79653763542813"><ele>118.0</ele><time>2026-04-26T13:08:01Z</time></trkpt><trkpt lat="39.86400978111971" lon="15.796553467511824"><ele>119.0</ele><time>2026-04-26T13:08:02Z</time></trkpt><trkpt lat="39.8638207652471" lon="15.796566033143618"><ele>120.0</ele><time>2026-04-26T13:08:03Z</time></trkpt><trkpt lat="39.86363265003218" lon="15.796581597640358"><ele>121.0</ele><time>2026-04-26T13:08:04Z</time></trkpt><trkpt lat="39.86344539331863" lon="15.796600648250681"><ele>121.33333333333334</ele><time>2026-04-26T13:08:05Z</time></trkpt><trkpt lat="39.86325889232812" lon="15.796628020485707"><ele>121.66666666666666</ele><time>2026-04-26T13:08:06Z</time></trkpt><trkpt lat="39.86307316047242" lon="15.796669213754107"><ele>122.0</ele><time>2026-04-26T13:08:07Z</time></trkpt><trkpt lat="39.86289036755639" lon="15.796728359351333"><ele>122.0</ele><time>2026-04-26T13:08:08Z</time></trkpt><trkpt lat="39.86270999616298" lon="15.796803882859002"><ele>122.0</ele><time>2026-04-26T13:08:09Z</time></trkpt><trkpt lat="39.862532256100735" lon="15.796889621816831"><ele>122.0</ele><time>2026-04-26T13:08:10Z</time></trkpt><trkpt lat="39.862356139103426" lon="15.796981832064448"><ele>123.66666666666666</ele><time>2026-04-26T13:08:11Z</time></trkpt><trkpt lat="39.86218052704418" lon="15.79707889702207"><ele>125.33333333333334</ele><time>2026-04-26T13:08:12Z</time></trkpt><trkpt lat="39.862006086668806" lon="15.797179614555496"><ele>127.0</ele><time>2026-04-26T13:08:13Z</time></trkpt><trkpt lat="39.861833701636954" lon="15.79727887136948"><ele>125.33333333333334</ele><time>2026-04-26T13:08:14Z</time></trkpt><trkpt lat="39.861658310698644" lon="15.797380321658254"><ele>123.66666666666666</ele><time>2026-04-26T13:08:15Z</time></trkpt><trkpt lat="39.86148422484558" lon="15.797480203128814"><ele>122.0</ele><time>2026-04-26T13:08:16Z</time></trkpt><trkpt lat="39.861311189299435" lon="15.797577166120549"><ele>122.0</ele><time>2026-04-26T13:08:17Z</time></trkpt><trkpt lat="39.861136547699076" lon="15.797668366565787"><ele>122.0</ele><time>2026-04-26T13:08:18Z</time></trkpt><trkpt lat="39.860961714921096" lon="15.797756633617096"><ele>122.0</ele><time>2026-04-26T13:08:19Z</time></trkpt><trkpt lat="39.860780655117885" lon="15.797837466825042"><ele>120.0</ele><time>2026-04-26T13:08:20Z</time></trkpt><trkpt lat="39.86059751629224" lon="15.797900940293951"><ele>118.0</ele><time>2026-04-26T13:08:21Z</time></trkpt><trkpt lat="39.860410046053495" lon="15.797948179280043"><ele>116.0</ele><time>2026-04-26T13:08:22Z</time></trkpt><trkpt lat="39.86022896580766" lon="15.797972733203403"><ele>112.66666666666666</ele><time>2026-04-26T13:08:23Z</time></trkpt><trkpt lat="39.86005186206944" lon="15.797977453485007"><ele>109.33333333333334</ele><time>2026-04-26T13:08:24Z</time></trkpt><trkpt lat="39.859875354580815" lon="15.797972203872146"><ele>106.0</ele><time>2026-04-26T13:08:25Z</time></trkpt><trkpt lat="39.85970542089049" lon="15.797953706328316"><ele>106.0</ele><time>2026-04-26T13:08:26Z</time></trkpt><trkpt lat="39.85953997730731" lon="15.797917939780373"><ele>106.0</ele><time>2026-04-26T13:08:27Z</time></trkpt><trkpt lat="39.85937523739736" lon="15.79787321813812"><ele>106.0</ele><time>2026-04-26T13:08:28Z</time></trkpt><trkpt lat="39.85921142808497" lon="15.797820973200752"><ele>105.66666666666667</ele><time>2026-04-26T13:08:29Z</time></trkpt><trkpt lat="39.85904430964055" lon="15.797746774005809"><ele>105.33333333333334</ele><time>2026-04-26T13:08:30Z</time></trkpt><trkpt lat="39.8588771791761" lon="15.79764628058545"><ele>105.0</ele><time>2026-04-26T13:08:31Z</time></trkpt><trkpt lat="39.85870978467382" lon="15.79753203610947"><ele>105.0</ele><time>2026-04-26T13:08:32Z</time></trkpt><trkpt lat="39.858541430613265" lon="15.797413163290523"><ele>105.0</ele><time>2026-04-26T13:08:33Z</time></trkpt><trkpt lat="39.858368312433925" lon="15.797291726386433"><ele>105.0</ele><time>2026-04-26T13:08:34Z</time></trkpt><trkpt lat="39.858189086515154" lon="15.797177560314243"><ele>104.0</ele><time>2026-04-26T13:08:35Z</time></trkpt><trkpt lat="39.85800989711249" lon="15.797067717541303"><ele>103.0</ele><time>2026-04-26T13:08:35.999Z</time></trkpt><trkpt lat="39.8578407591283" lon="15.796951811955594"><ele>102.0</ele><time>2026-04-26T13:08:36.999Z</time></trkpt><trkpt lat="39.85767742851646" lon="15.796834066231419"><ele>90.33333333333333</ele><time>2026-04-26T13:08:37.999Z</time></trkpt><trkpt lat="39.85751485586565" lon="15.796725570050661"><ele>78.66666666666666</ele><time>2026-04-26T13:08:38.999Z</time></trkpt><trkpt lat="39.857354590611855" lon="15.796614933700535"><ele>67.0</ele><time>2026-04-26T13:08:39.999Z</time></trkpt><trkpt lat="39.8571991068847" lon="15.796505404757697"><ele>67.0</ele><time>2026-04-26T13:08:40.999Z</time></trkpt><trkpt lat="39.85703220162048" lon="15.796414071104865"><ele>67.0</ele><time>2026-04-26T13:08:41.999Z</time></trkpt><trkpt lat="39.85688096421499" lon="15.796287067318806"><ele>67.0</ele><time>2026-04-26T13:08:42.999Z</time></trkpt><trkpt lat="39.85671358014258" lon="15.7961955225204"><ele>76.33333333333333</ele><time>2026-04-26T13:08:43.999Z</time></trkpt><trkpt lat="39.856551688865686" lon="15.796084357576426"><ele>85.66666666666667</ele><time>2026-04-26T13:08:44.999Z</time></trkpt><trkpt lat="39.85638732257237" lon="15.795971493123556"><ele>95.0</ele><time>2026-04-26T13:08:45.999Z</time></trkpt><trkpt lat="39.85623025504397" lon="15.795839878070092"><ele>95.33333333333334</ele><time>2026-04-26T13:08:46.999Z</time></trkpt><trkpt lat="39.856063222084295" lon="15.795729888206777"><ele>95.66666666666667</ele><time>2026-04-26T13:08:47.999Z</time></trkpt><trkpt lat="39.855892599633464" lon="15.795627513734136"><ele>96.0</ele><time>2026-04-26T13:08:48.999Z</time></trkpt><trkpt lat="39.85571351895188" lon="15.795545783650347"><ele>106.33333333333334</ele><time>2026-04-26T13:08:49.999Z</time></trkpt><trkpt lat="39.85552094889303" lon="15.795482986480765"><ele>116.66666666666667</ele><time>2026-04-26T13:08:50.999Z</time></trkpt><trkpt lat="39.855314031770405" lon="15.795438232686656"><ele>127.0</ele><time>2026-04-26T13:08:51.999Z</time></trkpt><trkpt lat="39.85509390125521" lon="15.795418965138625"><ele>129.5</ele><time>2026-04-26T13:08:52.999Z</time></trkpt><trkpt lat="39.85486658726507" lon="15.795432318193432"><ele>132.0</ele><time>2026-04-26T13:08:53.999Z</time></trkpt><trkpt lat="39.85463859630074" lon="15.795469995810706"><ele>132.0</ele><time>2026-04-26T13:08:54.999Z</time></trkpt><trkpt lat="39.85441507631362" lon="15.795540962620747"><ele>132.0</ele><time>2026-04-26T13:08:55.999Z</time></trkpt><trkpt lat="39.85419725710158" lon="15.795641602948507"><ele>130.5</ele><time>2026-04-26T13:08:56.999Z</time></trkpt><trkpt lat="39.85398870996836" lon="15.795771877877847"><ele>129.0</ele><time>2026-04-26T13:08:57.999Z</time></trkpt><trkpt lat="39.85378969793638" lon="15.795924154787246"><ele>130.5</ele><time>2026-04-26T13:08:58.999Z</time></trkpt><trkpt lat="39.853600108095264" lon="15.796097973913259"><ele>132.0</ele><time>2026-04-26T13:08:59.999Z</time></trkpt><trkpt lat="39.853419785303124" lon="15.796293161634425"><ele>132.0</ele><time>2026-04-26T13:09:00.999Z</time></trkpt><trkpt lat="39.85324280044687" lon="15.796489457190633"><ele>132.0</ele><time>2026-04-26T13:09:01.999Z</time></trkpt><trkpt lat="39.85307023445382" lon="15.796670344601607"><ele>134.0</ele><time>2026-04-26T13:09:02.999Z</time></trkpt><trkpt lat="39.852900743240525" lon="15.79684311262858"><ele>136.0</ele><time>2026-04-26T13:09:03.999Z</time></trkpt><trkpt lat="39.85274229901401" lon="15.797011263372163"><ele>138.0</ele><time>2026-04-26T13:09:04.999Z</time></trkpt><trkpt lat="39.85258403515492" lon="15.7971778454069"><ele>138.0</ele><time>2026-04-26T13:09:05.999Z</time></trkpt><trkpt lat="39.85242943597643" lon="15.797343019076525"><ele>138.0</ele><time>2026-04-26T13:09:06.999Z</time></trkpt><trkpt lat="39.85227562542947" lon="15.79750536102156"><ele>138.0</ele><time>2026-04-26T13:09:07.999Z</time></trkpt><trkpt lat="39.85211793498286" lon="15.797661343983679"><ele>138.66666666666666</ele><time>2026-04-26T13:09:08.999Z</time></trkpt><trkpt lat="39.85194887247093" lon="15.79780475526761"><ele>139.33333333333331</ele><time>2026-04-26T13:09:09.999Z</time></trkpt><trkpt lat="39.85176892131714" lon="15.797927677468772"><ele>140.0</ele><time>2026-04-26T13:09:10.999Z</time></trkpt><trkpt lat="39.85157721824676" lon="15.798033033877598"><ele>136.66666666666666</ele><time>2026-04-26T13:09:11.999Z</time></trkpt><trkpt lat="39.851380860673665" lon="15.79811929815242"><ele>133.33333333333334</ele><time>2026-04-26T13:09:12.999Z</time></trkpt><trkpt lat="39.85117860885373" lon="15.798172135911344"><ele>130.0</ele><time>2026-04-26T13:09:13.999Z</time></trkpt><trkpt lat="39.85097421609331" lon="15.798198369797122"><ele>122.33333333333334</ele><time>2026-04-26T13:09:14.999Z</time></trkpt><trkpt lat="39.85076796436744" lon="15.798205506872426"><ele>114.66666666666666</ele><time>2026-04-26T13:09:15.999Z</time></trkpt><trkpt lat="39.85055949407234" lon="15.798193691918735"><ele>107.0</ele><time>2026-04-26T13:09:16.999Z</time></trkpt><trkpt lat="39.85035342296717" lon="15.79815661177681"><ele>107.0</ele><time>2026-04-26T13:09:17.999Z</time></trkpt><trkpt lat="39.85015071362409" lon="15.798097573619971"><ele>107.0</ele><time>2026-04-26T13:09:18.999Z</time></trkpt><trkpt lat="39.84994215575028" lon="15.798068540492947"><ele>107.0</ele><time>2026-04-26T13:09:19.999Z</time></trkpt><trkpt lat="39.84973600286082" lon="15.798018296582852"><ele>96.0</ele><time>2026-04-26T13:09:20.999Z</time></trkpt><trkpt lat="39.84953140069122" lon="15.797946433882474"><ele>85.0</ele><time>2026-04-26T13:09:21.999Z</time></trkpt><trkpt lat="39.849319531622015" lon="15.797916315212367"><ele>74.0</ele><time>2026-04-26T13:09:22.999Z</time></trkpt><trkpt lat="39.849109913822204" lon="15.79786480550445"><ele>66.0</ele><time>2026-04-26T13:09:23.999Z</time></trkpt><trkpt lat="39.84889949964175" lon="15.797813109962672"><ele>58.0</ele><time>2026-04-26T13:09:24.999Z</time></trkpt><trkpt lat="39.84868984569573" lon="15.797739906922033"><ele>50.0</ele><time>2026-04-26T13:09:25.999Z</time></trkpt><trkpt lat="39.84847099358996" lon="15.797707840346604"><ele>67.33333333333334</ele><time>2026-04-26T13:09:26.999Z</time></trkpt><trkpt lat="39.84825388360675" lon="15.797655009434886"><ele>84.66666666666667</ele><time>2026-04-26T13:09:27.999Z</time></trkpt><trkpt lat="39.8480335544726" lon="15.797602479297428"><ele>102.0</ele><time>2026-04-26T13:09:28.999Z</time></trkpt><trkpt lat="39.847812419364864" lon="15.797549756993373"><ele>109.0</ele><time>2026-04-26T13:09:29.999Z</time></trkpt><trkpt lat="39.847588764527735" lon="15.79749643401453"><ele>116.0</ele><time>2026-04-26T13:09:30.999Z</time></trkpt><trkpt lat="39.847364255933975" lon="15.797442907440256"><ele>116.0</ele><time>2026-04-26T13:09:31.999Z</time></trkpt><trkpt lat="39.847139159841824" lon="15.797389240798484"><ele>116.0</ele><time>2026-04-26T13:09:32.999Z</time></trkpt><trkpt lat="39.84691093047727" lon="15.797333720569442"><ele>116.5</ele><time>2026-04-26T13:09:33.999Z</time></trkpt><trkpt lat="39.84668172321526" lon="15.797277792349888"><ele>117.0</ele><time>2026-04-26T13:09:34.999Z</time></trkpt><trkpt lat="39.84644540180895" lon="15.7972201282274"><ele>117.0</ele><time>2026-04-26T13:09:35.999Z</time></trkpt><trkpt lat="39.84620442662304" lon="15.797160981345716"><ele>117.0</ele><time>2026-04-26T13:09:36.999Z</time></trkpt><trkpt lat="39.84595764319328" lon="15.797099825397504"><ele>122.5</ele><time>2026-04-26T13:09:37.999Z</time></trkpt><trkpt lat="39.84570677597616" lon="15.797037657431888"><ele>128.0</ele><time>2026-04-26T13:09:38.999Z</time></trkpt><trkpt lat="39.845457851559964" lon="15.796976046426465"><ele>128.0</ele><time>2026-04-26T13:09:39.999Z</time></trkpt><trkpt lat="39.84521675705166" lon="15.796918026210797"><ele>128.0</ele><time>2026-04-26T13:09:40.999Z</time></trkpt><trkpt lat="39.84498676559265" lon="15.796864082445731"><ele>134.66666666666666</ele><time>2026-04-26T13:09:41.999Z</time></trkpt><trkpt lat="39.844764851149094" lon="15.796809320825515"><ele>141.33333333333334</ele><time>2026-04-26T13:09:42.999Z</time></trkpt><trkpt lat="39.844549166376154" lon="15.796755826615893"><ele>148.0</ele><time>2026-04-26T13:09:43.999Z</time></trkpt><trkpt lat="39.844337390258566" lon="15.796704625091555"><ele>150.66666666666669</ele><time>2026-04-26T13:09:44.999Z</time></trkpt><trkpt lat="39.8441268784765" lon="15.796653729232679"><ele>153.33333333333334</ele><time>2026-04-26T13:09:45.999Z</time></trkpt><trkpt lat="39.84391794158673" lon="15.796603214179259"><ele>156.0</ele><time>2026-04-26T13:09:46.999Z</time></trkpt><trkpt lat="39.84370970159228" lon="15.796552403254967"><ele>156.0</ele><time>2026-04-26T13:09:47.999Z</time></trkpt><trkpt lat="39.843503483293965" lon="15.796501863433484"><ele>156.0</ele><time>2026-04-26T13:09:48.999Z</time></trkpt><trkpt lat="39.84329448740391" lon="15.796449826984572"><ele>156.0</ele><time>2026-04-26T13:09:50Z</time></trkpt><trkpt lat="39.8430834707623" lon="15.796392368328503"><ele>156.33333333333334</ele><time>2026-04-26T13:09:51Z</time></trkpt><trkpt lat="39.842870177483874" lon="15.796330096237632"><ele>156.66666666666669</ele><time>2026-04-26T13:09:52Z</time></trkpt><trkpt lat="39.84266113858996" lon="15.796260142470464"><ele>157.0</ele><time>2026-04-26T13:09:53Z</time></trkpt><trkpt lat="39.84245491298013" lon="15.796184332781994"><ele>157.0</ele><time>2026-04-26T13:09:54Z</time></trkpt><trkpt lat="39.84225579194506" lon="15.796107803639247"><ele>157.0</ele><time>2026-04-26T13:09:55Z</time></trkpt><trkpt lat="39.8420649086276" lon="15.796034443090216"><ele>157.0</ele><time>2026-04-26T13:09:56Z</time></trkpt><trkpt lat="39.84189059235033" lon="15.79596744960696"><ele>156.0</ele><time>2026-04-26T13:09:57Z</time></trkpt><trkpt lat="39.84172427348873" lon="15.795903529701738"><ele>155.0</ele><time>2026-04-26T13:09:58Z</time></trkpt><trkpt lat="39.84158751257908" lon="15.795751105381767"><ele>154.0</ele><time>2026-04-26T13:09:59Z</time></trkpt><trkpt lat="39.84144159899983" lon="15.795670540623897"><ele>154.0</ele><time>2026-04-26T13:10:00Z</time></trkpt><trkpt lat="39.84130331634227" lon="15.795593764490881"><ele>154.0</ele><time>2026-04-26T13:10:01Z</time></trkpt><trkpt lat="39.84116947793475" lon="15.795522222892917"><ele>154.0</ele><time>2026-04-26T13:10:02Z</time></trkpt><trkpt lat="39.84105015759652" lon="15.795459238073368"><ele>154.0</ele><time>2026-04-26T13:10:03Z</time></trkpt><trkpt lat="39.840942625817455" lon="15.795395621342442"><ele>154.0</ele><time>2026-04-26T13:10:04Z</time></trkpt><trkpt lat="39.84084924555205" lon="15.79533432564274"><ele>154.0</ele><time>2026-04-26T13:10:05Z</time></trkpt><trkpt lat="39.84077325113261" lon="15.795262780298447"><ele>154.0</ele><time>2026-04-26T13:10:06Z</time></trkpt><trkpt lat="39.840729265171625" lon="15.795185492582151"><ele>154.0</ele><time>2026-04-26T13:10:07Z</time></trkpt><trkpt lat="39.84070124573628" lon="15.79508774760547"><ele>154.0</ele><time>2026-04-26T13:10:08Z</time></trkpt><trkpt lat="39.84070717951341" lon="15.794977081123472"><ele>154.0</ele><time>2026-04-26T13:10:09Z</time></trkpt><trkpt lat="39.84075579169912" lon="15.794885789262262"><ele>153.0</ele><time>2026-04-26T13:10:10Z</time></trkpt><trkpt lat="39.84083144522732" lon="15.794814092324712"><ele>152.0</ele><time>2026-04-26T13:10:11Z</time></trkpt><trkpt lat="39.84092501475744" lon="15.794773260491267"><ele>151.0</ele><time>2026-04-26T13:10:12Z</time></trkpt><trkpt lat="39.84101231770224" lon="15.794750647989078"><ele>150.0</ele><time>2026-04-26T13:10:13Z</time></trkpt><trkpt lat="39.84108394901075" lon="15.794734699463643"><ele>149.0</ele><time>2026-04-26T13:10:14Z</time></trkpt><trkpt lat="39.841154889172095" lon="15.794742669906876"><ele>148.0</ele><time>2026-04-26T13:10:15Z</time></trkpt><trkpt lat="39.84122417504731" lon="15.794788695767283"><ele>148.0</ele><time>2026-04-26T13:10:16Z</time></trkpt><trkpt lat="39.841274902951994" lon="15.794874593047567"><ele>148.0</ele><time>2026-04-26T13:10:17Z</time></trkpt><trkpt lat="39.84128858599672" lon="15.794961728881058"><ele>148.0</ele><time>2026-04-26T13:10:18Z</time></trkpt><trkpt lat="39.8412853874702" lon="15.795055165994413"><ele>148.0</ele><time>2026-04-26T13:10:19Z</time></trkpt><trkpt lat="39.841267107098176" lon="15.795157085744073"><ele>148.0</ele><time>2026-04-26T13:10:20Z</time></trkpt><trkpt lat="39.84121660468781" lon="15.79526118298926"><ele>148.0</ele><time>2026-04-26T13:10:21Z</time></trkpt><trkpt lat="39.841151079485634" lon="15.795361987404005"><ele>149.0</ele><time>2026-04-26T13:10:22Z</time></trkpt><trkpt lat="39.841098143003656" lon="15.795459983691245"><ele>150.0</ele><time>2026-04-26T13:10:23Z</time></trkpt><trkpt lat="39.84105499766098" lon="15.795553183730494"><ele>151.0</ele><time>2026-04-26T13:10:24Z</time></trkpt><trkpt lat="39.8410100107967" lon="15.795651262591754"><ele>152.0</ele><time>2026-04-26T13:10:25Z</time></trkpt><trkpt lat="39.84096574896696" lon="15.795741555310393"><ele>153.0</ele><time>2026-04-26T13:10:26Z</time></trkpt><trkpt lat="39.84091958545226" lon="15.79581856607935"><ele>154.0</ele><time>2026-04-26T13:10:27Z</time></trkpt><trkpt lat="39.8408586422726" lon="15.795899091520397"><ele>154.0</ele><time>2026-04-26T13:10:28Z</time></trkpt><trkpt lat="39.840780028937736" lon="15.795973069012215"><ele>154.0</ele><time>2026-04-26T13:10:29Z</time></trkpt><trkpt lat="39.84068805588011" lon="15.796021397979791"><ele>154.0</ele><time>2026-04-26T13:10:30Z</time></trkpt><trkpt lat="39.840589110525116" lon="15.796050860202904"><ele>154.0</ele><time>2026-04-26T13:10:31Z</time></trkpt><trkpt lat="39.84048507985237" lon="15.79606206955564"><ele>154.0</ele><time>2026-04-26T13:10:32Z</time></trkpt><trkpt lat="39.84038536318484" lon="15.796049103796255"><ele>154.0</ele><time>2026-04-26T13:10:33Z</time></trkpt><trkpt lat="39.84029501324972" lon="15.796008123261904"><ele>154.0</ele><time>2026-04-26T13:10:34Z</time></trkpt><trkpt lat="39.84022683923801" lon="15.795943573738981"><ele>154.0</ele><time>2026-04-26T13:10:35Z</time></trkpt><trkpt lat="39.84018457701875" lon="15.795865870435197"><ele>154.0</ele><time>2026-04-26T13:10:36Z</time></trkpt><trkpt lat="39.84015356796158" lon="15.795781895497012"><ele>154.0</ele><time>2026-04-26T13:10:37Z</time></trkpt><trkpt lat="39.840126911930184" lon="15.795699351916754"><ele>154.0</ele><time>2026-04-26T13:10:38Z</time></trkpt><trkpt lat="39.84009410138518" lon="15.795627212863849"><ele>153.33333333333334</ele><time>2026-04-26T13:10:39Z</time></trkpt><trkpt lat="39.840048913069474" lon="15.79556819280679"><ele>152.66666666666669</ele><time>2026-04-26T13:10:40Z</time></trkpt><trkpt lat="39.83995954037554" lon="15.795508214295383"><ele>152.0</ele><time>2026-04-26T13:10:42Z</time></trkpt><trkpt lat="39.83988138722011" lon="15.79549505972117"><ele>151.33333333333334</ele><time>2026-04-26T13:10:47.999Z</time></trkpt><trkpt lat="39.83980974962683" lon="15.795495688247827"><ele>150.66666666666666</ele><time>2026-04-26T13:10:48.999Z</time></trkpt><trkpt lat="39.83971475801983" lon="15.795508373309492"><ele>150.0</ele><time>2026-04-26T13:10:49.999Z</time></trkpt><trkpt lat="39.83961535901797" lon="15.795533863499289"><ele>150.0</ele><time>2026-04-26T13:10:50.999Z</time></trkpt><trkpt lat="39.83951910147039" lon="15.79556733022859"><ele>150.0</ele><time>2026-04-26T13:10:51.999Z</time></trkpt><trkpt lat="39.83941740615566" lon="15.795605252782948"><ele>150.0</ele><time>2026-04-26T13:10:52.999Z</time></trkpt><trkpt lat="39.8393144200449" lon="15.795646747415367"><ele>150.0</ele><time>2026-04-26T13:10:53.999Z</time></trkpt><trkpt lat="39.83921725804527" lon="15.795687640368307"><ele>150.0</ele><time>2026-04-26T13:10:54.999Z</time></trkpt><trkpt lat="39.839133159523726" lon="15.795725493433418"><ele>149.8</ele><time>2026-04-26T13:10:55.999Z</time></trkpt><trkpt lat="39.839062013190954" lon="15.795756458063472"><ele>149.6</ele><time>2026-04-26T13:10:56.999Z</time></trkpt><trkpt lat="39.83899283403634" lon="15.795779062203543"><ele>149.4</ele><time>2026-04-26T13:10:57.999Z</time></trkpt><trkpt lat="39.8389060161377" lon="15.795813222896308"><ele>149.2</ele><time>2026-04-26T13:10:58.999Z</time></trkpt><trkpt lat="39.838806485523556" lon="15.795864822787026"><ele>149.0</ele><time>2026-04-26T13:10:59.999Z</time></trkpt><trkpt lat="39.838694412896935" lon="15.795913915074163"><ele>149.0</ele><time>2026-04-26T13:11:00.999Z</time></trkpt><trkpt lat="39.838565094921" lon="15.795963010383284"><ele>149.0</ele><time>2026-04-26T13:11:01.999Z</time></trkpt><trkpt lat="39.83841611404498" lon="15.796022023898356"><ele>149.0</ele><time>2026-04-26T13:11:02.999Z</time></trkpt><trkpt lat="39.838277053693105" lon="15.796082082552207"><ele>149.0</ele><time>2026-04-26T13:11:03.999Z</time></trkpt><trkpt lat="39.83814019181107" lon="15.796132969258453"><ele>149.5</ele><time>2026-04-26T13:11:04.999Z</time></trkpt><trkpt lat="39.83800187531221" lon="15.796175635271709"><ele>150.0</ele><time>2026-04-26T13:11:05.999Z</time></trkpt><trkpt lat="39.837858972297624" lon="15.796208109832657"><ele>150.5</ele><time>2026-04-26T13:11:06.999Z</time></trkpt><trkpt lat="39.83771101862607" lon="15.796224646867543"><ele>151.0</ele><time>2026-04-26T13:11:07.999Z</time></trkpt><trkpt lat="39.83755738830937" lon="15.796234585930721"><ele>151.0</ele><time>2026-04-26T13:11:08.999Z</time></trkpt><trkpt lat="39.837399397720304" lon="15.79624148634389"><ele>151.0</ele><time>2026-04-26T13:11:09.999Z</time></trkpt><trkpt lat="39.83725008898182" lon="15.796267522839678"><ele>151.0</ele><time>2026-04-26T13:11:10.999Z</time></trkpt><trkpt lat="39.837109091691765" lon="15.796325038600774"><ele>151.0</ele><time>2026-04-26T13:11:11.999Z</time></trkpt><trkpt lat="39.836959651792384" lon="15.796397021534661"><ele>151.0</ele><time>2026-04-26T13:11:12.999Z</time></trkpt><trkpt lat="39.83680840076066" lon="15.796457688699695"><ele>151.0</ele><time>2026-04-26T13:11:13.999Z</time></trkpt><trkpt lat="39.83662970912491" lon="15.796490262575839"><ele>151.66666666666669</ele><time>2026-04-26T13:11:14.999Z</time></trkpt><trkpt lat="39.83646719220859" lon="15.796502064517922"><ele>152.33333333333334</ele><time>2026-04-26T13:11:15.999Z</time></trkpt><trkpt lat="39.83630512014807" lon="15.796515921281003"><ele>153.0</ele><time>2026-04-26T13:11:16.999Z</time></trkpt><trkpt lat="39.8361054485312" lon="15.79654936429751"><ele>154.0</ele><time>2026-04-26T13:11:17.999Z</time></trkpt><trkpt lat="39.835922983911495" lon="15.796579931725619"><ele>155.0</ele><time>2026-04-26T13:11:18.999Z</time></trkpt><trkpt lat="39.835760963896426" lon="15.796581173764121"><ele>156.0</ele><time>2026-04-26T13:11:19.999Z</time></trkpt><trkpt lat="39.835588063853756" lon="15.796557956338223"><ele>156.0</ele><time>2026-04-26T13:11:20.999Z</time></trkpt><trkpt lat="39.83542718022524" lon="15.796505262671547"><ele>156.0</ele><time>2026-04-26T13:11:21.999Z</time></trkpt><trkpt lat="39.835268998200206" lon="15.79645581883443"><ele>156.0</ele><time>2026-04-26T13:11:22.999Z</time></trkpt><trkpt lat="39.835100786032534" lon="15.796419483612933"><ele>156.0</ele><time>2026-04-26T13:11:23.999Z</time></trkpt><trkpt lat="39.834936860523044" lon="15.796380715905656"><ele>156.0</ele><time>2026-04-26T13:11:24.999Z</time></trkpt><trkpt lat="39.8347937357025" lon="15.796341269455747"><ele>156.0</ele><time>2026-04-26T13:11:25.999Z</time></trkpt><trkpt lat="39.834654672455265" lon="15.796306020336917"><ele>156.0</ele><time>2026-04-26T13:11:26.999Z</time></trkpt><trkpt lat="39.83451394465184" lon="15.796284602396536"><ele>156.0</ele><time>2026-04-26T13:11:27.999Z</time></trkpt><trkpt lat="39.834360169528274" lon="15.796261879368416"><ele>156.0</ele><time>2026-04-26T13:11:28.999Z</time></trkpt><trkpt lat="39.83420017850329" lon="15.79622577007879"><ele>156.33333333333334</ele><time>2026-04-26T13:11:29.999Z</time></trkpt><trkpt lat="39.83403690213484" lon="15.79618675705418"><ele>156.66666666666669</ele><time>2026-04-26T13:11:30.999Z</time></trkpt><trkpt lat="39.8338691701406" lon="15.796154243456165"><ele>157.0</ele><time>2026-04-26T13:11:31.999Z</time></trkpt><trkpt lat="39.83370519419398" lon="15.796133673772545"><ele>157.0</ele><time>2026-04-26T13:11:32.999Z</time></trkpt><trkpt lat="39.83355000332767" lon="15.796129881042614"><ele>157.0</ele><time>2026-04-26T13:11:33.999Z</time></trkpt><trkpt lat="39.83340302037149" lon="15.79615605332444"><ele>157.0</ele><time>2026-04-26T13:11:34.999Z</time></trkpt><trkpt lat="39.83327443915855" lon="15.796198017711722"><ele>157.0</ele><time>2026-04-26T13:11:35.999Z</time></trkpt><trkpt lat="39.83316329997931" lon="15.796283069606748"><ele>155.0</ele><time>2026-04-26T13:11:36.999Z</time></trkpt><trkpt lat="39.83306955353192" lon="15.796428841566472"><ele>153.0</ele><time>2026-04-26T13:11:37.999Z</time></trkpt><trkpt lat="39.83299712988116" lon="15.796623319192102"><ele>151.0</ele><time>2026-04-26T13:11:38.999Z</time></trkpt><trkpt lat="39.83294407362118" lon="15.796797235233432"><ele>151.75</ele><time>2026-04-26T13:11:39.999Z</time></trkpt><trkpt lat="39.83288666541868" lon="15.79693249253914"><ele>152.5</ele><time>2026-04-26T13:11:40.999Z</time></trkpt><trkpt lat="39.83280640474442" lon="15.797026398531646"><ele>153.25</ele><time>2026-04-26T13:11:41.999Z</time></trkpt><trkpt lat="39.83270105055666" lon="15.797072463362579"><ele>154.0</ele><time>2026-04-26T13:11:42.999Z</time></trkpt><trkpt lat="39.83258836636998" lon="15.797058456768667"><ele>154.0</ele><time>2026-04-26T13:11:43.999Z</time></trkpt><trkpt lat="39.83248732688499" lon="15.796975983695955"><ele>154.0</ele><time>2026-04-26T13:11:44.999Z</time></trkpt><trkpt lat="39.83241013525968" lon="15.796845099343528"><ele>154.0</ele><time>2026-04-26T13:11:45.999Z</time></trkpt><trkpt lat="39.83235159330965" lon="15.79671507102935"><ele>154.0</ele><time>2026-04-26T13:11:46.999Z</time></trkpt><trkpt lat="39.832278198973185" lon="15.79659000343468"><ele>153.0</ele><time>2026-04-26T13:11:47.999Z</time></trkpt><trkpt lat="39.83219102086768" lon="15.796452713799853"><ele>152.0</ele><time>2026-04-26T13:11:48.999Z</time></trkpt><trkpt lat="39.83209179665784" lon="15.796321323318956"><ele>151.0</ele><time>2026-04-26T13:11:49.999Z</time></trkpt><trkpt lat="39.831983276634574" lon="15.79619534988944"><ele>150.0</ele><time>2026-04-26T13:11:50.999Z</time></trkpt><trkpt lat="39.83187135539303" lon="15.79609188835711"><ele>149.33333333333334</ele><time>2026-04-26T13:11:51.999Z</time></trkpt><trkpt lat="39.83177184847279" lon="15.795968276747121"><ele>148.66666666666669</ele><time>2026-04-26T13:11:52.999Z</time></trkpt><trkpt lat="39.83169673244521" lon="15.79578957508751"><ele>148.0</ele><time>2026-04-26T13:11:53.999Z</time></trkpt><trkpt lat="39.831647593793534" lon="15.795580036049323"><ele>148.0</ele><time>2026-04-26T13:11:54.999Z</time></trkpt><trkpt lat="39.831615449735935" lon="15.795375255973017"><ele>148.0</ele><time>2026-04-26T13:11:56Z</time></trkpt><trkpt lat="39.83158582480572" lon="15.795197388792667"><ele>148.0</ele><time>2026-04-26T13:11:57Z</time></trkpt><trkpt lat="39.83153522373882" lon="15.795037189341029"><ele>148.0</ele><time>2026-04-26T13:11:58Z</time></trkpt><trkpt lat="39.83145305481955" lon="15.79487484346256"><ele>145.66666666666669</ele><time>2026-04-26T13:11:59Z</time></trkpt><trkpt lat="39.831326602897356" lon="15.794734163234631"><ele>143.33333333333334</ele><time>2026-04-26T13:12:00Z</time></trkpt><trkpt lat="39.831216127382866" lon="15.794566293706133"><ele>141.0</ele><time>2026-04-26T13:12:01Z</time></trkpt><trkpt lat="39.831105383105914" lon="15.794417527470081"><ele>140.75</ele><time>2026-04-26T13:12:02Z</time></trkpt><trkpt lat="39.831003506530465" lon="15.794274619330363"><ele>140.5</ele><time>2026-04-26T13:12:03Z</time></trkpt><trkpt lat="39.830899526891315" lon="15.794138310364328"><ele>140.25</ele><time>2026-04-26T13:12:04Z</time></trkpt><trkpt lat="39.83079398308934" lon="15.794012442788409"><ele>140.0</ele><time>2026-04-26T13:12:05Z</time></trkpt><trkpt lat="39.83069559270243" lon="15.79388806488618"><ele>140.0</ele><time>2026-04-26T13:12:06Z</time></trkpt><trkpt lat="39.83060504076294" lon="15.793761582101784"><ele>140.0</ele><time>2026-04-26T13:12:07Z</time></trkpt><trkpt lat="39.83051363307124" lon="15.793645768004222"><ele>140.0</ele><time>2026-04-26T13:12:08Z</time></trkpt><trkpt lat="39.830435623837296" lon="15.79355518369567"><ele>140.0</ele><time>2026-04-26T13:12:09Z</time></trkpt><trkpt lat="39.830374867821796" lon="15.793489065225936"><ele>140.0</ele><time>2026-04-26T13:12:10Z</time></trkpt><trkpt lat="39.830318614438404" lon="15.79343783919213"><ele>140.4</ele><time>2026-04-26T13:12:11Z</time></trkpt><trkpt lat="39.83025286490527" lon="15.793417292195553"><ele>140.8</ele><time>2026-04-26T13:12:12Z</time></trkpt><trkpt lat="39.83015772908879" lon="15.793449750989149"><ele>141.2</ele><time>2026-04-26T13:12:13Z</time></trkpt><trkpt lat="39.83008201509426" lon="15.793503260415859"><ele>141.6</ele><time>2026-04-26T13:12:14Z</time></trkpt><trkpt lat="39.83001377167335" lon="15.793599345285378"><ele>142.0</ele><time>2026-04-26T13:12:15Z</time></trkpt><trkpt lat="39.82994872430492" lon="15.793759348052594"><ele>142.0</ele><time>2026-04-26T13:12:16Z</time></trkpt><trkpt lat="39.82989019720346" lon="15.793940734658424"><ele>142.0</ele><time>2026-04-26T13:12:17Z</time></trkpt><trkpt lat="39.8298155067129" lon="15.794103206221996"><ele>142.0</ele><time>2026-04-26T13:12:18Z</time></trkpt><trkpt lat="39.82978069651068" lon="15.794270429910805"><ele>142.0</ele><time>2026-04-26T13:12:19Z</time></trkpt><trkpt lat="39.82973835314971" lon="15.794432559369032"><ele>143.66666666666669</ele><time>2026-04-26T13:12:20Z</time></trkpt><trkpt lat="39.82971150811416" lon="15.794617874215279"><ele>145.33333333333334</ele><time>2026-04-26T13:12:21Z</time></trkpt><trkpt lat="39.82970075960993" lon="15.794815488229196"><ele>147.0</ele><time>2026-04-26T13:12:22Z</time></trkpt><trkpt lat="39.82971383438505" lon="15.795026905301762"><ele>147.5</ele><time>2026-04-26T13:12:23Z</time></trkpt><trkpt lat="39.82974343771912" lon="15.795232601170136"><ele>148.0</ele><time>2026-04-26T13:12:24Z</time></trkpt><trkpt lat="39.82977014754409" lon="15.795414379072367"><ele>148.5</ele><time>2026-04-26T13:12:25Z</time></trkpt><trkpt lat="39.82979518453843" lon="15.79559362881837"><ele>149.0</ele><time>2026-04-26T13:12:26Z</time></trkpt><trkpt lat="39.82981647730253" lon="15.795782391028451"><ele>149.0</ele><time>2026-04-26T13:12:27Z</time></trkpt><trkpt lat="39.82982976209031" lon="15.79597782856162"><ele>149.0</ele><time>2026-04-26T13:12:28Z</time></trkpt><trkpt lat="39.82981895429251" lon="15.796174302139548"><ele>149.0</ele><time>2026-04-26T13:12:29Z</time></trkpt><trkpt lat="39.82977600297642" lon="15.796379011466064"><ele>149.66666666666666</ele><time>2026-04-26T13:12:30Z</time></trkpt><trkpt lat="39.829731184130026" lon="15.796577230063711"><ele>150.33333333333334</ele><time>2026-04-26T13:12:31Z</time></trkpt><trkpt lat="39.829693589527636" lon="15.796769684388265"><ele>151.0</ele><time>2026-04-26T13:12:32Z</time></trkpt><trkpt lat="39.82965580327665" lon="15.796965774191744"><ele>151.33333333333334</ele><time>2026-04-26T13:12:33Z</time></trkpt><trkpt lat="39.82962262702143" lon="15.797154719734955"><ele>151.66666666666666</ele><time>2026-04-26T13:12:34Z</time></trkpt><trkpt lat="39.82960046118301" lon="15.797342267590745"><ele>152.0</ele><time>2026-04-26T13:12:35Z</time></trkpt><trkpt lat="39.82960618782401" lon="15.797550155251649"><ele>152.0</ele><time>2026-04-26T13:12:36Z</time></trkpt><trkpt lat="39.82961904943666" lon="15.797779541216734"><ele>152.0</ele><time>2026-04-26T13:12:37Z</time></trkpt><trkpt lat="39.829626406843275" lon="15.797998743758308"><ele>152.0</ele><time>2026-04-26T13:12:38Z</time></trkpt><trkpt lat="39.82963926268204" lon="15.798205752034802"><ele>152.0</ele><time>2026-04-26T13:12:39Z</time></trkpt><trkpt lat="39.82965213545401" lon="15.798407954100757"><ele>152.0</ele><time>2026-04-26T13:12:40Z</time></trkpt><trkpt lat="39.82966094358391" lon="15.798603886193684"><ele>152.0</ele><time>2026-04-26T13:12:41Z</time></trkpt><trkpt lat="39.82960873735774" lon="15.798779645241884"><ele>152.6</ele><time>2026-04-26T13:12:42Z</time></trkpt><trkpt lat="39.82961694976681" lon="15.798936888050685"><ele>153.2</ele><time>2026-04-26T13:12:43Z</time></trkpt><trkpt lat="39.829624623849476" lon="15.799073540752868"><ele>153.8</ele><time>2026-04-26T13:12:44Z</time></trkpt><trkpt lat="39.82961365568041" lon="15.799203622253478"><ele>154.4</ele><time>2026-04-26T13:12:44.999Z</time></trkpt><trkpt lat="39.8295623154053" lon="15.799329906456926"><ele>155.0</ele><time>2026-04-26T13:12:45.999Z</time></trkpt><trkpt lat="39.829451897199064" lon="15.799421143653964"><ele>155.25</ele><time>2026-04-26T13:12:46.999Z</time></trkpt><trkpt lat="39.829321069887804" lon="15.799482723406628"><ele>155.5</ele><time>2026-04-26T13:12:47.999Z</time></trkpt><trkpt lat="39.82917555302793" lon="15.799506367425682"><ele>155.75</ele><time>2026-04-26T13:12:48.999Z</time></trkpt><trkpt lat="39.82902939976411" lon="15.799571663369937"><ele>156.0</ele><time>2026-04-26T13:12:49.999Z</time></trkpt><trkpt lat="39.82888113901165" lon="15.799608246304897"><ele>156.0</ele><time>2026-04-26T13:12:50.999Z</time></trkpt><trkpt lat="39.82873314918379" lon="15.79966834955036"><ele>156.0</ele><time>2026-04-26T13:12:51.999Z</time></trkpt><trkpt lat="39.828587532465775" lon="15.799732753781818"><ele>156.0</ele><time>2026-04-26T13:12:52.999Z</time></trkpt><trkpt lat="39.8284510267104" lon="15.799823177025093"><ele>156.33333333333334</ele><time>2026-04-26T13:12:53.999Z</time></trkpt><trkpt lat="39.82832353297384" lon="15.799965806378848"><ele>156.66666666666669</ele><time>2026-04-26T13:12:54.999Z</time></trkpt><trkpt lat="39.82820930410762" lon="15.800130590132207"><ele>157.0</ele><time>2026-04-26T13:12:55.999Z</time></trkpt><trkpt lat="39.82810547820584" lon="15.800298197872422"><ele>158.0</ele><time>2026-04-26T13:12:56.999Z</time></trkpt><trkpt lat="39.827988749002365" lon="15.800481677255762"><ele>159.0</ele><time>2026-04-26T13:12:57.999Z</time></trkpt><trkpt lat="39.827866646476814" lon="15.80065947961925"><ele>160.0</ele><time>2026-04-26T13:12:58.999Z</time></trkpt><trkpt lat="39.82774744230602" lon="15.800832229434317"><ele>158.66666666666669</ele><time>2026-04-26T13:12:59.999Z</time></trkpt><trkpt lat="39.82763889960824" lon="15.8010019771797"><ele>157.33333333333334</ele><time>2026-04-26T13:13:00.999Z</time></trkpt><trkpt lat="39.827527950798995" lon="15.801166055874141"><ele>156.0</ele><time>2026-04-26T13:13:01.999Z</time></trkpt><trkpt lat="39.82741065748161" lon="15.801326296421658"><ele>156.0</ele><time>2026-04-26T13:13:02.999Z</time></trkpt><trkpt lat="39.82729528362993" lon="15.801492946781792"><ele>156.0</ele><time>2026-04-26T13:13:03.999Z</time></trkpt><trkpt lat="39.827178969030996" lon="15.801664242811993"><ele>156.0</ele><time>2026-04-26T13:13:04.999Z</time></trkpt><trkpt lat="39.82706127844972" lon="15.801841814360877"><ele>155.0</ele><time>2026-04-26T13:13:05.999Z</time></trkpt><trkpt lat="39.82694738679426" lon="15.802029769411101"><ele>154.0</ele><time>2026-04-26T13:13:06.999Z</time></trkpt><trkpt lat="39.8268485605105" lon="15.80223881961984"><ele>153.0</ele><time>2026-04-26T13:13:07.999Z</time></trkpt><trkpt lat="39.82677528871338" lon="15.80247034407569"><ele>154.66666666666666</ele><time>2026-04-26T13:13:08.999Z</time></trkpt><trkpt lat="39.82671948276288" lon="15.8027112229496"><ele>156.33333333333331</ele><time>2026-04-26T13:13:09.999Z</time></trkpt><trkpt lat="39.826666010007365" lon="15.802961894844145"><ele>158.0</ele><time>2026-04-26T13:13:10.999Z</time></trkpt><trkpt lat="39.826607524463405" lon="15.803210047412339"><ele>158.0</ele><time>2026-04-26T13:13:11.999Z</time></trkpt><trkpt lat="39.82655248964436" lon="15.803440919566679"><ele>158.0</ele><time>2026-04-26T13:13:12.999Z</time></trkpt><trkpt lat="39.826498618577475" lon="15.803656952002594"><ele>158.0</ele><time>2026-04-26T13:13:13.999Z</time></trkpt><trkpt lat="39.826448429447666" lon="15.8038471061638"><ele>158.25</ele><time>2026-04-26T13:13:14.999Z</time></trkpt><trkpt lat="39.82639467473137" lon="15.804017321732998"><ele>158.5</ele><time>2026-04-26T13:13:15.999Z</time></trkpt><trkpt lat="39.826327412556346" lon="15.80416934366306"><ele>158.75</ele><time>2026-04-26T13:13:16.999Z</time></trkpt><trkpt lat="39.826246045716175" lon="15.804294042509186"><ele>159.0</ele><time>2026-04-26T13:13:17.999Z</time></trkpt><trkpt lat="39.826146515334514" lon="15.804404708487315"><ele>159.0</ele><time>2026-04-26T13:13:18.999Z</time></trkpt><trkpt lat="39.826017342723226" lon="15.804516112989788"><ele>159.0</ele><time>2026-04-26T13:13:19.999Z</time></trkpt><trkpt lat="39.82588489023142" lon="15.804619240406437"><ele>159.0</ele><time>2026-04-26T13:13:20.999Z</time></trkpt><trkpt lat="39.82576054136344" lon="15.80471792767423"><ele>158.0</ele><time>2026-04-26T13:13:21.999Z</time></trkpt><trkpt lat="39.825643997331255" lon="15.80481279820193"><ele>157.0</ele><time>2026-04-26T13:13:22.999Z</time></trkpt><trkpt lat="39.82553297694734" lon="15.804905026234783"><ele>156.0</ele><time>2026-04-26T13:13:23.999Z</time></trkpt><trkpt lat="39.82542680971383" lon="15.80499425793637"><ele>155.0</ele><time>2026-04-26T13:13:24.999Z</time></trkpt><trkpt lat="39.82531898439491" lon="15.805091420719855"><ele>154.75</ele><time>2026-04-26T13:13:25.999Z</time></trkpt><trkpt lat="39.82520597187478" lon="15.805189865362184"><ele>154.5</ele><time>2026-04-26T13:13:26.999Z</time></trkpt><trkpt lat="39.825087967020046" lon="15.805286156865808"><ele>154.25</ele><time>2026-04-26T13:13:27.999Z</time></trkpt><trkpt lat="39.82496185928013" lon="15.805396367811827"><ele>154.0</ele><time>2026-04-26T13:13:28.999Z</time></trkpt><trkpt lat="39.8248330626765" lon="15.805510794384837"><ele>154.0</ele><time>2026-04-26T13:13:29.999Z</time></trkpt><trkpt lat="39.824719820183745" lon="15.805626380995122"><ele>154.0</ele><time>2026-04-26T13:13:30.999Z</time></trkpt><trkpt lat="39.82461775069184" lon="15.805777051204748"><ele>154.0</ele><time>2026-04-26T13:13:31.999Z</time></trkpt><trkpt lat="39.82452463367157" lon="15.80594951805027"><ele>153.66666666666669</ele><time>2026-04-26T13:13:32.999Z</time></trkpt><trkpt lat="39.824430170894026" lon="15.806134792052784"><ele>153.33333333333334</ele><time>2026-04-26T13:13:33.999Z</time></trkpt><trkpt lat="39.824337080140026" lon="15.806327741964527"><ele>153.0</ele><time>2026-04-26T13:13:34.999Z</time></trkpt><trkpt lat="39.82424358051721" lon="15.806526774965617"><ele>153.0</ele><time>2026-04-26T13:13:35.999Z</time></trkpt><trkpt lat="39.824148490797995" lon="15.806720870350869"><ele>153.0</ele><time>2026-04-26T13:13:36.999Z</time></trkpt><trkpt lat="39.824052628577356" lon="15.806918183269811"><ele>153.0</ele><time>2026-04-26T13:13:37.999Z</time></trkpt><trkpt lat="39.82396319017994" lon="15.807118601064957"><ele>153.33333333333334</ele><time>2026-04-26T13:13:38.999Z</time></trkpt><trkpt lat="39.823858478277714" lon="15.807297556607672"><ele>153.66666666666669</ele><time>2026-04-26T13:13:39.999Z</time></trkpt><trkpt lat="39.823768151932" lon="15.80749231766045"><ele>154.0</ele><time>2026-04-26T13:13:40.999Z</time></trkpt><trkpt lat="39.82369035995447" lon="15.807684720304797"><ele>156.0</ele><time>2026-04-26T13:13:41.999Z</time></trkpt><trkpt lat="39.82362212193174" lon="15.807873339954693"><ele>158.0</ele><time>2026-04-26T13:13:42.999Z</time></trkpt><trkpt lat="39.823564596536876" lon="15.808071549426245"><ele>160.0</ele><time>2026-04-26T13:13:43.999Z</time></trkpt><trkpt lat="39.82351620323954" lon="15.808295104796391"><ele>161.66666666666669</ele><time>2026-04-26T13:13:44.999Z</time></trkpt><trkpt lat="39.82348444754613" lon="15.80852589068877"><ele>163.33333333333334</ele><time>2026-04-26T13:13:45.999Z</time></trkpt><trkpt lat="39.8234703698726" lon="15.808765445281923"><ele>165.0</ele><time>2026-04-26T13:13:46.999Z</time></trkpt><trkpt lat="39.823472857455904" lon="15.808993454810144"><ele>165.0</ele><time>2026-04-26T13:13:47.999Z</time></trkpt><trkpt lat="39.823485177596474" lon="15.809207356286654"><ele>165.0</ele><time>2026-04-26T13:13:48.999Z</time></trkpt><trkpt lat="39.82350038912293" lon="15.809432826663203"><ele>165.0</ele><time>2026-04-26T13:13:49.999Z</time></trkpt><trkpt lat="39.82351280125759" lon="15.80966025220007"><ele>166.0</ele><time>2026-04-26T13:13:50.999Z</time></trkpt><trkpt lat="39.82352640632287" lon="15.809881114837522"><ele>167.0</ele><time>2026-04-26T13:13:51.999Z</time></trkpt><trkpt lat="39.823542926212525" lon="15.810103557024153"><ele>168.0</ele><time>2026-04-26T13:13:52.999Z</time></trkpt><trkpt lat="39.82355829429327" lon="15.810337335556435"><ele>168.0</ele><time>2026-04-26T13:13:53.999Z</time></trkpt><trkpt lat="39.82356966954187" lon="15.81057128650076"><ele>168.0</ele><time>2026-04-26T13:13:54.999Z</time></trkpt><trkpt lat="39.823580040494704" lon="15.81078458258624"><ele>168.0</ele><time>2026-04-26T13:13:55.999Z</time></trkpt><trkpt lat="39.82359013150393" lon="15.810988956811622"><ele>167.75</ele><time>2026-04-26T13:13:56.999Z</time></trkpt><trkpt lat="39.823605683697956" lon="15.811180409885395"><ele>167.5</ele><time>2026-04-26T13:13:57.999Z</time></trkpt><trkpt lat="39.82361588578726" lon="15.81135607502092"><ele>167.25</ele><time>2026-04-26T13:13:58.999Z</time></trkpt><trkpt lat="39.82361897543128" lon="15.811522360736568"><ele>167.0</ele><time>2026-04-26T13:13:59.999Z</time></trkpt><trkpt lat="39.82359596621335" lon="15.811661983619278"><ele>167.0</ele><time>2026-04-26T13:14:00.999Z</time></trkpt><trkpt lat="39.823553946898464" lon="15.81178765100083"><ele>167.0</ele><time>2026-04-26T13:14:02Z</time></trkpt><trkpt lat="39.823489351575226" lon="15.81190840519576"><ele>167.0</ele><time>2026-04-26T13:14:03Z</time></trkpt><trkpt lat="39.82337155741341" lon="15.81200770632936"><ele>167.0</ele><time>2026-04-26T13:14:04Z</time></trkpt><trkpt lat="39.823226459146426" lon="15.812091416455514"><ele>166.66666666666666</ele><time>2026-04-26T13:14:05Z</time></trkpt><trkpt lat="39.823074604757956" lon="15.812165556521514"><ele>166.33333333333334</ele><time>2026-04-26T13:14:06Z</time></trkpt><trkpt lat="39.822937884480766" lon="15.812241215544384"><ele>166.0</ele><time>2026-04-26T13:14:07Z</time></trkpt><trkpt lat="39.82280072653019" lon="15.812326292586514"><ele>166.0</ele><time>2026-04-26T13:14:08Z</time></trkpt><trkpt lat="39.822672572518854" lon="15.812418820939778"><ele>166.0</ele><time>2026-04-26T13:14:09Z</time></trkpt><trkpt lat="39.822553537925714" lon="15.812528170733863"><ele>166.0</ele><time>2026-04-26T13:14:10Z</time></trkpt><trkpt lat="39.82244772274591" lon="15.812663842130226"><ele>166.0</ele><time>2026-04-26T13:14:11Z</time></trkpt><trkpt lat="39.82234200158285" lon="15.812817694338"><ele>165.33333333333334</ele><time>2026-04-26T13:14:12Z</time></trkpt><trkpt lat="39.82223892385006" lon="15.812994453516517"><ele>164.66666666666666</ele><time>2026-04-26T13:14:13Z</time></trkpt><trkpt lat="39.82214240167014" lon="15.813187286292985"><ele>164.0</ele><time>2026-04-26T13:14:14Z</time></trkpt><trkpt lat="39.822047162004615" lon="15.813371512927649"><ele>165.0</ele><time>2026-04-26T13:14:15Z</time></trkpt><trkpt lat="39.82195009860181" lon="15.813535798395632"><ele>166.0</ele><time>2026-04-26T13:14:16Z</time></trkpt><trkpt lat="39.82185100495177" lon="15.813701860094158"><ele>167.0</ele><time>2026-04-26T13:14:17Z</time></trkpt><trkpt lat="39.82175567658377" lon="15.813873692289219"><ele>164.0</ele><time>2026-04-26T13:14:18Z</time></trkpt><trkpt lat="39.82167154245671" lon="15.814046377827584"><ele>161.0</ele><time>2026-04-26T13:14:19Z</time></trkpt><trkpt lat="39.82159157218911" lon="15.814224253050515"><ele>158.0</ele><time>2026-04-26T13:14:20Z</time></trkpt><trkpt lat="39.821548507332864" lon="15.814419885910445"><ele>158.0</ele><time>2026-04-26T13:14:21Z</time></trkpt><trkpt lat="39.82152938045696" lon="15.814616853966639"><ele>158.0</ele><time>2026-04-26T13:14:22Z</time></trkpt><trkpt lat="39.82153343287017" lon="15.814812668637337"><ele>158.0</ele><time>2026-04-26T13:14:23Z</time></trkpt><trkpt lat="39.82154811622901" lon="15.815011448016945"><ele>158.66666666666666</ele><time>2026-04-26T13:14:24Z</time></trkpt><trkpt lat="39.821571676825585" lon="15.81522035891846"><ele>159.33333333333334</ele><time>2026-04-26T13:14:25Z</time></trkpt><trkpt lat="39.821592809262214" lon="15.81543192705189"><ele>160.0</ele><time>2026-04-26T13:14:26Z</time></trkpt><trkpt lat="39.82161290204776" lon="15.815646535630371"><ele>160.0</ele><time>2026-04-26T13:14:27Z</time></trkpt><trkpt lat="39.821637165292486" lon="15.815861080201303"><ele>160.0</ele><time>2026-04-26T13:14:28Z</time></trkpt><trkpt lat="39.821657329147875" lon="15.816066005756408"><ele>160.0</ele><time>2026-04-26T13:14:29Z</time></trkpt><trkpt lat="39.821672113616536" lon="15.816246194548462"><ele>159.75</ele><time>2026-04-26T13:14:30Z</time></trkpt><trkpt lat="39.82167988706831" lon="15.816412696250877"><ele>159.5</ele><time>2026-04-26T13:14:31Z</time></trkpt><trkpt lat="39.82167311421444" lon="15.816576906345313"><ele>159.25</ele><time>2026-04-26T13:14:32Z</time></trkpt><trkpt lat="39.821651680502306" lon="15.816732096586275"><ele>159.0</ele><time>2026-04-26T13:14:33Z</time></trkpt><trkpt lat="39.82161541259156" lon="15.816883748253698"><ele>159.0</ele><time>2026-04-26T13:14:34Z</time></trkpt><trkpt lat="39.82155661229703" lon="15.817038860220231"><ele>159.0</ele><time>2026-04-26T13:14:35Z</time></trkpt><trkpt lat="39.821474337530056" lon="15.817189265404238"><ele>159.0</ele><time>2026-04-26T13:14:36Z</time></trkpt><trkpt lat="39.82137295432785" lon="15.817358349837466"><ele>159.0</ele><time>2026-04-26T13:14:37Z</time></trkpt><trkpt lat="39.82125452559104" lon="15.817519139534625"><ele>159.33333333333334</ele><time>2026-04-26T13:14:38Z</time></trkpt><trkpt lat="39.821142203137896" lon="15.817681316448084"><ele>159.66666666666669</ele><time>2026-04-26T13:14:39Z</time></trkpt><trkpt lat="39.821036152715756" lon="15.817840374664447"><ele>160.0</ele><time>2026-04-26T13:14:40Z</time></trkpt><trkpt lat="39.82092450571865" lon="15.818013413631776"><ele>160.0</ele><time>2026-04-26T13:14:41Z</time></trkpt><trkpt lat="39.82081776788821" lon="15.818189857683748"><ele>160.0</ele><time>2026-04-26T13:14:42Z</time></trkpt><trkpt lat="39.8206966557245" lon="15.818364871029805"><ele>160.0</ele><time>2026-04-26T13:14:43Z</time></trkpt><trkpt lat="39.8205619182192" lon="15.818550412137013"><ele>160.0</ele><time>2026-04-26T13:14:44Z</time></trkpt><trkpt lat="39.82043622986814" lon="15.818710410324208"><ele>160.0</ele><time>2026-04-26T13:14:45Z</time></trkpt><trkpt lat="39.82031934732749" lon="15.818864420895773"><ele>160.0</ele><time>2026-04-26T13:14:46Z</time></trkpt><trkpt lat="39.82021654825723" lon="15.819025306970708"><ele>159.0</ele><time>2026-04-26T13:14:46.999Z</time></trkpt><trkpt lat="39.82011752043404" lon="15.819180735338165"><ele>158.0</ele><time>2026-04-26T13:14:47.999Z</time></trkpt><trkpt lat="39.82001421778229" lon="15.819328850436818"><ele>157.0</ele><time>2026-04-26T13:14:48.999Z</time></trkpt><trkpt lat="39.81990947824605" lon="15.8194679265789"><ele>157.0</ele><time>2026-04-26T13:14:49.999Z</time></trkpt><trkpt lat="39.819806672989024" lon="15.819611120801605"><ele>157.0</ele><time>2026-04-26T13:14:50.999Z</time></trkpt><trkpt lat="39.819699814650825" lon="15.819738419663821"><ele>157.0</ele><time>2026-04-26T13:14:51.999Z</time></trkpt><trkpt lat="39.81959181596508" lon="15.819864549145365"><ele>157.0</ele><time>2026-04-26T13:14:52.999Z</time></trkpt><trkpt lat="39.81948299604849" lon="15.81998622777309"><ele>157.0</ele><time>2026-04-26T13:14:53.999Z</time></trkpt><trkpt lat="39.81937984935708" lon="15.820105916586007"><ele>157.0</ele><time>2026-04-26T13:14:54.999Z</time></trkpt><trkpt lat="39.81928631072015" lon="15.82022560722203"><ele>157.0</ele><time>2026-04-26T13:14:55.999Z</time></trkpt><trkpt lat="39.81919812144763" lon="15.820338461815359"><ele>157.0</ele><time>2026-04-26T13:14:56.999Z</time></trkpt><trkpt lat="39.819107808696884" lon="15.820436110247226"><ele>155.5</ele><time>2026-04-26T13:14:57.999Z</time></trkpt><trkpt lat="39.81901859850571" lon="15.820532002738807"><ele>154.0</ele><time>2026-04-26T13:14:58.999Z</time></trkpt><trkpt lat="39.81892862636809" lon="15.820644992850244"><ele>152.5</ele><time>2026-04-26T13:14:59.999Z</time></trkpt><trkpt lat="39.81883991309685" lon="15.820777540984734"><ele>151.0</ele><time>2026-04-26T13:15:00.999Z</time></trkpt><trkpt lat="39.81876515595082" lon="15.820915771141653"><ele>148.6</ele><time>2026-04-26T13:15:01.999Z</time></trkpt><trkpt lat="39.81869210488737" lon="15.821037985983104"><ele>146.2</ele><time>2026-04-26T13:15:02.999Z</time></trkpt><trkpt lat="39.818651736685005" lon="15.821160186626043"><ele>143.8</ele><time>2026-04-26T13:15:03.999Z</time></trkpt><trkpt lat="39.818632225418" lon="15.821257724901281"><ele>141.4</ele><time>2026-04-26T13:15:04.999Z</time></trkpt><trkpt lat="39.818626261432655" lon="15.821370947881846"><ele>139.0</ele><time>2026-04-26T13:15:06.999Z</time></trkpt><trkpt lat="39.81884187689324" lon="15.82149380312335"><ele>139.0</ele><time>2026-04-26T13:15:09.999Z</time></trkpt><trkpt lat="39.81892603835079" lon="15.821450515057087"><ele>139.0</ele><time>2026-04-26T13:15:10.999Z</time></trkpt><trkpt lat="39.81901491039045" lon="15.821405023875734"><ele>139.0</ele><time>2026-04-26T13:15:11.999Z</time></trkpt><trkpt lat="39.81910888757392" lon="15.821356918189574"><ele>139.0</ele><time>2026-04-26T13:15:12.999Z</time></trkpt><trkpt lat="39.819209068854086" lon="15.821308027521773"><ele>139.0</ele><time>2026-04-26T13:15:13.999Z</time></trkpt><trkpt lat="39.81931840660533" lon="15.821259049428607"><ele>138.0</ele><time>2026-04-26T13:15:14.999Z</time></trkpt><trkpt lat="39.819448766468504" lon="15.821210733063863"><ele>137.0</ele><time>2026-04-26T13:15:15.999Z</time></trkpt><trkpt lat="39.819597534422456" lon="15.82117363197945"><ele>136.0</ele><time>2026-04-26T13:15:16.999Z</time></trkpt><trkpt lat="39.81975484548367" lon="15.821145225723033"><ele>135.0</ele><time>2026-04-26T13:15:17.999Z</time></trkpt><trkpt lat="39.819916257914855" lon="15.82110551036948"><ele>135.0</ele><time>2026-04-26T13:15:18.999Z</time></trkpt><trkpt lat="39.82007022017535" lon="15.821044679375678"><ele>135.0</ele><time>2026-04-26T13:15:19.999Z</time></trkpt><trkpt lat="39.820217056276995" lon="15.820940555102691"><ele>135.0</ele><time>2026-04-26T13:15:20.999Z</time></trkpt><trkpt lat="39.82036788571195" lon="15.820828125416478"><ele>138.33333333333334</ele><time>2026-04-26T13:15:21.999Z</time></trkpt><trkpt lat="39.82049812987061" lon="15.820656930458938"><ele>141.66666666666669</ele><time>2026-04-26T13:15:22.999Z</time></trkpt><trkpt lat="39.820652255948005" lon="15.820540147479683"><ele>145.0</ele><time>2026-04-26T13:15:23.999Z</time></trkpt><trkpt lat="39.82080465674292" lon="15.820412332009273"><ele>145.0</ele><time>2026-04-26T13:15:24.999Z</time></trkpt><trkpt lat="39.820931505364214" lon="15.82026802776371"><ele>145.0</ele><time>2026-04-26T13:15:25.999Z</time></trkpt><trkpt lat="39.82103681950201" lon="15.820126986789568"><ele>145.0</ele><time>2026-04-26T13:15:26.999Z</time></trkpt><trkpt lat="39.82115320722928" lon="15.82001834266825"><ele>147.33333333333334</ele><time>2026-04-26T13:15:27.999Z</time></trkpt><trkpt lat="39.821299217647145" lon="15.819946347672913"><ele>149.66666666666666</ele><time>2026-04-26T13:15:28.999Z</time></trkpt><trkpt lat="39.821470241223906" lon="15.819910149236554"><ele>152.0</ele><time>2026-04-26T13:15:29.999Z</time></trkpt><trkpt lat="39.82162972002083" lon="15.81990331505519"><ele>152.0</ele><time>2026-04-26T13:15:30.999Z</time></trkpt><trkpt lat="39.82175239090624" lon="15.819910000466088"><ele>152.0</ele><time>2026-04-26T13:15:31.999Z</time></trkpt><trkpt lat="39.821863774171156" lon="15.819938745864492"><ele>152.0</ele><time>2026-04-26T13:15:32.999Z</time></trkpt><trkpt lat="39.821963738667606" lon="15.820017469670658"><ele>152.0</ele><time>2026-04-26T13:15:33.999Z</time></trkpt><trkpt lat="39.822047809031574" lon="15.82014543019326"><ele>153.0</ele><time>2026-04-26T13:15:34.999Z</time></trkpt><trkpt lat="39.822013300880634" lon="15.82035157550473"><ele>154.0</ele><time>2026-04-26T13:15:35.999Z</time></trkpt><trkpt lat="39.82201238020186" lon="15.820497012370206"><ele>155.0</ele><time>2026-04-26T13:15:37.999Z</time></trkpt><trkpt lat="39.82194520079632" lon="15.820637934802551"><ele>156.0</ele><time>2026-04-26T13:15:38.999Z</time></trkpt><trkpt lat="39.82185175704614" lon="15.820805278248859"><ele>155.33333333333334</ele><time>2026-04-26T13:15:39.999Z</time></trkpt><trkpt lat="39.82174292322293" lon="15.820978912092524"><ele>154.66666666666669</ele><time>2026-04-26T13:15:40.999Z</time></trkpt><trkpt lat="39.82165102619779" lon="15.821160324049359"><ele>154.0</ele><time>2026-04-26T13:15:41.999Z</time></trkpt><trkpt lat="39.82156916453075" lon="15.821313668077686"><ele>154.0</ele><time>2026-04-26T13:15:42.999Z</time></trkpt><trkpt lat="39.82149101572782" lon="15.821458829788982"><ele>154.0</ele><time>2026-04-26T13:15:43.999Z</time></trkpt><trkpt lat="39.82143471239461" lon="15.8216115160497"><ele>154.0</ele><time>2026-04-26T13:15:44.999Z</time></trkpt><trkpt lat="39.82138562415921" lon="15.821778514167335"><ele>154.0</ele><time>2026-04-26T13:15:45.999Z</time></trkpt><trkpt lat="39.82137720987673" lon="15.821992639002948"><ele>154.5</ele><time>2026-04-26T13:15:46.999Z</time></trkpt><trkpt lat="39.8214243831034" lon="15.82218490708221"><ele>155.0</ele><time>2026-04-26T13:15:47.999Z</time></trkpt><trkpt lat="39.82145572319948" lon="15.822329579255236"><ele>155.5</ele><time>2026-04-26T13:15:48.999Z</time></trkpt><trkpt lat="39.821467538435336" lon="15.822459634170425"><ele>156.0</ele><time>2026-04-26T13:15:49.999Z</time></trkpt><trkpt lat="39.821461661510696" lon="15.822600428044948"><ele>156.0</ele><time>2026-04-26T13:15:50.999Z</time></trkpt><trkpt lat="39.821410463541305" lon="15.822731055379576"><ele>156.0</ele><time>2026-04-26T13:15:51.999Z</time></trkpt><trkpt lat="39.821336358884906" lon="15.822864506415538"><ele>156.0</ele><time>2026-04-26T13:15:52.999Z</time></trkpt><trkpt lat="39.82126064753487" lon="15.823017117333595"><ele>156.0</ele><time>2026-04-26T13:15:53.999Z</time></trkpt><trkpt lat="39.82118196521256" lon="15.823173647625293"><ele>156.0</ele><time>2026-04-26T13:15:54.999Z</time></trkpt><trkpt lat="39.82112687415409" lon="15.823323047257436"><ele>156.0</ele><time>2026-04-26T13:15:55.999Z</time></trkpt><trkpt lat="39.821085907772144" lon="15.8234684841787"><ele>156.0</ele><time>2026-04-26T13:15:56.999Z</time></trkpt><trkpt lat="39.82106241741561" lon="15.823603375397877"><ele>156.0</ele><time>2026-04-26T13:15:57.999Z</time></trkpt><trkpt lat="39.82108519514935" lon="15.823771936949113"><ele>154.33333333333334</ele><time>2026-04-26T13:15:58.999Z</time></trkpt><trkpt lat="39.821233371733875" lon="15.823950540351195"><ele>152.66666666666669</ele><time>2026-04-26T13:15:59.999Z</time></trkpt><trkpt lat="39.821424775182415" lon="15.823977742607566"><ele>151.0</ele><time>2026-04-26T13:16:00.999Z</time></trkpt><trkpt lat="39.82155884615382" lon="15.824079473931528"><ele>151.0</ele><time>2026-04-26T13:16:01.999Z</time></trkpt><trkpt lat="39.82167885153272" lon="15.824187390455963"><ele>151.0</ele><time>2026-04-26T13:16:02.999Z</time></trkpt><trkpt lat="39.82179093099354" lon="15.824293130068385"><ele>151.0</ele><time>2026-04-26T13:16:03.999Z</time></trkpt><trkpt lat="39.82186975772596" lon="15.824482837468457"><ele>144.0</ele><time>2026-04-26T13:16:04.999Z</time></trkpt><trkpt lat="39.82201143135154" lon="15.824520001287224"><ele>137.0</ele><time>2026-04-26T13:16:05.999Z</time></trkpt><trkpt lat="39.82216307175962" lon="15.82450608140419"><ele>130.0</ele><time>2026-04-26T13:16:06.999Z</time></trkpt><trkpt lat="39.822307533444445" lon="15.824419100498908"><ele>130.0</ele><time>2026-04-26T13:16:08Z</time></trkpt><trkpt lat="39.82243681515654" lon="15.824378672214069"><ele>130.0</ele><time>2026-04-26T13:16:09Z</time></trkpt><trkpt lat="39.82253368500066" lon="15.824385162201507"><ele>130.0</ele><time>2026-04-26T13:16:10Z</time></trkpt><trkpt lat="39.82262617135705" lon="15.824432338965766"><ele>130.0</ele><time>2026-04-26T13:16:11Z</time></trkpt><trkpt lat="39.82275864602175" lon="15.824503147252889"><ele>131.0</ele><time>2026-04-26T13:16:12Z</time></trkpt><trkpt lat="39.82291280483481" lon="15.824584743488517"><ele>132.0</ele><time>2026-04-26T13:16:13Z</time></trkpt><trkpt lat="39.82305202361015" lon="15.824644299147037"><ele>133.0</ele><time>2026-04-26T13:16:14Z</time></trkpt><trkpt lat="39.82318664123401" lon="15.824691111249637"><ele>133.0</ele><time>2026-04-26T13:16:15Z</time></trkpt><trkpt lat="39.82333338916992" lon="15.824726335353033"><ele>133.0</ele><time>2026-04-26T13:16:16Z</time></trkpt><trkpt lat="39.823489603928586" lon="15.82476146180374"><ele>133.0</ele><time>2026-04-26T13:16:17Z</time></trkpt><trkpt lat="39.82364683676821" lon="15.824796817254072"><ele>134.0</ele><time>2026-04-26T13:16:18Z</time></trkpt><trkpt lat="39.82378984003916" lon="15.824830608006483"><ele>135.0</ele><time>2026-04-26T13:16:19Z</time></trkpt><trkpt lat="39.82391461597784" lon="15.824863615187935"><ele>136.0</ele><time>2026-04-26T13:16:20Z</time></trkpt><trkpt lat="39.82401457054644" lon="15.824905645368887"><ele>137.0</ele><time>2026-04-26T13:16:21Z</time></trkpt><trkpt lat="39.824109619969434" lon="15.824968659127219"><ele>137.0</ele><time>2026-04-26T13:16:22Z</time></trkpt><trkpt lat="39.82421229731608" lon="15.825067301231337"><ele>137.0</ele><time>2026-04-26T13:16:23Z</time></trkpt><trkpt lat="39.824326175554404" lon="15.825200726064601"><ele>137.0</ele><time>2026-04-26T13:16:24Z</time></trkpt><trkpt lat="39.82443542636521" lon="15.825331429506603"><ele>137.0</ele><time>2026-04-26T13:16:25Z</time></trkpt><trkpt lat="39.824519126305006" lon="15.825436154931996"><ele>137.0</ele><time>2026-04-26T13:16:26Z</time></trkpt><trkpt lat="39.8245803689781" lon="15.825523514043748"><ele>137.0</ele><time>2026-04-26T13:16:27Z</time></trkpt><trkpt lat="39.824607410396965" lon="15.825604967036538"><ele>137.0</ele><time>2026-04-26T13:16:28Z</time></trkpt><trkpt lat="39.82460840739923" lon="15.825757976605358"><ele>137.0</ele><time>2026-04-26T13:16:29Z</time></trkpt><trkpt lat="39.82457724179429" lon="15.825949382176356"><ele>137.0</ele><time>2026-04-26T13:16:30Z</time></trkpt><trkpt lat="39.82454944479775" lon="15.826113829454147"><ele>137.2</ele><time>2026-04-26T13:16:31Z</time></trkpt><trkpt lat="39.824522306909074" lon="15.82624166474672"><ele>137.39999999999998</ele><time>2026-04-26T13:16:32Z</time></trkpt><trkpt lat="39.82447787104329" lon="15.826360362920765"><ele>137.60000000000002</ele><time>2026-04-26T13:16:33Z</time></trkpt><trkpt lat="39.82437020176288" lon="15.826409132679151"><ele>137.8</ele><time>2026-04-26T13:16:34Z</time></trkpt><trkpt lat="39.82425627912095" lon="15.82638953821944"><ele>138.0</ele><time>2026-04-26T13:16:35Z</time></trkpt><trkpt lat="39.824140547443236" lon="15.8263397691135"><ele>138.5</ele><time>2026-04-26T13:16:36Z</time></trkpt><trkpt lat="39.82402381751703" lon="15.826274003167624"><ele>139.0</ele><time>2026-04-26T13:16:37Z</time></trkpt><trkpt lat="39.82391042669988" lon="15.82623393228852"><ele>139.5</ele><time>2026-04-26T13:16:38Z</time></trkpt><trkpt lat="39.82379031437899" lon="15.826255039817141"><ele>140.0</ele><time>2026-04-26T13:16:39Z</time></trkpt><trkpt lat="39.82365107277354" lon="15.826297339952916"><ele>140.0</ele><time>2026-04-26T13:16:40Z</time></trkpt><trkpt lat="39.82350764886543" lon="15.826333631064356"><ele>140.0</ele><time>2026-04-26T13:16:41Z</time></trkpt><trkpt lat="39.82336153738242" lon="15.826381670251635"><ele>140.0</ele><time>2026-04-26T13:16:42Z</time></trkpt><trkpt lat="39.82321144474269" lon="15.826428091411255"><ele>140.0</ele><time>2026-04-26T13:16:43Z</time></trkpt><trkpt lat="39.82306464083002" lon="15.826471383784344"><ele>140.0</ele><time>2026-04-26T13:16:44Z</time></trkpt><trkpt lat="39.82293432628239" lon="15.826507434724878"><ele>140.0</ele><time>2026-04-26T13:16:45Z</time></trkpt><trkpt lat="39.82280891451871" lon="15.82651272530365"><ele>140.0</ele><time>2026-04-26T13:16:46Z</time></trkpt><trkpt lat="39.822692378503106" lon="15.826515234307987"><ele>140.5</ele><time>2026-04-26T13:16:47Z</time></trkpt><trkpt lat="39.822579241492576" lon="15.82653352085468"><ele>141.0</ele><time>2026-04-26T13:16:48Z</time></trkpt><trkpt lat="39.82245839448917" lon="15.826611042429104"><ele>141.5</ele><time>2026-04-26T13:16:49Z</time></trkpt><trkpt lat="39.82235321563974" lon="15.826783728965307"><ele>142.0</ele><time>2026-04-26T13:16:50Z</time></trkpt><trkpt lat="39.82227336681291" lon="15.826971576981336"><ele>144.75</ele><time>2026-04-26T13:16:51Z</time></trkpt><trkpt lat="39.822186862302914" lon="15.827129741267715"><ele>147.5</ele><time>2026-04-26T13:16:51.999Z</time></trkpt><trkpt lat="39.82208517440725" lon="15.827259121585595"><ele>150.25</ele><time>2026-04-26T13:16:52.999Z</time></trkpt><trkpt lat="39.82197589399711" lon="15.827349068413367"><ele>153.0</ele><time>2026-04-26T13:16:53.999Z</time></trkpt><trkpt lat="39.821868183186524" lon="15.827408254329429"><ele>152.33333333333334</ele><time>2026-04-26T13:16:54.999Z</time></trkpt><trkpt lat="39.82175668425691" lon="15.8276018072707"><ele>151.66666666666669</ele><time>2026-04-26T13:16:55.999Z</time></trkpt><trkpt lat="39.82171272928352" lon="15.827757055872995"><ele>151.0</ele><time>2026-04-26T13:16:56.999Z</time></trkpt><trkpt lat="39.8217139250678" lon="15.827961816971504"><ele>151.0</ele><time>2026-04-26T13:16:57.999Z</time></trkpt><trkpt lat="39.82175250894641" lon="15.828147145900799"><ele>151.0</ele><time>2026-04-26T13:16:58.999Z</time></trkpt><trkpt lat="39.82174776420849" lon="15.828303710602356"><ele>151.0</ele><time>2026-04-26T13:16:59.999Z</time></trkpt><trkpt lat="39.8217411638059" lon="15.828433441209786"><ele>151.0</ele><time>2026-04-26T13:17:00.999Z</time></trkpt><trkpt lat="39.82169550310554" lon="15.828532188223956"><ele>152.0</ele><time>2026-04-26T13:17:01.999Z</time></trkpt><trkpt lat="39.8216227794906" lon="15.828584940560397"><ele>153.0</ele><time>2026-04-26T13:17:02.999Z</time></trkpt><trkpt lat="39.82152297932635" lon="15.828644771403379"><ele>154.0</ele><time>2026-04-26T13:17:03.999Z</time></trkpt><trkpt lat="39.8214156577163" lon="15.828724156354097"><ele>155.0</ele><time>2026-04-26T13:17:04.999Z</time></trkpt><trkpt lat="39.82132665907313" lon="15.828821097815467"><ele>156.0</ele><time>2026-04-26T13:17:05.999Z</time></trkpt><trkpt lat="39.82129050839226" lon="15.828957459421943"><ele>156.0</ele><time>2026-04-26T13:17:06.999Z</time></trkpt><trkpt lat="39.8212874737057" lon="15.829117913197452"><ele>156.0</ele><time>2026-04-26T13:17:07.999Z</time></trkpt><trkpt lat="39.821340012282555" lon="15.829296174992777"><ele>156.0</ele><time>2026-04-26T13:17:08.999Z</time></trkpt><trkpt lat="39.82142958877622" lon="15.829463346316963"><ele>156.0</ele><time>2026-04-26T13:17:09.999Z</time></trkpt><trkpt lat="39.82149731356603" lon="15.829619428099898"><ele>156.0</ele><time>2026-04-26T13:17:10.999Z</time></trkpt><trkpt lat="39.82154054778252" lon="15.829778194318067"><ele>156.0</ele><time>2026-04-26T13:17:11.999Z</time></trkpt><trkpt lat="39.82159876768379" lon="15.829935231614039"><ele>156.0</ele><time>2026-04-26T13:17:12.999Z</time></trkpt><trkpt lat="39.82168821364156" lon="15.830102340089718"><ele>156.0</ele><time>2026-04-26T13:17:13.999Z</time></trkpt><trkpt lat="39.821786136786585" lon="15.830243861338095"><ele>156.66666666666666</ele><time>2026-04-26T13:17:14.999Z</time></trkpt><trkpt lat="39.82192890392811" lon="15.83031171211127"><ele>157.33333333333331</ele><time>2026-04-26T13:17:15.999Z</time></trkpt><trkpt lat="39.82209644427072" lon="15.830323087668507"><ele>158.0</ele><time>2026-04-26T13:17:16.999Z</time></trkpt><trkpt lat="39.822289838791505" lon="15.830268105217105"><ele>158.0</ele><time>2026-04-26T13:17:17.999Z</time></trkpt><trkpt lat="39.82248482901954" lon="15.830233147981792"><ele>158.0</ele><time>2026-04-26T13:17:18.999Z</time></trkpt><trkpt lat="39.82265471608185" lon="15.83021859679161"><ele>158.0</ele><time>2026-04-26T13:17:19.999Z</time></trkpt><trkpt lat="39.822825655085246" lon="15.83021357917199"><ele>160.33333333333331</ele><time>2026-04-26T13:17:20.999Z</time></trkpt><trkpt lat="39.82300343383925" lon="15.830210915209102"><ele>162.66666666666666</ele><time>2026-04-26T13:17:21.999Z</time></trkpt><trkpt lat="39.82316203871365" lon="15.830200956387014"><ele>165.0</ele><time>2026-04-26T13:17:22.999Z</time></trkpt><trkpt lat="39.823321867730776" lon="15.830214378293801"><ele>165.66666666666666</ele><time>2026-04-26T13:17:23.999Z</time></trkpt><trkpt lat="39.823490153377165" lon="15.830244411798914"><ele>166.33333333333331</ele><time>2026-04-26T13:17:24.999Z</time></trkpt><trkpt lat="39.82366007611614" lon="15.83026686681983"><ele>167.0</ele><time>2026-04-26T13:17:25.999Z</time></trkpt><trkpt lat="39.82380253832622" lon="15.830317966156688"><ele>167.0</ele><time>2026-04-26T13:17:26.999Z</time></trkpt><trkpt lat="39.823904458672104" lon="15.830373847201674"><ele>167.0</ele><time>2026-04-26T13:17:27.999Z</time></trkpt><trkpt lat="39.82396788225683" lon="15.830462515061267"><ele>167.0</ele><time>2026-04-26T13:17:28.999Z</time></trkpt><trkpt lat="39.8240425711186" lon="15.830578415677172"><ele>167.0</ele><time>2026-04-26T13:17:29.999Z</time></trkpt><trkpt lat="39.82412245050879" lon="15.830736931808323"><ele>167.0</ele><time>2026-04-26T13:17:30.999Z</time></trkpt><trkpt lat="39.82417734517439" lon="15.830896009346223"><ele>167.0</ele><time>2026-04-26T13:17:31.999Z</time></trkpt><trkpt lat="39.824205976093246" lon="15.831056459148522"><ele>167.0</ele><time>2026-04-26T13:17:32.999Z</time></trkpt><trkpt lat="39.82420253847621" lon="15.83123434581709"><ele>167.0</ele><time>2026-04-26T13:17:33.999Z</time></trkpt><trkpt lat="39.824154959316445" lon="15.831433490079547"><ele>168.0</ele><time>2026-04-26T13:17:34.999Z</time></trkpt><trkpt lat="39.824101938185706" lon="15.831680841579491"><ele>169.0</ele><time>2026-04-26T13:17:35.999Z</time></trkpt><trkpt lat="39.824060522753385" lon="15.831890541496835"><ele>170.0</ele><time>2026-04-26T13:17:36.999Z</time></trkpt><trkpt lat="39.8240204629412" lon="15.832098281540457"><ele>171.0</ele><time>2026-04-26T13:17:37.999Z</time></trkpt><trkpt lat="39.8239777289198" lon="15.832319889529801"><ele>172.0</ele><time>2026-04-26T13:17:38.999Z</time></trkpt><trkpt lat="39.82393498513332" lon="15.832537801294915"><ele>173.0</ele><time>2026-04-26T13:17:39.999Z</time></trkpt><trkpt lat="39.82389050906959" lon="15.832761768128028"><ele>174.33333333333331</ele><time>2026-04-26T13:17:40.999Z</time></trkpt><trkpt lat="39.823843083017664" lon="15.833000590308416"><ele>175.66666666666666</ele><time>2026-04-26T13:17:41.999Z</time></trkpt><trkpt lat="39.8237970929215" lon="15.833232181209018"><ele>177.0</ele><time>2026-04-26T13:17:42.999Z</time></trkpt><trkpt lat="39.82375454987078" lon="15.833446122120447"><ele>179.33333333333334</ele><time>2026-04-26T13:17:43.999Z</time></trkpt><trkpt lat="39.823717570743106" lon="15.833645190030634"><ele>181.66666666666669</ele><time>2026-04-26T13:17:44.999Z</time></trkpt><trkpt lat="39.8236969796691" lon="15.833835372711249"><ele>184.0</ele><time>2026-04-26T13:17:45.999Z</time></trkpt><trkpt lat="39.82367827682079" lon="15.834037428506447"><ele>184.0</ele><time>2026-04-26T13:17:46.999Z</time></trkpt><trkpt lat="39.82366001922534" lon="15.834250541231722"><ele>184.0</ele><time>2026-04-26T13:17:47.999Z</time></trkpt><trkpt lat="39.823640456222215" lon="15.834485012765194"><ele>184.0</ele><time>2026-04-26T13:17:48.999Z</time></trkpt><trkpt lat="39.82362107678699" lon="15.83471850602508"><ele>186.66666666666669</ele><time>2026-04-26T13:17:49.999Z</time></trkpt><trkpt lat="39.82360204248905" lon="15.834947841117215"><ele>189.33333333333334</ele><time>2026-04-26T13:17:50.999Z</time></trkpt><trkpt lat="39.82357890658171" lon="15.835184517489516"><ele>192.0</ele><time>2026-04-26T13:17:51.999Z</time></trkpt><trkpt lat="39.82355191066965" lon="15.835321733072105"><ele>192.0</ele><time>2026-04-26T13:17:52.999Z</time></trkpt><trkpt lat="39.823486048525886" lon="15.83556468244761"><ele>192.0</ele><time>2026-04-26T13:17:53.999Z</time></trkpt><trkpt lat="39.82340233983158" lon="15.835815181175594"><ele>192.0</ele><time>2026-04-26T13:17:54.999Z</time></trkpt><trkpt lat="39.823315967848366" lon="15.836055913898461"><ele>192.0</ele><time>2026-04-26T13:17:55.999Z</time></trkpt><trkpt lat="39.82323995886882" lon="15.836273120634452"><ele>192.0</ele><time>2026-04-26T13:17:56.999Z</time></trkpt><trkpt lat="39.82316505163934" lon="15.836486173180205"><ele>192.0</ele><time>2026-04-26T13:17:57.999Z</time></trkpt><trkpt lat="39.82309000698105" lon="15.83669628709229"><ele>196.0</ele><time>2026-04-26T13:17:58.999Z</time></trkpt><trkpt lat="39.82300961235475" lon="15.836917270385985"><ele>200.0</ele><time>2026-04-26T13:17:59.999Z</time></trkpt><trkpt lat="39.822929759738095" lon="15.837135979087526"><ele>204.0</ele><time>2026-04-26T13:18:00.999Z</time></trkpt><trkpt lat="39.82285083949823" lon="15.837347015351114"><ele>204.0</ele><time>2026-04-26T13:18:01.999Z</time></trkpt><trkpt lat="39.8227637071381" lon="15.837556552788618"><ele>204.0</ele><time>2026-04-26T13:18:02.999Z</time></trkpt><trkpt lat="39.822659437362454" lon="15.837759601455609"><ele>204.0</ele><time>2026-04-26T13:18:03.999Z</time></trkpt><trkpt lat="39.822548976477" lon="15.837964060534098"><ele>202.0</ele><time>2026-04-26T13:18:04.999Z</time></trkpt><trkpt lat="39.82244518656093" lon="15.838158568373624"><ele>200.0</ele><time>2026-04-26T13:18:05.999Z</time></trkpt><trkpt lat="39.82234344442684" lon="15.83835018753277"><ele>198.0</ele><time>2026-04-26T13:18:06.999Z</time></trkpt><trkpt lat="39.82224449877" lon="15.838550342654521"><ele>202.66666666666669</ele><time>2026-04-26T13:18:07.999Z</time></trkpt><trkpt lat="39.822153745021346" lon="15.838760243311215"><ele>207.33333333333334</ele><time>2026-04-26T13:18:08.999Z</time></trkpt><trkpt lat="39.82206781930749" lon="15.838987677003587"><ele>212.0</ele><time>2026-04-26T13:18:09.999Z</time></trkpt><trkpt lat="39.821985398236315" lon="15.83922644260234"><ele>208.66666666666669</ele><time>2026-04-26T13:18:10.999Z</time></trkpt><trkpt lat="39.82190368562727" lon="15.839465252914989"><ele>205.33333333333331</ele><time>2026-04-26T13:18:11.999Z</time></trkpt><trkpt lat="39.821819242899984" lon="15.839706632687891"><ele>202.0</ele><time>2026-04-26T13:18:13Z</time></trkpt><trkpt lat="39.82173519985788" lon="15.839946848616364"><ele>205.66666666666666</ele><time>2026-04-26T13:18:14Z</time></trkpt><trkpt lat="39.82164982696774" lon="15.840190869545303"><ele>209.33333333333331</ele><time>2026-04-26T13:18:15Z</time></trkpt><trkpt lat="39.82159136596819" lon="15.840447248836876"><ele>213.0</ele><time>2026-04-26T13:18:16Z</time></trkpt><trkpt lat="39.821505789499284" lon="15.840688553655328"><ele>213.0</ele><time>2026-04-26T13:18:17Z</time></trkpt><trkpt lat="39.82142504884843" lon="15.840914677425106"><ele>213.0</ele><time>2026-04-26T13:18:18Z</time></trkpt><trkpt lat="39.821340176590475" lon="15.84112451164754"><ele>213.0</ele><time>2026-04-26T13:18:19Z</time></trkpt><trkpt lat="39.82123327764398" lon="15.841300662629855"><ele>218.66666666666669</ele><time>2026-04-26T13:18:20Z</time></trkpt><trkpt lat="39.821159739228364" lon="15.84149606115299"><ele>224.33333333333334</ele><time>2026-04-26T13:18:21Z</time></trkpt><trkpt lat="39.82108833489542" lon="15.841687036161307"><ele>230.0</ele><time>2026-04-26T13:18:22Z</time></trkpt><trkpt lat="39.82101789149514" lon="15.841875628962923"><ele>222.0</ele><time>2026-04-26T13:18:23Z</time></trkpt><trkpt lat="39.82094870459006" lon="15.842062455874045"><ele>214.0</ele><time>2026-04-26T13:18:24Z</time></trkpt><trkpt lat="39.820878285959296" lon="15.84225260891754"><ele>206.0</ele><time>2026-04-26T13:18:25Z</time></trkpt><trkpt lat="39.82080923581318" lon="15.842441127715372"><ele>206.0</ele><time>2026-04-26T13:18:26Z</time></trkpt><trkpt lat="39.82074065274522" lon="15.842628663471855"><ele>206.0</ele><time>2026-04-26T13:18:27Z</time></trkpt><trkpt lat="39.82066997173024" lon="15.842819114993853"><ele>206.0</ele><time>2026-04-26T13:18:28Z</time></trkpt><trkpt lat="39.820594915611196" lon="15.843014782834679"><ele>213.33333333333334</ele><time>2026-04-26T13:18:29Z</time></trkpt><trkpt lat="39.82051425728303" lon="15.843234672508647"><ele>220.66666666666669</ele><time>2026-04-26T13:18:30Z</time></trkpt><trkpt lat="39.820403387019134" lon="15.843445502151182"><ele>228.0</ele><time>2026-04-26T13:18:31Z</time></trkpt><trkpt lat="39.8202936472811" lon="15.843626256081174"><ele>231.5</ele><time>2026-04-26T13:18:32Z</time></trkpt><trkpt lat="39.8202034933559" lon="15.843791418951295"><ele>235.0</ele><time>2026-04-26T13:18:33Z</time></trkpt><trkpt lat="39.820117587171" lon="15.84394053191236"><ele>238.5</ele><time>2026-04-26T13:18:34Z</time></trkpt><trkpt lat="39.820030239512036" lon="15.844085446656004"><ele>242.0</ele><time>2026-04-26T13:18:35Z</time></trkpt><trkpt lat="39.81995289255269" lon="15.844230108632857"><ele>236.66666666666669</ele><time>2026-04-26T13:18:36Z</time></trkpt><trkpt lat="39.81988022178506" lon="15.844392685798317"><ele>231.33333333333331</ele><time>2026-04-26T13:18:37Z</time></trkpt><trkpt lat="39.81980020190798" lon="15.844562147942701"><ele>226.0</ele><time>2026-04-26T13:18:38Z</time></trkpt><trkpt lat="39.81974863945788" lon="15.844750250632673"><ele>226.0</ele><time>2026-04-26T13:18:39Z</time></trkpt><trkpt lat="39.81970440285748" lon="15.844951700828457"><ele>226.0</ele><time>2026-04-26T13:18:40Z</time></trkpt><trkpt lat="39.819672411464595" lon="15.845167064530647"><ele>226.0</ele><time>2026-04-26T13:18:41Z</time></trkpt><trkpt lat="39.819657183396245" lon="15.845392584619292"><ele>227.66666666666666</ele><time>2026-04-26T13:18:42Z</time></trkpt><trkpt lat="39.81964837034789" lon="15.845623359579596"><ele>229.33333333333331</ele><time>2026-04-26T13:18:43Z</time></trkpt><trkpt lat="39.81964076039715" lon="15.845847285479755"><ele>231.0</ele><time>2026-04-26T13:18:44Z</time></trkpt><trkpt lat="39.819633455773975" lon="15.846077014219334"><ele>233.0</ele><time>2026-04-26T13:18:45Z</time></trkpt><trkpt lat="39.81963751027183" lon="15.846324950814495"><ele>235.0</ele><time>2026-04-26T13:18:46Z</time></trkpt><trkpt lat="39.819660735631004" lon="15.846580514283797"><ele>237.0</ele><time>2026-04-26T13:18:47Z</time></trkpt><trkpt lat="39.81969203902699" lon="15.84682877236082"><ele>238.0</ele><time>2026-04-26T13:18:48Z</time></trkpt><trkpt lat="39.81972031746904" lon="15.847077019400015"><ele>239.0</ele><time>2026-04-26T13:18:49Z</time></trkpt><trkpt lat="39.81974310017178" lon="15.847322362155625"><ele>240.0</ele><time>2026-04-26T13:18:50Z</time></trkpt><trkpt lat="39.819749308100754" lon="15.847560881827738"><ele>241.66666666666669</ele><time>2026-04-26T13:18:51Z</time></trkpt><trkpt lat="39.81973916800382" lon="15.847810367882795"><ele>243.33333333333334</ele><time>2026-04-26T13:18:52Z</time></trkpt><trkpt lat="39.81972764624888" lon="15.848043548194918"><ele>245.0</ele><time>2026-04-26T13:18:53Z</time></trkpt><trkpt lat="39.81972036734948" lon="15.848256426762127"><ele>245.66666666666669</ele><time>2026-04-26T13:18:54Z</time></trkpt><trkpt lat="39.81971975378918" lon="15.848471960654084"><ele>246.33333333333331</ele><time>2026-04-26T13:18:55Z</time></trkpt><trkpt lat="39.81972712182392" lon="15.848694362307713"><ele>247.0</ele><time>2026-04-26T13:18:56Z</time></trkpt><trkpt lat="39.81973864177333" lon="15.848916261989782"><ele>247.0</ele><time>2026-04-26T13:18:56.999Z</time></trkpt><trkpt lat="39.819758630773904" lon="15.849147347480153"><ele>247.0</ele><time>2026-04-26T13:18:57.999Z</time></trkpt><trkpt lat="39.81978867153544" lon="15.849383079873522"><ele>247.0</ele><time>2026-04-26T13:18:58.999Z</time></trkpt><trkpt lat="39.819820196781734" lon="15.849608793285885"><ele>246.33333333333331</ele><time>2026-04-26T13:18:59.999Z</time></trkpt><trkpt lat="39.819851233941755" lon="15.849831012117328"><ele>245.66666666666669</ele><time>2026-04-26T13:19:00.999Z</time></trkpt><trkpt lat="39.81988872447772" lon="15.850040562574712"><ele>245.0</ele><time>2026-04-26T13:19:01.999Z</time></trkpt><trkpt lat="39.819930053370655" lon="15.850226870959041"><ele>243.5</ele><time>2026-04-26T13:19:02.999Z</time></trkpt><trkpt lat="39.8199585018068" lon="15.850406307752174"><ele>242.0</ele><time>2026-04-26T13:19:03.999Z</time></trkpt><trkpt lat="39.819982982465525" lon="15.850586331410556"><ele>240.5</ele><time>2026-04-26T13:19:04.999Z</time></trkpt><trkpt lat="39.820011333463846" lon="15.850765439129956"><ele>239.0</ele><time>2026-04-26T13:19:05.999Z</time></trkpt><trkpt lat="39.82004005123144" lon="15.85094717561919"><ele>237.5</ele><time>2026-04-26T13:19:06.999Z</time></trkpt><trkpt lat="39.820062765199" lon="15.851117615608931"><ele>236.0</ele><time>2026-04-26T13:19:07.999Z</time></trkpt><trkpt lat="39.82014057683346" lon="15.851284310865564"><ele>234.5</ele><time>2026-04-26T13:19:08.999Z</time></trkpt><trkpt lat="39.82014498562536" lon="15.851472456682943"><ele>233.0</ele><time>2026-04-26T13:19:09.999Z</time></trkpt><trkpt lat="39.82015328604699" lon="15.85165307951183"><ele>232.5</ele><time>2026-04-26T13:19:10.999Z</time></trkpt><trkpt lat="39.820164576474255" lon="15.851822337542952"><ele>232.0</ele><time>2026-04-26T13:19:11.999Z</time></trkpt><trkpt lat="39.82011592138616" lon="15.851999106849153"><ele>231.5</ele><time>2026-04-26T13:19:12.999Z</time></trkpt><trkpt lat="39.820123900133964" lon="15.85217243381265"><ele>231.0</ele><time>2026-04-26T13:19:13.999Z</time></trkpt><trkpt lat="39.820148796936245" lon="15.852339751087376"><ele>233.0</ele><time>2026-04-26T13:19:14.999Z</time></trkpt><trkpt lat="39.82017910630905" lon="15.852488124951137"><ele>235.00000000000003</ele><time>2026-04-26T13:19:15.999Z</time></trkpt><trkpt lat="39.82020420280674" lon="15.852617462916129"><ele>237.00000000000003</ele><time>2026-04-26T13:19:16.999Z</time></trkpt><trkpt lat="39.82020377136453" lon="15.852759418283151"><ele>239.0</ele><time>2026-04-26T13:19:17.999Z</time></trkpt><trkpt lat="39.82016728973146" lon="15.852905230265351"><ele>241.0</ele><time>2026-04-26T13:19:18.999Z</time></trkpt><trkpt lat="39.820116963187736" lon="15.853037484402867"><ele>241.0</ele><time>2026-04-26T13:19:19.999Z</time></trkpt><trkpt lat="39.82007861268946" lon="15.853155110397376"><ele>241.00000000000003</ele><time>2026-04-26T13:19:20.999Z</time></trkpt><trkpt lat="39.8199962891401" lon="15.85323256131874"><ele>241.00000000000003</ele><time>2026-04-26T13:19:21.999Z</time></trkpt><trkpt lat="39.81988609167633" lon="15.853268601093466"><ele>241.0</ele><time>2026-04-26T13:19:22.999Z</time></trkpt><trkpt lat="39.819763163008254" lon="15.853269301710178"><ele>241.0</ele><time>2026-04-26T13:19:23.999Z</time></trkpt><trkpt lat="39.81965588946466" lon="15.8532943403228"><ele>241.0</ele><time>2026-04-26T13:19:24.999Z</time></trkpt><trkpt lat="39.819567307438255" lon="15.853386986795334"><ele>241.0</ele><time>2026-04-26T13:19:25.999Z</time></trkpt><trkpt lat="39.819492910287174" lon="15.853522426121078"><ele>241.0</ele><time>2026-04-26T13:19:26.999Z</time></trkpt><trkpt lat="39.819412825711005" lon="15.853635894015486"><ele>241.0</ele><time>2026-04-26T13:19:27.999Z</time></trkpt><trkpt lat="39.81930440981234" lon="15.853698779642894"><ele>240.5</ele><time>2026-04-26T13:19:28.999Z</time></trkpt><trkpt lat="39.819192842892186" lon="15.853710449356276"><ele>240.0</ele><time>2026-04-26T13:19:29.999Z</time></trkpt><trkpt lat="39.81909589794243" lon="15.853762109956891"><ele>239.5</ele><time>2026-04-26T13:19:30.999Z</time></trkpt><trkpt lat="39.81900846848385" lon="15.853851705509799"><ele>239.0</ele><time>2026-04-26T13:19:31.999Z</time></trkpt><trkpt lat="39.81896444772045" lon="15.854033170319154"><ele>239.0</ele><time>2026-04-26T13:19:32.999Z</time></trkpt><trkpt lat="39.818915547713885" lon="15.854219464978282"><ele>239.0</ele><time>2026-04-26T13:19:33.999Z</time></trkpt><trkpt lat="39.81888072617908" lon="15.854377990130335"><ele>239.0</ele><time>2026-04-26T13:19:34.999Z</time></trkpt><trkpt lat="39.818848645260246" lon="15.854537663246532"><ele>239.0</ele><time>2026-04-26T13:19:35.999Z</time></trkpt><trkpt lat="39.81882447602622" lon="15.854710297903873"><ele>242.33333333333334</ele><time>2026-04-26T13:19:36.999Z</time></trkpt><trkpt lat="39.81874417642541" lon="15.854877749865945"><ele>245.66666666666669</ele><time>2026-04-26T13:19:37.999Z</time></trkpt><trkpt lat="39.81863823615185" lon="15.855038025529398"><ele>249.0</ele><time>2026-04-26T13:19:38.999Z</time></trkpt><trkpt lat="39.818512238135106" lon="15.85516960288362"><ele>248.0</ele><time>2026-04-26T13:19:39.999Z</time></trkpt><trkpt lat="39.818379132308166" lon="15.855275570656746"><ele>247.0</ele><time>2026-04-26T13:19:40.999Z</time></trkpt><trkpt lat="39.81824713333501" lon="15.855364907219965"><ele>246.0</ele><time>2026-04-26T13:19:41.999Z</time></trkpt><trkpt lat="39.81812024680334" lon="15.85544484153428"><ele>245.0</ele><time>2026-04-26T13:19:42.999Z</time></trkpt><trkpt lat="39.8179849787434" lon="15.855519696061602"><ele>245.0</ele><time>2026-04-26T13:19:43.999Z</time></trkpt><trkpt lat="39.8178527884227" lon="15.855568328202757"><ele>245.0</ele><time>2026-04-26T13:19:44.999Z</time></trkpt><trkpt lat="39.81773016450051" lon="15.855591091244868"><ele>245.0</ele><time>2026-04-26T13:19:45.999Z</time></trkpt><trkpt lat="39.817623503341906" lon="15.855606894189156"><ele>245.0</ele><time>2026-04-26T13:19:46.999Z</time></trkpt><trkpt lat="39.8175492369689" lon="15.855638125959647"><ele>245.0</ele><time>2026-04-26T13:19:47.999Z</time></trkpt><trkpt lat="39.81750519761778" lon="15.855719572151756"><ele>242.4</ele><time>2026-04-26T13:19:48.999Z</time></trkpt><trkpt lat="39.81748894200076" lon="15.855819751168921"><ele>239.8</ele><time>2026-04-26T13:19:49.999Z</time></trkpt><trkpt lat="39.8174664346501" lon="15.855931654446843"><ele>237.2</ele><time>2026-04-26T13:19:50.999Z</time></trkpt><trkpt lat="39.817489604124134" lon="15.856105655712776"><ele>234.6</ele><time>2026-04-26T13:19:51.999Z</time></trkpt><trkpt lat="39.81753247453174" lon="15.856271334729856"><ele>232.0</ele><time>2026-04-26T13:19:52.999Z</time></trkpt><trkpt lat="39.81757308854227" lon="15.85643792393391"><ele>231.75</ele><time>2026-04-26T13:19:53.999Z</time></trkpt><trkpt lat="39.81761456190274" lon="15.856607184615868"><ele>231.5</ele><time>2026-04-26T13:19:54.999Z</time></trkpt><trkpt lat="39.81765734042966" lon="15.856780692044783"><ele>231.25</ele><time>2026-04-26T13:19:55.999Z</time></trkpt><trkpt lat="39.8176997058186" lon="15.856952523672346"><ele>231.0</ele><time>2026-04-26T13:19:56.999Z</time></trkpt><trkpt lat="39.81773593357945" lon="15.857115817686216"><ele>232.0</ele><time>2026-04-26T13:19:57.999Z</time></trkpt><trkpt lat="39.81777120284751" lon="15.85727497986047"><ele>233.0</ele><time>2026-04-26T13:19:58.999Z</time></trkpt><trkpt lat="39.81780260279202" lon="15.85740614127274"><ele>234.0</ele><time>2026-04-26T13:19:59.999Z</time></trkpt><trkpt lat="39.817867777437804" lon="15.857552991105033"><ele>235.0</ele><time>2026-04-26T13:20:00.999Z</time></trkpt><trkpt lat="39.818018390404944" lon="15.857676264540144"><ele>230.25</ele><time>2026-04-26T13:20:01.999Z</time></trkpt><trkpt lat="39.818158089684644" lon="15.85778466690204"><ele>225.5</ele><time>2026-04-26T13:20:02.999Z</time></trkpt><trkpt lat="39.81828203780885" lon="15.85788188368681"><ele>220.75</ele><time>2026-04-26T13:20:03.999Z</time></trkpt><trkpt lat="39.81838795633997" lon="15.857970157386696"><ele>216.0</ele><time>2026-04-26T13:20:04.999Z</time></trkpt><trkpt lat="39.8184766931772" lon="15.858062549023131"><ele>215.75</ele><time>2026-04-26T13:20:05.999Z</time></trkpt><trkpt lat="39.8185519388284" lon="15.858178345831782"><ele>215.5</ele><time>2026-04-26T13:20:06.999Z</time></trkpt><trkpt lat="39.81863311147751" lon="15.85832954383164"><ele>215.25</ele><time>2026-04-26T13:20:07.999Z</time></trkpt><trkpt lat="39.818689180952816" lon="15.858489071312356"><ele>215.0</ele><time>2026-04-26T13:20:08.999Z</time></trkpt><trkpt lat="39.81872847121932" lon="15.8586548584359"><ele>215.0</ele><time>2026-04-26T13:20:09.999Z</time></trkpt><trkpt lat="39.81875977801293" lon="15.858805661174314"><ele>215.0</ele><time>2026-04-26T13:20:10.999Z</time></trkpt><trkpt lat="39.818792741026996" lon="15.858942981618764"><ele>215.0</ele><time>2026-04-26T13:20:11.999Z</time></trkpt><trkpt lat="39.818845472834745" lon="15.859084161287988"><ele>215.0</ele><time>2026-04-26T13:20:12.999Z</time></trkpt><trkpt lat="39.81897239811353" lon="15.85921957506122"><ele>207.66666666666669</ele><time>2026-04-26T13:20:13.999Z</time></trkpt><trkpt lat="39.819116991196815" lon="15.85930393339565"><ele>200.33333333333331</ele><time>2026-04-26T13:20:14.999Z</time></trkpt><trkpt lat="39.819278452521935" lon="15.85933654947361"><ele>193.0</ele><time>2026-04-26T13:20:15.999Z</time></trkpt><trkpt lat="39.81943830038673" lon="15.859342981314317"><ele>193.0</ele><time>2026-04-26T13:20:16.999Z</time></trkpt><trkpt lat="39.8195875543761" lon="15.859353726323326"><ele>193.0</ele><time>2026-04-26T13:20:17.999Z</time></trkpt><trkpt lat="39.819731727013185" lon="15.859364105441681"><ele>193.0</ele><time>2026-04-26T13:20:19Z</time></trkpt><trkpt lat="39.819879318603064" lon="15.859347569212627"><ele>193.0</ele><time>2026-04-26T13:20:20Z</time></trkpt><trkpt lat="39.82002905210487" lon="15.859278085574736"><ele>199.2</ele><time>2026-04-26T13:20:21Z</time></trkpt><trkpt lat="39.820146331319194" lon="15.859135268513738"><ele>205.4</ele><time>2026-04-26T13:20:22Z</time></trkpt><trkpt lat="39.820246464526534" lon="15.859039974965096"><ele>211.59999999999997</ele><time>2026-04-26T13:20:23Z</time></trkpt><trkpt lat="39.82032128991282" lon="15.858973168601986"><ele>217.79999999999998</ele><time>2026-04-26T13:20:24Z</time></trkpt><trkpt lat="39.82039058809915" lon="15.858967189576509"><ele>224.0</ele><time>2026-04-26T13:20:25Z</time></trkpt><trkpt lat="39.820427407896794" lon="15.859051959051321"><ele>225.75</ele><time>2026-04-26T13:20:26Z</time></trkpt><trkpt lat="39.82048558809886" lon="15.85913112702519"><ele>227.5</ele><time>2026-04-26T13:20:27Z</time></trkpt><trkpt lat="39.82057208020678" lon="15.859247365270042"><ele>229.25</ele><time>2026-04-26T13:20:28Z</time></trkpt><trkpt lat="39.82063549832089" lon="15.859347076413709"><ele>231.0</ele><time>2026-04-26T13:20:29Z</time></trkpt><trkpt lat="39.820759679543954" lon="15.85945504082193"><ele>226.0</ele><time>2026-04-26T13:20:30Z</time></trkpt><trkpt lat="39.82094550804345" lon="15.859501832336843"><ele>221.0</ele><time>2026-04-26T13:20:31Z</time></trkpt><trkpt lat="39.82114052101681" lon="15.85953854779279"><ele>216.0</ele><time>2026-04-26T13:20:32Z</time></trkpt><trkpt lat="39.82135999471972" lon="15.85958283100759"><ele>216.0</ele><time>2026-04-26T13:20:33Z</time></trkpt><trkpt lat="39.82155895071486" lon="15.859624797482727"><ele>216.0</ele><time>2026-04-26T13:20:34Z</time></trkpt><trkpt lat="39.821764366313886" lon="15.859652775573815"><ele>216.0</ele><time>2026-04-26T13:20:35Z</time></trkpt><trkpt lat="39.82190417825056" lon="15.85968280890525"><ele>220.25</ele><time>2026-04-26T13:20:36Z</time></trkpt><trkpt lat="39.82203511598847" lon="15.85975017257741"><ele>224.5</ele><time>2026-04-26T13:20:37Z</time></trkpt><trkpt lat="39.82217718204411" lon="15.859846588811507"><ele>228.75</ele><time>2026-04-26T13:20:38Z</time></trkpt><trkpt lat="39.82230233266727" lon="15.859940502477842"><ele>233.0</ele><time>2026-04-26T13:20:39Z</time></trkpt><trkpt lat="39.822392987455515" lon="15.86004311810894"><ele>229.75</ele><time>2026-04-26T13:20:40Z</time></trkpt><trkpt lat="39.822428095881804" lon="15.860160335997277"><ele>226.5</ele><time>2026-04-26T13:20:41Z</time></trkpt><trkpt lat="39.82249751746941" lon="15.860355849832853"><ele>223.25</ele><time>2026-04-26T13:20:42Z</time></trkpt><trkpt lat="39.822560006615554" lon="15.860561168421258"><ele>220.0</ele><time>2026-04-26T13:20:43Z</time></trkpt><trkpt lat="39.822607588066816" lon="15.860696559455079"><ele>222.25</ele><time>2026-04-26T13:20:44Z</time></trkpt><trkpt lat="39.8226752550087" lon="15.860797425449585"><ele>224.5</ele><time>2026-04-26T13:20:45Z</time></trkpt><trkpt lat="39.82276081696211" lon="15.860867647122241"><ele>226.75</ele><time>2026-04-26T13:20:46Z</time></trkpt><trkpt lat="39.822937043168345" lon="15.860797506471446"><ele>229.0</ele><time>2026-04-26T13:20:47Z</time></trkpt><trkpt lat="39.823038975622005" lon="15.860649407712499"><ele>229.0</ele><time>2026-04-26T13:20:48Z</time></trkpt><trkpt lat="39.823158299673814" lon="15.860609623821835"><ele>229.0</ele><time>2026-04-26T13:20:49Z</time></trkpt><trkpt lat="39.82330504874195" lon="15.860612694823036"><ele>229.0</ele><time>2026-04-26T13:20:50Z</time></trkpt><trkpt lat="39.82348505417837" lon="15.860606514569897"><ele>232.0</ele><time>2026-04-26T13:20:51Z</time></trkpt><trkpt lat="39.823668852482136" lon="15.860559605565188"><ele>235.0</ele><time>2026-04-26T13:20:52Z</time></trkpt><trkpt lat="39.82382605906106" lon="15.860579034328406"><ele>238.0</ele><time>2026-04-26T13:20:53Z</time></trkpt><trkpt lat="39.82395819278522" lon="15.860614066077185"><ele>238.0</ele><time>2026-04-26T13:20:54Z</time></trkpt><trkpt lat="39.82408464946332" lon="15.860695662218788"><ele>238.0</ele><time>2026-04-26T13:20:55Z</time></trkpt><trkpt lat="39.824208245177594" lon="15.860787350615576"><ele>238.0</ele><time>2026-04-26T13:20:56Z</time></trkpt><trkpt lat="39.824306145716385" lon="15.860879942854435"><ele>238.0</ele><time>2026-04-26T13:20:57Z</time></trkpt><trkpt lat="39.82434204174416" lon="15.86102958809555"><ele>237.66666666666666</ele><time>2026-04-26T13:20:58Z</time></trkpt><trkpt lat="39.824425031542276" lon="15.861196158032609"><ele>237.33333333333331</ele><time>2026-04-26T13:20:59Z</time></trkpt><trkpt lat="39.824542738149724" lon="15.861293918472281"><ele>237.0</ele><time>2026-04-26T13:21:00Z</time></trkpt><trkpt lat="39.82468688395179" lon="15.8613976181873"><ele>237.0</ele><time>2026-04-26T13:21:00.999Z</time></trkpt><trkpt lat="39.824876792205" lon="15.86146345913487"><ele>237.0</ele><time>2026-04-26T13:21:01.999Z</time></trkpt><trkpt lat="39.82508019223042" lon="15.861546133410808"><ele>237.0</ele><time>2026-04-26T13:21:02.999Z</time></trkpt><trkpt lat="39.82526919039291" lon="15.861640894818452"><ele>236.0</ele><time>2026-04-26T13:21:03.999Z</time></trkpt><trkpt lat="39.8254389664273" lon="15.861726770175643"><ele>235.0</ele><time>2026-04-26T13:21:04.999Z</time></trkpt><trkpt lat="39.82559204305927" lon="15.861803647906816"><ele>234.0</ele><time>2026-04-26T13:21:05.999Z</time></trkpt><trkpt lat="39.825732006492686" lon="15.861859056901716"><ele>234.0</ele><time>2026-04-26T13:21:06.999Z</time></trkpt><trkpt lat="39.825880305247566" lon="15.861877970676435"><ele>234.0</ele><time>2026-04-26T13:21:07.999Z</time></trkpt><trkpt lat="39.8260564028899" lon="15.861856521045157"><ele>234.0</ele><time>2026-04-26T13:21:08.999Z</time></trkpt><trkpt lat="39.82623217320508" lon="15.861807697697413"><ele>237.0</ele><time>2026-04-26T13:21:09.999Z</time></trkpt><trkpt lat="39.826378226689165" lon="15.86180425181317"><ele>240.0</ele><time>2026-04-26T13:21:10.999Z</time></trkpt><trkpt lat="39.826469997713176" lon="15.861798047058963"><ele>243.0</ele><time>2026-04-26T13:21:11.999Z</time></trkpt><trkpt lat="39.82654949327777" lon="15.861802859033444"><ele>246.0</ele><time>2026-04-26T13:21:12.999Z</time></trkpt><trkpt lat="39.826644281639595" lon="15.861934863621814"><ele>246.0</ele><time>2026-04-26T13:21:14.999Z</time></trkpt><trkpt lat="39.82668293264763" lon="15.862066178741353"><ele>246.00000000000003</ele><time>2026-04-26T13:21:15.999Z</time></trkpt><trkpt lat="39.82673633639141" lon="15.86219138934149"><ele>246.00000000000003</ele><time>2026-04-26T13:21:16.999Z</time></trkpt><trkpt lat="39.82678876085683" lon="15.86228857418632"><ele>246.0</ele><time>2026-04-26T13:21:17.999Z</time></trkpt><trkpt lat="39.82682929633483" lon="15.862377851770486"><ele>246.0</ele><time>2026-04-26T13:21:18.999Z</time></trkpt><trkpt lat="39.826857807994145" lon="15.86247349261068"><ele>246.60000000000002</ele><time>2026-04-26T13:21:19.999Z</time></trkpt><trkpt lat="39.82690821964841" lon="15.862572726708832"><ele>247.20000000000002</ele><time>2026-04-26T13:21:20.999Z</time></trkpt><trkpt lat="39.826980679484464" lon="15.86266583561703"><ele>247.79999999999998</ele><time>2026-04-26T13:21:21.999Z</time></trkpt><trkpt lat="39.82704307401183" lon="15.86277838400191"><ele>248.39999999999998</ele><time>2026-04-26T13:21:22.999Z</time></trkpt><trkpt lat="39.827116827423794" lon="15.86289540313225"><ele>249.0</ele><time>2026-04-26T13:21:23.999Z</time></trkpt><trkpt lat="39.827209662492756" lon="15.863005512187986"><ele>249.0</ele><time>2026-04-26T13:21:24.999Z</time></trkpt><trkpt lat="39.82734077594113" lon="15.863103904578626"><ele>249.0</ele><time>2026-04-26T13:21:25.999Z</time></trkpt><trkpt lat="39.82749062488544" lon="15.863211671852161"><ele>249.0</ele><time>2026-04-26T13:21:26.999Z</time></trkpt><trkpt lat="39.827609834262915" lon="15.863311125531347"><ele>250.39999999999998</ele><time>2026-04-26T13:21:27.999Z</time></trkpt><trkpt lat="39.82771017837906" lon="15.863361935471277"><ele>251.79999999999998</ele><time>2026-04-26T13:21:28.999Z</time></trkpt><trkpt lat="39.82778666345996" lon="15.863378989938171"><ele>253.20000000000002</ele><time>2026-04-26T13:21:29.999Z</time></trkpt><trkpt lat="39.82785147887325" lon="15.863462128305505"><ele>254.60000000000002</ele><time>2026-04-26T13:21:31.999Z</time></trkpt><trkpt lat="39.827789788290524" lon="15.863553992921698"><ele>256.0</ele><time>2026-04-26T13:21:32.999Z</time></trkpt><trkpt lat="39.827757978350746" lon="15.863669463960344"><ele>256.0</ele><time>2026-04-26T13:21:33.999Z</time></trkpt><trkpt lat="39.82774685444441" lon="15.863816548265516"><ele>256.0</ele><time>2026-04-26T13:21:34.999Z</time></trkpt><trkpt lat="39.82770344242248" lon="15.863975324555184"><ele>256.0</ele><time>2026-04-26T13:21:35.999Z</time></trkpt><trkpt lat="39.82767046903841" lon="15.864121488190676"><ele>256.0</ele><time>2026-04-26T13:21:36.999Z</time></trkpt><trkpt lat="39.82761613424914" lon="15.864222152736465"><ele>259.0</ele><time>2026-04-26T13:21:37.999Z</time></trkpt><trkpt lat="39.827564497845735" lon="15.864301372980426"><ele>262.0</ele><time>2026-04-26T13:21:38.999Z</time></trkpt><trkpt lat="39.827511705159566" lon="15.864381665675424"><ele>265.0</ele><time>2026-04-26T13:21:39.999Z</time></trkpt><trkpt lat="39.82739607316128" lon="15.86438638697797"><ele>268.0</ele><time>2026-04-26T13:21:40.999Z</time></trkpt><trkpt lat="39.82725657835132" lon="15.864344367102431"><ele>271.0</ele><time>2026-04-26T13:21:41.999Z</time></trkpt><trkpt lat="39.82711574639263" lon="15.864289267385516"><ele>271.0</ele><time>2026-04-26T13:21:42.999Z</time></trkpt><trkpt lat="39.827008931274" lon="15.864268791482756"><ele>271.0</ele><time>2026-04-26T13:21:43.999Z</time></trkpt><trkpt lat="39.82691690376753" lon="15.86430365756847"><ele>271.0</ele><time>2026-04-26T13:21:44.999Z</time></trkpt><trkpt lat="39.82680794648872" lon="15.86441261135914"><ele>271.0</ele><time>2026-04-26T13:21:45.999Z</time></trkpt><trkpt lat="39.826662920937295" lon="15.864550956904107"><ele>269.66666666666663</ele><time>2026-04-26T13:21:46.999Z</time></trkpt><trkpt lat="39.82651055670916" lon="15.864696544064785"><ele>268.3333333333333</ele><time>2026-04-26T13:21:47.999Z</time></trkpt><trkpt lat="39.82637465175657" lon="15.864821626045885"><ele>267.0</ele><time>2026-04-26T13:21:48.999Z</time></trkpt><trkpt lat="39.82625781893107" lon="15.86492976142093"><ele>267.0</ele><time>2026-04-26T13:21:49.999Z</time></trkpt><trkpt lat="39.82614310708524" lon="15.8650311591694"><ele>267.0</ele><time>2026-04-26T13:21:50.999Z</time></trkpt><trkpt lat="39.82599439655001" lon="15.865078525415774"><ele>267.0</ele><time>2026-04-26T13:21:51.999Z</time></trkpt><trkpt lat="39.825836132382285" lon="15.865146439973724"><ele>266.2</ele><time>2026-04-26T13:21:52.999Z</time></trkpt><trkpt lat="39.82570183165427" lon="15.865192609697878"><ele>265.4</ele><time>2026-04-26T13:21:53.999Z</time></trkpt><trkpt lat="39.825599052733814" lon="15.865212056715743"><ele>264.6</ele><time>2026-04-26T13:21:54.999Z</time></trkpt><trkpt lat="39.82551571903811" lon="15.865237636649173"><ele>263.8</ele><time>2026-04-26T13:21:55.999Z</time></trkpt><trkpt lat="39.8254233108173" lon="15.865152552033877"><ele>263.0</ele><time>2026-04-26T13:21:56.999Z</time></trkpt><trkpt lat="39.82529864750319" lon="15.865053893243225"><ele>263.0</ele><time>2026-04-26T13:21:57.999Z</time></trkpt><trkpt lat="39.82517526640422" lon="15.86491222896347"><ele>263.0</ele><time>2026-04-26T13:21:58.999Z</time></trkpt><trkpt lat="39.8250587866724" lon="15.864794264721548"><ele>263.0</ele><time>2026-04-26T13:21:59.999Z</time></trkpt><trkpt lat="39.824957993231905" lon="15.864701685722157"><ele>263.0</ele><time>2026-04-26T13:22:00.999Z</time></trkpt><trkpt lat="39.82486387238527" lon="15.864629319068753"><ele>265.0</ele><time>2026-04-26T13:22:01.999Z</time></trkpt><trkpt lat="39.82475481971447" lon="15.864619121507628"><ele>267.0</ele><time>2026-04-26T13:22:02.999Z</time></trkpt><trkpt lat="39.824627137601254" lon="15.864684291541813"><ele>269.0</ele><time>2026-04-26T13:22:03.999Z</time></trkpt><trkpt lat="39.82449265352921" lon="15.864786874951042"><ele>271.0</ele><time>2026-04-26T13:22:04.999Z</time></trkpt><trkpt lat="39.824355291313175" lon="15.864839154714542"><ele>272.3333333333333</ele><time>2026-04-26T13:22:05.999Z</time></trkpt><trkpt lat="39.82421174213119" lon="15.864881556144567"><ele>273.6666666666667</ele><time>2026-04-26T13:22:06.999Z</time></trkpt><trkpt lat="39.82405230324074" lon="15.864893644599787"><ele>275.0</ele><time>2026-04-26T13:22:07.999Z</time></trkpt><trkpt lat="39.823904148422834" lon="15.86490788912871"><ele>275.0</ele><time>2026-04-26T13:22:08.999Z</time></trkpt><trkpt lat="39.82376832314041" lon="15.864890440899284"><ele>275.0</ele><time>2026-04-26T13:22:09.999Z</time></trkpt><trkpt lat="39.82363460182006" lon="15.86484566822501"><ele>275.0</ele><time>2026-04-26T13:22:10.999Z</time></trkpt><trkpt lat="39.82350782792268" lon="15.864748575612682"><ele>275.0</ele><time>2026-04-26T13:22:11.999Z</time></trkpt><trkpt lat="39.823408640388095" lon="15.864634936964189"><ele>276.25</ele><time>2026-04-26T13:22:12.999Z</time></trkpt><trkpt lat="39.823325561977406" lon="15.864543165647214"><ele>277.5</ele><time>2026-04-26T13:22:13.999Z</time></trkpt><trkpt lat="39.82324002114638" lon="15.864489260987643"><ele>278.75</ele><time>2026-04-26T13:22:14.999Z</time></trkpt><trkpt lat="39.82312240594075" lon="15.86448797323756"><ele>280.0</ele><time>2026-04-26T13:22:15.999Z</time></trkpt><trkpt lat="39.82299491765751" lon="15.864559386921497"><ele>280.0</ele><time>2026-04-26T13:22:16.999Z</time></trkpt><trkpt lat="39.822872803224286" lon="15.864686245751427"><ele>280.0</ele><time>2026-04-26T13:22:17.999Z</time></trkpt><trkpt lat="39.82276821241898" lon="15.864819573287544"><ele>280.0</ele><time>2026-04-26T13:22:18.999Z</time></trkpt><trkpt lat="39.822671235144455" lon="15.864948029500624"><ele>280.0</ele><time>2026-04-26T13:22:19.999Z</time></trkpt><trkpt lat="39.82260110402227" lon="15.865107165676354"><ele>281.25</ele><time>2026-04-26T13:22:20.999Z</time></trkpt><trkpt lat="39.822559967472806" lon="15.865303520994905"><ele>282.5</ele><time>2026-04-26T13:22:21.999Z</time></trkpt><trkpt lat="39.82252475218088" lon="15.86540424278904"><ele>283.75</ele><time>2026-04-26T13:22:22.999Z</time></trkpt><trkpt lat="39.82250080105243" lon="15.865600757668377"><ele>285.0</ele><time>2026-04-26T13:22:23.999Z</time></trkpt><trkpt lat="39.822453985504325" lon="15.865796934100826"><ele>285.25</ele><time>2026-04-26T13:22:25Z</time></trkpt><trkpt lat="39.82243029503578" lon="15.865979791511174"><ele>285.5</ele><time>2026-04-26T13:22:26Z</time></trkpt><trkpt lat="39.822437667501184" lon="15.866169238832473"><ele>285.75</ele><time>2026-04-26T13:22:27Z</time></trkpt><trkpt lat="39.82248990645889" lon="15.86636261589539"><ele>286.0</ele><time>2026-04-26T13:22:28Z</time></trkpt><trkpt lat="39.822549457246964" lon="15.866540196820575"><ele>286.0</ele><time>2026-04-26T13:22:29Z</time></trkpt><trkpt lat="39.82260437290582" lon="15.866706395381888"><ele>286.0</ele><time>2026-04-26T13:22:30Z</time></trkpt><trkpt lat="39.82265072814174" lon="15.866866144799747"><ele>286.0</ele><time>2026-04-26T13:22:31Z</time></trkpt><trkpt lat="39.82270183065959" lon="15.867033303149968"><ele>286.0</ele><time>2026-04-26T13:22:32Z</time></trkpt><trkpt lat="39.82273221153263" lon="15.86713591634466"><ele>286.8</ele><time>2026-04-26T13:22:33Z</time></trkpt><trkpt lat="39.822740219785096" lon="15.867224380191328"><ele>287.6</ele><time>2026-04-26T13:22:34Z</time></trkpt><trkpt lat="39.82270968924622" lon="15.867321009627126"><ele>288.4</ele><time>2026-04-26T13:22:36Z</time></trkpt><trkpt lat="39.82260553946168" lon="15.867376407242947"><ele>289.2</ele><time>2026-04-26T13:22:38Z</time></trkpt><trkpt lat="39.822536739996195" lon="15.867386235302448"><ele>290.0</ele><time>2026-04-26T13:22:39Z</time></trkpt><trkpt lat="39.82242552450008" lon="15.867502437238283"><ele>290.0</ele><time>2026-04-26T13:22:41Z</time></trkpt><trkpt lat="39.82235325105308" lon="15.867580158055947"><ele>290.0</ele><time>2026-04-26T13:22:42Z</time></trkpt><trkpt lat="39.822260348422404" lon="15.86765675730101"><ele>290.0</ele><time>2026-04-26T13:22:43Z</time></trkpt><trkpt lat="39.82215681570333" lon="15.867713882257407"><ele>290.0</ele><time>2026-04-26T13:22:44Z</time></trkpt><trkpt lat="39.82206389182559" lon="15.867724587184842"><ele>290.0</ele><time>2026-04-26T13:22:45Z</time></trkpt><trkpt lat="39.821975989512836" lon="15.86768653115262"><ele>290.0</ele><time>2026-04-26T13:22:46Z</time></trkpt><trkpt lat="39.82189043183762" lon="15.867607748505284"><ele>290.0</ele><time>2026-04-26T13:22:47Z</time></trkpt><trkpt lat="39.82180542590066" lon="15.867495317857744"><ele>290.0</ele><time>2026-04-26T13:22:48Z</time></trkpt><trkpt lat="39.82172339622198" lon="15.867410423185719"><ele>290.0</ele><time>2026-04-26T13:22:49Z</time></trkpt><trkpt lat="39.821616785005496" lon="15.86731770059593"><ele>289.25</ele><time>2026-04-26T13:22:50Z</time></trkpt><trkpt lat="39.821510566247085" lon="15.867226520467028"><ele>288.5</ele><time>2026-04-26T13:22:51Z</time></trkpt><trkpt lat="39.821395408013025" lon="15.867080012391135"><ele>287.75</ele><time>2026-04-26T13:22:52Z</time></trkpt><trkpt lat="39.821304126344835" lon="15.866975357892144"><ele>287.0</ele><time>2026-04-26T13:22:53Z</time></trkpt><trkpt lat="39.821210272058245" lon="15.866888739488225"><ele>287.0</ele><time>2026-04-26T13:22:54Z</time></trkpt><trkpt lat="39.82107546228447" lon="15.866845019000085"><ele>287.0</ele><time>2026-04-26T13:22:55Z</time></trkpt><trkpt lat="39.82091995505635" lon="15.866831764193403"><ele>287.0</ele><time>2026-04-26T13:22:56Z</time></trkpt><trkpt lat="39.82079751352424" lon="15.866789232954154"><ele>287.0</ele><time>2026-04-26T13:22:57Z</time></trkpt><trkpt lat="39.82066544520603" lon="15.86674904238286"><ele>286.0</ele><time>2026-04-26T13:22:58Z</time></trkpt><trkpt lat="39.820534096433015" lon="15.866727672884451"><ele>285.0</ele><time>2026-04-26T13:22:59Z</time></trkpt><trkpt lat="39.820393646170416" lon="15.866730092839575"><ele>284.0</ele><time>2026-04-26T13:23:00Z</time></trkpt><trkpt lat="39.820279104285554" lon="15.866745992689257"><ele>283.0</ele><time>2026-04-26T13:23:01Z</time></trkpt><trkpt lat="39.82017184422104" lon="15.866758958332076"><ele>286.0</ele><time>2026-04-26T13:23:02Z</time></trkpt><trkpt lat="39.820058413941" lon="15.866784377599464"><ele>289.0</ele><time>2026-04-26T13:23:03Z</time></trkpt><trkpt lat="39.81993650700001" lon="15.866827957124585"><ele>292.0</ele><time>2026-04-26T13:23:04Z</time></trkpt><trkpt lat="39.819815789456406" lon="15.866873519886179"><ele>295.0</ele><time>2026-04-26T13:23:04.999Z</time></trkpt><trkpt lat="39.819702342182936" lon="15.86691825881357"><ele>295.0</ele><time>2026-04-26T13:23:05.999Z</time></trkpt><trkpt lat="39.81959113232801" lon="15.866952842742103"><ele>295.0</ele><time>2026-04-26T13:23:06.999Z</time></trkpt><trkpt lat="39.819468947692556" lon="15.866967399491541"><ele>295.0</ele><time>2026-04-26T13:23:07.999Z</time></trkpt><trkpt lat="39.81933413344661" lon="15.866965559812176"><ele>295.0</ele><time>2026-04-26T13:23:08.999Z</time></trkpt><trkpt lat="39.81921601289177" lon="15.86694572483557"><ele>293.75</ele><time>2026-04-26T13:23:09.999Z</time></trkpt><trkpt lat="39.81909747143699" lon="15.86691440908227"><ele>292.5</ele><time>2026-04-26T13:23:10.999Z</time></trkpt><trkpt lat="39.8189691850859" lon="15.866900212069545"><ele>291.25</ele><time>2026-04-26T13:23:11.999Z</time></trkpt><trkpt lat="39.81884874198987" lon="15.866887603545248"><ele>290.0</ele><time>2026-04-26T13:23:12.999Z</time></trkpt><trkpt lat="39.81872933844819" lon="15.866871099128305"><ele>290.0</ele><time>2026-04-26T13:23:13.999Z</time></trkpt><trkpt lat="39.81860888460219" lon="15.86685431664323"><ele>290.0</ele><time>2026-04-26T13:23:14.999Z</time></trkpt><trkpt lat="39.81848934052573" lon="15.866840464807035"><ele>290.0</ele><time>2026-04-26T13:23:15.999Z</time></trkpt><trkpt lat="39.818372720193324" lon="15.866826354626944"><ele>290.0</ele><time>2026-04-26T13:23:16.999Z</time></trkpt><trkpt lat="39.81825319209488" lon="15.866801894692236"><ele>289.8</ele><time>2026-04-26T13:23:17.999Z</time></trkpt><trkpt lat="39.8181361913171" lon="15.866785129683182"><ele>289.6</ele><time>2026-04-26T13:23:18.999Z</time></trkpt><trkpt lat="39.81801034957898" lon="15.866754282339558"><ele>289.4</ele><time>2026-04-26T13:23:19.999Z</time></trkpt><trkpt lat="39.817901662977384" lon="15.866720388565172"><ele>289.2</ele><time>2026-04-26T13:23:20.999Z</time></trkpt><trkpt lat="39.817813513149446" lon="15.866700173991548"><ele>289.0</ele><time>2026-04-26T13:23:21.999Z</time></trkpt><trkpt lat="39.81772960098623" lon="15.866704587757384"><ele>287.75</ele><time>2026-04-26T13:23:22.999Z</time></trkpt><trkpt lat="39.81760610017281" lon="15.866733873507382"><ele>286.5</ele><time>2026-04-26T13:23:23.999Z</time></trkpt><trkpt lat="39.81747319255831" lon="15.866778020065805"><ele>285.25</ele><time>2026-04-26T13:23:24.999Z</time></trkpt><trkpt lat="39.81733088237618" lon="15.866841882973407"><ele>284.0</ele><time>2026-04-26T13:23:25.999Z</time></trkpt><trkpt lat="39.81718458796846" lon="15.866907797559323"><ele>284.0</ele><time>2026-04-26T13:23:26.999Z</time></trkpt><trkpt lat="39.8170236031316" lon="15.866986069878838"><ele>284.0</ele><time>2026-04-26T13:23:27.999Z</time></trkpt><trkpt lat="39.8168554054314" lon="15.867054239998788"><ele>284.0</ele><time>2026-04-26T13:23:28.999Z</time></trkpt><trkpt lat="39.81671056122838" lon="15.867104788724225"><ele>282.25</ele><time>2026-04-26T13:23:29.999Z</time></trkpt><trkpt lat="39.816573661041936" lon="15.867153426269752"><ele>280.5</ele><time>2026-04-26T13:23:30.999Z</time></trkpt><trkpt lat="39.81642766878568" lon="15.86721132298191"><ele>278.75</ele><time>2026-04-26T13:23:31.999Z</time></trkpt><trkpt lat="39.816289279080806" lon="15.867263898269709"><ele>277.0</ele><time>2026-04-26T13:23:32.999Z</time></trkpt><trkpt lat="39.81616707723295" lon="15.867315598855784"><ele>277.0</ele><time>2026-04-26T13:23:33.999Z</time></trkpt><trkpt lat="39.81606998968513" lon="15.86734519255965"><ele>277.0</ele><time>2026-04-26T13:23:34.999Z</time></trkpt><trkpt lat="39.815987246829934" lon="15.867347874848729"><ele>277.0</ele><time>2026-04-26T13:23:35.999Z</time></trkpt><trkpt lat="39.815910273381796" lon="15.867330948245021"><ele>277.0</ele><time>2026-04-26T13:23:36.999Z</time></trkpt><trkpt lat="39.815831964668845" lon="15.867297067289355"><ele>277.0</ele><time>2026-04-26T13:23:37.999Z</time></trkpt><trkpt lat="39.81573490236146" lon="15.867217325914384"><ele>276.3333333333333</ele><time>2026-04-26T13:23:38.999Z</time></trkpt><trkpt lat="39.815629190642944" lon="15.867089550329887"><ele>275.6666666666667</ele><time>2026-04-26T13:23:39.999Z</time></trkpt><trkpt lat="39.81551450797608" lon="15.866962095771347"><ele>275.0</ele><time>2026-04-26T13:23:40.999Z</time></trkpt><trkpt lat="39.8153897724672" lon="15.866841988244476"><ele>272.33333333333337</ele><time>2026-04-26T13:23:41.999Z</time></trkpt><trkpt lat="39.81526103548013" lon="15.866725875269397"><ele>269.6666666666667</ele><time>2026-04-26T13:23:42.999Z</time></trkpt><trkpt lat="39.81513208786208" lon="15.86661339552428"><ele>267.0</ele><time>2026-04-26T13:23:43.999Z</time></trkpt><trkpt lat="39.81499956345393" lon="15.866494592417274"><ele>267.0</ele><time>2026-04-26T13:23:44.999Z</time></trkpt><trkpt lat="39.814862055733045" lon="15.866370632956977"><ele>267.0</ele><time>2026-04-26T13:23:45.999Z</time></trkpt><trkpt lat="39.814721842187744" lon="15.8662493249216"><ele>267.0</ele><time>2026-04-26T13:23:46.999Z</time></trkpt><trkpt lat="39.8145904119285" lon="15.866142477618125"><ele>267.0</ele><time>2026-04-26T13:23:47.999Z</time></trkpt><trkpt lat="39.814466773992756" lon="15.866044903654096"><ele>267.0</ele><time>2026-04-26T13:23:48.999Z</time></trkpt><trkpt lat="39.81434490587694" lon="15.865937365139763"><ele>267.0</ele><time>2026-04-26T13:23:49.999Z</time></trkpt><trkpt lat="39.81422075883482" lon="15.865819107695149"><ele>267.0</ele><time>2026-04-26T13:23:50.999Z</time></trkpt><trkpt lat="39.814084644904014" lon="15.865700745492965"><ele>266.75</ele><time>2026-04-26T13:23:51.999Z</time></trkpt><trkpt lat="39.813944590186395" lon="15.865606000633388"><ele>266.5</ele><time>2026-04-26T13:23:52.999Z</time></trkpt><trkpt lat="39.813808474421684" lon="15.865529677449876"><ele>266.25</ele><time>2026-04-26T13:23:53.999Z</time></trkpt><trkpt lat="39.813682032418846" lon="15.865457947482252"><ele>266.0</ele><time>2026-04-26T13:23:54.999Z</time></trkpt><trkpt lat="39.81356129532208" lon="15.865386905806403"><ele>266.5</ele><time>2026-04-26T13:23:55.999Z</time></trkpt><trkpt lat="39.81343972061216" lon="15.86531937786325"><ele>267.0</ele><time>2026-04-26T13:23:56.999Z</time></trkpt><trkpt lat="39.813315839455896" lon="15.865250340892826"><ele>267.5</ele><time>2026-04-26T13:23:57.999Z</time></trkpt><trkpt lat="39.81320211062311" lon="15.865177394468564"><ele>268.0</ele><time>2026-04-26T13:23:58.999Z</time></trkpt><trkpt lat="39.813104727853016" lon="15.865093168838579"><ele>265.75</ele><time>2026-04-26T13:23:59.999Z</time></trkpt><trkpt lat="39.81301868239693" lon="15.864985878474902"><ele>263.5</ele><time>2026-04-26T13:24:00.999Z</time></trkpt><trkpt lat="39.812949064290144" lon="15.864850251156495"><ele>261.25</ele><time>2026-04-26T13:24:01.999Z</time></trkpt><trkpt lat="39.81289035190982" lon="15.864704386115795"><ele>259.0</ele><time>2026-04-26T13:24:02.999Z</time></trkpt><trkpt lat="39.812844138763765" lon="15.864578451218982"><ele>259.0</ele><time>2026-04-26T13:24:03.999Z</time></trkpt><trkpt lat="39.81279140654324" lon="15.86448493165065"><ele>259.0</ele><time>2026-04-26T13:24:04.999Z</time></trkpt><trkpt lat="39.812722794316876" lon="15.864431843450916"><ele>259.0</ele><time>2026-04-26T13:24:05.999Z</time></trkpt><trkpt lat="39.81262927446574" lon="15.864426237117423"><ele>259.0</ele><time>2026-04-26T13:24:06.999Z</time></trkpt><trkpt lat="39.81252245828305" lon="15.86444901580359"><ele>259.0</ele><time>2026-04-26T13:24:07.999Z</time></trkpt><trkpt lat="39.81241596877573" lon="15.864472913952099"><ele>260.3333333333333</ele><time>2026-04-26T13:24:08.999Z</time></trkpt><trkpt lat="39.81231391751261" lon="15.864494105688776"><ele>261.66666666666663</ele><time>2026-04-26T13:24:09.999Z</time></trkpt><trkpt lat="39.81223221528611" lon="15.864535902603516"><ele>263.0</ele><time>2026-04-26T13:24:10.999Z</time></trkpt><trkpt lat="39.81216590722099" lon="15.864597317726938"><ele>264.3333333333333</ele><time>2026-04-26T13:24:11.999Z</time></trkpt><trkpt lat="39.81212007274526" lon="15.864682989076343"><ele>265.6666666666667</ele><time>2026-04-26T13:24:12.999Z</time></trkpt><trkpt lat="39.8120633755357" lon="15.86477096159444"><ele>267.0</ele><time>2026-04-26T13:24:13.999Z</time></trkpt><trkpt lat="39.81201174344095" lon="15.86484511314198"><ele>267.0</ele><time>2026-04-26T13:24:14.999Z</time></trkpt><trkpt lat="39.811952000415836" lon="15.864883152252517"><ele>267.0</ele><time>2026-04-26T13:24:15.999Z</time></trkpt><trkpt lat="39.81187259599307" lon="15.864885073460481"><ele>267.0</ele><time>2026-04-26T13:24:16.999Z</time></trkpt><trkpt lat="39.81178529464161" lon="15.864800375503888"><ele>267.0</ele><time>2026-04-26T13:24:17.999Z</time></trkpt><trkpt lat="39.81169900165849" lon="15.864706783636198"><ele>267.0</ele><time>2026-04-26T13:24:18.999Z</time></trkpt><trkpt lat="39.81161356388801" lon="15.864677982974056"><ele>264.25</ele><time>2026-04-26T13:24:19.999Z</time></trkpt><trkpt lat="39.81151891298632" lon="15.864713642696278"><ele>261.5</ele><time>2026-04-26T13:24:20.999Z</time></trkpt><trkpt lat="39.81143008345867" lon="15.86482104090516"><ele>258.75</ele><time>2026-04-26T13:24:21.999Z</time></trkpt><trkpt lat="39.81135402616424" lon="15.86497451307673"><ele>256.0</ele><time>2026-04-26T13:24:22.999Z</time></trkpt><trkpt lat="39.81129492597693" lon="15.865086547240987"><ele>256.0</ele><time>2026-04-26T13:24:23.999Z</time></trkpt><trkpt lat="39.811214611512554" lon="15.865108304313557"><ele>256.0</ele><time>2026-04-26T13:24:24.999Z</time></trkpt><trkpt lat="39.811154251316474" lon="15.865161534472008"><ele>256.0</ele><time>2026-04-26T13:24:25.999Z</time></trkpt><trkpt lat="39.811057828131254" lon="15.865172567209632"><ele>256.0</ele><time>2026-04-26T13:24:26.999Z</time></trkpt><trkpt lat="39.81094627640501" lon="15.865130063304981"><ele>256.0</ele><time>2026-04-26T13:24:27.999Z</time></trkpt><trkpt lat="39.8108193327343" lon="15.8650602896545"><ele>255.0</ele><time>2026-04-26T13:24:28.999Z</time></trkpt><trkpt lat="39.810689048430405" lon="15.864992728788215"><ele>254.0</ele><time>2026-04-26T13:24:29.999Z</time></trkpt><trkpt lat="39.810560686168735" lon="15.864908907069108"><ele>253.0</ele><time>2026-04-26T13:24:31Z</time></trkpt><trkpt lat="39.8104362496106" lon="15.864797858902962"><ele>252.0</ele><time>2026-04-26T13:24:32Z</time></trkpt><trkpt lat="39.810323504357314" lon="15.864690326430159"><ele>252.0</ele><time>2026-04-26T13:24:33Z</time></trkpt><trkpt lat="39.81022093372465" lon="15.864593877369344"><ele>252.0</ele><time>2026-04-26T13:24:34Z</time></trkpt><trkpt lat="39.81012480235505" lon="15.86451334791772"><ele>252.0</ele><time>2026-04-26T13:24:35Z</time></trkpt><trkpt lat="39.81004574876781" lon="15.864459362891674"><ele>252.0</ele><time>2026-04-26T13:24:36Z</time></trkpt><trkpt lat="39.809972652867565" lon="15.864409908784209"><ele>252.0</ele><time>2026-04-26T13:24:37Z</time></trkpt><trkpt lat="39.80990077796384" lon="15.864334565612188"><ele>251.0</ele><time>2026-04-26T13:24:38Z</time></trkpt><trkpt lat="39.80982961320314" lon="15.864216781326252"><ele>250.0</ele><time>2026-04-26T13:24:39Z</time></trkpt><trkpt lat="39.809760177191585" lon="15.864085771056146"><ele>249.0</ele><time>2026-04-26T13:24:40Z</time></trkpt><trkpt lat="39.80968208136006" lon="15.863990703161893"><ele>248.0</ele><time>2026-04-26T13:24:41Z</time></trkpt><trkpt lat="39.80958716472166" lon="15.863944019354417"><ele>247.0</ele><time>2026-04-26T13:24:42Z</time></trkpt><trkpt lat="39.809480453230556" lon="15.863934956539609"><ele>246.99999999999997</ele><time>2026-04-26T13:24:43Z</time></trkpt><trkpt lat="39.809382762738956" lon="15.86394222228434"><ele>247.0</ele><time>2026-04-26T13:24:44Z</time></trkpt><trkpt lat="39.80930443714793" lon="15.863988614842928"><ele>247.0</ele><time>2026-04-26T13:24:45Z</time></trkpt><trkpt lat="39.80925608916677" lon="15.864066850613968"><ele>247.0</ele><time>2026-04-26T13:24:46Z</time></trkpt><trkpt lat="39.809237979232506" lon="15.864159099022475"><ele>246.99999999999997</ele><time>2026-04-26T13:24:47Z</time></trkpt><trkpt lat="39.80922457798256" lon="15.864270087208093"><ele>247.0</ele><time>2026-04-26T13:24:48Z</time></trkpt><trkpt lat="39.809234265422305" lon="15.864414994452732"><ele>245.6</ele><time>2026-04-26T13:24:49Z</time></trkpt><trkpt lat="39.80925091837221" lon="15.864562338798265"><ele>244.2</ele><time>2026-04-26T13:24:50Z</time></trkpt><trkpt lat="39.809297450114414" lon="15.864702670241316"><ele>242.8</ele><time>2026-04-26T13:24:51Z</time></trkpt><trkpt lat="39.80930774101151" lon="15.864841311842667"><ele>241.4</ele><time>2026-04-26T13:24:52Z</time></trkpt><trkpt lat="39.80930143865074" lon="15.864972038326139"><ele>240.0</ele><time>2026-04-26T13:24:53Z</time></trkpt><trkpt lat="39.80930143864859" lon="15.865125916474268"><ele>240.0</ele><time>2026-04-26T13:24:54Z</time></trkpt><trkpt lat="39.80930080295279" lon="15.865291267840062"><ele>240.0</ele><time>2026-04-26T13:24:55Z</time></trkpt><trkpt lat="39.809299159928415" lon="15.865445870973254"><ele>240.0</ele><time>2026-04-26T13:24:56Z</time></trkpt><trkpt lat="39.80929752967556" lon="15.865599272451133"><ele>240.0</ele><time>2026-04-26T13:24:57Z</time></trkpt><trkpt lat="39.80929568072415" lon="15.865773252678254"><ele>240.0</ele><time>2026-04-26T13:24:58Z</time></trkpt><trkpt lat="39.80929836985999" lon="15.865941404692078"><ele>240.0</ele><time>2026-04-26T13:24:59Z</time></trkpt><trkpt lat="39.80930833211816" lon="15.866099973992535"><ele>240.0</ele><time>2026-04-26T13:25:00Z</time></trkpt><trkpt lat="39.80933262768515" lon="15.866270192578808"><ele>240.0</ele><time>2026-04-26T13:25:01Z</time></trkpt><trkpt lat="39.80936065765067" lon="15.86643948802441"><ele>239.6</ele><time>2026-04-26T13:25:02Z</time></trkpt><trkpt lat="39.809389546382484" lon="15.866595404131559"><ele>239.2</ele><time>2026-04-26T13:25:03Z</time></trkpt><trkpt lat="39.80940590603248" lon="15.866723579922274"><ele>238.8</ele><time>2026-04-26T13:25:04Z</time></trkpt><trkpt lat="39.809396542087576" lon="15.866844408760448"><ele>238.4</ele><time>2026-04-26T13:25:04.999Z</time></trkpt><trkpt lat="39.80935940467718" lon="15.866977971499344"><ele>238.0</ele><time>2026-04-26T13:25:05.999Z</time></trkpt><trkpt lat="39.80930015441475" lon="15.867149362980944"><ele>235.60000000000002</ele><time>2026-04-26T13:25:06.999Z</time></trkpt><trkpt lat="39.80925424346378" lon="15.867319477299619"><ele>233.20000000000002</ele><time>2026-04-26T13:25:07.999Z</time></trkpt><trkpt lat="39.80922051242547" lon="15.867474881188288"><ele>230.8</ele><time>2026-04-26T13:25:08.999Z</time></trkpt><trkpt lat="39.809202047543515" lon="15.867596056322018"><ele>228.4</ele><time>2026-04-26T13:25:09.999Z</time></trkpt><trkpt lat="39.80919962173179" lon="15.867700477063428"><ele>226.0</ele><time>2026-04-26T13:25:10.999Z</time></trkpt><trkpt lat="39.8092178585733" lon="15.867800108574862"><ele>224.60000000000002</ele><time>2026-04-26T13:25:11.999Z</time></trkpt><trkpt lat="39.809260943957604" lon="15.867875410638414"><ele>223.20000000000002</ele><time>2026-04-26T13:25:12.999Z</time></trkpt><trkpt lat="39.80933598252134" lon="15.867913521344367"><ele>221.79999999999998</ele><time>2026-04-26T13:25:13.999Z</time></trkpt><trkpt lat="39.809454291171896" lon="15.867883648440928"><ele>220.39999999999998</ele><time>2026-04-26T13:25:14.999Z</time></trkpt><trkpt lat="39.80958690044274" lon="15.867844873765074"><ele>219.0</ele><time>2026-04-26T13:25:15.999Z</time></trkpt><trkpt lat="39.80971222998851" lon="15.867856244244273"><ele>219.0</ele><time>2026-04-26T13:25:16.999Z</time></trkpt><trkpt lat="39.80983624128558" lon="15.867890996010527"><ele>219.0</ele><time>2026-04-26T13:25:17.999Z</time></trkpt><trkpt lat="39.80996859698082" lon="15.86792539358004"><ele>219.0</ele><time>2026-04-26T13:25:18.999Z</time></trkpt><trkpt lat="39.81010468222367" lon="15.867934115867758"><ele>219.0</ele><time>2026-04-26T13:25:19.999Z</time></trkpt><trkpt lat="39.81025010249052" lon="15.867976575473952"><ele>220.0</ele><time>2026-04-26T13:25:20.999Z</time></trkpt><trkpt lat="39.810389510796774" lon="15.868065818963027"><ele>221.0</ele><time>2026-04-26T13:25:21.999Z</time></trkpt><trkpt lat="39.81054224571235" lon="15.868147802366574"><ele>222.0</ele><time>2026-04-26T13:25:22.999Z</time></trkpt><trkpt lat="39.810684743039424" lon="15.868199992217434"><ele>222.0</ele><time>2026-04-26T13:25:23.999Z</time></trkpt><trkpt lat="39.810799045784904" lon="15.868269848566126"><ele>222.0</ele><time>2026-04-26T13:25:24.999Z</time></trkpt><trkpt lat="39.81089834798265" lon="15.868320888726549"><ele>222.0</ele><time>2026-04-26T13:25:25.999Z</time></trkpt><trkpt lat="39.810984535512425" lon="15.868341835424864"><ele>222.0</ele><time>2026-04-26T13:25:26.999Z</time></trkpt><trkpt lat="39.8110716490508" lon="15.868347806752983"><ele>222.0</ele><time>2026-04-26T13:25:27.999Z</time></trkpt><trkpt lat="39.81115751655227" lon="15.868326119076483"><ele>222.6</ele><time>2026-04-26T13:25:28.999Z</time></trkpt><trkpt lat="39.8112532493782" lon="15.868274717087845"><ele>223.2</ele><time>2026-04-26T13:25:29.999Z</time></trkpt><trkpt lat="39.811342823434515" lon="15.868207018904961"><ele>223.8</ele><time>2026-04-26T13:25:30.999Z</time></trkpt><trkpt lat="39.81143062675987" lon="15.86815234568395"><ele>224.4</ele><time>2026-04-26T13:25:31.999Z</time></trkpt><trkpt lat="39.8115134607375" lon="15.868126356031011"><ele>225.0</ele><time>2026-04-26T13:25:32.999Z</time></trkpt><trkpt lat="39.81159130619387" lon="15.868167466281122"><ele>225.0</ele><time>2026-04-26T13:25:33.999Z</time></trkpt><trkpt lat="39.81166363700894" lon="15.86820065304109"><ele>225.0</ele><time>2026-04-26T13:25:34.999Z</time></trkpt><trkpt lat="39.81173400683272" lon="15.868306287329728"><ele>225.0</ele><time>2026-04-26T13:25:35.999Z</time></trkpt><trkpt lat="39.81179886610741" lon="15.868434712347486"><ele>225.0</ele><time>2026-04-26T13:25:36.999Z</time></trkpt><trkpt lat="39.81187143938959" lon="15.86855468765267"><ele>225.0</ele><time>2026-04-26T13:25:37.999Z</time></trkpt><trkpt lat="39.81194751305844" lon="15.868656903112019"><ele>223.6</ele><time>2026-04-26T13:25:38.999Z</time></trkpt><trkpt lat="39.81202618517006" lon="15.868773638405628"><ele>222.2</ele><time>2026-04-26T13:25:39.999Z</time></trkpt><trkpt lat="39.81206856343212" lon="15.868879237361412"><ele>220.8</ele><time>2026-04-26T13:25:40.999Z</time></trkpt><trkpt lat="39.812113875979975" lon="15.868988811344012"><ele>219.4</ele><time>2026-04-26T13:25:41.999Z</time></trkpt><trkpt lat="39.81214221345991" lon="15.869078544163186"><ele>218.0</ele><time>2026-04-26T13:25:42.999Z</time></trkpt><trkpt lat="39.812081741408235" lon="15.86913540162253"><ele>218.0</ele><time>2026-04-26T13:25:48.999Z</time></trkpt><trkpt lat="39.81196013105384" lon="15.869160949451548"><ele>218.0</ele><time>2026-04-26T13:25:50.999Z</time></trkpt><trkpt lat="39.81189630602208" lon="15.86921387213261"><ele>218.0</ele><time>2026-04-26T13:25:51.999Z</time></trkpt><trkpt lat="39.81181467169988" lon="15.869270414548586"><ele>218.0</ele><time>2026-04-26T13:25:52.999Z</time></trkpt><trkpt lat="39.81172589877418" lon="15.869324956979524"><ele>218.0</ele><time>2026-04-26T13:25:53.999Z</time></trkpt><trkpt lat="39.81165191938709" lon="15.869384543913212"><ele>213.83333333333334</ele><time>2026-04-26T13:25:54.999Z</time></trkpt><trkpt lat="39.811573606585235" lon="15.869435526885574"><ele>209.66666666666669</ele><time>2026-04-26T13:25:55.999Z</time></trkpt><trkpt lat="39.811497533645394" lon="15.869465100090181"><ele>205.5</ele><time>2026-04-26T13:25:56.999Z</time></trkpt><trkpt lat="39.81142620456969" lon="15.869503317747014"><ele>201.33333333333331</ele><time>2026-04-26T13:25:57.999Z</time></trkpt><trkpt lat="39.811351032584184" lon="15.869527263014703"><ele>197.16666666666666</ele><time>2026-04-26T13:25:58.999Z</time></trkpt><trkpt lat="39.811270226116044" lon="15.869530027824275"><ele>193.0</ele><time>2026-04-26T13:25:59.999Z</time></trkpt><trkpt lat="39.811204914444325" lon="15.869552743832623"><ele>192.99999999999997</ele><time>2026-04-26T13:26:00.999Z</time></trkpt><trkpt lat="39.811147055156795" lon="15.86959944188015"><ele>193.0</ele><time>2026-04-26T13:26:01.999Z</time></trkpt><trkpt lat="39.81109278945213" lon="15.869650279235353"><ele>193.0</ele><time>2026-04-26T13:26:02.999Z</time></trkpt><trkpt lat="39.811043063917424" lon="15.869703088176704"><ele>193.0</ele><time>2026-04-26T13:26:03.999Z</time></trkpt><trkpt lat="39.81096199928971" lon="15.869816986758607"><ele>192.99999999999997</ele><time>2026-04-26T13:26:05.999Z</time></trkpt><trkpt lat="39.81086110021509" lon="15.869888055329646"><ele>193.0</ele><time>2026-04-26T13:26:07.999Z</time></trkpt><trkpt lat="39.81073935013175" lon="15.869944497915572"><ele>191.33333333333331</ele><time>2026-04-26T13:26:09.999Z</time></trkpt><trkpt lat="39.81065457383638" lon="15.86995932085167"><ele>189.66666666666666</ele><time>2026-04-26T13:26:10.999Z</time></trkpt><trkpt lat="39.81057108115859" lon="15.8699986911747"><ele>188.0</ele><time>2026-04-26T13:26:11.999Z</time></trkpt><trkpt lat="39.81051329973212" lon="15.870056087084116"><ele>186.33333333333331</ele><time>2026-04-26T13:26:12.999Z</time></trkpt><trkpt lat="39.81045508927938" lon="15.870167953284781"><ele>184.66666666666666</ele><time>2026-04-26T13:26:14.999Z</time></trkpt><trkpt lat="39.81041752458356" lon="15.870249458208141"><ele>183.0</ele><time>2026-04-26T13:26:15.999Z</time></trkpt><trkpt lat="39.81038436513696" lon="15.870374428046853"><ele>180.16666666666666</ele><time>2026-04-26T13:26:17.999Z</time></trkpt><trkpt lat="39.81038213129105" lon="15.870484068859923"><ele>177.33333333333334</ele><time>2026-04-26T13:26:19.999Z</time></trkpt><trkpt lat="39.81036491488556" lon="15.8705948225679"><ele>174.5</ele><time>2026-04-26T13:26:22.999Z</time></trkpt><trkpt lat="39.81033842250976" lon="15.870671962315246"><ele>171.66666666666669</ele><time>2026-04-26T13:26:24.999Z</time></trkpt><trkpt lat="39.81029474123294" lon="15.870751658136918"><ele>168.83333333333334</ele><time>2026-04-26T13:26:26.999Z</time></trkpt><trkpt lat="39.810230638237954" lon="15.870829332165872"><ele>166.0</ele><time>2026-04-26T13:26:28.999Z</time></trkpt><trkpt lat="39.81016937519303" lon="15.870926309846237"><ele>162.83333333333334</ele><time>2026-04-26T13:26:30.999Z</time></trkpt><trkpt lat="39.81009996299331" lon="15.870998827623643"><ele>159.66666666666669</ele><time>2026-04-26T13:26:32.998Z</time></trkpt><trkpt lat="39.81003720808074" lon="15.871039307106264"><ele>156.5</ele><time>2026-04-26T13:26:33.998Z</time></trkpt><trkpt lat="39.80994405908892" lon="15.871094562621211"><ele>153.33333333333334</ele><time>2026-04-26T13:26:35.998Z</time></trkpt><trkpt lat="39.80985392932899" lon="15.871074386143633"><ele>150.16666666666666</ele><time>2026-04-26T13:26:37Z</time></trkpt><trkpt lat="39.80978915945841" lon="15.871125089862842"><ele>147.0</ele><time>2026-04-26T13:26:38Z</time></trkpt><trkpt lat="39.8097301184599" lon="15.871171308764428"><ele>147.0</ele><time>2026-04-26T13:26:39Z</time></trkpt><trkpt lat="39.80960400657479" lon="15.871254470832916"><ele>147.0</ele><time>2026-04-26T13:26:41Z</time></trkpt><trkpt lat="39.8095062789126" lon="15.87133763386818"><ele>147.0</ele><time>2026-04-26T13:26:43Z</time></trkpt><trkpt lat="39.80940325160988" lon="15.871314805745241"><ele>147.0</ele><time>2026-04-26T13:26:45Z</time></trkpt><trkpt lat="39.80933951182829" lon="15.871264576973227"><ele>147.0</ele><time>2026-04-26T13:26:46Z</time></trkpt><trkpt lat="39.80926479203036" lon="15.871227684634219"><ele>145.66666666666666</ele><time>2026-04-26T13:26:47Z</time></trkpt><trkpt lat="39.80919587496776" lon="15.871201588484096"><ele>144.33333333333334</ele><time>2026-04-26T13:26:48Z</time></trkpt><trkpt lat="39.80911116203901" lon="15.871214247677006"><ele>143.0</ele><time>2026-04-26T13:26:49Z</time></trkpt><trkpt lat="39.80901772329131" lon="15.871256752002854"><ele>141.66666666666669</ele><time>2026-04-26T13:26:50Z</time></trkpt><trkpt lat="39.8089517922181" lon="15.871290452875101"><ele>140.33333333333334</ele><time>2026-04-26T13:26:51Z</time></trkpt><trkpt lat="39.80889352486974" lon="15.87132779967032"><ele>139.0</ele><time>2026-04-26T13:26:52Z</time></trkpt><trkpt lat="39.808812915026834" lon="15.87132691312462"><ele>139.0</ele><time>2026-04-26T13:26:53Z</time></trkpt><trkpt lat="39.80872034291081" lon="15.87131695109458"><ele>139.0</ele><time>2026-04-26T13:26:54Z</time></trkpt><trkpt lat="39.808637777980614" lon="15.871295605954286"><ele>139.0</ele><time>2026-04-26T13:26:55Z</time></trkpt><trkpt lat="39.80854943123148" lon="15.871296059937562"><ele>139.0</ele><time>2026-04-26T13:26:56Z</time></trkpt><trkpt lat="39.80845985715974" lon="15.871279254452945"><ele>139.0</ele><time>2026-04-26T13:26:57Z</time></trkpt><trkpt lat="39.8083680064086" lon="15.871251134815939"><ele>137.16666666666669</ele><time>2026-04-26T13:26:58Z</time></trkpt><trkpt lat="39.80828300866027" lon="15.871257686198827"><ele>135.33333333333334</ele><time>2026-04-26T13:26:59Z</time></trkpt><trkpt lat="39.80820719853679" lon="15.871245405890198"><ele>133.5</ele><time>2026-04-26T13:27:00Z</time></trkpt><trkpt lat="39.80812821515455" lon="15.871255915250446"><ele>131.66666666666666</ele><time>2026-04-26T13:27:01Z</time></trkpt><trkpt lat="39.80804124251275" lon="15.871290468741165"><ele>129.83333333333331</ele><time>2026-04-26T13:27:02Z</time></trkpt><trkpt lat="39.80795730435047" lon="15.871336477329416"><ele>128.0</ele><time>2026-04-26T13:27:03Z</time></trkpt><trkpt lat="39.80786509045255" lon="15.871397136244351"><ele>127.99999999999999</ele><time>2026-04-26T13:27:04Z</time></trkpt><trkpt lat="39.80778525442866" lon="15.871461728223984"><ele>128.0</ele><time>2026-04-26T13:27:05Z</time></trkpt><trkpt lat="39.80771194051231" lon="15.87151570656305"><ele>128.0</ele><time>2026-04-26T13:27:06Z</time></trkpt><trkpt lat="39.80765392406866" lon="15.871551644625958"><ele>128.0</ele><time>2026-04-26T13:27:07Z</time></trkpt><trkpt lat="39.80763852190385" lon="15.871634930326437"><ele>127.99999999999999</ele><time>2026-04-26T13:27:08Z</time></trkpt><trkpt lat="39.8076080654155" lon="15.871781237177263"><ele>128.0</ele><time>2026-04-26T13:27:10Z</time></trkpt><trkpt lat="39.80761744863159" lon="15.871927355061363"><ele>124.66666666666666</ele><time>2026-04-26T13:27:11.999Z</time></trkpt><trkpt lat="39.807616820141014" lon="15.8720815630483"><ele>121.33333333333333</ele><time>2026-04-26T13:27:13.999Z</time></trkpt><trkpt lat="39.80759315432386" lon="15.872178277949613"><ele>118.0</ele><time>2026-04-26T13:27:14.999Z</time></trkpt><trkpt lat="39.80755724241873" lon="15.872252142715954"><ele>114.66666666666666</ele><time>2026-04-26T13:27:15.999Z</time></trkpt><trkpt lat="39.8075161224804" lon="15.872328973557757"><ele>111.33333333333333</ele><time>2026-04-26T13:27:16.999Z</time></trkpt><trkpt lat="39.80748625070435" lon="15.872405849422522"><ele>108.0</ele><time>2026-04-26T13:27:17.999Z</time></trkpt><trkpt lat="39.807461594135674" lon="15.872530240077602"><ele>106.0</ele><time>2026-04-26T13:27:18.999Z</time></trkpt><trkpt lat="39.80742559587732" lon="15.872679477997155"><ele>104.00000000000001</ele><time>2026-04-26T13:27:20.999Z</time></trkpt><trkpt lat="39.80732893901585" lon="15.872799741700145"><ele>102.0</ele><time>2026-04-26T13:27:22.999Z</time></trkpt><trkpt lat="39.807281953139004" lon="15.872859957052253"><ele>100.0</ele><time>2026-04-26T13:27:23.999Z</time></trkpt><trkpt lat="39.80723920030686" lon="15.872937556281109"><ele>98.0</ele><time>2026-04-26T13:27:24.999Z</time></trkpt><trkpt lat="39.80718135816222" lon="15.8730723728368"><ele>97.99999999999999</ele><time>2026-04-26T13:27:26.999Z</time></trkpt><trkpt lat="39.807143776528264" lon="15.873149988954024"><ele>98.0</ele><time>2026-04-26T13:27:27.999Z</time></trkpt><trkpt lat="39.8071056309125" lon="15.873224251581776"><ele>98.0</ele><time>2026-04-26T13:27:28.999Z</time></trkpt><trkpt lat="39.8070591090686" lon="15.87328063585434"><ele>98.0</ele><time>2026-04-26T13:27:29.999Z</time></trkpt><trkpt lat="39.807012146272434" lon="15.873362613361097"><ele>97.99999999999999</ele><time>2026-04-26T13:27:30.999Z</time></trkpt><trkpt lat="39.806962614771926" lon="15.873467918953338"><ele>98.0</ele><time>2026-04-26T13:27:32.999Z</time></trkpt><trkpt lat="39.80699582912119" lon="15.87355370379441"><ele>95.80000000000001</ele><time>2026-04-26T13:27:34.999Z</time></trkpt><trkpt lat="39.80703453037553" lon="15.873652398814802"><ele>93.6</ele><time>2026-04-26T13:27:35.999Z</time></trkpt><trkpt lat="39.80709601607651" lon="15.873839129762374"><ele>91.4</ele><time>2026-04-26T13:27:37.999Z</time></trkpt><trkpt lat="39.807137222526165" lon="15.873939707329772"><ele>89.19999999999999</ele><time>2026-04-26T13:27:38.999Z</time></trkpt><trkpt lat="39.807185033869004" lon="15.874014978163425"><ele>87.0</ele><time>2026-04-26T13:27:39.999Z</time></trkpt><trkpt lat="39.80721298083421" lon="15.874097307259241"><ele>87.0</ele><time>2026-04-26T13:27:40.999Z</time></trkpt><trkpt lat="39.80727830642215" lon="15.874209683920752"><ele>87.0</ele><time>2026-04-26T13:27:42.999Z</time></trkpt><trkpt lat="39.80732650708173" lon="15.874289887782048"><ele>87.0</ele><time>2026-04-26T13:27:44.999Z</time></trkpt><trkpt lat="39.80731587986684" lon="15.874414125772649"><ele>87.0</ele><time>2026-04-26T13:27:46.999Z</time></trkpt><trkpt lat="39.80726488015798" lon="15.87447228549754"><ele>87.0</ele><time>2026-04-26T13:27:47.999Z</time></trkpt><trkpt lat="39.80717390837747" lon="15.874568864389836"><ele>85.6</ele><time>2026-04-26T13:27:49.999Z</time></trkpt><trkpt lat="39.80704021682515" lon="15.874605431160797"><ele>84.19999999999999</ele><time>2026-04-26T13:27:51.999Z</time></trkpt><trkpt lat="39.80697503005312" lon="15.874653691246364"><ele>82.8</ele><time>2026-04-26T13:27:52.999Z</time></trkpt><trkpt lat="39.80692208688218" lon="15.874730045981734"><ele>81.4</ele><time>2026-04-26T13:27:53.999Z</time></trkpt><trkpt lat="39.80688172366263" lon="15.874839542685232"><ele>80.0</ele><time>2026-04-26T13:27:54.999Z</time></trkpt><trkpt lat="39.806823390689125" lon="15.87490781877411"><ele>78.4</ele><time>2026-04-26T13:27:55.999Z</time></trkpt><trkpt lat="39.80674375252723" lon="15.874957952264849"><ele>76.8</ele><time>2026-04-26T13:27:57.999Z</time></trkpt><trkpt lat="39.80668742193404" lon="15.875054389179368"><ele>75.2</ele><time>2026-04-26T13:27:59.999Z</time></trkpt><trkpt lat="39.80659646530031" lon="15.875026490674236"><ele>73.6</ele><time>2026-04-26T13:28:00.999Z</time></trkpt><trkpt lat="39.80646256250727" lon="15.875022695985693"><ele>72.0</ele><time>2026-04-26T13:28:01.999Z</time></trkpt><trkpt lat="39.80633514726653" lon="15.875039192272348"><ele>72.0</ele><time>2026-04-26T13:28:02.999Z</time></trkpt><trkpt lat="39.806239942495" lon="15.875015671556476"><ele>72.0</ele><time>2026-04-26T13:28:03.999Z</time></trkpt><trkpt lat="39.80617710187867" lon="15.874973818056834"><ele>72.0</ele><time>2026-04-26T13:28:04.999Z</time></trkpt><trkpt lat="39.806124140837824" lon="15.874899414709462"><ele>72.0</ele><time>2026-04-26T13:28:05.999Z</time></trkpt><trkpt lat="39.80610401264479" lon="15.87479257933717"><ele>72.0</ele><time>2026-04-26T13:28:06.999Z</time></trkpt><trkpt lat="39.8061037043191" lon="15.874658714384529"><ele>72.0</ele><time>2026-04-26T13:28:07.999Z</time></trkpt><trkpt lat="39.80610645248386" lon="15.874499507215296"><ele>72.0</ele><time>2026-04-26T13:28:08.999Z</time></trkpt><trkpt lat="39.806099519204906" lon="15.874346705834641"><ele>72.0</ele><time>2026-04-26T13:28:09.999Z</time></trkpt><trkpt lat="39.80609582542527" lon="15.874193195649923"><ele>72.0</ele><time>2026-04-26T13:28:10.999Z</time></trkpt><trkpt lat="39.80610852604815" lon="15.87404314647351"><ele>72.0</ele><time>2026-04-26T13:28:11.999Z</time></trkpt><trkpt lat="39.80613032568769" lon="15.873885465676008"><ele>74.25</ele><time>2026-04-26T13:28:12.999Z</time></trkpt><trkpt lat="39.8061552264317" lon="15.873730460985291"><ele>76.5</ele><time>2026-04-26T13:28:13.999Z</time></trkpt><trkpt lat="39.806178382712524" lon="15.873579680452853"><ele>78.75</ele><time>2026-04-26T13:28:14.999Z</time></trkpt><trkpt lat="39.80620336265241" lon="15.873432240172177"><ele>81.0</ele><time>2026-04-26T13:28:15.999Z</time></trkpt><trkpt lat="39.80621361425379" lon="15.873296606129857"><ele>81.33333333333333</ele><time>2026-04-26T13:28:16.999Z</time></trkpt><trkpt lat="39.80618259773515" lon="15.873175355064415"><ele>81.66666666666667</ele><time>2026-04-26T13:28:17.999Z</time></trkpt><trkpt lat="39.806116036799416" lon="15.873080072753034"><ele>82.0</ele><time>2026-04-26T13:28:18.999Z</time></trkpt><trkpt lat="39.806037884121345" lon="15.873007852231382"><ele>82.33333333333334</ele><time>2026-04-26T13:28:19.999Z</time></trkpt><trkpt lat="39.805973435811644" lon="15.872955547251625"><ele>82.66666666666667</ele><time>2026-04-26T13:28:20.999Z</time></trkpt><trkpt lat="39.80590657408658" lon="15.872903087433384"><ele>83.0</ele><time>2026-04-26T13:28:21.999Z</time></trkpt><trkpt lat="39.805828549480005" lon="15.872859092995542"><ele>80.16666666666667</ele><time>2026-04-26T13:28:22.999Z</time></trkpt><trkpt lat="39.805755291185854" lon="15.872832114263375"><ele>77.33333333333334</ele><time>2026-04-26T13:28:23.999Z</time></trkpt><trkpt lat="39.805684971466675" lon="15.872819584164118"><ele>74.5</ele><time>2026-04-26T13:28:24.999Z</time></trkpt><trkpt lat="39.805615898907476" lon="15.872816334360568"><ele>71.66666666666667</ele><time>2026-04-26T13:28:25.999Z</time></trkpt><trkpt lat="39.80554762911236" lon="15.87280309994892"><ele>68.83333333333333</ele><time>2026-04-26T13:28:26.999Z</time></trkpt><trkpt lat="39.80543956662454" lon="15.872760271940267"><ele>66.0</ele><time>2026-04-26T13:28:28.999Z</time></trkpt><trkpt lat="39.805338999879794" lon="15.872744551456691"><ele>66.0</ele><time>2026-04-26T13:28:30.999Z</time></trkpt><trkpt lat="39.805227818409875" lon="15.872727405841463"><ele>66.0</ele><time>2026-04-26T13:28:32.999Z</time></trkpt><trkpt lat="39.80511137340791" lon="15.87273532308856"><ele>66.0</ele><time>2026-04-26T13:28:34.999Z</time></trkpt><trkpt lat="39.80504125860077" lon="15.872712098673073"><ele>66.0</ele><time>2026-04-26T13:28:35.999Z</time></trkpt><trkpt lat="39.80497451176939" lon="15.872679278894685"><ele>66.0</ele><time>2026-04-26T13:28:36.999Z</time></trkpt><trkpt lat="39.80489893683471" lon="15.872616531190028"><ele>66.5</ele><time>2026-04-26T13:28:37.998Z</time></trkpt><trkpt lat="39.8048437733549" lon="15.872519997568789"><ele>67.0</ele><time>2026-04-26T13:28:38.998Z</time></trkpt><trkpt lat="39.80480946165055" lon="15.872391818678974"><ele>67.5</ele><time>2026-04-26T13:28:39.998Z</time></trkpt><trkpt lat="39.80479881564299" lon="15.872223863798917"><ele>68.0</ele><time>2026-04-26T13:28:40.998Z</time></trkpt><trkpt lat="39.80480390488604" lon="15.87205088704187"><ele>68.0</ele><time>2026-04-26T13:28:41.998Z</time></trkpt><trkpt lat="39.80480390784905" lon="15.871882987856653"><ele>68.0</ele><time>2026-04-26T13:28:43Z</time></trkpt><trkpt lat="39.80479181609951" lon="15.871736025805324"><ele>68.0</ele><time>2026-04-26T13:28:44Z</time></trkpt><trkpt lat="39.80476161267538" lon="15.871608354766348"><ele>68.0</ele><time>2026-04-26T13:28:45Z</time></trkpt><trkpt lat="39.80469357408334" lon="15.871493365492343"><ele>69.75</ele><time>2026-04-26T13:28:46Z</time></trkpt><trkpt lat="39.80459303139793" lon="15.871385835744686"><ele>71.5</ele><time>2026-04-26T13:28:47Z</time></trkpt><trkpt lat="39.804485585305756" lon="15.871292388719352"><ele>73.25</ele><time>2026-04-26T13:28:48Z</time></trkpt><trkpt lat="39.80439335733742" lon="15.871203432721456"><ele>75.0</ele><time>2026-04-26T13:28:49Z</time></trkpt><trkpt lat="39.80431100398998" lon="15.871099990532917"><ele>72.75</ele><time>2026-04-26T13:28:50Z</time></trkpt><trkpt lat="39.804226452566944" lon="15.870967817708465"><ele>70.5</ele><time>2026-04-26T13:28:51Z</time></trkpt><trkpt lat="39.80414446879998" lon="15.870836199283888"><ele>68.25</ele><time>2026-04-26T13:28:52Z</time></trkpt><trkpt lat="39.80406502207481" lon="15.87071438388074"><ele>66.0</ele><time>2026-04-26T13:28:53Z</time></trkpt><trkpt lat="39.8039908877958" lon="15.870592600305285"><ele>66.0</ele><time>2026-04-26T13:28:54Z</time></trkpt><trkpt lat="39.803924574412086" lon="15.87045895917573"><ele>66.0</ele><time>2026-04-26T13:28:55Z</time></trkpt><trkpt lat="39.80387901934706" lon="15.870310855251574"><ele>66.0</ele><time>2026-04-26T13:28:56Z</time></trkpt><trkpt lat="39.80385445142775" lon="15.870150049251256"><ele>66.0</ele><time>2026-04-26T13:28:57Z</time></trkpt><trkpt lat="39.80382954649809" lon="15.869994523200104"><ele>68.5</ele><time>2026-04-26T13:28:58Z</time></trkpt><trkpt lat="39.80377593431248" lon="15.869835078305519"><ele>71.0</ele><time>2026-04-26T13:28:59Z</time></trkpt><trkpt lat="39.803691420506404" lon="15.869672541900496"><ele>73.5</ele><time>2026-04-26T13:29:00Z</time></trkpt><trkpt lat="39.803605084309396" lon="15.869529116415162"><ele>76.0</ele><time>2026-04-26T13:29:01Z</time></trkpt><trkpt lat="39.80351478303835" lon="15.869378667557928"><ele>70.75</ele><time>2026-04-26T13:29:02Z</time></trkpt><trkpt lat="39.80342542896511" lon="15.86921746489142"><ele>65.5</ele><time>2026-04-26T13:29:03Z</time></trkpt><trkpt lat="39.803335935027" lon="15.869056673701149"><ele>60.25</ele><time>2026-04-26T13:29:04Z</time></trkpt><trkpt lat="39.80325293964913" lon="15.86890756219951"><ele>55.0</ele><time>2026-04-26T13:29:05Z</time></trkpt><trkpt lat="39.80317724454002" lon="15.868766901712227"><ele>55.0</ele><time>2026-04-26T13:29:06Z</time></trkpt><trkpt lat="39.80310761935232" lon="15.868641593911146"><ele>55.0</ele><time>2026-04-26T13:29:06.999Z</time></trkpt><trkpt lat="39.80305113654189" lon="15.86852959538302"><ele>55.0</ele><time>2026-04-26T13:29:07.999Z</time></trkpt><trkpt lat="39.803003544846" lon="15.868412936424578"><ele>55.0</ele><time>2026-04-26T13:29:08.999Z</time></trkpt><trkpt lat="39.802956001140274" lon="15.86830845313237"><ele>55.0</ele><time>2026-04-26T13:29:09.999Z</time></trkpt><trkpt lat="39.80291453396047" lon="15.868221464492718"><ele>55.666666666666664</ele><time>2026-04-26T13:29:10.999Z</time></trkpt><trkpt lat="39.80285716439985" lon="15.868111649359763"><ele>56.33333333333333</ele><time>2026-04-26T13:29:12.999Z</time></trkpt><trkpt lat="39.80281565621353" lon="15.868044732238106"><ele>57.0</ele><time>2026-04-26T13:29:14.999Z</time></trkpt><trkpt lat="39.80272874485859" lon="15.868118797685442"><ele>57.66666666666667</ele><time>2026-04-26T13:29:17.999Z</time></trkpt><trkpt lat="39.8026730437657" lon="15.868213207653232"><ele>58.333333333333336</ele><time>2026-04-26T13:29:19.999Z</time></trkpt><trkpt lat="39.80262660244676" lon="15.868281625121066"><ele>59.0</ele><time>2026-04-26T13:29:20.999Z</time></trkpt><trkpt lat="39.80257172619916" lon="15.868364419195851"><ele>56.0</ele><time>2026-04-26T13:29:21.999Z</time></trkpt><trkpt lat="39.802513275527744" lon="15.86845196733272"><ele>53.00000000000001</ele><time>2026-04-26T13:29:22.999Z</time></trkpt><trkpt lat="39.802448458606825" lon="15.868550380802107"><ele>50.0</ele><time>2026-04-26T13:29:23.999Z</time></trkpt><trkpt lat="39.802373685006565" lon="15.868665237214842"><ele>47.0</ele><time>2026-04-26T13:29:24.999Z</time></trkpt><trkpt lat="39.802288050693775" lon="15.868796767083497"><ele>44.0</ele><time>2026-04-26T13:29:25.999Z</time></trkpt><trkpt lat="39.802193135456044" lon="15.868942430687913"><ele>44.0</ele><time>2026-04-26T13:29:26.999Z</time></trkpt><trkpt lat="39.80211607845228" lon="15.869092264446497"><ele>44.0</ele><time>2026-04-26T13:29:27.999Z</time></trkpt><trkpt lat="39.802021563593286" lon="15.869205736609572"><ele>44.0</ele><time>2026-04-26T13:29:28.999Z</time></trkpt><trkpt lat="39.80195013509538" lon="15.869315355706386"><ele>44.0</ele><time>2026-04-26T13:29:29.999Z</time></trkpt><trkpt lat="39.80188694081605" lon="15.869412338015435"><ele>44.2</ele><time>2026-04-26T13:29:30.999Z</time></trkpt><trkpt lat="39.80182242381721" lon="15.869511350231297"><ele>44.400000000000006</ele><time>2026-04-26T13:29:31.999Z</time></trkpt><trkpt lat="39.80175064686342" lon="15.869621504165762"><ele>44.6</ele><time>2026-04-26T13:29:32.999Z</time></trkpt><trkpt lat="39.80167572644438" lon="15.869736482172064"><ele>44.8</ele><time>2026-04-26T13:29:33.999Z</time></trkpt><trkpt lat="39.801599955216346" lon="15.869853782711406"><ele>45.0</ele><time>2026-04-26T13:29:34.999Z</time></trkpt><trkpt lat="39.801519275761656" lon="15.869978686369471"><ele>45.0</ele><time>2026-04-26T13:29:35.999Z</time></trkpt><trkpt lat="39.8014367693598" lon="15.87010662724641"><ele>45.0</ele><time>2026-04-26T13:29:36.999Z</time></trkpt><trkpt lat="39.80136301063124" lon="15.87022099631621"><ele>45.0</ele><time>2026-04-26T13:29:37.999Z</time></trkpt><trkpt lat="39.80129482670191" lon="15.870327604288672"><ele>45.0</ele><time>2026-04-26T13:29:38.999Z</time></trkpt><trkpt lat="39.801231465741694" lon="15.870427051366342"><ele>45.0</ele><time>2026-04-26T13:29:39.999Z</time></trkpt><trkpt lat="39.80116652219348" lon="15.870529045588146"><ele>45.0</ele><time>2026-04-26T13:29:40.999Z</time></trkpt><trkpt lat="39.80109463993288" lon="15.870640946328388"><ele>45.0</ele><time>2026-04-26T13:29:41.999Z</time></trkpt><trkpt lat="39.80101668305247" lon="15.87076093553702"><ele>45.0</ele><time>2026-04-26T13:29:42.999Z</time></trkpt><trkpt lat="39.80092697974142" lon="15.870895652489256"><ele>45.0</ele><time>2026-04-26T13:29:43.999Z</time></trkpt><trkpt lat="39.80083210856381" lon="15.871038130622416"><ele>45.0</ele><time>2026-04-26T13:29:44.999Z</time></trkpt><trkpt lat="39.8007384064518" lon="15.871178852981568"><ele>45.0</ele><time>2026-04-26T13:29:45.999Z</time></trkpt><trkpt lat="39.800646751086674" lon="15.871316501568405"><ele>45.0</ele><time>2026-04-26T13:29:46.999Z</time></trkpt><trkpt lat="39.800552642269594" lon="15.871459676328875"><ele>45.0</ele><time>2026-04-26T13:29:47.999Z</time></trkpt><trkpt lat="39.800451635027834" lon="15.87161389351684"><ele>45.0</ele><time>2026-04-26T13:29:48.999Z</time></trkpt><trkpt lat="39.80035016933592" lon="15.871768810580077"><ele>45.0</ele><time>2026-04-26T13:29:49.999Z</time></trkpt><trkpt lat="39.800246432373605" lon="15.871927228009676"><ele>45.0</ele><time>2026-04-26T13:29:50.999Z</time></trkpt><trkpt lat="39.80013654747277" lon="15.8720957531229"><ele>46.0</ele><time>2026-04-26T13:29:51.999Z</time></trkpt><trkpt lat="39.80002827320603" lon="15.872262042757484"><ele>47.0</ele><time>2026-04-26T13:29:52.999Z</time></trkpt><trkpt lat="39.79993649156268" lon="15.872423389995678"><ele>48.0</ele><time>2026-04-26T13:29:53.999Z</time></trkpt><trkpt lat="39.79986419968469" lon="15.87259171957701"><ele>48.75</ele><time>2026-04-26T13:29:54.999Z</time></trkpt><trkpt lat="39.799818693188904" lon="15.87277313686494"><ele>49.5</ele><time>2026-04-26T13:29:55.999Z</time></trkpt><trkpt lat="39.79983516820239" lon="15.872967795945419"><ele>50.25</ele><time>2026-04-26T13:29:56.999Z</time></trkpt><trkpt lat="39.79987354973448" lon="15.873145005135642"><ele>51.0</ele><time>2026-04-26T13:29:57.999Z</time></trkpt><trkpt lat="39.79992915095672" lon="15.873325068460808"><ele>52.75</ele><time>2026-04-26T13:29:58.999Z</time></trkpt><trkpt lat="39.799985495461705" lon="15.87349859392566"><ele>54.5</ele><time>2026-04-26T13:29:59.999Z</time></trkpt><trkpt lat="39.800040290215804" lon="15.873670117988732"><ele>56.25</ele><time>2026-04-26T13:30:00.999Z</time></trkpt><trkpt lat="39.800087539444164" lon="15.873821108565743"><ele>58.0</ele><time>2026-04-26T13:30:01.999Z</time></trkpt><trkpt lat="39.800121454250906" lon="15.8739462683629"><ele>57.99999999999999</ele><time>2026-04-26T13:30:02.999Z</time></trkpt><trkpt lat="39.8001220360909" lon="15.874049087301392"><ele>58.0</ele><time>2026-04-26T13:30:03.999Z</time></trkpt><trkpt lat="39.80009475670506" lon="15.874141422684778"><ele>58.0</ele><time>2026-04-26T13:30:04.999Z</time></trkpt><trkpt lat="39.80002468121126" lon="15.874214875588692"><ele>58.0</ele><time>2026-04-26T13:30:05.999Z</time></trkpt><trkpt lat="39.799938542318394" lon="15.87427056828692"><ele>57.99999999999999</ele><time>2026-04-26T13:30:06.999Z</time></trkpt><trkpt lat="39.79985133552021" lon="15.874311205954745"><ele>58.0</ele><time>2026-04-26T13:30:07.999Z</time></trkpt><trkpt lat="39.79976099921948" lon="15.874277589455952"><ele>58.0</ele><time>2026-04-26T13:30:08.999Z</time></trkpt><trkpt lat="39.799679951214976" lon="15.87419520003113"><ele>58.0</ele><time>2026-04-26T13:30:09.999Z</time></trkpt><trkpt lat="39.79961793466109" lon="15.874067686585075"><ele>58.0</ele><time>2026-04-26T13:30:10.999Z</time></trkpt><trkpt lat="39.79957517835575" lon="15.873909391546277"><ele>58.0</ele><time>2026-04-26T13:30:11.999Z</time></trkpt><trkpt lat="39.79954688347239" lon="15.87374685749379"><ele>58.0</ele><time>2026-04-26T13:30:12.999Z</time></trkpt><trkpt lat="39.79950662874217" lon="15.87360716858669"><ele>58.0</ele><time>2026-04-26T13:30:13.999Z</time></trkpt><trkpt lat="39.79945010129474" lon="15.873492339857881"><ele>58.0</ele><time>2026-04-26T13:30:14.999Z</time></trkpt><trkpt lat="39.79937433559554" lon="15.873405504609508"><ele>58.0</ele><time>2026-04-26T13:30:15.999Z</time></trkpt><trkpt lat="39.799282250450304" lon="15.873362271003142"><ele>58.0</ele><time>2026-04-26T13:30:16.998Z</time></trkpt><trkpt lat="39.79918464154704" lon="15.873361009642345"><ele>60.599999999999994</ele><time>2026-04-26T13:30:17.998Z</time></trkpt><trkpt lat="39.79908722722646" lon="15.873407521778061"><ele>63.199999999999996</ele><time>2026-04-26T13:30:18.998Z</time></trkpt><trkpt lat="39.799005920729805" lon="15.87349028474956"><ele>65.8</ele><time>2026-04-26T13:30:19.998Z</time></trkpt><trkpt lat="39.79893940427773" lon="15.873585434775068"><ele>68.39999999999999</ele><time>2026-04-26T13:30:20.998Z</time></trkpt><trkpt lat="39.798940600400975" lon="15.873744427431658"><ele>71.0</ele><time>2026-04-26T13:30:21.998Z</time></trkpt><trkpt lat="39.79891350232739" lon="15.873894104115262"><ele>71.0</ele><time>2026-04-26T13:30:22.998Z</time></trkpt><trkpt lat="39.79889660482345" lon="15.874054546480236"><ele>71.0</ele><time>2026-04-26T13:30:23.998Z</time></trkpt><trkpt lat="39.79887822015165" lon="15.874228915272093"><ele>71.0</ele><time>2026-04-26T13:30:24.998Z</time></trkpt><trkpt lat="39.798858034897606" lon="15.874420101381444"><ele>71.0</ele><time>2026-04-26T13:30:25.998Z</time></trkpt><trkpt lat="39.79883511073493" lon="15.874615669581308"><ele>70.66666666666667</ele><time>2026-04-26T13:30:26.998Z</time></trkpt><trkpt lat="39.798806234739345" lon="15.874807298340537"><ele>70.33333333333333</ele><time>2026-04-26T13:30:27.998Z</time></trkpt><trkpt lat="39.798771148956256" lon="15.874999368530645"><ele>70.0</ele><time>2026-04-26T13:30:28.998Z</time></trkpt><trkpt lat="39.79873396660221" lon="15.875191228602635"><ele>71.33333333333333</ele><time>2026-04-26T13:30:29.998Z</time></trkpt><trkpt lat="39.79869524640994" lon="15.875393545823135"><ele>72.66666666666667</ele><time>2026-04-26T13:30:30.998Z</time></trkpt><trkpt lat="39.79865629797621" lon="15.87559784915155"><ele>74.0</ele><time>2026-04-26T13:30:31.998Z</time></trkpt><trkpt lat="39.79861984346306" lon="15.875789070455763"><ele>76.0</ele><time>2026-04-26T13:30:32.998Z</time></trkpt><trkpt lat="39.79858478778215" lon="15.875961909423564"><ele>78.0</ele><time>2026-04-26T13:30:33.998Z</time></trkpt><trkpt lat="39.79855445845137" lon="15.87613776850041"><ele>80.0</ele><time>2026-04-26T13:30:34.998Z</time></trkpt><trkpt lat="39.79854723683097" lon="15.876316528678563"><ele>82.0</ele><time>2026-04-26T13:30:35.998Z</time></trkpt><trkpt lat="39.79860571301205" lon="15.87647165378202"><ele>82.0</ele><time>2026-04-26T13:30:36.998Z</time></trkpt><trkpt lat="39.79868244726142" lon="15.876623106244471"><ele>82.0</ele><time>2026-04-26T13:30:37.998Z</time></trkpt><trkpt lat="39.79877002977016" lon="15.876777746537224"><ele>82.0</ele><time>2026-04-26T13:30:38.998Z</time></trkpt><trkpt lat="39.798852791800705" lon="15.876928593892506"><ele>82.0</ele><time>2026-04-26T13:30:39.998Z</time></trkpt><trkpt lat="39.7989222345917" lon="15.8770696672227"><ele>83.5</ele><time>2026-04-26T13:30:40.998Z</time></trkpt><trkpt lat="39.79894909031137" lon="15.877202328678417"><ele>85.0</ele><time>2026-04-26T13:30:41.998Z</time></trkpt><trkpt lat="39.79898802797974" lon="15.877283029893984"><ele>86.5</ele><time>2026-04-26T13:30:42.998Z</time></trkpt><trkpt lat="39.799025302827324" lon="15.8773600788442"><ele>88.0</ele><time>2026-04-26T13:30:43.998Z</time></trkpt><trkpt lat="39.79901930448196" lon="15.877456170451401"><ele>89.5</ele><time>2026-04-26T13:30:45.998Z</time></trkpt><trkpt lat="39.798897124765446" lon="15.877493921561344"><ele>91.0</ele><time>2026-04-26T13:30:46.998Z</time></trkpt><trkpt lat="39.798804125909044" lon="15.87753612645577"><ele>91.0</ele><time>2026-04-26T13:30:47.998Z</time></trkpt><trkpt lat="39.798704318897165" lon="15.877599200461058"><ele>91.0</ele><time>2026-04-26T13:30:48.999Z</time></trkpt><trkpt lat="39.7985947729099" lon="15.877629694667425"><ele>91.0</ele><time>2026-04-26T13:30:49.999Z</time></trkpt><trkpt lat="39.79847269909089" lon="15.877645251683823"><ele>91.0</ele><time>2026-04-26T13:30:50.999Z</time></trkpt><trkpt lat="39.79834215576934" lon="15.877647377970337"><ele>93.25</ele><time>2026-04-26T13:30:51.999Z</time></trkpt><trkpt lat="39.79822791470919" lon="15.877636303459218"><ele>95.5</ele><time>2026-04-26T13:30:53Z</time></trkpt><trkpt lat="39.79810743105224" lon="15.877609322413416"><ele>97.75</ele><time>2026-04-26T13:30:54Z</time></trkpt><trkpt lat="39.79798521207145" lon="15.877558633612232"><ele>100.0</ele><time>2026-04-26T13:30:55Z</time></trkpt><trkpt lat="39.79787007943055" lon="15.877516180171728"><ele>100.0</ele><time>2026-04-26T13:30:56Z</time></trkpt><trkpt lat="39.7977781852062" lon="15.877477352682195"><ele>100.0</ele><time>2026-04-26T13:30:57Z</time></trkpt><trkpt lat="39.7977137879688" lon="15.877416113122477"><ele>100.0</ele><time>2026-04-26T13:30:58Z</time></trkpt><trkpt lat="39.79767639242292" lon="15.877319462844763"><ele>100.0</ele><time>2026-04-26T13:30:59Z</time></trkpt><trkpt lat="39.79769193262434" lon="15.877192676595337"><ele>100.0</ele><time>2026-04-26T13:31:00Z</time></trkpt><trkpt lat="39.79769292841815" lon="15.87705198586334"><ele>100.0</ele><time>2026-04-26T13:31:01Z</time></trkpt><trkpt lat="39.79772653404645" lon="15.876946474098931"><ele>100.0</ele><time>2026-04-26T13:31:02Z</time></trkpt><trkpt lat="39.797797722964525" lon="15.876860552392424"><ele>100.0</ele><time>2026-04-26T13:31:03Z</time></trkpt><trkpt lat="39.79791280184809" lon="15.876782177393615"><ele>100.0</ele><time>2026-04-26T13:31:04Z</time></trkpt><trkpt lat="39.79799570453628" lon="15.876701181886693"><ele>100.0</ele><time>2026-04-26T13:31:05Z</time></trkpt><trkpt lat="39.79803962501961" lon="15.876605252431403"><ele>99.25</ele><time>2026-04-26T13:31:06Z</time></trkpt><trkpt lat="39.79804838967927" lon="15.87648027492538"><ele>98.5</ele><time>2026-04-26T13:31:07Z</time></trkpt><trkpt lat="39.79802407828087" lon="15.876342357987529"><ele>97.75</ele><time>2026-04-26T13:31:08Z</time></trkpt><trkpt lat="39.79796069727033" lon="15.876196387397744"><ele>97.0</ele><time>2026-04-26T13:31:09Z</time></trkpt><trkpt lat="39.797907809924816" lon="15.876055999158813"><ele>96.75</ele><time>2026-04-26T13:31:10Z</time></trkpt><trkpt lat="39.79789508579802" lon="15.875901446459485"><ele>96.5</ele><time>2026-04-26T13:31:11Z</time></trkpt><trkpt lat="39.79791808682196" lon="15.87572348704137"><ele>96.25</ele><time>2026-04-26T13:31:12Z</time></trkpt><trkpt lat="39.79793243892375" lon="15.875573352403569"><ele>96.0</ele><time>2026-04-26T13:31:13Z</time></trkpt><trkpt lat="39.79789710428008" lon="15.87544969912593"><ele>96.0</ele><time>2026-04-26T13:31:14Z</time></trkpt><trkpt lat="39.797796113666486" lon="15.875338592224217"><ele>96.0</ele><time>2026-04-26T13:31:15Z</time></trkpt><trkpt lat="39.79769409234684" lon="15.875223489573221"><ele>96.0</ele><time>2026-04-26T13:31:16Z</time></trkpt><trkpt lat="39.79761137180769" lon="15.875094450909598"><ele>96.0</ele><time>2026-04-26T13:31:17Z</time></trkpt><trkpt lat="39.79753008096941" lon="15.874983315798879"><ele>99.8</ele><time>2026-04-26T13:31:18Z</time></trkpt><trkpt lat="39.797440549886325" lon="15.87492561990082"><ele>103.6</ele><time>2026-04-26T13:31:19Z</time></trkpt><trkpt lat="39.79736189369585" lon="15.874878496979896"><ele>107.4</ele><time>2026-04-26T13:31:20Z</time></trkpt><trkpt lat="39.79731893172332" lon="15.874796969156213"><ele>111.2</ele><time>2026-04-26T13:31:21Z</time></trkpt><trkpt lat="39.797315917993146" lon="15.874674355493354"><ele>115.0</ele><time>2026-04-26T13:31:22Z</time></trkpt><trkpt lat="39.79736403115701" lon="15.87452244583128"><ele>115.0</ele><time>2026-04-26T13:31:22.999Z</time></trkpt><trkpt lat="39.79744624770369" lon="15.874362444297883"><ele>115.0</ele><time>2026-04-26T13:31:23.999Z</time></trkpt><trkpt lat="39.79753289083783" lon="15.874212426856623"><ele>115.0</ele><time>2026-04-26T13:31:24.999Z</time></trkpt><trkpt lat="39.79759311987306" lon="15.87408633222478"><ele>115.0</ele><time>2026-04-26T13:31:25.999Z</time></trkpt><trkpt lat="39.79763030941872" lon="15.873983487876663"><ele>115.2</ele><time>2026-04-26T13:31:26.999Z</time></trkpt><trkpt lat="39.79762469210479" lon="15.873874385935698"><ele>115.4</ele><time>2026-04-26T13:31:27.999Z</time></trkpt><trkpt lat="39.79756353645945" lon="15.873770473512321"><ele>115.6</ele><time>2026-04-26T13:31:28.999Z</time></trkpt><trkpt lat="39.79744893052814" lon="15.87372536476206"><ele>115.8</ele><time>2026-04-26T13:31:29.999Z</time></trkpt><trkpt lat="39.79734960180281" lon="15.873645567567193"><ele>116.0</ele><time>2026-04-26T13:31:30.999Z</time></trkpt><trkpt lat="39.79725779473394" lon="15.87356434628146"><ele>116.0</ele><time>2026-04-26T13:31:31.999Z</time></trkpt><trkpt lat="39.797196185251074" lon="15.87346344111581"><ele>116.0</ele><time>2026-04-26T13:31:32.999Z</time></trkpt><trkpt lat="39.79718305832214" lon="15.873317058756514"><ele>116.0</ele><time>2026-04-26T13:31:33.999Z</time></trkpt><trkpt lat="39.797155461243335" lon="15.873148382113701"><ele>116.0</ele><time>2026-04-26T13:31:34.999Z</time></trkpt><trkpt lat="39.79714399005645" lon="15.872973664059716"><ele>115.5</ele><time>2026-04-26T13:31:35.999Z</time></trkpt><trkpt lat="39.79709250421107" lon="15.87280908927495"><ele>115.0</ele><time>2026-04-26T13:31:36.999Z</time></trkpt><trkpt lat="39.79701640322276" lon="15.872650374393308"><ele>114.5</ele><time>2026-04-26T13:31:37.999Z</time></trkpt><trkpt lat="39.796955928267536" lon="15.872525978688161"><ele>114.0</ele><time>2026-04-26T13:31:38.999Z</time></trkpt><trkpt lat="39.79688272844082" lon="15.872469964081729"><ele>116.16666666666667</ele><time>2026-04-26T13:31:39.999Z</time></trkpt><trkpt lat="39.796824840357495" lon="15.87242032583959"><ele>118.33333333333334</ele><time>2026-04-26T13:31:40.999Z</time></trkpt><trkpt lat="39.79675807447758" lon="15.872400705643804"><ele>120.5</ele><time>2026-04-26T13:31:41.999Z</time></trkpt><trkpt lat="39.79668461199978" lon="15.8724097983093"><ele>122.66666666666667</ele><time>2026-04-26T13:31:42.999Z</time></trkpt><trkpt lat="39.796603253885806" lon="15.872413546127225"><ele>124.83333333333334</ele><time>2026-04-26T13:31:43.999Z</time></trkpt><trkpt lat="39.796511976477746" lon="15.872426433259859"><ele>127.0</ele><time>2026-04-26T13:31:44.999Z</time></trkpt><trkpt lat="39.79643195981874" lon="15.87254583295685"><ele>127.0</ele><time>2026-04-26T13:31:45.999Z</time></trkpt><trkpt lat="39.79633227123384" lon="15.872597828015458"><ele>126.99999999999999</ele><time>2026-04-26T13:31:46.999Z</time></trkpt><trkpt lat="39.79624343073365" lon="15.872658229182338"><ele>126.99999999999999</ele><time>2026-04-26T13:31:47.999Z</time></trkpt><trkpt lat="39.79616779967429" lon="15.872735238797796"><ele>127.0</ele><time>2026-04-26T13:31:48.999Z</time></trkpt><trkpt lat="39.79610698696386" lon="15.872836652717917"><ele>127.0</ele><time>2026-04-26T13:31:49.999Z</time></trkpt><trkpt lat="39.79605303884685" lon="15.872954334792196"><ele>129.25</ele><time>2026-04-26T13:31:50.999Z</time></trkpt><trkpt lat="39.796003667744586" lon="15.873088454519062"><ele>131.5</ele><time>2026-04-26T13:31:51.999Z</time></trkpt><trkpt lat="39.7959601125431" lon="15.873232584297886"><ele>133.75</ele><time>2026-04-26T13:31:52.999Z</time></trkpt><trkpt lat="39.79591620776516" lon="15.873379540976178"><ele>136.0</ele><time>2026-04-26T13:31:53.999Z</time></trkpt><trkpt lat="39.795877470704234" lon="15.873496598734494"><ele>139.0</ele><time>2026-04-26T13:31:54.999Z</time></trkpt><trkpt lat="39.79582878253094" lon="15.873592309973164"><ele>142.0</ele><time>2026-04-26T13:31:55.999Z</time></trkpt><trkpt lat="39.79574949998927" lon="15.873678266251671"><ele>145.0</ele><time>2026-04-26T13:31:56.999Z</time></trkpt><trkpt lat="39.79565802723117" lon="15.873759232872688"><ele>148.0</ele><time>2026-04-26T13:31:57.999Z</time></trkpt><trkpt lat="39.79558502112481" lon="15.873821564613737"><ele>151.0</ele><time>2026-04-26T13:31:58.999Z</time></trkpt><trkpt lat="39.79551557540325" lon="15.873867863834981"><ele>151.0</ele><time>2026-04-26T13:31:59.999Z</time></trkpt><trkpt lat="39.79542588933917" lon="15.873882537194065"><ele>151.0</ele><time>2026-04-26T13:32:00.999Z</time></trkpt><trkpt lat="39.79533636932972" lon="15.873845485867957"><ele>151.0</ele><time>2026-04-26T13:32:01.999Z</time></trkpt><trkpt lat="39.795249121302554" lon="15.873754084671136"><ele>151.0</ele><time>2026-04-26T13:32:02.999Z</time></trkpt><trkpt lat="39.7951552919254" lon="15.873649763638262"><ele>151.0</ele><time>2026-04-26T13:32:03.999Z</time></trkpt><trkpt lat="39.79504215333611" lon="15.87359813899879"><ele>154.6</ele><time>2026-04-26T13:32:04.999Z</time></trkpt><trkpt lat="39.79492953944234" lon="15.873575162413921"><ele>158.2</ele><time>2026-04-26T13:32:05.999Z</time></trkpt><trkpt lat="39.79482700903384" lon="15.873550737014227"><ele>161.79999999999998</ele><time>2026-04-26T13:32:06.999Z</time></trkpt><trkpt lat="39.794738797476" lon="15.873531291015828"><ele>165.39999999999998</ele><time>2026-04-26T13:32:07.999Z</time></trkpt><trkpt lat="39.79465760028998" lon="15.873515682492565"><ele>169.0</ele><time>2026-04-26T13:32:08.999Z</time></trkpt><trkpt lat="39.79456895989164" lon="15.873509325906575"><ele>169.0</ele><time>2026-04-26T13:32:09.999Z</time></trkpt><trkpt lat="39.79448305420863" lon="15.873552066495076"><ele>169.0</ele><time>2026-04-26T13:32:10.999Z</time></trkpt><trkpt lat="39.79439896626018" lon="15.873634965357477"><ele>169.0</ele><time>2026-04-26T13:32:11.999Z</time></trkpt><trkpt lat="39.794312904791425" lon="15.873742135077434"><ele>169.0</ele><time>2026-04-26T13:32:12.999Z</time></trkpt><trkpt lat="39.7942363218758" lon="15.873876375279144"><ele>169.0</ele><time>2026-04-26T13:32:13.999Z</time></trkpt><trkpt lat="39.79417097238397" lon="15.874010844163998"><ele>170.79999999999998</ele><time>2026-04-26T13:32:14.999Z</time></trkpt><trkpt lat="39.7941132486337" lon="15.874126476355663"><ele>172.6</ele><time>2026-04-26T13:32:15.999Z</time></trkpt><trkpt lat="39.79405502816778" lon="15.874232854886799"><ele>174.4</ele><time>2026-04-26T13:32:16.999Z</time></trkpt><trkpt lat="39.79397679811442" lon="15.874307089400949"><ele>176.2</ele><time>2026-04-26T13:32:17.999Z</time></trkpt><trkpt lat="39.793872471552504" lon="15.874339003542314"><ele>178.0</ele><time>2026-04-26T13:32:18.999Z</time></trkpt><trkpt lat="39.793744598660176" lon="15.874362993284837"><ele>181.75</ele><time>2026-04-26T13:32:19.999Z</time></trkpt><trkpt lat="39.79360997058401" lon="15.874368104980324"><ele>185.5</ele><time>2026-04-26T13:32:20.999Z</time></trkpt><trkpt lat="39.793508425473995" lon="15.874361822013995"><ele>189.25</ele><time>2026-04-26T13:32:21.999Z</time></trkpt><trkpt lat="39.79344262997924" lon="15.874409753353056"><ele>193.0</ele><time>2026-04-26T13:32:22.999Z</time></trkpt><trkpt lat="39.793387503167914" lon="15.874577743056044"><ele>194.2</ele><time>2026-04-26T13:32:24.999Z</time></trkpt><trkpt lat="39.79335702063959" lon="15.874716960515588"><ele>195.4</ele><time>2026-04-26T13:32:25.999Z</time></trkpt><trkpt lat="39.79331135373877" lon="15.874841895364321"><ele>196.6</ele><time>2026-04-26T13:32:26.999Z</time></trkpt><trkpt lat="39.79325593446174" lon="15.874963040212323"><ele>197.79999999999998</ele><time>2026-04-26T13:32:27.999Z</time></trkpt><trkpt lat="39.79318196759275" lon="15.875051194191759"><ele>199.0</ele><time>2026-04-26T13:32:28.999Z</time></trkpt><trkpt lat="39.79311985156959" lon="15.875116007066854"><ele>199.0</ele><time>2026-04-26T13:32:29.999Z</time></trkpt><trkpt lat="39.7930587634441" lon="15.875160251664909"><ele>199.0</ele><time>2026-04-26T13:32:30.999Z</time></trkpt><trkpt lat="39.79299083802612" lon="15.875168666978656"><ele>199.0</ele><time>2026-04-26T13:32:31.999Z</time></trkpt><trkpt lat="39.79291301771289" lon="15.87513012184712"><ele>199.0</ele><time>2026-04-26T13:32:32.999Z</time></trkpt><trkpt lat="39.792811579630836" lon="15.87505297215246"><ele>199.0</ele><time>2026-04-26T13:32:33.999Z</time></trkpt><trkpt lat="39.79270362724362" lon="15.874967910963472"><ele>202.75</ele><time>2026-04-26T13:32:34.999Z</time></trkpt><trkpt lat="39.79259416522835" lon="15.874886226268346"><ele>206.5</ele><time>2026-04-26T13:32:35.999Z</time></trkpt><trkpt lat="39.79247840006943" lon="15.87481606383358"><ele>210.25</ele><time>2026-04-26T13:32:36.999Z</time></trkpt><trkpt lat="39.79234762646129" lon="15.874762869108139"><ele>214.0</ele><time>2026-04-26T13:32:37.999Z</time></trkpt><trkpt lat="39.79222114748626" lon="15.874729379436047"><ele>214.0</ele><time>2026-04-26T13:32:38.999Z</time></trkpt><trkpt lat="39.79212979809015" lon="15.874696371483067"><ele>213.99999999999997</ele><time>2026-04-26T13:32:39.999Z</time></trkpt><trkpt lat="39.79205941133102" lon="15.874639719073116"><ele>213.99999999999997</ele><time>2026-04-26T13:32:40.999Z</time></trkpt><trkpt lat="39.791999391603575" lon="15.874550824881526"><ele>214.0</ele><time>2026-04-26T13:32:41.999Z</time></trkpt><trkpt lat="39.7919428954603" lon="15.874439194682637"><ele>214.0</ele><time>2026-04-26T13:32:42.999Z</time></trkpt><trkpt lat="39.791890491203844" lon="15.874331716617165"><ele>215.39999999999998</ele><time>2026-04-26T13:32:43.999Z</time></trkpt><trkpt lat="39.79184074834144" lon="15.87422155993461"><ele>216.79999999999998</ele><time>2026-04-26T13:32:44.999Z</time></trkpt><trkpt lat="39.7917996555926" lon="15.874096407928363"><ele>218.20000000000002</ele><time>2026-04-26T13:32:45.999Z</time></trkpt><trkpt lat="39.791767272494994" lon="15.873954479889695"><ele>219.60000000000002</ele><time>2026-04-26T13:32:46.999Z</time></trkpt><trkpt lat="39.79174442970668" lon="15.87382953306688"><ele>221.0</ele><time>2026-04-26T13:32:47.999Z</time></trkpt><trkpt lat="39.79172561449916" lon="15.873738312955588"><ele>221.00000000000003</ele><time>2026-04-26T13:32:48.999Z</time></trkpt><trkpt lat="39.79165022490655" lon="15.873686304571693"><ele>221.0</ele><time>2026-04-26T13:32:50.998Z</time></trkpt><trkpt lat="39.79159083117143" lon="15.873726023885116"><ele>221.0</ele><time>2026-04-26T13:32:51.998Z</time></trkpt><trkpt lat="39.79154977701389" lon="15.873822058349678"><ele>221.0</ele><time>2026-04-26T13:32:52.998Z</time></trkpt><trkpt lat="39.79151091806887" lon="15.873951122628844"><ele>221.00000000000003</ele><time>2026-04-26T13:32:53.998Z</time></trkpt><trkpt lat="39.79144925210443" lon="15.87404172977539"><ele>221.0</ele><time>2026-04-26T13:32:55Z</time></trkpt><trkpt lat="39.79136588711125" lon="15.874115321943357"><ele>221.0</ele><time>2026-04-26T13:32:56Z</time></trkpt><trkpt lat="39.79126020009772" lon="15.87416541523043"><ele>221.0</ele><time>2026-04-26T13:32:57Z</time></trkpt><trkpt lat="39.791134841216106" lon="15.874200546615887"><ele>221.0</ele><time>2026-04-26T13:32:58Z</time></trkpt><trkpt lat="39.790992663993194" lon="15.874251331236124"><ele>221.0</ele><time>2026-04-26T13:32:59Z</time></trkpt><trkpt lat="39.7908542926751" lon="15.874310910655646"><ele>230.25</ele><time>2026-04-26T13:33:00Z</time></trkpt><trkpt lat="39.79074046069603" lon="15.874365895842093"><ele>239.5</ele><time>2026-04-26T13:33:01Z</time></trkpt><trkpt lat="39.79063089945399" lon="15.874413499479163"><ele>248.75</ele><time>2026-04-26T13:33:02Z</time></trkpt><trkpt lat="39.790523126322796" lon="15.874457171814052"><ele>258.0</ele><time>2026-04-26T13:33:03Z</time></trkpt><trkpt lat="39.79042914503263" lon="15.874514377391707"><ele>258.0</ele><time>2026-04-26T13:33:04Z</time></trkpt><trkpt lat="39.790328782975315" lon="15.874570831719629"><ele>258.0</ele><time>2026-04-26T13:33:05Z</time></trkpt><trkpt lat="39.79022166809412" lon="15.874612338320201"><ele>258.0</ele><time>2026-04-26T13:33:06Z</time></trkpt><trkpt lat="39.790120410977806" lon="15.87462722765815"><ele>258.0</ele><time>2026-04-26T13:33:07Z</time></trkpt><trkpt lat="39.79002711791872" lon="15.874635709743403"><ele>258.0</ele><time>2026-04-26T13:33:08Z</time></trkpt><trkpt lat="39.789953216294165" lon="15.87462242961235"><ele>259.2</ele><time>2026-04-26T13:33:09Z</time></trkpt><trkpt lat="39.78986879291158" lon="15.874567008726915"><ele>260.4</ele><time>2026-04-26T13:33:10Z</time></trkpt><trkpt lat="39.789783426788745" lon="15.87446355060126"><ele>261.59999999999997</ele><time>2026-04-26T13:33:11Z</time></trkpt><trkpt lat="39.78970519681259" lon="15.87434885409278"><ele>262.8</ele><time>2026-04-26T13:33:12Z</time></trkpt><trkpt lat="39.78960744543617" lon="15.874280667070257"><ele>264.0</ele><time>2026-04-26T13:33:13Z</time></trkpt><trkpt lat="39.78950063475192" lon="15.874237919436178"><ele>263.4</ele><time>2026-04-26T13:33:14Z</time></trkpt><trkpt lat="39.78939268899934" lon="15.87420325308171"><ele>262.79999999999995</ele><time>2026-04-26T13:33:15Z</time></trkpt><trkpt lat="39.78929368520479" lon="15.874186276936586"><ele>262.20000000000005</ele><time>2026-04-26T13:33:16Z</time></trkpt><trkpt lat="39.78919333765028" lon="15.87419191345317"><ele>261.6</ele><time>2026-04-26T13:33:17Z</time></trkpt><trkpt lat="39.78907584553629" lon="15.874204953218827"><ele>261.0</ele><time>2026-04-26T13:33:18Z</time></trkpt><trkpt lat="39.788949695300566" lon="15.87422584697657"><ele>261.0</ele><time>2026-04-26T13:33:19Z</time></trkpt><trkpt lat="39.788817746918305" lon="15.8742530196178"><ele>261.0</ele><time>2026-04-26T13:33:20Z</time></trkpt><trkpt lat="39.788684652003134" lon="15.87428627292902"><ele>261.0</ele><time>2026-04-26T13:33:21Z</time></trkpt><trkpt lat="39.78854113643524" lon="15.874304907801363"><ele>261.0</ele><time>2026-04-26T13:33:22Z</time></trkpt><trkpt lat="39.78839564447489" lon="15.87429435946665"><ele>264.25</ele><time>2026-04-26T13:33:23Z</time></trkpt><trkpt lat="39.78824962875255" lon="15.874281504132941"><ele>267.5</ele><time>2026-04-26T13:33:24Z</time></trkpt><trkpt lat="39.78812104768028" lon="15.874258726040875"><ele>270.75</ele><time>2026-04-26T13:33:25Z</time></trkpt><trkpt lat="39.787999266371344" lon="15.874227488919606"><ele>274.0</ele><time>2026-04-26T13:33:26Z</time></trkpt><trkpt lat="39.78790907804188" lon="15.87419893483537"><ele>274.0</ele><time>2026-04-26T13:33:27Z</time></trkpt><trkpt lat="39.7878257983731" lon="15.874175794042117"><ele>274.0</ele><time>2026-04-26T13:33:28Z</time></trkpt><trkpt lat="39.78773644058951" lon="15.874151407105227"><ele>274.0</ele><time>2026-04-26T13:33:29Z</time></trkpt><trkpt lat="39.78763880344971" lon="15.874114740029308"><ele>274.0</ele><time>2026-04-26T13:33:30Z</time></trkpt><trkpt lat="39.78755710308877" lon="15.874056878959044"><ele>274.0</ele><time>2026-04-26T13:33:31Z</time></trkpt><trkpt lat="39.787488788854034" lon="15.873978462448038"><ele>275.8</ele><time>2026-04-26T13:33:32Z</time></trkpt><trkpt lat="39.78742421837013" lon="15.873870446517406"><ele>277.59999999999997</ele><time>2026-04-26T13:33:32.999Z</time></trkpt><trkpt lat="39.78736981834392" lon="15.87376246630161"><ele>279.4</ele><time>2026-04-26T13:33:33.999Z</time></trkpt><trkpt lat="39.78731976459826" lon="15.873651483857751"><ele>281.2</ele><time>2026-04-26T13:33:34.999Z</time></trkpt><trkpt lat="39.78725855912341" lon="15.873543599810105"><ele>283.0</ele><time>2026-04-26T13:33:35.999Z</time></trkpt><trkpt lat="39.787183717401376" lon="15.873442061145015"><ele>280.75</ele><time>2026-04-26T13:33:36.999Z</time></trkpt><trkpt lat="39.787081029067494" lon="15.873342916534842"><ele>278.5</ele><time>2026-04-26T13:33:37.999Z</time></trkpt><trkpt lat="39.786973397509556" lon="15.873253326955833"><ele>276.25</ele><time>2026-04-26T13:33:38.999Z</time></trkpt><trkpt lat="39.786869437524366" lon="15.873184531705634"><ele>274.0</ele><time>2026-04-26T13:33:39.999Z</time></trkpt><trkpt lat="39.78676457962079" lon="15.873143861677006"><ele>273.4</ele><time>2026-04-26T13:33:40.999Z</time></trkpt><trkpt lat="39.78666191958335" lon="15.873126289007958"><ele>272.79999999999995</ele><time>2026-04-26T13:33:41.999Z</time></trkpt><trkpt lat="39.78656153293224" lon="15.873129191069598"><ele>272.20000000000005</ele><time>2026-04-26T13:33:42.999Z</time></trkpt><trkpt lat="39.78646366040488" lon="15.873153699390302"><ele>271.6</ele><time>2026-04-26T13:33:43.999Z</time></trkpt><trkpt lat="39.78636941026158" lon="15.873192490153707"><ele>271.0</ele><time>2026-04-26T13:33:44.999Z</time></trkpt><trkpt lat="39.78627950822129" lon="15.87321667970031"><ele>271.0</ele><time>2026-04-26T13:33:45.999Z</time></trkpt><trkpt lat="39.786198178962856" lon="15.873212867092876"><ele>271.0</ele><time>2026-04-26T13:33:46.999Z</time></trkpt><trkpt lat="39.78612351452579" lon="15.873176319861928"><ele>271.0</ele><time>2026-04-26T13:33:47.999Z</time></trkpt><trkpt lat="39.786030797188815" lon="15.873085623738724"><ele>271.0</ele><time>2026-04-26T13:33:48.999Z</time></trkpt><trkpt lat="39.78593699669126" lon="15.872999483284516"><ele>271.0</ele><time>2026-04-26T13:33:49.999Z</time></trkpt><trkpt lat="39.78584061912098" lon="15.872884594169449"><ele>271.75</ele><time>2026-04-26T13:33:50.999Z</time></trkpt><trkpt lat="39.785729917944096" lon="15.872771789412749"><ele>272.5</ele><time>2026-04-26T13:33:51.999Z</time></trkpt><trkpt lat="39.78561149569793" lon="15.872684322731281"><ele>273.25</ele><time>2026-04-26T13:33:52.999Z</time></trkpt><trkpt lat="39.78547546436921" lon="15.872595845869096"><ele>274.0</ele><time>2026-04-26T13:33:53.999Z</time></trkpt><trkpt lat="39.78533577005115" lon="15.872498698700621"><ele>271.0</ele><time>2026-04-26T13:33:54.999Z</time></trkpt><trkpt lat="39.78518528669092" lon="15.872387995749285"><ele>268.0</ele><time>2026-04-26T13:33:55.999Z</time></trkpt><trkpt lat="39.785045509649045" lon="15.872294597946377"><ele>265.0</ele><time>2026-04-26T13:33:56.999Z</time></trkpt><trkpt lat="39.78491136663625" lon="15.872220596040007"><ele>265.0</ele><time>2026-04-26T13:33:57.999Z</time></trkpt><trkpt lat="39.78477901763506" lon="15.872144767918344"><ele>265.0</ele><time>2026-04-26T13:33:58.999Z</time></trkpt><trkpt lat="39.78465333599279" lon="15.872056842270638"><ele>265.0</ele><time>2026-04-26T13:33:59.999Z</time></trkpt><trkpt lat="39.784541010313795" lon="15.871974394735927"><ele>265.0</ele><time>2026-04-26T13:34:00.999Z</time></trkpt><trkpt lat="39.78445041495486" lon="15.87189990472426"><ele>265.0</ele><time>2026-04-26T13:34:01.999Z</time></trkpt><trkpt lat="39.78436524341605" lon="15.871828456316091"><ele>265.0</ele><time>2026-04-26T13:34:02.999Z</time></trkpt><trkpt lat="39.784254742379694" lon="15.871789493161156"><ele>265.0</ele><time>2026-04-26T13:34:03.999Z</time></trkpt><trkpt lat="39.784123440549074" lon="15.871770779943603"><ele>265.0</ele><time>2026-04-26T13:34:04.999Z</time></trkpt><trkpt lat="39.78399227577324" lon="15.87173224959096"><ele>266.0</ele><time>2026-04-26T13:34:05.999Z</time></trkpt><trkpt lat="39.783856417200134" lon="15.871665448683697"><ele>267.0</ele><time>2026-04-26T13:34:06.999Z</time></trkpt><trkpt lat="39.783743272457876" lon="15.871591751208927"><ele>268.0</ele><time>2026-04-26T13:34:07.999Z</time></trkpt><trkpt lat="39.78365585197051" lon="15.871515054581037"><ele>269.0</ele><time>2026-04-26T13:34:08.999Z</time></trkpt><trkpt lat="39.783581079065954" lon="15.871452360505888"><ele>268.8</ele><time>2026-04-26T13:34:09.999Z</time></trkpt><trkpt lat="39.783487572949966" lon="15.871420062287147"><ele>268.59999999999997</ele><time>2026-04-26T13:34:10.999Z</time></trkpt><trkpt lat="39.78336758264062" lon="15.871427980521393"><ele>268.4</ele><time>2026-04-26T13:34:11.999Z</time></trkpt><trkpt lat="39.783260873109825" lon="15.871451862996121"><ele>268.2</ele><time>2026-04-26T13:34:12.999Z</time></trkpt><trkpt lat="39.78316045880996" lon="15.871463046410849"><ele>268.0</ele><time>2026-04-26T13:34:13.999Z</time></trkpt><trkpt lat="39.783054256213596" lon="15.871433721837795"><ele>268.0</ele><time>2026-04-26T13:34:14.999Z</time></trkpt><trkpt lat="39.78293022803628" lon="15.871366265165022"><ele>268.0</ele><time>2026-04-26T13:34:15.999Z</time></trkpt><trkpt lat="39.78280044865" lon="15.871276364562839"><ele>268.0</ele><time>2026-04-26T13:34:16.999Z</time></trkpt><trkpt lat="39.782690731022356" lon="15.871205328225482"><ele>268.0</ele><time>2026-04-26T13:34:17.999Z</time></trkpt><trkpt lat="39.78259072396818" lon="15.871147685126944"><ele>266.6</ele><time>2026-04-26T13:34:18.999Z</time></trkpt><trkpt lat="39.78250364333791" lon="15.87109999789121"><ele>265.20000000000005</ele><time>2026-04-26T13:34:19.999Z</time></trkpt><trkpt lat="39.78241989377181" lon="15.871041525032439"><ele>263.8</ele><time>2026-04-26T13:34:20.999Z</time></trkpt><trkpt lat="39.782350259939975" lon="15.870974346783026"><ele>262.40000000000003</ele><time>2026-04-26T13:34:21.999Z</time></trkpt><trkpt lat="39.782287633658804" lon="15.870904483562773"><ele>261.0</ele><time>2026-04-26T13:34:22.999Z</time></trkpt><trkpt lat="39.782195778501894" lon="15.870824782076959"><ele>261.0</ele><time>2026-04-26T13:34:23.999Z</time></trkpt><trkpt lat="39.782079139892026" lon="15.870774732704938"><ele>261.0</ele><time>2026-04-26T13:34:24.999Z</time></trkpt><trkpt lat="39.78197058755057" lon="15.870723075484252"><ele>261.0</ele><time>2026-04-26T13:34:25.999Z</time></trkpt><trkpt lat="39.78187090782134" lon="15.870662596443601"><ele>261.0</ele><time>2026-04-26T13:34:26.999Z</time></trkpt><trkpt lat="39.78176319829329" lon="15.870593091261386"><ele>262.6</ele><time>2026-04-26T13:34:27.999Z</time></trkpt><trkpt lat="39.78165553715115" lon="15.870508172536457"><ele>264.20000000000005</ele><time>2026-04-26T13:34:28.999Z</time></trkpt><trkpt lat="39.78155321202024" lon="15.870418089154537"><ele>265.79999999999995</ele><time>2026-04-26T13:34:29.999Z</time></trkpt><trkpt lat="39.78146345615168" lon="15.870351264665032"><ele>267.4</ele><time>2026-04-26T13:34:30.999Z</time></trkpt><trkpt lat="39.781389064655" lon="15.870314871993415"><ele>269.0</ele><time>2026-04-26T13:34:31.999Z</time></trkpt><trkpt lat="39.781317581917406" lon="15.870309452023783"><ele>269.0</ele><time>2026-04-26T13:34:32.999Z</time></trkpt><trkpt lat="39.78121053150991" lon="15.870324918745913"><ele>269.0</ele><time>2026-04-26T13:34:33.999Z</time></trkpt><trkpt lat="39.78108249402584" lon="15.870355432723407"><ele>269.0</ele><time>2026-04-26T13:34:34.999Z</time></trkpt><trkpt lat="39.78096704477247" lon="15.870369176884157"><ele>269.0</ele><time>2026-04-26T13:34:35.999Z</time></trkpt><trkpt lat="39.78085429787669" lon="15.87037398398788"><ele>269.5</ele><time>2026-04-26T13:34:36.999Z</time></trkpt><trkpt lat="39.780727506176895" lon="15.870365678888955"><ele>270.0</ele><time>2026-04-26T13:34:37.999Z</time></trkpt><trkpt lat="39.780599203346036" lon="15.870348179403528"><ele>270.5</ele><time>2026-04-26T13:34:38.999Z</time></trkpt><trkpt lat="39.78047636666251" lon="15.870318526930127"><ele>271.0</ele><time>2026-04-26T13:34:39.999Z</time></trkpt><trkpt lat="39.78035677074827" lon="15.870279558467848"><ele>271.0</ele><time>2026-04-26T13:34:40.999Z</time></trkpt><trkpt lat="39.7802351006399" lon="15.870244788642152"><ele>271.0</ele><time>2026-04-26T13:34:41.999Z</time></trkpt><trkpt lat="39.78011083830854" lon="15.870224150827198"><ele>271.0</ele><time>2026-04-26T13:34:42.999Z</time></trkpt><trkpt lat="39.77999533065244" lon="15.870211301368016"><ele>271.0</ele><time>2026-04-26T13:34:43.999Z</time></trkpt><trkpt lat="39.77988043746384" lon="15.870196378810462"><ele>271.2</ele><time>2026-04-26T13:34:44.999Z</time></trkpt><trkpt lat="39.77977158692778" lon="15.870179492810072"><ele>271.40000000000003</ele><time>2026-04-26T13:34:45.999Z</time></trkpt><trkpt lat="39.7796613166114" lon="15.870155244961435"><ele>271.6</ele><time>2026-04-26T13:34:46.999Z</time></trkpt><trkpt lat="39.77955515577272" lon="15.87011910913586"><ele>271.8</ele><time>2026-04-26T13:34:47.999Z</time></trkpt><trkpt lat="39.77945163608188" lon="15.870090634129875"><ele>272.0</ele><time>2026-04-26T13:34:48.999Z</time></trkpt><trkpt lat="39.77933286960423" lon="15.870058739391405"><ele>269.0</ele><time>2026-04-26T13:34:49.999Z</time></trkpt><trkpt lat="39.77919787019216" lon="15.870012275576723"><ele>266.0</ele><time>2026-04-26T13:34:50.999Z</time></trkpt><trkpt lat="39.77907762433708" lon="15.86996376959078"><ele>263.0</ele><time>2026-04-26T13:34:51.999Z</time></trkpt><trkpt lat="39.778988852595425" lon="15.869909014145922"><ele>260.0</ele><time>2026-04-26T13:34:52.999Z</time></trkpt><trkpt lat="39.77891250937157" lon="15.869862610897197"><ele>257.0</ele><time>2026-04-26T13:34:53.999Z</time></trkpt><trkpt lat="39.77881663574952" lon="15.869828404242972"><ele>257.0</ele><time>2026-04-26T13:34:54.999Z</time></trkpt><trkpt lat="39.77872514233322" lon="15.86983375334297"><ele>257.0</ele><time>2026-04-26T13:34:55.998Z</time></trkpt><trkpt lat="39.778640821283375" lon="15.869856648864571"><ele>257.0</ele><time>2026-04-26T13:34:56.998Z</time></trkpt><trkpt lat="39.7785459764442" lon="15.869901288779316"><ele>257.0</ele><time>2026-04-26T13:34:57.998Z</time></trkpt><trkpt lat="39.778435971104315" lon="15.869973367078764"><ele>257.0</ele><time>2026-04-26T13:34:58.998Z</time></trkpt><trkpt lat="39.778303140082016" lon="15.87004485451452"><ele>256.75</ele><time>2026-04-26T13:34:59.998Z</time></trkpt><trkpt lat="39.77818384330754" lon="15.870102790415087"><ele>256.5</ele><time>2026-04-26T13:35:01Z</time></trkpt><trkpt lat="39.778081831314964" lon="15.870156472269292"><ele>256.25</ele><time>2026-04-26T13:35:02Z</time></trkpt><trkpt lat="39.77797472124977" lon="15.870227425576559"><ele>256.0</ele><time>2026-04-26T13:35:03Z</time></trkpt><trkpt lat="39.77787671984807" lon="15.870308855769023"><ele>256.0</ele><time>2026-04-26T13:35:04Z</time></trkpt><trkpt lat="39.77779901404013" lon="15.8703978074783"><ele>256.0</ele><time>2026-04-26T13:35:05Z</time></trkpt><trkpt lat="39.7777190980201" lon="15.870501453255995"><ele>256.0</ele><time>2026-04-26T13:35:06Z</time></trkpt><trkpt lat="39.7776340557558" lon="15.870600416677531"><ele>256.0</ele><time>2026-04-26T13:35:07Z</time></trkpt><trkpt lat="39.77754595571992" lon="15.870704467056914"><ele>256.0</ele><time>2026-04-26T13:35:08Z</time></trkpt><trkpt lat="39.77744680928304" lon="15.870816341276958"><ele>256.0</ele><time>2026-04-26T13:35:09Z</time></trkpt><trkpt lat="39.777354766756886" lon="15.870923733434177"><ele>256.0</ele><time>2026-04-26T13:35:10Z</time></trkpt><trkpt lat="39.777269243648504" lon="15.871008706775001"><ele>256.0</ele><time>2026-04-26T13:35:11Z</time></trkpt><trkpt lat="39.77718164966014" lon="15.87108281979791"><ele>256.0</ele><time>2026-04-26T13:35:12Z</time></trkpt><trkpt lat="39.77709452915657" lon="15.871145161564932"><ele>256.0</ele><time>2026-04-26T13:35:13Z</time></trkpt><trkpt lat="39.77702122712623" lon="15.87121319748966"><ele>255.14285714285714</ele><time>2026-04-26T13:35:14Z</time></trkpt><trkpt lat="39.77696371830115" lon="15.871265698231007"><ele>254.28571428571428</ele><time>2026-04-26T13:35:15Z</time></trkpt><trkpt lat="39.7769060255003" lon="15.871333075587122"><ele>253.42857142857142</ele><time>2026-04-26T13:35:16Z</time></trkpt><trkpt lat="39.77685431982405" lon="15.871406938185102"><ele>252.57142857142856</ele><time>2026-04-26T13:35:17Z</time></trkpt><trkpt lat="39.776815248453424" lon="15.871471513979793"><ele>251.71428571428572</ele><time>2026-04-26T13:35:18Z</time></trkpt><trkpt lat="39.77677130601322" lon="15.871538136767622"><ele>250.85714285714283</ele><time>2026-04-26T13:35:19Z</time></trkpt><trkpt lat="39.77671477297132" lon="15.871621575136281"><ele>250.0</ele><time>2026-04-26T13:35:20Z</time></trkpt><trkpt lat="39.77665379669948" lon="15.87170959032075"><ele>252.75</ele><time>2026-04-26T13:35:21Z</time></trkpt><trkpt lat="39.776578496521736" lon="15.871808443849629"><ele>255.5</ele><time>2026-04-26T13:35:22Z</time></trkpt><trkpt lat="39.77649122976709" lon="15.8719201919527"><ele>258.25</ele><time>2026-04-26T13:35:23Z</time></trkpt><trkpt lat="39.7763982961617" lon="15.87202943987564"><ele>261.0</ele><time>2026-04-26T13:35:24Z</time></trkpt><trkpt lat="39.776308934569755" lon="15.872122849669768"><ele>261.0</ele><time>2026-04-26T13:35:25Z</time></trkpt><trkpt lat="39.77620971346368" lon="15.872195041862094"><ele>261.0</ele><time>2026-04-26T13:35:26Z</time></trkpt><trkpt lat="39.77608539507079" lon="15.872256581617693"><ele>261.0</ele><time>2026-04-26T13:35:27Z</time></trkpt><trkpt lat="39.77594101757384" lon="15.872320925231367"><ele>261.0</ele><time>2026-04-26T13:35:28Z</time></trkpt><trkpt lat="39.775809455373356" lon="15.872369721730246"><ele>256.25</ele><time>2026-04-26T13:35:29Z</time></trkpt><trkpt lat="39.77569018364612" lon="15.872407099042155"><ele>251.5</ele><time>2026-04-26T13:35:30Z</time></trkpt><trkpt lat="39.77558308828745" lon="15.872448607165655"><ele>246.75</ele><time>2026-04-26T13:35:31Z</time></trkpt><trkpt lat="39.77547432296567" lon="15.872498976048519"><ele>242.0</ele><time>2026-04-26T13:35:31.999Z</time></trkpt><trkpt lat="39.77536183707146" lon="15.872571430209565"><ele>241.8</ele><time>2026-04-26T13:35:32.999Z</time></trkpt><trkpt lat="39.775266534257" lon="15.872627478454783"><ele>241.6</ele><time>2026-04-26T13:35:33.999Z</time></trkpt><trkpt lat="39.77517230902296" lon="15.872679187374832"><ele>241.40000000000003</ele><time>2026-04-26T13:35:34.999Z</time></trkpt><trkpt lat="39.77506818253323" lon="15.872737726837153"><ele>241.20000000000002</ele><time>2026-04-26T13:35:35.999Z</time></trkpt><trkpt lat="39.774971095977456" lon="15.872795929733133"><ele>241.0</ele><time>2026-04-26T13:35:36.999Z</time></trkpt><trkpt lat="39.77486894998163" lon="15.872878696715969"><ele>241.0</ele><time>2026-04-26T13:35:37.999Z</time></trkpt><trkpt lat="39.77476711359641" lon="15.872983878696616"><ele>241.0</ele><time>2026-04-26T13:35:38.999Z</time></trkpt><trkpt lat="39.7746682183871" lon="15.873115499911153"><ele>241.0</ele><time>2026-04-26T13:35:39.999Z</time></trkpt><trkpt lat="39.774588413074916" lon="15.873260431878517"><ele>241.0</ele><time>2026-04-26T13:35:40.999Z</time></trkpt><trkpt lat="39.77452778597114" lon="15.873402954477816"><ele>240.8</ele><time>2026-04-26T13:35:41.999Z</time></trkpt><trkpt lat="39.77446747671131" lon="15.873533108192124"><ele>240.60000000000002</ele><time>2026-04-26T13:35:42.999Z</time></trkpt><trkpt lat="39.77441134721244" lon="15.873632504581364"><ele>240.4</ele><time>2026-04-26T13:35:43.999Z</time></trkpt><trkpt lat="39.77435269429116" lon="15.87370224576275"><ele>240.2</ele><time>2026-04-26T13:35:44.999Z</time></trkpt><trkpt lat="39.77426284029339" lon="15.873773569336034"><ele>240.0</ele><time>2026-04-26T13:35:45.999Z</time></trkpt><trkpt lat="39.77415874352729" lon="15.873846695841326"><ele>240.0</ele><time>2026-04-26T13:35:46.999Z</time></trkpt><trkpt lat="39.7740466520259" lon="15.8739249718913"><ele>240.0</ele><time>2026-04-26T13:35:47.999Z</time></trkpt><trkpt lat="39.77393874765893" lon="15.874034035319632"><ele>240.0</ele><time>2026-04-26T13:35:48.999Z</time></trkpt><trkpt lat="39.77385392468872" lon="15.874157605360995"><ele>240.0</ele><time>2026-04-26T13:35:49.999Z</time></trkpt><trkpt lat="39.773781935918784" lon="15.874256406220223"><ele>241.0</ele><time>2026-04-26T13:35:50.999Z</time></trkpt><trkpt lat="39.77371249729081" lon="15.87432576980619"><ele>242.0</ele><time>2026-04-26T13:35:51.999Z</time></trkpt><trkpt lat="39.77362944592834" lon="15.874391679824933"><ele>243.0</ele><time>2026-04-26T13:35:52.999Z</time></trkpt><trkpt lat="39.77352691164075" lon="15.874435247250128"><ele>244.0</ele><time>2026-04-26T13:35:53.999Z</time></trkpt><trkpt lat="39.77340923517408" lon="15.874494740812237"><ele>245.0</ele><time>2026-04-26T13:35:54.999Z</time></trkpt><trkpt lat="39.77331000406086" lon="15.874562979603489"><ele>245.0</ele><time>2026-04-26T13:35:55.999Z</time></trkpt><trkpt lat="39.773213191260226" lon="15.874619378911994"><ele>245.0</ele><time>2026-04-26T13:35:56.999Z</time></trkpt><trkpt lat="39.77309704696826" lon="15.87465738834365"><ele>245.0</ele><time>2026-04-26T13:35:57.999Z</time></trkpt><trkpt lat="39.772977212779786" lon="15.874698160151333"><ele>245.0</ele><time>2026-04-26T13:35:58.999Z</time></trkpt><trkpt lat="39.77285947244065" lon="15.87475593855886"><ele>245.0</ele><time>2026-04-26T13:35:59.999Z</time></trkpt><trkpt lat="39.77275303026249" lon="15.874810448405322"><ele>245.0</ele><time>2026-04-26T13:36:00.999Z</time></trkpt><trkpt lat="39.77265008208947" lon="15.874896548620718"><ele>245.0</ele><time>2026-04-26T13:36:01.999Z</time></trkpt><trkpt lat="39.77255107007558" lon="15.874994502275761"><ele>245.0</ele><time>2026-04-26T13:36:02.999Z</time></trkpt><trkpt lat="39.772461211288004" lon="15.875094693060952"><ele>247.5</ele><time>2026-04-26T13:36:03.999Z</time></trkpt><trkpt lat="39.7723877599881" lon="15.87522094330947"><ele>250.0</ele><time>2026-04-26T13:36:04.999Z</time></trkpt><trkpt lat="39.7723176902244" lon="15.875354091963969"><ele>252.5</ele><time>2026-04-26T13:36:05.999Z</time></trkpt><trkpt lat="39.77224529341778" lon="15.875488022599638"><ele>255.0</ele><time>2026-04-26T13:36:06.999Z</time></trkpt><trkpt lat="39.77217382297078" lon="15.875625210777777"><ele>255.0</ele><time>2026-04-26T13:36:07.999Z</time></trkpt><trkpt lat="39.772108277985325" lon="15.875746609919569"><ele>255.0</ele><time>2026-04-26T13:36:08.999Z</time></trkpt><trkpt lat="39.77204469240477" lon="15.87585884679446"><ele>255.0</ele><time>2026-04-26T13:36:09.999Z</time></trkpt><trkpt lat="39.77198249278473" lon="15.875953760522405"><ele>255.0</ele><time>2026-04-26T13:36:10.999Z</time></trkpt><trkpt lat="39.771931411084886" lon="15.876037402729864"><ele>255.0</ele><time>2026-04-26T13:36:11.999Z</time></trkpt><trkpt lat="39.77186737266137" lon="15.876117351902366"><ele>252.16666666666666</ele><time>2026-04-26T13:36:12.999Z</time></trkpt><trkpt lat="39.77180900122705" lon="15.876186236617714"><ele>249.33333333333331</ele><time>2026-04-26T13:36:13.999Z</time></trkpt><trkpt lat="39.771763512225434" lon="15.876262449053188"><ele>246.5</ele><time>2026-04-26T13:36:14.999Z</time></trkpt><trkpt lat="39.7717297199604" lon="15.876344730500644"><ele>243.66666666666666</ele><time>2026-04-26T13:36:15.999Z</time></trkpt><trkpt lat="39.77168852393949" lon="15.876440949074873"><ele>240.83333333333331</ele><time>2026-04-26T13:36:16.999Z</time></trkpt><trkpt lat="39.77163197685899" lon="15.876559567765108"><ele>238.0</ele><time>2026-04-26T13:36:17.999Z</time></trkpt><trkpt lat="39.771580534648315" lon="15.876690792116353"><ele>238.75</ele><time>2026-04-26T13:36:18.999Z</time></trkpt><trkpt lat="39.771546615660405" lon="15.876826091148029"><ele>239.5</ele><time>2026-04-26T13:36:19.999Z</time></trkpt><trkpt lat="39.771523392400084" lon="15.876979309622437"><ele>240.25</ele><time>2026-04-26T13:36:20.999Z</time></trkpt><trkpt lat="39.77151147930971" lon="15.877143678945577"><ele>241.0</ele><time>2026-04-26T13:36:21.999Z</time></trkpt><trkpt lat="39.77152092386336" lon="15.87731153244702"><ele>241.0</ele><time>2026-04-26T13:36:22.999Z</time></trkpt><trkpt lat="39.77147190422901" lon="15.877468315159986"><ele>241.00000000000003</ele><time>2026-04-26T13:36:23.999Z</time></trkpt><trkpt lat="39.771470522638126" lon="15.877608014195099"><ele>241.00000000000003</ele><time>2026-04-26T13:36:24.999Z</time></trkpt><trkpt lat="39.77146360041141" lon="15.877744584659794"><ele>241.0</ele><time>2026-04-26T13:36:25.999Z</time></trkpt><trkpt lat="39.77145225003726" lon="15.877865149807963"><ele>241.0</ele><time>2026-04-26T13:36:26.999Z</time></trkpt><trkpt lat="39.77143290169949" lon="15.877976121339643"><ele>241.20000000000002</ele><time>2026-04-26T13:36:27.999Z</time></trkpt><trkpt lat="39.77139340009279" lon="15.878095561575627"><ele>241.40000000000003</ele><time>2026-04-26T13:36:28.999Z</time></trkpt><trkpt lat="39.77134223916885" lon="15.878236404719384"><ele>241.6</ele><time>2026-04-26T13:36:29.999Z</time></trkpt><trkpt lat="39.771290974160955" lon="15.878373601858964"><ele>241.8</ele><time>2026-04-26T13:36:30.999Z</time></trkpt><trkpt lat="39.77125004257627" lon="15.87850365435814"><ele>242.0</ele><time>2026-04-26T13:36:31.999Z</time></trkpt><trkpt lat="39.77121775722802" lon="15.878614066452988"><ele>243.16666666666669</ele><time>2026-04-26T13:36:32.999Z</time></trkpt><trkpt lat="39.77118821032261" lon="15.878715113411575"><ele>244.33333333333334</ele><time>2026-04-26T13:36:33.999Z</time></trkpt><trkpt lat="39.77115476380522" lon="15.878829989794525"><ele>245.5</ele><time>2026-04-26T13:36:35.999Z</time></trkpt><trkpt lat="39.771060614535" lon="15.878871895987993"><ele>246.66666666666669</ele><time>2026-04-26T13:36:37.999Z</time></trkpt><trkpt lat="39.770975329474986" lon="15.878833615460358"><ele>247.83333333333334</ele><time>2026-04-26T13:36:38.999Z</time></trkpt><trkpt lat="39.77093540797905" lon="15.878742081462912"><ele>249.0</ele><time>2026-04-26T13:36:39.999Z</time></trkpt><trkpt lat="39.77091029305816" lon="15.878651228747243"><ele>249.0</ele><time>2026-04-26T13:36:40.999Z</time></trkpt><trkpt lat="39.77088455405859" lon="15.87852227019151"><ele>248.99999999999997</ele><time>2026-04-26T13:36:41.999Z</time></trkpt><trkpt lat="39.77086836645016" lon="15.878382526097734"><ele>248.99999999999997</ele><time>2026-04-26T13:36:42.999Z</time></trkpt><trkpt lat="39.77086567517626" lon="15.878258085624132"><ele>249.0</ele><time>2026-04-26T13:36:43.999Z</time></trkpt><trkpt lat="39.77087070175324" lon="15.878149543364682"><ele>249.0</ele><time>2026-04-26T13:36:44.999Z</time></trkpt><trkpt lat="39.77085767230069" lon="15.87802552414366"><ele>247.79999999999998</ele><time>2026-04-26T13:36:45.999Z</time></trkpt><trkpt lat="39.77082440238035" lon="15.87787897444212"><ele>246.59999999999997</ele><time>2026-04-26T13:36:46.999Z</time></trkpt><trkpt lat="39.77078250913949" lon="15.877738967084616"><ele>245.4</ele><time>2026-04-26T13:36:47.999Z</time></trkpt><trkpt lat="39.770733975168355" lon="15.877608407922294"><ele>244.2</ele><time>2026-04-26T13:36:48.999Z</time></trkpt><trkpt lat="39.770683652489495" lon="15.877501970257144"><ele>243.0</ele><time>2026-04-26T13:36:49.999Z</time></trkpt><trkpt lat="39.77062302295465" lon="15.877408387168419"><ele>240.8</ele><time>2026-04-26T13:36:50.999Z</time></trkpt><trkpt lat="39.770537300543296" lon="15.87731214624726"><ele>238.60000000000002</ele><time>2026-04-26T13:36:51.999Z</time></trkpt><trkpt lat="39.770471247159534" lon="15.877224327677114"><ele>236.39999999999998</ele><time>2026-04-26T13:36:52.999Z</time></trkpt><trkpt lat="39.770427556728514" lon="15.877133071359005"><ele>234.2</ele><time>2026-04-26T13:36:53.999Z</time></trkpt><trkpt lat="39.7704087460243" lon="15.877016052777549"><ele>232.0</ele><time>2026-04-26T13:36:54.999Z</time></trkpt><trkpt lat="39.77037796386648" lon="15.87687266490623"><ele>230.16666666666666</ele><time>2026-04-26T13:36:55.998Z</time></trkpt><trkpt lat="39.77035422419367" lon="15.87674908450077"><ele>228.33333333333331</ele><time>2026-04-26T13:36:56.998Z</time></trkpt><trkpt lat="39.770311082188364" lon="15.876660127808673"><ele>226.5</ele><time>2026-04-26T13:36:57.998Z</time></trkpt><trkpt lat="39.77028993018465" lon="15.876569468798293"><ele>224.66666666666669</ele><time>2026-04-26T13:36:58.998Z</time></trkpt><trkpt lat="39.77025753007104" lon="15.876477671412815"><ele>222.83333333333334</ele><time>2026-04-26T13:36:59.998Z</time></trkpt><trkpt lat="39.770195399134955" lon="15.876376747642423"><ele>221.0</ele><time>2026-04-26T13:37:00.998Z</time></trkpt><trkpt lat="39.77012213644292" lon="15.876286064295652"><ele>225.8</ele><time>2026-04-26T13:37:01.998Z</time></trkpt><trkpt lat="39.77004626774251" lon="15.876215038589482"><ele>230.60000000000002</ele><time>2026-04-26T13:37:02.998Z</time></trkpt><trkpt lat="39.769962506063976" lon="15.876139380649084"><ele>235.4</ele><time>2026-04-26T13:37:03.998Z</time></trkpt><trkpt lat="39.769864656197655" lon="15.876104891214656"><ele>240.2</ele><time>2026-04-26T13:37:04.998Z</time></trkpt><trkpt lat="39.76981053304617" lon="15.876029111206948"><ele>245.0</ele><time>2026-04-26T13:37:05.998Z</time></trkpt><trkpt lat="39.76976976183504" lon="15.875946290914216"><ele>242.5</ele><time>2026-04-26T13:37:07Z</time></trkpt><trkpt lat="39.76972921891439" lon="15.875840237742587"><ele>240.0</ele><time>2026-04-26T13:37:08Z</time></trkpt><trkpt lat="39.7697054596684" lon="15.875697504521384"><ele>237.5</ele><time>2026-04-26T13:37:09Z</time></trkpt><trkpt lat="39.76968076520304" lon="15.875543062496057"><ele>235.0</ele><time>2026-04-26T13:37:10Z</time></trkpt><trkpt lat="39.76965336671529" lon="15.875371381798974"><ele>235.0</ele><time>2026-04-26T13:37:11Z</time></trkpt><trkpt lat="39.76963039060897" lon="15.87521851771062"><ele>235.0</ele><time>2026-04-26T13:37:12Z</time></trkpt><trkpt lat="39.769607677543114" lon="15.875093157805429"><ele>235.0</ele><time>2026-04-26T13:37:13Z</time></trkpt><trkpt lat="39.76959185264768" lon="15.874988311623001"><ele>235.0</ele><time>2026-04-26T13:37:14Z</time></trkpt><trkpt lat="39.76956833580672" lon="15.874877977521779"><ele>235.0</ele><time>2026-04-26T13:37:15Z</time></trkpt><trkpt lat="39.76954777673903" lon="15.874755985378552"><ele>235.16666666666666</ele><time>2026-04-26T13:37:16Z</time></trkpt><trkpt lat="39.76952936045519" lon="15.874631162594087"><ele>235.33333333333331</ele><time>2026-04-26T13:37:17Z</time></trkpt><trkpt lat="39.76950798313005" lon="15.8745177420981"><ele>235.5</ele><time>2026-04-26T13:37:18Z</time></trkpt><trkpt lat="39.76948674385924" lon="15.874427026730247"><ele>235.66666666666669</ele><time>2026-04-26T13:37:19Z</time></trkpt><trkpt lat="39.769445048924524" lon="15.874358004448688"><ele>235.83333333333334</ele><time>2026-04-26T13:37:20Z</time></trkpt><trkpt lat="39.76938899552649" lon="15.874305249689815"><ele>236.0</ele><time>2026-04-26T13:37:21Z</time></trkpt><trkpt lat="39.76932949630025" lon="15.874253405818319"><ele>240.20000000000002</ele><time>2026-04-26T13:37:22Z</time></trkpt><trkpt lat="39.769252552825435" lon="15.8742156664918"><ele>244.40000000000003</ele><time>2026-04-26T13:37:23Z</time></trkpt><trkpt lat="39.76915681726593" lon="15.874167649965276"><ele>248.6</ele><time>2026-04-26T13:37:24Z</time></trkpt><trkpt lat="39.76907172333908" lon="15.874121853573191"><ele>252.8</ele><time>2026-04-26T13:37:25Z</time></trkpt><trkpt lat="39.768975217340014" lon="15.874074390465065"><ele>257.0</ele><time>2026-04-26T13:37:26Z</time></trkpt><trkpt lat="39.768865190661" lon="15.874035756537921"><ele>257.0</ele><time>2026-04-26T13:37:27Z</time></trkpt><trkpt lat="39.76875476185841" lon="15.873998793386441"><ele>257.0</ele><time>2026-04-26T13:37:28Z</time></trkpt><trkpt lat="39.76864514311209" lon="15.87394319156041"><ele>257.0</ele><time>2026-04-26T13:37:29Z</time></trkpt><trkpt lat="39.76855072401516" lon="15.873914842297202"><ele>257.0</ele><time>2026-04-26T13:37:30Z</time></trkpt><trkpt lat="39.768441770317224" lon="15.873902813141664"><ele>257.0</ele><time>2026-04-26T13:37:31Z</time></trkpt><trkpt lat="39.768324826633716" lon="15.873891566725094"><ele>259.2</ele><time>2026-04-26T13:37:32Z</time></trkpt><trkpt lat="39.76821461574912" lon="15.87387129599632"><ele>261.4</ele><time>2026-04-26T13:37:33Z</time></trkpt><trkpt lat="39.768081087328056" lon="15.873847199652438"><ele>263.6</ele><time>2026-04-26T13:37:34Z</time></trkpt><trkpt lat="39.76798957360798" lon="15.873846202169554"><ele>265.8</ele><time>2026-04-26T13:37:34.999Z</time></trkpt><trkpt lat="39.767921926969834" lon="15.873859184181953"><ele>268.0</ele><time>2026-04-26T13:37:35.999Z</time></trkpt><trkpt lat="39.76784719297338" lon="15.873907579416104"><ele>268.0</ele><time>2026-04-26T13:37:36.999Z</time></trkpt><trkpt lat="39.767753763461954" lon="15.873951945759172"><ele>268.0</ele><time>2026-04-26T13:37:37.999Z</time></trkpt><trkpt lat="39.767662533529894" lon="15.87393549150251"><ele>268.0</ele><time>2026-04-26T13:37:38.999Z</time></trkpt><trkpt lat="39.76756285334905" lon="15.873873217417296"><ele>268.0</ele><time>2026-04-26T13:37:39.999Z</time></trkpt><trkpt lat="39.767444130939126" lon="15.873786114353566"><ele>268.0</ele><time>2026-04-26T13:37:40.999Z</time></trkpt><trkpt lat="39.767318549802255" lon="15.873661666271175"><ele>267.2</ele><time>2026-04-26T13:37:41.999Z</time></trkpt><trkpt lat="39.76719577059823" lon="15.873550609787094"><ele>266.4</ele><time>2026-04-26T13:37:42.999Z</time></trkpt><trkpt lat="39.76711077420835" lon="15.87348504440734"><ele>265.59999999999997</ele><time>2026-04-26T13:37:43.999Z</time></trkpt><trkpt lat="39.76704408110857" lon="15.873445395816564"><ele>264.8</ele><time>2026-04-26T13:37:44.999Z</time></trkpt><trkpt lat="39.76697874517545" lon="15.873438735582246"><ele>264.0</ele><time>2026-04-26T13:37:45.999Z</time></trkpt><trkpt lat="39.766913406112344" lon="15.873476836694735"><ele>267.8</ele><time>2026-04-26T13:37:46.999Z</time></trkpt><trkpt lat="39.76685497729643" lon="15.873556754510107"><ele>271.59999999999997</ele><time>2026-04-26T13:37:47.999Z</time></trkpt><trkpt lat="39.76679903473945" lon="15.873692422933713"><ele>275.4</ele><time>2026-04-26T13:37:48.999Z</time></trkpt><trkpt lat="39.766730235422195" lon="15.87383203382348"><ele>279.2</ele><time>2026-04-26T13:37:49.999Z</time></trkpt><trkpt lat="39.76665589405415" lon="15.873952326544876"><ele>283.0</ele><time>2026-04-26T13:37:50.999Z</time></trkpt><trkpt lat="39.76658975049287" lon="15.874073461432724"><ele>283.0</ele><time>2026-04-26T13:37:51.999Z</time></trkpt><trkpt lat="39.76651908447285" lon="15.874208846134456"><ele>283.0</ele><time>2026-04-26T13:37:52.999Z</time></trkpt><trkpt lat="39.766466464249476" lon="15.87433477137816"><ele>283.0</ele><time>2026-04-26T13:37:53.999Z</time></trkpt><trkpt lat="39.766414676768854" lon="15.874465874558172"><ele>283.0</ele><time>2026-04-26T13:37:54.999Z</time></trkpt><trkpt lat="39.766365446750854" lon="15.874609288682343"><ele>286.25</ele><time>2026-04-26T13:37:55.999Z</time></trkpt><trkpt lat="39.76632105982488" lon="15.8747608438721"><ele>289.5</ele><time>2026-04-26T13:37:56.999Z</time></trkpt><trkpt lat="39.76627597851892" lon="15.874906935449644"><ele>292.75</ele><time>2026-04-26T13:37:57.999Z</time></trkpt><trkpt lat="39.76622458039596" lon="15.875062099442273"><ele>296.0</ele><time>2026-04-26T13:37:58.999Z</time></trkpt><trkpt lat="39.76618123806288" lon="15.875199573555154"><ele>298.0</ele><time>2026-04-26T13:37:59.999Z</time></trkpt><trkpt lat="39.76614328899315" lon="15.875312107163035"><ele>300.0</ele><time>2026-04-26T13:38:00.999Z</time></trkpt><trkpt lat="39.766104392821354" lon="15.87540971053269"><ele>302.0</ele><time>2026-04-26T13:38:01.999Z</time></trkpt><trkpt lat="39.76607072761847" lon="15.875501131359046"><ele>304.0</ele><time>2026-04-26T13:38:02.999Z</time></trkpt><trkpt lat="39.766034872923875" lon="15.875583528113"><ele>306.0</ele><time>2026-04-26T13:38:03.999Z</time></trkpt><trkpt lat="39.76603252431527" lon="15.87570871565354"><ele>308.0</ele><time>2026-04-26T13:38:05.999Z</time></trkpt><trkpt lat="39.76611105487954" lon="15.875749545636934"><ele>308.0</ele><time>2026-04-26T13:38:07.999Z</time></trkpt><trkpt lat="39.7662273641125" lon="15.875737794541266"><ele>308.0</ele><time>2026-04-26T13:38:09.999Z</time></trkpt><trkpt lat="39.766346860367584" lon="15.875714445094387"><ele>308.0</ele><time>2026-04-26T13:38:11.999Z</time></trkpt><trkpt lat="39.766428450284195" lon="15.87572025761127"><ele>308.0</ele><time>2026-04-26T13:38:12.999Z</time></trkpt><trkpt lat="39.76651930565268" lon="15.87572482042335"><ele>308.0</ele><time>2026-04-26T13:38:13.999Z</time></trkpt><trkpt lat="39.76661950416881" lon="15.875755957397256"><ele>308.0</ele><time>2026-04-26T13:38:14.999Z</time></trkpt><trkpt lat="39.76670972482844" lon="15.875796525750655"><ele>308.0</ele><time>2026-04-26T13:38:15.999Z</time></trkpt><trkpt lat="39.76680108778456" lon="15.87584396317546"><ele>308.0</ele><time>2026-04-26T13:38:16.999Z</time></trkpt><trkpt lat="39.766876753684144" lon="15.87588861434852"><ele>308.0</ele><time>2026-04-26T13:38:17.999Z</time></trkpt><trkpt lat="39.766940743377106" lon="15.87593479572483"><ele>308.0</ele><time>2026-04-26T13:38:18.999Z</time></trkpt><trkpt lat="39.7669770404219" lon="15.87601502874845"><ele>308.0</ele><time>2026-04-26T13:38:19.999Z</time></trkpt><trkpt lat="39.76697958337523" lon="15.8761010318518"><ele>309.1666666666667</ele><time>2026-04-26T13:38:20.999Z</time></trkpt><trkpt lat="39.766951431000834" lon="15.876180897374836"><ele>310.33333333333337</ele><time>2026-04-26T13:38:21.999Z</time></trkpt><trkpt lat="39.76689799364859" lon="15.876239306648754"><ele>311.5</ele><time>2026-04-26T13:38:22.999Z</time></trkpt><trkpt lat="39.76682753003518" lon="15.876298141409052"><ele>312.6666666666667</ele><time>2026-04-26T13:38:23.999Z</time></trkpt><trkpt lat="39.76674481965256" lon="15.876377171594946"><ele>313.8333333333333</ele><time>2026-04-26T13:38:24.999Z</time></trkpt><trkpt lat="39.76665883427851" lon="15.876463103349485"><ele>315.0</ele><time>2026-04-26T13:38:25.999Z</time></trkpt><trkpt lat="39.76654876492009" lon="15.87657775693813"><ele>317.25</ele><time>2026-04-26T13:38:26.999Z</time></trkpt><trkpt lat="39.766452011077405" lon="15.876690885054705"><ele>319.5</ele><time>2026-04-26T13:38:27.999Z</time></trkpt><trkpt lat="39.766361629196666" lon="15.87679889860696"><ele>321.75</ele><time>2026-04-26T13:38:28.999Z</time></trkpt><trkpt lat="39.76626770973657" lon="15.876951197969774"><ele>324.0</ele><time>2026-04-26T13:38:29.999Z</time></trkpt><trkpt lat="39.76617649044241" lon="15.877119862082148"><ele>324.0</ele><time>2026-04-26T13:38:30.999Z</time></trkpt><trkpt lat="39.76608276755751" lon="15.877306379920801"><ele>324.0</ele><time>2026-04-26T13:38:31.999Z</time></trkpt><trkpt lat="39.76598278293843" lon="15.877471288592634"><ele>324.0</ele><time>2026-04-26T13:38:32.999Z</time></trkpt><trkpt lat="39.76586989711423" lon="15.877632412874236"><ele>329.3333333333333</ele><time>2026-04-26T13:38:33.999Z</time></trkpt><trkpt lat="39.76574232936266" lon="15.877812503749654"><ele>334.66666666666663</ele><time>2026-04-26T13:38:34.999Z</time></trkpt><trkpt lat="39.765624711447295" lon="15.877969376927998"><ele>340.0</ele><time>2026-04-26T13:38:35.999Z</time></trkpt><trkpt lat="39.76553419853274" lon="15.878089251412195"><ele>340.0</ele><time>2026-04-26T13:38:36.999Z</time></trkpt><trkpt lat="39.76545382835815" lon="15.87819773605279"><ele>340.0</ele><time>2026-04-26T13:38:37.999Z</time></trkpt><trkpt lat="39.76536345006201" lon="15.87832718318797"><ele>340.0</ele><time>2026-04-26T13:38:38.999Z</time></trkpt><trkpt lat="39.76527796237444" lon="15.87844786919605"><ele>340.0</ele><time>2026-04-26T13:38:39.999Z</time></trkpt><trkpt lat="39.765193989930346" lon="15.878554451717228"><ele>340.5</ele><time>2026-04-26T13:38:40.999Z</time></trkpt><trkpt lat="39.76511392386199" lon="15.878656132644796"><ele>341.0</ele><time>2026-04-26T13:38:41.999Z</time></trkpt><trkpt lat="39.7650342656514" lon="15.878760406620303"><ele>341.5</ele><time>2026-04-26T13:38:42.999Z</time></trkpt><trkpt lat="39.76494982760573" lon="15.87886339635587"><ele>342.0</ele><time>2026-04-26T13:38:43.999Z</time></trkpt><trkpt lat="39.76487054582932" lon="15.878976487833723"><ele>342.0</ele><time>2026-04-26T13:38:44.999Z</time></trkpt><trkpt lat="39.76477935262614" lon="15.879102950306493"><ele>342.0</ele><time>2026-04-26T13:38:45.999Z</time></trkpt><trkpt lat="39.76472459539991" lon="15.87921937335165"><ele>342.0</ele><time>2026-04-26T13:38:46.999Z</time></trkpt><trkpt lat="39.764675178976375" lon="15.879337772703522"><ele>342.0</ele><time>2026-04-26T13:38:47.999Z</time></trkpt><trkpt lat="39.764619046247375" lon="15.879454237946145"><ele>342.0</ele><time>2026-04-26T13:38:48.999Z</time></trkpt><trkpt lat="39.76456121476395" lon="15.879544512086236"><ele>343.3333333333333</ele><time>2026-04-26T13:38:49.999Z</time></trkpt><trkpt lat="39.76451783994502" lon="15.87963644558482"><ele>344.6666666666667</ele><time>2026-04-26T13:38:50.999Z</time></trkpt><trkpt lat="39.76447928041448" lon="15.879720855429683"><ele>346.0</ele><time>2026-04-26T13:38:51.999Z</time></trkpt><trkpt lat="39.76442912846309" lon="15.879773722119642"><ele>347.33333333333337</ele><time>2026-04-26T13:38:52.999Z</time></trkpt><trkpt lat="39.764360123946034" lon="15.879794964516817"><ele>348.6666666666667</ele><time>2026-04-26T13:38:53.999Z</time></trkpt><trkpt lat="39.76427539273476" lon="15.879810223931377"><ele>350.0</ele><time>2026-04-26T13:38:54.999Z</time></trkpt><trkpt lat="39.76419079730018" lon="15.879803190810787"><ele>350.0</ele><time>2026-04-26T13:38:55.999Z</time></trkpt><trkpt lat="39.76411081736173" lon="15.8797950926293"><ele>350.0</ele><time>2026-04-26T13:38:56.999Z</time></trkpt><trkpt lat="39.76402912253315" lon="15.879801682287642"><ele>350.0</ele><time>2026-04-26T13:38:57.999Z</time></trkpt><trkpt lat="39.763951159319404" lon="15.879815060930273"><ele>350.0</ele><time>2026-04-26T13:38:58.999Z</time></trkpt><trkpt lat="39.76387484520421" lon="15.879856752725559"><ele>350.0</ele><time>2026-04-26T13:38:59.999Z</time></trkpt><trkpt lat="39.76380964937705" lon="15.879947274942117"><ele>350.0</ele><time>2026-04-26T13:39:00.998Z</time></trkpt><trkpt lat="39.76378333452991" lon="15.880084822296554"><ele>353.0</ele><time>2026-04-26T13:39:01.998Z</time></trkpt><trkpt lat="39.763771519709174" lon="15.880235745691419"><ele>356.0</ele><time>2026-04-26T13:39:02.998Z</time></trkpt><trkpt lat="39.763756628592276" lon="15.880363548446512"><ele>359.0</ele><time>2026-04-26T13:39:03.998Z</time></trkpt><trkpt lat="39.763736156015355" lon="15.8804719032068"><ele>362.0</ele><time>2026-04-26T13:39:04.998Z</time></trkpt><trkpt lat="39.763704886071324" lon="15.88054357896838"><ele>365.0</ele><time>2026-04-26T13:39:05.998Z</time></trkpt><trkpt lat="39.76358516977041" lon="15.880609592772185"><ele>364.5</ele><time>2026-04-26T13:39:07.998Z</time></trkpt><trkpt lat="39.76351467184532" lon="15.880593290361551"><ele>364.0</ele><time>2026-04-26T13:39:08.998Z</time></trkpt><trkpt lat="39.763458750298575" lon="15.880552006803581"><ele>363.5</ele><time>2026-04-26T13:39:09.998Z</time></trkpt><trkpt lat="39.76337254074199" lon="15.880485383497993"><ele>363.0</ele><time>2026-04-26T13:39:11.998Z</time></trkpt><trkpt lat="39.763277713816926" lon="15.88044951307069"><ele>362.5</ele><time>2026-04-26T13:41:10.998Z</time></trkpt><trkpt lat="39.763180314952926" lon="15.88044312320011"><ele>362.0</ele><time>2026-04-26T13:41:12.998Z</time></trkpt><trkpt lat="39.76308006739251" lon="15.880532245526751"><ele>362.0</ele><time>2026-04-26T13:41:14.998Z</time></trkpt><trkpt lat="39.76304955114369" lon="15.880604967851903"><ele>362.0</ele><time>2026-04-26T13:41:15.998Z</time></trkpt><trkpt lat="39.76298204650506" lon="15.880725157321878"><ele>362.0</ele><time>2026-04-26T13:41:17.998Z</time></trkpt><trkpt lat="39.76300576886745" lon="15.880836959894458"><ele>362.0</ele><time>2026-04-26T13:41:19Z</time></trkpt><trkpt lat="39.763075021794585" lon="15.880925245658185"><ele>362.0</ele><time>2026-04-26T13:41:20Z</time></trkpt><trkpt lat="39.763151094793486" lon="15.880975180621846"><ele>362.0</ele><time>2026-04-26T13:41:21Z</time></trkpt><trkpt lat="39.76320780630469" lon="15.881026331579026"><ele>365.33333333333337</ele><time>2026-04-26T13:41:22Z</time></trkpt><trkpt lat="39.763288674946715" lon="15.881098539371663"><ele>368.6666666666667</ele><time>2026-04-26T13:41:24Z</time></trkpt><trkpt lat="39.76335569503242" lon="15.881158122217066"><ele>372.0</ele><time>2026-04-26T13:41:25Z</time></trkpt><trkpt lat="39.76347308818961" lon="15.88113623561443"><ele>375.3333333333333</ele><time>2026-04-26T13:41:26Z</time></trkpt><trkpt lat="39.76353078081807" lon="15.881195696544097"><ele>378.66666666666663</ele><time>2026-04-26T13:41:27Z</time></trkpt><trkpt lat="39.76358325954278" lon="15.8812461377631"><ele>382.0</ele><time>2026-04-26T13:41:28Z</time></trkpt><trkpt lat="39.76364195749189" lon="15.88130025819627"><ele>382.0</ele><time>2026-04-26T13:41:29Z</time></trkpt><trkpt lat="39.76370093687722" lon="15.881349610859123"><ele>382.0</ele><time>2026-04-26T13:41:30Z</time></trkpt><trkpt lat="39.76376518630261" lon="15.881403547064593"><ele>382.0</ele><time>2026-04-26T13:41:31Z</time></trkpt><trkpt lat="39.76383015268522" lon="15.88145865017768"><ele>382.0</ele><time>2026-04-26T13:41:32Z</time></trkpt><trkpt lat="39.7638998032943" lon="15.881522295666915"><ele>382.0</ele><time>2026-04-26T13:41:33Z</time></trkpt><trkpt lat="39.76397529672441" lon="15.881587503819842"><ele>382.0</ele><time>2026-04-26T13:41:34Z</time></trkpt><trkpt lat="39.76404774798518" lon="15.881647248409193"><ele>382.0</ele><time>2026-04-26T13:41:35Z</time></trkpt><trkpt lat="39.76413395964001" lon="15.881711555922907"><ele>382.0</ele><time>2026-04-26T13:41:36Z</time></trkpt><trkpt lat="39.76422650931577" lon="15.881787466237371"><ele>382.0</ele><time>2026-04-26T13:41:37Z</time></trkpt><trkpt lat="39.76431680801662" lon="15.881861227937033"><ele>382.0</ele><time>2026-04-26T13:41:38Z</time></trkpt><trkpt lat="39.76440410786244" lon="15.881922380071138"><ele>382.0</ele><time>2026-04-26T13:41:39Z</time></trkpt><trkpt lat="39.764495604097384" lon="15.881964578437566"><ele>386.0</ele><time>2026-04-26T13:41:40Z</time></trkpt><trkpt lat="39.76458896720534" lon="15.881994483018529"><ele>390.0</ele><time>2026-04-26T13:41:41Z</time></trkpt><trkpt lat="39.76467741255482" lon="15.882015779785826"><ele>394.0</ele><time>2026-04-26T13:41:42Z</time></trkpt><trkpt lat="39.76475053697266" lon="15.882010140603269"><ele>398.0</ele><time>2026-04-26T13:41:43Z</time></trkpt><trkpt lat="39.76482402273013" lon="15.881996136275136"><ele>402.00000000000006</ele><time>2026-04-26T13:41:44Z</time></trkpt><trkpt lat="39.764915949045836" lon="15.881982496165234"><ele>406.0</ele><time>2026-04-26T13:41:45Z</time></trkpt><trkpt lat="39.76500937545721" lon="15.881959798443871"><ele>406.0</ele><time>2026-04-26T13:41:46Z</time></trkpt><trkpt lat="39.76511096379912" lon="15.881944014468504"><ele>406.0</ele><time>2026-04-26T13:41:47Z</time></trkpt><trkpt lat="39.765227139681166" lon="15.881947794990907"><ele>406.0</ele><time>2026-04-26T13:41:48Z</time></trkpt><trkpt lat="39.765340134717455" lon="15.881967416229267"><ele>406.0</ele><time>2026-04-26T13:41:49Z</time></trkpt><trkpt lat="39.76546047852299" lon="15.88197475467937"><ele>408.20000000000005</ele><time>2026-04-26T13:41:49.999Z</time></trkpt><trkpt lat="39.76556470200196" lon="15.881973664808976"><ele>410.40000000000003</ele><time>2026-04-26T13:41:50.999Z</time></trkpt><trkpt lat="39.7656495534223" lon="15.881963487924414"><ele>412.6</ele><time>2026-04-26T13:41:51.999Z</time></trkpt><trkpt lat="39.765750249965606" lon="15.88195680606213"><ele>414.8</ele><time>2026-04-26T13:41:52.999Z</time></trkpt><trkpt lat="39.76588336653754" lon="15.881955831351094"><ele>417.0</ele><time>2026-04-26T13:41:53.999Z</time></trkpt><trkpt lat="39.76602542711055" lon="15.881959067983605"><ele>419.66666666666663</ele><time>2026-04-26T13:41:54.999Z</time></trkpt><trkpt lat="39.766168989918405" lon="15.881954161048679"><ele>422.3333333333333</ele><time>2026-04-26T13:41:55.999Z</time></trkpt><trkpt lat="39.766327370466435" lon="15.881946870263095"><ele>425.0</ele><time>2026-04-26T13:41:56.999Z</time></trkpt><trkpt lat="39.766480317739976" lon="15.881938028885088"><ele>425.0</ele><time>2026-04-26T13:41:57.999Z</time></trkpt><trkpt lat="39.76662929682632" lon="15.88191971135178"><ele>425.0</ele><time>2026-04-26T13:41:58.999Z</time></trkpt><trkpt lat="39.76675190874997" lon="15.881899370969855"><ele>425.0</ele><time>2026-04-26T13:41:59.999Z</time></trkpt><trkpt lat="39.76684919915457" lon="15.881882597787685"><ele>425.0</ele><time>2026-04-26T13:42:00.999Z</time></trkpt><trkpt lat="39.76692658492106" lon="15.881882721723155"><ele>425.0</ele><time>2026-04-26T13:42:01.999Z</time></trkpt><trkpt lat="39.76700106236418" lon="15.881904598656742"><ele>422.2</ele><time>2026-04-26T13:42:02.999Z</time></trkpt><trkpt lat="39.767074379399716" lon="15.881964307869653"><ele>419.4</ele><time>2026-04-26T13:42:03.999Z</time></trkpt><trkpt lat="39.76712731712245" lon="15.882069662905833"><ele>416.6</ele><time>2026-04-26T13:42:04.999Z</time></trkpt><trkpt lat="39.767163858676746" lon="15.882207940991568"><ele>413.8</ele><time>2026-04-26T13:42:05.999Z</time></trkpt><trkpt lat="39.7671691848275" lon="15.882357132978678"><ele>411.0</ele><time>2026-04-26T13:42:06.999Z</time></trkpt><trkpt lat="39.76714422483838" lon="15.882504890625398"><ele>413.0</ele><time>2026-04-26T13:42:07.999Z</time></trkpt><trkpt lat="39.767113762601085" lon="15.882625089940186"><ele>415.0</ele><time>2026-04-26T13:42:08.999Z</time></trkpt><trkpt lat="39.76708671941536" lon="15.882742650605202"><ele>417.0</ele><time>2026-04-26T13:42:09.999Z</time></trkpt><trkpt lat="39.76705590648275" lon="15.882881086967465"><ele>419.0</ele><time>2026-04-26T13:42:10.999Z</time></trkpt><trkpt lat="39.76703391909162" lon="15.883004200446676"><ele>421.0</ele><time>2026-04-26T13:42:11.999Z</time></trkpt><trkpt lat="39.76698421843995" lon="15.883131060718117"><ele>421.0</ele><time>2026-04-26T13:42:13.999Z</time></trkpt><trkpt lat="39.766862286826" lon="15.88314887583344"><ele>421.0</ele><time>2026-04-26T13:42:15.999Z</time></trkpt><trkpt lat="39.76677615051533" lon="15.883086483773349"><ele>421.0</ele><time>2026-04-26T13:42:16.999Z</time></trkpt><trkpt lat="39.76668322357578" lon="15.883044137015"><ele>421.0</ele><time>2026-04-26T13:42:17.999Z</time></trkpt><trkpt lat="39.76660235329958" lon="15.883056412073563"><ele>421.0</ele><time>2026-04-26T13:42:18.999Z</time></trkpt><trkpt lat="39.76656000499509" lon="15.883184395332698"><ele>424.1666666666667</ele><time>2026-04-26T13:42:20.999Z</time></trkpt><trkpt lat="39.76658404114323" lon="15.883276454676208"><ele>427.33333333333337</ele><time>2026-04-26T13:42:21.999Z</time></trkpt><trkpt lat="39.76661996619164" lon="15.883363663160027"><ele>430.5</ele><time>2026-04-26T13:42:22.999Z</time></trkpt><trkpt lat="39.766567475927864" lon="15.88348005899037"><ele>433.66666666666663</ele><time>2026-04-26T13:42:24.999Z</time></trkpt><trkpt lat="39.76647870247289" lon="15.883514126028146"><ele>436.8333333333333</ele><time>2026-04-26T13:42:26.999Z</time></trkpt><trkpt lat="39.76638850046135" lon="15.883526737916105"><ele>440.0</ele><time>2026-04-26T13:42:27.999Z</time></trkpt><trkpt lat="39.766284618062215" lon="15.883541126178798"><ele>440.6</ele><time>2026-04-26T13:42:28.999Z</time></trkpt><trkpt lat="39.76621037144742" lon="15.883581732010555"><ele>441.2</ele><time>2026-04-26T13:42:29.999Z</time></trkpt><trkpt lat="39.766164455821844" lon="15.88365755478624"><ele>441.79999999999995</ele><time>2026-04-26T13:42:30.999Z</time></trkpt><trkpt lat="39.76613421794827" lon="15.883798028229528"><ele>442.4</ele><time>2026-04-26T13:42:31.999Z</time></trkpt><trkpt lat="39.76608673918747" lon="15.883962787636603"><ele>443.0</ele><time>2026-04-26T13:42:32.999Z</time></trkpt><trkpt lat="39.76600134675836" lon="15.884113869475382"><ele>445.25</ele><time>2026-04-26T13:42:33.999Z</time></trkpt><trkpt lat="39.76591224541947" lon="15.884240004178134"><ele>447.5</ele><time>2026-04-26T13:42:34.999Z</time></trkpt><trkpt lat="39.76582681844557" lon="15.884344685611628"><ele>449.75</ele><time>2026-04-26T13:42:35.999Z</time></trkpt><trkpt lat="39.76573207832876" lon="15.884431792682792"><ele>452.0</ele><time>2026-04-26T13:42:36.999Z</time></trkpt><trkpt lat="39.765621984926376" lon="15.88452255513318"><ele>452.75</ele><time>2026-04-26T13:42:37.999Z</time></trkpt><trkpt lat="39.765491991476665" lon="15.884616947695836"><ele>453.5</ele><time>2026-04-26T13:42:38.999Z</time></trkpt><trkpt lat="39.765356439181225" lon="15.884706992315541"><ele>454.25</ele><time>2026-04-26T13:42:39.999Z</time></trkpt><trkpt lat="39.76523027400237" lon="15.884804123371085"><ele>455.0</ele><time>2026-04-26T13:42:40.999Z</time></trkpt><trkpt lat="39.76511517696457" lon="15.88489108416315"><ele>456.8</ele><time>2026-04-26T13:42:41.999Z</time></trkpt><trkpt lat="39.765034295387295" lon="15.884940183201119"><ele>458.6</ele><time>2026-04-26T13:42:42.999Z</time></trkpt><trkpt lat="39.764985702168495" lon="15.885038856792407"><ele>460.4</ele><time>2026-04-26T13:42:44.999Z</time></trkpt><trkpt lat="39.765055172739316" lon="15.885195472756845"><ele>462.2</ele><time>2026-04-26T13:42:46.999Z</time></trkpt><trkpt lat="39.765138441157724" lon="15.885303559548424"><ele>464.0</ele><time>2026-04-26T13:42:47.999Z</time></trkpt><trkpt lat="39.76517969279328" lon="15.88543550490468"><ele>465.0</ele><time>2026-04-26T13:42:48.999Z</time></trkpt><trkpt lat="39.76517745719863" lon="15.885585938075955"><ele>466.0</ele><time>2026-04-26T13:42:49.999Z</time></trkpt><trkpt lat="39.76515170574753" lon="15.885734971038069"><ele>467.0</ele><time>2026-04-26T13:42:50.999Z</time></trkpt><trkpt lat="39.765099229515464" lon="15.885855559777786"><ele>468.0</ele><time>2026-04-26T13:42:51.999Z</time></trkpt><trkpt lat="39.765036458196924" lon="15.885924842194134"><ele>469.0</ele><time>2026-04-26T13:42:52.999Z</time></trkpt><trkpt lat="39.76494334670921" lon="15.885952458908061"><ele>469.0</ele><time>2026-04-26T13:42:53.999Z</time></trkpt><trkpt lat="39.76481657952147" lon="15.885965739600925"><ele>469.0</ele><time>2026-04-26T13:42:54.999Z</time></trkpt><trkpt lat="39.76469897254556" lon="15.885983945349905"><ele>469.0</ele><time>2026-04-26T13:42:55.999Z</time></trkpt><trkpt lat="39.76461866119794" lon="15.886054708067181"><ele>469.0</ele><time>2026-04-26T13:42:56.999Z</time></trkpt><trkpt lat="39.76455619410941" lon="15.886172237492225"><ele>469.0</ele><time>2026-04-26T13:42:57.999Z</time></trkpt><trkpt lat="39.764504039172245" lon="15.886328610486808"><ele>469.0</ele><time>2026-04-26T13:42:58.999Z</time></trkpt><trkpt lat="39.764452281712664" lon="15.886480777233704"><ele>469.0</ele><time>2026-04-26T13:42:59.999Z</time></trkpt><trkpt lat="39.764377635592346" lon="15.886586401957263"><ele>469.0</ele><time>2026-04-26T13:43:00.999Z</time></trkpt><trkpt lat="39.76433589729983" lon="15.886699883596048"><ele>470.6</ele><time>2026-04-26T13:43:01.999Z</time></trkpt><trkpt lat="39.764266370817495" lon="15.88676195900895"><ele>472.2</ele><time>2026-04-26T13:43:02.999Z</time></trkpt><trkpt lat="39.76418396435971" lon="15.886782238262573"><ele>473.80000000000007</ele><time>2026-04-26T13:43:03.999Z</time></trkpt><trkpt lat="39.76408926614998" lon="15.886793348775551"><ele>475.40000000000003</ele><time>2026-04-26T13:43:04.999Z</time></trkpt><trkpt lat="39.763998174669844" lon="15.886732383637606"><ele>477.0</ele><time>2026-04-26T13:43:05.999Z</time></trkpt><trkpt lat="39.7639162237554" lon="15.886632149741809"><ele>479.20000000000005</ele><time>2026-04-26T13:43:06.999Z</time></trkpt><trkpt lat="39.763843541949164" lon="15.886543031192879"><ele>481.40000000000003</ele><time>2026-04-26T13:43:07.999Z</time></trkpt><trkpt lat="39.763771968742105" lon="15.886475487339979"><ele>483.59999999999997</ele><time>2026-04-26T13:43:08.999Z</time></trkpt><trkpt lat="39.76369231758519" lon="15.886420620072391"><ele>485.79999999999995</ele><time>2026-04-26T13:43:09.999Z</time></trkpt><trkpt lat="39.76360924263189" lon="15.88639548099657"><ele>488.0</ele><time>2026-04-26T13:43:10.999Z</time></trkpt><trkpt lat="39.76352409866828" lon="15.88641518204171"><ele>489.25</ele><time>2026-04-26T13:43:11.999Z</time></trkpt><trkpt lat="39.76342739168609" lon="15.886458307672372"><ele>490.5</ele><time>2026-04-26T13:43:12.999Z</time></trkpt><trkpt lat="39.76331689700923" lon="15.886516518298945"><ele>491.75</ele><time>2026-04-26T13:43:13.999Z</time></trkpt><trkpt lat="39.76321558764648" lon="15.88659972745136"><ele>493.0</ele><time>2026-04-26T13:43:14.999Z</time></trkpt><trkpt lat="39.763114473794424" lon="15.88669700376981"><ele>492.4</ele><time>2026-04-26T13:43:15.998Z</time></trkpt><trkpt lat="39.763019768064254" lon="15.886791043467744"><ele>491.79999999999995</ele><time>2026-04-26T13:43:16.998Z</time></trkpt><trkpt lat="39.76293092943184" lon="15.886873498391783"><ele>491.2</ele><time>2026-04-26T13:43:17.998Z</time></trkpt><trkpt lat="39.76285370760622" lon="15.886936378178111"><ele>490.6</ele><time>2026-04-26T13:43:18.998Z</time></trkpt><trkpt lat="39.76278517113358" lon="15.886985967378648"><ele>490.0</ele><time>2026-04-26T13:43:19.998Z</time></trkpt><trkpt lat="39.76272755993001" lon="15.887049565202766"><ele>492.8</ele><time>2026-04-26T13:43:20.998Z</time></trkpt><trkpt lat="39.762677453065585" lon="15.887117982182264"><ele>495.6</ele><time>2026-04-26T13:43:21.998Z</time></trkpt><trkpt lat="39.762630165916775" lon="15.887237220166778"><ele>498.4</ele><time>2026-04-26T13:43:22.998Z</time></trkpt><trkpt lat="39.76260627002294" lon="15.887366220179658"><ele>501.2</ele><time>2026-04-26T13:43:23.998Z</time></trkpt><trkpt lat="39.76258940119518" lon="15.887483821607374"><ele>504.0</ele><time>2026-04-26T13:43:25Z</time></trkpt><trkpt lat="39.76257444496272" lon="15.887586867971653"><ele>503.2</ele><time>2026-04-26T13:43:26Z</time></trkpt><trkpt lat="39.76256310293589" lon="15.887694913574519"><ele>502.4</ele><time>2026-04-26T13:43:27Z</time></trkpt><trkpt lat="39.762511076278095" lon="15.887797072818419"><ele>501.6</ele><time>2026-04-26T13:43:28Z</time></trkpt><trkpt lat="39.76244406593321" lon="15.88791471171971"><ele>500.8</ele><time>2026-04-26T13:43:29Z</time></trkpt><trkpt lat="39.76236128657887" lon="15.88803373245154"><ele>500.0</ele><time>2026-04-26T13:43:30Z</time></trkpt><trkpt lat="39.762285319851514" lon="15.888151191619647"><ele>500.0</ele><time>2026-04-26T13:43:31Z</time></trkpt><trkpt lat="39.76222425023494" lon="15.888291440790203"><ele>500.0</ele><time>2026-04-26T13:43:32Z</time></trkpt><trkpt lat="39.762156597400626" lon="15.88844221425104"><ele>500.0</ele><time>2026-04-26T13:43:33Z</time></trkpt><trkpt lat="39.762124052066696" lon="15.888607509589585"><ele>500.0</ele><time>2026-04-26T13:43:34Z</time></trkpt><trkpt lat="39.7621039836004" lon="15.88877185487129"><ele>500.2</ele><time>2026-04-26T13:43:35Z</time></trkpt><trkpt lat="39.7620873691902" lon="15.888920917533657"><ele>500.4</ele><time>2026-04-26T13:43:36Z</time></trkpt><trkpt lat="39.76207216025461" lon="15.889070627413913"><ele>500.6</ele><time>2026-04-26T13:43:37Z</time></trkpt><trkpt lat="39.76205816810496" lon="15.88921394998953"><ele>500.8</ele><time>2026-04-26T13:43:38Z</time></trkpt><trkpt lat="39.76204527907948" lon="15.889348386821533"><ele>501.0</ele><time>2026-04-26T13:43:39Z</time></trkpt><trkpt lat="39.762075931944146" lon="15.889491622803376"><ele>499.4</ele><time>2026-04-26T13:43:40Z</time></trkpt><trkpt lat="39.762041341237726" lon="15.889618506291344"><ele>497.8</ele><time>2026-04-26T13:43:41Z</time></trkpt><trkpt lat="39.761994712750216" lon="15.889714686091189"><ele>496.19999999999993</ele><time>2026-04-26T13:43:42Z</time></trkpt><trkpt lat="39.76193772521077" lon="15.889799230459174"><ele>494.59999999999997</ele><time>2026-04-26T13:43:43Z</time></trkpt><trkpt lat="39.761867499063975" lon="15.889872336369677"><ele>493.0</ele><time>2026-04-26T13:43:44Z</time></trkpt><trkpt lat="39.76178990486427" lon="15.889932416652409"><ele>497.59999999999997</ele><time>2026-04-26T13:43:45Z</time></trkpt><trkpt lat="39.761704865341954" lon="15.889982111069221"><ele>502.19999999999993</ele><time>2026-04-26T13:43:46Z</time></trkpt><trkpt lat="39.76161225398187" lon="15.890064047464005"><ele>506.8</ele><time>2026-04-26T13:43:47Z</time></trkpt><trkpt lat="39.76151180365718" lon="15.890131105027377"><ele>511.4</ele><time>2026-04-26T13:43:48Z</time></trkpt><trkpt lat="39.7613918891769" lon="15.89017095353698"><ele>516.0</ele><time>2026-04-26T13:43:49Z</time></trkpt><trkpt lat="39.76129025077896" lon="15.890228887905348"><ele>516.0</ele><time>2026-04-26T13:43:50Z</time></trkpt><trkpt lat="39.76120309070877" lon="15.890297735473382"><ele>516.0</ele><time>2026-04-26T13:43:51Z</time></trkpt><trkpt lat="39.76109643970683" lon="15.890343201258476"><ele>516.0</ele><time>2026-04-26T13:43:52Z</time></trkpt><trkpt lat="39.76100212359238" lon="15.890446246895804"><ele>516.0</ele><time>2026-04-26T13:43:52.999Z</time></trkpt><trkpt lat="39.76091316851735" lon="15.890572286234818"><ele>519.1666666666666</ele><time>2026-04-26T13:43:53.999Z</time></trkpt><trkpt lat="39.760840139165424" lon="15.890689289903303"><ele>522.3333333333334</ele><time>2026-04-26T13:43:54.999Z</time></trkpt><trkpt lat="39.760783372501855" lon="15.890787319943218"><ele>525.5</ele><time>2026-04-26T13:43:55.999Z</time></trkpt><trkpt lat="39.760750325436746" lon="15.890858892413604"><ele>528.6666666666667</ele><time>2026-04-26T13:43:56.999Z</time></trkpt><trkpt lat="39.760710071211264" lon="15.890929486084238"><ele>531.8333333333334</ele><time>2026-04-26T13:43:57.999Z</time></trkpt><trkpt lat="39.76067721825495" lon="15.891049495424342"><ele>535.0</ele><time>2026-04-26T13:43:58.999Z</time></trkpt><trkpt lat="39.76067989465031" lon="15.891165406971167"><ele>536.0</ele><time>2026-04-26T13:43:59.999Z</time></trkpt><trkpt lat="39.76069639429935" lon="15.891259052257041"><ele>537.0</ele><time>2026-04-26T13:44:00.999Z</time></trkpt><trkpt lat="39.76072919530007" lon="15.891424138030308"><ele>538.0</ele><time>2026-04-26T13:44:02.999Z</time></trkpt><trkpt lat="39.76073917247617" lon="15.891521689866313"><ele>539.0</ele><time>2026-04-26T13:44:03.999Z</time></trkpt><trkpt lat="39.760739942415746" lon="15.891621929379012"><ele>540.0</ele><time>2026-04-26T13:44:04.999Z</time></trkpt><trkpt lat="39.76073532301271" lon="15.891716764233871"><ele>541.0</ele><time>2026-04-26T13:44:05.999Z</time></trkpt><trkpt lat="39.76065895170318" lon="15.891779055188543"><ele>542.4</ele><time>2026-04-26T13:44:06.999Z</time></trkpt><trkpt lat="39.76056318885754" lon="15.891813836579221"><ele>543.8</ele><time>2026-04-26T13:44:07.999Z</time></trkpt><trkpt lat="39.76046153362064" lon="15.891828020370056"><ele>545.1999999999999</ele><time>2026-04-26T13:44:08.999Z</time></trkpt><trkpt lat="39.76035078560613" lon="15.89182327897561"><ele>546.6</ele><time>2026-04-26T13:44:09.999Z</time></trkpt><trkpt lat="39.76023202984671" lon="15.891804412453775"><ele>548.0</ele><time>2026-04-26T13:44:10.999Z</time></trkpt><trkpt lat="39.76011786047042" lon="15.891747194418029"><ele>548.0</ele><time>2026-04-26T13:44:11.999Z</time></trkpt><trkpt lat="39.760021011016875" lon="15.891700857626573"><ele>548.0</ele><time>2026-04-26T13:44:12.999Z</time></trkpt><trkpt lat="39.759937969799424" lon="15.891664296962128"><ele>548.0</ele><time>2026-04-26T13:44:13.999Z</time></trkpt><trkpt lat="39.7598647840012" lon="15.891633618458684"><ele>548.0</ele><time>2026-04-26T13:44:14.999Z</time></trkpt><trkpt lat="39.75980170522126" lon="15.891607176669718"><ele>548.0</ele><time>2026-04-26T13:44:15.999Z</time></trkpt><trkpt lat="39.75970390658662" lon="15.891583276302303"><ele>548.0</ele><time>2026-04-26T13:44:17.999Z</time></trkpt><trkpt lat="39.75961558922906" lon="15.891568634596227"><ele>548.0</ele><time>2026-04-26T13:44:19.999Z</time></trkpt><trkpt lat="39.75952949666126" lon="15.891554361273563"><ele>548.0</ele><time>2026-04-26T13:44:21.999Z</time></trkpt><trkpt lat="39.759443418850076" lon="15.891542926629535"><ele>548.0</ele><time>2026-04-26T13:44:23.999Z</time></trkpt><trkpt lat="39.7593671764697" lon="15.891531537727047"><ele>548.0</ele><time>2026-04-26T13:44:25.999Z</time></trkpt><trkpt lat="39.759287899207536" lon="15.891519695470132"><ele>548.0</ele><time>2026-04-26T13:44:27.999Z</time></trkpt><trkpt lat="39.75919981562488" lon="15.891507286599278"><ele>548.0</ele><time>2026-04-26T13:44:29.999Z</time></trkpt><trkpt lat="39.75911398447895" lon="15.89149693162544"><ele>548.1999999999999</ele><time>2026-04-26T13:44:31.999Z</time></trkpt><trkpt lat="39.75902860290547" lon="15.89145998732821"><ele>548.4</ele><time>2026-04-26T13:44:33.999Z</time></trkpt><trkpt lat="39.75894107849343" lon="15.891461786299017"><ele>548.5999999999999</ele><time>2026-04-26T13:44:35.999Z</time></trkpt><trkpt lat="39.75883278063733" lon="15.89146323798504"><ele>548.8</ele><time>2026-04-26T13:44:37.999Z</time></trkpt><trkpt lat="39.758727513330626" lon="15.891467212202919"><ele>549.0</ele><time>2026-04-26T13:44:39.999Z</time></trkpt><trkpt lat="39.7586283203031" lon="15.891466682205534"><ele>548.6</ele><time>2026-04-26T13:44:41.999Z</time></trkpt><trkpt lat="39.75852646524272" lon="15.891469163317824"><ele>548.2</ele><time>2026-04-26T13:44:43.999Z</time></trkpt><trkpt lat="39.75842478676808" lon="15.891436741672157"><ele>547.8000000000001</ele><time>2026-04-26T13:44:45.999Z</time></trkpt><trkpt lat="39.75834487055005" lon="15.891357764252884"><ele>547.4</ele><time>2026-04-26T13:44:47.999Z</time></trkpt><trkpt lat="39.75830709398071" lon="15.891247577104082"><ele>547.0</ele><time>2026-04-26T13:44:49.999Z</time></trkpt><trkpt lat="39.75828436621967" lon="15.891132951343947"><ele>547.0</ele><time>2026-04-26T13:44:51.999Z</time></trkpt><trkpt lat="39.75823620470914" lon="15.89102716555295"><ele>547.0</ele><time>2026-04-26T13:44:53.999Z</time></trkpt><trkpt lat="39.758149797505055" lon="15.89093359476696"><ele>547.0</ele><time>2026-04-26T13:44:55.999Z</time></trkpt><trkpt lat="39.75806402165651" lon="15.890850778164975"><ele>547.0</ele><time>2026-04-26T13:44:57.999Z</time></trkpt><trkpt lat="39.757984132391364" lon="15.890805249574745"><ele>547.0</ele><time>2026-04-26T13:44:59.999Z</time></trkpt><trkpt lat="39.757923839306464" lon="15.890765246224175"><ele>545.2</ele><time>2026-04-26T13:45:01.999Z</time></trkpt><trkpt lat="39.757831312468944" lon="15.890712010745279"><ele>543.4000000000001</ele><time>2026-04-26T13:45:03.999Z</time></trkpt><trkpt lat="39.757764141597924" lon="15.890679600565685"><ele>541.5999999999999</ele><time>2026-04-26T13:45:04.999Z</time></trkpt><trkpt lat="39.757685943461475" lon="15.890667434365897"><ele>539.8</ele><time>2026-04-26T13:45:05.999Z</time></trkpt><trkpt lat="39.75760494946814" lon="15.89062326868704"><ele>538.0</ele><time>2026-04-26T13:45:06.999Z</time></trkpt><trkpt lat="39.75750630561998" lon="15.890536533148486"><ele>538.0</ele><time>2026-04-26T13:45:07.999Z</time></trkpt><trkpt lat="39.75740631912708" lon="15.89047463423172"><ele>538.0</ele><time>2026-04-26T13:45:08.999Z</time></trkpt><trkpt lat="39.75729479826648" lon="15.890451107118434"><ele>538.0</ele><time>2026-04-26T13:45:09.999Z</time></trkpt><trkpt lat="39.75720346433004" lon="15.89037404462119"><ele>538.0</ele><time>2026-04-26T13:45:10.999Z</time></trkpt><trkpt lat="39.75712895708868" lon="15.890291074606314"><ele>538.0</ele><time>2026-04-26T13:45:11.999Z</time></trkpt><trkpt lat="39.75707922341269" lon="15.890215491198159"><ele>538.0</ele><time>2026-04-26T13:45:12.999Z</time></trkpt><trkpt lat="39.75705712028826" lon="15.89013499875753"><ele>538.0</ele><time>2026-04-26T13:45:13.999Z</time></trkpt><trkpt lat="39.75699620261971" lon="15.890100534732863"><ele>538.0</ele><time>2026-04-26T13:45:15.999Z</time></trkpt><trkpt lat="39.756905012501555" lon="15.890160371293991"><ele>538.0</ele><time>2026-04-26T13:45:18.998Z</time></trkpt><trkpt lat="39.75686860845625" lon="15.890239394195763"><ele>538.0</ele><time>2026-04-26T13:45:19.998Z</time></trkpt><trkpt lat="39.75685535230488" lon="15.890354613526366"><ele>538.0</ele><time>2026-04-26T13:45:20.998Z</time></trkpt><trkpt lat="39.756845970179576" lon="15.890493256081133"><ele>537.0</ele><time>2026-04-26T13:45:21.998Z</time></trkpt><trkpt lat="39.7568116212304" lon="15.890637159886461"><ele>536.0</ele><time>2026-04-26T13:45:22.998Z</time></trkpt><trkpt lat="39.75676146710679" lon="15.890775718178698"><ele>535.0</ele><time>2026-04-26T13:45:23.998Z</time></trkpt><trkpt lat="39.75669872789275" lon="15.890913792435969"><ele>534.0</ele><time>2026-04-26T13:45:24.998Z</time></trkpt><trkpt lat="39.756622860320206" lon="15.89104570834107"><ele>538.75</ele><time>2026-04-26T13:45:25.998Z</time></trkpt><trkpt lat="39.7565336204101" lon="15.891158790250861"><ele>543.5</ele><time>2026-04-26T13:45:26.998Z</time></trkpt><trkpt lat="39.75643673165255" lon="15.891259947988566"><ele>548.25</ele><time>2026-04-26T13:45:27.998Z</time></trkpt><trkpt lat="39.756345201038535" lon="15.891355490562603"><ele>553.0</ele><time>2026-04-26T13:45:28.998Z</time></trkpt><trkpt lat="39.75625505566249" lon="15.891456644410617"><ele>553.0</ele><time>2026-04-26T13:45:29.998Z</time></trkpt><trkpt lat="39.756165386309725" lon="15.891557729960441"><ele>553.0</ele><time>2026-04-26T13:45:31Z</time></trkpt><trkpt lat="39.75607502768007" lon="15.891659315472815"><ele>553.0</ele><time>2026-04-26T13:45:32Z</time></trkpt><trkpt lat="39.75598386269216" lon="15.891758286752792"><ele>553.0</ele><time>2026-04-26T13:45:33Z</time></trkpt><trkpt lat="39.755890918321" lon="15.891857709083439"><ele>554.25</ele><time>2026-04-26T13:45:34Z</time></trkpt><trkpt lat="39.755794684888585" lon="15.891963416931397"><ele>555.5</ele><time>2026-04-26T13:45:35Z</time></trkpt><trkpt lat="39.75569089017028" lon="15.892079460579593"><ele>556.75</ele><time>2026-04-26T13:45:36Z</time></trkpt><trkpt lat="39.755585819330946" lon="15.892197133933356"><ele>558.0</ele><time>2026-04-26T13:45:37Z</time></trkpt><trkpt lat="39.75548578075538" lon="15.892319682433643"><ele>558.0</ele><time>2026-04-26T13:45:38Z</time></trkpt><trkpt lat="39.755410464636505" lon="15.89245988909198"><ele>558.0</ele><time>2026-04-26T13:45:39Z</time></trkpt><trkpt lat="39.755356014977934" lon="15.89262481793991"><ele>558.0</ele><time>2026-04-26T13:45:40Z</time></trkpt><trkpt lat="39.75530585106896" lon="15.892781820173479"><ele>558.0</ele><time>2026-04-26T13:45:41Z</time></trkpt><trkpt lat="39.75528954255865" lon="15.89294674650201"><ele>557.75</ele><time>2026-04-26T13:45:42Z</time></trkpt><trkpt lat="39.75531671086535" lon="15.893128440874428"><ele>557.5</ele><time>2026-04-26T13:45:43Z</time></trkpt><trkpt lat="39.75536115020813" lon="15.893293594830041"><ele>557.25</ele><time>2026-04-26T13:45:44Z</time></trkpt><trkpt lat="39.7554249159337" lon="15.893447545176485"><ele>557.0</ele><time>2026-04-26T13:45:45Z</time></trkpt><trkpt lat="39.75549532335118" lon="15.893576468090721"><ele>557.0</ele><time>2026-04-26T13:45:46Z</time></trkpt><trkpt lat="39.75555683144305" lon="15.893706311401319"><ele>557.0</ele><time>2026-04-26T13:45:47Z</time></trkpt><trkpt lat="39.75559235293452" lon="15.893832561826674"><ele>557.0</ele><time>2026-04-26T13:45:48Z</time></trkpt><trkpt lat="39.75560842354778" lon="15.893974332123806"><ele>557.0</ele><time>2026-04-26T13:45:49Z</time></trkpt><trkpt lat="39.755630199128525" lon="15.894131170254948"><ele>553.0</ele><time>2026-04-26T13:45:50Z</time></trkpt><trkpt lat="39.75566918505821" lon="15.894293173091233"><ele>549.0</ele><time>2026-04-26T13:45:51Z</time></trkpt><trkpt lat="39.75577757444757" lon="15.894428689051255"><ele>545.0</ele><time>2026-04-26T13:45:52Z</time></trkpt><trkpt lat="39.755900481677" lon="15.894506432240188"><ele>541.0</ele><time>2026-04-26T13:45:53Z</time></trkpt><trkpt lat="39.75597738728557" lon="15.894573396469081"><ele>539.4</ele><time>2026-04-26T13:45:54Z</time></trkpt><trkpt lat="39.756037220465714" lon="15.894669088539368"><ele>537.8</ele><time>2026-04-26T13:45:55Z</time></trkpt><trkpt lat="39.75607392278802" lon="15.894787576123909"><ele>536.1999999999999</ele><time>2026-04-26T13:45:55.999Z</time></trkpt><trkpt lat="39.756114159789526" lon="15.89492652118006"><ele>534.6</ele><time>2026-04-26T13:45:56.999Z</time></trkpt><trkpt lat="39.75615398272293" lon="15.895056129384772"><ele>533.0</ele><time>2026-04-26T13:45:57.999Z</time></trkpt><trkpt lat="39.756216706726576" lon="15.895189220880908"><ele>533.0</ele><time>2026-04-26T13:45:58.999Z</time></trkpt><trkpt lat="39.756309261882656" lon="15.895298917802775"><ele>533.0</ele><time>2026-04-26T13:45:59.999Z</time></trkpt><trkpt lat="39.756476994720465" lon="15.895251386873847"><ele>533.0</ele><time>2026-04-26T13:46:00.999Z</time></trkpt><trkpt lat="39.75659409947626" lon="15.895261986321767"><ele>533.0</ele><time>2026-04-26T13:46:01.999Z</time></trkpt><trkpt lat="39.7567175188744" lon="15.895225934113185"><ele>533.0</ele><time>2026-04-26T13:46:02.999Z</time></trkpt><trkpt lat="39.75683850980602" lon="15.895149775839604"><ele>533.0</ele><time>2026-04-26T13:46:03.999Z</time></trkpt><trkpt lat="39.75693559599319" lon="15.895043084829066"><ele>533.0</ele><time>2026-04-26T13:46:04.999Z</time></trkpt><trkpt lat="39.75701733372839" lon="15.894941113565412"><ele>533.0</ele><time>2026-04-26T13:46:05.999Z</time></trkpt><trkpt lat="39.7571213293011" lon="15.8948748843114"><ele>540.0</ele><time>2026-04-26T13:46:06.999Z</time></trkpt><trkpt lat="39.75724675618547" lon="15.894850332740438"><ele>547.0</ele><time>2026-04-26T13:46:07.999Z</time></trkpt><trkpt lat="39.75737622118757" lon="15.894861772520516"><ele>554.0</ele><time>2026-04-26T13:46:08.999Z</time></trkpt><trkpt lat="39.757492719605644" lon="15.894896362212178"><ele>561.0</ele><time>2026-04-26T13:46:09.999Z</time></trkpt><trkpt lat="39.75759622950699" lon="15.894953554742216"><ele>561.0</ele><time>2026-04-26T13:46:10.999Z</time></trkpt><trkpt lat="39.75768967999534" lon="15.895020539268174"><ele>561.0</ele><time>2026-04-26T13:46:11.999Z</time></trkpt><trkpt lat="39.75777967079571" lon="15.895058225572035"><ele>561.0</ele><time>2026-04-26T13:46:12.999Z</time></trkpt><trkpt lat="39.757847329031634" lon="15.895198505234482"><ele>561.0</ele><time>2026-04-26T13:46:13.999Z</time></trkpt><trkpt lat="39.757932513212566" lon="15.895202069820293"><ele>561.0</ele><time>2026-04-26T13:46:14.999Z</time></trkpt><trkpt lat="39.758020120978514" lon="15.89519594604487"><ele>560.4</ele><time>2026-04-26T13:46:15.999Z</time></trkpt><trkpt lat="39.75811266934481" lon="15.895182043880778"><ele>559.8</ele><time>2026-04-26T13:46:16.999Z</time></trkpt><trkpt lat="39.7582196169705" lon="15.895163455044209"><ele>559.1999999999999</ele><time>2026-04-26T13:46:17.999Z</time></trkpt><trkpt lat="39.7583338180261" lon="15.895147104041769"><ele>558.6</ele><time>2026-04-26T13:46:18.999Z</time></trkpt><trkpt lat="39.75844512548474" lon="15.895161412397298"><ele>558.0</ele><time>2026-04-26T13:46:19.999Z</time></trkpt><trkpt lat="39.75853959634539" lon="15.895212465070276"><ele>558.0</ele><time>2026-04-26T13:46:20.999Z</time></trkpt><trkpt lat="39.75865071132325" lon="15.895275084881932"><ele>558.0</ele><time>2026-04-26T13:46:21.999Z</time></trkpt><trkpt lat="39.75875155323756" lon="15.895358379370911"><ele>558.0</ele><time>2026-04-26T13:46:22.999Z</time></trkpt><trkpt lat="39.75886685051733" lon="15.895468586663311"><ele>558.0</ele><time>2026-04-26T13:46:23.999Z</time></trkpt><trkpt lat="39.75898628608322" lon="15.895586703435796"><ele>558.0</ele><time>2026-04-26T13:46:24.999Z</time></trkpt><trkpt lat="39.7590995485154" lon="15.89569907717962"><ele>558.0</ele><time>2026-04-26T13:46:25.999Z</time></trkpt><trkpt lat="39.75920245491076" lon="15.895802890470733"><ele>558.0</ele><time>2026-04-26T13:46:26.999Z</time></trkpt><trkpt lat="39.75928715117561" lon="15.895890033411662"><ele>558.0</ele><time>2026-04-26T13:46:27.999Z</time></trkpt><trkpt lat="39.759361971948195" lon="15.895971372490019"><ele>557.3333333333334</ele><time>2026-04-26T13:46:28.999Z</time></trkpt><trkpt lat="39.75941961523704" lon="15.896046675627481"><ele>556.6666666666666</ele><time>2026-04-26T13:46:29.999Z</time></trkpt><trkpt lat="39.75945230879139" lon="15.896121479057706"><ele>556.0</ele><time>2026-04-26T13:46:30.999Z</time></trkpt><trkpt lat="39.759464639276715" lon="15.896212894268954"><ele>555.3333333333333</ele><time>2026-04-26T13:46:31.999Z</time></trkpt><trkpt lat="39.75946943984233" lon="15.896336615369888"><ele>554.6666666666666</ele><time>2026-04-26T13:46:32.999Z</time></trkpt><trkpt lat="39.759383239251775" lon="15.89644964848658"><ele>554.0</ele><time>2026-04-26T13:46:33.999Z</time></trkpt><trkpt lat="39.75927079899957" lon="15.896568715804287"><ele>554.0</ele><time>2026-04-26T13:46:34.999Z</time></trkpt><trkpt lat="39.75918367619384" lon="15.896735664306865"><ele>554.0</ele><time>2026-04-26T13:46:35.999Z</time></trkpt><trkpt lat="39.7591024327653" lon="15.896921565192903"><ele>554.0</ele><time>2026-04-26T13:46:36.999Z</time></trkpt><trkpt lat="39.75905774370095" lon="15.897116476256926"><ele>554.5</ele><time>2026-04-26T13:46:37.999Z</time></trkpt><trkpt lat="39.75899875255452" lon="15.897294146647699"><ele>555.0</ele><time>2026-04-26T13:46:38.999Z</time></trkpt><trkpt lat="39.758909718422395" lon="15.89744960279972"><ele>555.5</ele><time>2026-04-26T13:46:39.999Z</time></trkpt><trkpt lat="39.75883625862948" lon="15.897602984131115"><ele>556.0</ele><time>2026-04-26T13:46:40.999Z</time></trkpt><trkpt lat="39.75875617530175" lon="15.897733774544328"><ele>554.75</ele><time>2026-04-26T13:46:41.999Z</time></trkpt><trkpt lat="39.75870524734476" lon="15.897867787076999"><ele>553.5</ele><time>2026-04-26T13:46:42.999Z</time></trkpt><trkpt lat="39.758676406734594" lon="15.898001034868354"><ele>552.25</ele><time>2026-04-26T13:46:43.999Z</time></trkpt><trkpt lat="39.758671902608796" lon="15.8981471243462"><ele>551.0</ele><time>2026-04-26T13:46:44.999Z</time></trkpt><trkpt lat="39.75876095790643" lon="15.898318493060643"><ele>545.25</ele><time>2026-04-26T13:46:45.999Z</time></trkpt><trkpt lat="39.758892881282485" lon="15.898419085823292"><ele>539.5</ele><time>2026-04-26T13:46:46.999Z</time></trkpt><trkpt lat="39.75899761756303" lon="15.89854327850226"><ele>533.75</ele><time>2026-04-26T13:46:47.999Z</time></trkpt><trkpt lat="39.75910530470208" lon="15.898684476468937"><ele>528.0</ele><time>2026-04-26T13:46:48.999Z</time></trkpt><trkpt lat="39.75921880894242" lon="15.898822125700873"><ele>528.0</ele><time>2026-04-26T13:46:49.999Z</time></trkpt><trkpt lat="39.759325441475255" lon="15.89893944478412"><ele>528.0</ele><time>2026-04-26T13:46:50.999Z</time></trkpt><trkpt lat="39.759414839305684" lon="15.899037098787085"><ele>528.0</ele><time>2026-04-26T13:46:51.999Z</time></trkpt><trkpt lat="39.75949489464329" lon="15.89913760383137"><ele>528.0</ele><time>2026-04-26T13:46:52.999Z</time></trkpt><trkpt lat="39.75955187824719" lon="15.899244852102484"><ele>533.25</ele><time>2026-04-26T13:46:53.999Z</time></trkpt><trkpt lat="39.759593230766924" lon="15.899383436662776"><ele>538.5</ele><time>2026-04-26T13:46:54.999Z</time></trkpt><trkpt lat="39.75962803502621" lon="15.899533450584242"><ele>543.75</ele><time>2026-04-26T13:46:55.999Z</time></trkpt><trkpt lat="39.7596542318006" lon="15.899688821619488"><ele>549.0</ele><time>2026-04-26T13:46:56.999Z</time></trkpt><trkpt lat="39.75966716564436" lon="15.899831993862128"><ele>549.0</ele><time>2026-04-26T13:46:57.999Z</time></trkpt><trkpt lat="39.759660625418" lon="15.899957416064906"><ele>549.0</ele><time>2026-04-26T13:46:58.999Z</time></trkpt><trkpt lat="39.759650307949286" lon="15.900074392271906"><ele>549.0</ele><time>2026-04-26T13:46:59.999Z</time></trkpt><trkpt lat="39.75964426384583" lon="15.900199251562217"><ele>549.0</ele><time>2026-04-26T13:47:00.999Z</time></trkpt><trkpt lat="39.759649257918866" lon="15.900354167908667"><ele>549.0</ele><time>2026-04-26T13:47:01.999Z</time></trkpt><trkpt lat="39.75971572390931" lon="15.900534655413052"><ele>544.5</ele><time>2026-04-26T13:47:02.999Z</time></trkpt><trkpt lat="39.75979737506423" lon="15.900673512057987"><ele>540.0</ele><time>2026-04-26T13:47:03.999Z</time></trkpt><trkpt lat="39.75995824872006" lon="15.900715076800532"><ele>535.5</ele><time>2026-04-26T13:47:04.999Z</time></trkpt><trkpt lat="39.7600621601757" lon="15.900808925753713"><ele>531.0</ele><time>2026-04-26T13:47:05.999Z</time></trkpt><trkpt lat="39.76017156448128" lon="15.900902597213395"><ele>531.75</ele><time>2026-04-26T13:47:06.999Z</time></trkpt><trkpt lat="39.760279359828814" lon="15.900995491818511"><ele>532.5</ele><time>2026-04-26T13:47:07.999Z</time></trkpt><trkpt lat="39.76038124568784" lon="15.901095285782693"><ele>533.25</ele><time>2026-04-26T13:47:08.999Z</time></trkpt><trkpt lat="39.76047275225521" lon="15.901206230774806"><ele>534.0</ele><time>2026-04-26T13:47:09.999Z</time></trkpt><trkpt lat="39.760552178093874" lon="15.90133278157209"><ele>534.0</ele><time>2026-04-26T13:47:10.999Z</time></trkpt><trkpt lat="39.76062703449619" lon="15.90147073286625"><ele>534.0</ele><time>2026-04-26T13:47:11.999Z</time></trkpt><trkpt lat="39.7607056163732" lon="15.90160744502162"><ele>534.0</ele><time>2026-04-26T13:47:12.999Z</time></trkpt><trkpt lat="39.76078297471932" lon="15.901735566811583"><ele>534.0</ele><time>2026-04-26T13:47:13.999Z</time></trkpt><trkpt lat="39.76085720182477" lon="15.901863228044553"><ele>534.75</ele><time>2026-04-26T13:47:14.999Z</time></trkpt><trkpt lat="39.76093089503159" lon="15.901998814500145"><ele>535.5</ele><time>2026-04-26T13:47:15.999Z</time></trkpt><trkpt lat="39.76100569106808" lon="15.902155486889743"><ele>536.25</ele><time>2026-04-26T13:47:16.999Z</time></trkpt><trkpt lat="39.76107839691077" lon="15.902300917173362"><ele>537.0</ele><time>2026-04-26T13:47:17.999Z</time></trkpt><trkpt lat="39.76115197135043" lon="15.902447266805641"><ele>533.0</ele><time>2026-04-26T13:47:18.999Z</time></trkpt><trkpt lat="39.76113637330452" lon="15.902655673575975"><ele>529.0</ele><time>2026-04-26T13:47:19.999Z</time></trkpt><trkpt lat="39.76119099865604" lon="15.902798367539638"><ele>525.0</ele><time>2026-04-26T13:47:20.999Z</time></trkpt><trkpt lat="39.7612362316451" lon="15.90294920448517"><ele>521.0</ele><time>2026-04-26T13:47:21.999Z</time></trkpt><trkpt lat="39.761281107482006" lon="15.90310642962034"><ele>521.0</ele><time>2026-04-26T13:47:22.999Z</time></trkpt><trkpt lat="39.76131462094988" lon="15.903255909580041"><ele>521.0</ele><time>2026-04-26T13:47:23.998Z</time></trkpt><trkpt lat="39.76133699651085" lon="15.903409197847498"><ele>521.0</ele><time>2026-04-26T13:47:24.998Z</time></trkpt><trkpt lat="39.76134822399567" lon="15.903562636240078"><ele>521.0</ele><time>2026-04-26T13:47:25.998Z</time></trkpt><trkpt lat="39.76134638943644" lon="15.903706250589098"><ele>519.4</ele><time>2026-04-26T13:47:26.998Z</time></trkpt><trkpt lat="39.761302441948175" lon="15.903831818136375"><ele>517.8</ele><time>2026-04-26T13:47:27.998Z</time></trkpt><trkpt lat="39.76124562823336" lon="15.903963413256943"><ele>516.1999999999999</ele><time>2026-04-26T13:47:28.998Z</time></trkpt><trkpt lat="39.76117078953254" lon="15.904043240298535"><ele>514.6</ele><time>2026-04-26T13:47:29.998Z</time></trkpt><trkpt lat="39.76112449230214" lon="15.904137594232347"><ele>513.0</ele><time>2026-04-26T13:47:31.998Z</time></trkpt><trkpt lat="39.761105977648086" lon="15.904227826817229"><ele>513.0</ele><time>2026-04-26T13:47:34.998Z</time></trkpt><trkpt lat="39.76122152699248" lon="15.904125979032154"><ele>513.0</ele><time>2026-04-26T13:47:41Z</time></trkpt><trkpt lat="39.761240863027936" lon="15.904027808896432"><ele>513.0</ele><time>2026-04-26T13:47:44Z</time></trkpt><trkpt lat="39.76119978742046" lon="15.904097707945107"><ele>513.0</ele><time>2026-04-26T13:49:28.999Z</time></trkpt><trkpt lat="39.761137121791506" lon="15.904131260812695"><ele>513.0</ele><time>2026-04-26T13:54:39.999Z</time></trkpt><trkpt lat="39.76117145466949" lon="15.904051962145019"><ele>513.0</ele><time>2026-04-26T13:54:57.999Z</time></trkpt><trkpt lat="39.761159046255685" lon="15.90413611491844"><ele>513.0</ele><time>2026-04-26T13:57:53.999Z</time></trkpt><trkpt lat="39.76117301251931" lon="15.904297110642588"><ele>513.0</ele><time>2026-04-26T14:04:15.998Z</time></trkpt><trkpt lat="39.76116985302719" lon="15.904385805462443"><ele>513.0</ele><time>2026-04-26T14:04:16.998Z</time></trkpt><trkpt lat="39.76115865772007" lon="15.904485173779811"><ele>513.0</ele><time>2026-04-26T14:04:17.998Z</time></trkpt><trkpt lat="39.76115904586111" lon="15.904600874299081"><ele>513.0</ele><time>2026-04-26T14:04:18.998Z</time></trkpt><trkpt lat="39.76109507991282" lon="15.904735389592975"><ele>513.0</ele><time>2026-04-26T14:04:19.998Z</time></trkpt><trkpt lat="39.7611104890468" lon="15.9048519793634"><ele>513.0</ele><time>2026-04-26T14:04:20.998Z</time></trkpt><trkpt lat="39.761122247151214" lon="15.904960725266022"><ele>513.0</ele><time>2026-04-26T14:04:21.998Z</time></trkpt><trkpt lat="39.76112762274624" lon="15.90506359002369"><ele>513.0</ele><time>2026-04-26T14:04:22.998Z</time></trkpt><trkpt lat="39.76112256262555" lon="15.905154520006812"><ele>513.0</ele><time>2026-04-26T14:04:23.998Z</time></trkpt><trkpt lat="39.761111749554054" lon="15.905255552065658"><ele>513.0</ele><time>2026-04-26T14:04:24.999Z</time></trkpt><trkpt lat="39.7611028405466" lon="15.905358439223512"><ele>511.8333333333333</ele><time>2026-04-26T14:04:25.999Z</time></trkpt><trkpt lat="39.761102226909" lon="15.905481063202963"><ele>510.66666666666663</ele><time>2026-04-26T14:04:26.999Z</time></trkpt><trkpt lat="39.76110746525164" lon="15.905598217066109"><ele>509.5</ele><time>2026-04-26T14:04:27.999Z</time></trkpt><trkpt lat="39.76111214732147" lon="15.905708976399287"><ele>508.3333333333333</ele><time>2026-04-26T14:04:28.999Z</time></trkpt><trkpt lat="39.76111000296887" lon="15.905812724426099"><ele>507.16666666666663</ele><time>2026-04-26T14:04:29.999Z</time></trkpt><trkpt lat="39.76109823127559" lon="15.905909826385608"><ele>506.0</ele><time>2026-04-26T14:04:30.999Z</time></trkpt><trkpt lat="39.761070326408245" lon="15.906006238380145"><ele>505.16666666666663</ele><time>2026-04-26T14:04:31.999Z</time></trkpt><trkpt lat="39.76103777484018" lon="15.906104065779017"><ele>504.3333333333333</ele><time>2026-04-26T14:04:32.999Z</time></trkpt><trkpt lat="39.76102200197555" lon="15.906253229488405"><ele>503.5</ele><time>2026-04-26T14:04:34.999Z</time></trkpt><trkpt lat="39.7609555736919" lon="15.906264950269628"><ele>502.66666666666663</ele><time>2026-04-26T14:04:35.999Z</time></trkpt><trkpt lat="39.76088676587362" lon="15.9062307846525"><ele>501.8333333333333</ele><time>2026-04-26T14:04:37Z</time></trkpt><trkpt lat="39.76081928602302" lon="15.906156999489529"><ele>501.0</ele><time>2026-04-26T14:04:38Z</time></trkpt><trkpt lat="39.760769652846825" lon="15.906077149622671"><ele>498.7142857142857</ele><time>2026-04-26T14:04:39Z</time></trkpt><trkpt lat="39.76072486809284" lon="15.90599824200163"><ele>496.42857142857144</ele><time>2026-04-26T14:04:40Z</time></trkpt><trkpt lat="39.7606781663067" lon="15.905934549345456"><ele>494.14285714285717</ele><time>2026-04-26T14:04:41Z</time></trkpt><trkpt lat="39.76062435365002" lon="15.905886081666738"><ele>491.8571428571429</ele><time>2026-04-26T14:04:41.999Z</time></trkpt><trkpt lat="39.7605610904008" lon="15.905865494330458"><ele>489.57142857142856</ele><time>2026-04-26T14:04:42.999Z</time></trkpt><trkpt lat="39.760497650127924" lon="15.905855812213709"><ele>487.28571428571433</ele><time>2026-04-26T14:04:43.999Z</time></trkpt><trkpt lat="39.76042904376978" lon="15.905871054544084"><ele>485.00000000000006</ele><time>2026-04-26T14:04:44.999Z</time></trkpt><trkpt lat="39.76038057153665" lon="15.905980995910928"><ele>484.6</ele><time>2026-04-26T14:04:45.999Z</time></trkpt><trkpt lat="39.76035060592225" lon="15.906072702394432"><ele>484.2</ele><time>2026-04-26T14:04:46.999Z</time></trkpt><trkpt lat="39.760340423504324" lon="15.906194047503547"><ele>483.79999999999995</ele><time>2026-04-26T14:04:47.999Z</time></trkpt><trkpt lat="39.76034210720873" lon="15.906319985299262"><ele>483.4</ele><time>2026-04-26T14:04:48.999Z</time></trkpt><trkpt lat="39.76027359714579" lon="15.906433507173354"><ele>483.0</ele><time>2026-04-26T14:04:49.999Z</time></trkpt><trkpt lat="39.76026577272611" lon="15.90653291331544"><ele>483.0</ele><time>2026-04-26T14:04:50.999Z</time></trkpt><trkpt lat="39.76024960500454" lon="15.906627680606094"><ele>483.0</ele><time>2026-04-26T14:04:51.999Z</time></trkpt><trkpt lat="39.76022562412092" lon="15.906715376123318"><ele>483.0</ele><time>2026-04-26T14:04:52.999Z</time></trkpt><trkpt lat="39.76018724777372" lon="15.90679515172285"><ele>483.0</ele><time>2026-04-26T14:04:53.999Z</time></trkpt><trkpt lat="39.760162189210845" lon="15.906876593432429"><ele>483.0</ele><time>2026-04-26T14:04:54.999Z</time></trkpt><trkpt lat="39.76015918684558" lon="15.906988077433537"><ele>483.0</ele><time>2026-04-26T14:04:55.999Z</time></trkpt><trkpt lat="39.760195903420595" lon="15.907093225972824"><ele>482.1666666666667</ele><time>2026-04-26T14:04:56.999Z</time></trkpt><trkpt lat="39.760274198195766" lon="15.90716733810323"><ele>481.33333333333337</ele><time>2026-04-26T14:04:57.999Z</time></trkpt><trkpt lat="39.76037772338837" lon="15.907159959703744"><ele>480.5</ele><time>2026-04-26T14:04:58.999Z</time></trkpt><trkpt lat="39.76045662085038" lon="15.90720980828707"><ele>479.6666666666667</ele><time>2026-04-26T14:05:00.999Z</time></trkpt><trkpt lat="39.760525847282274" lon="15.90719775732638"><ele>478.83333333333337</ele><time>2026-04-26T14:05:18.999Z</time></trkpt><trkpt lat="39.76057489478625" lon="15.90725740205858"><ele>478.0</ele><time>2026-04-26T14:05:20.999Z</time></trkpt><trkpt lat="39.76063050969809" lon="15.90740359403739"><ele>478.0</ele><time>2026-04-26T14:05:22.999Z</time></trkpt><trkpt lat="39.7606408715473" lon="15.907538906522722"><ele>477.99999999999994</ele><time>2026-04-26T14:05:24.999Z</time></trkpt><trkpt lat="39.76058697693234" lon="15.90771210384049"><ele>477.99999999999994</ele><time>2026-04-26T14:05:26.999Z</time></trkpt><trkpt lat="39.7605235088496" lon="15.907788557108614"><ele>478.0</ele><time>2026-04-26T14:05:27.999Z</time></trkpt><trkpt lat="39.76045863144151" lon="15.907850881215087"><ele>478.0</ele><time>2026-04-26T14:05:28.999Z</time></trkpt><trkpt lat="39.76038943609929" lon="15.907880714779562"><ele>478.7142857142858</ele><time>2026-04-26T14:05:29.999Z</time></trkpt><trkpt lat="39.76032514952166" lon="15.907874758631687"><ele>479.42857142857144</ele><time>2026-04-26T14:05:30.999Z</time></trkpt><trkpt lat="39.76026453135778" lon="15.907848569111621"><ele>480.14285714285717</ele><time>2026-04-26T14:05:31.999Z</time></trkpt><trkpt lat="39.76018057715783" lon="15.907812089626777"><ele>480.8571428571429</ele><time>2026-04-26T14:05:33.999Z</time></trkpt><trkpt lat="39.760113945824585" lon="15.907776081926038"><ele>481.57142857142856</ele><time>2026-04-26T14:05:35.999Z</time></trkpt><trkpt lat="39.76004084133086" lon="15.907762107054445"><ele>482.2857142857143</ele><time>2026-04-26T14:05:38.999Z</time></trkpt><trkpt lat="39.759960725329755" lon="15.907770578546765"><ele>483.0</ele><time>2026-04-26T14:10:56Z</time></trkpt><trkpt lat="39.759837124899256" lon="15.907802654063461"><ele>480.4</ele><time>2026-04-26T14:10:58Z</time></trkpt><trkpt lat="39.75977541039923" lon="15.90784054970133"><ele>477.79999999999995</ele><time>2026-04-26T14:10:59Z</time></trkpt><trkpt lat="39.75967591547426" lon="15.907892706166102"><ele>475.2</ele><time>2026-04-26T14:11:01Z</time></trkpt><trkpt lat="39.75958875516998" lon="15.907936814313512"><ele>472.6</ele><time>2026-04-26T14:11:03Z</time></trkpt><trkpt lat="39.75951677899497" lon="15.907995863413657"><ele>470.0</ele><time>2026-04-26T14:11:04Z</time></trkpt><trkpt lat="39.759436691925124" lon="15.90808350896253"><ele>468.0</ele><time>2026-04-26T14:11:05Z</time></trkpt><trkpt lat="39.759358967423985" lon="15.908202984226453"><ele>466.0</ele><time>2026-04-26T14:11:06Z</time></trkpt><trkpt lat="39.75929203296604" lon="15.908316366438054"><ele>464.0</ele><time>2026-04-26T14:11:07Z</time></trkpt><trkpt lat="39.75918612334323" lon="15.908356101111591"><ele>462.0</ele><time>2026-04-26T14:11:08Z</time></trkpt><trkpt lat="39.75911150879848" lon="15.908420264835893"><ele>460.0</ele><time>2026-04-26T14:11:09Z</time></trkpt><trkpt lat="39.759030887376774" lon="15.90848811353352"><ele>460.0</ele><time>2026-04-26T14:11:10Z</time></trkpt><trkpt lat="39.758955489018874" lon="15.90856142646369"><ele>460.0</ele><time>2026-04-26T14:11:11Z</time></trkpt><trkpt lat="39.75892554298921" lon="15.908776347185821"><ele>460.0</ele><time>2026-04-26T14:11:12Z</time></trkpt><trkpt lat="39.758902226665896" lon="15.908951742622072"><ele>460.0</ele><time>2026-04-26T14:11:13Z</time></trkpt><trkpt lat="39.75888382990037" lon="15.909123767941464"><ele>459.25</ele><time>2026-04-26T14:11:14Z</time></trkpt><trkpt lat="39.75886599735052" lon="15.909275051080968"><ele>458.5</ele><time>2026-04-26T14:11:15Z</time></trkpt><trkpt lat="39.75883988101615" lon="15.909420902486737"><ele>457.75</ele><time>2026-04-26T14:11:16Z</time></trkpt><trkpt lat="39.758848708310076" lon="15.909599394388968"><ele>457.0</ele><time>2026-04-26T14:11:17Z</time></trkpt><trkpt lat="39.75885538774562" lon="15.909723312303479"><ele>457.0</ele><time>2026-04-26T14:11:18Z</time></trkpt><trkpt lat="39.75884605586169" lon="15.909848809434116"><ele>457.00000000000006</ele><time>2026-04-26T14:11:19Z</time></trkpt><trkpt lat="39.758814576197445" lon="15.909954772672805"><ele>457.00000000000006</ele><time>2026-04-26T14:11:20Z</time></trkpt><trkpt lat="39.758761217093415" lon="15.910036243438297"><ele>457.0</ele><time>2026-04-26T14:11:21Z</time></trkpt><trkpt lat="39.75869421463184" lon="15.91011635328002"><ele>457.0</ele><time>2026-04-26T14:11:22Z</time></trkpt><trkpt lat="39.75860009450708" lon="15.910159433376935"><ele>453.6</ele><time>2026-04-26T14:11:23Z</time></trkpt><trkpt lat="39.75847802675436" lon="15.910154401217605"><ele>450.20000000000005</ele><time>2026-04-26T14:11:24Z</time></trkpt><trkpt lat="39.75835928015433" lon="15.910167839160584"><ele>446.8</ele><time>2026-04-26T14:11:25Z</time></trkpt><trkpt lat="39.75825947995865" lon="15.910187928267797"><ele>443.4</ele><time>2026-04-26T14:11:26Z</time></trkpt><trkpt lat="39.75817660160834" lon="15.910221195599659"><ele>440.0</ele><time>2026-04-26T14:11:27Z</time></trkpt><trkpt lat="39.75809858962256" lon="15.910319510412675"><ele>440.0</ele><time>2026-04-26T14:11:28Z</time></trkpt><trkpt lat="39.75808775229975" lon="15.910495870711426"><ele>440.0</ele><time>2026-04-26T14:11:29Z</time></trkpt><trkpt lat="39.75811238721467" lon="15.91068050204448"><ele>440.0</ele><time>2026-04-26T14:11:29.999Z</time></trkpt><trkpt lat="39.758130679824355" lon="15.910858195057417"><ele>440.0</ele><time>2026-04-26T14:11:30.999Z</time></trkpt><trkpt lat="39.758149473450125" lon="15.911014934802708"><ele>438.0</ele><time>2026-04-26T14:11:31.999Z</time></trkpt><trkpt lat="39.758175921470574" lon="15.911168236706034"><ele>436.0</ele><time>2026-04-26T14:11:32.999Z</time></trkpt><trkpt lat="39.75821742502811" lon="15.911307547077094"><ele>434.0</ele><time>2026-04-26T14:11:33.999Z</time></trkpt><trkpt lat="39.75829135276851" lon="15.911429651229035"><ele>432.0</ele><time>2026-04-26T14:11:34.999Z</time></trkpt><trkpt lat="39.75839371645989" lon="15.911519585056825"><ele>432.0</ele><time>2026-04-26T14:11:35.999Z</time></trkpt><trkpt lat="39.758491009105605" lon="15.91158930334644"><ele>432.0</ele><time>2026-04-26T14:11:36.999Z</time></trkpt><trkpt lat="39.75857221840866" lon="15.911631076432926"><ele>432.0</ele><time>2026-04-26T14:11:37.999Z</time></trkpt><trkpt lat="39.75859106991886" lon="15.911734515308382"><ele>432.0</ele><time>2026-04-26T14:11:38.999Z</time></trkpt><trkpt lat="39.75862438563157" lon="15.911811179298827"><ele>432.0</ele><time>2026-04-26T14:11:39.999Z</time></trkpt><trkpt lat="39.75865614310453" lon="15.91191699220124"><ele>432.0</ele><time>2026-04-26T14:11:41.999Z</time></trkpt><trkpt lat="39.758658853127535" lon="15.912025468761021"><ele>435.0</ele><time>2026-04-26T14:11:44.999Z</time></trkpt><trkpt lat="39.758701234481194" lon="15.912152190705488"><ele>438.00000000000006</ele><time>2026-04-26T14:11:46.999Z</time></trkpt><trkpt lat="39.75879236566118" lon="15.912254227506448"><ele>441.00000000000006</ele><time>2026-04-26T14:11:47.999Z</time></trkpt><trkpt lat="39.7588682869148" lon="15.91233612027962"><ele>444.0</ele><time>2026-04-26T14:11:48.999Z</time></trkpt><trkpt lat="39.75892705427696" lon="15.912406685044234"><ele>447.0</ele><time>2026-04-26T14:11:49.999Z</time></trkpt><trkpt lat="39.758973402712456" lon="15.912485431956343"><ele>447.8</ele><time>2026-04-26T14:11:50.999Z</time></trkpt><trkpt lat="39.7589592058794" lon="15.912601970678875"><ele>448.6</ele><time>2026-04-26T14:11:52.999Z</time></trkpt><trkpt lat="39.75884016364276" lon="15.912635017153125"><ele>449.40000000000003</ele><time>2026-04-26T14:11:56.999Z</time></trkpt><trkpt lat="39.75872454644876" lon="15.912656672774977"><ele>450.20000000000005</ele><time>2026-04-26T14:11:57.999Z</time></trkpt><trkpt lat="39.75861708296874" lon="15.912671218442"><ele>451.0</ele><time>2026-04-26T14:11:58.999Z</time></trkpt><trkpt lat="39.75852795942613" lon="15.912678671806535"><ele>448.0</ele><time>2026-04-26T14:11:59.999Z</time></trkpt><trkpt lat="39.75843249735618" lon="15.912685689853745"><ele>445.0</ele><time>2026-04-26T14:12:00.999Z</time></trkpt><trkpt lat="39.75831237666727" lon="15.912694792682549"><ele>442.0</ele><time>2026-04-26T14:12:01.999Z</time></trkpt><trkpt lat="39.75816509553151" lon="15.91272683993232"><ele>439.0</ele><time>2026-04-26T14:12:02.999Z</time></trkpt><trkpt lat="39.75804976152174" lon="15.912798243923685"><ele>439.0</ele><time>2026-04-26T14:12:03.999Z</time></trkpt><trkpt lat="39.757949571913606" lon="15.912896680912096"><ele>439.0</ele><time>2026-04-26T14:12:04.999Z</time></trkpt><trkpt lat="39.75786941049928" lon="15.912960735888525"><ele>439.0</ele><time>2026-04-26T14:12:05.999Z</time></trkpt><trkpt lat="39.757784968267046" lon="15.912994573629442"><ele>439.0</ele><time>2026-04-26T14:12:06.999Z</time></trkpt><trkpt lat="39.757648401364435" lon="15.912980690743858"><ele>439.0</ele><time>2026-04-26T14:12:07.999Z</time></trkpt><trkpt lat="39.75751849178747" lon="15.91295954070616"><ele>440.75</ele><time>2026-04-26T14:12:08.999Z</time></trkpt><trkpt lat="39.757386784320275" lon="15.9129153585483"><ele>442.5</ele><time>2026-04-26T14:12:09.999Z</time></trkpt><trkpt lat="39.75727225490345" lon="15.912850131756992"><ele>444.25</ele><time>2026-04-26T14:12:10.999Z</time></trkpt><trkpt lat="39.757174089365236" lon="15.912774832568774"><ele>446.0</ele><time>2026-04-26T14:12:11.999Z</time></trkpt><trkpt lat="39.75713888250576" lon="15.912673834921634"><ele>445.99999999999994</ele><time>2026-04-26T14:12:13.999Z</time></trkpt><trkpt lat="39.75706088064445" lon="15.912586500608743"><ele>446.0</ele><time>2026-04-26T14:12:14.999Z</time></trkpt><trkpt lat="39.75699936657275" lon="15.912520339788779"><ele>446.0</ele><time>2026-04-26T14:12:15.999Z</time></trkpt><trkpt lat="39.75694451623481" lon="15.912476035199962"><ele>446.0</ele><time>2026-04-26T14:12:16.999Z</time></trkpt><trkpt lat="39.75687236925418" lon="15.912443528398276"><ele>445.99999999999994</ele><time>2026-04-26T14:12:19.999Z</time></trkpt><trkpt lat="39.756908067449025" lon="15.912348231712308"><ele>446.0</ele><time>2026-04-26T14:12:22.999Z</time></trkpt><trkpt lat="39.75697066717603" lon="15.912391361246293"><ele>439.3333333333333</ele><time>2026-04-26T14:12:23.999Z</time></trkpt><trkpt lat="39.757144856356256" lon="15.912474235487856"><ele>432.66666666666663</ele><time>2026-04-26T14:12:24.999Z</time></trkpt><trkpt lat="39.757299554724135" lon="15.912518735382946"><ele>426.0</ele><time>2026-04-26T14:12:25.999Z</time></trkpt><trkpt lat="39.757429703371706" lon="15.912557344112603"><ele>427.25</ele><time>2026-04-26T14:12:26.999Z</time></trkpt><trkpt lat="39.75756099514012" lon="15.91259356206706"><ele>428.5</ele><time>2026-04-26T14:12:27.999Z</time></trkpt><trkpt lat="39.757692652517356" lon="15.912617429826131"><ele>429.75</ele><time>2026-04-26T14:12:28.999Z</time></trkpt><trkpt lat="39.757847118510114" lon="15.91258633527418"><ele>431.0</ele><time>2026-04-26T14:12:29.999Z</time></trkpt><trkpt lat="39.75796375199943" lon="15.912536754796774"><ele>431.0</ele><time>2026-04-26T14:12:30.999Z</time></trkpt><trkpt lat="39.758046681557865" lon="15.912472096885312"><ele>431.0</ele><time>2026-04-26T14:12:31.999Z</time></trkpt><trkpt lat="39.758122252719964" lon="15.912401457104371"><ele>431.0</ele><time>2026-04-26T14:12:32.999Z</time></trkpt><trkpt lat="39.758163813917335" lon="15.912333878532856"><ele>431.0</ele><time>2026-04-26T14:12:33.999Z</time></trkpt><trkpt lat="39.758142564036035" lon="15.912202267224707"><ele>431.0</ele><time>2026-04-26T14:12:35.999Z</time></trkpt><trkpt lat="39.75809091039261" lon="15.91207142784828"><ele>430.99999999999994</ele><time>2026-04-26T14:12:37.999Z</time></trkpt><trkpt lat="39.75803611852141" lon="15.91201743548288"><ele>431.0</ele><time>2026-04-26T14:12:38.999Z</time></trkpt><trkpt lat="39.75795754409101" lon="15.912010356731711"><ele>431.0</ele><time>2026-04-26T14:12:39.999Z</time></trkpt><trkpt lat="39.75787034399269" lon="15.912053103079634"><ele>431.0</ele><time>2026-04-26T14:12:40.999Z</time></trkpt><trkpt lat="39.75783326028738" lon="15.912184489474045"><ele>430.99999999999994</ele><time>2026-04-26T14:12:41.999Z</time></trkpt><trkpt lat="39.757754416266046" lon="15.91221613687655"><ele>431.0</ele><time>2026-04-26T14:12:42.999Z</time></trkpt><trkpt lat="39.75767347735678" lon="15.912217957301984"><ele>429.75</ele><time>2026-04-26T14:12:43.999Z</time></trkpt><trkpt lat="39.757589266042565" lon="15.912211430311064"><ele>428.5</ele><time>2026-04-26T14:12:44.999Z</time></trkpt><trkpt lat="39.75748461112276" lon="15.912095652702154"><ele>427.25</ele><time>2026-04-26T14:12:45.999Z</time></trkpt><trkpt lat="39.75743616405503" lon="15.911965482073468"><ele>426.0</ele><time>2026-04-26T14:12:47Z</time></trkpt><trkpt lat="39.75737580121815" lon="15.911792437003676"><ele>420.0</ele><time>2026-04-26T14:12:48Z</time></trkpt><trkpt lat="39.757300498197644" lon="15.91164318289212"><ele>414.0</ele><time>2026-04-26T14:12:49Z</time></trkpt><trkpt lat="39.75717151381317" lon="15.911543734968966"><ele>408.0</ele><time>2026-04-26T14:12:50Z</time></trkpt><trkpt lat="39.757014020655596" lon="15.911482521715163"><ele>411.0</ele><time>2026-04-26T14:12:51Z</time></trkpt><trkpt lat="39.75685688814122" lon="15.911415975405486"><ele>414.0</ele><time>2026-04-26T14:12:52Z</time></trkpt><trkpt lat="39.75671537012257" lon="15.911348986171511"><ele>417.0</ele><time>2026-04-26T14:12:53Z</time></trkpt><trkpt lat="39.75657599325224" lon="15.911274991855548"><ele>417.0</ele><time>2026-04-26T14:12:54Z</time></trkpt><trkpt lat="39.7564377432523" lon="15.911203496220994"><ele>417.0</ele><time>2026-04-26T14:12:55Z</time></trkpt><trkpt lat="39.75632062400668" lon="15.911143811031428"><ele>417.0</ele><time>2026-04-26T14:12:56Z</time></trkpt><trkpt lat="39.75620076430621" lon="15.911084650956658"><ele>417.0</ele><time>2026-04-26T14:12:57Z</time></trkpt><trkpt lat="39.75607754652577" lon="15.911029570080977"><ele>418.0</ele><time>2026-04-26T14:12:58Z</time></trkpt><trkpt lat="39.75593853706872" lon="15.910979035003562"><ele>419.0</ele><time>2026-04-26T14:12:59Z</time></trkpt><trkpt lat="39.755790566972394" lon="15.910922292083914"><ele>420.0</ele><time>2026-04-26T14:13:00Z</time></trkpt><trkpt lat="39.75564277001631" lon="15.910843715233018"><ele>414.25</ele><time>2026-04-26T14:13:01Z</time></trkpt><trkpt lat="39.75550897223234" lon="15.910767038285769"><ele>408.5</ele><time>2026-04-26T14:13:02Z</time></trkpt><trkpt lat="39.75538493916689" lon="15.910690994605513"><ele>402.75</ele><time>2026-04-26T14:13:03Z</time></trkpt><trkpt lat="39.75526271343276" lon="15.910608295064558"><ele>397.0</ele><time>2026-04-26T14:13:04Z</time></trkpt><trkpt lat="39.755143817443404" lon="15.910527368999732"><ele>397.0</ele><time>2026-04-26T14:13:05Z</time></trkpt><trkpt lat="39.75503774825177" lon="15.910476057056439"><ele>397.0</ele><time>2026-04-26T14:13:06Z</time></trkpt><trkpt lat="39.75491215509815" lon="15.910429154464929"><ele>397.0</ele><time>2026-04-26T14:13:07Z</time></trkpt><trkpt lat="39.75477185024095" lon="15.910384836181"><ele>397.0</ele><time>2026-04-26T14:13:08Z</time></trkpt><trkpt lat="39.754627939920944" lon="15.910346946392645"><ele>397.0</ele><time>2026-04-26T14:13:09Z</time></trkpt><trkpt lat="39.75448560860507" lon="15.91031134401848"><ele>397.0</ele><time>2026-04-26T14:13:10Z</time></trkpt><trkpt lat="39.7543442526387" lon="15.910276717448228"><ele>397.0</ele><time>2026-04-26T14:13:11Z</time></trkpt><trkpt lat="39.7542127306692" lon="15.910242657584206"><ele>397.0</ele><time>2026-04-26T14:13:12Z</time></trkpt><trkpt lat="39.75409739171012" lon="15.910212272412963"><ele>396.5</ele><time>2026-04-26T14:13:13Z</time></trkpt><trkpt lat="39.75398676461278" lon="15.910183128551903"><ele>396.0</ele><time>2026-04-26T14:13:14Z</time></trkpt><trkpt lat="39.75383007401821" lon="15.91015034996849"><ele>395.5</ele><time>2026-04-26T14:13:15Z</time></trkpt><trkpt lat="39.75372028746165" lon="15.910164665425796"><ele>395.0</ele><time>2026-04-26T14:13:16Z</time></trkpt><trkpt lat="39.75364975566713" lon="15.910180762226846"><ele>395.0</ele><time>2026-04-26T14:13:17Z</time></trkpt><trkpt lat="39.75358319240037" lon="15.910241751738482"><ele>395.0</ele><time>2026-04-26T14:13:18Z</time></trkpt><trkpt lat="39.753519516812965" lon="15.910309166268425"><ele>395.0</ele><time>2026-04-26T14:13:19Z</time></trkpt><trkpt lat="39.753516073002395" lon="15.910499834572038"><ele>395.0</ele><time>2026-04-26T14:13:20Z</time></trkpt><trkpt lat="39.753432341228404" lon="15.91064586809809"><ele>392.25</ele><time>2026-04-26T14:13:21Z</time></trkpt><trkpt lat="39.75334206741244" lon="15.910742399296955"><ele>389.5</ele><time>2026-04-26T14:13:22Z</time></trkpt><trkpt lat="39.753252414471824" lon="15.910828512586077"><ele>386.75</ele><time>2026-04-26T14:13:23Z</time></trkpt><trkpt lat="39.75315108381069" lon="15.910875068465776"><ele>384.0</ele><time>2026-04-26T14:13:24Z</time></trkpt><trkpt lat="39.75301941422894" lon="15.910935970385403"><ele>384.0</ele><time>2026-04-26T14:13:25Z</time></trkpt><trkpt lat="39.752887952710005" lon="15.910995832667668"><ele>384.0</ele><time>2026-04-26T14:13:26Z</time></trkpt><trkpt lat="39.75278565325977" lon="15.911036714124704"><ele>384.0</ele><time>2026-04-26T14:13:27Z</time></trkpt><trkpt lat="39.75268341501328" lon="15.911026042240547"><ele>384.0</ele><time>2026-04-26T14:13:29Z</time></trkpt><trkpt lat="39.752638501563396" lon="15.91091570045026"><ele>384.0</ele><time>2026-04-26T14:13:29.999Z</time></trkpt><trkpt lat="39.75261558734418" lon="15.910755805572341"><ele>380.25</ele><time>2026-04-26T14:13:30.999Z</time></trkpt><trkpt lat="39.75256977261149" lon="15.910624295760297"><ele>376.5</ele><time>2026-04-26T14:13:31.999Z</time></trkpt><trkpt lat="39.75249423030413" lon="15.910525466777225"><ele>372.75</ele><time>2026-04-26T14:13:32.999Z</time></trkpt><trkpt lat="39.75238378482252" lon="15.910454221530205"><ele>369.0</ele><time>2026-04-26T14:13:33.999Z</time></trkpt><trkpt lat="39.75225224691995" lon="15.910371005929337"><ele>369.0</ele><time>2026-04-26T14:13:34.999Z</time></trkpt><trkpt lat="39.75210678630338" lon="15.910286867507327"><ele>369.0</ele><time>2026-04-26T14:13:35.999Z</time></trkpt><trkpt lat="39.75197249487027" lon="15.910201862407414"><ele>369.0</ele><time>2026-04-26T14:13:36.999Z</time></trkpt><trkpt lat="39.75184056802118" lon="15.91011772791593"><ele>367.75</ele><time>2026-04-26T14:13:37.999Z</time></trkpt><trkpt lat="39.75178619967376" lon="15.910051805938865"><ele>366.5</ele><time>2026-04-26T14:13:38.999Z</time></trkpt><trkpt lat="39.75166227222102" lon="15.909969140104096"><ele>365.25</ele><time>2026-04-26T14:13:39.999Z</time></trkpt><trkpt lat="39.75154120709459" lon="15.909897884932548"><ele>364.0</ele><time>2026-04-26T14:13:40.999Z</time></trkpt><trkpt lat="39.75140925202003" lon="15.909851109634772"><ele>364.0</ele><time>2026-04-26T14:13:41.999Z</time></trkpt><trkpt lat="39.7512725429921" lon="15.909847580266037"><ele>364.0</ele><time>2026-04-26T14:13:42.999Z</time></trkpt><trkpt lat="39.75111829614214" lon="15.909867354047835"><ele>364.0</ele><time>2026-04-26T14:13:43.999Z</time></trkpt><trkpt lat="39.75094767211654" lon="15.909901712190697"><ele>363.66666666666663</ele><time>2026-04-26T14:13:44.999Z</time></trkpt><trkpt lat="39.75079268587147" lon="15.909917542611383"><ele>363.3333333333333</ele><time>2026-04-26T14:13:45.999Z</time></trkpt><trkpt lat="39.75064721686776" lon="15.909898330029554"><ele>363.0</ele><time>2026-04-26T14:13:46.999Z</time></trkpt><trkpt lat="39.7504829942976" lon="15.90986278310787"><ele>363.0</ele><time>2026-04-26T14:13:47.999Z</time></trkpt><trkpt lat="39.75032689722692" lon="15.909863806601143"><ele>363.0</ele><time>2026-04-26T14:13:48.999Z</time></trkpt><trkpt lat="39.75018072763333" lon="15.90988217808251"><ele>363.0</ele><time>2026-04-26T14:13:49.999Z</time></trkpt><trkpt lat="39.750045903713605" lon="15.909885080431975"><ele>363.0</ele><time>2026-04-26T14:13:50.999Z</time></trkpt><trkpt lat="39.74991972940298" lon="15.909906190154025"><ele>360.75</ele><time>2026-04-26T14:13:51.999Z</time></trkpt><trkpt lat="39.74980738456239" lon="15.909919494807104"><ele>358.5</ele><time>2026-04-26T14:13:52.999Z</time></trkpt><trkpt lat="39.74969714217339" lon="15.909926123670203"><ele>356.25</ele><time>2026-04-26T14:13:53.999Z</time></trkpt><trkpt lat="39.749559730494646" lon="15.909871531079238"><ele>354.0</ele><time>2026-04-26T14:13:54.999Z</time></trkpt><trkpt lat="39.74942969422138" lon="15.90983681059603"><ele>351.6666666666667</ele><time>2026-04-26T14:13:55.999Z</time></trkpt><trkpt lat="39.74920131630933" lon="15.909778017841111"><ele>349.33333333333337</ele><time>2026-04-26T14:13:56.999Z</time></trkpt><trkpt lat="39.749069846143634" lon="15.909750370223206"><ele>347.0</ele><time>2026-04-26T14:13:57.999Z</time></trkpt><trkpt lat="39.74898586188193" lon="15.909761137977467"><ele>347.0</ele><time>2026-04-26T14:13:58.999Z</time></trkpt><trkpt lat="39.74892966812797" lon="15.909809887973847"><ele>347.0</ele><time>2026-04-26T14:13:59.999Z</time></trkpt><trkpt lat="39.74882883235601" lon="15.90990069499112"><ele>347.0</ele><time>2026-04-26T14:14:00.999Z</time></trkpt><trkpt lat="39.74872515149193" lon="15.90999514105648"><ele>347.0</ele><time>2026-04-26T14:14:01.999Z</time></trkpt><trkpt lat="39.74866815108343" lon="15.910107724647862"><ele>347.0</ele><time>2026-04-26T14:14:02.999Z</time></trkpt><trkpt lat="39.748573228883735" lon="15.910128843353016"><ele>349.6666666666667</ele><time>2026-04-26T14:14:03.999Z</time></trkpt><trkpt lat="39.748453043502884" lon="15.910167850848968"><ele>352.3333333333333</ele><time>2026-04-26T14:14:04.999Z</time></trkpt><trkpt lat="39.74826137070273" lon="15.91023016722543"><ele>355.0</ele><time>2026-04-26T14:14:05.999Z</time></trkpt><trkpt lat="39.748122286338" lon="15.910267133000048"><ele>355.0</ele><time>2026-04-26T14:14:06.999Z</time></trkpt><trkpt lat="39.74798293361698" lon="15.910288614891165"><ele>355.0</ele><time>2026-04-26T14:14:07.999Z</time></trkpt><trkpt lat="39.74782827030368" lon="15.910327786918714"><ele>355.0</ele><time>2026-04-26T14:14:08.999Z</time></trkpt><trkpt lat="39.747678041200075" lon="15.910369401145022"><ele>352.4</ele><time>2026-04-26T14:14:09.999Z</time></trkpt><trkpt lat="39.74758355841496" lon="15.910387787963602"><ele>349.8</ele><time>2026-04-26T14:14:10.999Z</time></trkpt><trkpt lat="39.74748375830515" lon="15.910382564926438"><ele>347.20000000000005</ele><time>2026-04-26T14:14:11.999Z</time></trkpt><trkpt lat="39.74739527205257" lon="15.910353880421484"><ele>344.6</ele><time>2026-04-26T14:14:12.999Z</time></trkpt><trkpt lat="39.747309063074866" lon="15.910335337879282"><ele>342.0</ele><time>2026-04-26T14:14:13.999Z</time></trkpt><trkpt lat="39.74724665884075" lon="15.910275396307581"><ele>342.0</ele><time>2026-04-26T14:14:14.999Z</time></trkpt><trkpt lat="39.74714379055641" lon="15.91021190518948"><ele>342.0</ele><time>2026-04-26T14:14:15.999Z</time></trkpt><trkpt lat="39.747037714722296" lon="15.910090449047813"><ele>342.0</ele><time>2026-04-26T14:14:16.999Z</time></trkpt><trkpt lat="39.74698381090897" lon="15.909985546904858"><ele>342.0</ele><time>2026-04-26T14:14:17.999Z</time></trkpt><trkpt lat="39.74688041161954" lon="15.909883042613982"><ele>339.0</ele><time>2026-04-26T14:14:18.999Z</time></trkpt><trkpt lat="39.746782768566" lon="15.909750736617342"><ele>336.0</ele><time>2026-04-26T14:14:19.999Z</time></trkpt><trkpt lat="39.7466971181975" lon="15.909633790325227"><ele>333.0</ele><time>2026-04-26T14:14:20.999Z</time></trkpt><trkpt lat="39.7466292744994" lon="15.909541156999408"><ele>330.0</ele><time>2026-04-26T14:14:21.999Z</time></trkpt><trkpt lat="39.746578685422726" lon="15.909470004438814"><ele>327.0</ele><time>2026-04-26T14:14:22.999Z</time></trkpt><trkpt lat="39.74654009162579" lon="15.909398355376874"><ele>327.0</ele><time>2026-04-26T14:14:23.999Z</time></trkpt><trkpt lat="39.74647027214496" lon="15.90938395216531"><ele>327.0</ele><time>2026-04-26T14:14:24.999Z</time></trkpt><trkpt lat="39.74636796037351" lon="15.909401049344368"><ele>327.0</ele><time>2026-04-26T14:14:25.999Z</time></trkpt><trkpt lat="39.74624911216256" lon="15.909557890921594"><ele>327.0</ele><time>2026-04-26T14:14:26.999Z</time></trkpt><trkpt lat="39.74615573550523" lon="15.909703478212363"><ele>327.0</ele><time>2026-04-26T14:14:27.999Z</time></trkpt><trkpt lat="39.74607303144245" lon="15.909803469183716"><ele>327.0</ele><time>2026-04-26T14:14:28.999Z</time></trkpt><trkpt lat="39.74597002580414" lon="15.909894300723982"><ele>327.0</ele><time>2026-04-26T14:14:29.999Z</time></trkpt><trkpt lat="39.74585335582295" lon="15.909977166187721"><ele>327.0</ele><time>2026-04-26T14:14:30.999Z</time></trkpt><trkpt lat="39.7457180340737" lon="15.909990838650424"><ele>322.0</ele><time>2026-04-26T14:14:31.999Z</time></trkpt><trkpt lat="39.745549180784884" lon="15.910000508494647"><ele>317.0</ele><time>2026-04-26T14:14:32.999Z</time></trkpt><trkpt lat="39.74539920309951" lon="15.91000603198339"><ele>312.0</ele><time>2026-04-26T14:14:33.999Z</time></trkpt><trkpt lat="39.74529088046534" lon="15.910010061375662"><ele>307.0</ele><time>2026-04-26T14:14:34.999Z</time></trkpt><trkpt lat="39.74520555632959" lon="15.910017704514358"><ele>305.0</ele><time>2026-04-26T14:14:35.999Z</time></trkpt><trkpt lat="39.74512338442176" lon="15.910039616177645"><ele>303.0</ele><time>2026-04-26T14:14:36.999Z</time></trkpt><trkpt lat="39.74505931816462" lon="15.910084720522425"><ele>301.0</ele><time>2026-04-26T14:14:37.999Z</time></trkpt><trkpt lat="39.74500289680352" lon="15.910147586330465"><ele>299.0</ele><time>2026-04-26T14:14:39.999Z</time></trkpt><trkpt lat="39.744928197372104" lon="15.910226291959269"><ele>297.0</ele><time>2026-04-26T14:14:41.999Z</time></trkpt><trkpt lat="39.74487335638594" lon="15.910269130187334"><ele>295.0</ele><time>2026-04-26T14:14:43.999Z</time></trkpt><trkpt lat="39.74480810290005" lon="15.910302495920089"><ele>294.42857142857144</ele><time>2026-04-26T14:14:47.999Z</time></trkpt><trkpt lat="39.74478071944272" lon="15.910378797755595"><ele>293.8571428571429</ele><time>2026-04-26T14:17:38.999Z</time></trkpt><trkpt lat="39.74470797881698" lon="15.910391212497533"><ele>293.2857142857143</ele><time>2026-04-26T14:22:10.999Z</time></trkpt><trkpt lat="39.74463926719581" lon="15.910364569483527"><ele>292.7142857142857</ele><time>2026-04-26T14:22:12.999Z</time></trkpt><trkpt lat="39.74457593305699" lon="15.910366423721754"><ele>292.1428571428571</ele><time>2026-04-26T14:23:34.999Z</time></trkpt><trkpt lat="39.74448969152369" lon="15.910357592411923"><ele>291.57142857142856</ele><time>2026-04-26T14:23:37.999Z</time></trkpt><trkpt lat="39.74440581150502" lon="15.910358993909096"><ele>291.0</ele><time>2026-04-26T14:23:40.999Z</time></trkpt><trkpt lat="39.744323039949734" lon="15.910411608404548"><ele>290.3333333333333</ele><time>2026-04-26T14:23:43.999Z</time></trkpt><trkpt lat="39.74425043238713" lon="15.910467148226981"><ele>289.6666666666667</ele><time>2026-04-26T14:23:45.999Z</time></trkpt><trkpt lat="39.7441587599906" lon="15.910515702821531"><ele>289.0</ele><time>2026-04-26T14:23:47.999Z</time></trkpt><trkpt lat="39.74409783771273" lon="15.910537797454786"><ele>288.33333333333337</ele><time>2026-04-26T14:23:48.999Z</time></trkpt><trkpt lat="39.74403220380339" lon="15.91054726830604"><ele>287.6666666666667</ele><time>2026-04-26T14:23:49.999Z</time></trkpt><trkpt lat="39.74396241523386" lon="15.91049150193097"><ele>287.0</ele><time>2026-04-26T14:23:50.999Z</time></trkpt><trkpt lat="39.743893680407" lon="15.910504747008748"><ele>287.0</ele><time>2026-04-26T14:23:51.999Z</time></trkpt><trkpt lat="39.74382170661892" lon="15.910518380377768"><ele>287.0</ele><time>2026-04-26T14:23:52.999Z</time></trkpt><trkpt lat="39.74374603342438" lon="15.910531155840237"><ele>287.0</ele><time>2026-04-26T14:23:53.999Z</time></trkpt><trkpt lat="39.743662796949216" lon="15.910539816016044"><ele>287.0</ele><time>2026-04-26T14:23:54.999Z</time></trkpt><trkpt lat="39.743574656331674" lon="15.910548979026213"><ele>287.0</ele><time>2026-04-26T14:23:55.999Z</time></trkpt><trkpt lat="39.743474294751145" lon="15.91057039818637"><ele>287.0</ele><time>2026-04-26T14:23:56.999Z</time></trkpt><trkpt lat="39.7433795752747" lon="15.910612386017933"><ele>285.33333333333337</ele><time>2026-04-26T14:23:57.999Z</time></trkpt><trkpt lat="39.74328750919408" lon="15.910655415984886"><ele>283.6666666666667</ele><time>2026-04-26T14:23:58.999Z</time></trkpt><trkpt lat="39.74321466489809" lon="15.910689462070359"><ele>282.0</ele><time>2026-04-26T14:23:59.999Z</time></trkpt><trkpt lat="39.743149584779246" lon="15.910720667955681"><ele>280.3333333333333</ele><time>2026-04-26T14:24:00.999Z</time></trkpt><trkpt lat="39.74308446112457" lon="15.910752189565772"><ele>278.66666666666663</ele><time>2026-04-26T14:24:01.999Z</time></trkpt><trkpt lat="39.74298335126663" lon="15.910801129594036"><ele>277.0</ele><time>2026-04-26T14:24:03.999Z</time></trkpt><trkpt lat="39.74289888179455" lon="15.910842951332874"><ele>277.0</ele><time>2026-04-26T14:24:05.999Z</time></trkpt><trkpt lat="39.74282608357219" lon="15.910880335241504"><ele>277.0</ele><time>2026-04-26T14:24:09.999Z</time></trkpt><trkpt lat="39.74274304977471" lon="15.910922975322288"><ele>277.0</ele><time>2026-04-26T14:24:12.999Z</time></trkpt><trkpt lat="39.74266425526856" lon="15.910969489406183"><ele>277.0</ele><time>2026-04-26T14:24:14.999Z</time></trkpt><trkpt lat="39.74255682098" lon="15.911070574578048"><ele>277.0</ele><time>2026-04-26T14:24:16.999Z</time></trkpt><trkpt lat="39.74248335765793" lon="15.911183247978345"><ele>272.25</ele><time>2026-04-26T14:24:17.999Z</time></trkpt><trkpt lat="39.74240584349655" lon="15.911325829334562"><ele>267.5</ele><time>2026-04-26T14:24:18.999Z</time></trkpt><trkpt lat="39.74233076468418" lon="15.911475157738277"><ele>262.75</ele><time>2026-04-26T14:24:19.999Z</time></trkpt><trkpt lat="39.74226267094407" lon="15.911610068082664"><ele>258.0</ele><time>2026-04-26T14:24:20.999Z</time></trkpt><trkpt lat="39.74220380246448" lon="15.911712454716584"><ele>255.83333333333334</ele><time>2026-04-26T14:24:21.999Z</time></trkpt><trkpt lat="39.74214766615324" lon="15.911779612990605"><ele>253.66666666666669</ele><time>2026-04-26T14:24:22.999Z</time></trkpt><trkpt lat="39.74208787723583" lon="15.911833557860042"><ele>251.5</ele><time>2026-04-26T14:24:23.999Z</time></trkpt><trkpt lat="39.742017327146144" lon="15.911871900911429"><ele>249.33333333333334</ele><time>2026-04-26T14:24:24.999Z</time></trkpt><trkpt lat="39.741928920321676" lon="15.911883205004818"><ele>247.16666666666669</ele><time>2026-04-26T14:24:25.999Z</time></trkpt><trkpt lat="39.74183337461227" lon="15.911862980409177"><ele>245.0</ele><time>2026-04-26T14:24:26.999Z</time></trkpt><trkpt lat="39.741744543315974" lon="15.911818802877189"><ele>243.0</ele><time>2026-04-26T14:24:27.999Z</time></trkpt><trkpt lat="39.74165912594126" lon="15.911786927411729"><ele>241.0</ele><time>2026-04-26T14:24:28.999Z</time></trkpt><trkpt lat="39.74156826658492" lon="15.911773721762081"><ele>239.0</ele><time>2026-04-26T14:24:29.999Z</time></trkpt><trkpt lat="39.74146899124998" lon="15.9117956025536"><ele>237.0</ele><time>2026-04-26T14:24:30.999Z</time></trkpt><trkpt lat="39.74137886100823" lon="15.911870734010737"><ele>235.0</ele><time>2026-04-26T14:24:31.999Z</time></trkpt><trkpt lat="39.74133460553064" lon="15.911958063973804"><ele>235.0</ele><time>2026-04-26T14:24:32.999Z</time></trkpt><trkpt lat="39.74128596699206" lon="15.91201856581221"><ele>235.0</ele><time>2026-04-26T14:24:35.999Z</time></trkpt><trkpt lat="39.74124907897291" lon="15.91193841512088"><ele>235.0</ele><time>2026-04-26T14:24:36.999Z</time></trkpt><trkpt lat="39.741209998687665" lon="15.911873579645201"><ele>235.0</ele><time>2026-04-26T14:24:37.999Z</time></trkpt><trkpt lat="39.74107727348071" lon="15.911858350416326"><ele>235.0</ele><time>2026-04-26T14:24:39.999Z</time></trkpt><trkpt lat="39.740984026304126" lon="15.911949039187189"><ele>232.2</ele><time>2026-04-26T14:24:40.999Z</time></trkpt><trkpt lat="39.740917088551896" lon="15.912042336287659"><ele>229.4</ele><time>2026-04-26T14:24:41.999Z</time></trkpt><trkpt lat="39.740858736551004" lon="15.912159389612487"><ele>226.60000000000002</ele><time>2026-04-26T14:24:42.999Z</time></trkpt><trkpt lat="39.74080413729106" lon="15.91229733431262"><ele>223.8</ele><time>2026-04-26T14:24:43.999Z</time></trkpt><trkpt lat="39.740770034374265" lon="15.912411954705606"><ele>221.0</ele><time>2026-04-26T14:24:44.999Z</time></trkpt><trkpt lat="39.74074734190811" lon="15.912501467381245"><ele>220.4</ele><time>2026-04-26T14:24:45.999Z</time></trkpt><trkpt lat="39.74072734280215" lon="15.912598254183601"><ele>219.8</ele><time>2026-04-26T14:24:46.999Z</time></trkpt><trkpt lat="39.74070418093304" lon="15.91271760648003"><ele>219.20000000000002</ele><time>2026-04-26T14:24:47.999Z</time></trkpt><trkpt lat="39.740728846153054" lon="15.912894031045587"><ele>218.60000000000002</ele><time>2026-04-26T14:24:48.999Z</time></trkpt><trkpt lat="39.740722291441024" lon="15.913023576099599"><ele>218.0</ele><time>2026-04-26T14:24:49.999Z</time></trkpt><trkpt lat="39.740694766163365" lon="15.913169900542375"><ele>218.0</ele><time>2026-04-26T14:24:50.999Z</time></trkpt><trkpt lat="39.740649210905175" lon="15.913321904313246"><ele>218.0</ele><time>2026-04-26T14:24:51.999Z</time></trkpt><trkpt lat="39.74060041712708" lon="15.913457308639249"><ele>218.0</ele><time>2026-04-26T14:24:52.999Z</time></trkpt><trkpt lat="39.740543559800656" lon="15.913590570652097"><ele>218.0</ele><time>2026-04-26T14:24:53.999Z</time></trkpt><trkpt lat="39.74048709892299" lon="15.913712218311536"><ele>219.16666666666669</ele><time>2026-04-26T14:24:54.999Z</time></trkpt><trkpt lat="39.74043433421738" lon="15.913825902224266"><ele>220.33333333333334</ele><time>2026-04-26T14:24:55.999Z</time></trkpt><trkpt lat="39.740388102518914" lon="15.913934978496862"><ele>221.5</ele><time>2026-04-26T14:24:56.999Z</time></trkpt><trkpt lat="39.74034731314324" lon="15.914029994046366"><ele>222.66666666666669</ele><time>2026-04-26T14:24:57.999Z</time></trkpt><trkpt lat="39.74030834569898" lon="15.91410146712632"><ele>223.83333333333334</ele><time>2026-04-26T14:24:58.999Z</time></trkpt><trkpt lat="39.74026421134759" lon="15.914162759939755"><ele>225.0</ele><time>2026-04-26T14:24:59.998Z</time></trkpt><trkpt lat="39.74016045629747" lon="15.914221703154588"><ele>225.16666666666666</ele><time>2026-04-26T14:25:01.998Z</time></trkpt><trkpt lat="39.74009135987036" lon="15.914247351180903"><ele>225.33333333333331</ele><time>2026-04-26T14:25:02.998Z</time></trkpt><trkpt lat="39.740012978624" lon="15.914260720688286"><ele>225.5</ele><time>2026-04-26T14:25:03.998Z</time></trkpt><trkpt lat="39.73992247643156" lon="15.914205574726058"><ele>225.66666666666666</ele><time>2026-04-26T14:25:04.998Z</time></trkpt><trkpt lat="39.739834199383026" lon="15.914155256364998"><ele>225.83333333333331</ele><time>2026-04-26T14:25:05.998Z</time></trkpt><trkpt lat="39.73975357127378" lon="15.914106712280788"><ele>226.0</ele><time>2026-04-26T14:25:06.998Z</time></trkpt><trkpt lat="39.73965003710049" lon="15.914110376810852"><ele>226.0</ele><time>2026-04-26T14:25:08.998Z</time></trkpt><trkpt lat="39.739594668005665" lon="15.9140046208156"><ele>226.00000000000003</ele><time>2026-04-26T14:25:10.998Z</time></trkpt><trkpt lat="39.739618879694966" lon="15.913919116248028"><ele>226.00000000000003</ele><time>2026-04-26T14:25:11.998Z</time></trkpt><trkpt lat="39.73964753000265" lon="15.913809652388364"><ele>226.0</ele><time>2026-04-26T14:25:12.998Z</time></trkpt><trkpt lat="39.7396814294481" lon="15.91368144548833"><ele>226.0</ele><time>2026-04-26T14:25:13.998Z</time></trkpt><trkpt lat="39.73971136942121" lon="15.913538512098356"><ele>225.5</ele><time>2026-04-26T14:25:14.998Z</time></trkpt><trkpt lat="39.73972698567436" lon="15.913386183416028"><ele>225.0</ele><time>2026-04-26T14:25:15.998Z</time></trkpt><trkpt lat="39.739732814326615" lon="15.913199331960058"><ele>224.5</ele><time>2026-04-26T14:25:16.998Z</time></trkpt><trkpt lat="39.73973427483338" lon="15.913011391271064"><ele>224.0</ele><time>2026-04-26T14:25:17.998Z</time></trkpt><trkpt lat="39.739734006265735" lon="15.912834048961809"><ele>224.0</ele><time>2026-04-26T14:25:18.998Z</time></trkpt><trkpt lat="39.73972448702197" lon="15.912656223966513"><ele>224.0</ele><time>2026-04-26T14:25:19.998Z</time></trkpt><trkpt lat="39.73970093883812" lon="15.91248306461073"><ele>224.0</ele><time>2026-04-26T14:25:20.999Z</time></trkpt><trkpt lat="39.73966839259179" lon="15.912332451971537"><ele>224.0</ele><time>2026-04-26T14:25:21.999Z</time></trkpt><trkpt lat="39.73963019234784" lon="15.91218549837034"><ele>224.0</ele><time>2026-04-26T14:25:22.999Z</time></trkpt><trkpt lat="39.73958449850585" lon="15.912044232318413"><ele>224.0</ele><time>2026-04-26T14:25:23.999Z</time></trkpt><trkpt lat="39.73953277934673" lon="15.911887071510547"><ele>224.0</ele><time>2026-04-26T14:25:24.999Z</time></trkpt><trkpt lat="39.73948951499615" lon="15.911707968086489"><ele>224.0</ele><time>2026-04-26T14:25:25.999Z</time></trkpt><trkpt lat="39.7394489092839" lon="15.911519578247265"><ele>223.33333333333334</ele><time>2026-04-26T14:25:26.999Z</time></trkpt><trkpt lat="39.73939719785204" lon="15.911313998372396"><ele>222.66666666666669</ele><time>2026-04-26T14:25:27.999Z</time></trkpt><trkpt lat="39.73936505020679" lon="15.911116621363108"><ele>222.0</ele><time>2026-04-26T14:25:28.999Z</time></trkpt><trkpt lat="39.739335093934635" lon="15.910928859873668"><ele>224.0</ele><time>2026-04-26T14:25:29.999Z</time></trkpt><trkpt lat="39.73930433526992" lon="15.910754869883204"><ele>226.0</ele><time>2026-04-26T14:25:30.999Z</time></trkpt><trkpt lat="39.739276670214856" lon="15.910590939096206"><ele>228.0</ele><time>2026-04-26T14:25:31.999Z</time></trkpt><trkpt lat="39.73925255727449" lon="15.9104352117776"><ele>230.0</ele><time>2026-04-26T14:25:32.999Z</time></trkpt><trkpt lat="39.739228115112375" lon="15.910276069172081"><ele>230.0</ele><time>2026-04-26T14:25:33.999Z</time></trkpt><trkpt lat="39.739197310791006" lon="15.910087313986814"><ele>230.0</ele><time>2026-04-26T14:25:34.999Z</time></trkpt><trkpt lat="39.73916685827684" lon="15.909892671978165"><ele>230.0</ele><time>2026-04-26T14:25:35.999Z</time></trkpt><trkpt lat="39.73914128915099" lon="15.90972448111309"><ele>230.0</ele><time>2026-04-26T14:25:36.999Z</time></trkpt><trkpt lat="39.73911385538451" lon="15.909574307099128"><ele>230.0</ele><time>2026-04-26T14:25:37.999Z</time></trkpt><trkpt lat="39.73909158197446" lon="15.909443059256816"><ele>230.0</ele><time>2026-04-26T14:25:38.999Z</time></trkpt><trkpt lat="39.73907876091384" lon="15.909326067282132"><ele>230.0</ele><time>2026-04-26T14:25:39.999Z</time></trkpt><trkpt lat="39.73908831288279" lon="15.909184178592806"><ele>230.0</ele><time>2026-04-26T14:25:40.999Z</time></trkpt><trkpt lat="39.7391414516876" lon="15.909024293586622"><ele>230.0</ele><time>2026-04-26T14:25:41.999Z</time></trkpt><trkpt lat="39.7392228867749" lon="15.908908257582963"><ele>231.25</ele><time>2026-04-26T14:25:42.999Z</time></trkpt><trkpt lat="39.73931254458076" lon="15.908795561809157"><ele>232.5</ele><time>2026-04-26T14:25:43.999Z</time></trkpt><trkpt lat="39.73941693003877" lon="15.908673042898782"><ele>233.75</ele><time>2026-04-26T14:25:44.999Z</time></trkpt><trkpt lat="39.73954242702646" lon="15.90853198911818"><ele>235.0</ele><time>2026-04-26T14:25:45.999Z</time></trkpt><trkpt lat="39.73966406823923" lon="15.908372688083013"><ele>235.25</ele><time>2026-04-26T14:25:46.999Z</time></trkpt><trkpt lat="39.73978269276003" lon="15.90821206810531"><ele>235.5</ele><time>2026-04-26T14:25:47.999Z</time></trkpt><trkpt lat="39.7398732935086" lon="15.908092278683045"><ele>235.75</ele><time>2026-04-26T14:25:48.999Z</time></trkpt><trkpt lat="39.73993192065641" lon="15.907967443942201"><ele>236.0</ele><time>2026-04-26T14:25:49.999Z</time></trkpt><trkpt lat="39.73995864716514" lon="15.90787146807272"><ele>236.0</ele><time>2026-04-26T14:25:50.999Z</time></trkpt><trkpt lat="39.73999312466824" lon="15.90772799776968"><ele>236.0</ele><time>2026-04-26T14:25:52.999Z</time></trkpt><trkpt lat="39.74001568916823" lon="15.907621707164445"><ele>236.0</ele><time>2026-04-26T14:25:53.999Z</time></trkpt><trkpt lat="39.740023025368096" lon="15.907474959665105"><ele>236.0</ele><time>2026-04-26T14:25:54.999Z</time></trkpt><trkpt lat="39.73999721899679" lon="15.907284358039728"><ele>239.75</ele><time>2026-04-26T14:25:55.999Z</time></trkpt><trkpt lat="39.73996078948941" lon="15.907063182508962"><ele>243.5</ele><time>2026-04-26T14:25:56.999Z</time></trkpt><trkpt lat="39.73995078527669" lon="15.906867270754141"><ele>247.25</ele><time>2026-04-26T14:25:57.999Z</time></trkpt><trkpt lat="39.73994276110345" lon="15.906724935038254"><ele>251.0</ele><time>2026-04-26T14:25:58.999Z</time></trkpt><trkpt lat="39.73992152394983" lon="15.906606157706136"><ele>251.25</ele><time>2026-04-26T14:25:59.999Z</time></trkpt><trkpt lat="39.73988493763679" lon="15.906496018475977"><ele>251.5</ele><time>2026-04-26T14:26:00.999Z</time></trkpt><trkpt lat="39.73983197925778" lon="15.906326749506038"><ele>251.75</ele><time>2026-04-26T14:26:01.999Z</time></trkpt><trkpt lat="39.7397966362545" lon="15.906169272119739"><ele>252.0</ele><time>2026-04-26T14:26:02.999Z</time></trkpt><trkpt lat="39.7397750388113" lon="15.906021021009103"><ele>253.0</ele><time>2026-04-26T14:26:03.999Z</time></trkpt><trkpt lat="39.73976641900903" lon="15.905838748327124"><ele>254.0</ele><time>2026-04-26T14:26:04.999Z</time></trkpt><trkpt lat="39.739768733150065" lon="15.905613403714396"><ele>255.0</ele><time>2026-04-26T14:26:05.999Z</time></trkpt><trkpt lat="39.739787647536225" lon="15.905405717650165"><ele>255.0</ele><time>2026-04-26T14:26:06.999Z</time></trkpt><trkpt lat="39.73979542309073" lon="15.905244144600145"><ele>255.0</ele><time>2026-04-26T14:26:07.999Z</time></trkpt><trkpt lat="39.73978512308438" lon="15.905083597982113"><ele>255.0</ele><time>2026-04-26T14:26:08.999Z</time></trkpt><trkpt lat="39.73980204697739" lon="15.904907947757954"><ele>255.0</ele><time>2026-04-26T14:26:09.999Z</time></trkpt><trkpt lat="39.73983223018525" lon="15.90473413177203"><ele>257.5</ele><time>2026-04-26T14:26:10.999Z</time></trkpt><trkpt lat="39.73987445148585" lon="15.904563725205474"><ele>260.0</ele><time>2026-04-26T14:26:11.999Z</time></trkpt><trkpt lat="39.73994830458189" lon="15.904386147913378"><ele>262.5</ele><time>2026-04-26T14:26:12.999Z</time></trkpt><trkpt lat="39.74000446373385" lon="15.904253949556262"><ele>265.0</ele><time>2026-04-26T14:26:13.999Z</time></trkpt><trkpt lat="39.74004055624875" lon="15.904135270665956"><ele>267.2</ele><time>2026-04-26T14:26:14.999Z</time></trkpt><trkpt lat="39.740052060451994" lon="15.90402417559786"><ele>269.4</ele><time>2026-04-26T14:26:15.999Z</time></trkpt><trkpt lat="39.740050209936875" lon="15.903881111196558"><ele>271.6</ele><time>2026-04-26T14:26:16.999Z</time></trkpt><trkpt lat="39.740041029325006" lon="15.903708160733773"><ele>273.8</ele><time>2026-04-26T14:26:17.999Z</time></trkpt><trkpt lat="39.740029562030436" lon="15.903562411136857"><ele>276.0</ele><time>2026-04-26T14:26:18.999Z</time></trkpt><trkpt lat="39.74009605563004" lon="15.903432011808855"><ele>276.0</ele><time>2026-04-26T14:26:19.999Z</time></trkpt><trkpt lat="39.74005495197491" lon="15.903326499362016"><ele>276.0</ele><time>2026-04-26T14:26:20.999Z</time></trkpt><trkpt lat="39.73998780884445" lon="15.903247493505846"><ele>276.0</ele><time>2026-04-26T14:26:21.999Z</time></trkpt><trkpt lat="39.73990288528581" lon="15.903216761935429"><ele>276.0</ele><time>2026-04-26T14:26:22.999Z</time></trkpt><trkpt lat="39.73981624312787" lon="15.903243201809314"><ele>276.0</ele><time>2026-04-26T14:26:23.999Z</time></trkpt><trkpt lat="39.73976100590472" lon="15.903325390122781"><ele>276.0</ele><time>2026-04-26T14:26:24.999Z</time></trkpt><trkpt lat="39.73973287667608" lon="15.903432951664541"><ele>276.0</ele><time>2026-04-26T14:26:25.999Z</time></trkpt><trkpt lat="39.73972599772643" lon="15.90358135558279"><ele>276.0</ele><time>2026-04-26T14:26:26.999Z</time></trkpt><trkpt lat="39.739735686380236" lon="15.903744077757741"><ele>276.0</ele><time>2026-04-26T14:26:27.999Z</time></trkpt><trkpt lat="39.73974692353338" lon="15.90388335393661"><ele>276.0</ele><time>2026-04-26T14:26:28.999Z</time></trkpt><trkpt lat="39.7397387230153" lon="15.90400805082691"><ele>276.0</ele><time>2026-04-26T14:26:29.999Z</time></trkpt><trkpt lat="39.73970273140312" lon="15.904138916435933"><ele>273.8</ele><time>2026-04-26T14:26:30.999Z</time></trkpt><trkpt lat="39.73965072562947" lon="15.904261378751666"><ele>271.6</ele><time>2026-04-26T14:26:31.999Z</time></trkpt><trkpt lat="39.739599985842425" lon="15.904358856412355"><ele>269.4</ele><time>2026-04-26T14:26:32.999Z</time></trkpt><trkpt lat="39.73954119359975" lon="15.904464539011371"><ele>267.2</ele><time>2026-04-26T14:26:33.999Z</time></trkpt><trkpt lat="39.73948291487614" lon="15.904596421644596"><ele>265.0</ele><time>2026-04-26T14:26:34.999Z</time></trkpt><trkpt lat="39.73940724986521" lon="15.904735183999552"><ele>271.25</ele><time>2026-04-26T14:26:35.999Z</time></trkpt><trkpt lat="39.73933481156263" lon="15.904875014372985"><ele>277.5</ele><time>2026-04-26T14:26:36.999Z</time></trkpt><trkpt lat="39.73926191800758" lon="15.905031998026528"><ele>283.75</ele><time>2026-04-26T14:26:37.999Z</time></trkpt><trkpt lat="39.739191369942155" lon="15.90518586970254"><ele>290.0</ele><time>2026-04-26T14:26:38.999Z</time></trkpt><trkpt lat="39.7391164421127" lon="15.90533527045373"><ele>290.0</ele><time>2026-04-26T14:26:39.999Z</time></trkpt><trkpt lat="39.73904550117629" lon="15.90547149207675"><ele>290.0</ele><time>2026-04-26T14:26:40.999Z</time></trkpt><trkpt lat="39.73898576713505" lon="15.905592407692863"><ele>290.0</ele><time>2026-04-26T14:26:41.999Z</time></trkpt><trkpt lat="39.738923762551146" lon="15.905709843214547"><ele>290.0</ele><time>2026-04-26T14:26:42.999Z</time></trkpt><trkpt lat="39.73883979941411" lon="15.905834437500486"><ele>290.0</ele><time>2026-04-26T14:26:43.999Z</time></trkpt><trkpt lat="39.73867351056322" lon="15.905861487528169"><ele>290.0</ele><time>2026-04-26T14:26:44.999Z</time></trkpt><trkpt lat="39.73857383940089" lon="15.90594399705693"><ele>290.0</ele><time>2026-04-26T14:26:45.999Z</time></trkpt><trkpt lat="39.738490361378254" lon="15.90600208714801"><ele>290.0</ele><time>2026-04-26T14:26:46.999Z</time></trkpt><trkpt lat="39.73841666317869" lon="15.906037045360756"><ele>290.6</ele><time>2026-04-26T14:26:47.999Z</time></trkpt><trkpt lat="39.73833630271025" lon="15.906052554820509"><ele>291.2</ele><time>2026-04-26T14:26:48.999Z</time></trkpt><trkpt lat="39.738240321691556" lon="15.90604295150766"><ele>291.8</ele><time>2026-04-26T14:26:49.999Z</time></trkpt><trkpt lat="39.73815263570224" lon="15.905968687047126"><ele>292.4</ele><time>2026-04-26T14:26:50.999Z</time></trkpt><trkpt lat="39.73807780456814" lon="15.90588697983687"><ele>293.0</ele><time>2026-04-26T14:26:51.999Z</time></trkpt><trkpt lat="39.73801528328171" lon="15.905788019816079"><ele>295.5</ele><time>2026-04-26T14:26:52.999Z</time></trkpt><trkpt lat="39.73794537961778" lon="15.905688870508703"><ele>298.0</ele><time>2026-04-26T14:26:53.999Z</time></trkpt><trkpt lat="39.7379098532487" lon="15.90554013415031"><ele>300.5</ele><time>2026-04-26T14:26:54.999Z</time></trkpt><trkpt lat="39.73790250658956" lon="15.90537737823172"><ele>303.0</ele><time>2026-04-26T14:26:55.999Z</time></trkpt><trkpt lat="39.73791386669955" lon="15.905205380233388"><ele>305.6666666666667</ele><time>2026-04-26T14:26:56.999Z</time></trkpt><trkpt lat="39.73795035407524" lon="15.905008855443192"><ele>308.33333333333337</ele><time>2026-04-26T14:26:57.999Z</time></trkpt><trkpt lat="39.73799156652753" lon="15.90481103930237"><ele>311.0</ele><time>2026-04-26T14:26:58.999Z</time></trkpt><trkpt lat="39.738032481159514" lon="15.904613100808369"><ele>311.0</ele><time>2026-04-26T14:26:59.999Z</time></trkpt><trkpt lat="39.73807673139405" lon="15.90440121207131"><ele>311.0</ele><time>2026-04-26T14:27:00.999Z</time></trkpt><trkpt lat="39.73811878571505" lon="15.904203413106288"><ele>311.0</ele><time>2026-04-26T14:27:01.999Z</time></trkpt><trkpt lat="39.73814578372917" lon="15.90403748134757"><ele>313.0</ele><time>2026-04-26T14:27:02.999Z</time></trkpt><trkpt lat="39.738167037066724" lon="15.903861355991008"><ele>315.0</ele><time>2026-04-26T14:27:03.999Z</time></trkpt><trkpt lat="39.73818884647188" lon="15.903660059650463"><ele>317.0</ele><time>2026-04-26T14:27:04.999Z</time></trkpt><trkpt lat="39.738211705975395" lon="15.903432455899987"><ele>318.5</ele><time>2026-04-26T14:27:05.999Z</time></trkpt><trkpt lat="39.73823081478838" lon="15.9032348661213"><ele>320.0</ele><time>2026-04-26T14:27:06.999Z</time></trkpt><trkpt lat="39.73824491577032" lon="15.903051576596308"><ele>321.5</ele><time>2026-04-26T14:27:07.999Z</time></trkpt><trkpt lat="39.738258114764704" lon="15.90286779297675"><ele>323.0</ele><time>2026-04-26T14:27:08.999Z</time></trkpt><trkpt lat="39.73828041363379" lon="15.902661548994534"><ele>326.0</ele><time>2026-04-26T14:27:09.999Z</time></trkpt><trkpt lat="39.73830553559848" lon="15.902475310546144"><ele>329.0</ele><time>2026-04-26T14:27:10.999Z</time></trkpt><trkpt lat="39.73834411242908" lon="15.902309266631152"><ele>332.0</ele><time>2026-04-26T14:27:11.999Z</time></trkpt><trkpt lat="39.7383686417772" lon="15.902185716778682"><ele>335.0</ele><time>2026-04-26T14:27:12.999Z</time></trkpt><trkpt lat="39.73837031999756" lon="15.902062604608252"><ele>335.0</ele><time>2026-04-26T14:27:13.999Z</time></trkpt><trkpt lat="39.73833946231019" lon="15.901959185363518"><ele>335.0</ele><time>2026-04-26T14:27:14.999Z</time></trkpt><trkpt lat="39.738277986870486" lon="15.901838745400891"><ele>335.0</ele><time>2026-04-26T14:27:15.999Z</time></trkpt><trkpt lat="39.738203688541724" lon="15.901698818563059"><ele>335.0</ele><time>2026-04-26T14:27:16.999Z</time></trkpt><trkpt lat="39.73810747399463" lon="15.901567079017497"><ele>335.0</ele><time>2026-04-26T14:27:17.999Z</time></trkpt><trkpt lat="39.73797622642426" lon="15.901469857047045"><ele>335.0</ele><time>2026-04-26T14:27:18.998Z</time></trkpt><trkpt lat="39.73785260804541" lon="15.901349899988125"><ele>335.0</ele><time>2026-04-26T14:27:19.998Z</time></trkpt><trkpt lat="39.73773875465926" lon="15.901234853856657"><ele>335.0</ele><time>2026-04-26T14:27:20.998Z</time></trkpt><trkpt lat="39.737661666431705" lon="15.901057998371256"><ele>340.33333333333337</ele><time>2026-04-26T14:27:21.998Z</time></trkpt><trkpt lat="39.73757092826992" lon="15.900904444634723"><ele>345.6666666666667</ele><time>2026-04-26T14:27:22.998Z</time></trkpt><trkpt lat="39.73748866247467" lon="15.900765529456226"><ele>351.0</ele><time>2026-04-26T14:27:23.998Z</time></trkpt><trkpt lat="39.737326681349096" lon="15.900634346356668"><ele>351.0</ele><time>2026-04-26T14:27:24.998Z</time></trkpt><trkpt lat="39.73725364769181" lon="15.900476849349428"><ele>351.0</ele><time>2026-04-26T14:27:26Z</time></trkpt><trkpt lat="39.737172472748824" lon="15.90032547245105"><ele>351.0</ele><time>2026-04-26T14:27:27Z</time></trkpt><trkpt lat="39.737079538386475" lon="15.900157873280653"><ele>351.0</ele><time>2026-04-26T14:27:28Z</time></trkpt><trkpt lat="39.73698689226154" lon="15.89997033631816"><ele>350.75</ele><time>2026-04-26T14:27:29Z</time></trkpt><trkpt lat="39.73690629710188" lon="15.89979727065175"><ele>350.5</ele><time>2026-04-26T14:27:30Z</time></trkpt><trkpt lat="39.73683935190865" lon="15.899620807152388"><ele>350.25</ele><time>2026-04-26T14:27:31Z</time></trkpt><trkpt lat="39.7367912148327" lon="15.899475415577463"><ele>350.0</ele><time>2026-04-26T14:27:32Z</time></trkpt><trkpt lat="39.73676521545232" lon="15.899342701770562"><ele>356.0</ele><time>2026-04-26T14:27:33Z</time></trkpt><trkpt lat="39.7367564972432" lon="15.899176558269192"><ele>362.0</ele><time>2026-04-26T14:27:34Z</time></trkpt><trkpt lat="39.73676762588871" lon="15.899004437460176"><ele>368.0</ele><time>2026-04-26T14:27:35Z</time></trkpt><trkpt lat="39.73679380354759" lon="15.898803408943882"><ele>374.0</ele><time>2026-04-26T14:27:36Z</time></trkpt><trkpt lat="39.73683184917019" lon="15.89858634418718"><ele>374.0</ele><time>2026-04-26T14:27:37Z</time></trkpt><trkpt lat="39.736878856106806" lon="15.898425496851036"><ele>374.0</ele><time>2026-04-26T14:27:38Z</time></trkpt><trkpt lat="39.7369317362628" lon="15.898271555864902"><ele>374.0</ele><time>2026-04-26T14:27:39Z</time></trkpt><trkpt lat="39.7369811297489" lon="15.898153685846586"><ele>374.0</ele><time>2026-04-26T14:27:40Z</time></trkpt><trkpt lat="39.73703396141625" lon="15.898032317072204"><ele>372.5</ele><time>2026-04-26T14:27:41Z</time></trkpt><trkpt lat="39.737100090333655" lon="15.89790309491883"><ele>371.0</ele><time>2026-04-26T14:27:42Z</time></trkpt><trkpt lat="39.73716115198951" lon="15.897783153651025"><ele>369.5</ele><time>2026-04-26T14:27:43Z</time></trkpt><trkpt lat="39.737308883018216" lon="15.897703853313269"><ele>368.0</ele><time>2026-04-26T14:27:44Z</time></trkpt><trkpt lat="39.73735176541211" lon="15.897578908786985"><ele>368.0</ele><time>2026-04-26T14:27:45Z</time></trkpt><trkpt lat="39.73734745994426" lon="15.897430890128236"><ele>368.0</ele><time>2026-04-26T14:27:46Z</time></trkpt><trkpt lat="39.73727161923815" lon="15.897296407530051"><ele>368.0</ele><time>2026-04-26T14:27:46.999Z</time></trkpt><trkpt lat="39.737183772107784" lon="15.897132840017031"><ele>368.0</ele><time>2026-04-26T14:27:47.999Z</time></trkpt><trkpt lat="39.73709565803193" lon="15.896958756407304"><ele>366.33333333333337</ele><time>2026-04-26T14:27:48.999Z</time></trkpt><trkpt lat="39.73698897603188" lon="15.89673755273688"><ele>364.6666666666667</ele><time>2026-04-26T14:27:49.999Z</time></trkpt><trkpt lat="39.73686812010822" lon="15.896549437304943"><ele>363.0</ele><time>2026-04-26T14:27:50.999Z</time></trkpt><trkpt lat="39.73677268334599" lon="15.896387066177422"><ele>369.0</ele><time>2026-04-26T14:27:51.999Z</time></trkpt><trkpt lat="39.7366971682012" lon="15.896241353749815"><ele>375.0</ele><time>2026-04-26T14:27:52.999Z</time></trkpt><trkpt lat="39.73662173940974" lon="15.896087474053513"><ele>381.0</ele><time>2026-04-26T14:27:53.999Z</time></trkpt><trkpt lat="39.736530767558634" lon="15.895922283536803"><ele>387.0</ele><time>2026-04-26T14:27:54.999Z</time></trkpt><trkpt lat="39.73642048881875" lon="15.895739463385892"><ele>387.0</ele><time>2026-04-26T14:27:55.999Z</time></trkpt><trkpt lat="39.7363351588547" lon="15.895596712516733"><ele>387.0</ele><time>2026-04-26T14:27:56.999Z</time></trkpt><trkpt lat="39.73622212711432" lon="15.895507655805618"><ele>387.0</ele><time>2026-04-26T14:27:57.999Z</time></trkpt><trkpt lat="39.7361559657892" lon="15.895394294118029"><ele>387.0</ele><time>2026-04-26T14:27:58.999Z</time></trkpt><trkpt lat="39.73607552538165" lon="15.895279763630672"><ele>392.0</ele><time>2026-04-26T14:27:59.999Z</time></trkpt><trkpt lat="39.73595333672574" lon="15.895179696795566"><ele>397.0</ele><time>2026-04-26T14:28:00.999Z</time></trkpt><trkpt lat="39.73582280450942" lon="15.895109462810414"><ele>402.0</ele><time>2026-04-26T14:28:01.999Z</time></trkpt><trkpt lat="39.7357160047098" lon="15.895039412099635"><ele>407.0</ele><time>2026-04-26T14:28:02.999Z</time></trkpt><trkpt lat="39.73561030184909" lon="15.894982573791223"><ele>407.0</ele><time>2026-04-26T14:28:03.999Z</time></trkpt><trkpt lat="39.73546302255671" lon="15.894908000248643"><ele>407.0</ele><time>2026-04-26T14:28:04.999Z</time></trkpt><trkpt lat="39.73530689385203" lon="15.894827820740785"><ele>407.0</ele><time>2026-04-26T14:28:05.999Z</time></trkpt><trkpt lat="39.735176979494504" lon="15.894756570464986"><ele>411.0</ele><time>2026-04-26T14:28:06.999Z</time></trkpt><trkpt lat="39.735046550848274" lon="15.894672580245961"><ele>415.0</ele><time>2026-04-26T14:28:07.999Z</time></trkpt><trkpt lat="39.73491560504512" lon="15.894562391992437"><ele>419.0</ele><time>2026-04-26T14:28:08.999Z</time></trkpt><trkpt lat="39.7347931418379" lon="15.894464871748458"><ele>423.0</ele><time>2026-04-26T14:28:09.999Z</time></trkpt><trkpt lat="39.73467344911091" lon="15.894362242349908"><ele>420.33333333333337</ele><time>2026-04-26T14:28:10.999Z</time></trkpt><trkpt lat="39.73454133833762" lon="15.894220359614604"><ele>417.6666666666667</ele><time>2026-04-26T14:28:11.999Z</time></trkpt><trkpt lat="39.73439525400858" lon="15.894054698506437"><ele>415.0</ele><time>2026-04-26T14:28:12.999Z</time></trkpt><trkpt lat="39.73428273330292" lon="15.8939288264127"><ele>419.5</ele><time>2026-04-26T14:28:13.999Z</time></trkpt><trkpt lat="39.73419662414419" lon="15.8938283392114"><ele>424.0</ele><time>2026-04-26T14:28:14.999Z</time></trkpt><trkpt lat="39.7341132059352" lon="15.893745117215778"><ele>428.5</ele><time>2026-04-26T14:28:15.999Z</time></trkpt><trkpt lat="39.734021714010325" lon="15.893628845450435"><ele>433.0</ele><time>2026-04-26T14:28:16.999Z</time></trkpt><trkpt lat="39.73392291581895" lon="15.893498737369558"><ele>431.25</ele><time>2026-04-26T14:28:17.999Z</time></trkpt><trkpt lat="39.73385698587208" lon="15.893367003129535"><ele>429.5</ele><time>2026-04-26T14:28:18.999Z</time></trkpt><trkpt lat="39.73382828110275" lon="15.893209763925867"><ele>427.75</ele><time>2026-04-26T14:28:19.999Z</time></trkpt><trkpt lat="39.73381697403712" lon="15.893044551814173"><ele>426.0</ele><time>2026-04-26T14:28:20.999Z</time></trkpt><trkpt lat="39.733811579247444" lon="15.892855740429017"><ele>426.0</ele><time>2026-04-26T14:28:21.999Z</time></trkpt><trkpt lat="39.73381012223115" lon="15.892679688934862"><ele>426.0</ele><time>2026-04-26T14:28:22.999Z</time></trkpt><trkpt lat="39.73380036947769" lon="15.892527139716666"><ele>426.0</ele><time>2026-04-26T14:28:23.999Z</time></trkpt><trkpt lat="39.73376670787405" lon="15.892364410251306"><ele>426.0</ele><time>2026-04-26T14:28:24.999Z</time></trkpt><trkpt lat="39.73369009204788" lon="15.8922349884943"><ele>425.0</ele><time>2026-04-26T14:28:25.999Z</time></trkpt><trkpt lat="39.73360887579353" lon="15.89209302577734"><ele>424.0</ele><time>2026-04-26T14:28:26.999Z</time></trkpt><trkpt lat="39.7335263565477" lon="15.891985506880088"><ele>423.0</ele><time>2026-04-26T14:28:27.999Z</time></trkpt><trkpt lat="39.73340729029248" lon="15.891884060575205"><ele>422.0</ele><time>2026-04-26T14:28:28.999Z</time></trkpt><trkpt lat="39.733232080510724" lon="15.891827690702128"><ele>426.66666666666663</ele><time>2026-04-26T14:28:29.999Z</time></trkpt><trkpt lat="39.73305470976265" lon="15.891754232986209"><ele>431.33333333333337</ele><time>2026-04-26T14:28:30.999Z</time></trkpt><trkpt lat="39.73287679470097" lon="15.891662502485687"><ele>436.0</ele><time>2026-04-26T14:28:31.999Z</time></trkpt><trkpt lat="39.73270625289243" lon="15.89156869111289"><ele>440.33333333333337</ele><time>2026-04-26T14:28:32.999Z</time></trkpt><trkpt lat="39.73255790366224" lon="15.891480287637659"><ele>444.66666666666663</ele><time>2026-04-26T14:28:33.999Z</time></trkpt><trkpt lat="39.73242870798914" lon="15.891394037096582"><ele>449.0</ele><time>2026-04-26T14:28:34.999Z</time></trkpt><trkpt lat="39.73230703314812" lon="15.891291757177065"><ele>449.0</ele><time>2026-04-26T14:28:35.999Z</time></trkpt><trkpt lat="39.73217359175104" lon="15.891178473938412"><ele>449.0</ele><time>2026-04-26T14:28:36.999Z</time></trkpt><trkpt lat="39.73204282345728" lon="15.891017386784826"><ele>449.0</ele><time>2026-04-26T14:28:37.999Z</time></trkpt><trkpt lat="39.73190239550997" lon="15.890827872559782"><ele>453.3333333333333</ele><time>2026-04-26T14:28:38.999Z</time></trkpt><trkpt lat="39.731755994700265" lon="15.890615794655062"><ele>457.66666666666663</ele><time>2026-04-26T14:28:39.999Z</time></trkpt><trkpt lat="39.73163155568215" lon="15.890440750948574"><ele>462.0</ele><time>2026-04-26T14:28:40.999Z</time></trkpt><trkpt lat="39.73152566807373" lon="15.890287546327198"><ele>462.0</ele><time>2026-04-26T14:28:41.999Z</time></trkpt><trkpt lat="39.73143791194801" lon="15.890159542154374"><ele>462.0</ele><time>2026-04-26T14:28:42.999Z</time></trkpt><trkpt lat="39.73135227084033" lon="15.890041258387164"><ele>462.0</ele><time>2026-04-26T14:28:43.999Z</time></trkpt><trkpt lat="39.731228671026635" lon="15.889920371580487"><ele>462.0</ele><time>2026-04-26T14:28:44.999Z</time></trkpt><trkpt lat="39.731066814083746" lon="15.889811376515544"><ele>467.5</ele><time>2026-04-26T14:28:45.999Z</time></trkpt><trkpt lat="39.73087371330053" lon="15.88967978398527"><ele>473.0</ele><time>2026-04-26T14:28:46.999Z</time></trkpt><trkpt lat="39.73065926271962" lon="15.889552191147647"><ele>473.0</ele><time>2026-04-26T14:28:47.999Z</time></trkpt><trkpt lat="39.730426496028926" lon="15.889407685671678"><ele>473.0</ele><time>2026-04-26T14:28:48.999Z</time></trkpt><trkpt lat="39.73023154822828" lon="15.889283020772488"><ele>473.75</ele><time>2026-04-26T14:28:49.999Z</time></trkpt><trkpt lat="39.73009726717988" lon="15.889195637014733"><ele>474.5</ele><time>2026-04-26T14:28:50.999Z</time></trkpt><trkpt lat="39.72998453915178" lon="15.889117898834563"><ele>475.25</ele><time>2026-04-26T14:28:51.999Z</time></trkpt><trkpt lat="39.72987924589753" lon="15.889044746297706"><ele>476.0</ele><time>2026-04-26T14:28:52.999Z</time></trkpt><trkpt lat="39.72977464447785" lon="15.888995084748805"><ele>476.0</ele><time>2026-04-26T14:28:53.999Z</time></trkpt><trkpt lat="39.72964265824127" lon="15.888978522392108"><ele>476.0</ele><time>2026-04-26T14:28:54.999Z</time></trkpt><trkpt lat="39.729486871167005" lon="15.88897877429174"><ele>476.0</ele><time>2026-04-26T14:28:55.999Z</time></trkpt><trkpt lat="39.72934580906181" lon="15.889038502397781"><ele>476.0</ele><time>2026-04-26T14:28:56.999Z</time></trkpt><trkpt lat="39.72921385852569" lon="15.889161146623392"><ele>479.8</ele><time>2026-04-26T14:28:57.999Z</time></trkpt><trkpt lat="39.72911060861353" lon="15.889293768275296"><ele>483.6</ele><time>2026-04-26T14:28:58.999Z</time></trkpt><trkpt lat="39.72903135107065" lon="15.889389605831497"><ele>487.4</ele><time>2026-04-26T14:29:00Z</time></trkpt><trkpt lat="39.72895630469444" lon="15.889441464837857"><ele>491.2</ele><time>2026-04-26T14:29:01Z</time></trkpt><trkpt lat="39.72886525955479" lon="15.88945683061975"><ele>495.0</ele><time>2026-04-26T14:29:02Z</time></trkpt><trkpt lat="39.7287328232592" lon="15.88945310049579"><ele>495.0</ele><time>2026-04-26T14:29:03Z</time></trkpt><trkpt lat="39.72859292474459" lon="15.889433137388794"><ele>495.0</ele><time>2026-04-26T14:29:04Z</time></trkpt><trkpt lat="39.72846695681813" lon="15.88941167838423"><ele>495.0</ele><time>2026-04-26T14:29:05Z</time></trkpt><trkpt lat="39.728354765115" lon="15.889391074329383"><ele>495.0</ele><time>2026-04-26T14:29:06Z</time></trkpt><trkpt lat="39.72824074221463" lon="15.889387236751096"><ele>496.0</ele><time>2026-04-26T14:29:07Z</time></trkpt><trkpt lat="39.728140492761646" lon="15.889349043115724"><ele>497.0</ele><time>2026-04-26T14:29:08Z</time></trkpt><trkpt lat="39.72805462758584" lon="15.889302669673082"><ele>498.0</ele><time>2026-04-26T14:29:09Z</time></trkpt><trkpt lat="39.72798474662121" lon="15.889229832655332"><ele>499.0</ele><time>2026-04-26T14:29:10Z</time></trkpt><trkpt lat="39.727902103212976" lon="15.889142149527258"><ele>500.0</ele><time>2026-04-26T14:29:11Z</time></trkpt><trkpt lat="39.727842777890224" lon="15.888972810255531"><ele>499.0</ele><time>2026-04-26T14:29:12Z</time></trkpt><trkpt lat="39.72776612086288" lon="15.888786596626009"><ele>498.0</ele><time>2026-04-26T14:29:13Z</time></trkpt><trkpt lat="39.72767794975792" lon="15.88859489130609"><ele>497.0</ele><time>2026-04-26T14:29:14Z</time></trkpt><trkpt lat="39.727591480606144" lon="15.88841529678025"><ele>497.0</ele><time>2026-04-26T14:29:15Z</time></trkpt><trkpt lat="39.72750905112577" lon="15.888250705564221"><ele>497.0</ele><time>2026-04-26T14:29:16Z</time></trkpt><trkpt lat="39.72743053461468" lon="15.888093927608498"><ele>497.0</ele><time>2026-04-26T14:29:17Z</time></trkpt><trkpt lat="39.72734889833816" lon="15.887935975845021"><ele>497.0</ele><time>2026-04-26T14:29:18Z</time></trkpt><trkpt lat="39.727261223442994" lon="15.887767669423583"><ele>493.66666666666663</ele><time>2026-04-26T14:29:19Z</time></trkpt><trkpt lat="39.72716883207999" lon="15.887591162586157"><ele>490.33333333333337</ele><time>2026-04-26T14:29:20Z</time></trkpt><trkpt lat="39.72707686881297" lon="15.887411906934247"><ele>487.0</ele><time>2026-04-26T14:29:21Z</time></trkpt><trkpt lat="39.72699025181615" lon="15.88724168136"><ele>487.0</ele><time>2026-04-26T14:29:21.999Z</time></trkpt><trkpt lat="39.72690182300713" lon="15.887067895072171"><ele>487.0</ele><time>2026-04-26T14:29:22.999Z</time></trkpt><trkpt lat="39.72680251800065" lon="15.886879821636866"><ele>487.0</ele><time>2026-04-26T14:29:23.999Z</time></trkpt><trkpt lat="39.72668842285395" lon="15.886676416204551"><ele>489.0</ele><time>2026-04-26T14:29:24.999Z</time></trkpt><trkpt lat="39.72659061268749" lon="15.88650204319445"><ele>491.0</ele><time>2026-04-26T14:29:25.999Z</time></trkpt><trkpt lat="39.72650519422626" lon="15.886350611139097"><ele>493.0</ele><time>2026-04-26T14:29:26.999Z</time></trkpt><trkpt lat="39.72642417891789" lon="15.886215128869104"><ele>495.0</ele><time>2026-04-26T14:29:27.999Z</time></trkpt><trkpt lat="39.72635172179139" lon="15.886094796681503"><ele>495.0</ele><time>2026-04-26T14:29:28.999Z</time></trkpt><trkpt lat="39.72628373579278" lon="15.885980000979265"><ele>495.0</ele><time>2026-04-26T14:29:29.999Z</time></trkpt><trkpt lat="39.72621173449089" lon="15.885857200869616"><ele>495.0</ele><time>2026-04-26T14:29:30.999Z</time></trkpt><trkpt lat="39.726128333638655" lon="15.885717242364274"><ele>495.0</ele><time>2026-04-26T14:29:32.001Z</time></trkpt><trkpt lat="39.72603483559419" lon="15.88555828845222"><ele>495.0</ele><time>2026-04-26T14:29:33.001Z</time></trkpt><trkpt lat="39.72594965244517" lon="15.88538817722225"><ele>495.0</ele><time>2026-04-26T14:29:34.001Z</time></trkpt><trkpt lat="39.725888771551844" lon="15.88520852330796"><ele>495.0</ele><time>2026-04-26T14:29:35.001Z</time></trkpt><trkpt lat="39.72584365890669" lon="15.885018249862723"><ele>495.0</ele><time>2026-04-26T14:29:36.001Z</time></trkpt><trkpt lat="39.72580775907605" lon="15.884833352052677"><ele>495.0</ele><time>2026-04-26T14:29:37.001Z</time></trkpt><trkpt lat="39.725773531383346" lon="15.884672827141614"><ele>495.0</ele><time>2026-04-26T14:29:38.001Z</time></trkpt><trkpt lat="39.7257320174258" lon="15.884515539444095"><ele>495.0</ele><time>2026-04-26T14:29:39.001Z</time></trkpt><trkpt lat="39.725676528876065" lon="15.884344123740593"><ele>491.0</ele><time>2026-04-26T14:29:40.001Z</time></trkpt><trkpt lat="39.72557759961838" lon="15.884160733284611"><ele>487.0</ele><time>2026-04-26T14:29:41.001Z</time></trkpt><trkpt lat="39.72546255797495" lon="15.883947176701861"><ele>483.0</ele><time>2026-04-26T14:29:42.001Z</time></trkpt><trkpt lat="39.72538242714371" lon="15.883751241506628"><ele>483.0</ele><time>2026-04-26T14:29:43.001Z</time></trkpt><trkpt lat="39.725319240045735" lon="15.883579955282435"><ele>483.0</ele><time>2026-04-26T14:29:44.001Z</time></trkpt><trkpt lat="39.72526957041238" lon="15.883416414182152"><ele>483.0</ele><time>2026-04-26T14:29:45.001Z</time></trkpt><trkpt lat="39.72523530248214" lon="15.883242451189378"><ele>483.0</ele><time>2026-04-26T14:29:46.001Z</time></trkpt><trkpt lat="39.725240480388514" lon="15.883038409906758"><ele>485.0</ele><time>2026-04-26T14:29:47.001Z</time></trkpt><trkpt lat="39.725242978899594" lon="15.882831606238817"><ele>487.0</ele><time>2026-04-26T14:29:48.001Z</time></trkpt><trkpt lat="39.72520806834025" lon="15.882639640693926"><ele>489.0</ele><time>2026-04-26T14:29:49.001Z</time></trkpt><trkpt lat="39.725150407836146" lon="15.882400519345845"><ele>489.0</ele><time>2026-04-26T14:29:50.001Z</time></trkpt><trkpt lat="39.72509971501364" lon="15.882165972119896"><ele>489.0</ele><time>2026-04-26T14:29:51.001Z</time></trkpt><trkpt lat="39.725057433381465" lon="15.881968865934615"><ele>489.0</ele><time>2026-04-26T14:29:52Z</time></trkpt><trkpt lat="39.72502016210787" lon="15.881798115722152"><ele>486.0</ele><time>2026-04-26T14:29:53Z</time></trkpt><trkpt lat="39.724977529432465" lon="15.881634020856035"><ele>483.0</ele><time>2026-04-26T14:29:54Z</time></trkpt><trkpt lat="39.72490859664042" lon="15.881465545049414"><ele>480.0</ele><time>2026-04-26T14:29:55Z</time></trkpt><trkpt lat="39.72480303361732" lon="15.881287131998267"><ele>480.0</ele><time>2026-04-26T14:29:56Z</time></trkpt><trkpt lat="39.7246598514901" lon="15.881075253273572"><ele>480.0</ele><time>2026-04-26T14:29:57Z</time></trkpt><trkpt lat="39.72452990271062" lon="15.880880231169137"><ele>480.0</ele><time>2026-04-26T14:29:58Z</time></trkpt><trkpt lat="39.72443175926798" lon="15.88072261224556"><ele>480.25</ele><time>2026-04-26T14:29:59Z</time></trkpt><trkpt lat="39.72435335568753" lon="15.88059562863858"><ele>480.5</ele><time>2026-04-26T14:30:00Z</time></trkpt><trkpt lat="39.724287530292884" lon="15.880488924171706"><ele>480.75</ele><time>2026-04-26T14:30:01Z</time></trkpt><trkpt lat="39.72422140144957" lon="15.880381709678227"><ele>481.0</ele><time>2026-04-26T14:30:02Z</time></trkpt><trkpt lat="39.72414679902769" lon="15.880238904239903"><ele>479.6666666666667</ele><time>2026-04-26T14:30:03Z</time></trkpt><trkpt lat="39.72408654758101" lon="15.88001399236993"><ele>478.33333333333337</ele><time>2026-04-26T14:30:04Z</time></trkpt><trkpt lat="39.72405227061669" lon="15.87978313876014"><ele>477.0</ele><time>2026-04-26T14:30:05Z</time></trkpt><trkpt lat="39.72404020765311" lon="15.87956589009649"><ele>477.0</ele><time>2026-04-26T14:30:06Z</time></trkpt><trkpt lat="39.72405253098105" lon="15.87935863941616"><ele>477.0</ele><time>2026-04-26T14:30:07Z</time></trkpt><trkpt lat="39.724070776067364" lon="15.879125295788818"><ele>477.0</ele><time>2026-04-26T14:30:08Z</time></trkpt><trkpt lat="39.72408651440638" lon="15.878903262623686"><ele>476.5</ele><time>2026-04-26T14:30:09Z</time></trkpt><trkpt lat="39.72409861222507" lon="15.8787023831219"><ele>476.0</ele><time>2026-04-26T14:30:10Z</time></trkpt><trkpt lat="39.72410324454266" lon="15.878502134607718"><ele>475.5</ele><time>2026-04-26T14:30:11Z</time></trkpt><trkpt lat="39.72409819121873" lon="15.87833023189239"><ele>475.0</ele><time>2026-04-26T14:30:12Z</time></trkpt><trkpt lat="39.724083675851766" lon="15.878147631219486"><ele>474.6666666666667</ele><time>2026-04-26T14:30:13Z</time></trkpt><trkpt lat="39.72405054771884" lon="15.877958863560687"><ele>474.33333333333337</ele><time>2026-04-26T14:30:14Z</time></trkpt><trkpt lat="39.72399877466716" lon="15.877761305021794"><ele>474.0</ele><time>2026-04-26T14:30:15Z</time></trkpt><trkpt lat="39.72392706814644" lon="15.877549443542703"><ele>473.0</ele><time>2026-04-26T14:30:16Z</time></trkpt><trkpt lat="39.72384561935788" lon="15.877299258749836"><ele>472.0</ele><time>2026-04-26T14:30:17Z</time></trkpt><trkpt lat="39.72378236096019" lon="15.877037876545089"><ele>471.0</ele><time>2026-04-26T14:30:18Z</time></trkpt><trkpt lat="39.7237443679073" lon="15.87678484084782"><ele>469.66666666666663</ele><time>2026-04-26T14:30:19Z</time></trkpt><trkpt lat="39.72371524253462" lon="15.876524262360963"><ele>468.3333333333333</ele><time>2026-04-26T14:30:20Z</time></trkpt><trkpt lat="39.7236948725836" lon="15.876305871847437"><ele>467.0</ele><time>2026-04-26T14:30:21Z</time></trkpt><trkpt lat="39.72367965784725" lon="15.87611208893601"><ele>467.0</ele><time>2026-04-26T14:30:22Z</time></trkpt><trkpt lat="39.72366984705491" lon="15.875955102334169"><ele>467.00000000000006</ele><time>2026-04-26T14:30:23Z</time></trkpt><trkpt lat="39.72366592207839" lon="15.875817516142062"><ele>467.00000000000006</ele><time>2026-04-26T14:30:24Z</time></trkpt><trkpt lat="39.723670685607374" lon="15.875686621719225"><ele>467.0</ele><time>2026-04-26T14:30:25Z</time></trkpt><trkpt lat="39.72367918260011" lon="15.875574930852096"><ele>467.0</ele><time>2026-04-26T14:30:26Z</time></trkpt><trkpt lat="39.723690814623126" lon="15.875458738267705"><ele>467.6</ele><time>2026-04-26T14:30:28Z</time></trkpt><trkpt lat="39.72362889202375" lon="15.875426734929714"><ele>468.20000000000005</ele><time>2026-04-26T14:30:32Z</time></trkpt><trkpt lat="39.72347865510424" lon="15.875367752709073"><ele>468.8</ele><time>2026-04-26T14:30:33Z</time></trkpt><trkpt lat="39.723447120737326" lon="15.875487210150514"><ele>469.4</ele><time>2026-04-26T14:30:34Z</time></trkpt><trkpt lat="39.72341610274841" lon="15.87560219998587"><ele>470.0</ele><time>2026-04-26T14:30:35Z</time></trkpt><trkpt lat="39.72338752045152" lon="15.87571077756593"><ele>472.0</ele><time>2026-04-26T14:30:36Z</time></trkpt><trkpt lat="39.72336783631518" lon="15.875855155810394"><ele>474.0</ele><time>2026-04-26T14:30:37Z</time></trkpt><trkpt lat="39.723370800660156" lon="15.876039158211723"><ele>476.0</ele><time>2026-04-26T14:30:38Z</time></trkpt><trkpt lat="39.723474220753154" lon="15.876218772836875"><ele>478.0</ele><time>2026-04-26T14:30:39Z</time></trkpt><trkpt lat="39.723481842437124" lon="15.876405634457347"><ele>478.6666666666667</ele><time>2026-04-26T14:30:40Z</time></trkpt><trkpt lat="39.72346025960908" lon="15.876599370342372"><ele>479.33333333333337</ele><time>2026-04-26T14:30:41Z</time></trkpt><trkpt lat="39.72343688615337" lon="15.87680550541127"><ele>480.0</ele><time>2026-04-26T14:30:42Z</time></trkpt><trkpt lat="39.723345985030605" lon="15.877033044498402"><ele>481.66666666666663</ele><time>2026-04-26T14:30:43Z</time></trkpt><trkpt lat="39.72337204736435" lon="15.877235374256761"><ele>483.3333333333333</ele><time>2026-04-26T14:30:44Z</time></trkpt><trkpt lat="39.723399872658305" lon="15.877449481521987"><ele>485.0</ele><time>2026-04-26T14:30:45Z</time></trkpt><trkpt lat="39.723419457229554" lon="15.877676036969099"><ele>486.66666666666663</ele><time>2026-04-26T14:30:46Z</time></trkpt><trkpt lat="39.723436382431544" lon="15.87792341038658"><ele>488.33333333333337</ele><time>2026-04-26T14:30:47Z</time></trkpt><trkpt lat="39.723453946014615" lon="15.878152671682793"><ele>490.0</ele><time>2026-04-26T14:30:48Z</time></trkpt><trkpt lat="39.72347763423086" lon="15.878332030383959"><ele>490.6</ele><time>2026-04-26T14:30:49Z</time></trkpt><trkpt lat="39.72349023149243" lon="15.878483469519447"><ele>491.2</ele><time>2026-04-26T14:30:50Z</time></trkpt><trkpt lat="39.7234949510455" lon="15.878623224599442"><ele>491.79999999999995</ele><time>2026-04-26T14:30:51Z</time></trkpt><trkpt lat="39.723488905505015" lon="15.878741024405905"><ele>492.4</ele><time>2026-04-26T14:30:52Z</time></trkpt><trkpt lat="39.723463412141044" lon="15.87883684262402"><ele>493.0</ele><time>2026-04-26T14:30:53Z</time></trkpt><trkpt lat="39.72341394878063" lon="15.878927492201415"><ele>493.0</ele><time>2026-04-26T14:30:54Z</time></trkpt><trkpt lat="39.723339805091996" lon="15.879042192784146"><ele>493.0</ele><time>2026-04-26T14:30:55Z</time></trkpt><trkpt lat="39.72326556867753" lon="15.879176814227812"><ele>493.0</ele><time>2026-04-26T14:30:56Z</time></trkpt><trkpt lat="39.72322017746711" lon="15.879355974308567"><ele>493.0</ele><time>2026-04-26T14:30:57Z</time></trkpt><trkpt lat="39.72321632325403" lon="15.879556773511444"><ele>493.25</ele><time>2026-04-26T14:30:58Z</time></trkpt><trkpt lat="39.7232030764724" lon="15.879751397442245"><ele>493.5</ele><time>2026-04-26T14:30:59Z</time></trkpt><trkpt lat="39.723179091633675" lon="15.87989315133151"><ele>493.75</ele><time>2026-04-26T14:31:00Z</time></trkpt><trkpt lat="39.72315318308602" lon="15.880034037115871"><ele>494.0</ele><time>2026-04-26T14:31:01Z</time></trkpt><trkpt lat="39.72312800589444" lon="15.880196158930804"><ele>494.25</ele><time>2026-04-26T14:31:02Z</time></trkpt><trkpt lat="39.72313130566087" lon="15.880413741157174"><ele>494.5</ele><time>2026-04-26T14:31:03Z</time></trkpt><trkpt lat="39.72314910381235" lon="15.88057805805141"><ele>494.75</ele><time>2026-04-26T14:31:04Z</time></trkpt><trkpt lat="39.723160559762015" lon="15.880718314146463"><ele>495.0</ele><time>2026-04-26T14:31:05Z</time></trkpt><trkpt lat="39.72316913980733" lon="15.880856555324954"><ele>496.8</ele><time>2026-04-26T14:31:06Z</time></trkpt><trkpt lat="39.72317860001048" lon="15.88098815722076"><ele>498.6</ele><time>2026-04-26T14:31:07Z</time></trkpt><trkpt lat="39.72319733258555" lon="15.881118675879266"><ele>500.4</ele><time>2026-04-26T14:31:08Z</time></trkpt><trkpt lat="39.72321395832384" lon="15.881223972294285"><ele>502.2</ele><time>2026-04-26T14:31:09Z</time></trkpt><trkpt lat="39.7232338178357" lon="15.881307390643581"><ele>504.0</ele><time>2026-04-26T14:31:10Z</time></trkpt><trkpt lat="39.72325628436576" lon="15.881463885571526"><ele>504.0</ele><time>2026-04-26T14:31:12Z</time></trkpt><trkpt lat="39.72313947092727" lon="15.881463578500435"><ele>504.0</ele><time>2026-04-26T14:31:13Z</time></trkpt><trkpt lat="39.72306474354708" lon="15.881537885947006"><ele>504.0</ele><time>2026-04-26T14:31:14Z</time></trkpt><trkpt lat="39.72297358394112" lon="15.881620541567893"><ele>504.0</ele><time>2026-04-26T14:31:15Z</time></trkpt><trkpt lat="39.72289368766336" lon="15.881688366455016"><ele>504.0</ele><time>2026-04-26T14:31:16Z</time></trkpt><trkpt lat="39.722804656410865" lon="15.881760088564393"><ele>507.4</ele><time>2026-04-26T14:31:17Z</time></trkpt><trkpt lat="39.722711135529224" lon="15.881891264642704"><ele>510.79999999999995</ele><time>2026-04-26T14:31:18Z</time></trkpt><trkpt lat="39.72263965132743" lon="15.881990988948132"><ele>514.2</ele><time>2026-04-26T14:31:19Z</time></trkpt><trkpt lat="39.72256563721436" lon="15.882082461877205"><ele>517.6</ele><time>2026-04-26T14:31:20Z</time></trkpt><trkpt lat="39.72249586521563" lon="15.882159222894177"><ele>521.0</ele><time>2026-04-26T14:31:21Z</time></trkpt><trkpt lat="39.722428985129554" lon="15.882220493551545"><ele>521.0</ele><time>2026-04-26T14:31:22Z</time></trkpt><trkpt lat="39.72235919686612" lon="15.882260619052952"><ele>521.0</ele><time>2026-04-26T14:31:23Z</time></trkpt><trkpt lat="39.72222546690526" lon="15.88231560461162"><ele>521.0</ele><time>2026-04-26T14:31:24.999Z</time></trkpt><trkpt lat="39.72212919818233" lon="15.882352055247324"><ele>521.0</ele><time>2026-04-26T14:31:25.999Z</time></trkpt><trkpt lat="39.72203083224983" lon="15.882390599633482"><ele>521.0</ele><time>2026-04-26T14:31:26.999Z</time></trkpt><trkpt lat="39.72194693177871" lon="15.882435725859018"><ele>519.5</ele><time>2026-04-26T14:31:27.999Z</time></trkpt><trkpt lat="39.72187085770594" lon="15.882483701757605"><ele>518.0</ele><time>2026-04-26T14:31:28.999Z</time></trkpt><trkpt lat="39.721782007047175" lon="15.882560535561106"><ele>516.5</ele><time>2026-04-26T14:31:29.999Z</time></trkpt><trkpt lat="39.72168894021959" lon="15.882685855458941"><ele>515.0</ele><time>2026-04-26T14:31:30.999Z</time></trkpt><trkpt lat="39.72159293141802" lon="15.882834529188965"><ele>520.5</ele><time>2026-04-26T14:31:31.999Z</time></trkpt><trkpt lat="39.72151226961753" lon="15.882959558664542"><ele>526.0</ele><time>2026-04-26T14:31:32.999Z</time></trkpt><trkpt lat="39.721445909707754" lon="15.883060243699887"><ele>531.5</ele><time>2026-04-26T14:31:33.999Z</time></trkpt><trkpt lat="39.72137534601926" lon="15.883157373966608"><ele>537.0</ele><time>2026-04-26T14:31:34.999Z</time></trkpt><trkpt lat="39.72128569478592" lon="15.883260609926383"><ele>537.0</ele><time>2026-04-26T14:31:35.999Z</time></trkpt><trkpt lat="39.72119164508879" lon="15.88336699450108"><ele>537.0</ele><time>2026-04-26T14:31:37Z</time></trkpt><trkpt lat="39.721103758626974" lon="15.883470540746911"><ele>537.0</ele><time>2026-04-26T14:31:38Z</time></trkpt><trkpt lat="39.72103031024753" lon="15.883560885597289"><ele>537.0</ele><time>2026-04-26T14:31:39Z</time></trkpt><trkpt lat="39.72095312690114" lon="15.883671710072445"><ele>535.3333333333334</ele><time>2026-04-26T14:31:40Z</time></trkpt><trkpt lat="39.720872723103454" lon="15.883831248388978"><ele>533.6666666666667</ele><time>2026-04-26T14:31:41Z</time></trkpt><trkpt lat="39.720865874030274" lon="15.884058701224642"><ele>532.0</ele><time>2026-04-26T14:31:42Z</time></trkpt><trkpt lat="39.72078752178778" lon="15.884214502698187"><ele>536.75</ele><time>2026-04-26T14:31:43Z</time></trkpt><trkpt lat="39.72070411417609" lon="15.884338244615634"><ele>541.5</ele><time>2026-04-26T14:31:44Z</time></trkpt><trkpt lat="39.720615849537914" lon="15.884444808060689"><ele>546.25</ele><time>2026-04-26T14:31:45Z</time></trkpt><trkpt lat="39.72052797959348" lon="15.884548361412543"><ele>551.0</ele><time>2026-04-26T14:31:46Z</time></trkpt><trkpt lat="39.72044751166154" lon="15.884645212211035"><ele>551.0</ele><time>2026-04-26T14:31:47Z</time></trkpt><trkpt lat="39.72036171081304" lon="15.884735777532166"><ele>551.0</ele><time>2026-04-26T14:31:48Z</time></trkpt><trkpt lat="39.72025502861625" lon="15.884828049410348"><ele>551.0</ele><time>2026-04-26T14:31:49Z</time></trkpt><trkpt lat="39.720136423395665" lon="15.884901724022605"><ele>551.0</ele><time>2026-04-26T14:31:50Z</time></trkpt><trkpt lat="39.72001468710199" lon="15.884956579901084"><ele>545.25</ele><time>2026-04-26T14:31:51Z</time></trkpt><trkpt lat="39.719892993402844" lon="15.884993402944716"><ele>539.5</ele><time>2026-04-26T14:31:52Z</time></trkpt><trkpt lat="39.71977699453855" lon="15.885015386278967"><ele>533.75</ele><time>2026-04-26T14:31:53Z</time></trkpt><trkpt lat="39.719654051496235" lon="15.885023434497143"><ele>528.0</ele><time>2026-04-26T14:31:54Z</time></trkpt><trkpt lat="39.71951189634213" lon="15.885016272191736"><ele>524.0</ele><time>2026-04-26T14:31:55Z</time></trkpt><trkpt lat="39.719364212764745" lon="15.885005243365276"><ele>520.0</ele><time>2026-04-26T14:31:56Z</time></trkpt><trkpt lat="39.71923389092044" lon="15.884993987582352"><ele>516.0</ele><time>2026-04-26T14:31:57Z</time></trkpt><trkpt lat="39.71913648595407" lon="15.884994892044531"><ele>512.0</ele><time>2026-04-26T14:31:58Z</time></trkpt><trkpt lat="39.71906033536006" lon="15.884996186078986"><ele>512.0</ele><time>2026-04-26T14:31:59Z</time></trkpt><trkpt lat="39.718954752223766" lon="15.885069835624272"><ele>512.0</ele><time>2026-04-26T14:32:01Z</time></trkpt><trkpt lat="39.718906327552006" lon="15.885165842626732"><ele>512.0</ele><time>2026-04-26T14:32:02Z</time></trkpt><trkpt lat="39.718858394176635" lon="15.885288824610416"><ele>512.0</ele><time>2026-04-26T14:32:03Z</time></trkpt><trkpt lat="39.71881691343096" lon="15.885396949712042"><ele>512.0</ele><time>2026-04-26T14:32:04Z</time></trkpt><trkpt lat="39.71877982717566" lon="15.885494729117799"><ele>510.20000000000005</ele><time>2026-04-26T14:32:05Z</time></trkpt><trkpt lat="39.71873914020381" lon="15.885597203902208"><ele>508.40000000000003</ele><time>2026-04-26T14:32:06Z</time></trkpt><trkpt lat="39.718610704743995" lon="15.885638328406442"><ele>506.59999999999997</ele><time>2026-04-26T14:32:07Z</time></trkpt><trkpt lat="39.71855256520006" lon="15.885725574453412"><ele>504.79999999999995</ele><time>2026-04-26T14:32:08Z</time></trkpt><trkpt lat="39.7184923489563" lon="15.885809663720874"><ele>503.0</ele><time>2026-04-26T14:32:09Z</time></trkpt><trkpt lat="39.71843076680328" lon="15.885916466070023"><ele>504.3333333333333</ele><time>2026-04-26T14:32:10Z</time></trkpt><trkpt lat="39.71837442957277" lon="15.886026118085628"><ele>505.66666666666663</ele><time>2026-04-26T14:32:11Z</time></trkpt><trkpt lat="39.71833060231337" lon="15.886113762899555"><ele>507.0</ele><time>2026-04-26T14:32:12Z</time></trkpt><trkpt lat="39.71828732319557" lon="15.886201351585607"><ele>508.33333333333337</ele><time>2026-04-26T14:32:13Z</time></trkpt><trkpt lat="39.71824720692226" lon="15.886286064548543"><ele>509.6666666666667</ele><time>2026-04-26T14:32:14Z</time></trkpt><trkpt lat="39.71818067189028" lon="15.886370464346019"><ele>511.0</ele><time>2026-04-26T14:32:16Z</time></trkpt><trkpt lat="39.71804084259781" lon="15.88641888367109"><ele>511.0</ele><time>2026-04-26T14:32:18Z</time></trkpt><trkpt lat="39.71795493730392" lon="15.886481631944916"><ele>511.0</ele><time>2026-04-26T14:32:19Z</time></trkpt><trkpt lat="39.71788667887085" lon="15.886558531362072"><ele>511.0</ele><time>2026-04-26T14:32:20Z</time></trkpt><trkpt lat="39.717826044810536" lon="15.886648868265109"><ele>511.0</ele><time>2026-04-26T14:32:21Z</time></trkpt><trkpt lat="39.717816985246756" lon="15.886816308519897"><ele>511.0</ele><time>2026-04-26T14:32:22Z</time></trkpt><trkpt lat="39.71780352203042" lon="15.886937169268219"><ele>511.4</ele><time>2026-04-26T14:32:24Z</time></trkpt><trkpt lat="39.71774932338571" lon="15.88687758862832"><ele>511.8</ele><time>2026-04-26T14:32:27Z</time></trkpt><trkpt lat="39.717727475465544" lon="15.886743839234724"><ele>512.1999999999999</ele><time>2026-04-26T14:32:28Z</time></trkpt><trkpt lat="39.71770377181076" lon="15.886598432958895"><ele>512.6</ele><time>2026-04-26T14:32:29Z</time></trkpt><trkpt lat="39.71771058547185" lon="15.88647595949875"><ele>513.0</ele><time>2026-04-26T14:32:30Z</time></trkpt><trkpt lat="39.71769326535535" lon="15.886346612615245"><ele>513.0</ele><time>2026-04-26T14:32:32Z</time></trkpt><trkpt lat="39.71763991245074" lon="15.88629320684947"><ele>513.0</ele><time>2026-04-26T14:32:33Z</time></trkpt><trkpt lat="39.71753484596021" lon="15.886234022976776"><ele>513.0</ele><time>2026-04-26T14:32:34Z</time></trkpt><trkpt lat="39.71742250717339" lon="15.886153484081907"><ele>513.0</ele><time>2026-04-26T14:32:35Z</time></trkpt><trkpt lat="39.71732542521959" lon="15.88603453000094"><ele>513.0</ele><time>2026-04-26T14:32:36Z</time></trkpt><trkpt lat="39.717218651383796" lon="15.885982075254656"><ele>511.3333333333333</ele><time>2026-04-26T14:32:37Z</time></trkpt><trkpt lat="39.7171495732881" lon="15.88591033356492"><ele>509.66666666666663</ele><time>2026-04-26T14:32:38Z</time></trkpt><trkpt lat="39.71707265057754" lon="15.88581993897217"><ele>508.0</ele><time>2026-04-26T14:32:39Z</time></trkpt><trkpt lat="39.71701721943185" lon="15.885714624521148"><ele>506.3333333333333</ele><time>2026-04-26T14:32:40Z</time></trkpt><trkpt lat="39.7169705291972" lon="15.885656438164466"><ele>504.66666666666663</ele><time>2026-04-26T14:32:41Z</time></trkpt><trkpt lat="39.716910381664306" lon="15.885613073092383"><ele>503.0</ele><time>2026-04-26T14:32:42Z</time></trkpt><trkpt lat="39.71679727674659" lon="15.88560755840683"><ele>503.0</ele><time>2026-04-26T14:32:43Z</time></trkpt><trkpt lat="39.716684481646396" lon="15.885652106466697"><ele>503.0</ele><time>2026-04-26T14:32:44Z</time></trkpt><trkpt lat="39.716586315990476" lon="15.885727457727057"><ele>503.0</ele><time>2026-04-26T14:32:45Z</time></trkpt><trkpt lat="39.71649037972506" lon="15.885863488669486"><ele>503.0</ele><time>2026-04-26T14:32:46Z</time></trkpt><trkpt lat="39.716376431538414" lon="15.885966904675193"><ele>508.0</ele><time>2026-04-26T14:32:47Z</time></trkpt><trkpt lat="39.71627499465644" lon="15.88603263418203"><ele>513.0</ele><time>2026-04-26T14:32:48Z</time></trkpt><trkpt lat="39.716181247755834" lon="15.886097315801981"><ele>518.0</ele><time>2026-04-26T14:32:49Z</time></trkpt><trkpt lat="39.71607585685451" lon="15.886167375479703"><ele>523.0</ele><time>2026-04-26T14:32:50Z</time></trkpt><trkpt lat="39.71595845286528" lon="15.886257881179363"><ele>523.0</ele><time>2026-04-26T14:32:51Z</time></trkpt><trkpt lat="39.71584469327702" lon="15.886352558957919"><ele>523.0</ele><time>2026-04-26T14:32:52Z</time></trkpt><trkpt lat="39.715743183401564" lon="15.88643585498324"><ele>523.0</ele><time>2026-04-26T14:32:53Z</time></trkpt><trkpt lat="39.71565172046639" lon="15.886509186234038"><ele>523.0</ele><time>2026-04-26T14:32:54Z</time></trkpt><trkpt lat="39.715561462892495" lon="15.886568604004177"><ele>523.0</ele><time>2026-04-26T14:32:55Z</time></trkpt><trkpt lat="39.715473832807206" lon="15.886617230465513"><ele>523.0</ele><time>2026-04-26T14:32:56Z</time></trkpt><trkpt lat="39.71538809830487" lon="15.8866838738855"><ele>523.0</ele><time>2026-04-26T14:32:57Z</time></trkpt><trkpt lat="39.71531554391626" lon="15.886770940659597"><ele>523.0</ele><time>2026-04-26T14:32:58Z</time></trkpt><trkpt lat="39.7152564244491" lon="15.886876997507134"><ele>523.0</ele><time>2026-04-26T14:32:59Z</time></trkpt><trkpt lat="39.71520384660713" lon="15.886990751969588"><ele>523.6</ele><time>2026-04-26T14:33:00Z</time></trkpt><trkpt lat="39.71511221893469" lon="15.887061923491924"><ele>524.1999999999999</ele><time>2026-04-26T14:33:01Z</time></trkpt><trkpt lat="39.715066640270024" lon="15.88713915941396"><ele>524.8</ele><time>2026-04-26T14:33:02Z</time></trkpt><trkpt lat="39.715009469047665" lon="15.88721007328036"><ele>525.4</ele><time>2026-04-26T14:33:03Z</time></trkpt><trkpt lat="39.71491672541345" lon="15.887338056104573"><ele>526.0</ele><time>2026-04-26T14:33:04Z</time></trkpt><trkpt lat="39.714851752056724" lon="15.88746878364503"><ele>526.0</ele><time>2026-04-26T14:33:05Z</time></trkpt><trkpt lat="39.71478439373198" lon="15.887560377643265"><ele>526.0</ele><time>2026-04-26T14:33:06Z</time></trkpt><trkpt lat="39.71470557496391" lon="15.887640072292296"><ele>526.0</ele><time>2026-04-26T14:33:07Z</time></trkpt><trkpt lat="39.71462215305916" lon="15.887751320932345"><ele>526.0</ele><time>2026-04-26T14:33:08Z</time></trkpt><trkpt lat="39.71456494298361" lon="15.887911462908178"><ele>526.3333333333334</ele><time>2026-04-26T14:33:09Z</time></trkpt><trkpt lat="39.714519455876435" lon="15.888060288764104"><ele>526.6666666666667</ele><time>2026-04-26T14:33:10Z</time></trkpt><trkpt lat="39.71448573983409" lon="15.888168586845332"><ele>527.0</ele><time>2026-04-26T14:33:11Z</time></trkpt><trkpt lat="39.71443986594409" lon="15.888243583842694"><ele>527.3333333333334</ele><time>2026-04-26T14:33:12Z</time></trkpt><trkpt lat="39.714380953587145" lon="15.888319375119202"><ele>527.6666666666666</ele><time>2026-04-26T14:33:13Z</time></trkpt><trkpt lat="39.71431915228587" lon="15.888377149594653"><ele>528.0</ele><time>2026-04-26T14:33:14Z</time></trkpt><trkpt lat="39.71424697889735" lon="15.888413601582112"><ele>535.6</ele><time>2026-04-26T14:33:15Z</time></trkpt><trkpt lat="39.71415041395329" lon="15.888444630739558"><ele>543.1999999999999</ele><time>2026-04-26T14:33:16Z</time></trkpt><trkpt lat="39.7140449734958" lon="15.888509382642791"><ele>550.8</ele><time>2026-04-26T14:33:17Z</time></trkpt><trkpt lat="39.71396570550395" lon="15.888668992900893"><ele>558.4</ele><time>2026-04-26T14:33:18Z</time></trkpt><trkpt lat="39.71389644894675" lon="15.888735170610905"><ele>566.0</ele><time>2026-04-26T14:33:19Z</time></trkpt><trkpt lat="39.71381274027258" lon="15.88878280049249"><ele>566.0</ele><time>2026-04-26T14:33:20Z</time></trkpt><trkpt lat="39.713701707237114" lon="15.888802882921778"><ele>566.0</ele><time>2026-04-26T14:33:21Z</time></trkpt><trkpt lat="39.713589404398576" lon="15.888821089379984"><ele>566.0</ele><time>2026-04-26T14:33:22Z</time></trkpt><trkpt lat="39.71349012430153" lon="15.888846484763116"><ele>566.0</ele><time>2026-04-26T14:33:23Z</time></trkpt><trkpt lat="39.713413604523154" lon="15.888998854806955"><ele>563.2</ele><time>2026-04-26T14:33:24Z</time></trkpt><trkpt lat="39.71335799271502" lon="15.889142125781648"><ele>560.4000000000001</ele><time>2026-04-26T14:33:25Z</time></trkpt><trkpt lat="39.71330490020867" lon="15.889296324152108"><ele>557.6</ele><time>2026-04-26T14:33:25.999Z</time></trkpt><trkpt lat="39.71328082068692" lon="15.889427018139923"><ele>554.8000000000001</ele><time>2026-04-26T14:33:26.999Z</time></trkpt><trkpt lat="39.71325382256772" lon="15.889505323805977"><ele>552.0</ele><time>2026-04-26T14:33:27.999Z</time></trkpt><trkpt lat="39.713176562458415" lon="15.889606233750824"><ele>552.0</ele><time>2026-04-26T14:33:29.999Z</time></trkpt><trkpt lat="39.71310238142216" lon="15.889637892645203"><ele>552.0</ele><time>2026-04-26T14:33:30.999Z</time></trkpt><trkpt lat="39.71300578901877" lon="15.889721189320856"><ele>552.0</ele><time>2026-04-26T14:33:31.999Z</time></trkpt><trkpt lat="39.71291335699177" lon="15.889817699310198"><ele>552.0</ele><time>2026-04-26T14:33:32.999Z</time></trkpt><trkpt lat="39.71284072634786" lon="15.889910250701552"><ele>552.0</ele><time>2026-04-26T14:33:33.999Z</time></trkpt><trkpt lat="39.71279679602186" lon="15.890041552258763"><ele>554.6</ele><time>2026-04-26T14:33:34.999Z</time></trkpt><trkpt lat="39.7127544849875" lon="15.890162166953752"><ele>557.2</ele><time>2026-04-26T14:33:35.999Z</time></trkpt><trkpt lat="39.7127113455436" lon="15.890299414612647"><ele>559.8</ele><time>2026-04-26T14:33:36.999Z</time></trkpt><trkpt lat="39.71267400098566" lon="15.890421601666652"><ele>562.4</ele><time>2026-04-26T14:33:37.999Z</time></trkpt><trkpt lat="39.71264974875089" lon="15.890565138149329"><ele>565.0</ele><time>2026-04-26T14:33:38.999Z</time></trkpt><trkpt lat="39.7126716549886" lon="15.890713855689608"><ele>567.0</ele><time>2026-04-26T14:33:39.999Z</time></trkpt><trkpt lat="39.71270522168769" lon="15.890847452957843"><ele>569.0</ele><time>2026-04-26T14:33:40.999Z</time></trkpt><trkpt lat="39.71274500947053" lon="15.891011953790587"><ele>571.0</ele><time>2026-04-26T14:33:41.999Z</time></trkpt><trkpt lat="39.71278464443112" lon="15.891178170959778"><ele>573.0</ele><time>2026-04-26T14:33:43Z</time></trkpt><trkpt lat="39.71281781282652" lon="15.891316661368226"><ele>573.0</ele><time>2026-04-26T14:33:44Z</time></trkpt><trkpt lat="39.71284977959022" lon="15.891449364064345"><ele>573.0</ele><time>2026-04-26T14:33:45Z</time></trkpt><trkpt lat="39.71288048426183" lon="15.891576827466421"><ele>573.0</ele><time>2026-04-26T14:33:46Z</time></trkpt><trkpt lat="39.71290507127615" lon="15.891686719196931"><ele>573.0</ele><time>2026-04-26T14:33:47Z</time></trkpt><trkpt lat="39.71291378065769" lon="15.891774014882216"><ele>573.0</ele><time>2026-04-26T14:33:48Z</time></trkpt><trkpt lat="39.71287404973731" lon="15.891887935450447"><ele>569.5</ele><time>2026-04-26T14:33:50Z</time></trkpt><trkpt lat="39.71275739823487" lon="15.892032853407706"><ele>566.0</ele><time>2026-04-26T14:33:52Z</time></trkpt><trkpt lat="39.71268300470649" lon="15.892171691618275"><ele>562.5</ele><time>2026-04-26T14:33:53Z</time></trkpt><trkpt lat="39.71262938929751" lon="15.89230389711746"><ele>559.0</ele><time>2026-04-26T14:33:54Z</time></trkpt><trkpt lat="39.71257998060801" lon="15.892411829980716"><ele>559.0</ele><time>2026-04-26T14:33:55Z</time></trkpt><trkpt lat="39.71252570440057" lon="15.892479655041958"><ele>559.0</ele><time>2026-04-26T14:33:56Z</time></trkpt><trkpt lat="39.712468681941544" lon="15.8925369333532"><ele>559.0</ele><time>2026-04-26T14:33:57Z</time></trkpt><trkpt lat="39.71241017269216" lon="15.892579184291542"><ele>559.0</ele><time>2026-04-26T14:33:58Z</time></trkpt><trkpt lat="39.7122876774708" lon="15.892597327324665"><ele>559.0</ele><time>2026-04-26T14:34:00Z</time></trkpt><trkpt lat="39.71221417332899" lon="15.892543767374642"><ele>559.0</ele><time>2026-04-26T14:34:01Z</time></trkpt><trkpt lat="39.71212445927109" lon="15.892511911136848"><ele>559.0</ele><time>2026-04-26T14:34:02Z</time></trkpt><trkpt lat="39.71200673487385" lon="15.892552542277839"><ele>559.0</ele><time>2026-04-26T14:34:03Z</time></trkpt><trkpt lat="39.71190623697735" lon="15.89257913144927"><ele>559.0</ele><time>2026-04-26T14:34:04Z</time></trkpt><trkpt lat="39.711818574443384" lon="15.8926160883907"><ele>559.0</ele><time>2026-04-26T14:34:05Z</time></trkpt><trkpt lat="39.71176147046668" lon="15.89265595087686"><ele>559.0</ele><time>2026-04-26T14:34:06Z</time></trkpt><trkpt lat="39.71171111340861" lon="15.89282202293999"><ele>562.2</ele><time>2026-04-26T14:34:08Z</time></trkpt><trkpt lat="39.71179855485634" lon="15.892933753476427"><ele>565.4</ele><time>2026-04-26T14:34:09Z</time></trkpt><trkpt lat="39.71184085707966" lon="15.893037700874759"><ele>568.6</ele><time>2026-04-26T14:34:10Z</time></trkpt><trkpt lat="39.71186319135163" lon="15.893120220740249"><ele>571.8</ele><time>2026-04-26T14:34:11Z</time></trkpt><trkpt lat="39.711792904867565" lon="15.893155566443546"><ele>575.0</ele><time>2026-04-26T14:34:15Z</time></trkpt><trkpt lat="39.71172250827194" lon="15.893034125474848"><ele>575.0</ele><time>2026-04-26T14:34:17Z</time></trkpt><trkpt lat="39.71164853490768" lon="15.8929659926305"><ele>575.0</ele><time>2026-04-26T14:34:19Z</time></trkpt><trkpt lat="39.711539945054476" lon="15.893048135037786"><ele>575.0</ele><time>2026-04-26T14:34:21Z</time></trkpt><trkpt lat="39.711575351849" lon="15.893193962897692"><ele>575.0</ele><time>2026-04-26T14:34:22Z</time></trkpt><trkpt lat="39.711659761073804" lon="15.893245381116282"><ele>575.0</ele><time>2026-04-26T14:34:23Z</time></trkpt><trkpt lat="39.71172567992668" lon="15.893309017858217"><ele>575.0</ele><time>2026-04-26T14:34:24Z</time></trkpt><trkpt lat="39.71172677103982" lon="15.893410833095034"><ele>575.0</ele><time>2026-04-26T14:34:25Z</time></trkpt><trkpt lat="39.711742757932896" lon="15.893508015814128"><ele>575.0</ele><time>2026-04-26T14:34:26Z</time></trkpt><trkpt lat="39.7117661604359" lon="15.89362620108676"><ele>575.0</ele><time>2026-04-26T14:34:27Z</time></trkpt><trkpt lat="39.71178204375595" lon="15.893739145733477"><ele>575.0</ele><time>2026-04-26T14:34:28Z</time></trkpt><trkpt lat="39.71176963597353" lon="15.893880025041872"><ele>575.0</ele><time>2026-04-26T14:34:30Z</time></trkpt><trkpt lat="39.71172202012483" lon="15.893938523775105"><ele>578.0</ele><time>2026-04-26T14:34:33Z</time></trkpt><trkpt lat="39.71165207204022" lon="15.89386938590014"><ele>581.0</ele><time>2026-04-26T14:34:35Z</time></trkpt><trkpt lat="39.71162260672283" lon="15.89372709520259"><ele>584.0</ele><time>2026-04-26T14:34:37Z</time></trkpt><trkpt lat="39.71155741389115" lon="15.89359975685607"><ele>587.0</ele><time>2026-04-26T14:34:39Z</time></trkpt><trkpt lat="39.711459373537124" lon="15.893583227439713"><ele>590.0</ele><time>2026-04-26T14:34:40Z</time></trkpt><trkpt lat="39.71135437735095" lon="15.893726747686255"><ele>590.0</ele><time>2026-04-26T14:34:41Z</time></trkpt><trkpt lat="39.711237181439635" lon="15.893811238462108"><ele>590.0</ele><time>2026-04-26T14:34:42Z</time></trkpt><trkpt lat="39.71110363202873" lon="15.893907283396585"><ele>590.0</ele><time>2026-04-26T14:34:43Z</time></trkpt><trkpt lat="39.710993379425105" lon="15.89401246398207"><ele>590.0</ele><time>2026-04-26T14:34:44Z</time></trkpt><trkpt lat="39.71091071987348" lon="15.89411722991747"><ele>588.8</ele><time>2026-04-26T14:34:45Z</time></trkpt><trkpt lat="39.71083561578661" lon="15.89424981524784"><ele>587.6</ele><time>2026-04-26T14:34:46Z</time></trkpt><trkpt lat="39.71076941743643" lon="15.894373387124535"><ele>586.4</ele><time>2026-04-26T14:34:47Z</time></trkpt><trkpt lat="39.710711565293444" lon="15.894481379209024"><ele>585.2</ele><time>2026-04-26T14:34:48Z</time></trkpt><trkpt lat="39.710656636375965" lon="15.894562903241534"><ele>584.0</ele><time>2026-04-26T14:34:49Z</time></trkpt><trkpt lat="39.71058755160469" lon="15.894629806268314"><ele>587.0</ele><time>2026-04-26T14:34:50Z</time></trkpt><trkpt lat="39.71054855183778" lon="15.894731557939373"><ele>590.0</ele><time>2026-04-26T14:34:51Z</time></trkpt><trkpt lat="39.71052479855925" lon="15.894879748823282"><ele>593.0</ele><time>2026-04-26T14:34:52Z</time></trkpt><trkpt lat="39.71051732376172" lon="15.8950562125322"><ele>596.0</ele><time>2026-04-26T14:34:53Z</time></trkpt><trkpt lat="39.71051323902693" lon="15.89521668326658"><ele>595.6</ele><time>2026-04-26T14:34:54Z</time></trkpt><trkpt lat="39.710492575051575" lon="15.895327677653137"><ele>595.2</ele><time>2026-04-26T14:34:55Z</time></trkpt><trkpt lat="39.71044071028193" lon="15.895396627479972"><ele>594.8</ele><time>2026-04-26T14:34:56Z</time></trkpt><trkpt lat="39.71036432372563" lon="15.895470644176871"><ele>594.4</ele><time>2026-04-26T14:34:57Z</time></trkpt><trkpt lat="39.710284137020075" lon="15.895560318717209"><ele>594.0</ele><time>2026-04-26T14:34:58Z</time></trkpt><trkpt lat="39.71022926878224" lon="15.89568525253724"><ele>594.0</ele><time>2026-04-26T14:34:59Z</time></trkpt><trkpt lat="39.71017416429068" lon="15.895856864848742"><ele>594.0</ele><time>2026-04-26T14:35:00Z</time></trkpt><trkpt lat="39.71010551475482" lon="15.896031196926971"><ele>594.0</ele><time>2026-04-26T14:35:01Z</time></trkpt><trkpt lat="39.710020802147994" lon="15.896186160510823"><ele>594.0</ele><time>2026-04-26T14:35:02Z</time></trkpt><trkpt lat="39.7099292077891" lon="15.896347098040685"><ele>597.25</ele><time>2026-04-26T14:35:03Z</time></trkpt><trkpt lat="39.70985965135082" lon="15.89649775923817"><ele>600.5</ele><time>2026-04-26T14:35:04Z</time></trkpt><trkpt lat="39.709804264673785" lon="15.896640689753722"><ele>603.75</ele><time>2026-04-26T14:35:05Z</time></trkpt><trkpt lat="39.70976720176697" lon="15.896778915069886"><ele>607.0</ele><time>2026-04-26T14:35:06Z</time></trkpt><trkpt lat="39.70974708284017" lon="15.896911845275788"><ele>607.75</ele><time>2026-04-26T14:35:07Z</time></trkpt><trkpt lat="39.709749613159104" lon="15.897037681105049"><ele>608.5</ele><time>2026-04-26T14:35:08Z</time></trkpt><trkpt lat="39.709778569480754" lon="15.897166433722067"><ele>609.25</ele><time>2026-04-26T14:35:09Z</time></trkpt><trkpt lat="39.70985023537949" lon="15.897320526411981"><ele>610.0</ele><time>2026-04-26T14:35:10Z</time></trkpt><trkpt lat="39.70994074076555" lon="15.897487394108339"><ele>611.0</ele><time>2026-04-26T14:35:11Z</time></trkpt><trkpt lat="39.71001076790107" lon="15.897636748776105"><ele>612.0</ele><time>2026-04-26T14:35:12Z</time></trkpt><trkpt lat="39.71005224899389" lon="15.897783387776311"><ele>613.0</ele><time>2026-04-26T14:35:13Z</time></trkpt><trkpt lat="39.71007409346345" lon="15.897931179413463"><ele>614.0</ele><time>2026-04-26T14:35:14Z</time></trkpt><trkpt lat="39.710081759612365" lon="15.898096463940991"><ele>614.0</ele><time>2026-04-26T14:35:15Z</time></trkpt><trkpt lat="39.71009067987195" lon="15.89830874546534"><ele>614.0</ele><time>2026-04-26T14:35:16Z</time></trkpt><trkpt lat="39.710097029871946" lon="15.898474511114946"><ele>614.0</ele><time>2026-04-26T14:35:17Z</time></trkpt><trkpt lat="39.710091916106826" lon="15.898618432565646"><ele>614.0</ele><time>2026-04-26T14:35:18Z</time></trkpt><trkpt lat="39.71005384146797" lon="15.8987616743493"><ele>614.5</ele><time>2026-04-26T14:35:19Z</time></trkpt><trkpt lat="39.71000528511499" lon="15.89888991331729"><ele>615.0</ele><time>2026-04-26T14:35:20Z</time></trkpt><trkpt lat="39.70998576605052" lon="15.899051890176562"><ele>615.5</ele><time>2026-04-26T14:35:21Z</time></trkpt><trkpt lat="39.709987900655385" lon="15.899235293149124"><ele>616.0</ele><time>2026-04-26T14:35:22Z</time></trkpt><trkpt lat="39.70998293747366" lon="15.899410955963939"><ele>615.75</ele><time>2026-04-26T14:35:23Z</time></trkpt><trkpt lat="39.709969250912025" lon="15.899590423173715"><ele>615.5</ele><time>2026-04-26T14:35:24Z</time></trkpt><trkpt lat="39.70996282309634" lon="15.899773783087218"><ele>615.25</ele><time>2026-04-26T14:35:25Z</time></trkpt><trkpt lat="39.70995926371711" lon="15.89994406109345"><ele>615.0</ele><time>2026-04-26T14:35:26Z</time></trkpt><trkpt lat="39.709959253785875" lon="15.90009166114481"><ele>615.0</ele><time>2026-04-26T14:35:27Z</time></trkpt><trkpt lat="39.70996419341969" lon="15.90021401907622"><ele>615.0</ele><time>2026-04-26T14:35:28Z</time></trkpt><trkpt lat="39.70996738261782" lon="15.900336552356721"><ele>615.0</ele><time>2026-04-26T14:35:29Z</time></trkpt><trkpt lat="39.709973552620106" lon="15.900505289072631"><ele>615.0</ele><time>2026-04-26T14:35:29.999Z</time></trkpt><trkpt lat="39.709980775012916" lon="15.900686541505333"><ele>615.0</ele><time>2026-04-26T14:35:30.999Z</time></trkpt><trkpt lat="39.70998100889638" lon="15.900847237412984"><ele>615.0</ele><time>2026-04-26T14:35:31.999Z</time></trkpt><trkpt lat="39.710001171583095" lon="15.901013450691769"><ele>615.0</ele><time>2026-04-26T14:35:32.999Z</time></trkpt><trkpt lat="39.71005382742938" lon="15.901188469411377"><ele>615.0</ele><time>2026-04-26T14:35:33.999Z</time></trkpt><trkpt lat="39.71013507683193" lon="15.901352485215135"><ele>611.25</ele><time>2026-04-26T14:35:34.999Z</time></trkpt><trkpt lat="39.710222975406786" lon="15.90152163857482"><ele>607.5</ele><time>2026-04-26T14:35:35.999Z</time></trkpt><trkpt lat="39.710283429120864" lon="15.901691742818223"><ele>603.75</ele><time>2026-04-26T14:35:36.999Z</time></trkpt><trkpt lat="39.71031931344663" lon="15.901855249667006"><ele>600.0</ele><time>2026-04-26T14:35:37.999Z</time></trkpt><trkpt lat="39.71035310546888" lon="15.901989556517762"><ele>607.4</ele><time>2026-04-26T14:35:38.999Z</time></trkpt><trkpt lat="39.710395074220514" lon="15.902112418007626"><ele>614.8</ele><time>2026-04-26T14:35:39.999Z</time></trkpt><trkpt lat="39.71043185133946" lon="15.9022285982829"><ele>622.2</ele><time>2026-04-26T14:35:40.999Z</time></trkpt><trkpt lat="39.710444531984216" lon="15.902343155516615"><ele>629.6</ele><time>2026-04-26T14:35:41.999Z</time></trkpt><trkpt lat="39.71042680982586" lon="15.902476310909213"><ele>637.0</ele><time>2026-04-26T14:35:42.999Z</time></trkpt><trkpt lat="39.71041753369696" lon="15.902622738982434"><ele>637.0</ele><time>2026-04-26T14:35:43.999Z</time></trkpt><trkpt lat="39.71043019233493" lon="15.90274940490405"><ele>637.0</ele><time>2026-04-26T14:35:44.999Z</time></trkpt><trkpt lat="39.710432921435405" lon="15.902847195026032"><ele>637.0</ele><time>2026-04-26T14:35:45.999Z</time></trkpt><trkpt lat="39.710393459154155" lon="15.902948759639049"><ele>637.0</ele><time>2026-04-26T14:35:46.999Z</time></trkpt><trkpt lat="39.7103447806592" lon="15.903056556108636"><ele>637.0</ele><time>2026-04-26T14:35:47.999Z</time></trkpt><trkpt lat="39.71032152051091" lon="15.903169322272367"><ele>637.0</ele><time>2026-04-26T14:35:49Z</time></trkpt><trkpt lat="39.71032629620986" lon="15.903279377115581"><ele>637.0</ele><time>2026-04-26T14:35:50Z</time></trkpt><trkpt lat="39.71034661178105" lon="15.903395032152362"><ele>637.0</ele><time>2026-04-26T14:35:51Z</time></trkpt><trkpt lat="39.71035685980008" lon="15.903518237144738"><ele>637.0</ele><time>2026-04-26T14:35:52Z</time></trkpt><trkpt lat="39.71034608810951" lon="15.90365097902365"><ele>637.0</ele><time>2026-04-26T14:35:53Z</time></trkpt><trkpt lat="39.71032129919997" lon="15.903768688650889"><ele>637.0</ele><time>2026-04-26T14:35:54Z</time></trkpt><trkpt lat="39.71027555203515" lon="15.90386110833134"><ele>637.4</ele><time>2026-04-26T14:35:55Z</time></trkpt><trkpt lat="39.71023805988079" lon="15.903949763687343"><ele>637.8000000000001</ele><time>2026-04-26T14:35:56Z</time></trkpt><trkpt lat="39.71024781273358" lon="15.9040411565185"><ele>638.2</ele><time>2026-04-26T14:35:57Z</time></trkpt><trkpt lat="39.71029633870288" lon="15.904152674165486"><ele>638.6</ele><time>2026-04-26T14:35:58Z</time></trkpt><trkpt lat="39.71037253777615" lon="15.904271295881127"><ele>639.0</ele><time>2026-04-26T14:35:59Z</time></trkpt><trkpt lat="39.710404925491" lon="15.904383631076087"><ele>637.4</ele><time>2026-04-26T14:36:00Z</time></trkpt><trkpt lat="39.71040800883103" lon="15.904517881617565"><ele>635.8</ele><time>2026-04-26T14:36:01Z</time></trkpt><trkpt lat="39.71040379571369" lon="15.904670896096825"><ele>634.2</ele><time>2026-04-26T14:36:02Z</time></trkpt><trkpt lat="39.71038858645432" lon="15.904811366030001"><ele>632.6</ele><time>2026-04-26T14:36:03Z</time></trkpt><trkpt lat="39.71037591214407" lon="15.90492734041407"><ele>631.0</ele><time>2026-04-26T14:36:04Z</time></trkpt><trkpt lat="39.71037243758588" lon="15.905036557316953"><ele>627.0</ele><time>2026-04-26T14:36:05Z</time></trkpt><trkpt lat="39.7104031756219" lon="15.905149697718805"><ele>623.0</ele><time>2026-04-26T14:36:06Z</time></trkpt><trkpt lat="39.71045922618752" lon="15.90525832087623"><ele>619.0</ele><time>2026-04-26T14:36:07Z</time></trkpt><trkpt lat="39.710536048954204" lon="15.905367640111493"><ele>615.0</ele><time>2026-04-26T14:36:08Z</time></trkpt><trkpt lat="39.71063164838957" lon="15.905476826065406"><ele>611.0</ele><time>2026-04-26T14:36:09Z</time></trkpt><trkpt lat="39.710704712694714" lon="15.905579178154623"><ele>611.0</ele><time>2026-04-26T14:36:10Z</time></trkpt><trkpt lat="39.71074669813959" lon="15.905691112577317"><ele>611.0</ele><time>2026-04-26T14:36:11Z</time></trkpt><trkpt lat="39.71076734346805" lon="15.90581902563659"><ele>611.0</ele><time>2026-04-26T14:36:12Z</time></trkpt><trkpt lat="39.710777940947175" lon="15.905932935911428"><ele>611.0</ele><time>2026-04-26T14:36:13Z</time></trkpt><trkpt lat="39.710782364854026" lon="15.906056731932162"><ele>611.0</ele><time>2026-04-26T14:36:14Z</time></trkpt><trkpt lat="39.710789239273744" lon="15.906196032213328"><ele>607.8</ele><time>2026-04-26T14:36:15Z</time></trkpt><trkpt lat="39.71079935344385" lon="15.906328414869513"><ele>604.6</ele><time>2026-04-26T14:36:16Z</time></trkpt><trkpt lat="39.71081432263192" lon="15.90645584286757"><ele>601.4</ele><time>2026-04-26T14:36:17Z</time></trkpt><trkpt lat="39.710818216329834" lon="15.906584106675"><ele>598.2</ele><time>2026-04-26T14:36:18Z</time></trkpt><trkpt lat="39.710810548710995" lon="15.906698471546152"><ele>595.0</ele><time>2026-04-26T14:36:19Z</time></trkpt><trkpt lat="39.710809680433144" lon="15.906797239159943"><ele>595.0</ele><time>2026-04-26T14:36:21Z</time></trkpt><trkpt lat="39.71075379768553" lon="15.9068739112354"><ele>595.0</ele><time>2026-04-26T14:36:32Z</time></trkpt><trkpt lat="39.71070291162424" lon="15.90693838799612"><ele>595.0</ele><time>2026-04-26T14:36:34Z</time></trkpt><trkpt lat="39.71069630083107" lon="15.907069499389781"><ele>595.0</ele><time>2026-04-26T14:36:36Z</time></trkpt><trkpt lat="39.710744037971594" lon="15.90714997850694"><ele>595.0</ele><time>2026-04-26T14:36:38Z</time></trkpt><trkpt lat="39.710811304439666" lon="15.907214732822903"><ele>595.0</ele><time>2026-04-26T14:36:40Z</time></trkpt><trkpt lat="39.71087469909868" lon="15.90723730023239"><ele>595.0</ele><time>2026-04-26T14:36:42Z</time></trkpt><trkpt lat="39.71095162725719" lon="15.907251987367554"><ele>595.0</ele><time>2026-04-26T14:36:45Z</time></trkpt><trkpt lat="39.71097986248546" lon="15.907325659572344"><ele>595.0</ele><time>2026-04-26T14:36:49Z</time></trkpt><trkpt lat="39.710967196834915" lon="15.907407503642002"><ele>595.0</ele><time>2026-04-26T14:36:51Z</time></trkpt><trkpt lat="39.71090069275063" lon="15.907435768806524"><ele>595.0</ele><time>2026-04-26T14:36:54Z</time></trkpt><trkpt lat="39.710603640440915" lon="15.907517016606889"><ele>595.0</ele><time>2026-04-26T14:36:58Z</time></trkpt><trkpt lat="39.710523576617724" lon="15.907522054717646"><ele>595.0</ele><time>2026-04-26T14:36:59Z</time></trkpt><trkpt lat="39.7104449629105" lon="15.907527450022796"><ele>595.0</ele><time>2026-04-26T14:37:00Z</time></trkpt><trkpt lat="39.71037614962087" lon="15.90752637668735"><ele>595.0</ele><time>2026-04-26T14:37:01Z</time></trkpt><trkpt lat="39.71030847786596" lon="15.907510410547589"><ele>595.0</ele><time>2026-04-26T14:37:02Z</time></trkpt><trkpt lat="39.71024574695086" lon="15.907476648875656"><ele>595.0</ele><time>2026-04-26T14:37:03Z</time></trkpt><trkpt lat="39.710176689730055" lon="15.907421862588327"><ele>595.0</ele><time>2026-04-26T14:37:04Z</time></trkpt><trkpt lat="39.71009476638626" lon="15.907346916640376"><ele>598.2</ele><time>2026-04-26T14:37:05Z</time></trkpt><trkpt lat="39.710014008523466" lon="15.907257358260544"><ele>601.4</ele><time>2026-04-26T14:37:06Z</time></trkpt><trkpt lat="39.70994834491731" lon="15.907182006980225"><ele>604.6</ele><time>2026-04-26T14:37:07Z</time></trkpt><trkpt lat="39.70987316508239" lon="15.907099893864276"><ele>607.8</ele><time>2026-04-26T14:37:08Z</time></trkpt><trkpt lat="39.709802601451514" lon="15.907041643514324"><ele>611.0</ele><time>2026-04-26T14:37:09Z</time></trkpt><trkpt lat="39.7097283325641" lon="15.90692679761135"><ele>611.0</ele><time>2026-04-26T14:37:11Z</time></trkpt><trkpt lat="39.709770463093946" lon="15.906768835074192"><ele>611.0</ele><time>2026-04-26T14:37:13Z</time></trkpt><trkpt lat="39.709796092825435" lon="15.906687921283403"><ele>611.0</ele><time>2026-04-26T14:37:14Z</time></trkpt><trkpt lat="39.70978465554731" lon="15.906565576942265"><ele>611.0</ele><time>2026-04-26T14:37:16Z</time></trkpt><trkpt lat="39.709732012378865" lon="15.906457497834834"><ele>611.0</ele><time>2026-04-26T14:37:18Z</time></trkpt><trkpt lat="39.70964861190472" lon="15.9063892917016"><ele>612.4</ele><time>2026-04-26T14:37:19Z</time></trkpt><trkpt lat="39.70957049393794" lon="15.906309893356356"><ele>613.8</ele><time>2026-04-26T14:37:20Z</time></trkpt><trkpt lat="39.709523900265225" lon="15.906234514113894"><ele>615.1999999999999</ele><time>2026-04-26T14:37:21Z</time></trkpt><trkpt lat="39.70947908716025" lon="15.906130394826757"><ele>616.6</ele><time>2026-04-26T14:37:22Z</time></trkpt><trkpt lat="39.70941453591218" lon="15.90599194850675"><ele>618.0</ele><time>2026-04-26T14:37:23Z</time></trkpt><trkpt lat="39.709354503349324" lon="15.905840061549668"><ele>618.0</ele><time>2026-04-26T14:37:24Z</time></trkpt><trkpt lat="39.70930272545045" lon="15.905707958482939"><ele>618.0</ele><time>2026-04-26T14:37:25Z</time></trkpt><trkpt lat="39.70924055888202" lon="15.905578713997935"><ele>618.0</ele><time>2026-04-26T14:37:26Z</time></trkpt><trkpt lat="39.70918350133625" lon="15.905454905476734"><ele>618.0</ele><time>2026-04-26T14:37:27Z</time></trkpt><trkpt lat="39.70914471228639" lon="15.905334433475657"><ele>618.0</ele><time>2026-04-26T14:37:28Z</time></trkpt><trkpt lat="39.70910974788849" lon="15.905228732559545"><ele>618.0</ele><time>2026-04-26T14:37:29Z</time></trkpt><trkpt lat="39.70906990465317" lon="15.905128148326119"><ele>618.0</ele><time>2026-04-26T14:37:30Z</time></trkpt><trkpt lat="39.70904487755167" lon="15.905047690740904"><ele>618.0</ele><time>2026-04-26T14:37:31Z</time></trkpt><trkpt lat="39.70902699543391" lon="15.904961320139298"><ele>618.0</ele><time>2026-04-26T14:37:32Z</time></trkpt><trkpt lat="39.709016562157224" lon="15.904860978537897"><ele>618.0</ele><time>2026-04-26T14:37:32.999Z</time></trkpt><trkpt lat="39.709001931642355" lon="15.904732128721843"><ele>618.0</ele><time>2026-04-26T14:37:33.999Z</time></trkpt><trkpt lat="39.70900332031663" lon="15.90460777117838"><ele>616.5</ele><time>2026-04-26T14:37:34.999Z</time></trkpt><trkpt lat="39.70901946410756" lon="15.904487611458016"><ele>615.0</ele><time>2026-04-26T14:37:35.999Z</time></trkpt><trkpt lat="39.70895489730094" lon="15.904467587185326"><ele>613.5</ele><time>2026-04-26T14:37:36.999Z</time></trkpt><trkpt lat="39.70890256956911" lon="15.90440758082054"><ele>612.0</ele><time>2026-04-26T14:37:37.999Z</time></trkpt><trkpt lat="39.70884667103432" lon="15.904337109951166"><ele>610.5</ele><time>2026-04-26T14:37:38.999Z</time></trkpt><trkpt lat="39.708797724589715" lon="15.904224541296493"><ele>609.0</ele><time>2026-04-26T14:37:39.999Z</time></trkpt><trkpt lat="39.70876537083848" lon="15.904116293861742"><ele>606.8333333333334</ele><time>2026-04-26T14:37:40.999Z</time></trkpt><trkpt lat="39.70872175181645" lon="15.904021825606511"><ele>604.6666666666666</ele><time>2026-04-26T14:37:41.999Z</time></trkpt><trkpt lat="39.708673862778134" lon="15.903930662991861"><ele>602.5</ele><time>2026-04-26T14:37:42.999Z</time></trkpt><trkpt lat="39.70863279861996" lon="15.903865120424499"><ele>600.3333333333333</ele><time>2026-04-26T14:37:43.999Z</time></trkpt><trkpt lat="39.7085534683897" lon="15.903732975758247"><ele>598.1666666666666</ele><time>2026-04-26T14:37:45.999Z</time></trkpt><trkpt lat="39.70853670585117" lon="15.903646210200323"><ele>596.0</ele><time>2026-04-26T14:37:46.999Z</time></trkpt><trkpt lat="39.70853799635678" lon="15.903560652658618"><ele>602.8</ele><time>2026-04-26T14:37:47.999Z</time></trkpt><trkpt lat="39.708527046344436" lon="15.903425408677561"><ele>609.6</ele><time>2026-04-26T14:37:49.999Z</time></trkpt><trkpt lat="39.708443904764415" lon="15.903320957011193"><ele>616.4</ele><time>2026-04-26T14:37:51.999Z</time></trkpt><trkpt lat="39.708319165461106" lon="15.903297080256358"><ele>623.2</ele><time>2026-04-26T14:37:53.999Z</time></trkpt><trkpt lat="39.708246258387" lon="15.903313521726156"><ele>630.0</ele><time>2026-04-26T14:37:55Z</time></trkpt><trkpt lat="39.70814998485795" lon="15.903341593812366"><ele>630.0</ele><time>2026-04-26T14:37:56Z</time></trkpt><trkpt lat="39.70805637058659" lon="15.903362743180885"><ele>630.0</ele><time>2026-04-26T14:37:57Z</time></trkpt><trkpt lat="39.707944794950265" lon="15.903362521327557"><ele>630.0</ele><time>2026-04-26T14:37:58Z</time></trkpt><trkpt lat="39.707825151960044" lon="15.903355741311643"><ele>630.0</ele><time>2026-04-26T14:37:59Z</time></trkpt><trkpt lat="39.70768800685728" lon="15.903357207105385"><ele>636.2</ele><time>2026-04-26T14:38:00Z</time></trkpt><trkpt lat="39.70757800594566" lon="15.903362314505328"><ele>642.4</ele><time>2026-04-26T14:38:01Z</time></trkpt><trkpt lat="39.70748774058785" lon="15.903396867126412"><ele>648.5999999999999</ele><time>2026-04-26T14:38:02Z</time></trkpt><trkpt lat="39.70740495778311" lon="15.903418617861378"><ele>654.8</ele><time>2026-04-26T14:38:05Z</time></trkpt><trkpt lat="39.707320804483544" lon="15.90332448854858"><ele>661.0</ele><time>2026-04-26T14:38:07Z</time></trkpt><trkpt lat="39.70729960523607" lon="15.903225949783204"><ele>661.0</ele><time>2026-04-26T14:38:08Z</time></trkpt><trkpt lat="39.70726927230435" lon="15.90307727459075"><ele>661.0</ele><time>2026-04-26T14:38:10Z</time></trkpt><trkpt lat="39.70725819505015" lon="15.902961857151144"><ele>661.0</ele><time>2026-04-26T14:38:11Z</time></trkpt><trkpt lat="39.70724784373133" lon="15.90284699304213"><ele>661.0</ele><time>2026-04-26T14:38:12Z</time></trkpt><trkpt lat="39.70724762037071" lon="15.90275101148136"><ele>661.0</ele><time>2026-04-26T14:38:13Z</time></trkpt><trkpt lat="39.70726335987554" lon="15.902633374855453"><ele>659.3333333333334</ele><time>2026-04-26T14:38:14Z</time></trkpt><trkpt lat="39.707264150770044" lon="15.902494128421777"><ele>657.6666666666667</ele><time>2026-04-26T14:38:15Z</time></trkpt><trkpt lat="39.70725949350528" lon="15.902349557145799"><ele>656.0</ele><time>2026-04-26T14:38:16Z</time></trkpt><trkpt lat="39.70725286829504" lon="15.902231200370666"><ele>654.3333333333334</ele><time>2026-04-26T14:38:17Z</time></trkpt><trkpt lat="39.707259525803515" lon="15.902146708678853"><ele>652.6666666666666</ele><time>2026-04-26T14:38:18Z</time></trkpt><trkpt lat="39.70727168383438" lon="15.90205623880096"><ele>651.0</ele><time>2026-04-26T14:38:19Z</time></trkpt><trkpt lat="39.70728941378724" lon="15.901942171021307"><ele>651.0</ele><time>2026-04-26T14:38:20Z</time></trkpt><trkpt lat="39.707321032557324" lon="15.90183544002949"><ele>651.0</ele><time>2026-04-26T14:38:21Z</time></trkpt><trkpt lat="39.70733559766889" lon="15.901732853359164"><ele>651.0</ele><time>2026-04-26T14:38:22Z</time></trkpt><trkpt lat="39.70733136459225" lon="15.90164829816788"><ele>651.0</ele><time>2026-04-26T14:38:23Z</time></trkpt><trkpt lat="39.70729275666761" lon="15.901518961779828"><ele>651.0</ele><time>2026-04-26T14:38:25Z</time></trkpt><trkpt lat="39.70724223863688" lon="15.901462049599738"><ele>651.0</ele><time>2026-04-26T14:38:26Z</time></trkpt><trkpt lat="39.70719645827863" lon="15.901403790883153"><ele>651.0</ele><time>2026-04-26T14:38:27Z</time></trkpt><trkpt lat="39.70715415225868" lon="15.901334156196734"><ele>651.0</ele><time>2026-04-26T14:38:28Z</time></trkpt><trkpt lat="39.707137035776604" lon="15.901247498011141"><ele>651.0</ele><time>2026-04-26T14:38:29Z</time></trkpt><trkpt lat="39.70712005089273" lon="15.901108934966059"><ele>651.0</ele><time>2026-04-26T14:38:30Z</time></trkpt><trkpt lat="39.70712101434524" lon="15.900963107875745"><ele>651.0</ele><time>2026-04-26T14:38:31Z</time></trkpt><trkpt lat="39.70710270126797" lon="15.90085179696999"><ele>651.0</ele><time>2026-04-26T14:38:32Z</time></trkpt><trkpt lat="39.70707217345899" lon="15.900774877090315"><ele>651.0</ele><time>2026-04-26T14:38:33Z</time></trkpt><trkpt lat="39.70702881936098" lon="15.900684680438738"><ele>651.0</ele><time>2026-04-26T14:38:34Z</time></trkpt><trkpt lat="39.706980874125314" lon="15.900589820429959"><ele>651.0</ele><time>2026-04-26T14:38:35Z</time></trkpt><trkpt lat="39.706923770609514" lon="15.900504908944434"><ele>651.0</ele><time>2026-04-26T14:38:36Z</time></trkpt><trkpt lat="39.70687460312963" lon="15.90040277694979"><ele>651.0</ele><time>2026-04-26T14:38:37Z</time></trkpt><trkpt lat="39.706822769381155" lon="15.900270213008008"><ele>659.1999999999999</ele><time>2026-04-26T14:38:38Z</time></trkpt><trkpt lat="39.706766579677286" lon="15.900142339924814"><ele>667.4</ele><time>2026-04-26T14:38:39Z</time></trkpt><trkpt lat="39.70673436246471" lon="15.899996550981616"><ele>675.6</ele><time>2026-04-26T14:38:40Z</time></trkpt><trkpt lat="39.70670392379301" lon="15.899894263360062"><ele>683.8</ele><time>2026-04-26T14:38:41Z</time></trkpt><trkpt lat="39.70667393492991" lon="15.899811564843121"><ele>692.0</ele><time>2026-04-26T14:38:42Z</time></trkpt><trkpt lat="39.70660134613391" lon="15.899746246616289"><ele>692.0</ele><time>2026-04-26T14:38:43Z</time></trkpt><trkpt lat="39.70653065401116" lon="15.899685299833795"><ele>692.0</ele><time>2026-04-26T14:38:44Z</time></trkpt><trkpt lat="39.70644987140746" lon="15.899657280778262"><ele>692.0</ele><time>2026-04-26T14:38:45Z</time></trkpt><trkpt lat="39.70636951610011" lon="15.899603505618254"><ele>692.0</ele><time>2026-04-26T14:38:46Z</time></trkpt><trkpt lat="39.706307512832375" lon="15.899524523078686"><ele>692.0</ele><time>2026-04-26T14:38:47Z</time></trkpt><trkpt lat="39.706251980411736" lon="15.899398682513064"><ele>695.0</ele><time>2026-04-26T14:38:49Z</time></trkpt><trkpt lat="39.70616183582815" lon="15.899200117889057"><ele>698.0</ele><time>2026-04-26T14:38:51Z</time></trkpt><trkpt lat="39.70608258543955" lon="15.899067190241237"><ele>701.0</ele><time>2026-04-26T14:38:52Z</time></trkpt><trkpt lat="39.706015079653056" lon="15.898964937036643"><ele>704.0</ele><time>2026-04-26T14:38:53Z</time></trkpt><trkpt lat="39.705953069774324" lon="15.898871935231432"><ele>704.0</ele><time>2026-04-26T14:38:54Z</time></trkpt><trkpt lat="39.70590747113927" lon="15.898775261305328"><ele>704.0</ele><time>2026-04-26T14:38:55Z</time></trkpt><trkpt lat="39.70584951904395" lon="15.898687780552082"><ele>704.0</ele><time>2026-04-26T14:38:56Z</time></trkpt><trkpt lat="39.70580952846879" lon="15.898572897460902"><ele>704.0</ele><time>2026-04-26T14:38:58Z</time></trkpt><trkpt lat="39.70586887974233" lon="15.89844569199109"><ele>704.0</ele><time>2026-04-26T14:39:00Z</time></trkpt><trkpt lat="39.70594721096797" lon="15.898334124570917"><ele>701.0</ele><time>2026-04-26T14:39:02Z</time></trkpt><trkpt lat="39.705996186612154" lon="15.898195019222364"><ele>698.0</ele><time>2026-04-26T14:39:03Z</time></trkpt><trkpt lat="39.70607505756735" lon="15.898093462626752"><ele>695.0</ele><time>2026-04-26T14:39:04Z</time></trkpt><trkpt lat="39.706130246703744" lon="15.898015251357279"><ele>692.0</ele><time>2026-04-26T14:39:05Z</time></trkpt><trkpt lat="39.70618165633265" lon="15.89794157536682"><ele>689.0</ele><time>2026-04-26T14:39:06Z</time></trkpt><trkpt lat="39.706209905831265" lon="15.897863251230929"><ele>688.25</ele><time>2026-04-26T14:39:07Z</time></trkpt><trkpt lat="39.70619960419889" lon="15.897710345869244"><ele>687.5</ele><time>2026-04-26T14:39:09Z</time></trkpt><trkpt lat="39.70623555644709" lon="15.897562607988348"><ele>686.75</ele><time>2026-04-26T14:39:11Z</time></trkpt><trkpt lat="39.70616507766096" lon="15.897517937521195"><ele>686.0</ele><time>2026-04-26T14:39:15Z</time></trkpt><trkpt lat="39.70606613358418" lon="15.897315277717846"><ele>686.0</ele><time>2026-04-26T14:39:50.999Z</time></trkpt><trkpt lat="39.70603358097579" lon="15.897174677539352"><ele>686.0</ele><time>2026-04-26T14:39:52.999Z</time></trkpt><trkpt lat="39.70597216294451" lon="15.897150957114416"><ele>686.0</ele><time>2026-04-26T14:39:53.999Z</time></trkpt><trkpt lat="39.70588055617936" lon="15.897057874871274"><ele>686.0</ele><time>2026-04-26T14:39:55.999Z</time></trkpt><trkpt lat="39.70580003584833" lon="15.897009719473683"><ele>686.0</ele><time>2026-04-26T14:39:56.999Z</time></trkpt><trkpt lat="39.70571029740418" lon="15.896965141456267"><ele>686.0</ele><time>2026-04-26T14:39:57.999Z</time></trkpt><trkpt lat="39.70561670919549" lon="15.896929326928513"><ele>686.0</ele><time>2026-04-26T14:39:58.999Z</time></trkpt><trkpt lat="39.70549648884648" lon="15.896907985922821"><ele>686.0</ele><time>2026-04-26T14:40:00Z</time></trkpt><trkpt lat="39.70536407205108" lon="15.896874847795681"><ele>686.0</ele><time>2026-04-26T14:40:01Z</time></trkpt><trkpt lat="39.70522276630272" lon="15.896833087873773"><ele>685.1999999999999</ele><time>2026-04-26T14:40:02Z</time></trkpt><trkpt lat="39.705102737587474" lon="15.896764632552411"><ele>684.4</ele><time>2026-04-26T14:40:03Z</time></trkpt><trkpt lat="39.70498691347442" lon="15.896711321904684"><ele>683.6</ele><time>2026-04-26T14:40:04Z</time></trkpt><trkpt lat="39.70489424541503" lon="15.89667510693241"><ele>682.8</ele><time>2026-04-26T14:40:05Z</time></trkpt><trkpt lat="39.704805226175466" lon="15.896645177130093"><ele>682.0</ele><time>2026-04-26T14:40:06Z</time></trkpt><trkpt lat="39.70471410211864" lon="15.896617625219198"><ele>682.0</ele><time>2026-04-26T14:40:07Z</time></trkpt><trkpt lat="39.7045885414561" lon="15.89658901038993"><ele>682.0</ele><time>2026-04-26T14:40:08Z</time></trkpt><trkpt lat="39.70446240238258" lon="15.89654631847983"><ele>682.0</ele><time>2026-04-26T14:40:09Z</time></trkpt><trkpt lat="39.70435514060451" lon="15.89651536936241"><ele>682.0</ele><time>2026-04-26T14:40:10Z</time></trkpt><trkpt lat="39.70425727152601" lon="15.896475017741645"><ele>685.6</ele><time>2026-04-26T14:40:11Z</time></trkpt><trkpt lat="39.70417441191614" lon="15.896450930636883"><ele>689.2</ele><time>2026-04-26T14:40:12Z</time></trkpt><trkpt lat="39.70407138223436" lon="15.896443980147968"><ele>692.8</ele><time>2026-04-26T14:40:13Z</time></trkpt><trkpt lat="39.70397619658823" lon="15.89643652777512"><ele>696.4</ele><time>2026-04-26T14:40:14Z</time></trkpt><trkpt lat="39.70390086885686" lon="15.896395404489706"><ele>700.0</ele><time>2026-04-26T14:40:15Z</time></trkpt><trkpt lat="39.70380572451575" lon="15.896342315160755"><ele>700.0</ele><time>2026-04-26T14:40:16Z</time></trkpt><trkpt lat="39.70368034410668" lon="15.896307825016159"><ele>700.0</ele><time>2026-04-26T14:40:17Z</time></trkpt><trkpt lat="39.70355248737656" lon="15.896278181245613"><ele>700.0</ele><time>2026-04-26T14:40:18Z</time></trkpt><trkpt lat="39.70343157908577" lon="15.896257066195325"><ele>700.0</ele><time>2026-04-26T14:40:19Z</time></trkpt><trkpt lat="39.703323922198095" lon="15.896250413523516"><ele>701.4</ele><time>2026-04-26T14:40:20Z</time></trkpt><trkpt lat="39.703206430656294" lon="15.896257931027003"><ele>702.8</ele><time>2026-04-26T14:40:21Z</time></trkpt><trkpt lat="39.703107041587764" lon="15.896244072177591"><ele>704.2</ele><time>2026-04-26T14:40:22Z</time></trkpt><trkpt lat="39.70300688578768" lon="15.89623486022983"><ele>705.6</ele><time>2026-04-26T14:40:23Z</time></trkpt><trkpt lat="39.7028970925618" lon="15.896197652626714"><ele>707.0</ele><time>2026-04-26T14:40:24Z</time></trkpt><trkpt lat="39.70280158840666" lon="15.896184302822135"><ele>707.4000000000001</ele><time>2026-04-26T14:40:25Z</time></trkpt><trkpt lat="39.70271342480999" lon="15.896178493812918"><ele>707.8000000000001</ele><time>2026-04-26T14:40:26Z</time></trkpt><trkpt lat="39.702617689750305" lon="15.896130476524101"><ele>708.2</ele><time>2026-04-26T14:40:28Z</time></trkpt><trkpt lat="39.70259950199025" lon="15.895944829465623"><ele>708.6</ele><time>2026-04-26T14:40:30Z</time></trkpt><trkpt lat="39.7026276620994" lon="15.895808042986534"><ele>709.0</ele><time>2026-04-26T14:40:31Z</time></trkpt><trkpt lat="39.70268461556238" lon="15.895664321441485"><ele>706.4000000000001</ele><time>2026-04-26T14:40:32Z</time></trkpt><trkpt lat="39.70273392654711" lon="15.895485755055502"><ele>703.8</ele><time>2026-04-26T14:40:33Z</time></trkpt><trkpt lat="39.70275603112816" lon="15.895318577539003"><ele>701.2</ele><time>2026-04-26T14:40:34Z</time></trkpt><trkpt lat="39.70277850063819" lon="15.895191969002212"><ele>698.5999999999999</ele><time>2026-04-26T14:40:35Z</time></trkpt><trkpt lat="39.70278099864082" lon="15.895108477067266"><ele>696.0</ele><time>2026-04-26T14:40:36Z</time></trkpt><trkpt lat="39.70277941836637" lon="15.895023414863056"><ele>696.8333333333334</ele><time>2026-04-26T14:40:37Z</time></trkpt><trkpt lat="39.702746581442355" lon="15.894918982373014"><ele>697.6666666666666</ele><time>2026-04-26T14:40:38Z</time></trkpt><trkpt lat="39.70270383510739" lon="15.894813697464885"><ele>698.5</ele><time>2026-04-26T14:40:39Z</time></trkpt><trkpt lat="39.702663086832224" lon="15.894747061369454"><ele>699.3333333333333</ele><time>2026-04-26T14:40:40Z</time></trkpt><trkpt lat="39.70261062929271" lon="15.894627509427831"><ele>700.1666666666666</ele><time>2026-04-26T14:40:42Z</time></trkpt><trkpt lat="39.70254440078535" lon="15.894578283203836"><ele>701.0</ele><time>2026-04-26T14:40:44Z</time></trkpt><trkpt lat="39.70248076918438" lon="15.894563827014867"><ele>701.0</ele><time>2026-04-26T14:40:45Z</time></trkpt><trkpt lat="39.702466198142076" lon="15.894482848346604"><ele>701.0</ele><time>2026-04-26T14:41:11Z</time></trkpt><trkpt lat="39.70244550853469" lon="15.894377990692345"><ele>701.0</ele><time>2026-04-26T14:41:16Z</time></trkpt><trkpt lat="39.7024422977984" lon="15.89429455169762"><ele>701.0</ele><time>2026-04-26T14:41:18Z</time></trkpt><trkpt lat="39.70250359198427" lon="15.894162667176786"><ele>701.0</ele><time>2026-04-26T14:41:20Z</time></trkpt><trkpt lat="39.70253746322759" lon="15.894036861112117"><ele>701.0</ele><time>2026-04-26T14:41:21Z</time></trkpt><trkpt lat="39.70256371022096" lon="15.893919418710698"><ele>699.6666666666666</ele><time>2026-04-26T14:41:22Z</time></trkpt><trkpt lat="39.70258679182471" lon="15.893813744165557"><ele>698.3333333333333</ele><time>2026-04-26T14:41:23Z</time></trkpt><trkpt lat="39.70260297490234" lon="15.893683898789462"><ele>697.0</ele><time>2026-04-26T14:41:24Z</time></trkpt><trkpt lat="39.70260798739939" lon="15.89357020126311"><ele>695.6666666666666</ele><time>2026-04-26T14:41:25Z</time></trkpt><trkpt lat="39.70261958064854" lon="15.89348921673817"><ele>694.3333333333334</ele><time>2026-04-26T14:41:26Z</time></trkpt><trkpt lat="39.70264994986556" lon="15.89341220391236"><ele>693.0</ele><time>2026-04-26T14:41:27Z</time></trkpt><trkpt lat="39.70270777182752" lon="15.893308863326272"><ele>693.0</ele><time>2026-04-26T14:41:28Z</time></trkpt><trkpt lat="39.70276432002564" lon="15.89321090076907"><ele>693.0</ele><time>2026-04-26T14:41:29Z</time></trkpt><trkpt lat="39.70279493754284" lon="15.893128005477255"><ele>693.0</ele><time>2026-04-26T14:41:30Z</time></trkpt><trkpt lat="39.70281263499984" lon="15.893043227951512"><ele>693.0</ele><time>2026-04-26T14:41:31Z</time></trkpt><trkpt lat="39.70282063298927" lon="15.89292683297458"><ele>693.0</ele><time>2026-04-26T14:41:32Z</time></trkpt><trkpt lat="39.70282815974068" lon="15.892831596700752"><ele>693.0</ele><time>2026-04-26T14:41:33Z</time></trkpt><trkpt lat="39.702845252692384" lon="15.892736063868417"><ele>693.0</ele><time>2026-04-26T14:41:34Z</time></trkpt><trkpt lat="39.702865996987676" lon="15.892633070926733"><ele>693.0</ele><time>2026-04-26T14:41:35Z</time></trkpt><trkpt lat="39.70288273138488" lon="15.892533166654447"><ele>693.0</ele><time>2026-04-26T14:41:36Z</time></trkpt><trkpt lat="39.702897611647096" lon="15.892424198873055"><ele>693.0</ele><time>2026-04-26T14:41:37Z</time></trkpt><trkpt lat="39.70290938094265" lon="15.89231625031491"><ele>693.0</ele><time>2026-04-26T14:41:38Z</time></trkpt><trkpt lat="39.70292229340629" lon="15.892226634366942"><ele>693.0</ele><time>2026-04-26T14:41:39Z</time></trkpt><trkpt lat="39.70298881448113" lon="15.892072707885653"><ele>694.2</ele><time>2026-04-26T14:41:41Z</time></trkpt><trkpt lat="39.70304212475648" lon="15.891973533242782"><ele>695.4</ele><time>2026-04-26T14:41:42Z</time></trkpt><trkpt lat="39.70309630346433" lon="15.89185657613787"><ele>696.6</ele><time>2026-04-26T14:41:43Z</time></trkpt><trkpt lat="39.70313608063467" lon="15.891758892601679"><ele>697.8000000000001</ele><time>2026-04-26T14:41:44Z</time></trkpt><trkpt lat="39.70316734928127" lon="15.891562397229531"><ele>699.0</ele><time>2026-04-26T14:41:46Z</time></trkpt><trkpt lat="39.70317774187282" lon="15.89142291956212"><ele>699.0</ele><time>2026-04-26T14:41:47Z</time></trkpt><trkpt lat="39.703193480838685" lon="15.891313700968274"><ele>699.0</ele><time>2026-04-26T14:41:47.999Z</time></trkpt><trkpt lat="39.70321845538449" lon="15.891214555527345"><ele>699.0</ele><time>2026-04-26T14:41:48.999Z</time></trkpt><trkpt lat="39.70324959371558" lon="15.891110896222472"><ele>699.0</ele><time>2026-04-26T14:41:49.999Z</time></trkpt><trkpt lat="39.70328904418367" lon="15.891003962245357"><ele>699.0</ele><time>2026-04-26T14:41:50.999Z</time></trkpt><trkpt lat="39.703337301126865" lon="15.890885449113966"><ele>699.0</ele><time>2026-04-26T14:41:51.999Z</time></trkpt><trkpt lat="39.70337378888413" lon="15.890794938692743"><ele>698.5</ele><time>2026-04-26T14:41:52.999Z</time></trkpt><trkpt lat="39.70341729765289" lon="15.890710246517283"><ele>698.0</ele><time>2026-04-26T14:41:53.999Z</time></trkpt><trkpt lat="39.70348043213165" lon="15.89062025377857"><ele>697.5</ele><time>2026-04-26T14:41:54.999Z</time></trkpt><trkpt lat="39.70354870854471" lon="15.89054302708195"><ele>697.0</ele><time>2026-04-26T14:41:55.999Z</time></trkpt><trkpt lat="39.70360225932743" lon="15.890448618780502"><ele>696.5</ele><time>2026-04-26T14:41:56.999Z</time></trkpt><trkpt lat="39.70363374502347" lon="15.890330656554235"><ele>696.0</ele><time>2026-04-26T14:41:57.999Z</time></trkpt><trkpt lat="39.70364566178604" lon="15.89022178011192"><ele>698.0</ele><time>2026-04-26T14:41:58.999Z</time></trkpt><trkpt lat="39.70364738063821" lon="15.890118223302428"><ele>700.0</ele><time>2026-04-26T14:41:59.999Z</time></trkpt><trkpt lat="39.70364720269028" lon="15.89002690791612"><ele>702.0</ele><time>2026-04-26T14:42:00.999Z</time></trkpt><trkpt lat="39.703656769125494" lon="15.889933491302639"><ele>704.0</ele><time>2026-04-26T14:42:01.999Z</time></trkpt><trkpt lat="39.703692639572" lon="15.889834941410038"><ele>706.0</ele><time>2026-04-26T14:42:03.999Z</time></trkpt><trkpt lat="39.703797337865836" lon="15.889781862048498"><ele>708.0</ele><time>2026-04-26T14:42:06.001Z</time></trkpt><trkpt lat="39.703861898193274" lon="15.8897444287862"><ele>708.0</ele><time>2026-04-26T14:42:07.001Z</time></trkpt><trkpt lat="39.7039198510865" lon="15.889665897548054"><ele>708.0</ele><time>2026-04-26T14:42:08.001Z</time></trkpt><trkpt lat="39.703969401798005" lon="15.889578254339453"><ele>708.0</ele><time>2026-04-26T14:42:09.001Z</time></trkpt><trkpt lat="39.70402256858677" lon="15.889511732264477"><ele>708.0</ele><time>2026-04-26T14:42:10.001Z</time></trkpt><trkpt lat="39.70411839289484" lon="15.889431655621676"><ele>708.0</ele><time>2026-04-26T14:42:12.001Z</time></trkpt><trkpt lat="39.704214773493604" lon="15.889379415934886"><ele>708.0</ele><time>2026-04-26T14:42:14.001Z</time></trkpt><trkpt lat="39.70429524313195" lon="15.889310850330148"><ele>708.0</ele><time>2026-04-26T14:42:16.001Z</time></trkpt><trkpt lat="39.70435360627998" lon="15.88926569972506"><ele>708.0</ele><time>2026-04-26T14:42:17Z</time></trkpt><trkpt lat="39.7044039938366" lon="15.88919591710663"><ele>708.0</ele><time>2026-04-26T14:42:18.001Z</time></trkpt><trkpt lat="39.70443062945676" lon="15.889106406319403"><ele>708.0</ele><time>2026-04-26T14:42:19.001Z</time></trkpt><trkpt lat="39.70445128031699" lon="15.889024384647941"><ele>708.0</ele><time>2026-04-26T14:42:20Z</time></trkpt><trkpt lat="39.70448464944031" lon="15.888953903562287"><ele>708.0</ele><time>2026-04-26T14:42:21Z</time></trkpt><trkpt lat="39.70455252014494" lon="15.888906775488273"><ele>706.4</ele><time>2026-04-26T14:42:22Z</time></trkpt><trkpt lat="39.70463203693318" lon="15.888841900721497"><ele>704.8</ele><time>2026-04-26T14:42:23Z</time></trkpt><trkpt lat="39.70470389183077" lon="15.888765698065034"><ele>703.2</ele><time>2026-04-26T14:42:24Z</time></trkpt><trkpt lat="39.70476077109351" lon="15.888686322366032"><ele>701.6</ele><time>2026-04-26T14:42:25Z</time></trkpt><trkpt lat="39.704829106741336" lon="15.888560101005789"><ele>700.0</ele><time>2026-04-26T14:42:27Z</time></trkpt><trkpt lat="39.70481733403437" lon="15.888441265559253"><ele>704.5</ele><time>2026-04-26T14:42:30Z</time></trkpt><trkpt lat="39.70481385512931" lon="15.888281626513997"><ele>709.0</ele><time>2026-04-26T14:42:34Z</time></trkpt><trkpt lat="39.70483375986026" lon="15.888100996675927"><ele>713.5</ele><time>2026-04-26T14:42:35Z</time></trkpt><trkpt lat="39.70491490316174" lon="15.887991466426358"><ele>718.0</ele><time>2026-04-26T14:42:37Z</time></trkpt><trkpt lat="39.70497301838307" lon="15.887933734444577"><ele>718.0</ele><time>2026-04-26T14:42:38Z</time></trkpt><trkpt lat="39.705045700273374" lon="15.887890226931967"><ele>718.0</ele><time>2026-04-26T14:42:39Z</time></trkpt><trkpt lat="39.70512362869204" lon="15.887862542968094"><ele>718.0</ele><time>2026-04-26T14:42:40Z</time></trkpt><trkpt lat="39.7051976522898" lon="15.887844236828421"><ele>718.0</ele><time>2026-04-26T14:42:41Z</time></trkpt><trkpt lat="39.70526109123575" lon="15.887830520315266"><ele>718.0</ele><time>2026-04-26T14:42:42Z</time></trkpt><trkpt lat="39.70532372432922" lon="15.887794127983437"><ele>718.0</ele><time>2026-04-26T14:42:44Z</time></trkpt><trkpt lat="39.705357090072425" lon="15.887684172126011"><ele>714.2</ele><time>2026-04-26T14:42:46Z</time></trkpt><trkpt lat="39.705373775557895" lon="15.887542816798037"><ele>710.4</ele><time>2026-04-26T14:42:48Z</time></trkpt><trkpt lat="39.705389386130925" lon="15.887428607264164"><ele>706.6</ele><time>2026-04-26T14:42:50Z</time></trkpt><trkpt lat="39.705432476411474" lon="15.887294181837193"><ele>702.8000000000001</ele><time>2026-04-26T14:42:52Z</time></trkpt><trkpt lat="39.705464105139356" lon="15.88720977682035"><ele>699.0</ele><time>2026-04-26T14:42:53Z</time></trkpt><trkpt lat="39.7055009609162" lon="15.887110675717285"><ele>699.0</ele><time>2026-04-26T14:42:54Z</time></trkpt><trkpt lat="39.70557137395938" lon="15.886986103134932"><ele>699.0</ele><time>2026-04-26T14:42:55Z</time></trkpt><trkpt lat="39.705642071818325" lon="15.886900324432618"><ele>699.0</ele><time>2026-04-26T14:42:56Z</time></trkpt><trkpt lat="39.705692984297585" lon="15.88683344372764"><ele>699.0</ele><time>2026-04-26T14:42:57Z</time></trkpt><trkpt lat="39.70574864364629" lon="15.886696895309575"><ele>699.0</ele><time>2026-04-26T14:42:59Z</time></trkpt><trkpt lat="39.705797175918626" lon="15.886596385287513"><ele>702.0</ele><time>2026-04-26T14:43:01Z</time></trkpt><trkpt lat="39.70582759439498" lon="15.886479095954437"><ele>705.0</ele><time>2026-04-26T14:43:04Z</time></trkpt><trkpt lat="39.70582984480889" lon="15.886353330845564"><ele>708.0</ele><time>2026-04-26T14:43:05Z</time></trkpt><trkpt lat="39.706224105855746" lon="15.886097204066587"><ele>706.8333333333334</ele><time>2026-04-26T14:43:16Z</time></trkpt><trkpt lat="39.706334381724616" lon="15.88602155437963"><ele>705.6666666666666</ele><time>2026-04-26T14:43:18Z</time></trkpt><trkpt lat="39.706388659871244" lon="15.885974448439018"><ele>704.5</ele><time>2026-04-26T14:43:19Z</time></trkpt><trkpt lat="39.70644391203519" lon="15.885919675245844"><ele>703.3333333333333</ele><time>2026-04-26T14:43:20Z</time></trkpt><trkpt lat="39.70650656372726" lon="15.885861706147907"><ele>702.1666666666666</ele><time>2026-04-26T14:43:21Z</time></trkpt><trkpt lat="39.70657957549331" lon="15.885800225049074"><ele>701.0</ele><time>2026-04-26T14:43:22Z</time></trkpt><trkpt lat="39.70664828488969" lon="15.88572383890552"><ele>701.0</ele><time>2026-04-26T14:43:23Z</time></trkpt><trkpt lat="39.70671885622933" lon="15.885643132890042"><ele>701.0</ele><time>2026-04-26T14:43:24Z</time></trkpt><trkpt lat="39.706788220866585" lon="15.88554795000097"><ele>701.0</ele><time>2026-04-26T14:43:25Z</time></trkpt><trkpt lat="39.70687219824443" lon="15.885426216450705"><ele>701.0</ele><time>2026-04-26T14:43:26Z</time></trkpt><trkpt lat="39.70696408122221" lon="15.885287655329849"><ele>698.0</ele><time>2026-04-26T14:43:27Z</time></trkpt><trkpt lat="39.707060376914015" lon="15.885146244119177"><ele>695.0</ele><time>2026-04-26T14:43:28Z</time></trkpt><trkpt lat="39.70714846366946" lon="15.885016300631529"><ele>692.0</ele><time>2026-04-26T14:43:29Z</time></trkpt><trkpt lat="39.707227397376904" lon="15.884913536856041"><ele>689.0</ele><time>2026-04-26T14:43:30Z</time></trkpt><trkpt lat="39.70729387250195" lon="15.884823111629434"><ele>689.0</ele><time>2026-04-26T14:43:31Z</time></trkpt><trkpt lat="39.70734820710021" lon="15.88473978996845"><ele>689.0</ele><time>2026-04-26T14:43:32Z</time></trkpt><trkpt lat="39.70737948908804" lon="15.884652245577525"><ele>689.0</ele><time>2026-04-26T14:43:33Z</time></trkpt><trkpt lat="39.70739516169875" lon="15.884568088596938"><ele>689.0</ele><time>2026-04-26T14:43:34Z</time></trkpt><trkpt lat="39.707232542388454" lon="15.884632924604283"><ele>689.0</ele><time>2026-04-26T14:43:35Z</time></trkpt><trkpt lat="39.707219350720635" lon="15.884537668433783"><ele>689.0</ele><time>2026-04-26T14:43:49Z</time></trkpt><trkpt lat="39.70723499616678" lon="15.88442754180854"><ele>689.0</ele><time>2026-04-26T14:43:53Z</time></trkpt><trkpt lat="39.7072021548563" lon="15.884338571125806"><ele>689.0</ele><time>2026-04-26T14:43:54.999Z</time></trkpt><trkpt lat="39.707185216249364" lon="15.884236189271483"><ele>689.0</ele><time>2026-04-26T14:43:57.999Z</time></trkpt><trkpt lat="39.70719333708513" lon="15.884126012152205"><ele>689.0</ele><time>2026-04-26T14:43:59.999Z</time></trkpt><trkpt lat="39.70722547027271" lon="15.884054753376455"><ele>689.0</ele><time>2026-04-26T14:44:01.999Z</time></trkpt><trkpt lat="39.707320091205936" lon="15.884048448866096"><ele>688.2</ele><time>2026-04-26T14:44:04.999Z</time></trkpt><trkpt lat="39.70746183179883" lon="15.883889264439627"><ele>687.4000000000001</ele><time>2026-04-26T14:44:06.999Z</time></trkpt><trkpt lat="39.707513417252" lon="15.88382175081785"><ele>686.6</ele><time>2026-04-26T14:44:07.999Z</time></trkpt><trkpt lat="39.7075716075433" lon="15.883767524505132"><ele>685.8</ele><time>2026-04-26T14:44:08.999Z</time></trkpt><trkpt lat="39.70765308287878" lon="15.88368070644683"><ele>685.0</ele><time>2026-04-26T14:44:11.001Z</time></trkpt><trkpt lat="39.707708949796874" lon="15.883579633180844"><ele>681.0</ele><time>2026-04-26T14:44:13.001Z</time></trkpt><trkpt lat="39.707763921964705" lon="15.883519624050999"><ele>677.0</ele><time>2026-04-26T14:44:15.001Z</time></trkpt><trkpt lat="39.70786130846894" lon="15.883524423534473"><ele>673.0</ele><time>2026-04-26T14:44:17.001Z</time></trkpt><trkpt lat="39.70794266774232" lon="15.883543340482177"><ele>669.0</ele><time>2026-04-26T14:44:18.001Z</time></trkpt><trkpt lat="39.70802159115558" lon="15.883546639335055"><ele>665.0</ele><time>2026-04-26T14:44:19.001Z</time></trkpt><trkpt lat="39.70808690602251" lon="15.88352836556087"><ele>661.0</ele><time>2026-04-26T14:44:20.001Z</time></trkpt><trkpt lat="39.70815143207189" lon="15.883504562150645"><ele>661.0</ele><time>2026-04-26T14:44:21.001Z</time></trkpt><trkpt lat="39.70821417058244" lon="15.883472368562778"><ele>661.0</ele><time>2026-04-26T14:44:22.001Z</time></trkpt><trkpt lat="39.708284420670324" lon="15.883426238341976"><ele>661.0</ele><time>2026-04-26T14:44:23.001Z</time></trkpt><trkpt lat="39.70833179551663" lon="15.883360014074185"><ele>661.0</ele><time>2026-04-26T14:44:24.001Z</time></trkpt><trkpt lat="39.7083753016263" lon="15.88329530817626"><ele>661.0</ele><time>2026-04-26T14:44:25.001Z</time></trkpt><trkpt lat="39.70837931005271" lon="15.883182461561807"><ele>661.0</ele><time>2026-04-26T14:44:26.001Z</time></trkpt><trkpt lat="39.70847624308355" lon="15.88318251119242"><ele>660.0</ele><time>2026-04-26T14:44:28Z</time></trkpt><trkpt lat="39.70856548242027" lon="15.883297230577044"><ele>659.0</ele><time>2026-04-26T14:44:30Z</time></trkpt><trkpt lat="39.708631851534605" lon="15.883357220772973"><ele>658.0</ele><time>2026-04-26T14:44:31Z</time></trkpt><trkpt lat="39.7087053035701" lon="15.883408486479516"><ele>657.0</ele><time>2026-04-26T14:44:32Z</time></trkpt><trkpt lat="39.70877297330008" lon="15.883450675877546"><ele>656.0</ele><time>2026-04-26T14:44:33Z</time></trkpt><trkpt lat="39.70890013667584" lon="15.883422122149291"><ele>659.3333333333333</ele><time>2026-04-26T14:44:35Z</time></trkpt><trkpt lat="39.70897334567764" lon="15.883366206793848"><ele>662.6666666666666</ele><time>2026-04-26T14:44:36Z</time></trkpt><trkpt lat="39.709060261990565" lon="15.883293140116661"><ele>666.0</ele><time>2026-04-26T14:44:37Z</time></trkpt><trkpt lat="39.70915041159234" lon="15.883247779435376"><ele>669.3333333333334</ele><time>2026-04-26T14:44:38Z</time></trkpt><trkpt lat="39.70921996100195" lon="15.883208603801394"><ele>672.6666666666667</ele><time>2026-04-26T14:44:39Z</time></trkpt><trkpt lat="39.709245653510536" lon="15.883128446677144"><ele>676.0</ele><time>2026-04-26T14:44:42Z</time></trkpt><trkpt lat="39.70923971958911" lon="15.88300501650554"><ele>676.0</ele><time>2026-04-26T14:44:44Z</time></trkpt><trkpt lat="39.709229720965006" lon="15.882873947949872"><ele>676.0</ele><time>2026-04-26T14:44:46Z</time></trkpt><trkpt lat="39.709223443911924" lon="15.882783027177068"><ele>676.0</ele><time>2026-04-26T14:44:47Z</time></trkpt><trkpt lat="39.709203755364705" lon="15.88267699402195"><ele>676.0</ele><time>2026-04-26T14:44:48Z</time></trkpt><trkpt lat="39.70917782282448" lon="15.882561131522406"><ele>676.0</ele><time>2026-04-26T14:44:49Z</time></trkpt><trkpt lat="39.70916218946415" lon="15.882433353897397"><ele>676.0</ele><time>2026-04-26T14:44:51Z</time></trkpt><trkpt lat="39.70914850844431" lon="15.882318498870234"><ele>675.8</ele><time>2026-04-26T14:44:53Z</time></trkpt><trkpt lat="39.70915238679266" lon="15.882201269673352"><ele>675.5999999999999</ele><time>2026-04-26T14:44:55Z</time></trkpt><trkpt lat="39.70917164975189" lon="15.88205496841774"><ele>675.4</ele><time>2026-04-26T14:44:57Z</time></trkpt><trkpt lat="39.70916232579173" lon="15.881915842364505"><ele>675.2</ele><time>2026-04-26T14:44:59Z</time></trkpt><trkpt lat="39.7091458692009" lon="15.881835039728116"><ele>675.0</ele><time>2026-04-26T14:45:00Z</time></trkpt><trkpt lat="39.70918450299708" lon="15.88172623138549"><ele>675.0</ele><time>2026-04-26T14:45:02Z</time></trkpt><trkpt lat="39.709261605152996" lon="15.881774330354759"><ele>675.0</ele><time>2026-04-26T14:45:05Z</time></trkpt><trkpt lat="39.70938802548465" lon="15.881781184319605"><ele>675.0</ele><time>2026-04-26T14:45:09Z</time></trkpt><trkpt lat="39.709531922580396" lon="15.881870343144893"><ele>675.0</ele><time>2026-04-26T14:45:10Z</time></trkpt><trkpt lat="39.70961594205831" lon="15.881910892770035"><ele>671.6666666666666</ele><time>2026-04-26T14:45:11Z</time></trkpt><trkpt lat="39.709680525364085" lon="15.88192915825038"><ele>668.3333333333334</ele><time>2026-04-26T14:45:12Z</time></trkpt><trkpt lat="39.709755803699416" lon="15.881950037462554"><ele>665.0</ele><time>2026-04-26T14:45:13Z</time></trkpt><trkpt lat="39.709835630501935" lon="15.881956913232106"><ele>661.6666666666667</ele><time>2026-04-26T14:45:14Z</time></trkpt><trkpt lat="39.709914114555744" lon="15.88196437498205"><ele>658.3333333333334</ele><time>2026-04-26T14:45:15Z</time></trkpt><trkpt lat="39.709997716935554" lon="15.882050246900047"><ele>655.0</ele><time>2026-04-26T14:45:16Z</time></trkpt><trkpt lat="39.71011093486885" lon="15.882060570418172"><ele>655.0</ele><time>2026-04-26T14:45:17Z</time></trkpt><trkpt lat="39.71022923139546" lon="15.882060909332534"><ele>655.0</ele><time>2026-04-26T14:45:18Z</time></trkpt><trkpt lat="39.71034224324515" lon="15.882069661770187"><ele>655.0</ele><time>2026-04-26T14:45:19Z</time></trkpt><trkpt lat="39.71044264585225" lon="15.882080274491713"><ele>655.0</ele><time>2026-04-26T14:45:20Z</time></trkpt><trkpt lat="39.71053808971897" lon="15.882090363036472"><ele>655.0</ele><time>2026-04-26T14:45:21Z</time></trkpt><trkpt lat="39.71061768861232" lon="15.882094366787232"><ele>653.25</ele><time>2026-04-26T14:45:22Z</time></trkpt><trkpt lat="39.710697560872944" lon="15.882144895933212"><ele>651.5</ele><time>2026-04-26T14:45:23Z</time></trkpt><trkpt lat="39.710781985308934" lon="15.88218763533629"><ele>649.75</ele><time>2026-04-26T14:45:24Z</time></trkpt><trkpt lat="39.71086045650938" lon="15.88224144651709"><ele>648.0</ele><time>2026-04-26T14:45:25Z</time></trkpt><trkpt lat="39.71104135014337" lon="15.882271844483848"><ele>649.4</ele><time>2026-04-26T14:45:27Z</time></trkpt><trkpt lat="39.71116986665173" lon="15.882410382235262"><ele>650.8</ele><time>2026-04-26T14:45:29Z</time></trkpt><trkpt lat="39.71123808149106" lon="15.882454762523237"><ele>652.2</ele><time>2026-04-26T14:45:30Z</time></trkpt><trkpt lat="39.71130827005323" lon="15.882508437542164"><ele>653.6</ele><time>2026-04-26T14:45:31Z</time></trkpt><trkpt lat="39.71136112537288" lon="15.882580237082815"><ele>655.0</ele><time>2026-04-26T14:45:32Z</time></trkpt><trkpt lat="39.71141965268962" lon="15.882616567546748"><ele>650.2</ele><time>2026-04-26T14:45:33Z</time></trkpt><trkpt lat="39.71148015445399" lon="15.88264502121703"><ele>645.4</ele><time>2026-04-26T14:45:34Z</time></trkpt><trkpt lat="39.7115904285441" lon="15.882668410607186"><ele>640.6</ele><time>2026-04-26T14:45:36Z</time></trkpt><trkpt lat="39.71173285966781" lon="15.88263668541341"><ele>635.8</ele><time>2026-04-26T14:45:38Z</time></trkpt><trkpt lat="39.71183762765532" lon="15.882626740761468"><ele>631.0</ele><time>2026-04-26T14:45:39Z</time></trkpt><trkpt lat="39.71193727355195" lon="15.882632622456553"><ele>631.0</ele><time>2026-04-26T14:45:40Z</time></trkpt><trkpt lat="39.71210912118238" lon="15.882676929731613"><ele>631.0</ele><time>2026-04-26T14:45:42Z</time></trkpt><trkpt lat="39.71218361591657" lon="15.882713146420738"><ele>631.0</ele><time>2026-04-26T14:45:43Z</time></trkpt><trkpt lat="39.71225391593416" lon="15.882743339860665"><ele>631.0</ele><time>2026-04-26T14:45:44Z</time></trkpt><trkpt lat="39.71234534144674" lon="15.88275002637849"><ele>631.0</ele><time>2026-04-26T14:45:46Z</time></trkpt><trkpt lat="39.71258173220093" lon="15.882738692695575"><ele>631.0</ele><time>2026-04-26T14:48:38Z</time></trkpt><trkpt lat="39.712675366571126" lon="15.882729917477864"><ele>631.0</ele><time>2026-04-26T14:48:40Z</time></trkpt><trkpt lat="39.71276702661762" lon="15.882642818152126"><ele>631.0</ele><time>2026-04-26T14:48:42Z</time></trkpt><trkpt lat="39.712796208743434" lon="15.882535371155223"><ele>631.0</ele><time>2026-04-26T14:48:44Z</time></trkpt><trkpt lat="39.712787726808735" lon="15.882377125302218"><ele>631.0</ele><time>2026-04-26T14:48:46Z</time></trkpt><trkpt lat="39.712743964414216" lon="15.88223595620306"><ele>633.3333333333334</ele><time>2026-04-26T14:48:48Z</time></trkpt><trkpt lat="39.71271805888535" lon="15.88215569064871"><ele>635.6666666666667</ele><time>2026-04-26T14:48:49Z</time></trkpt><trkpt lat="39.71269508987216" lon="15.88207436158916"><ele>638.0</ele><time>2026-04-26T14:48:50Z</time></trkpt><trkpt lat="39.71267586809824" lon="15.881994104357553"><ele>640.3333333333334</ele><time>2026-04-26T14:48:51Z</time></trkpt><trkpt lat="39.71264589896378" lon="15.881893343101204"><ele>642.6666666666666</ele><time>2026-04-26T14:48:52Z</time></trkpt><trkpt lat="39.712610663511285" lon="15.881789173330375"><ele>645.0</ele><time>2026-04-26T14:48:53Z</time></trkpt><trkpt lat="39.71257714025692" lon="15.881690115343835"><ele>646.3333333333334</ele><time>2026-04-26T14:48:54Z</time></trkpt><trkpt lat="39.71254684028116" lon="15.881594069536165"><ele>647.6666666666666</ele><time>2026-04-26T14:48:55Z</time></trkpt><trkpt lat="39.7125195119642" lon="15.881519105261688"><ele>649.0</ele><time>2026-04-26T14:48:56Z</time></trkpt><trkpt lat="39.71249789793402" lon="15.88140552196477"><ele>650.3333333333333</ele><time>2026-04-26T14:48:58Z</time></trkpt><trkpt lat="39.7125197892813" lon="15.881296700745079"><ele>651.6666666666666</ele><time>2026-04-26T14:49:00Z</time></trkpt><trkpt lat="39.71259428463437" lon="15.881277414928547"><ele>653.0</ele><time>2026-04-26T14:49:01Z</time></trkpt><trkpt lat="39.712661400001544" lon="15.881247100211096"><ele>653.0000000000001</ele><time>2026-04-26T14:49:02Z</time></trkpt><trkpt lat="39.712731357241786" lon="15.881224513696036"><ele>653.0</ele><time>2026-04-26T14:49:03Z</time></trkpt><trkpt lat="39.71280365859912" lon="15.881197064819423"><ele>653.0</ele><time>2026-04-26T14:49:04Z</time></trkpt><trkpt lat="39.71287128112491" lon="15.881174637107932"><ele>653.0</ele><time>2026-04-26T14:49:05Z</time></trkpt><trkpt lat="39.712934442258195" lon="15.881154081679622"><ele>653.0</ele><time>2026-04-26T14:49:06Z</time></trkpt><trkpt lat="39.71300661905639" lon="15.881144131627257"><ele>653.0000000000001</ele><time>2026-04-26T14:49:07Z</time></trkpt><trkpt lat="39.713084634791294" lon="15.881079555263376"><ele>653.0</ele><time>2026-04-26T14:49:08Z</time></trkpt><trkpt lat="39.71317700022404" lon="15.881015335517436"><ele>650.4</ele><time>2026-04-26T14:49:09Z</time></trkpt><trkpt lat="39.713267436875924" lon="15.880946184214"><ele>647.8</ele><time>2026-04-26T14:49:10Z</time></trkpt><trkpt lat="39.71334430464583" lon="15.88086338683537"><ele>645.2</ele><time>2026-04-26T14:49:11Z</time></trkpt><trkpt lat="39.71342372007043" lon="15.880764690113597"><ele>642.6</ele><time>2026-04-26T14:49:12Z</time></trkpt><trkpt lat="39.713508340225104" lon="15.88066154203191"><ele>640.0</ele><time>2026-04-26T14:49:13Z</time></trkpt><trkpt lat="39.71359388247905" lon="15.880578687715667"><ele>640.8333333333334</ele><time>2026-04-26T14:49:14Z</time></trkpt><trkpt lat="39.71366983077322" lon="15.88051048243714"><ele>641.6666666666667</ele><time>2026-04-26T14:49:15Z</time></trkpt><trkpt lat="39.71372555055714" lon="15.880456927710867"><ele>642.5</ele><time>2026-04-26T14:49:16Z</time></trkpt><trkpt lat="39.71376742798561" lon="15.880382891607175"><ele>643.3333333333334</ele><time>2026-04-26T14:49:17Z</time></trkpt><trkpt lat="39.713795369815976" lon="15.880286227069"><ele>644.1666666666666</ele><time>2026-04-26T14:49:18Z</time></trkpt><trkpt lat="39.71381966011876" lon="15.88017988351014"><ele>645.0</ele><time>2026-04-26T14:49:19Z</time></trkpt><trkpt lat="39.71391428422006" lon="15.880070165092748"><ele>645.0</ele><time>2026-04-26T14:49:21Z</time></trkpt><trkpt lat="39.71399413869639" lon="15.880047623617918"><ele>645.0</ele><time>2026-04-26T14:49:22Z</time></trkpt><trkpt lat="39.714077934498604" lon="15.88002917658984"><ele>645.0</ele><time>2026-04-26T14:49:23Z</time></trkpt><trkpt lat="39.71415022200107" lon="15.879998433889924"><ele>645.0</ele><time>2026-04-26T14:49:24Z</time></trkpt><trkpt lat="39.71421726576467" lon="15.880024913947295"><ele>645.0</ele><time>2026-04-26T14:49:26Z</time></trkpt><trkpt lat="39.71429490793503" lon="15.880138880516732"><ele>645.0</ele><time>2026-04-26T14:49:28Z</time></trkpt><trkpt lat="39.71439087782333" lon="15.880130127038166"><ele>641.4</ele><time>2026-04-26T14:49:30Z</time></trkpt><trkpt lat="39.71447515688018" lon="15.88009543971287"><ele>637.8</ele><time>2026-04-26T14:49:31Z</time></trkpt><trkpt lat="39.714566895792885" lon="15.880074881851609"><ele>634.2</ele><time>2026-04-26T14:49:32Z</time></trkpt><trkpt lat="39.71468218942416" lon="15.88002183108634"><ele>630.6</ele><time>2026-04-26T14:49:34Z</time></trkpt><trkpt lat="39.7147182371492" lon="15.879925454324017"><ele>627.0</ele><time>2026-04-26T14:49:35Z</time></trkpt><trkpt lat="39.71477653886774" lon="15.87983048369921"><ele>627.0</ele><time>2026-04-26T14:49:36Z</time></trkpt><trkpt lat="39.714814440971104" lon="15.879706761065135"><ele>627.0</ele><time>2026-04-26T14:49:37Z</time></trkpt><trkpt lat="39.71486361283581" lon="15.87959220225807"><ele>627.0</ele><time>2026-04-26T14:49:38Z</time></trkpt><trkpt lat="39.71490360834824" lon="15.879507831636824"><ele>627.0</ele><time>2026-04-26T14:49:39Z</time></trkpt><trkpt lat="39.714932068155605" lon="15.879366596086271"><ele>627.0</ele><time>2026-04-26T14:49:41Z</time></trkpt><trkpt lat="39.71493693122861" lon="15.879250356927662"><ele>628.2</ele><time>2026-04-26T14:49:42Z</time></trkpt><trkpt lat="39.714941955547275" lon="15.879154502235037"><ele>629.4000000000001</ele><time>2026-04-26T14:49:43Z</time></trkpt><trkpt lat="39.71487127198114" lon="15.879004947317844"><ele>630.5999999999999</ele><time>2026-04-26T14:49:45Z</time></trkpt><trkpt lat="39.71482690817938" lon="15.878934818853809"><ele>631.8</ele><time>2026-04-26T14:49:46Z</time></trkpt><trkpt lat="39.714792715760495" lon="15.878833796729626"><ele>633.0</ele><time>2026-04-26T14:49:48Z</time></trkpt><trkpt lat="39.71497516628336" lon="15.878644127948832"><ele>633.0</ele><time>2026-04-26T14:49:59Z</time></trkpt><trkpt lat="39.71501915276475" lon="15.87858131409261"><ele>633.0</ele><time>2026-04-26T14:50:00Z</time></trkpt><trkpt lat="39.715067545331536" lon="15.87850319660431"><ele>633.0</ele><time>2026-04-26T14:50:01Z</time></trkpt><trkpt lat="39.71511991876933" lon="15.878424605538543"><ele>633.0</ele><time>2026-04-26T14:50:02Z</time></trkpt><trkpt lat="39.71519147662583" lon="15.878328859865375"><ele>633.0</ele><time>2026-04-26T14:50:03Z</time></trkpt><trkpt lat="39.715254935198786" lon="15.878242602973236"><ele>633.0</ele><time>2026-04-26T14:50:04Z</time></trkpt><trkpt lat="39.71531081041537" lon="15.878157082712036"><ele>631.0</ele><time>2026-04-26T14:50:04.999Z</time></trkpt><trkpt lat="39.71534681987326" lon="15.878066212946397"><ele>629.0</ele><time>2026-04-26T14:50:05.999Z</time></trkpt><trkpt lat="39.71535455711568" lon="15.8779829609554"><ele>627.0</ele><time>2026-04-26T14:50:06.999Z</time></trkpt><trkpt lat="39.71535216065739" lon="15.877897366388659"><ele>625.0</ele><time>2026-04-26T14:50:07.999Z</time></trkpt><trkpt lat="39.715311770722394" lon="15.877760330804279"><ele>623.0</ele><time>2026-04-26T14:50:09.999Z</time></trkpt><trkpt lat="39.71527498502245" lon="15.877678754482634"><ele>621.0</ele><time>2026-04-26T14:50:10.999Z</time></trkpt><trkpt lat="39.71524112900617" lon="15.877562979694263"><ele>626.5</ele><time>2026-04-26T14:50:11.999Z</time></trkpt><trkpt lat="39.71520131350942" lon="15.877432465834229"><ele>632.0</ele><time>2026-04-26T14:50:12.999Z</time></trkpt><trkpt lat="39.715155478641016" lon="15.87733575641751"><ele>637.5</ele><time>2026-04-26T14:50:13.999Z</time></trkpt><trkpt lat="39.71510620679874" lon="15.877281572347183"><ele>643.0</ele><time>2026-04-26T14:50:14.999Z</time></trkpt><trkpt lat="39.71504543443908" lon="15.877231784654967"><ele>648.5</ele><time>2026-04-26T14:50:15.999Z</time></trkpt><trkpt lat="39.714959957390505" lon="15.877147440200012"><ele>654.0</ele><time>2026-04-26T14:50:17.999Z</time></trkpt><trkpt lat="39.71494229491896" lon="15.877032863067198"><ele>654.0</ele><time>2026-04-26T14:50:19.999Z</time></trkpt><trkpt lat="39.71503259363105" lon="15.876931605406815"><ele>654.0</ele><time>2026-04-26T14:50:21.999Z</time></trkpt><trkpt lat="39.715108940629534" lon="15.87689226487004"><ele>654.0</ele><time>2026-04-26T14:50:22.999Z</time></trkpt><trkpt lat="39.71520167507836" lon="15.87682905868188"><ele>654.0</ele><time>2026-04-26T14:50:23.999Z</time></trkpt><trkpt lat="39.71529427623213" lon="15.8767533619043"><ele>654.0</ele><time>2026-04-26T14:50:24.999Z</time></trkpt><trkpt lat="39.715385646350455" lon="15.876680576283205"><ele>650.2</ele><time>2026-04-26T14:50:25.999Z</time></trkpt><trkpt lat="39.71546558027129" lon="15.876628540051525"><ele>646.4000000000001</ele><time>2026-04-26T14:50:26.999Z</time></trkpt><trkpt lat="39.71552188905543" lon="15.876582338930145"><ele>642.6</ele><time>2026-04-26T14:50:28Z</time></trkpt><trkpt lat="39.71560031128982" lon="15.876466735734548"><ele>638.8</ele><time>2026-04-26T14:50:30Z</time></trkpt><trkpt lat="39.71562576357236" lon="15.876366647344181"><ele>635.0</ele><time>2026-04-26T14:50:31Z</time></trkpt><trkpt lat="39.71564447844267" lon="15.876243238141566"><ele>635.0</ele><time>2026-04-26T14:50:32Z</time></trkpt><trkpt lat="39.71565135028285" lon="15.876140650041075"><ele>635.0</ele><time>2026-04-26T14:50:33Z</time></trkpt><trkpt lat="39.71561724190175" lon="15.87604322913618"><ele>635.0</ele><time>2026-04-26T14:50:35Z</time></trkpt><trkpt lat="39.715571992781456" lon="15.875980293570041"><ele>635.0</ele><time>2026-04-26T14:50:36Z</time></trkpt><trkpt lat="39.71550326562764" lon="15.875898874319095"><ele>635.0</ele><time>2026-04-26T14:50:37Z</time></trkpt><trkpt lat="39.71547799787939" lon="15.875806441405691"><ele>635.0</ele><time>2026-04-26T14:50:38Z</time></trkpt><trkpt lat="39.71543875886992" lon="15.875735882945673"><ele>634.8</ele><time>2026-04-26T14:50:39Z</time></trkpt><trkpt lat="39.71534781299228" lon="15.875660456955284"><ele>634.6</ele><time>2026-04-26T14:50:41Z</time></trkpt><trkpt lat="39.71523301048825" lon="15.875547899829947"><ele>634.4</ele><time>2026-04-26T14:50:43Z</time></trkpt><trkpt lat="39.715161533344606" lon="15.87546987664295"><ele>634.2</ele><time>2026-04-26T14:50:44Z</time></trkpt><trkpt lat="39.71510236129404" lon="15.875393225939487"><ele>634.0</ele><time>2026-04-26T14:50:45Z</time></trkpt><trkpt lat="39.71504982666568" lon="15.875346217293272"><ele>639.2</ele><time>2026-04-26T14:50:46Z</time></trkpt><trkpt lat="39.714973756534384" lon="15.875244222627549"><ele>644.4</ele><time>2026-04-26T14:50:48Z</time></trkpt><trkpt lat="39.71498303627065" lon="15.875138046442858"><ele>649.6</ele><time>2026-04-26T14:50:50Z</time></trkpt><trkpt lat="39.715042855347995" lon="15.875075807769353"><ele>654.8</ele><time>2026-04-26T14:50:51Z</time></trkpt><trkpt lat="39.71513250222751" lon="15.87503227180762"><ele>660.0</ele><time>2026-04-26T14:50:52Z</time></trkpt><trkpt lat="39.71523517736452" lon="15.874986799249601"><ele>654.4</ele><time>2026-04-26T14:50:53Z</time></trkpt><trkpt lat="39.715332162422236" lon="15.87490490585867"><ele>648.8</ele><time>2026-04-26T14:50:54Z</time></trkpt><trkpt lat="39.715409897637485" lon="15.874796878598072"><ele>643.2</ele><time>2026-04-26T14:50:55Z</time></trkpt><trkpt lat="39.71549234385957" lon="15.874719217117399"><ele>637.6</ele><time>2026-04-26T14:50:56Z</time></trkpt><trkpt lat="39.71558509254976" lon="15.874664861577376"><ele>632.0</ele><time>2026-04-26T14:50:57Z</time></trkpt><trkpt lat="39.71568080395374" lon="15.874579107505243"><ele>632.0</ele><time>2026-04-26T14:50:58Z</time></trkpt><trkpt lat="39.71576426429937" lon="15.87448678237993"><ele>632.0</ele><time>2026-04-26T14:50:59Z</time></trkpt><trkpt lat="39.71582790918387" lon="15.874425670649606"><ele>632.0</ele><time>2026-04-26T14:51:00Z</time></trkpt><trkpt lat="39.71590294678417" lon="15.874394874685816"><ele>632.0</ele><time>2026-04-26T14:51:01Z</time></trkpt><trkpt lat="39.71601383236692" lon="15.874361209234355"><ele>632.0</ele><time>2026-04-26T14:51:02Z</time></trkpt><trkpt lat="39.71612898828754" lon="15.874308204262862"><ele>631.8333333333333</ele><time>2026-04-26T14:51:03Z</time></trkpt><trkpt lat="39.71620708798409" lon="15.874260131011996"><ele>631.6666666666666</ele><time>2026-04-26T14:51:04Z</time></trkpt><trkpt lat="39.71627969252881" lon="15.874210368025803"><ele>631.5</ele><time>2026-04-26T14:51:05Z</time></trkpt><trkpt lat="39.71636179965015" lon="15.8741728899244"><ele>631.3333333333334</ele><time>2026-04-26T14:51:06Z</time></trkpt><trkpt lat="39.716431937808835" lon="15.874141026825217"><ele>631.1666666666667</ele><time>2026-04-26T14:51:07Z</time></trkpt><trkpt lat="39.71651378958778" lon="15.874091989259139"><ele>631.0</ele><time>2026-04-26T14:51:09Z</time></trkpt><trkpt lat="39.71652913617778" lon="15.873996960020284"><ele>631.0</ele><time>2026-04-26T14:51:11Z</time></trkpt><trkpt lat="39.716461920030056" lon="15.873859064624117"><ele>631.0</ele><time>2026-04-26T14:51:13Z</time></trkpt><trkpt lat="39.71640544901182" lon="15.873781686652762"><ele>631.0</ele><time>2026-04-26T14:51:14Z</time></trkpt><trkpt lat="39.716351418646454" lon="15.873712200701458"><ele>631.0</ele><time>2026-04-26T14:51:15Z</time></trkpt><trkpt lat="39.71629841850327" lon="15.873651603015714"><ele>631.0</ele><time>2026-04-26T14:51:16Z</time></trkpt><trkpt lat="39.716250466227784" lon="15.873585043156627"><ele>631.0</ele><time>2026-04-26T14:51:17Z</time></trkpt><trkpt lat="39.71617670166385" lon="15.87351492587664"><ele>630.8333333333334</ele><time>2026-04-26T14:51:18Z</time></trkpt><trkpt lat="39.71614007916028" lon="15.873418790266594"><ele>630.6666666666667</ele><time>2026-04-26T14:51:19Z</time></trkpt><trkpt lat="39.71608221640098" lon="15.873334560837275"><ele>630.5</ele><time>2026-04-26T14:51:20Z</time></trkpt><trkpt lat="39.716030583816" lon="15.873260818255194"><ele>630.3333333333334</ele><time>2026-04-26T14:51:21Z</time></trkpt><trkpt lat="39.71597654259205" lon="15.87318868439535"><ele>630.1666666666666</ele><time>2026-04-26T14:51:23Z</time></trkpt><trkpt lat="39.71601419297253" lon="15.873088113469201"><ele>630.0</ele><time>2026-04-26T14:51:25Z</time></trkpt><trkpt lat="39.71606767306461" lon="15.873035252926524"><ele>630.0</ele><time>2026-04-26T14:51:26Z</time></trkpt><trkpt lat="39.71618653665359" lon="15.873046622503752"><ele>630.0</ele><time>2026-04-26T14:51:27Z</time></trkpt><trkpt lat="39.716296092925575" lon="15.87298515252929"><ele>630.0</ele><time>2026-04-26T14:51:28Z</time></trkpt><trkpt lat="39.71639105282858" lon="15.872926828035538"><ele>630.0</ele><time>2026-04-26T14:51:29Z</time></trkpt><trkpt lat="39.71648406503551" lon="15.872874261934601"><ele>630.0</ele><time>2026-04-26T14:51:30Z</time></trkpt><trkpt lat="39.716561382997135" lon="15.872835861042331"><ele>630.0</ele><time>2026-04-26T14:51:31Z</time></trkpt><trkpt lat="39.71664061926096" lon="15.8728201529419"><ele>630.0</ele><time>2026-04-26T14:51:32Z</time></trkpt><trkpt lat="39.716711337188244" lon="15.872815906194734"><ele>630.0</ele><time>2026-04-26T14:51:33Z</time></trkpt><trkpt lat="39.71677654500304" lon="15.872804587806177"><ele>630.0</ele><time>2026-04-26T14:51:34Z</time></trkpt><trkpt lat="39.71684301196587" lon="15.872762421063044"><ele>630.0</ele><time>2026-04-26T14:51:35Z</time></trkpt><trkpt lat="39.716919070229096" lon="15.87268620331849"><ele>630.0</ele><time>2026-04-26T14:51:36Z</time></trkpt><trkpt lat="39.7170231001559" lon="15.872629571276661"><ele>629.2</ele><time>2026-04-26T14:51:37Z</time></trkpt><trkpt lat="39.71713450271505" lon="15.872600314096632"><ele>628.4</ele><time>2026-04-26T14:51:38Z</time></trkpt><trkpt lat="39.7172321109377" lon="15.87257107803917"><ele>627.6</ele><time>2026-04-26T14:51:39Z</time></trkpt><trkpt lat="39.71731792034775" lon="15.872520970691188"><ele>626.8</ele><time>2026-04-26T14:51:40Z</time></trkpt><trkpt lat="39.71738989512822" lon="15.872484669332199"><ele>626.0</ele><time>2026-04-26T14:51:41Z</time></trkpt><trkpt lat="39.71745599905755" lon="15.87245872108154"><ele>626.0</ele><time>2026-04-26T14:51:42Z</time></trkpt><trkpt lat="39.717566207072664" lon="15.872438752808307"><ele>626.0</ele><time>2026-04-26T14:51:44Z</time></trkpt><trkpt lat="39.717667948177" lon="15.872394133661475"><ele>626.0</ele><time>2026-04-26T14:51:46Z</time></trkpt><trkpt lat="39.717668035544015" lon="15.872286875511273"><ele>626.0</ele><time>2026-04-26T14:51:48Z</time></trkpt><trkpt lat="39.71763367893647" lon="15.872195702767257"><ele>626.0</ele><time>2026-04-26T14:51:50Z</time></trkpt><trkpt lat="39.717638178115365" lon="15.872059337351418"><ele>626.0</ele><time>2026-04-26T14:51:52Z</time></trkpt><trkpt lat="39.71761252993454" lon="15.871976736696757"><ele>626.0</ele><time>2026-04-26T14:51:53Z</time></trkpt><trkpt lat="39.71756617214268" lon="15.871882096564361"><ele>626.0</ele><time>2026-04-26T14:51:54Z</time></trkpt><trkpt lat="39.717515129839164" lon="15.871766015532888"><ele>626.0</ele><time>2026-04-26T14:51:55Z</time></trkpt><trkpt lat="39.71743562141663" lon="15.871627589435219"><ele>626.0</ele><time>2026-04-26T14:51:56Z</time></trkpt><trkpt lat="39.71737336152236" lon="15.871521338226891"><ele>624.4</ele><time>2026-04-26T14:51:57Z</time></trkpt><trkpt lat="39.71731888877554" lon="15.871416209750972"><ele>622.8</ele><time>2026-04-26T14:51:58Z</time></trkpt><trkpt lat="39.71727567350051" lon="15.871307398315063"><ele>621.1999999999999</ele><time>2026-04-26T14:51:59Z</time></trkpt><trkpt lat="39.717243432778076" lon="15.871198898477656"><ele>619.6</ele><time>2026-04-26T14:52:00Z</time></trkpt><trkpt lat="39.71720646183464" lon="15.871083930399973"><ele>618.0</ele><time>2026-04-26T14:52:01Z</time></trkpt><trkpt lat="39.71716809057258" lon="15.870967179640768"><ele>615.0</ele><time>2026-04-26T14:52:02Z</time></trkpt><trkpt lat="39.71713156881841" lon="15.870846923023565"><ele>612.0</ele><time>2026-04-26T14:52:03Z</time></trkpt><trkpt lat="39.71710219536897" lon="15.870728158476734"><ele>609.0</ele><time>2026-04-26T14:52:04Z</time></trkpt><trkpt lat="39.71708490414371" lon="15.870615718050212"><ele>606.0</ele><time>2026-04-26T14:52:05Z</time></trkpt><trkpt lat="39.71707487739519" lon="15.8705117196324"><ele>603.0</ele><time>2026-04-26T14:52:06Z</time></trkpt><trkpt lat="39.717053257204896" lon="15.870419563433915"><ele>600.0</ele><time>2026-04-26T14:52:07Z</time></trkpt><trkpt lat="39.71700090298375" lon="15.870332540959362"><ele>600.0</ele><time>2026-04-26T14:52:08Z</time></trkpt><trkpt lat="39.71696382661321" lon="15.870240899677265"><ele>600.0</ele><time>2026-04-26T14:52:09Z</time></trkpt><trkpt lat="39.716940203977764" lon="15.8701509373964"><ele>600.0</ele><time>2026-04-26T14:52:09.999Z</time></trkpt><trkpt lat="39.716993702448335" lon="15.870033203817618"><ele>600.0</ele><time>2026-04-26T14:52:10.999Z</time></trkpt><trkpt lat="39.71701588887896" lon="15.869888835808622"><ele>600.0</ele><time>2026-04-26T14:52:11.999Z</time></trkpt><trkpt lat="39.71701559660753" lon="15.869769816874674"><ele>598.0</ele><time>2026-04-26T14:52:12.999Z</time></trkpt><trkpt lat="39.71697413177326" lon="15.869653367263373"><ele>596.0</ele><time>2026-04-26T14:52:13.999Z</time></trkpt><trkpt lat="39.716948129696654" lon="15.869527626396904"><ele>594.0</ele><time>2026-04-26T14:52:14.999Z</time></trkpt><trkpt lat="39.71693893716429" lon="15.869409755503437"><ele>592.0</ele><time>2026-04-26T14:52:15.999Z</time></trkpt><trkpt lat="39.7169616129592" lon="15.869278799112656"><ele>590.0</ele><time>2026-04-26T14:52:16.999Z</time></trkpt><trkpt lat="39.71700048682448" lon="15.869105159325402"><ele>588.5</ele><time>2026-04-26T14:52:17.999Z</time></trkpt><trkpt lat="39.71703118415027" lon="15.868963689340914"><ele>587.0</ele><time>2026-04-26T14:52:18.999Z</time></trkpt><trkpt lat="39.7170475097434" lon="15.868851824114055"><ele>585.5</ele><time>2026-04-26T14:52:19.999Z</time></trkpt><trkpt lat="39.717064839055865" lon="15.868747888976353"><ele>584.0</ele><time>2026-04-26T14:52:20.999Z</time></trkpt><trkpt lat="39.71708999262766" lon="15.868652399942594"><ele>582.5</ele><time>2026-04-26T14:52:21.999Z</time></trkpt><trkpt lat="39.71713028278542" lon="15.868568564726829"><ele>581.0</ele><time>2026-04-26T14:52:22.999Z</time></trkpt><trkpt lat="39.71717795254497" lon="15.868489573253202"><ele>579.8</ele><time>2026-04-26T14:52:23.999Z</time></trkpt><trkpt lat="39.71720588934618" lon="15.868408373290407"><ele>578.6</ele><time>2026-04-26T14:52:24.999Z</time></trkpt><trkpt lat="39.71722553043198" lon="15.86829414692406"><ele>577.4</ele><time>2026-04-26T14:52:25.999Z</time></trkpt><trkpt lat="39.7172500989896" lon="15.868112892882088"><ele>576.2</ele><time>2026-04-26T14:52:26.999Z</time></trkpt><trkpt lat="39.717272897715745" lon="15.867924370507144"><ele>575.0</ele><time>2026-04-26T14:52:27.999Z</time></trkpt><trkpt lat="39.71730366513825" lon="15.867750877926946"><ele>575.0</ele><time>2026-04-26T14:52:28.999Z</time></trkpt><trkpt lat="39.71731826308852" lon="15.867610585669315"><ele>575.0</ele><time>2026-04-26T14:52:29.999Z</time></trkpt><trkpt lat="39.71731575232965" lon="15.86745461680282"><ele>575.0</ele><time>2026-04-26T14:52:30.999Z</time></trkpt><trkpt lat="39.71729917646087" lon="15.867285423460972"><ele>575.0</ele><time>2026-04-26T14:52:31.999Z</time></trkpt><trkpt lat="39.71726862392797" lon="15.8671492763423"><ele>574.0</ele><time>2026-04-26T14:52:32.999Z</time></trkpt><trkpt lat="39.717254954713155" lon="15.867040556281141"><ele>573.0</ele><time>2026-04-26T14:52:34Z</time></trkpt><trkpt lat="39.71727934279459" lon="15.866917283310539"><ele>572.0</ele><time>2026-04-26T14:52:35Z</time></trkpt><trkpt lat="39.71732425107413" lon="15.86679404492455"><ele>571.0</ele><time>2026-04-26T14:52:36Z</time></trkpt><trkpt lat="39.717392640010715" lon="15.86668997164271"><ele>570.0</ele><time>2026-04-26T14:52:37Z</time></trkpt><trkpt lat="39.717451572986185" lon="15.866594866736826"><ele>568.75</ele><time>2026-04-26T14:52:38Z</time></trkpt><trkpt lat="39.717491659800096" lon="15.866460672638347"><ele>567.5</ele><time>2026-04-26T14:52:39Z</time></trkpt><trkpt lat="39.71752078846331" lon="15.866281886667819"><ele>566.25</ele><time>2026-04-26T14:52:40Z</time></trkpt><trkpt lat="39.71754695663939" lon="15.866114877472054"><ele>565.0</ele><time>2026-04-26T14:52:41Z</time></trkpt><trkpt lat="39.717571262677126" lon="15.865979116669557"><ele>564.0</ele><time>2026-04-26T14:52:42Z</time></trkpt><trkpt lat="39.71761668149355" lon="15.8658678047265"><ele>563.0</ele><time>2026-04-26T14:52:43Z</time></trkpt><trkpt lat="39.71762530698698" lon="15.865757827287196"><ele>562.0</ele><time>2026-04-26T14:52:44Z</time></trkpt><trkpt lat="39.717543966867616" lon="15.865619395414322"><ele>561.0</ele><time>2026-04-26T14:52:45Z</time></trkpt><trkpt lat="39.7175384123461" lon="15.865501417476018"><ele>560.0</ele><time>2026-04-26T14:52:46Z</time></trkpt><trkpt lat="39.71756471003173" lon="15.865402642111766"><ele>560.0</ele><time>2026-04-26T14:52:47Z</time></trkpt><trkpt lat="39.717568660852805" lon="15.865288173827238"><ele>560.0</ele><time>2026-04-26T14:52:48Z</time></trkpt><trkpt lat="39.717552589245415" lon="15.865152638003845"><ele>560.0</ele><time>2026-04-26T14:52:49Z</time></trkpt><trkpt lat="39.71754918762536" lon="15.865016378576403"><ele>560.0</ele><time>2026-04-26T14:52:50Z</time></trkpt><trkpt lat="39.71753393113854" lon="15.864916144866505"><ele>560.0</ele><time>2026-04-26T14:52:51Z</time></trkpt><trkpt lat="39.71749996000801" lon="15.864815186679374"><ele>559.25</ele><time>2026-04-26T14:52:52Z</time></trkpt><trkpt lat="39.717427460822535" lon="15.864684555283102"><ele>558.5</ele><time>2026-04-26T14:52:53Z</time></trkpt><trkpt lat="39.71733401404561" lon="15.864539435517633"><ele>557.75</ele><time>2026-04-26T14:52:54Z</time></trkpt><trkpt lat="39.7172684812483" lon="15.864424979633133"><ele>557.0</ele><time>2026-04-26T14:52:55Z</time></trkpt><trkpt lat="39.71723799601606" lon="15.864335661407678"><ele>555.4</ele><time>2026-04-26T14:52:56Z</time></trkpt><trkpt lat="39.717240451528525" lon="15.864211294750378"><ele>553.8000000000001</ele><time>2026-04-26T14:52:57Z</time></trkpt><trkpt lat="39.7171859903447" lon="15.864097895188035"><ele>552.2</ele><time>2026-04-26T14:52:58Z</time></trkpt><trkpt lat="39.717125731932285" lon="15.863983460260416"><ele>550.6</ele><time>2026-04-26T14:52:59Z</time></trkpt><trkpt lat="39.71704131023287" lon="15.863868171999188"><ele>549.0</ele><time>2026-04-26T14:53:00Z</time></trkpt><trkpt lat="39.716981721586045" lon="15.863751644217562"><ele>549.8</ele><time>2026-04-26T14:53:01Z</time></trkpt><trkpt lat="39.71688683293196" lon="15.863679312865724"><ele>550.5999999999999</ele><time>2026-04-26T14:53:02Z</time></trkpt><trkpt lat="39.716807482423654" lon="15.863587418620972"><ele>551.4</ele><time>2026-04-26T14:53:03Z</time></trkpt><trkpt lat="39.716765305786566" lon="15.863514565649565"><ele>552.1999999999999</ele><time>2026-04-26T14:53:04Z</time></trkpt><trkpt lat="39.71675446952354" lon="15.863390334765885"><ele>553.0</ele><time>2026-04-26T14:53:05Z</time></trkpt><trkpt lat="39.716681669161304" lon="15.863246287046456"><ele>553.0</ele><time>2026-04-26T14:53:06Z</time></trkpt><trkpt lat="39.71660873377204" lon="15.863061456913021"><ele>553.0</ele><time>2026-04-26T14:53:07Z</time></trkpt><trkpt lat="39.716524891342544" lon="15.862859518669836"><ele>553.0</ele><time>2026-04-26T14:53:08Z</time></trkpt><trkpt lat="39.716468231773035" lon="15.862668494685567"><ele>549.5</ele><time>2026-04-26T14:53:09Z</time></trkpt><trkpt lat="39.71639657478144" lon="15.86252353290008"><ele>546.0</ele><time>2026-04-26T14:53:10Z</time></trkpt><trkpt lat="39.71633664742558" lon="15.862372885651565"><ele>542.5</ele><time>2026-04-26T14:53:11Z</time></trkpt><trkpt lat="39.71626807078382" lon="15.862217960917148"><ele>539.0</ele><time>2026-04-26T14:53:12Z</time></trkpt><trkpt lat="39.71622118203648" lon="15.862056553868301"><ele>539.0</ele><time>2026-04-26T14:53:13Z</time></trkpt><trkpt lat="39.71619552558532" lon="15.861889648813888"><ele>539.0</ele><time>2026-04-26T14:53:14Z</time></trkpt><trkpt lat="39.71615794914622" lon="15.861710175195828"><ele>539.0</ele><time>2026-04-26T14:53:15Z</time></trkpt><trkpt lat="39.71610026982043" lon="15.861535135435519"><ele>539.0</ele><time>2026-04-26T14:53:16Z</time></trkpt><trkpt lat="39.716034419775234" lon="15.861365944468195"><ele>539.4</ele><time>2026-04-26T14:53:17Z</time></trkpt><trkpt lat="39.715972942838285" lon="15.861223601620356"><ele>539.8</ele><time>2026-04-26T14:53:18Z</time></trkpt><trkpt lat="39.71592647831423" lon="15.861123092983378"><ele>540.2</ele><time>2026-04-26T14:53:19Z</time></trkpt><trkpt lat="39.71587954607982" lon="15.861045704513199"><ele>540.6</ele><time>2026-04-26T14:53:20Z</time></trkpt><trkpt lat="39.715826253010775" lon="15.860992282667953"><ele>541.0</ele><time>2026-04-26T14:53:21Z</time></trkpt><trkpt lat="39.71575828877377" lon="15.860909479794673"><ele>540.75</ele><time>2026-04-26T14:53:22Z</time></trkpt><trkpt lat="39.71564404099004" lon="15.86082082440698"><ele>540.5</ele><time>2026-04-26T14:53:23Z</time></trkpt><trkpt lat="39.71552961790476" lon="15.860737986765102"><ele>540.25</ele><time>2026-04-26T14:53:24Z</time></trkpt><trkpt lat="39.71538555090144" lon="15.860700875648213"><ele>540.0</ele><time>2026-04-26T14:53:25Z</time></trkpt><trkpt lat="39.71522813966973" lon="15.860634152468798"><ele>540.0</ele><time>2026-04-26T14:53:26Z</time></trkpt><trkpt lat="39.715116354581625" lon="15.860539434043622"><ele>540.0</ele><time>2026-04-26T14:53:27Z</time></trkpt><trkpt lat="39.71501705642513" lon="15.860428715639088"><ele>540.0</ele><time>2026-04-26T14:53:28Z</time></trkpt><trkpt lat="39.71489848630426" lon="15.860297972298262"><ele>540.0</ele><time>2026-04-26T14:53:29Z</time></trkpt><trkpt lat="39.714777207115695" lon="15.860236175418088"><ele>540.0</ele><time>2026-04-26T14:53:30Z</time></trkpt><trkpt lat="39.714688277880505" lon="15.860137028369165"><ele>540.0</ele><time>2026-04-26T14:53:31Z</time></trkpt><trkpt lat="39.714616109514964" lon="15.859985488580222"><ele>540.0</ele><time>2026-04-26T14:53:32Z</time></trkpt><trkpt lat="39.71452618774837" lon="15.859840177840624"><ele>540.0</ele><time>2026-04-26T14:53:33Z</time></trkpt><trkpt lat="39.71443982429973" lon="15.859703120396826"><ele>539.75</ele><time>2026-04-26T14:53:34Z</time></trkpt><trkpt lat="39.71433093063701" lon="15.859583775857221"><ele>539.5</ele><time>2026-04-26T14:53:35Z</time></trkpt><trkpt lat="39.71423935766119" lon="15.859447244174978"><ele>539.25</ele><time>2026-04-26T14:53:36Z</time></trkpt><trkpt lat="39.714161477651565" lon="15.859327504838921"><ele>539.0</ele><time>2026-04-26T14:53:37Z</time></trkpt><trkpt lat="39.714094442443134" lon="15.85920900495077"><ele>533.25</ele><time>2026-04-26T14:53:38Z</time></trkpt><trkpt lat="39.71402663067636" lon="15.85910173703133"><ele>527.5</ele><time>2026-04-26T14:53:39Z</time></trkpt><trkpt lat="39.71395668611126" lon="15.858995884633272"><ele>521.75</ele><time>2026-04-26T14:53:40Z</time></trkpt><trkpt lat="39.713881984991694" lon="15.858883291124188"><ele>516.0</ele><time>2026-04-26T14:53:41Z</time></trkpt><trkpt lat="39.71378406460689" lon="15.858786016585338"><ele>516.0</ele><time>2026-04-26T14:53:42Z</time></trkpt><trkpt lat="39.713675546712935" lon="15.858691262525696"><ele>516.0</ele><time>2026-04-26T14:53:43Z</time></trkpt><trkpt lat="39.713584694029876" lon="15.858626438149802"><ele>516.0</ele><time>2026-04-26T14:53:44Z</time></trkpt><trkpt lat="39.71352795728757" lon="15.858528475766226"><ele>516.0</ele><time>2026-04-26T14:53:45Z</time></trkpt><trkpt lat="39.71348287500343" lon="15.858436988618145"><ele>516.0</ele><time>2026-04-26T14:53:46Z</time></trkpt><trkpt lat="39.71344581875497" lon="15.858332088313094"><ele>513.0</ele><time>2026-04-26T14:53:47Z</time></trkpt><trkpt lat="39.71338906425318" lon="15.85818051040812"><ele>510.0</ele><time>2026-04-26T14:53:48Z</time></trkpt><trkpt lat="39.71331521497469" lon="15.858058113306118"><ele>507.0</ele><time>2026-04-26T14:53:49Z</time></trkpt><trkpt lat="39.71325148186644" lon="15.857952985997258"><ele>504.0</ele><time>2026-04-26T14:53:50Z</time></trkpt><trkpt lat="39.71318520050854" lon="15.857856543558555"><ele>504.0</ele><time>2026-04-26T14:53:51Z</time></trkpt><trkpt lat="39.71309816527134" lon="15.85776070931806"><ele>504.0</ele><time>2026-04-26T14:53:52Z</time></trkpt><trkpt lat="39.7129647257264" lon="15.857646003496834"><ele>504.0</ele><time>2026-04-26T14:53:53Z</time></trkpt><trkpt lat="39.71281861991425" lon="15.857516421555573"><ele>502.0</ele><time>2026-04-26T14:53:54Z</time></trkpt><trkpt lat="39.712709524213864" lon="15.857380717710589"><ele>500.0</ele><time>2026-04-26T14:53:55Z</time></trkpt><trkpt lat="39.71261712818489" lon="15.857276366970348"><ele>498.0</ele><time>2026-04-26T14:53:56Z</time></trkpt><trkpt lat="39.71252997614542" lon="15.857222436779786"><ele>496.0</ele><time>2026-04-26T14:53:57Z</time></trkpt><trkpt lat="39.712438590717" lon="15.857166421132113"><ele>496.0</ele><time>2026-04-26T14:53:58Z</time></trkpt><trkpt lat="39.71231561666791" lon="15.857144387891038"><ele>496.0</ele><time>2026-04-26T14:53:59Z</time></trkpt><trkpt lat="39.71218927629308" lon="15.85713455172383"><ele>496.0</ele><time>2026-04-26T14:54:00Z</time></trkpt><trkpt lat="39.71209901708984" lon="15.857080257484373"><ele>496.0</ele><time>2026-04-26T14:54:01Z</time></trkpt><trkpt lat="39.71201216173662" lon="15.856997877047613"><ele>493.0</ele><time>2026-04-26T14:54:02Z</time></trkpt><trkpt lat="39.71188581101013" lon="15.856892689839169"><ele>490.0</ele><time>2026-04-26T14:54:03Z</time></trkpt><trkpt lat="39.7117330175278" lon="15.856817784902507"><ele>487.0</ele><time>2026-04-26T14:54:04Z</time></trkpt><trkpt lat="39.7116116176022" lon="15.856756975026626"><ele>484.0</ele><time>2026-04-26T14:54:05Z</time></trkpt><trkpt lat="39.711496669630726" lon="15.856662740920067"><ele>484.0</ele><time>2026-04-26T14:54:06Z</time></trkpt><trkpt lat="39.711361097941484" lon="15.856605437801559"><ele>484.0</ele><time>2026-04-26T14:54:07Z</time></trkpt><trkpt lat="39.71123712061677" lon="15.856547773030012"><ele>484.0</ele><time>2026-04-26T14:54:08Z</time></trkpt><trkpt lat="39.711133875420046" lon="15.856501449038692"><ele>484.0</ele><time>2026-04-26T14:54:09Z</time></trkpt><trkpt lat="39.711047643788035" lon="15.856453330859901"><ele>488.0</ele><time>2026-04-26T14:54:10Z</time></trkpt><trkpt lat="39.71097138609631" lon="15.85635212806659"><ele>492.0</ele><time>2026-04-26T14:54:11Z</time></trkpt><trkpt lat="39.71087696182804" lon="15.85624020466374"><ele>496.0</ele><time>2026-04-26T14:54:11.999Z</time></trkpt><trkpt lat="39.71076542819109" lon="15.856130265486248"><ele>500.0</ele><time>2026-04-26T14:54:12.999Z</time></trkpt><trkpt lat="39.71066080425815" lon="15.855976894710217"><ele>490.66666666666663</ele><time>2026-04-26T14:54:13.999Z</time></trkpt><trkpt lat="39.71055062101345" lon="15.855831470698888"><ele>481.33333333333337</ele><time>2026-04-26T14:54:14.999Z</time></trkpt><trkpt lat="39.7104404091383" lon="15.855697356418512"><ele>472.0</ele><time>2026-04-26T14:54:15.999Z</time></trkpt><trkpt lat="39.71031467450336" lon="15.855564266212673"><ele>475.33333333333337</ele><time>2026-04-26T14:54:16.999Z</time></trkpt><trkpt lat="39.710191156772154" lon="15.855429705196427"><ele>478.66666666666663</ele><time>2026-04-26T14:54:17.999Z</time></trkpt><trkpt lat="39.710096424162444" lon="15.855275825977673"><ele>482.0</ele><time>2026-04-26T14:54:18.999Z</time></trkpt><trkpt lat="39.70998557537645" lon="15.855137687415004"><ele>477.75</ele><time>2026-04-26T14:54:19.999Z</time></trkpt><trkpt lat="39.70988799125506" lon="15.85499992284231"><ele>473.5</ele><time>2026-04-26T14:54:20.999Z</time></trkpt><trkpt lat="39.70978720894909" lon="15.854888958151113"><ele>469.25</ele><time>2026-04-26T14:54:21.999Z</time></trkpt><trkpt lat="39.70970365618109" lon="15.854806542830568"><ele>465.0</ele><time>2026-04-26T14:54:22.999Z</time></trkpt><trkpt lat="39.70964181691834" lon="15.854747802479027"><ele>465.0</ele><time>2026-04-26T14:54:23.999Z</time></trkpt><trkpt lat="39.70952461989361" lon="15.854679902178313"><ele>465.0</ele><time>2026-04-26T14:54:25.999Z</time></trkpt><trkpt lat="39.709442565712145" lon="15.854641657903526"><ele>465.0</ele><time>2026-04-26T14:54:26.999Z</time></trkpt><trkpt lat="39.70932142823674" lon="15.854613395714072"><ele>465.0</ele><time>2026-04-26T14:54:27.999Z</time></trkpt><trkpt lat="39.70918536178895" lon="15.854582291913069"><ele>465.75</ele><time>2026-04-26T14:54:28.999Z</time></trkpt><trkpt lat="39.70903498388319" lon="15.85453221569346"><ele>466.5</ele><time>2026-04-26T14:54:29.999Z</time></trkpt><trkpt lat="39.70890987311355" lon="15.854417405454683"><ele>467.25</ele><time>2026-04-26T14:54:30.999Z</time></trkpt><trkpt lat="39.708794416623185" lon="15.854362903804033"><ele>468.0</ele><time>2026-04-26T14:54:31.999Z</time></trkpt><trkpt lat="39.70869351030893" lon="15.854363112011505"><ele>468.0</ele><time>2026-04-26T14:54:32.999Z</time></trkpt><trkpt lat="39.70860418753724" lon="15.854348325240416"><ele>467.99999999999994</ele><time>2026-04-26T14:54:33.999Z</time></trkpt><trkpt lat="39.70849875888812" lon="15.854347342053883"><ele>467.99999999999994</ele><time>2026-04-26T14:54:34.999Z</time></trkpt><trkpt lat="39.70837438674454" lon="15.854357709246047"><ele>468.0</ele><time>2026-04-26T14:54:35.999Z</time></trkpt><trkpt lat="39.708260683799644" lon="15.854340111217114"><ele>468.0</ele><time>2026-04-26T14:54:36.999Z</time></trkpt><trkpt lat="39.70815287201141" lon="15.854336828766554"><ele>468.2</ele><time>2026-04-26T14:54:37.999Z</time></trkpt><trkpt lat="39.70804508452911" lon="15.854359575848182"><ele>468.4</ele><time>2026-04-26T14:54:39Z</time></trkpt><trkpt lat="39.70794559369152" lon="15.854343210024567"><ele>468.59999999999997</ele><time>2026-04-26T14:54:40Z</time></trkpt><trkpt lat="39.707872086412" lon="15.854327937645765"><ele>468.79999999999995</ele><time>2026-04-26T14:54:41Z</time></trkpt><trkpt lat="39.70779250251671" lon="15.85432110185902"><ele>469.0</ele><time>2026-04-26T14:54:42Z</time></trkpt><trkpt lat="39.70770136723574" lon="15.854328123291202"><ele>469.0</ele><time>2026-04-26T14:54:43Z</time></trkpt><trkpt lat="39.70759325665" lon="15.85434454482468"><ele>469.0</ele><time>2026-04-26T14:54:44Z</time></trkpt><trkpt lat="39.70748578470829" lon="15.854371718831734"><ele>469.0</ele><time>2026-04-26T14:54:45Z</time></trkpt><trkpt lat="39.70739199421576" lon="15.85441373700426"><ele>469.0</ele><time>2026-04-26T14:54:46Z</time></trkpt><trkpt lat="39.707305790122426" lon="15.854435886977713"><ele>469.0</ele><time>2026-04-26T14:54:47Z</time></trkpt><trkpt lat="39.70723215810301" lon="15.854419691553566"><ele>469.00000000000006</ele><time>2026-04-26T14:54:48Z</time></trkpt><trkpt lat="39.70716590689333" lon="15.85436482598901"><ele>469.0</ele><time>2026-04-26T14:54:49Z</time></trkpt><trkpt lat="39.70712269052276" lon="15.854275813509961"><ele>469.0</ele><time>2026-04-26T14:54:50Z</time></trkpt><trkpt lat="39.70707655376466" lon="15.854193893838248"><ele>469.0</ele><time>2026-04-26T14:54:51Z</time></trkpt><trkpt lat="39.7070440120737" lon="15.854085700436546"><ele>469.00000000000006</ele><time>2026-04-26T14:54:52Z</time></trkpt><trkpt lat="39.70700337185418" lon="15.853948430672043"><ele>469.0</ele><time>2026-04-26T14:54:53Z</time></trkpt><trkpt lat="39.70694528830029" lon="15.853863344448119"><ele>467.25</ele><time>2026-04-26T14:54:54Z</time></trkpt><trkpt lat="39.706828191817394" lon="15.853804061663197"><ele>465.5</ele><time>2026-04-26T14:54:56Z</time></trkpt><trkpt lat="39.70670938525113" lon="15.853770796739326"><ele>463.75</ele><time>2026-04-26T14:54:57Z</time></trkpt><trkpt lat="39.706567431156444" lon="15.853741282248773"><ele>462.0</ele><time>2026-04-26T14:54:58Z</time></trkpt><trkpt lat="39.706424275884864" lon="15.853722614964523"><ele>462.0</ele><time>2026-04-26T14:54:59Z</time></trkpt><trkpt lat="39.706303195813334" lon="15.85372031619693"><ele>462.0</ele><time>2026-04-26T14:55:00Z</time></trkpt><trkpt lat="39.706200186508894" lon="15.85372290723131"><ele>462.0</ele><time>2026-04-26T14:55:01Z</time></trkpt><trkpt lat="39.70606527031296" lon="15.853729900743351"><ele>462.0</ele><time>2026-04-26T14:55:02Z</time></trkpt><trkpt lat="39.70592629840407" lon="15.853671526296278"><ele>462.25</ele><time>2026-04-26T14:55:03Z</time></trkpt><trkpt lat="39.7057985981616" lon="15.853650334643952"><ele>462.5</ele><time>2026-04-26T14:55:04Z</time></trkpt><trkpt lat="39.70568492704178" lon="15.853617828356109"><ele>462.75</ele><time>2026-04-26T14:55:05Z</time></trkpt><trkpt lat="39.705558561133685" lon="15.853619972829343"><ele>463.0</ele><time>2026-04-26T14:55:06Z</time></trkpt><trkpt lat="39.70540443822916" lon="15.85364596365719"><ele>462.6666666666667</ele><time>2026-04-26T14:55:07Z</time></trkpt><trkpt lat="39.70524089093197" lon="15.853653629092761"><ele>462.33333333333337</ele><time>2026-04-26T14:55:08Z</time></trkpt><trkpt lat="39.705083353537646" lon="15.85364286747396"><ele>462.0</ele><time>2026-04-26T14:55:09Z</time></trkpt><trkpt lat="39.70493567539792" lon="15.853620348757623"><ele>462.0</ele><time>2026-04-26T14:55:10Z</time></trkpt><trkpt lat="39.7047753160551" lon="15.85359211146319"><ele>462.0</ele><time>2026-04-26T14:55:11Z</time></trkpt><trkpt lat="39.70462928285335" lon="15.85357235532134"><ele>462.0</ele><time>2026-04-26T14:55:12Z</time></trkpt><trkpt lat="39.704493984243875" lon="15.853549863901895"><ele>462.0</ele><time>2026-04-26T14:55:13Z</time></trkpt><trkpt lat="39.704361825561875" lon="15.853509517521102"><ele>457.0</ele><time>2026-04-26T14:55:14Z</time></trkpt><trkpt lat="39.7042096587948" lon="15.853440001326868"><ele>452.0</ele><time>2026-04-26T14:55:15Z</time></trkpt><trkpt lat="39.704040475397946" lon="15.853401856737605"><ele>447.0</ele><time>2026-04-26T14:55:16Z</time></trkpt><trkpt lat="39.70385899668064" lon="15.853353045089605"><ele>447.0</ele><time>2026-04-26T14:55:17Z</time></trkpt><trkpt lat="39.70369097517006" lon="15.85329332980584"><ele>447.0</ele><time>2026-04-26T14:55:18Z</time></trkpt><trkpt lat="39.70353084827444" lon="15.853259657505003"><ele>447.0</ele><time>2026-04-26T14:55:19Z</time></trkpt><trkpt lat="39.703365093325026" lon="15.853244853791615"><ele>447.66666666666663</ele><time>2026-04-26T14:55:20Z</time></trkpt><trkpt lat="39.70320951922435" lon="15.853211963709246"><ele>448.3333333333333</ele><time>2026-04-26T14:55:21Z</time></trkpt><trkpt lat="39.703078534163865" lon="15.853138241074713"><ele>449.0</ele><time>2026-04-26T14:55:22Z</time></trkpt><trkpt lat="39.70293679643412" lon="15.853067332978377"><ele>449.0</ele><time>2026-04-26T14:55:23Z</time></trkpt><trkpt lat="39.70279111284296" lon="15.852983523302985"><ele>449.0</ele><time>2026-04-26T14:55:24Z</time></trkpt><trkpt lat="39.70265091325539" lon="15.85292011197299"><ele>449.0</ele><time>2026-04-26T14:55:25Z</time></trkpt><trkpt lat="39.70251162320929" lon="15.852878157722287"><ele>448.3333333333333</ele><time>2026-04-26T14:55:26Z</time></trkpt><trkpt lat="39.7023467058889" lon="15.852866706859587"><ele>447.66666666666663</ele><time>2026-04-26T14:55:27Z</time></trkpt><trkpt lat="39.70220058596427" lon="15.852805184248709"><ele>447.0</ele><time>2026-04-26T14:55:28Z</time></trkpt><trkpt lat="39.70206788823647" lon="15.852748921133003"><ele>447.0</ele><time>2026-04-26T14:55:29Z</time></trkpt><trkpt lat="39.701934263901826" lon="15.852697010053848"><ele>447.0</ele><time>2026-04-26T14:55:30Z</time></trkpt><trkpt lat="39.70177569294725" lon="15.852671514869776"><ele>447.0</ele><time>2026-04-26T14:55:31Z</time></trkpt><trkpt lat="39.70161028932449" lon="15.852667425517303"><ele>447.0</ele><time>2026-04-26T14:55:32Z</time></trkpt><trkpt lat="39.70147799825974" lon="15.852694401393313"><ele>447.0</ele><time>2026-04-26T14:55:33Z</time></trkpt><trkpt lat="39.70136987368517" lon="15.85271149967571"><ele>447.0</ele><time>2026-04-26T14:55:34Z</time></trkpt><trkpt lat="39.701243916076386" lon="15.852713860058762"><ele>447.0</ele><time>2026-04-26T14:55:35Z</time></trkpt><trkpt lat="39.7011244502783" lon="15.852727762788163"><ele>444.40000000000003</ele><time>2026-04-26T14:55:36Z</time></trkpt><trkpt lat="39.70103955841234" lon="15.852718827241226"><ele>441.80000000000007</ele><time>2026-04-26T14:55:37Z</time></trkpt><trkpt lat="39.70095539959899" lon="15.852702677657508"><ele>439.2</ele><time>2026-04-26T14:55:38Z</time></trkpt><trkpt lat="39.70090047740588" lon="15.852576924558582"><ele>436.6</ele><time>2026-04-26T14:55:39Z</time></trkpt><trkpt lat="39.70082350159868" lon="15.85251029715638"><ele>434.0</ele><time>2026-04-26T14:55:40Z</time></trkpt><trkpt lat="39.700685234963835" lon="15.85254498894417"><ele>434.0</ele><time>2026-04-26T14:55:41Z</time></trkpt><trkpt lat="39.7005417048944" lon="15.852584039395811"><ele>434.0</ele><time>2026-04-26T14:55:42Z</time></trkpt><trkpt lat="39.70040724235931" lon="15.852644073896785"><ele>434.0</ele><time>2026-04-26T14:55:43Z</time></trkpt><trkpt lat="39.700298560497735" lon="15.852662665256352"><ele>434.0</ele><time>2026-04-26T14:55:44Z</time></trkpt><trkpt lat="39.70021722581312" lon="15.852690657351964"><ele>431.4</ele><time>2026-04-26T14:55:45Z</time></trkpt><trkpt lat="39.70013759133414" lon="15.852717549482723"><ele>428.79999999999995</ele><time>2026-04-26T14:55:46Z</time></trkpt><trkpt lat="39.70006097975515" lon="15.852742640582813"><ele>426.20000000000005</ele><time>2026-04-26T14:55:47Z</time></trkpt><trkpt lat="39.69997960411439" lon="15.852778255785186"><ele>423.6</ele><time>2026-04-26T14:55:48Z</time></trkpt><trkpt lat="39.69988981954605" lon="15.852840729050394"><ele>421.0</ele><time>2026-04-26T14:55:49Z</time></trkpt><trkpt lat="39.699815660400766" lon="15.85295356545304"><ele>421.0</ele><time>2026-04-26T14:55:50Z</time></trkpt><trkpt lat="39.699762146156466" lon="15.853080958520872"><ele>421.0</ele><time>2026-04-26T14:55:51Z</time></trkpt><trkpt lat="39.699719554427126" lon="15.853209154320156"><ele>421.0</ele><time>2026-04-26T14:55:52Z</time></trkpt><trkpt lat="39.69967326014069" lon="15.853322338698021"><ele>421.0</ele><time>2026-04-26T14:55:53Z</time></trkpt><trkpt lat="39.69961528420946" lon="15.853393989651469"><ele>421.0</ele><time>2026-04-26T14:55:54Z</time></trkpt><trkpt lat="39.699542547159126" lon="15.853447417190598"><ele>421.0</ele><time>2026-04-26T14:55:55Z</time></trkpt><trkpt lat="39.69944700738135" lon="15.853439085725002"><ele>421.0</ele><time>2026-04-26T14:55:56Z</time></trkpt><trkpt lat="39.69933477862081" lon="15.853415646414739"><ele>421.0</ele><time>2026-04-26T14:55:57Z</time></trkpt><trkpt lat="39.699226693299444" lon="15.853401356805664"><ele>421.0</ele><time>2026-04-26T14:55:58Z</time></trkpt><trkpt lat="39.699137253624585" lon="15.853426802945817"><ele>421.0</ele><time>2026-04-26T14:55:59Z</time></trkpt><trkpt lat="39.69905212177705" lon="15.853504976944501"><ele>419.6</ele><time>2026-04-26T14:56:00Z</time></trkpt><trkpt lat="39.69899171535034" lon="15.853664824309586"><ele>418.20000000000005</ele><time>2026-04-26T14:56:01Z</time></trkpt><trkpt lat="39.69892746859501" lon="15.853792240184859"><ele>416.79999999999995</ele><time>2026-04-26T14:56:02Z</time></trkpt><trkpt lat="39.69887370472943" lon="15.853899972662848"><ele>415.4</ele><time>2026-04-26T14:56:03Z</time></trkpt><trkpt lat="39.6988213946419" lon="15.853978322094985"><ele>414.0</ele><time>2026-04-26T14:56:04Z</time></trkpt><trkpt lat="39.69870172253182" lon="15.853991980990862"><ele>414.0</ele><time>2026-04-26T14:56:06Z</time></trkpt><trkpt lat="39.69865140162639" lon="15.853920697996475"><ele>414.0</ele><time>2026-04-26T14:56:07Z</time></trkpt><trkpt lat="39.69861728122087" lon="15.853809701620639"><ele>414.0</ele><time>2026-04-26T14:56:08Z</time></trkpt><trkpt lat="39.698599449016385" lon="15.853663320752801"><ele>414.0</ele><time>2026-04-26T14:56:09Z</time></trkpt><trkpt lat="39.69856503354609" lon="15.853514255131875"><ele>414.0</ele><time>2026-04-26T14:56:10Z</time></trkpt><trkpt lat="39.69852606639774" lon="15.853377036692606"><ele>413.2</ele><time>2026-04-26T14:56:11Z</time></trkpt><trkpt lat="39.698470995671684" lon="15.853249912966769"><ele>412.4</ele><time>2026-04-26T14:56:12Z</time></trkpt><trkpt lat="39.69841665508433" lon="15.853114909192364"><ele>411.6</ele><time>2026-04-26T14:56:13Z</time></trkpt><trkpt lat="39.69838149344029" lon="15.852988892245067"><ele>410.8</ele><time>2026-04-26T14:56:14Z</time></trkpt><trkpt lat="39.69832565281599" lon="15.852868140214682"><ele>410.0</ele><time>2026-04-26T14:56:15Z</time></trkpt><trkpt lat="39.69825695015916" lon="15.852749248004345"><ele>409.75</ele><time>2026-04-26T14:56:15.999Z</time></trkpt><trkpt lat="39.69819741015716" lon="15.852603314792578"><ele>409.5</ele><time>2026-04-26T14:56:16.999Z</time></trkpt><trkpt lat="39.6981168033633" lon="15.85245704445174"><ele>409.25</ele><time>2026-04-26T14:56:17.999Z</time></trkpt><trkpt lat="39.698031307218" lon="15.85233140121939"><ele>409.0</ele><time>2026-04-26T14:56:18.999Z</time></trkpt><trkpt lat="39.69794303285268" lon="15.852194915870136"><ele>409.0</ele><time>2026-04-26T14:56:19.999Z</time></trkpt><trkpt lat="39.69785481303845" lon="15.85203715593871"><ele>409.0</ele><time>2026-04-26T14:56:20.999Z</time></trkpt><trkpt lat="39.697761136086385" lon="15.851866861843133"><ele>409.0</ele><time>2026-04-26T14:56:21.999Z</time></trkpt><trkpt lat="39.6976723641546" lon="15.851710620635028"><ele>407.6666666666667</ele><time>2026-04-26T14:56:22.999Z</time></trkpt><trkpt lat="39.69756896241616" lon="15.8515673753418"><ele>406.33333333333337</ele><time>2026-04-26T14:56:23.999Z</time></trkpt><trkpt lat="39.69744850676937" lon="15.851429930652579"><ele>405.0</ele><time>2026-04-26T14:56:24.999Z</time></trkpt><trkpt lat="39.69735406834027" lon="15.851284972964816"><ele>405.0</ele><time>2026-04-26T14:56:25.999Z</time></trkpt><trkpt lat="39.69726682222141" lon="15.851123521262217"><ele>405.0</ele><time>2026-04-26T14:56:26.999Z</time></trkpt><trkpt lat="39.697168574478184" lon="15.850973665625796"><ele>405.0</ele><time>2026-04-26T14:56:27.999Z</time></trkpt><trkpt lat="39.697059436820425" lon="15.850846374439705"><ele>403.25</ele><time>2026-04-26T14:56:28.999Z</time></trkpt><trkpt lat="39.69694362935329" lon="15.850738884599203"><ele>401.5</ele><time>2026-04-26T14:56:29.999Z</time></trkpt><trkpt lat="39.69683104695314" lon="15.850637467433968"><ele>399.75</ele><time>2026-04-26T14:56:30.999Z</time></trkpt><trkpt lat="39.69673404581746" lon="15.850550966272253"><ele>398.0</ele><time>2026-04-26T14:56:31.999Z</time></trkpt><trkpt lat="39.69665098663231" lon="15.850482288954908"><ele>396.5</ele><time>2026-04-26T14:56:32.999Z</time></trkpt><trkpt lat="39.69657651879624" lon="15.850397783335533"><ele>395.0</ele><time>2026-04-26T14:56:33.999Z</time></trkpt><trkpt lat="39.696519893541655" lon="15.850243235511146"><ele>393.5</ele><time>2026-04-26T14:56:34.999Z</time></trkpt><trkpt lat="39.696444758553405" lon="15.85009268342235"><ele>392.0</ele><time>2026-04-26T14:56:35.999Z</time></trkpt><trkpt lat="39.696396010547296" lon="15.84994904012357"><ele>391.3333333333333</ele><time>2026-04-26T14:56:36.999Z</time></trkpt><trkpt lat="39.69634755625596" lon="15.849842613355122"><ele>390.66666666666663</ele><time>2026-04-26T14:56:37.999Z</time></trkpt><trkpt lat="39.69631338025877" lon="15.849760309757956"><ele>390.0</ele><time>2026-04-26T14:56:38.999Z</time></trkpt><trkpt lat="39.696287743620715" lon="15.849643173278098"><ele>389.33333333333337</ele><time>2026-04-26T14:56:40.999Z</time></trkpt><trkpt lat="39.696195803841725" lon="15.849660129181663"><ele>388.6666666666667</ele><time>2026-04-26T14:56:43.999Z</time></trkpt><trkpt lat="39.69619787311536" lon="15.849746344779971"><ele>388.0</ele><time>2026-04-26T14:56:45Z</time></trkpt><trkpt lat="39.69617201400031" lon="15.849872760836803"><ele>388.0</ele><time>2026-04-26T14:56:46Z</time></trkpt><trkpt lat="39.69615001259331" lon="15.84998293246834"><ele>388.0</ele><time>2026-04-26T14:56:47Z</time></trkpt><trkpt lat="39.69608489998596" lon="15.850068213304503"><ele>388.0</ele><time>2026-04-26T14:56:48Z</time></trkpt><trkpt lat="39.695975320988154" lon="15.850102052217556"><ele>388.0</ele><time>2026-04-26T14:56:49Z</time></trkpt><trkpt lat="39.6958416252453" lon="15.85011801447508"><ele>388.0</ele><time>2026-04-26T14:56:50Z</time></trkpt><trkpt lat="39.69572267512622" lon="15.850122653161563"><ele>385.59999999999997</ele><time>2026-04-26T14:56:51Z</time></trkpt><trkpt lat="39.69561845630587" lon="15.850112229626225"><ele>383.2</ele><time>2026-04-26T14:56:52Z</time></trkpt><trkpt lat="39.69554219427657" lon="15.850017908029189"><ele>380.8</ele><time>2026-04-26T14:56:53Z</time></trkpt><trkpt lat="39.69550984008258" lon="15.849878342745493"><ele>378.4</ele><time>2026-04-26T14:56:54Z</time></trkpt><trkpt lat="39.695476911350696" lon="15.84973088009625"><ele>376.0</ele><time>2026-04-26T14:56:55Z</time></trkpt><trkpt lat="39.69546777317444" lon="15.849555354210029"><ele>376.0</ele><time>2026-04-26T14:56:56Z</time></trkpt><trkpt lat="39.69544116857511" lon="15.849372944113592"><ele>376.0</ele><time>2026-04-26T14:56:57Z</time></trkpt><trkpt lat="39.695413117399085" lon="15.849199765817731"><ele>376.0</ele><time>2026-04-26T14:56:58Z</time></trkpt><trkpt lat="39.695381171907236" lon="15.849037221359087"><ele>376.0</ele><time>2026-04-26T14:56:59Z</time></trkpt><trkpt lat="39.69532243273772" lon="15.848882567697464"><ele>377.3333333333333</ele><time>2026-04-26T14:57:00Z</time></trkpt><trkpt lat="39.695218859777654" lon="15.848740725160955"><ele>378.6666666666667</ele><time>2026-04-26T14:57:01Z</time></trkpt><trkpt lat="39.69507411852026" lon="15.848619878015157"><ele>380.0</ele><time>2026-04-26T14:57:02Z</time></trkpt><trkpt lat="39.69493930625422" lon="15.848510797004247"><ele>378.0</ele><time>2026-04-26T14:57:03Z</time></trkpt><trkpt lat="39.694848240181194" lon="15.848367039359877"><ele>376.0</ele><time>2026-04-26T14:57:04Z</time></trkpt><trkpt lat="39.694749776172195" lon="15.848252898388896"><ele>374.0</ele><time>2026-04-26T14:57:05Z</time></trkpt><trkpt lat="39.69468742023707" lon="15.848111704922658"><ele>372.0</ele><time>2026-04-26T14:57:06Z</time></trkpt><trkpt lat="39.69466472770036" lon="15.847950157276621"><ele>372.0</ele><time>2026-04-26T14:57:07Z</time></trkpt><trkpt lat="39.69467548788467" lon="15.84775666221935"><ele>372.0</ele><time>2026-04-26T14:57:08Z</time></trkpt><trkpt lat="39.69469907033338" lon="15.847546244708331"><ele>372.0</ele><time>2026-04-26T14:57:09Z</time></trkpt><trkpt lat="39.69468250866504" lon="15.847349539327203"><ele>372.0</ele><time>2026-04-26T14:57:10Z</time></trkpt><trkpt lat="39.69462930185626" lon="15.847171172638193"><ele>372.0</ele><time>2026-04-26T14:57:11Z</time></trkpt><trkpt lat="39.69454462879126" lon="15.847013128715332"><ele>372.0</ele><time>2026-04-26T14:57:12Z</time></trkpt><trkpt lat="39.694449482758465" lon="15.84688967564121"><ele>372.0</ele><time>2026-04-26T14:57:13Z</time></trkpt><trkpt lat="39.69437248688226" lon="15.846777559502332"><ele>372.0</ele><time>2026-04-26T14:57:14Z</time></trkpt><trkpt lat="39.69431896573525" lon="15.846685068287734"><ele>372.0</ele><time>2026-04-26T14:57:15Z</time></trkpt><trkpt lat="39.69427634308696" lon="15.846607394410261"><ele>372.0</ele><time>2026-04-26T14:57:16Z</time></trkpt><trkpt lat="39.69424058859776" lon="15.846535668391367"><ele>372.0</ele><time>2026-04-26T14:57:17Z</time></trkpt><trkpt lat="39.69421347211213" lon="15.846426791091837"><ele>372.0</ele><time>2026-04-26T14:57:19Z</time></trkpt><trkpt lat="39.69415394524342" lon="15.846461205368357"><ele>372.0</ele><time>2026-04-26T14:57:23Z</time></trkpt><trkpt lat="39.69424367687634" lon="15.846565038623663"><ele>372.0</ele><time>2026-04-26T14:57:25Z</time></trkpt><trkpt lat="39.69431338512184" lon="15.846654186913783"><ele>372.0</ele><time>2026-04-26T14:57:26Z</time></trkpt><trkpt lat="39.69434834443862" lon="15.846786820635915"><ele>372.0</ele><time>2026-04-26T14:57:27Z</time></trkpt><trkpt lat="39.694399717028745" lon="15.846878866694386"><ele>372.0</ele><time>2026-04-26T14:57:28Z</time></trkpt><trkpt lat="39.69443957433493" lon="15.846950282938064"><ele>372.0</ele><time>2026-04-26T14:57:29Z</time></trkpt><trkpt lat="39.69437650293404" lon="15.847070279721887"><ele>372.75</ele><time>2026-04-26T14:57:31Z</time></trkpt><trkpt lat="39.694290638285516" lon="15.847214520600618"><ele>373.5</ele><time>2026-04-26T14:57:32Z</time></trkpt><trkpt lat="39.69421513973386" lon="15.847357596919997"><ele>374.25</ele><time>2026-04-26T14:57:33Z</time></trkpt><trkpt lat="39.6941686336377" lon="15.84747584343061"><ele>375.0</ele><time>2026-04-26T14:57:34Z</time></trkpt><trkpt lat="39.69413392381996" lon="15.847600830011366"><ele>376.6666666666667</ele><time>2026-04-26T14:57:35Z</time></trkpt><trkpt lat="39.69416522742262" lon="15.847787325394906"><ele>378.33333333333337</ele><time>2026-04-26T14:57:36Z</time></trkpt><trkpt lat="39.694177599238884" lon="15.84799174751236"><ele>380.0</ele><time>2026-04-26T14:57:37Z</time></trkpt><trkpt lat="39.6941939298988" lon="15.848209364298272"><ele>380.0</ele><time>2026-04-26T14:57:38Z</time></trkpt><trkpt lat="39.69422623779528" lon="15.848443200496055"><ele>380.0</ele><time>2026-04-26T14:57:39Z</time></trkpt><trkpt lat="39.694256582725494" lon="15.848631394662569"><ele>380.0</ele><time>2026-04-26T14:57:40Z</time></trkpt><trkpt lat="39.69427758665516" lon="15.84878322228299"><ele>380.0</ele><time>2026-04-26T14:57:41Z</time></trkpt><trkpt lat="39.69427127983301" lon="15.848922303456833"><ele>381.33333333333337</ele><time>2026-04-26T14:57:42Z</time></trkpt><trkpt lat="39.694223334548965" lon="15.849060146296443"><ele>382.6666666666667</ele><time>2026-04-26T14:57:43Z</time></trkpt><trkpt lat="39.694173406461076" lon="15.849265502873006"><ele>384.0</ele><time>2026-04-26T14:57:44Z</time></trkpt><trkpt lat="39.694139919822554" lon="15.849515250023318"><ele>385.33333333333337</ele><time>2026-04-26T14:57:45Z</time></trkpt><trkpt lat="39.69408779111443" lon="15.849738286585406"><ele>386.6666666666667</ele><time>2026-04-26T14:57:46Z</time></trkpt><trkpt lat="39.69403709748089" lon="15.849921814172266"><ele>388.0</ele><time>2026-04-26T14:57:47Z</time></trkpt><trkpt lat="39.69398785182219" lon="15.850088951788242"><ele>389.33333333333337</ele><time>2026-04-26T14:57:48Z</time></trkpt><trkpt lat="39.69391486336378" lon="15.8502453199178"><ele>390.66666666666663</ele><time>2026-04-26T14:57:49Z</time></trkpt><trkpt lat="39.69382489894446" lon="15.850429753666983"><ele>392.0</ele><time>2026-04-26T14:57:50Z</time></trkpt><trkpt lat="39.6937560065829" lon="15.850611675721957"><ele>392.0</ele><time>2026-04-26T14:57:51Z</time></trkpt><trkpt lat="39.693698490697635" lon="15.850774427569679"><ele>392.0</ele><time>2026-04-26T14:57:52Z</time></trkpt><trkpt lat="39.693656082109584" lon="15.850895651756836"><ele>392.0</ele><time>2026-04-26T14:57:53Z</time></trkpt><trkpt lat="39.693625465839354" lon="15.85102409369688"><ele>392.0</ele><time>2026-04-26T14:57:54Z</time></trkpt><trkpt lat="39.693625586524774" lon="15.851183537575071"><ele>390.0</ele><time>2026-04-26T14:57:55Z</time></trkpt><trkpt lat="39.693560846041365" lon="15.851304562189512"><ele>388.0</ele><time>2026-04-26T14:57:56Z</time></trkpt><trkpt lat="39.69347529082988" lon="15.851405367672006"><ele>386.0</ele><time>2026-04-26T14:57:57Z</time></trkpt><trkpt lat="39.69341015512464" lon="15.851493549035151"><ele>384.0</ele><time>2026-04-26T14:57:58Z</time></trkpt><trkpt lat="39.69333787388168" lon="15.851542714605914"><ele>382.0</ele><time>2026-04-26T14:57:59Z</time></trkpt><trkpt lat="39.693272737205305" lon="15.851630646997174"><ele>382.0</ele><time>2026-04-26T14:58:01Z</time></trkpt><trkpt lat="39.693257918951936" lon="15.851470426611172"><ele>382.0</ele><time>2026-04-26T14:58:04Z</time></trkpt><trkpt lat="39.693301903717185" lon="15.851352742092914"><ele>382.0</ele><time>2026-04-26T14:58:05Z</time></trkpt><trkpt lat="39.6933285262403" lon="15.851202126093165"><ele>382.0</ele><time>2026-04-26T14:58:06Z</time></trkpt><trkpt lat="39.69332029023714" lon="15.85102629173525"><ele>382.0</ele><time>2026-04-26T14:58:07Z</time></trkpt><trkpt lat="39.69329134433829" lon="15.850881747770298"><ele>382.0</ele><time>2026-04-26T14:58:08Z</time></trkpt><trkpt lat="39.69323234132154" lon="15.85076175081316"><ele>382.0</ele><time>2026-04-26T14:58:09Z</time></trkpt><trkpt lat="39.693127182555926" lon="15.850637174986701"><ele>382.0</ele><time>2026-04-26T14:58:10Z</time></trkpt><trkpt lat="39.69300339721062" lon="15.850518270946848"><ele>382.0</ele><time>2026-04-26T14:58:11Z</time></trkpt><trkpt lat="39.69290437179292" lon="15.850411568442494"><ele>382.0</ele><time>2026-04-26T14:58:12Z</time></trkpt><trkpt lat="39.692816143218444" lon="15.850319401781572"><ele>382.0</ele><time>2026-04-26T14:58:13Z</time></trkpt><trkpt lat="39.69274338483797" lon="15.85026792362556"><ele>382.0</ele><time>2026-04-26T14:58:14Z</time></trkpt><trkpt lat="39.6926564378518" lon="15.850241688110097"><ele>382.0</ele><time>2026-04-26T14:58:16Z</time></trkpt><trkpt lat="39.69258260775697" lon="15.850294207136013"><ele>377.8</ele><time>2026-04-26T14:58:18Z</time></trkpt><trkpt lat="39.69257913069192" lon="15.850416276719292"><ele>373.6</ele><time>2026-04-26T14:58:19Z</time></trkpt><trkpt lat="39.692621337416284" lon="15.85054720888638"><ele>369.40000000000003</ele><time>2026-04-26T14:58:20Z</time></trkpt><trkpt lat="39.6926411346863" lon="15.85067215670993"><ele>365.20000000000005</ele><time>2026-04-26T14:58:20.999Z</time></trkpt><trkpt lat="39.69263564379405" lon="15.850787338823908"><ele>361.0</ele><time>2026-04-26T14:58:21.999Z</time></trkpt><trkpt lat="39.69262376906342" lon="15.850933949601155"><ele>360.4</ele><time>2026-04-26T14:58:22.999Z</time></trkpt><trkpt lat="39.69260886141457" lon="15.851085313484324"><ele>359.8</ele><time>2026-04-26T14:58:23.999Z</time></trkpt><trkpt lat="39.69260070158355" lon="15.851224187557523"><ele>359.2</ele><time>2026-04-26T14:58:24.999Z</time></trkpt><trkpt lat="39.692583922561866" lon="15.851354988491448"><ele>358.59999999999997</ele><time>2026-04-26T14:58:25.999Z</time></trkpt><trkpt lat="39.69254713781884" lon="15.851482888042087"><ele>358.0</ele><time>2026-04-26T14:58:26.999Z</time></trkpt><trkpt lat="39.69250585102311" lon="15.85162018891482"><ele>358.0</ele><time>2026-04-26T14:58:27.999Z</time></trkpt><trkpt lat="39.69245683080373" lon="15.851757398782194"><ele>358.0</ele><time>2026-04-26T14:58:28.999Z</time></trkpt><trkpt lat="39.6923983701158" lon="15.851906839885235"><ele>358.0</ele><time>2026-04-26T14:58:29.999Z</time></trkpt><trkpt lat="39.69233745663838" lon="15.852059213033291"><ele>358.0</ele><time>2026-04-26T14:58:30.999Z</time></trkpt><trkpt lat="39.69227919709728" lon="15.852202481605454"><ele>358.0</ele><time>2026-04-26T14:58:31.999Z</time></trkpt><trkpt lat="39.69222338572113" lon="15.852316715199326"><ele>358.0</ele><time>2026-04-26T14:58:32.999Z</time></trkpt><trkpt lat="39.69216804016273" lon="15.852408739296132"><ele>358.0</ele><time>2026-04-26T14:58:33.999Z</time></trkpt><trkpt lat="39.69214010555691" lon="15.852506897298145"><ele>358.0</ele><time>2026-04-26T14:58:34.999Z</time></trkpt><trkpt lat="39.692146282237964" lon="15.852603376921994"><ele>358.0</ele><time>2026-04-26T14:58:35.999Z</time></trkpt><trkpt lat="39.69226535980023" lon="15.85269346837545"><ele>354.79999999999995</ele><time>2026-04-26T14:58:36.999Z</time></trkpt><trkpt lat="39.69235877132729" lon="15.852797630574507"><ele>351.6</ele><time>2026-04-26T14:58:37.999Z</time></trkpt><trkpt lat="39.692441167678986" lon="15.852895801199264"><ele>348.4</ele><time>2026-04-26T14:58:38.999Z</time></trkpt><trkpt lat="39.6925104885376" lon="15.852986512192702"><ele>345.20000000000005</ele><time>2026-04-26T14:58:39.999Z</time></trkpt><trkpt lat="39.692556689254445" lon="15.85306959509925"><ele>342.0</ele><time>2026-04-26T14:58:40.999Z</time></trkpt><trkpt lat="39.692547938527795" lon="15.853235094482304"><ele>342.0</ele><time>2026-04-26T14:58:42.999Z</time></trkpt><trkpt lat="39.69254381915365" lon="15.853359702387948"><ele>342.0</ele><time>2026-04-26T14:58:43.999Z</time></trkpt><trkpt lat="39.69253044408263" lon="15.853489991585043"><ele>342.0</ele><time>2026-04-26T14:58:44.999Z</time></trkpt><trkpt lat="39.69249496307127" lon="15.853616879239892"><ele>342.0</ele><time>2026-04-26T14:58:45.999Z</time></trkpt><trkpt lat="39.69244735426219" lon="15.853750638066954"><ele>342.0</ele><time>2026-04-26T14:58:46.999Z</time></trkpt><trkpt lat="39.692413264687914" lon="15.85389247540314"><ele>340.20000000000005</ele><time>2026-04-26T14:58:47.999Z</time></trkpt><trkpt lat="39.69238983093932" lon="15.854028900900136"><ele>338.4</ele><time>2026-04-26T14:58:48.999Z</time></trkpt><trkpt lat="39.692385707899696" lon="15.854147882179323"><ele>336.6</ele><time>2026-04-26T14:58:49.999Z</time></trkpt><trkpt lat="39.69240332429266" lon="15.854258720924328"><ele>334.79999999999995</ele><time>2026-04-26T14:58:51Z</time></trkpt><trkpt lat="39.692465269990244" lon="15.85436999786147"><ele>333.0</ele><time>2026-04-26T14:58:52Z</time></trkpt><trkpt lat="39.69252688608037" lon="15.854496930554015"><ele>332.2</ele><time>2026-04-26T14:58:53Z</time></trkpt><trkpt lat="39.69255992382974" lon="15.854609638324813"><ele>331.4</ele><time>2026-04-26T14:58:54Z</time></trkpt><trkpt lat="39.69258776767495" lon="15.854708286830363"><ele>330.59999999999997</ele><time>2026-04-26T14:58:55Z</time></trkpt><trkpt lat="39.692558694694256" lon="15.854806783580472"><ele>329.79999999999995</ele><time>2026-04-26T14:58:56Z</time></trkpt><trkpt lat="39.69252658248019" lon="15.85493951282645"><ele>329.0</ele><time>2026-04-26T14:58:57Z</time></trkpt><trkpt lat="39.69245334043294" lon="15.855092845367574"><ele>328.5</ele><time>2026-04-26T14:58:58Z</time></trkpt><trkpt lat="39.69239174865966" lon="15.855246751697207"><ele>328.0</ele><time>2026-04-26T14:58:59Z</time></trkpt><trkpt lat="39.69236043998495" lon="15.855386593545411"><ele>327.5</ele><time>2026-04-26T14:59:00Z</time></trkpt><trkpt lat="39.692351615866194" lon="15.855538028313395"><ele>327.0</ele><time>2026-04-26T14:59:01Z</time></trkpt><trkpt lat="39.69238091536291" lon="15.85572957368175"><ele>327.0</ele><time>2026-04-26T14:59:02Z</time></trkpt><trkpt lat="39.69237985731135" lon="15.855909017251355"><ele>327.0</ele><time>2026-04-26T14:59:03Z</time></trkpt><trkpt lat="39.69238095190471" lon="15.85611577149692"><ele>327.0</ele><time>2026-04-26T14:59:04Z</time></trkpt><trkpt lat="39.69239494764857" lon="15.856342294382932"><ele>326.0</ele><time>2026-04-26T14:59:05Z</time></trkpt><trkpt lat="39.69240559828273" lon="15.856539353189758"><ele>325.0</ele><time>2026-04-26T14:59:06Z</time></trkpt><trkpt lat="39.69241089849946" lon="15.856703289651884"><ele>324.0</ele><time>2026-04-26T14:59:07Z</time></trkpt><trkpt lat="39.692421847916556" lon="15.856868557864015"><ele>323.0</ele><time>2026-04-26T14:59:08Z</time></trkpt><trkpt lat="39.69244151775286" lon="15.857021371988656"><ele>322.79999999999995</ele><time>2026-04-26T14:59:09Z</time></trkpt><trkpt lat="39.6924446236833" lon="15.857161172630011"><ele>322.6</ele><time>2026-04-26T14:59:10Z</time></trkpt><trkpt lat="39.692424507807324" lon="15.857310416836485"><ele>322.4</ele><time>2026-04-26T14:59:11Z</time></trkpt><trkpt lat="39.692401075105664" lon="15.857438803404406"><ele>322.20000000000005</ele><time>2026-04-26T14:59:12Z</time></trkpt><trkpt lat="39.69239146654567" lon="15.857530338047221"><ele>322.0</ele><time>2026-04-26T14:59:13Z</time></trkpt><trkpt lat="39.69232389981041" lon="15.857631050735094"><ele>322.0</ele><time>2026-04-26T14:59:15Z</time></trkpt><trkpt lat="39.692251221410615" lon="15.857619488361058"><ele>322.0</ele><time>2026-04-26T14:59:16Z</time></trkpt><trkpt lat="39.6921866171911" lon="15.85750538653398"><ele>322.0</ele><time>2026-04-26T14:59:17Z</time></trkpt><trkpt lat="39.69211732916779" lon="15.85734005081919"><ele>322.0</ele><time>2026-04-26T14:59:18Z</time></trkpt><trkpt lat="39.69205605603245" lon="15.857128639803367"><ele>322.0</ele><time>2026-04-26T14:59:19Z</time></trkpt><trkpt lat="39.69199111250213" lon="15.856902018673653"><ele>322.0</ele><time>2026-04-26T14:59:20Z</time></trkpt><trkpt lat="39.69195184800006" lon="15.85669283167833"><ele>322.0</ele><time>2026-04-26T14:59:21Z</time></trkpt><trkpt lat="39.6919156147859" lon="15.856520605714037"><ele>316.5</ele><time>2026-04-26T14:59:22Z</time></trkpt><trkpt lat="39.691868746581854" lon="15.856356953418883"><ele>311.0</ele><time>2026-04-26T14:59:23Z</time></trkpt><trkpt lat="39.69182604477263" lon="15.856234553675943"><ele>305.5</ele><time>2026-04-26T14:59:24Z</time></trkpt><trkpt lat="39.6917672959596" lon="15.856133570757276"><ele>300.0</ele><time>2026-04-26T14:59:25Z</time></trkpt><trkpt lat="39.691654941374246" lon="15.856032898933591"><ele>301.5</ele><time>2026-04-26T14:59:26Z</time></trkpt><trkpt lat="39.691539684474684" lon="15.855926497746854"><ele>303.0</ele><time>2026-04-26T14:59:27Z</time></trkpt><trkpt lat="39.69145544940247" lon="15.855819264948622"><ele>304.5</ele><time>2026-04-26T14:59:28Z</time></trkpt><trkpt lat="39.691403534815144" lon="15.855714992924145"><ele>306.0</ele><time>2026-04-26T14:59:29Z</time></trkpt><trkpt lat="39.69137200649413" lon="15.85558602828169"><ele>306.0</ele><time>2026-04-26T14:59:30Z</time></trkpt><trkpt lat="39.6913555309602" lon="15.855409139020908"><ele>306.0</ele><time>2026-04-26T14:59:31Z</time></trkpt><trkpt lat="39.691332869772545" lon="15.855230898109504"><ele>306.0</ele><time>2026-04-26T14:59:32Z</time></trkpt><trkpt lat="39.691307390725655" lon="15.85508916947829"><ele>306.0</ele><time>2026-04-26T14:59:33Z</time></trkpt><trkpt lat="39.691287342669916" lon="15.85496656671093"><ele>306.40000000000003</ele><time>2026-04-26T14:59:34Z</time></trkpt><trkpt lat="39.691287283494226" lon="15.854858546934015"><ele>306.8</ele><time>2026-04-26T14:59:35Z</time></trkpt><trkpt lat="39.69129691309232" lon="15.85477012434951"><ele>307.20000000000005</ele><time>2026-04-26T14:59:36Z</time></trkpt><trkpt lat="39.69129148614333" lon="15.854649992842157"><ele>307.6</ele><time>2026-04-26T14:59:38Z</time></trkpt><trkpt lat="39.691162773147866" lon="15.854634890778986"><ele>308.0</ele><time>2026-04-26T14:59:39Z</time></trkpt><trkpt lat="39.69105868432167" lon="15.854664386851653"><ele>302.75</ele><time>2026-04-26T14:59:40Z</time></trkpt><trkpt lat="39.69095035360305" lon="15.854662367155674"><ele>297.5</ele><time>2026-04-26T14:59:41Z</time></trkpt><trkpt lat="39.69081789627033" lon="15.85463953233435"><ele>292.25</ele><time>2026-04-26T14:59:42Z</time></trkpt><trkpt lat="39.69065888048111" lon="15.854630439388158"><ele>287.0</ele><time>2026-04-26T14:59:43Z</time></trkpt><trkpt lat="39.69050398788768" lon="15.85462414880368"><ele>287.0</ele><time>2026-04-26T14:59:44Z</time></trkpt><trkpt lat="39.69035605978573" lon="15.854614247874741"><ele>287.0</ele><time>2026-04-26T14:59:45Z</time></trkpt><trkpt lat="39.690227795065496" lon="15.854607617565778"><ele>287.0</ele><time>2026-04-26T14:59:46Z</time></trkpt><trkpt lat="39.69013542065396" lon="15.854608994045927"><ele>287.0</ele><time>2026-04-26T14:59:47Z</time></trkpt><trkpt lat="39.69005993916205" lon="15.854625722940622"><ele>287.0</ele><time>2026-04-26T14:59:48Z</time></trkpt><trkpt lat="39.69000634960582" lon="15.854692317058761"><ele>282.25</ele><time>2026-04-26T14:59:49Z</time></trkpt><trkpt lat="39.690012991793644" lon="15.854857530141524"><ele>277.5</ele><time>2026-04-26T14:59:50Z</time></trkpt><trkpt lat="39.69006391356291" lon="15.855021265330109"><ele>272.75</ele><time>2026-04-26T14:59:51Z</time></trkpt><trkpt lat="39.69009720267188" lon="15.855193114023837"><ele>268.0</ele><time>2026-04-26T14:59:52Z</time></trkpt><trkpt lat="39.69012385975808" lon="15.855355949612454"><ele>267.0</ele><time>2026-04-26T14:59:53Z</time></trkpt><trkpt lat="39.69015335302181" lon="15.855523492119579"><ele>266.0</ele><time>2026-04-26T14:59:54Z</time></trkpt><trkpt lat="39.69018237772998" lon="15.855681629038862"><ele>265.0</ele><time>2026-04-26T14:59:55Z</time></trkpt><trkpt lat="39.690201571346904" lon="15.85583536963891"><ele>264.0</ele><time>2026-04-26T14:59:56Z</time></trkpt><trkpt lat="39.690216810743046" lon="15.855993231339557"><ele>262.25</ele><time>2026-04-26T14:59:57Z</time></trkpt><trkpt lat="39.69022180409362" lon="15.856161567190487"><ele>260.5</ele><time>2026-04-26T14:59:58Z</time></trkpt><trkpt lat="39.690222739134846" lon="15.856340910186951"><ele>258.75</ele><time>2026-04-26T14:59:59Z</time></trkpt><trkpt lat="39.69021972677985" lon="15.856510953412318"><ele>257.0</ele><time>2026-04-26T15:00:00Z</time></trkpt><trkpt lat="39.69020323688335" lon="15.856657417874551"><ele>256.0</ele><time>2026-04-26T15:00:01Z</time></trkpt><trkpt lat="39.69018033302828" lon="15.856797476325196"><ele>255.0</ele><time>2026-04-26T15:00:02Z</time></trkpt><trkpt lat="39.69014809899079" lon="15.856953244907693"><ele>254.0</ele><time>2026-04-26T15:00:03Z</time></trkpt><trkpt lat="39.69012928897884" lon="15.85710445286453"><ele>253.0</ele><time>2026-04-26T15:00:04Z</time></trkpt><trkpt lat="39.690133951351555" lon="15.857244196591864"><ele>253.0</ele><time>2026-04-26T15:00:05Z</time></trkpt><trkpt lat="39.690161699078644" lon="15.857370063769963"><ele>253.0</ele><time>2026-04-26T15:00:06Z</time></trkpt><trkpt lat="39.690222941723725" lon="15.85749141614298"><ele>253.0</ele><time>2026-04-26T15:00:07Z</time></trkpt><trkpt lat="39.69028541743103" lon="15.857645844359615"><ele>253.0</ele><time>2026-04-26T15:00:08Z</time></trkpt><trkpt lat="39.690350525233974" lon="15.857773167549206"><ele>254.2</ele><time>2026-04-26T15:00:09Z</time></trkpt><trkpt lat="39.690374796693405" lon="15.857882102798651"><ele>255.4</ele><time>2026-04-26T15:00:10Z</time></trkpt><trkpt lat="39.69036193830996" lon="15.857983800302085"><ele>256.59999999999997</ele><time>2026-04-26T15:00:11Z</time></trkpt><trkpt lat="39.69030767929833" lon="15.858053630744621"><ele>257.8</ele><time>2026-04-26T15:00:12Z</time></trkpt><trkpt lat="39.69018047579351" lon="15.858056769083367"><ele>259.0</ele><time>2026-04-26T15:00:14Z</time></trkpt><trkpt lat="39.690051653609295" lon="15.858059486444924"><ele>259.0</ele><time>2026-04-26T15:00:15Z</time></trkpt><trkpt lat="39.6899239725321" lon="15.858083031009278"><ele>259.0</ele><time>2026-04-26T15:00:16Z</time></trkpt><trkpt lat="39.689816773886726" lon="15.858052824312818"><ele>259.0</ele><time>2026-04-26T15:00:17Z</time></trkpt><trkpt lat="39.68973231935641" lon="15.858015503108149"><ele>259.0</ele><time>2026-04-26T15:00:18Z</time></trkpt><trkpt lat="39.68965349539802" lon="15.858028415083865"><ele>259.0</ele><time>2026-04-26T15:00:19Z</time></trkpt><trkpt lat="39.689563440378635" lon="15.858093481718502"><ele>259.0</ele><time>2026-04-26T15:00:20Z</time></trkpt><trkpt lat="39.68947944561528" lon="15.8581565438042"><ele>259.0</ele><time>2026-04-26T15:00:21Z</time></trkpt><trkpt lat="39.68939239074008" lon="15.85818039851419"><ele>259.0</ele><time>2026-04-26T15:00:22Z</time></trkpt><trkpt lat="39.68932782234581" lon="15.858216751576878"><ele>259.0</ele><time>2026-04-26T15:00:23Z</time></trkpt><trkpt lat="39.689292945290795" lon="15.858295029775851"><ele>259.0</ele><time>2026-04-26T15:00:24Z</time></trkpt><trkpt lat="39.68929830152063" lon="15.858425919559965"><ele>259.0</ele><time>2026-04-26T15:00:25Z</time></trkpt><trkpt lat="39.68928741914207" lon="15.858592576261968"><ele>254.79999999999998</ele><time>2026-04-26T15:00:26Z</time></trkpt><trkpt lat="39.68929348911256" lon="15.85873559987014"><ele>250.59999999999997</ele><time>2026-04-26T15:00:26.999Z</time></trkpt><trkpt lat="39.68930038701806" lon="15.858874172891607"><ele>246.4</ele><time>2026-04-26T15:00:27.999Z</time></trkpt><trkpt lat="39.68931826568023" lon="15.859008932568827"><ele>242.2</ele><time>2026-04-26T15:00:28.999Z</time></trkpt><trkpt lat="39.68933721579189" lon="15.859135953545929"><ele>238.0</ele><time>2026-04-26T15:00:29.999Z</time></trkpt><trkpt lat="39.68936681226064" lon="15.859271173484872"><ele>237.0</ele><time>2026-04-26T15:00:30.999Z</time></trkpt><trkpt lat="39.68941106376203" lon="15.859403068276352"><ele>236.0</ele><time>2026-04-26T15:00:31.999Z</time></trkpt><trkpt lat="39.68947944598813" lon="15.85953055325389"><ele>235.0</ele><time>2026-04-26T15:00:32.999Z</time></trkpt><trkpt lat="39.68954969590234" lon="15.85964779219486"><ele>234.0</ele><time>2026-04-26T15:00:33.999Z</time></trkpt><trkpt lat="39.68961921850359" lon="15.859764961802618"><ele>234.0</ele><time>2026-04-26T15:00:34.999Z</time></trkpt><trkpt lat="39.68968646673661" lon="15.859898734611878"><ele>234.0</ele><time>2026-04-26T15:00:35.999Z</time></trkpt><trkpt lat="39.68974339494733" lon="15.86004298423862"><ele>234.0</ele><time>2026-04-26T15:00:36.999Z</time></trkpt><trkpt lat="39.68978032003361" lon="15.8602010290138"><ele>234.0</ele><time>2026-04-26T15:00:37.999Z</time></trkpt><trkpt lat="39.68980736625995" lon="15.86037257001106"><ele>231.0</ele><time>2026-04-26T15:00:38.999Z</time></trkpt><trkpt lat="39.68983407977357" lon="15.860555179972499"><ele>228.0</ele><time>2026-04-26T15:00:39.999Z</time></trkpt><trkpt lat="39.689857953600104" lon="15.860729932501958"><ele>225.0</ele><time>2026-04-26T15:00:40.999Z</time></trkpt><trkpt lat="39.68988450388724" lon="15.860901291572976"><ele>222.0</ele><time>2026-04-26T15:00:41.999Z</time></trkpt><trkpt lat="39.68991818790523" lon="15.86106676182613"><ele>219.33333333333331</ele><time>2026-04-26T15:00:42.999Z</time></trkpt><trkpt lat="39.689973711496826" lon="15.861239228905491"><ele>216.66666666666666</ele><time>2026-04-26T15:00:43.999Z</time></trkpt><trkpt lat="39.6900482645516" lon="15.861433467816568"><ele>214.0</ele><time>2026-04-26T15:00:44.999Z</time></trkpt><trkpt lat="39.69012216335224" lon="15.86162060039055"><ele>212.0</ele><time>2026-04-26T15:00:45.999Z</time></trkpt><trkpt lat="39.6901793335298" lon="15.861802724242164"><ele>210.0</ele><time>2026-04-26T15:00:46.999Z</time></trkpt><trkpt lat="39.6902233492533" lon="15.86199117069816"><ele>208.0</ele><time>2026-04-26T15:00:47.999Z</time></trkpt><trkpt lat="39.69027140162756" lon="15.862151430466902"><ele>206.0</ele><time>2026-04-26T15:00:48.999Z</time></trkpt><trkpt lat="39.690341926040865" lon="15.862286631702343"><ele>208.75</ele><time>2026-04-26T15:00:49.999Z</time></trkpt><trkpt lat="39.69040893724157" lon="15.862427179757823"><ele>211.5</ele><time>2026-04-26T15:00:50.999Z</time></trkpt><trkpt lat="39.690506965819885" lon="15.862552482400563"><ele>214.25</ele><time>2026-04-26T15:00:51.999Z</time></trkpt><trkpt lat="39.69059607099131" lon="15.862671070449757"><ele>217.0</ele><time>2026-04-26T15:00:52.999Z</time></trkpt><trkpt lat="39.690677742562016" lon="15.86275729213108"><ele>216.99999999999997</ele><time>2026-04-26T15:00:53.999Z</time></trkpt><trkpt lat="39.69071848711531" lon="15.86282272663902"><ele>217.0</ele><time>2026-04-26T15:00:54.999Z</time></trkpt><trkpt lat="39.69065831529689" lon="15.862868610121403"><ele>217.0</ele><time>2026-04-26T15:00:58Z</time></trkpt><trkpt lat="39.69059932970312" lon="15.862811832689616"><ele>217.0</ele><time>2026-04-26T15:00:59Z</time></trkpt><trkpt lat="39.69052392219781" lon="15.862701229888605"><ele>216.99999999999997</ele><time>2026-04-26T15:01:00Z</time></trkpt><trkpt lat="39.690424686344286" lon="15.86260353203382"><ele>217.0</ele><time>2026-04-26T15:01:01Z</time></trkpt><trkpt lat="39.690319022470845" lon="15.86252940532116"><ele>214.25</ele><time>2026-04-26T15:01:02Z</time></trkpt><trkpt lat="39.69021356502322" lon="15.862446346698597"><ele>211.5</ele><time>2026-04-26T15:01:03Z</time></trkpt><trkpt lat="39.690104184435235" lon="15.862357221683892"><ele>208.75</ele><time>2026-04-26T15:01:04Z</time></trkpt><trkpt lat="39.6899936336604" lon="15.862256328194364"><ele>206.0</ele><time>2026-04-26T15:01:05Z</time></trkpt><trkpt lat="39.68986074888061" lon="15.862178441785343"><ele>206.0</ele><time>2026-04-26T15:01:06Z</time></trkpt><trkpt lat="39.689693261407626" lon="15.862131363614404"><ele>206.0</ele><time>2026-04-26T15:01:07Z</time></trkpt><trkpt lat="39.689530052110264" lon="15.862071395445483"><ele>206.0</ele><time>2026-04-26T15:01:08Z</time></trkpt><trkpt lat="39.68939816478998" lon="15.862016295997234"><ele>203.75</ele><time>2026-04-26T15:01:09Z</time></trkpt><trkpt lat="39.68929403416104" lon="15.861939091285711"><ele>201.5</ele><time>2026-04-26T15:01:10Z</time></trkpt><trkpt lat="39.68919798953404" lon="15.86188675688273"><ele>199.25</ele><time>2026-04-26T15:01:11Z</time></trkpt><trkpt lat="39.68910308975924" lon="15.861825328721002"><ele>197.0</ele><time>2026-04-26T15:01:12Z</time></trkpt><trkpt lat="39.68902730438612" lon="15.861699768451446"><ele>197.0</ele><time>2026-04-26T15:01:13Z</time></trkpt><trkpt lat="39.68895862023297" lon="15.861575404054653"><ele>197.0</ele><time>2026-04-26T15:01:14Z</time></trkpt><trkpt lat="39.6889059516124" lon="15.86144223420803"><ele>197.0</ele><time>2026-04-26T15:01:15Z</time></trkpt><trkpt lat="39.68881560976846" lon="15.861337485992012"><ele>197.0</ele><time>2026-04-26T15:01:16Z</time></trkpt><trkpt lat="39.68871309175107" lon="15.861253173062467"><ele>197.0</ele><time>2026-04-26T15:01:17Z</time></trkpt><trkpt lat="39.68860079044596" lon="15.861195154315613"><ele>197.0</ele><time>2026-04-26T15:01:18Z</time></trkpt><trkpt lat="39.68850783308555" lon="15.861084615305606"><ele>197.0</ele><time>2026-04-26T15:01:19Z</time></trkpt><trkpt lat="39.68840537448772" lon="15.860982757715542"><ele>197.0</ele><time>2026-04-26T15:01:20Z</time></trkpt><trkpt lat="39.6882788727912" lon="15.860914322056185"><ele>195.6</ele><time>2026-04-26T15:01:21Z</time></trkpt><trkpt lat="39.68815290499642" lon="15.860870290763259"><ele>194.2</ele><time>2026-04-26T15:01:22Z</time></trkpt><trkpt lat="39.688041967868585" lon="15.86081786905365"><ele>192.8</ele><time>2026-04-26T15:01:23Z</time></trkpt><trkpt lat="39.68794425689922" lon="15.860777065597157"><ele>191.4</ele><time>2026-04-26T15:01:24Z</time></trkpt><trkpt lat="39.687853089316064" lon="15.860746919781567"><ele>190.0</ele><time>2026-04-26T15:01:25Z</time></trkpt><trkpt lat="39.68774130860498" lon="15.860730013899879"><ele>187.5</ele><time>2026-04-26T15:01:26Z</time></trkpt><trkpt lat="39.68763538162059" lon="15.860717264690308"><ele>185.0</ele><time>2026-04-26T15:01:27Z</time></trkpt><trkpt lat="39.68754794081562" lon="15.860706740450352"><ele>182.5</ele><time>2026-04-26T15:01:28Z</time></trkpt><trkpt lat="39.687478902196354" lon="15.860690829770078"><ele>180.0</ele><time>2026-04-26T15:01:29Z</time></trkpt><trkpt lat="39.6874259986286" lon="15.860634448304477"><ele>177.5</ele><time>2026-04-26T15:01:30Z</time></trkpt><trkpt lat="39.68736299944841" lon="15.860551798177582"><ele>175.0</ele><time>2026-04-26T15:01:31Z</time></trkpt><trkpt lat="39.687279753319665" lon="15.860441253843208"><ele>175.0</ele><time>2026-04-26T15:01:32Z</time></trkpt><trkpt lat="39.68717296974802" lon="15.860298239174446"><ele>175.0</ele><time>2026-04-26T15:01:33Z</time></trkpt><trkpt lat="39.687051979282934" lon="15.860132115448398"><ele>175.0</ele><time>2026-04-26T15:01:34Z</time></trkpt><trkpt lat="39.6869598623658" lon="15.859990512319442"><ele>172.0</ele><time>2026-04-26T15:01:35Z</time></trkpt><trkpt lat="39.686897098266144" lon="15.859822350839124"><ele>169.0</ele><time>2026-04-26T15:01:36Z</time></trkpt><trkpt lat="39.68685096163278" lon="15.859616554485694"><ele>166.0</ele><time>2026-04-26T15:01:37Z</time></trkpt><trkpt lat="39.68682968929434" lon="15.859387786826838"><ele>166.66666666666669</ele><time>2026-04-26T15:01:38Z</time></trkpt><trkpt lat="39.68678516985544" lon="15.85918530735847"><ele>167.33333333333334</ele><time>2026-04-26T15:01:39Z</time></trkpt><trkpt lat="39.6867414367895" lon="15.858974981994194"><ele>168.0</ele><time>2026-04-26T15:01:40Z</time></trkpt><trkpt lat="39.68670018552149" lon="15.858813758938803"><ele>168.0</ele><time>2026-04-26T15:01:41Z</time></trkpt><trkpt lat="39.68667559499569" lon="15.858661866743322"><ele>168.0</ele><time>2026-04-26T15:01:42Z</time></trkpt><trkpt lat="39.68663417131603" lon="15.858518721229697"><ele>168.0</ele><time>2026-04-26T15:01:43Z</time></trkpt><trkpt lat="39.68659610122031" lon="15.858422418035884"><ele>168.0</ele><time>2026-04-26T15:01:44Z</time></trkpt><trkpt lat="39.68660913250022" lon="15.85831948849517"><ele>168.0</ele><time>2026-04-26T15:01:45Z</time></trkpt><trkpt lat="39.68667376728599" lon="15.858221787790361"><ele>167.2</ele><time>2026-04-26T15:01:46Z</time></trkpt><trkpt lat="39.68677172563353" lon="15.858149273204038"><ele>166.4</ele><time>2026-04-26T15:01:47Z</time></trkpt><trkpt lat="39.68685105234866" lon="15.858117385833644"><ele>165.6</ele><time>2026-04-26T15:01:48Z</time></trkpt><trkpt lat="39.686846264734335" lon="15.85801012171075"><ele>164.79999999999998</ele><time>2026-04-26T15:01:51Z</time></trkpt><trkpt lat="39.68679097188866" lon="15.8579474053954"><ele>164.0</ele><time>2026-04-26T15:01:52Z</time></trkpt><trkpt lat="39.68667307173957" lon="15.857992661254631"><ele>164.0</ele><time>2026-04-26T15:01:53Z</time></trkpt><trkpt lat="39.6865585866711" lon="15.858054868583816"><ele>164.0</ele><time>2026-04-26T15:01:54Z</time></trkpt><trkpt lat="39.68647695794345" lon="15.858139694041334"><ele>164.0</ele><time>2026-04-26T15:01:55Z</time></trkpt><trkpt lat="39.68641786914526" lon="15.858188629934448"><ele>164.0</ele><time>2026-04-26T15:01:56Z</time></trkpt><trkpt lat="39.686353551705004" lon="15.858195134124301"><ele>164.0</ele><time>2026-04-26T15:01:58Z</time></trkpt><trkpt lat="39.686388317363125" lon="15.858092442587298"><ele>164.0</ele><time>2026-04-26T15:02:00Z</time></trkpt><trkpt lat="39.68646760691527" lon="15.85797942674121"><ele>164.0</ele><time>2026-04-26T15:02:02Z</time></trkpt><trkpt lat="39.68651524774831" lon="15.85786874800641"><ele>164.0</ele><time>2026-04-26T15:02:03Z</time></trkpt><trkpt lat="39.68657434921838" lon="15.857719441026205"><ele>164.0</ele><time>2026-04-26T15:02:04Z</time></trkpt><trkpt lat="39.68664535478325" lon="15.857582312151706"><ele>162.83333333333331</ele><time>2026-04-26T15:02:05Z</time></trkpt><trkpt lat="39.68667735715174" lon="15.857507514494726"><ele>161.66666666666666</ele><time>2026-04-26T15:02:06Z</time></trkpt><trkpt lat="39.68663849706593" lon="15.857422415817965"><ele>160.5</ele><time>2026-04-26T15:02:08Z</time></trkpt><trkpt lat="39.68657580367617" lon="15.857358720093133"><ele>159.33333333333334</ele><time>2026-04-26T15:02:09Z</time></trkpt><trkpt lat="39.68649244268366" lon="15.857284321922334"><ele>158.16666666666669</ele><time>2026-04-26T15:02:10Z</time></trkpt><trkpt lat="39.68636725831164" lon="15.857308369137696"><ele>157.0</ele><time>2026-04-26T15:02:11Z</time></trkpt><trkpt lat="39.68626413086295" lon="15.857232664367308"><ele>157.0</ele><time>2026-04-26T15:02:12Z</time></trkpt><trkpt lat="39.68611656874671" lon="15.85719859113037"><ele>157.0</ele><time>2026-04-26T15:02:13Z</time></trkpt><trkpt lat="39.685957137541344" lon="15.857108593137143"><ele>157.0</ele><time>2026-04-26T15:02:14Z</time></trkpt><trkpt lat="39.68580761282243" lon="15.857054727813232"><ele>156.4</ele><time>2026-04-26T15:02:15Z</time></trkpt><trkpt lat="39.68570324874508" lon="15.857021147081314"><ele>155.79999999999998</ele><time>2026-04-26T15:02:16Z</time></trkpt><trkpt lat="39.68564118611806" lon="15.856980289606398"><ele>155.2</ele><time>2026-04-26T15:02:17Z</time></trkpt><trkpt lat="39.685581038934764" lon="15.856887144367864"><ele>154.6</ele><time>2026-04-26T15:02:18Z</time></trkpt><trkpt lat="39.685504558731566" lon="15.856695456147218"><ele>154.0</ele><time>2026-04-26T15:02:19Z</time></trkpt><trkpt lat="39.6854356761847" lon="15.856511489516876"><ele>154.0</ele><time>2026-04-26T15:02:20Z</time></trkpt><trkpt lat="39.68537959364069" lon="15.85636741067295"><ele>154.0</ele><time>2026-04-26T15:02:21Z</time></trkpt><trkpt lat="39.685334811470426" lon="15.85622292441777"><ele>154.0</ele><time>2026-04-26T15:02:22Z</time></trkpt><trkpt lat="39.685324561611104" lon="15.856113789154048"><ele>154.0</ele><time>2026-04-26T15:02:23Z</time></trkpt><trkpt lat="39.6853217811175" lon="15.85602173923262"><ele>154.0</ele><time>2026-04-26T15:02:25Z</time></trkpt><trkpt lat="39.68526236930377" lon="15.855989344697447"><ele>146.33333333333334</ele><time>2026-04-26T15:02:26Z</time></trkpt><trkpt lat="39.68512055501396" lon="15.85607172166474"><ele>138.66666666666666</ele><time>2026-04-26T15:02:28Z</time></trkpt><trkpt lat="39.685147170494545" lon="15.85632151861577"><ele>131.0</ele><time>2026-04-26T15:02:29Z</time></trkpt><trkpt lat="39.68511359319859" lon="15.856494258155045"><ele>131.0</ele><time>2026-04-26T15:02:30Z</time></trkpt><trkpt lat="39.68501151080564" lon="15.856618379962882"><ele>131.0</ele><time>2026-04-26T15:02:31Z</time></trkpt><trkpt lat="39.68497619160846" lon="15.856740857078417"><ele>131.0</ele><time>2026-04-26T15:02:32Z</time></trkpt><trkpt lat="39.68498049044588" lon="15.85685583969287"><ele>131.0</ele><time>2026-04-26T15:02:33Z</time></trkpt><trkpt lat="39.684986816398755" lon="15.856963711533686"><ele>131.0</ele><time>2026-04-26T15:02:33.999Z</time></trkpt><trkpt lat="39.68507728495415" lon="15.85705896861975"><ele>133.5</ele><time>2026-04-26T15:02:34.999Z</time></trkpt><trkpt lat="39.68520187235064" lon="15.857153030966318"><ele>136.0</ele><time>2026-04-26T15:02:35.999Z</time></trkpt><trkpt lat="39.68532584562346" lon="15.85723678323684"><ele>138.5</ele><time>2026-04-26T15:02:36.999Z</time></trkpt><trkpt lat="39.68544372783316" lon="15.857320236580204"><ele>141.0</ele><time>2026-04-26T15:02:37.999Z</time></trkpt><trkpt lat="39.685565903504866" lon="15.857391525434602"><ele>141.0</ele><time>2026-04-26T15:02:38.999Z</time></trkpt><trkpt lat="39.68568333058158" lon="15.85745733477606"><ele>141.0</ele><time>2026-04-26T15:02:39.999Z</time></trkpt><trkpt lat="39.68577313729191" lon="15.857537411026446"><ele>141.0</ele><time>2026-04-26T15:02:40.999Z</time></trkpt><trkpt lat="39.68585375504001" lon="15.857568120880547"><ele>141.0</ele><time>2026-04-26T15:02:41.999Z</time></trkpt><trkpt lat="39.685837079502576" lon="15.857734390203175"><ele>141.0</ele><time>2026-04-26T15:02:43.999Z</time></trkpt><trkpt lat="39.685775923795816" lon="15.857780760093743"><ele>141.0</ele><time>2026-04-26T15:02:44.999Z</time></trkpt><trkpt lat="39.68566078050737" lon="15.857801827754772"><ele>141.0</ele><time>2026-04-26T15:02:45.999Z</time></trkpt><trkpt lat="39.68553453965855" lon="15.857867866066368"><ele>141.0</ele><time>2026-04-26T15:02:46.999Z</time></trkpt><trkpt lat="39.68545577401136" lon="15.85793825315943"><ele>141.0</ele><time>2026-04-26T15:02:47.999Z</time></trkpt><trkpt lat="39.685394646582495" lon="15.858030587120295"><ele>141.0</ele><time>2026-04-26T15:02:48.999Z</time></trkpt><trkpt lat="39.685398544521306" lon="15.858232309825777"><ele>141.0</ele><time>2026-04-26T15:02:49.999Z</time></trkpt><trkpt lat="39.68540306509362" lon="15.858381219148592"><ele>141.0</ele><time>2026-04-26T15:02:50.999Z</time></trkpt><trkpt lat="39.685438485641434" lon="15.858513870128252"><ele>141.0</ele><time>2026-04-26T15:02:51.999Z</time></trkpt><trkpt lat="39.68549179725019" lon="15.858632187509286"><ele>140.5</ele><time>2026-04-26T15:02:52.999Z</time></trkpt><trkpt lat="39.68551023293742" lon="15.858752668452679"><ele>140.0</ele><time>2026-04-26T15:02:53.999Z</time></trkpt><trkpt lat="39.68545278573293" lon="15.85886800805639"><ele>139.5</ele><time>2026-04-26T15:02:54.999Z</time></trkpt><trkpt lat="39.68541946326015" lon="15.859039201507079"><ele>139.0</ele><time>2026-04-26T15:02:55.999Z</time></trkpt><trkpt lat="39.68542973290301" lon="15.85922282823693"><ele>138.4</ele><time>2026-04-26T15:02:56.999Z</time></trkpt><trkpt lat="39.68542206842111" lon="15.859420491706068"><ele>137.8</ele><time>2026-04-26T15:02:57.999Z</time></trkpt><trkpt lat="39.685419545129285" lon="15.859562022781551"><ele>137.2</ele><time>2026-04-26T15:02:58.999Z</time></trkpt><trkpt lat="39.685412355800956" lon="15.85965137704131"><ele>136.6</ele><time>2026-04-26T15:02:59.999Z</time></trkpt><trkpt lat="39.68540409444317" lon="15.859734448288917"><ele>136.0</ele><time>2026-04-26T15:03:00.999Z</time></trkpt><trkpt lat="39.68537201149346" lon="15.85982930397349"><ele>136.0</ele><time>2026-04-26T15:03:03.001Z</time></trkpt><trkpt lat="39.68531994354756" lon="15.859926476325942"><ele>136.0</ele><time>2026-04-26T15:03:05.001Z</time></trkpt><trkpt lat="39.68524877412602" lon="15.859943166192007"><ele>136.0</ele><time>2026-04-26T15:03:07.001Z</time></trkpt><trkpt lat="39.68517566330027" lon="15.860052396477075"><ele>136.0</ele><time>2026-04-26T15:03:09Z</time></trkpt><trkpt lat="39.685120742875036" lon="15.860200706177547"><ele>136.0</ele><time>2026-04-26T15:03:11Z</time></trkpt><trkpt lat="39.685076517746104" lon="15.860284557573873"><ele>132.25</ele><time>2026-04-26T15:03:12Z</time></trkpt><trkpt lat="39.68502224460348" lon="15.860348508787704"><ele>128.5</ele><time>2026-04-26T15:03:13Z</time></trkpt><trkpt lat="39.68494167403948" lon="15.860438936551938"><ele>124.75</ele><time>2026-04-26T15:03:14Z</time></trkpt><trkpt lat="39.68483298408862" lon="15.860572199997696"><ele>121.0</ele><time>2026-04-26T15:03:15Z</time></trkpt><trkpt lat="39.68476239354252" lon="15.860708628689531"><ele>121.0</ele><time>2026-04-26T15:03:16Z</time></trkpt><trkpt lat="39.6847356336771" lon="15.860859291946927"><ele>121.0</ele><time>2026-04-26T15:03:17Z</time></trkpt><trkpt lat="39.68469343091363" lon="15.861002692788034"><ele>121.0</ele><time>2026-04-26T15:03:18Z</time></trkpt><trkpt lat="39.68464734326885" lon="15.861135782396923"><ele>121.0</ele><time>2026-04-26T15:03:19Z</time></trkpt><trkpt lat="39.68455918288719" lon="15.861191710515758"><ele>121.0</ele><time>2026-04-26T15:03:20Z</time></trkpt><trkpt lat="39.68446743231765" lon="15.861177266901372"><ele>123.25</ele><time>2026-04-26T15:03:22Z</time></trkpt><trkpt lat="39.684401934294456" lon="15.861085339754187"><ele>125.5</ele><time>2026-04-26T15:03:23Z</time></trkpt><trkpt lat="39.68430587096813" lon="15.860979599708028"><ele>127.75</ele><time>2026-04-26T15:03:24Z</time></trkpt><trkpt lat="39.68422381915618" lon="15.860871652614442"><ele>130.0</ele><time>2026-04-26T15:03:25Z</time></trkpt><trkpt lat="39.68417691180165" lon="15.86069335748199"><ele>130.0</ele><time>2026-04-26T15:03:26Z</time></trkpt><trkpt lat="39.68411461003844" lon="15.860495506128725"><ele>130.0</ele><time>2026-04-26T15:03:27Z</time></trkpt><trkpt lat="39.68403049924231" lon="15.860292842408704"><ele>130.0</ele><time>2026-04-26T15:03:28Z</time></trkpt><trkpt lat="39.683961521159794" lon="15.86007333778742"><ele>130.0</ele><time>2026-04-26T15:03:29Z</time></trkpt><trkpt lat="39.68388490471877" lon="15.859913040621455"><ele>130.0</ele><time>2026-04-26T15:03:30Z</time></trkpt><trkpt lat="39.68384293194352" lon="15.859765331424322"><ele>130.0</ele><time>2026-04-26T15:03:31Z</time></trkpt><trkpt lat="39.68387154690969" lon="15.859649224874639"><ele>130.0</ele><time>2026-04-26T15:03:32Z</time></trkpt><trkpt lat="39.68386921272878" lon="15.859517201858917"><ele>130.0</ele><time>2026-04-26T15:03:33Z</time></trkpt><trkpt lat="39.68387026715121" lon="15.859410377061765"><ele>130.0</ele><time>2026-04-26T15:03:34Z</time></trkpt><trkpt lat="39.68382015112558" lon="15.85936038592563"><ele>130.0</ele><time>2026-04-26T15:03:35Z</time></trkpt><trkpt lat="39.68372376153939" lon="15.85943013630445"><ele>130.0</ele><time>2026-04-26T15:03:37Z</time></trkpt><trkpt lat="39.68372693667826" lon="15.859535142389234"><ele>130.0</ele><time>2026-04-26T15:03:38Z</time></trkpt><trkpt lat="39.68372890775274" lon="15.859672877023057"><ele>130.0</ele><time>2026-04-26T15:03:39Z</time></trkpt><trkpt lat="39.68362952460384" lon="15.859785974616013"><ele>135.25</ele><time>2026-04-26T15:03:40Z</time></trkpt><trkpt lat="39.6835537053407" lon="15.859965210240034"><ele>140.5</ele><time>2026-04-26T15:03:41Z</time></trkpt><trkpt lat="39.683486770676154" lon="15.860113054239745"><ele>145.75</ele><time>2026-04-26T15:03:42Z</time></trkpt><trkpt lat="39.68349673135196" lon="15.860243289980886"><ele>151.0</ele><time>2026-04-26T15:03:43Z</time></trkpt><trkpt lat="39.683461700776625" lon="15.860324105711767"><ele>151.0</ele><time>2026-04-26T15:03:45Z</time></trkpt><trkpt lat="39.68344526036582" lon="15.860419754681896"><ele>151.0</ele><time>2026-04-26T15:03:47Z</time></trkpt><trkpt lat="39.68342766007371" lon="15.86052051938819"><ele>151.0</ele><time>2026-04-26T15:03:48Z</time></trkpt><trkpt lat="39.683413484464786" lon="15.860672129755766"><ele>151.0</ele><time>2026-04-26T15:03:49Z</time></trkpt><trkpt lat="39.683398578681015" lon="15.860820138988473"><ele>151.0</ele><time>2026-04-26T15:03:50Z</time></trkpt><trkpt lat="39.68338616653213" lon="15.860966637138004"><ele>149.5</ele><time>2026-04-26T15:03:51Z</time></trkpt><trkpt lat="39.683369715546746" lon="15.861104631835675"><ele>148.0</ele><time>2026-04-26T15:03:52Z</time></trkpt><trkpt lat="39.68328243200939" lon="15.861195210453776"><ele>146.5</ele><time>2026-04-26T15:03:53Z</time></trkpt><trkpt lat="39.683193102374034" lon="15.861321108652897"><ele>145.0</ele><time>2026-04-26T15:03:54Z</time></trkpt><trkpt lat="39.68309891483407" lon="15.861493676865054"><ele>145.0</ele><time>2026-04-26T15:03:55Z</time></trkpt><trkpt lat="39.683040626795886" lon="15.861669052471743"><ele>145.0</ele><time>2026-04-26T15:03:56Z</time></trkpt><trkpt lat="39.68299118385982" lon="15.861810465983575"><ele>145.0</ele><time>2026-04-26T15:03:57Z</time></trkpt><trkpt lat="39.682934207723804" lon="15.86191602440117"><ele>145.0</ele><time>2026-04-26T15:03:58Z</time></trkpt><trkpt lat="39.68284186960434" lon="15.861965713303764"><ele>147.0</ele><time>2026-04-26T15:03:59Z</time></trkpt><trkpt lat="39.68271103771157" lon="15.862041319971402"><ele>149.0</ele><time>2026-04-26T15:04:00Z</time></trkpt><trkpt lat="39.68258636429387" lon="15.862172330176467"><ele>151.0</ele><time>2026-04-26T15:04:01Z</time></trkpt><trkpt lat="39.682479377908294" lon="15.862290794203743"><ele>153.0</ele><time>2026-04-26T15:04:02Z</time></trkpt><trkpt lat="39.6823731199215" lon="15.862376236983621"><ele>153.0</ele><time>2026-04-26T15:04:03Z</time></trkpt><trkpt lat="39.68231240068954" lon="15.86245931379587"><ele>153.0</ele><time>2026-04-26T15:04:04Z</time></trkpt><trkpt lat="39.682269145663106" lon="15.862520001472932"><ele>153.0</ele><time>2026-04-26T15:04:05Z</time></trkpt><trkpt lat="39.68225758769073" lon="15.862629834631282"><ele>153.0</ele><time>2026-04-26T15:04:06Z</time></trkpt><trkpt lat="39.682331921742055" lon="15.862798010991499"><ele>153.0</ele><time>2026-04-26T15:04:07Z</time></trkpt><trkpt lat="39.68237936161783" lon="15.862978491420558"><ele>153.20000000000002</ele><time>2026-04-26T15:04:08Z</time></trkpt><trkpt lat="39.68241632597004" lon="15.86312385112667"><ele>153.4</ele><time>2026-04-26T15:04:09Z</time></trkpt><trkpt lat="39.68245120521721" lon="15.863247667473058"><ele>153.60000000000002</ele><time>2026-04-26T15:04:10Z</time></trkpt><trkpt lat="39.68251163713565" lon="15.863338324405305"><ele>153.8</ele><time>2026-04-26T15:04:11Z</time></trkpt><trkpt lat="39.68261655270536" lon="15.863372466273736"><ele>154.0</ele><time>2026-04-26T15:04:12Z</time></trkpt><trkpt lat="39.68275134600658" lon="15.863374754089818"><ele>155.66666666666669</ele><time>2026-04-26T15:04:13Z</time></trkpt><trkpt lat="39.68291120485176" lon="15.863324914488391"><ele>157.33333333333334</ele><time>2026-04-26T15:04:14Z</time></trkpt><trkpt lat="39.68305931201218" lon="15.863267244168108"><ele>159.0</ele><time>2026-04-26T15:04:15Z</time></trkpt><trkpt lat="39.68320142463655" lon="15.863245388863476"><ele>159.0</ele><time>2026-04-26T15:04:16Z</time></trkpt><trkpt lat="39.683346603209" lon="15.863265706720309"><ele>159.0</ele><time>2026-04-26T15:04:17Z</time></trkpt><trkpt lat="39.68349757139221" lon="15.86330042274972"><ele>159.0</ele><time>2026-04-26T15:04:18Z</time></trkpt><trkpt lat="39.68365081255883" lon="15.863337098136471"><ele>159.0</ele><time>2026-04-26T15:04:19Z</time></trkpt><trkpt lat="39.68381101852807" lon="15.863402050948364"><ele>159.0</ele><time>2026-04-26T15:04:20Z</time></trkpt><trkpt lat="39.68394263313425" lon="15.86350491556251"><ele>159.0</ele><time>2026-04-26T15:04:21Z</time></trkpt><trkpt lat="39.68408197945732" lon="15.863572532520058"><ele>163.33333333333334</ele><time>2026-04-26T15:04:22Z</time></trkpt><trkpt lat="39.684225951910214" lon="15.8636263208147"><ele>167.66666666666669</ele><time>2026-04-26T15:04:23Z</time></trkpt><trkpt lat="39.684410994626724" lon="15.863620391551198"><ele>172.0</ele><time>2026-04-26T15:04:24Z</time></trkpt><trkpt lat="39.68458743481962" lon="15.863594751484078"><ele>172.0</ele><time>2026-04-26T15:04:25Z</time></trkpt><trkpt lat="39.68472782943937" lon="15.863586198450871"><ele>172.0</ele><time>2026-04-26T15:04:26Z</time></trkpt><trkpt lat="39.68484274938802" lon="15.863589938949609"><ele>172.0</ele><time>2026-04-26T15:04:27Z</time></trkpt><trkpt lat="39.68493728971111" lon="15.863612047016217"><ele>172.0</ele><time>2026-04-26T15:04:28Z</time></trkpt><trkpt lat="39.685009377255845" lon="15.863682017930168"><ele>172.0</ele><time>2026-04-26T15:04:29Z</time></trkpt><trkpt lat="39.68499894233105" lon="15.863838948099415"><ele>172.0</ele><time>2026-04-26T15:04:30Z</time></trkpt><trkpt lat="39.68502011467086" lon="15.864014150753691"><ele>172.0</ele><time>2026-04-26T15:04:31Z</time></trkpt><trkpt lat="39.68504068410849" lon="15.86422413854306"><ele>172.0</ele><time>2026-04-26T15:04:32Z</time></trkpt><trkpt lat="39.685041393885754" lon="15.864419459903525"><ele>173.33333333333334</ele><time>2026-04-26T15:04:33Z</time></trkpt><trkpt lat="39.685022907166314" lon="15.86461013391213"><ele>174.66666666666666</ele><time>2026-04-26T15:04:34Z</time></trkpt><trkpt lat="39.68496783812111" lon="15.86480399723143"><ele>176.0</ele><time>2026-04-26T15:04:35Z</time></trkpt><trkpt lat="39.68490110045199" lon="15.864972743071077"><ele>177.5</ele><time>2026-04-26T15:04:36Z</time></trkpt><trkpt lat="39.684812876700015" lon="15.865123459363216"><ele>179.0</ele><time>2026-04-26T15:04:36.999Z</time></trkpt><trkpt lat="39.684708324642116" lon="15.865260189741303"><ele>180.5</ele><time>2026-04-26T15:04:37.999Z</time></trkpt><trkpt lat="39.68462969890958" lon="15.865378073262299"><ele>182.0</ele><time>2026-04-26T15:04:38.999Z</time></trkpt><trkpt lat="39.684575199323106" lon="15.865491798389234"><ele>182.0</ele><time>2026-04-26T15:04:39.999Z</time></trkpt><trkpt lat="39.68460093376133" lon="15.865641397745081"><ele>182.0</ele><time>2026-04-26T15:04:40.999Z</time></trkpt><trkpt lat="39.68464657830729" lon="15.865764491094213"><ele>182.0</ele><time>2026-04-26T15:04:41.999Z</time></trkpt><trkpt lat="39.68474254378901" lon="15.86588477880366"><ele>182.0</ele><time>2026-04-26T15:04:42.999Z</time></trkpt><trkpt lat="39.68486095839196" lon="15.86602174062186"><ele>184.66666666666666</ele><time>2026-04-26T15:04:43.999Z</time></trkpt><trkpt lat="39.68491603946761" lon="15.866205856867184"><ele>187.33333333333334</ele><time>2026-04-26T15:04:44.999Z</time></trkpt><trkpt lat="39.684966506681434" lon="15.866403351014924"><ele>190.0</ele><time>2026-04-26T15:04:45.999Z</time></trkpt><trkpt lat="39.68498713686609" lon="15.866623396126323"><ele>193.0</ele><time>2026-04-26T15:04:46.999Z</time></trkpt><trkpt lat="39.684990965001774" lon="15.866883836184762"><ele>196.0</ele><time>2026-04-26T15:04:47.999Z</time></trkpt><trkpt lat="39.6850397709025" lon="15.867144648337584"><ele>199.0</ele><time>2026-04-26T15:04:48.999Z</time></trkpt><trkpt lat="39.6850884417666" lon="15.867367929718336"><ele>199.0</ele><time>2026-04-26T15:04:49.999Z</time></trkpt><trkpt lat="39.68510113812192" lon="15.867575642105875"><ele>199.0</ele><time>2026-04-26T15:04:50.999Z</time></trkpt><trkpt lat="39.68513745472169" lon="15.86779671134904"><ele>199.0</ele><time>2026-04-26T15:04:51.999Z</time></trkpt><trkpt lat="39.685109749316666" lon="15.868021852640496"><ele>201.0</ele><time>2026-04-26T15:04:52.999Z</time></trkpt><trkpt lat="39.68504968628962" lon="15.868213848650736"><ele>203.0</ele><time>2026-04-26T15:04:53.999Z</time></trkpt><trkpt lat="39.68495578927349" lon="15.868383350599814"><ele>205.0</ele><time>2026-04-26T15:04:54.999Z</time></trkpt><trkpt lat="39.68483206490962" lon="15.868532074840893"><ele>206.6</ele><time>2026-04-26T15:04:55.999Z</time></trkpt><trkpt lat="39.68469367533669" lon="15.868667252078673"><ele>208.2</ele><time>2026-04-26T15:04:56.999Z</time></trkpt><trkpt lat="39.68461434683773" lon="15.868765571137683"><ele>209.8</ele><time>2026-04-26T15:04:57.999Z</time></trkpt><trkpt lat="39.68458171034415" lon="15.868856096960855"><ele>211.4</ele><time>2026-04-26T15:04:58.999Z</time></trkpt><trkpt lat="39.68460502266234" lon="15.868949131999917"><ele>213.0</ele><time>2026-04-26T15:04:59.999Z</time></trkpt><trkpt lat="39.68468027853301" lon="15.8690338212952"><ele>213.0</ele><time>2026-04-26T15:05:00.999Z</time></trkpt><trkpt lat="39.684823450297316" lon="15.869069541450171"><ele>213.0</ele><time>2026-04-26T15:05:01.999Z</time></trkpt><trkpt lat="39.684982770495154" lon="15.869085732154687"><ele>213.0</ele><time>2026-04-26T15:05:02.999Z</time></trkpt><trkpt lat="39.68512831001419" lon="15.869123916420298"><ele>210.33333333333331</ele><time>2026-04-26T15:05:03.999Z</time></trkpt><trkpt lat="39.68528817785177" lon="15.869218482605623"><ele>207.66666666666666</ele><time>2026-04-26T15:05:04.999Z</time></trkpt><trkpt lat="39.685459674828145" lon="15.869292763683731"><ele>205.0</ele><time>2026-04-26T15:05:05.999Z</time></trkpt><trkpt lat="39.68562136462509" lon="15.86934621447863"><ele>210.0</ele><time>2026-04-26T15:05:06.999Z</time></trkpt><trkpt lat="39.685757971208915" lon="15.86942638969252"><ele>215.0</ele><time>2026-04-26T15:05:07.999Z</time></trkpt><trkpt lat="39.68584407827127" lon="15.869601213719838"><ele>220.0</ele><time>2026-04-26T15:05:09Z</time></trkpt><trkpt lat="39.685964769801096" lon="15.86969074663681"><ele>225.0</ele><time>2026-04-26T15:05:10Z</time></trkpt><trkpt lat="39.686099367455824" lon="15.869751505133681"><ele>225.33333333333331</ele><time>2026-04-26T15:05:11Z</time></trkpt><trkpt lat="39.68627745890217" lon="15.86973196815431"><ele>225.66666666666666</ele><time>2026-04-26T15:05:12Z</time></trkpt><trkpt lat="39.686479243136645" lon="15.869691896609886"><ele>226.0</ele><time>2026-04-26T15:05:13Z</time></trkpt><trkpt lat="39.686678697389254" lon="15.869655273126128"><ele>226.0</ele><time>2026-04-26T15:05:14Z</time></trkpt><trkpt lat="39.68684908092692" lon="15.869632829969078"><ele>226.0</ele><time>2026-04-26T15:05:15Z</time></trkpt><trkpt lat="39.68698995669947" lon="15.869665782318581"><ele>226.0</ele><time>2026-04-26T15:05:16Z</time></trkpt><trkpt lat="39.687091970285046" lon="15.869749437170457"><ele>226.0</ele><time>2026-04-26T15:05:17Z</time></trkpt><trkpt lat="39.68722688493835" lon="15.869843272440976"><ele>225.33333333333331</ele><time>2026-04-26T15:05:18Z</time></trkpt><trkpt lat="39.687384569323406" lon="15.869947648623084"><ele>224.66666666666669</ele><time>2026-04-26T15:05:19Z</time></trkpt><trkpt lat="39.687557197040455" lon="15.870041172457375"><ele>224.0</ele><time>2026-04-26T15:05:20Z</time></trkpt><trkpt lat="39.68772866389696" lon="15.870130404193292"><ele>226.25</ele><time>2026-04-26T15:05:21Z</time></trkpt><trkpt lat="39.68787835589511" lon="15.870221855627314"><ele>228.5</ele><time>2026-04-26T15:05:22Z</time></trkpt><trkpt lat="39.688002424919965" lon="15.870320125991284"><ele>230.75</ele><time>2026-04-26T15:05:23Z</time></trkpt><trkpt lat="39.688091086186546" lon="15.870454590088112"><ele>233.0</ele><time>2026-04-26T15:05:24Z</time></trkpt><trkpt lat="39.68818458804512" lon="15.870630508775669"><ele>233.0</ele><time>2026-04-26T15:05:25Z</time></trkpt><trkpt lat="39.688285182773434" lon="15.87082728507056"><ele>233.0</ele><time>2026-04-26T15:05:26Z</time></trkpt><trkpt lat="39.68836398731634" lon="15.870984267890654"><ele>233.0</ele><time>2026-04-26T15:05:27Z</time></trkpt><trkpt lat="39.68841508296459" lon="15.871106822576683"><ele>233.0</ele><time>2026-04-26T15:05:28Z</time></trkpt><trkpt lat="39.68842183963843" lon="15.871222996473263"><ele>234.8</ele><time>2026-04-26T15:05:29Z</time></trkpt><trkpt lat="39.68843000515335" lon="15.871327852601167"><ele>236.60000000000002</ele><time>2026-04-26T15:05:30Z</time></trkpt><trkpt lat="39.68835768852928" lon="15.871387021934497"><ele>238.39999999999998</ele><time>2026-04-26T15:05:31Z</time></trkpt><trkpt lat="39.688269976485316" lon="15.871364596229405"><ele>240.2</ele><time>2026-04-26T15:05:32Z</time></trkpt><trkpt lat="39.68820046242514" lon="15.871263527955039"><ele>242.0</ele><time>2026-04-26T15:05:33Z</time></trkpt><trkpt lat="39.688165200518156" lon="15.871100313988753"><ele>242.00000000000003</ele><time>2026-04-26T15:05:34Z</time></trkpt><trkpt lat="39.68813968076565" lon="15.870977976258475"><ele>242.0</ele><time>2026-04-26T15:05:35Z</time></trkpt><trkpt lat="39.68809497848333" lon="15.87088900931697"><ele>242.0</ele><time>2026-04-26T15:05:36Z</time></trkpt><trkpt lat="39.68803913405383" lon="15.87082527275214"><ele>242.0</ele><time>2026-04-26T15:05:37Z</time></trkpt><trkpt lat="39.68797485162469" lon="15.870789130633458"><ele>242.00000000000003</ele><time>2026-04-26T15:05:38Z</time></trkpt><trkpt lat="39.68790308494514" lon="15.870777079205107"><ele>242.0</ele><time>2026-04-26T15:05:39Z</time></trkpt><trkpt lat="39.68782911643446" lon="15.870778819567013"><ele>241.83333333333334</ele><time>2026-04-26T15:05:40Z</time></trkpt><trkpt lat="39.6877503362811" lon="15.87078923526816"><ele>241.66666666666669</ele><time>2026-04-26T15:05:41Z</time></trkpt><trkpt lat="39.68766101960167" lon="15.87080526575258"><ele>241.5</ele><time>2026-04-26T15:05:42Z</time></trkpt><trkpt lat="39.68756763030561" lon="15.870821192824367"><ele>241.33333333333331</ele><time>2026-04-26T15:05:43Z</time></trkpt><trkpt lat="39.68749109164558" lon="15.870864425119938"><ele>241.16666666666666</ele><time>2026-04-26T15:05:44Z</time></trkpt><trkpt lat="39.6874139606977" lon="15.870872481878616"><ele>241.0</ele><time>2026-04-26T15:05:45Z</time></trkpt><trkpt lat="39.6873384245813" lon="15.87085795058211"><ele>240.99999999999997</ele><time>2026-04-26T15:05:46Z</time></trkpt><trkpt lat="39.68726480081764" lon="15.870822098844094"><ele>241.0</ele><time>2026-04-26T15:05:47Z</time></trkpt><trkpt lat="39.68719192030968" lon="15.870788993632823"><ele>241.0</ele><time>2026-04-26T15:05:48Z</time></trkpt><trkpt lat="39.68711406421938" lon="15.870768383834651"><ele>241.0</ele><time>2026-04-26T15:05:49Z</time></trkpt><trkpt lat="39.6870483172446" lon="15.870729364122372"><ele>240.99999999999997</ele><time>2026-04-26T15:05:50Z</time></trkpt><trkpt lat="39.68692545913722" lon="15.87072402976695"><ele>241.0</ele><time>2026-04-26T15:05:52Z</time></trkpt><trkpt lat="39.686850163429575" lon="15.870763865370984"><ele>242.0</ele><time>2026-04-26T15:05:53Z</time></trkpt><trkpt lat="39.68676890041729" lon="15.870832246182971"><ele>243.00000000000003</ele><time>2026-04-26T15:05:54Z</time></trkpt><trkpt lat="39.68669052571484" lon="15.870894962488784"><ele>244.00000000000003</ele><time>2026-04-26T15:05:55Z</time></trkpt><trkpt lat="39.68661114671514" lon="15.870950432027925"><ele>245.0</ele><time>2026-04-26T15:05:56Z</time></trkpt><trkpt lat="39.68652695559117" lon="15.870994949544807"><ele>246.0</ele><time>2026-04-26T15:05:57Z</time></trkpt><trkpt lat="39.686446715411925" lon="15.871010261958402"><ele>249.20000000000002</ele><time>2026-04-26T15:05:58Z</time></trkpt><trkpt lat="39.68636469014038" lon="15.871018558496312"><ele>252.40000000000003</ele><time>2026-04-26T15:05:59Z</time></trkpt><trkpt lat="39.68626820541549" lon="15.871033132087202"><ele>255.6</ele><time>2026-04-26T15:06:00Z</time></trkpt><trkpt lat="39.686147977014805" lon="15.871071134623579"><ele>258.8</ele><time>2026-04-26T15:06:01Z</time></trkpt><trkpt lat="39.686043440312176" lon="15.871141864854767"><ele>262.0</ele><time>2026-04-26T15:06:02Z</time></trkpt><trkpt lat="39.68596261029971" lon="15.871222990648365"><ele>263.0</ele><time>2026-04-26T15:06:03Z</time></trkpt><trkpt lat="39.685892454125764" lon="15.871262066548175"><ele>264.0</ele><time>2026-04-26T15:06:04Z</time></trkpt><trkpt lat="39.68578557196847" lon="15.87126298151713"><ele>265.0</ele><time>2026-04-26T15:06:06Z</time></trkpt><trkpt lat="39.68568424580391" lon="15.871236411052715"><ele>266.0</ele><time>2026-04-26T15:06:07Z</time></trkpt><trkpt lat="39.68553752070951" lon="15.871188269912869"><ele>267.0</ele><time>2026-04-26T15:06:08Z</time></trkpt><trkpt lat="39.685382115352255" lon="15.871147993660061"><ele>268.75</ele><time>2026-04-26T15:06:09Z</time></trkpt><trkpt lat="39.68525151825646" lon="15.87112358172139"><ele>270.5</ele><time>2026-04-26T15:06:10Z</time></trkpt><trkpt lat="39.68513250491528" lon="15.871107731411568"><ele>272.25</ele><time>2026-04-26T15:06:11Z</time></trkpt><trkpt lat="39.68497710626288" lon="15.871111031248581"><ele>274.0</ele><time>2026-04-26T15:06:12Z</time></trkpt><trkpt lat="39.684782005238645" lon="15.871154308619438"><ele>274.0</ele><time>2026-04-26T15:06:13Z</time></trkpt><trkpt lat="39.684602095159775" lon="15.871198597607336"><ele>274.0</ele><time>2026-04-26T15:06:14Z</time></trkpt><trkpt lat="39.68444332160503" lon="15.87117175226412"><ele>274.0</ele><time>2026-04-26T15:06:15Z</time></trkpt><trkpt lat="39.684317337090896" lon="15.871106222172319"><ele>275.25</ele><time>2026-04-26T15:06:16Z</time></trkpt><trkpt lat="39.6841835552774" lon="15.871109710593549"><ele>276.5</ele><time>2026-04-26T15:06:17Z</time></trkpt><trkpt lat="39.68407193753728" lon="15.871167898023543"><ele>277.75</ele><time>2026-04-26T15:06:18Z</time></trkpt><trkpt lat="39.68399783421689" lon="15.871219702172276"><ele>279.0</ele><time>2026-04-26T15:06:19Z</time></trkpt><trkpt lat="39.68399607937836" lon="15.871368876548388"><ele>279.0</ele><time>2026-04-26T15:06:21Z</time></trkpt><trkpt lat="39.68404959220473" lon="15.871434223592642"><ele>279.0</ele><time>2026-04-26T15:06:22Z</time></trkpt><trkpt lat="39.68414604299513" lon="15.871450858338267"><ele>279.0</ele><time>2026-04-26T15:06:23Z</time></trkpt><trkpt lat="39.68426505318912" lon="15.871401396573507"><ele>279.0</ele><time>2026-04-26T15:06:24Z</time></trkpt><trkpt lat="39.68436845867319" lon="15.871351486357414"><ele>279.0</ele><time>2026-04-26T15:06:25Z</time></trkpt><trkpt lat="39.68448065734765" lon="15.87137076219769"><ele>277.75</ele><time>2026-04-26T15:06:26Z</time></trkpt><trkpt lat="39.68460021566529" lon="15.871425866426383"><ele>276.5</ele><time>2026-04-26T15:06:27Z</time></trkpt><trkpt lat="39.68473864864469" lon="15.871494936571201"><ele>275.25</ele><time>2026-04-26T15:06:28Z</time></trkpt><trkpt lat="39.68485983913103" lon="15.871570718275144"><ele>274.0</ele><time>2026-04-26T15:06:29Z</time></trkpt><trkpt lat="39.68495116904214" lon="15.871664612098208"><ele>279.25</ele><time>2026-04-26T15:06:30Z</time></trkpt><trkpt lat="39.68502114131458" lon="15.871792854930339"><ele>284.5</ele><time>2026-04-26T15:06:31Z</time></trkpt><trkpt lat="39.685069886133846" lon="15.871931988807365"><ele>289.75</ele><time>2026-04-26T15:06:32Z</time></trkpt><trkpt lat="39.68511657569961" lon="15.872054303745212"><ele>295.0</ele><time>2026-04-26T15:06:33Z</time></trkpt><trkpt lat="39.68521262148473" lon="15.872151863500234"><ele>292.5</ele><time>2026-04-26T15:06:34Z</time></trkpt><trkpt lat="39.68532894524206" lon="15.872211979893038"><ele>290.0</ele><time>2026-04-26T15:06:35Z</time></trkpt><trkpt lat="39.685451258201745" lon="15.872255990643785"><ele>287.5</ele><time>2026-04-26T15:06:36Z</time></trkpt><trkpt lat="39.685579323748634" lon="15.872315224689315"><ele>285.0</ele><time>2026-04-26T15:06:37Z</time></trkpt><trkpt lat="39.68569061711755" lon="15.872401298113006"><ele>285.0</ele><time>2026-04-26T15:06:38Z</time></trkpt><trkpt lat="39.685783311940106" lon="15.872522887183916"><ele>285.0</ele><time>2026-04-26T15:06:39Z</time></trkpt><trkpt lat="39.6858671702945" lon="15.872632465061232"><ele>285.0</ele><time>2026-04-26T15:06:39.999Z</time></trkpt><trkpt lat="39.685963325937074" lon="15.872713807457567"><ele>285.0</ele><time>2026-04-26T15:06:40.999Z</time></trkpt><trkpt lat="39.686063294448196" lon="15.87275666896807"><ele>286.0</ele><time>2026-04-26T15:06:41.999Z</time></trkpt><trkpt lat="39.68616363213315" lon="15.872799977284249"><ele>287.0</ele><time>2026-04-26T15:06:42.999Z</time></trkpt><trkpt lat="39.6862597060467" lon="15.872908472929332"><ele>288.0</ele><time>2026-04-26T15:06:43.999Z</time></trkpt><trkpt lat="39.686346654504526" lon="15.873060893577543"><ele>289.0</ele><time>2026-04-26T15:06:44.999Z</time></trkpt><trkpt lat="39.686412753365325" lon="15.873219911630843"><ele>289.0</ele><time>2026-04-26T15:06:45.999Z</time></trkpt><trkpt lat="39.68647485533364" lon="15.873369341666704"><ele>289.0</ele><time>2026-04-26T15:06:46.999Z</time></trkpt><trkpt lat="39.68648719136156" lon="15.87357766558289"><ele>289.0</ele><time>2026-04-26T15:06:47.999Z</time></trkpt><trkpt lat="39.68650157661858" lon="15.873812042051238"><ele>293.0</ele><time>2026-04-26T15:06:48.999Z</time></trkpt><trkpt lat="39.68656469724512" lon="15.874050794032904"><ele>297.0</ele><time>2026-04-26T15:06:49.999Z</time></trkpt><trkpt lat="39.68667686002339" lon="15.874295114629364"><ele>301.0</ele><time>2026-04-26T15:06:50.999Z</time></trkpt><trkpt lat="39.68679961502737" lon="15.874554870895377"><ele>302.66666666666663</ele><time>2026-04-26T15:06:51.999Z</time></trkpt><trkpt lat="39.68689196113239" lon="15.874804609915458"><ele>304.3333333333333</ele><time>2026-04-26T15:06:52.999Z</time></trkpt><trkpt lat="39.686957308572595" lon="15.875032433006465"><ele>306.0</ele><time>2026-04-26T15:06:53.999Z</time></trkpt><trkpt lat="39.68703433335628" lon="15.875243136538286"><ele>306.0</ele><time>2026-04-26T15:06:54.999Z</time></trkpt><trkpt lat="39.68713880870419" lon="15.875445671558058"><ele>306.0</ele><time>2026-04-26T15:06:55.999Z</time></trkpt><trkpt lat="39.68725358730216" lon="15.87563209034123"><ele>306.0</ele><time>2026-04-26T15:06:56.999Z</time></trkpt><trkpt lat="39.68735001262656" lon="15.87580890499946"><ele>307.75</ele><time>2026-04-26T15:06:57.999Z</time></trkpt><trkpt lat="39.687434327192676" lon="15.875975542091881"><ele>309.5</ele><time>2026-04-26T15:06:58.999Z</time></trkpt><trkpt lat="39.68751408629885" lon="15.876138336960667"><ele>311.25</ele><time>2026-04-26T15:06:59.999Z</time></trkpt><trkpt lat="39.687582600821116" lon="15.87628981668564"><ele>313.0</ele><time>2026-04-26T15:07:00.999Z</time></trkpt><trkpt lat="39.68763580862276" lon="15.876422812240905"><ele>313.0</ele><time>2026-04-26T15:07:01.999Z</time></trkpt><trkpt lat="39.687664878291294" lon="15.876522185619626"><ele>313.0</ele><time>2026-04-26T15:07:02.999Z</time></trkpt><trkpt lat="39.68766900783908" lon="15.876604916539687"><ele>313.0</ele><time>2026-04-26T15:07:03.999Z</time></trkpt><trkpt lat="39.687570143803356" lon="15.876665292981306"><ele>313.0</ele><time>2026-04-26T15:07:05.999Z</time></trkpt><trkpt lat="39.6874899861238" lon="15.876617482790838"><ele>313.0</ele><time>2026-04-26T15:07:06.999Z</time></trkpt><trkpt lat="39.68743816604112" lon="15.87651999901171"><ele>313.0</ele><time>2026-04-26T15:07:07.999Z</time></trkpt><trkpt lat="39.68744783450077" lon="15.876432880634699"><ele>313.0</ele><time>2026-04-26T15:07:08.999Z</time></trkpt><trkpt lat="39.68743093993989" lon="15.87633900921582"><ele>313.0</ele><time>2026-04-26T15:07:11.999Z</time></trkpt><trkpt lat="39.687390827166176" lon="15.876206088366613"><ele>313.0</ele><time>2026-04-26T15:07:17Z</time></trkpt><trkpt lat="39.687341258308805" lon="15.876085581279018"><ele>313.0</ele><time>2026-04-26T15:07:18Z</time></trkpt><trkpt lat="39.68724807114374" lon="15.87600793809396"><ele>313.0</ele><time>2026-04-26T15:07:19Z</time></trkpt><trkpt lat="39.687125608990186" lon="15.875971581656293"><ele>311.25</ele><time>2026-04-26T15:07:20Z</time></trkpt><trkpt lat="39.687024418419625" lon="15.875900257128531"><ele>309.5</ele><time>2026-04-26T15:07:21Z</time></trkpt><trkpt lat="39.68692308748057" lon="15.875817015119996"><ele>307.75</ele><time>2026-04-26T15:07:22Z</time></trkpt><trkpt lat="39.686829329215776" lon="15.875696095263947"><ele>306.0</ele><time>2026-04-26T15:07:23Z</time></trkpt><trkpt lat="39.68673417206936" lon="15.875597688170204"><ele>312.25</ele><time>2026-04-26T15:07:24Z</time></trkpt><trkpt lat="39.68664803497877" lon="15.87552396000919"><ele>318.5</ele><time>2026-04-26T15:07:25Z</time></trkpt><trkpt lat="39.686568978087536" lon="15.875415141622197"><ele>324.75</ele><time>2026-04-26T15:07:26Z</time></trkpt><trkpt lat="39.68649006119326" lon="15.87529158628846"><ele>331.0</ele><time>2026-04-26T15:07:27Z</time></trkpt><trkpt lat="39.68642204364958" lon="15.875163513260722"><ele>332.25</ele><time>2026-04-26T15:07:28Z</time></trkpt><trkpt lat="39.686356858163855" lon="15.875033798864704"><ele>333.5</ele><time>2026-04-26T15:07:29Z</time></trkpt><trkpt lat="39.686271705307036" lon="15.874919458877885"><ele>334.75</ele><time>2026-04-26T15:07:30Z</time></trkpt><trkpt lat="39.68616143516224" lon="15.874811301663291"><ele>336.0</ele><time>2026-04-26T15:07:31Z</time></trkpt><trkpt lat="39.686036289579036" lon="15.874691724939284"><ele>336.0</ele><time>2026-04-26T15:07:32Z</time></trkpt><trkpt lat="39.68590073403509" lon="15.874557343062667"><ele>336.0</ele><time>2026-04-26T15:07:33Z</time></trkpt><trkpt lat="39.68574557047404" lon="15.874398864864737"><ele>336.0</ele><time>2026-04-26T15:07:34Z</time></trkpt><trkpt lat="39.68558469586204" lon="15.874230717262485"><ele>337.6666666666667</ele><time>2026-04-26T15:07:35Z</time></trkpt><trkpt lat="39.68544199881614" lon="15.874086437702005"><ele>339.33333333333337</ele><time>2026-04-26T15:07:36Z</time></trkpt><trkpt lat="39.685312469888615" lon="15.87396761532122"><ele>341.0</ele><time>2026-04-26T15:07:37Z</time></trkpt><trkpt lat="39.68520320526702" lon="15.873866257587252"><ele>341.0</ele><time>2026-04-26T15:07:38Z</time></trkpt><trkpt lat="39.68509401980682" lon="15.873793792502013"><ele>341.0</ele><time>2026-04-26T15:07:39Z</time></trkpt><trkpt lat="39.684959106956015" lon="15.873770342429983"><ele>341.0</ele><time>2026-04-26T15:07:40Z</time></trkpt><trkpt lat="39.68480468235908" lon="15.873803603764811"><ele>341.0</ele><time>2026-04-26T15:07:41Z</time></trkpt><trkpt lat="39.68466139153639" lon="15.873882618936385"><ele>341.0</ele><time>2026-04-26T15:07:42Z</time></trkpt><trkpt lat="39.68454406734264" lon="15.873992022985307"><ele>341.0</ele><time>2026-04-26T15:07:43Z</time></trkpt><trkpt lat="39.684453852474036" lon="15.874149167967785"><ele>341.0</ele><time>2026-04-26T15:07:44Z</time></trkpt><trkpt lat="39.684407227150146" lon="15.874349616786128"><ele>344.33333333333337</ele><time>2026-04-26T15:07:45Z</time></trkpt><trkpt lat="39.68437989401325" lon="15.874579925794801"><ele>347.6666666666667</ele><time>2026-04-26T15:07:46Z</time></trkpt><trkpt lat="39.68435922375405" lon="15.874803819271275"><ele>351.0</ele><time>2026-04-26T15:07:47Z</time></trkpt><trkpt lat="39.68431449509834" lon="15.874988217365196"><ele>355.6666666666667</ele><time>2026-04-26T15:07:48Z</time></trkpt><trkpt lat="39.68424162113103" lon="15.875138613506735"><ele>360.33333333333337</ele><time>2026-04-26T15:07:49Z</time></trkpt><trkpt lat="39.68412009149057" lon="15.875255022246016"><ele>365.0</ele><time>2026-04-26T15:07:50Z</time></trkpt><trkpt lat="39.68396846436712" lon="15.875344294999874"><ele>365.0</ele><time>2026-04-26T15:07:51Z</time></trkpt><trkpt lat="39.68381164805405" lon="15.875424465279195"><ele>365.0</ele><time>2026-04-26T15:07:52Z</time></trkpt><trkpt lat="39.683692870145414" lon="15.875508305990097"><ele>365.0</ele><time>2026-04-26T15:07:53Z</time></trkpt><trkpt lat="39.68358066323389" lon="15.875531697413733"><ele>365.0</ele><time>2026-04-26T15:07:54Z</time></trkpt><trkpt lat="39.68343591493647" lon="15.875462065412375"><ele>365.0</ele><time>2026-04-26T15:07:55Z</time></trkpt><trkpt lat="39.68330094656673" lon="15.875360576065509"><ele>365.0</ele><time>2026-04-26T15:07:56Z</time></trkpt><trkpt lat="39.68315464524994" lon="15.875273964607176"><ele>365.0</ele><time>2026-04-26T15:07:57Z</time></trkpt><trkpt lat="39.682970506852875" lon="15.875254496067901"><ele>365.0</ele><time>2026-04-26T15:07:58Z</time></trkpt><trkpt lat="39.68277660792246" lon="15.875272298405596"><ele>365.0</ele><time>2026-04-26T15:07:59Z</time></trkpt><trkpt lat="39.682590187057265" lon="15.87530037354051"><ele>365.0</ele><time>2026-04-26T15:08:00Z</time></trkpt><trkpt lat="39.68242525567742" lon="15.875332030773954"><ele>368.0</ele><time>2026-04-26T15:08:01Z</time></trkpt><trkpt lat="39.68229064439631" lon="15.875331240471372"><ele>371.0</ele><time>2026-04-26T15:08:02Z</time></trkpt><trkpt lat="39.68216048338922" lon="15.875263489565825"><ele>374.0</ele><time>2026-04-26T15:08:03Z</time></trkpt><trkpt lat="39.68203031898652" lon="15.875136839770757"><ele>377.0</ele><time>2026-04-26T15:08:04Z</time></trkpt><trkpt lat="39.681889965565325" lon="15.874974297579714"><ele>377.0</ele><time>2026-04-26T15:08:05Z</time></trkpt><trkpt lat="39.68173383348864" lon="15.874830913202178"><ele>377.0</ele><time>2026-04-26T15:08:06Z</time></trkpt><trkpt lat="39.681576084382925" lon="15.874726304596848"><ele>377.0</ele><time>2026-04-26T15:08:07Z</time></trkpt><trkpt lat="39.68139027792118" lon="15.874655842211002"><ele>377.0</ele><time>2026-04-26T15:08:08Z</time></trkpt><trkpt lat="39.68118331518143" lon="15.874632898125721"><ele>377.0</ele><time>2026-04-26T15:08:09Z</time></trkpt><trkpt lat="39.68102685529682" lon="15.874558672518729"><ele>377.0</ele><time>2026-04-26T15:08:10Z</time></trkpt><trkpt lat="39.68091731105957" lon="15.874462707318653"><ele>378.20000000000005</ele><time>2026-04-26T15:08:11Z</time></trkpt><trkpt lat="39.68082720786886" lon="15.874412053450655"><ele>379.4</ele><time>2026-04-26T15:08:12Z</time></trkpt><trkpt lat="39.680737639002814" lon="15.874444122263583"><ele>380.6</ele><time>2026-04-26T15:08:13Z</time></trkpt><trkpt lat="39.68067941399465" lon="15.874554620609603"><ele>381.79999999999995</ele><time>2026-04-26T15:08:14Z</time></trkpt><trkpt lat="39.6806684012547" lon="15.87466632033222"><ele>383.0</ele><time>2026-04-26T15:08:15Z</time></trkpt><trkpt lat="39.68070851675508" lon="15.87476120369658"><ele>383.0</ele><time>2026-04-26T15:08:17Z</time></trkpt><trkpt lat="39.680792567451185" lon="15.874842148743525"><ele>383.0</ele><time>2026-04-26T15:08:19Z</time></trkpt><trkpt lat="39.68090275628374" lon="15.8748932863245"><ele>383.0</ele><time>2026-04-26T15:08:20Z</time></trkpt><trkpt lat="39.681024479039785" lon="15.87493211919052"><ele>383.0</ele><time>2026-04-26T15:08:21Z</time></trkpt><trkpt lat="39.681149897843945" lon="15.874972182856846"><ele>382.0</ele><time>2026-04-26T15:08:22Z</time></trkpt><trkpt lat="39.6812697101816" lon="15.875020277249337"><ele>381.0</ele><time>2026-04-26T15:08:23Z</time></trkpt><trkpt lat="39.68135813846359" lon="15.875062801055808"><ele>380.0</ele><time>2026-04-26T15:08:24Z</time></trkpt><trkpt lat="39.681432561944135" lon="15.875114381014514"><ele>379.0</ele><time>2026-04-26T15:08:25Z</time></trkpt><trkpt lat="39.68148363625605" lon="15.875192600331403"><ele>378.0</ele><time>2026-04-26T15:08:26Z</time></trkpt><trkpt lat="39.681536819305286" lon="15.87524069276236"><ele>377.0</ele><time>2026-04-26T15:08:27Z</time></trkpt><trkpt lat="39.681580449310644" lon="15.875316735531785"><ele>377.0</ele><time>2026-04-26T15:08:29Z</time></trkpt><trkpt lat="39.681503412346174" lon="15.87514458361835"><ele>377.0</ele><time>2026-04-26T15:08:37Z</time></trkpt><trkpt lat="39.681366946555606" lon="15.875049327369231"><ele>377.0</ele><time>2026-04-26T15:08:38Z</time></trkpt><trkpt lat="39.68122201407584" lon="15.874978852897486"><ele>378.5</ele><time>2026-04-26T15:08:39Z</time></trkpt><trkpt lat="39.681096141784856" lon="15.87493614983962"><ele>380.0</ele><time>2026-04-26T15:08:40Z</time></trkpt><trkpt lat="39.680988116217115" lon="15.874893516639082"><ele>381.5</ele><time>2026-04-26T15:08:40.999Z</time></trkpt><trkpt lat="39.68088583086961" lon="15.874847851884194"><ele>383.0</ele><time>2026-04-26T15:08:41.999Z</time></trkpt><trkpt lat="39.680792072354606" lon="15.874802811447074"><ele>383.0</ele><time>2026-04-26T15:08:42.999Z</time></trkpt><trkpt lat="39.680719704545744" lon="15.874759814686996"><ele>383.0</ele><time>2026-04-26T15:08:43.999Z</time></trkpt><trkpt lat="39.680625271169006" lon="15.874781141928713"><ele>383.0</ele><time>2026-04-26T15:08:45.999Z</time></trkpt><trkpt lat="39.680577954239006" lon="15.87486587885765"><ele>383.0</ele><time>2026-04-26T15:08:46.999Z</time></trkpt><trkpt lat="39.6804930717577" lon="15.8749339638412"><ele>383.0</ele><time>2026-04-26T15:08:47.999Z</time></trkpt><trkpt lat="39.6804539803729" lon="15.875012968612236"><ele>383.0</ele><time>2026-04-26T15:08:48.999Z</time></trkpt><trkpt lat="39.68041354791406" lon="15.875090868929536"><ele>386.0</ele><time>2026-04-26T15:08:49.999Z</time></trkpt><trkpt lat="39.68037826795033" lon="15.875159544469177"><ele>389.0</ele><time>2026-04-26T15:08:50.999Z</time></trkpt><trkpt lat="39.68039030488608" lon="15.875252918672361"><ele>392.0</ele><time>2026-04-26T15:08:51.999Z</time></trkpt><trkpt lat="39.68041656131404" lon="15.875421111470258"><ele>395.0</ele><time>2026-04-26T15:08:53.999Z</time></trkpt><trkpt lat="39.68042796183479" lon="15.875516331820654"><ele>398.0</ele><time>2026-04-26T15:08:54.999Z</time></trkpt><trkpt lat="39.68040078566157" lon="15.875662590469803"><ele>398.0</ele><time>2026-04-26T15:08:56.999Z</time></trkpt><trkpt lat="39.680386294448816" lon="15.87574537649503"><ele>398.0</ele><time>2026-04-26T15:08:57.999Z</time></trkpt><trkpt lat="39.68034374527505" lon="15.87585592480804"><ele>398.0</ele><time>2026-04-26T15:08:58.999Z</time></trkpt><trkpt lat="39.6803011167887" lon="15.876004165242408"><ele>398.0</ele><time>2026-04-26T15:08:59.999Z</time></trkpt><trkpt lat="39.68025808233909" lon="15.876166480363583"><ele>398.0</ele><time>2026-04-26T15:09:00.999Z</time></trkpt><trkpt lat="39.680209500894584" lon="15.876322154565216"><ele>398.66666666666663</ele><time>2026-04-26T15:09:01.999Z</time></trkpt><trkpt lat="39.68013870512511" lon="15.876471775054885"><ele>399.33333333333337</ele><time>2026-04-26T15:09:02.999Z</time></trkpt><trkpt lat="39.68003047902636" lon="15.87663519142074"><ele>400.0</ele><time>2026-04-26T15:09:03.999Z</time></trkpt><trkpt lat="39.67993662713808" lon="15.876802403214334"><ele>403.8</ele><time>2026-04-26T15:09:04.999Z</time></trkpt><trkpt lat="39.67986729175557" lon="15.876947358639951"><ele>407.6</ele><time>2026-04-26T15:09:05.999Z</time></trkpt><trkpt lat="39.67979308373078" lon="15.877039176256947"><ele>411.4</ele><time>2026-04-26T15:09:06.999Z</time></trkpt><trkpt lat="39.67970669264701" lon="15.87710242483601"><ele>415.2</ele><time>2026-04-26T15:09:07.999Z</time></trkpt><trkpt lat="39.67962916346342" lon="15.877141352685271"><ele>419.0</ele><time>2026-04-26T15:09:08.999Z</time></trkpt><trkpt lat="39.67956660387859" lon="15.877097636224834"><ele>419.0</ele><time>2026-04-26T15:09:09.999Z</time></trkpt><trkpt lat="39.67948314771662" lon="15.876923215442083"><ele>419.0</ele><time>2026-04-26T15:09:11.999Z</time></trkpt><trkpt lat="39.679399749408276" lon="15.87679648597079"><ele>419.0</ele><time>2026-04-26T15:09:12.999Z</time></trkpt><trkpt lat="39.67928851655349" lon="15.876676755914293"><ele>419.0</ele><time>2026-04-26T15:09:13.999Z</time></trkpt><trkpt lat="39.67917423989041" lon="15.876571823654096"><ele>417.6</ele><time>2026-04-26T15:09:14.999Z</time></trkpt><trkpt lat="39.6790935192666" lon="15.876478742151798"><ele>416.2</ele><time>2026-04-26T15:09:15.999Z</time></trkpt><trkpt lat="39.679059401238995" lon="15.876364700338861"><ele>414.8</ele><time>2026-04-26T15:09:16.999Z</time></trkpt><trkpt lat="39.6790455439698" lon="15.876230695933822"><ele>413.40000000000003</ele><time>2026-04-26T15:09:17.999Z</time></trkpt><trkpt lat="39.67904664254192" lon="15.876066802598306"><ele>412.0</ele><time>2026-04-26T15:09:18.999Z</time></trkpt><trkpt lat="39.67904482368854" lon="15.875876678279022"><ele>409.25</ele><time>2026-04-26T15:09:19.999Z</time></trkpt><trkpt lat="39.67903493740946" lon="15.875723838192835"><ele>406.5</ele><time>2026-04-26T15:09:21Z</time></trkpt><trkpt lat="39.67901955309085" lon="15.875630828864088"><ele>403.75</ele><time>2026-04-26T15:09:22Z</time></trkpt><trkpt lat="39.67884777394816" lon="15.8754847523932"><ele>401.0</ele><time>2026-04-26T15:09:33Z</time></trkpt><trkpt lat="39.67873086979987" lon="15.875455284111528"><ele>401.0</ele><time>2026-04-26T15:09:34Z</time></trkpt><trkpt lat="39.67862964211903" lon="15.875458210428945"><ele>401.0</ele><time>2026-04-26T15:09:35Z</time></trkpt><trkpt lat="39.6785562894468" lon="15.875463459191279"><ele>401.0</ele><time>2026-04-26T15:09:36Z</time></trkpt><trkpt lat="39.67847772828953" lon="15.875505957974992"><ele>401.0</ele><time>2026-04-26T15:09:37Z</time></trkpt><trkpt lat="39.67836890768308" lon="15.87558638243415"><ele>401.0</ele><time>2026-04-26T15:09:38Z</time></trkpt><trkpt lat="39.67824867914757" lon="15.87572166862273"><ele>403.3333333333333</ele><time>2026-04-26T15:09:39Z</time></trkpt><trkpt lat="39.6781138504188" lon="15.87585554575746"><ele>405.66666666666663</ele><time>2026-04-26T15:09:40Z</time></trkpt><trkpt lat="39.67796568012445" lon="15.875974646715212"><ele>408.0</ele><time>2026-04-26T15:09:41Z</time></trkpt><trkpt lat="39.67784373798876" lon="15.876087818313364"><ele>409.2</ele><time>2026-04-26T15:09:42Z</time></trkpt><trkpt lat="39.67774026817773" lon="15.876181433884856"><ele>410.4</ele><time>2026-04-26T15:09:43Z</time></trkpt><trkpt lat="39.67765214002908" lon="15.876254946476044"><ele>411.59999999999997</ele><time>2026-04-26T15:09:44Z</time></trkpt><trkpt lat="39.6775824314993" lon="15.876310185020031"><ele>412.79999999999995</ele><time>2026-04-26T15:09:45Z</time></trkpt><trkpt lat="39.6774936954833" lon="15.876321037736883"><ele>414.0</ele><time>2026-04-26T15:09:47Z</time></trkpt><trkpt lat="39.677411512590396" lon="15.876265662930024"><ele>414.0</ele><time>2026-04-26T15:09:49Z</time></trkpt><trkpt lat="39.67734486842211" lon="15.876204921849126"><ele>414.0</ele><time>2026-04-26T15:09:50Z</time></trkpt><trkpt lat="39.67729805267286" lon="15.876082936812598"><ele>414.0</ele><time>2026-04-26T15:09:51Z</time></trkpt><trkpt lat="39.67724434539014" lon="15.875930094517862"><ele>414.0</ele><time>2026-04-26T15:09:52Z</time></trkpt><trkpt lat="39.67720517182521" lon="15.875777624921518"><ele>414.0</ele><time>2026-04-26T15:09:53Z</time></trkpt><trkpt lat="39.677166423922735" lon="15.87563775135892"><ele>413.0</ele><time>2026-04-26T15:09:54Z</time></trkpt><trkpt lat="39.67712590319092" lon="15.875521217734404"><ele>412.0</ele><time>2026-04-26T15:09:55Z</time></trkpt><trkpt lat="39.677115843383625" lon="15.87543370376947"><ele>411.0</ele><time>2026-04-26T15:09:56Z</time></trkpt><trkpt lat="39.67700308656183" lon="15.875318283872335"><ele>410.0</ele><time>2026-04-26T15:09:58Z</time></trkpt><trkpt lat="39.67685869359508" lon="15.87525208059226"><ele>410.0</ele><time>2026-04-26T15:09:59Z</time></trkpt><trkpt lat="39.67672510825005" lon="15.875178132723754"><ele>410.0</ele><time>2026-04-26T15:10:00Z</time></trkpt><trkpt lat="39.67662741754305" lon="15.875133441111476"><ele>410.0</ele><time>2026-04-26T15:10:01Z</time></trkpt><trkpt lat="39.67654313940476" lon="15.875120289772214"><ele>410.0</ele><time>2026-04-26T15:10:02Z</time></trkpt><trkpt lat="39.67644398660378" lon="15.875158159625443"><ele>410.0</ele><time>2026-04-26T15:10:03Z</time></trkpt><trkpt lat="39.676338355723246" lon="15.875245767404097"><ele>410.0</ele><time>2026-04-26T15:10:04Z</time></trkpt><trkpt lat="39.67626308827248" lon="15.875365483048897"><ele>410.0</ele><time>2026-04-26T15:10:05Z</time></trkpt><trkpt lat="39.67618098180858" lon="15.875415518401624"><ele>410.0</ele><time>2026-04-26T15:10:06Z</time></trkpt><trkpt lat="39.67609515918988" lon="15.87541593554308"><ele>410.0</ele><time>2026-04-26T15:10:07Z</time></trkpt><trkpt lat="39.67597709158039" lon="15.875428892773419"><ele>410.0</ele><time>2026-04-26T15:10:08Z</time></trkpt><trkpt lat="39.6758563166046" lon="15.875430086002646"><ele>411.2</ele><time>2026-04-26T15:10:09Z</time></trkpt><trkpt lat="39.67574433778103" lon="15.875481166453561"><ele>412.4</ele><time>2026-04-26T15:10:10Z</time></trkpt><trkpt lat="39.67560600265151" lon="15.875514152831864"><ele>413.6</ele><time>2026-04-26T15:10:11Z</time></trkpt><trkpt lat="39.675506915842575" lon="15.875522473599352"><ele>414.8</ele><time>2026-04-26T15:10:12Z</time></trkpt><trkpt lat="39.67541930964477" lon="15.875526641093419"><ele>416.0</ele><time>2026-04-26T15:10:13Z</time></trkpt><trkpt lat="39.675304257910774" lon="15.875522664082986"><ele>420.0</ele><time>2026-04-26T15:10:14Z</time></trkpt><trkpt lat="39.67515605235982" lon="15.875512160470421"><ele>424.0</ele><time>2026-04-26T15:10:15Z</time></trkpt><trkpt lat="39.67500567974939" lon="15.875471768123395"><ele>428.0</ele><time>2026-04-26T15:10:16Z</time></trkpt><trkpt lat="39.674858475193005" lon="15.875457536997915"><ele>428.0</ele><time>2026-04-26T15:10:17Z</time></trkpt><trkpt lat="39.67470750932809" lon="15.875465196950634"><ele>428.0</ele><time>2026-04-26T15:10:18Z</time></trkpt><trkpt lat="39.674582833430016" lon="15.875471976771983"><ele>428.0</ele><time>2026-04-26T15:10:19Z</time></trkpt><trkpt lat="39.67449653395077" lon="15.875492140400931"><ele>428.0</ele><time>2026-04-26T15:10:20Z</time></trkpt><trkpt lat="39.674413509473915" lon="15.87552540276182"><ele>427.8333333333333</ele><time>2026-04-26T15:10:21Z</time></trkpt><trkpt lat="39.67431835596925" lon="15.875610382368453"><ele>427.66666666666663</ele><time>2026-04-26T15:10:22Z</time></trkpt><trkpt lat="39.67424931678374" lon="15.875693423400847"><ele>427.5</ele><time>2026-04-26T15:10:23Z</time></trkpt><trkpt lat="39.67420356133892" lon="15.875751616693323"><ele>427.33333333333337</ele><time>2026-04-26T15:10:24Z</time></trkpt><trkpt lat="39.67417596490275" lon="15.875829978702066"><ele>427.1666666666667</ele><time>2026-04-26T15:10:25Z</time></trkpt><trkpt lat="39.67415624721022" lon="15.875969414145324"><ele>427.0</ele><time>2026-04-26T15:10:26Z</time></trkpt><trkpt lat="39.67412303689018" lon="15.87613639751342"><ele>427.0</ele><time>2026-04-26T15:10:27Z</time></trkpt><trkpt lat="39.67408272579609" lon="15.876286897124515"><ele>427.00000000000006</ele><time>2026-04-26T15:10:28Z</time></trkpt><trkpt lat="39.67406001998808" lon="15.876423022506453"><ele>427.00000000000006</ele><time>2026-04-26T15:10:29Z</time></trkpt><trkpt lat="39.674060052355564" lon="15.876551540970116"><ele>427.0</ele><time>2026-04-26T15:10:30Z</time></trkpt><trkpt lat="39.67408328967006" lon="15.876683337098893"><ele>427.0</ele><time>2026-04-26T15:10:31Z</time></trkpt><trkpt lat="39.674104500533595" lon="15.876816596829824"><ele>428.75</ele><time>2026-04-26T15:10:32Z</time></trkpt><trkpt lat="39.67409847988058" lon="15.87695653053552"><ele>430.5</ele><time>2026-04-26T15:10:33Z</time></trkpt><trkpt lat="39.674062602138385" lon="15.877121795982836"><ele>432.25</ele><time>2026-04-26T15:10:34Z</time></trkpt><trkpt lat="39.673994695604705" lon="15.877301472335947"><ele>434.0</ele><time>2026-04-26T15:10:35Z</time></trkpt><trkpt lat="39.6739221405615" lon="15.877486681047715"><ele>434.25</ele><time>2026-04-26T15:10:36Z</time></trkpt><trkpt lat="39.67385900932397" lon="15.877638956415817"><ele>434.5</ele><time>2026-04-26T15:10:37Z</time></trkpt><trkpt lat="39.67379040853089" lon="15.877758583702631"><ele>434.75</ele><time>2026-04-26T15:10:38Z</time></trkpt><trkpt lat="39.673699112605085" lon="15.87786703511052"><ele>435.0</ele><time>2026-04-26T15:10:39Z</time></trkpt><trkpt lat="39.673569376766864" lon="15.877981235350724"><ele>435.0</ele><time>2026-04-26T15:10:40Z</time></trkpt><trkpt lat="39.67343552865022" lon="15.878092245951592"><ele>435.0</ele><time>2026-04-26T15:10:41Z</time></trkpt><trkpt lat="39.673311683295545" lon="15.878196749647906"><ele>435.0</ele><time>2026-04-26T15:10:42Z</time></trkpt><trkpt lat="39.67318425387731" lon="15.87829254316955"><ele>435.0</ele><time>2026-04-26T15:10:42.999Z</time></trkpt><trkpt lat="39.67303661345988" lon="15.878348445891897"><ele>435.0</ele><time>2026-04-26T15:10:43.999Z</time></trkpt><trkpt lat="39.67289837420469" lon="15.878433079143168"><ele>435.0</ele><time>2026-04-26T15:10:44.999Z</time></trkpt><trkpt lat="39.672786191800995" lon="15.878449398154276"><ele>435.0</ele><time>2026-04-26T15:10:45.999Z</time></trkpt><trkpt lat="39.672697450481714" lon="15.878486130635"><ele>437.0</ele><time>2026-04-26T15:10:46.999Z</time></trkpt><trkpt lat="39.67263318481636" lon="15.878566622104708"><ele>439.0</ele><time>2026-04-26T15:10:47.999Z</time></trkpt><trkpt lat="39.67263230077524" lon="15.878715292821528"><ele>441.0</ele><time>2026-04-26T15:10:48.999Z</time></trkpt><trkpt lat="39.67265682310777" lon="15.878858450898232"><ele>443.0</ele><time>2026-04-26T15:10:49.999Z</time></trkpt><trkpt lat="39.67271033264506" lon="15.879002943943668"><ele>445.0</ele><time>2026-04-26T15:10:50.999Z</time></trkpt><trkpt lat="39.67274478213289" lon="15.879114488890547"><ele>445.0</ele><time>2026-04-26T15:10:51.999Z</time></trkpt><trkpt lat="39.672704236423286" lon="15.879227522923378"><ele>445.0</ele><time>2026-04-26T15:10:53.999Z</time></trkpt><trkpt lat="39.67260981695846" lon="15.879233308373392"><ele>445.0</ele><time>2026-04-26T15:10:54.999Z</time></trkpt><trkpt lat="39.67250691951834" lon="15.879200373007539"><ele>445.0</ele><time>2026-04-26T15:10:55.999Z</time></trkpt><trkpt lat="39.672382083729595" lon="15.87914311835871"><ele>445.0</ele><time>2026-04-26T15:10:56.999Z</time></trkpt><trkpt lat="39.672239010333584" lon="15.879083060582905"><ele>445.0</ele><time>2026-04-26T15:10:57.999Z</time></trkpt><trkpt lat="39.67209949042701" lon="15.879075005877555"><ele>445.0</ele><time>2026-04-26T15:10:58.999Z</time></trkpt><trkpt lat="39.671986332740445" lon="15.879061785407"><ele>445.0</ele><time>2026-04-26T15:10:59.999Z</time></trkpt><trkpt lat="39.671906979447854" lon="15.87901747473752"><ele>445.0</ele><time>2026-04-26T15:11:00.999Z</time></trkpt><trkpt lat="39.67186167595789" lon="15.878941449505058"><ele>445.0</ele><time>2026-04-26T15:11:01.999Z</time></trkpt><trkpt lat="39.671798120931776" lon="15.878832901630195"><ele>447.8</ele><time>2026-04-26T15:11:02.999Z</time></trkpt><trkpt lat="39.671729551282574" lon="15.87876085780165"><ele>450.6</ele><time>2026-04-26T15:11:03.999Z</time></trkpt><trkpt lat="39.67166787806617" lon="15.878710530010093"><ele>453.4</ele><time>2026-04-26T15:11:04.999Z</time></trkpt><trkpt lat="39.67157397699642" lon="15.878672014738282"><ele>456.2</ele><time>2026-04-26T15:11:05.999Z</time></trkpt><trkpt lat="39.671438974563564" lon="15.878732789958839"><ele>459.0</ele><time>2026-04-26T15:11:06.999Z</time></trkpt><trkpt lat="39.67130318732131" lon="15.87879702946684"><ele>459.0</ele><time>2026-04-26T15:11:07.999Z</time></trkpt><trkpt lat="39.6711836984591" lon="15.878819924982226"><ele>459.0</ele><time>2026-04-26T15:11:08.999Z</time></trkpt><trkpt lat="39.671065287340475" lon="15.878806635170328"><ele>459.0</ele><time>2026-04-26T15:11:09.999Z</time></trkpt><trkpt lat="39.67091967237662" lon="15.878771536033506"><ele>459.0</ele><time>2026-04-26T15:11:10.999Z</time></trkpt><trkpt lat="39.67078036423071" lon="15.878710934378379"><ele>457.75</ele><time>2026-04-26T15:11:11.999Z</time></trkpt><trkpt lat="39.670661713941556" lon="15.878635836163742"><ele>456.5</ele><time>2026-04-26T15:11:12.999Z</time></trkpt><trkpt lat="39.6705506202211" lon="15.878542310366985"><ele>455.25</ele><time>2026-04-26T15:11:13.999Z</time></trkpt><trkpt lat="39.67043724755024" lon="15.878409054721006"><ele>454.0</ele><time>2026-04-26T15:11:14.999Z</time></trkpt><trkpt lat="39.670337670980544" lon="15.878263832383956"><ele>456.0</ele><time>2026-04-26T15:11:15.999Z</time></trkpt><trkpt lat="39.67026809353379" lon="15.878138626106525"><ele>458.0</ele><time>2026-04-26T15:11:16.999Z</time></trkpt><trkpt lat="39.6701959615365" lon="15.878046174965268"><ele>460.0</ele><time>2026-04-26T15:11:17.999Z</time></trkpt><trkpt lat="39.67012550576112" lon="15.877980957486377"><ele>462.0</ele><time>2026-04-26T15:11:18.999Z</time></trkpt><trkpt lat="39.670047606139846" lon="15.877978598870476"><ele>464.0</ele><time>2026-04-26T15:11:19.999Z</time></trkpt><trkpt lat="39.66996763137543" lon="15.878043876254212"><ele>464.0</ele><time>2026-04-26T15:11:20.999Z</time></trkpt><trkpt lat="39.66985386653801" lon="15.878064216343"><ele>464.0</ele><time>2026-04-26T15:11:21.999Z</time></trkpt><trkpt lat="39.66972239141704" lon="15.878083966843187"><ele>464.0</ele><time>2026-04-26T15:11:22.999Z</time></trkpt><trkpt lat="39.66956229067772" lon="15.878056814819278"><ele>464.0</ele><time>2026-04-26T15:11:23.999Z</time></trkpt><trkpt lat="39.66938916683383" lon="15.878016062766612"><ele>464.0</ele><time>2026-04-26T15:11:24.999Z</time></trkpt><trkpt lat="39.66920786206192" lon="15.877966139640021"><ele>464.0</ele><time>2026-04-26T15:11:25.999Z</time></trkpt><trkpt lat="39.66902934848109" lon="15.877907733351753"><ele>464.0</ele><time>2026-04-26T15:11:27Z</time></trkpt><trkpt lat="39.66886402566433" lon="15.8778512213864"><ele>464.0</ele><time>2026-04-26T15:11:28Z</time></trkpt><trkpt lat="39.668707170949105" lon="15.877797167285173"><ele>464.0</ele><time>2026-04-26T15:11:29Z</time></trkpt><trkpt lat="39.66852488153779" lon="15.877742153529503"><ele>464.0</ele><time>2026-04-26T15:11:30Z</time></trkpt><trkpt lat="39.66839197718619" lon="15.877760281896597"><ele>466.4</ele><time>2026-04-26T15:11:31Z</time></trkpt><trkpt lat="39.66832547321261" lon="15.87774308478735"><ele>468.79999999999995</ele><time>2026-04-26T15:11:32Z</time></trkpt><trkpt lat="39.668222796235014" lon="15.87778888359184"><ele>471.20000000000005</ele><time>2026-04-26T15:11:34Z</time></trkpt><trkpt lat="39.668154285939195" lon="15.87781485110297"><ele>473.6</ele><time>2026-04-26T15:11:35Z</time></trkpt><trkpt lat="39.6680475316013" lon="15.877738715570946"><ele>476.0</ele><time>2026-04-26T15:11:36Z</time></trkpt><trkpt lat="39.667941193868444" lon="15.877756715124377"><ele>476.0</ele><time>2026-04-26T15:11:37Z</time></trkpt><trkpt lat="39.66783381755708" lon="15.87779755799139"><ele>476.0</ele><time>2026-04-26T15:11:38Z</time></trkpt><trkpt lat="39.6677248552154" lon="15.877853201044834"><ele>476.0</ele><time>2026-04-26T15:11:39Z</time></trkpt><trkpt lat="39.66760183702965" lon="15.877884041654118"><ele>476.0</ele><time>2026-04-26T15:11:40Z</time></trkpt><trkpt lat="39.667479492847036" lon="15.877889849231515"><ele>477.75</ele><time>2026-04-26T15:11:41Z</time></trkpt><trkpt lat="39.667343149356064" lon="15.877886118808046"><ele>479.5</ele><time>2026-04-26T15:11:42Z</time></trkpt><trkpt lat="39.66720607626405" lon="15.877880221730782"><ele>481.25</ele><time>2026-04-26T15:11:43Z</time></trkpt><trkpt lat="39.667099001273044" lon="15.877876878581517"><ele>483.0</ele><time>2026-04-26T15:11:44Z</time></trkpt><trkpt lat="39.66702451996039" lon="15.877884605263231"><ele>483.0</ele><time>2026-04-26T15:11:45Z</time></trkpt><trkpt lat="39.66695607114955" lon="15.877911754607359"><ele>482.99999999999994</ele><time>2026-04-26T15:11:46Z</time></trkpt><trkpt lat="39.66689483548182" lon="15.8779682788382"><ele>482.99999999999994</ele><time>2026-04-26T15:11:47Z</time></trkpt><trkpt lat="39.66682545402363" lon="15.878042937778323"><ele>483.0</ele><time>2026-04-26T15:11:48Z</time></trkpt><trkpt lat="39.66674694807246" lon="15.878141296835604"><ele>483.0</ele><time>2026-04-26T15:11:49Z</time></trkpt><trkpt lat="39.66667908043087" lon="15.878247989006278"><ele>483.3333333333333</ele><time>2026-04-26T15:11:50Z</time></trkpt><trkpt lat="39.66662695495717" lon="15.878353381813822"><ele>483.66666666666663</ele><time>2026-04-26T15:11:51Z</time></trkpt><trkpt lat="39.66659269407143" lon="15.878468027765189"><ele>484.0</ele><time>2026-04-26T15:11:52Z</time></trkpt><trkpt lat="39.6665654306806" lon="15.878575341862295"><ele>484.3333333333333</ele><time>2026-04-26T15:11:53Z</time></trkpt><trkpt lat="39.66653799757973" lon="15.878662801884948"><ele>484.66666666666663</ele><time>2026-04-26T15:11:54Z</time></trkpt><trkpt lat="39.66646029795729" lon="15.878729892170313"><ele>485.0</ele><time>2026-04-26T15:11:56Z</time></trkpt><trkpt lat="39.666381596749076" lon="15.878698926482986"><ele>484.99999999999994</ele><time>2026-04-26T15:11:57Z</time></trkpt><trkpt lat="39.66630493337029" lon="15.878682256946723"><ele>485.0</ele><time>2026-04-26T15:11:58Z</time></trkpt><trkpt lat="39.66623233795921" lon="15.87870654034624"><ele>485.0</ele><time>2026-04-26T15:11:59Z</time></trkpt><trkpt lat="39.66616657633213" lon="15.878760479170428"><ele>485.0</ele><time>2026-04-26T15:12:00Z</time></trkpt><trkpt lat="39.666098871133286" lon="15.87881985981611"><ele>484.99999999999994</ele><time>2026-04-26T15:12:01Z</time></trkpt><trkpt lat="39.66602508507801" lon="15.878881665772571"><ele>485.0</ele><time>2026-04-26T15:12:02Z</time></trkpt><trkpt lat="39.66595928557908" lon="15.878947574050352"><ele>483.99999999999994</ele><time>2026-04-26T15:12:03Z</time></trkpt><trkpt lat="39.66591256339672" lon="15.879023931401639"><ele>483.0</ele><time>2026-04-26T15:12:04Z</time></trkpt><trkpt lat="39.66583405892995" lon="15.879096495665618"><ele>482.0</ele><time>2026-04-26T15:12:06Z</time></trkpt><trkpt lat="39.66576945292553" lon="15.879120667241208"><ele>481.0</ele><time>2026-04-26T15:12:08Z</time></trkpt><trkpt lat="39.66571027020028" lon="15.879052895711226"><ele>479.99999999999994</ele><time>2026-04-26T15:12:11Z</time></trkpt><trkpt lat="39.665719759808006" lon="15.87893293236818"><ele>479.0</ele><time>2026-04-26T15:12:13Z</time></trkpt><trkpt lat="39.66574262349875" lon="15.878840318235"><ele>479.0</ele><time>2026-04-26T15:12:14Z</time></trkpt><trkpt lat="39.665780376742866" lon="15.878737837486662"><ele>479.0</ele><time>2026-04-26T15:12:15Z</time></trkpt><trkpt lat="39.66581046607622" lon="15.878617433021853"><ele>479.0</ele><time>2026-04-26T15:12:16Z</time></trkpt><trkpt lat="39.66584061091993" lon="15.87846863011594"><ele>479.0</ele><time>2026-04-26T15:12:17Z</time></trkpt><trkpt lat="39.66588171127871" lon="15.87831814504588"><ele>479.0</ele><time>2026-04-26T15:12:18Z</time></trkpt><trkpt lat="39.66592323399336" lon="15.878167286183578"><ele>477.79999999999995</ele><time>2026-04-26T15:12:19Z</time></trkpt><trkpt lat="39.665972828878054" lon="15.878047155084078"><ele>476.59999999999997</ele><time>2026-04-26T15:12:20Z</time></trkpt><trkpt lat="39.66604574592532" lon="15.87795870874544"><ele>475.4</ele><time>2026-04-26T15:12:21Z</time></trkpt><trkpt lat="39.666090734089494" lon="15.877871092587657"><ele>474.2</ele><time>2026-04-26T15:12:22Z</time></trkpt><trkpt lat="39.66607357736817" lon="15.87769992360766"><ele>473.0</ele><time>2026-04-26T15:12:24Z</time></trkpt><trkpt lat="39.66602160818065" lon="15.877598555073186"><ele>473.0</ele><time>2026-04-26T15:12:25Z</time></trkpt><trkpt lat="39.66597886643742" lon="15.87746507646241"><ele>472.99999999999994</ele><time>2026-04-26T15:12:26Z</time></trkpt><trkpt lat="39.665977911774476" lon="15.877314913493068"><ele>472.99999999999994</ele><time>2026-04-26T15:12:27Z</time></trkpt><trkpt lat="39.66597700517641" lon="15.87719219483767"><ele>473.0</ele><time>2026-04-26T15:12:28Z</time></trkpt><trkpt lat="39.66599528958134" lon="15.877091103722577"><ele>473.0</ele><time>2026-04-26T15:12:29Z</time></trkpt><trkpt lat="39.66603801216813" lon="15.876948994096374"><ele>473.0</ele><time>2026-04-26T15:12:30Z</time></trkpt><trkpt lat="39.666077726138326" lon="15.876796095800538"><ele>472.99999999999994</ele><time>2026-04-26T15:12:31Z</time></trkpt><trkpt lat="39.66610196083521" lon="15.876655887543864"><ele>472.99999999999994</ele><time>2026-04-26T15:12:32Z</time></trkpt><trkpt lat="39.666113894463244" lon="15.876525799824531"><ele>473.0</ele><time>2026-04-26T15:12:33Z</time></trkpt><trkpt lat="39.66611283189128" lon="15.87641059267631"><ele>473.0</ele><time>2026-04-26T15:12:34Z</time></trkpt><trkpt lat="39.666106221518056" lon="15.876280061542575"><ele>468.3333333333333</ele><time>2026-04-26T15:12:35Z</time></trkpt><trkpt lat="39.666129281588745" lon="15.8762011926907"><ele>463.66666666666663</ele><time>2026-04-26T15:12:36Z</time></trkpt><trkpt lat="39.66616809166359" lon="15.876109732471352"><ele>459.0</ele><time>2026-04-26T15:12:37Z</time></trkpt><trkpt lat="39.66621636788789" lon="15.875999091635261"><ele>454.33333333333337</ele><time>2026-04-26T15:12:38Z</time></trkpt><trkpt lat="39.66625528637581" lon="15.875895946280016"><ele>449.6666666666667</ele><time>2026-04-26T15:12:39Z</time></trkpt><trkpt lat="39.6662934521881" lon="15.875801255300397"><ele>445.0</ele><time>2026-04-26T15:12:40Z</time></trkpt><trkpt lat="39.66633059374747" lon="15.875725070065043"><ele>445.0</ele><time>2026-04-26T15:12:41Z</time></trkpt><trkpt lat="39.66637876157025" lon="15.875667009621845"><ele>445.0</ele><time>2026-04-26T15:12:42Z</time></trkpt><trkpt lat="39.666449734316984" lon="15.875612564858177"><ele>445.0</ele><time>2026-04-26T15:12:43Z</time></trkpt><trkpt lat="39.66651405898105" lon="15.875532139147797"><ele>445.0</ele><time>2026-04-26T15:12:44Z</time></trkpt><trkpt lat="39.666559034450366" lon="15.87539972525992"><ele>445.0</ele><time>2026-04-26T15:12:45Z</time></trkpt><trkpt lat="39.66662437880682" lon="15.875240403229144"><ele>445.0</ele><time>2026-04-26T15:12:46Z</time></trkpt><trkpt lat="39.66670025825567" lon="15.875124161346797"><ele>445.0</ele><time>2026-04-26T15:12:46.999Z</time></trkpt><trkpt lat="39.666769183812306" lon="15.875015860238847"><ele>445.0</ele><time>2026-04-26T15:12:47.999Z</time></trkpt><trkpt lat="39.66683011714066" lon="15.874922219384047"><ele>445.0</ele><time>2026-04-26T15:12:48.999Z</time></trkpt><trkpt lat="39.66687238587683" lon="15.87482964801489"><ele>445.0</ele><time>2026-04-26T15:12:49.999Z</time></trkpt><trkpt lat="39.666888730432184" lon="15.874750264756706"><ele>447.1666666666667</ele><time>2026-04-26T15:12:50.999Z</time></trkpt><trkpt lat="39.66688634987281" lon="15.87463354891912"><ele>449.33333333333337</ele><time>2026-04-26T15:12:52.999Z</time></trkpt><trkpt lat="39.6668938485443" lon="15.874533743492721"><ele>451.5</ele><time>2026-04-26T15:12:53.999Z</time></trkpt><trkpt lat="39.66690978109246" lon="15.87440137025038"><ele>453.66666666666663</ele><time>2026-04-26T15:12:54.999Z</time></trkpt><trkpt lat="39.66691857546574" lon="15.87426879500652"><ele>455.8333333333333</ele><time>2026-04-26T15:12:55.999Z</time></trkpt><trkpt lat="39.666918164766976" lon="15.874184659491583"><ele>458.0</ele><time>2026-04-26T15:12:56.999Z</time></trkpt><trkpt lat="39.6669316802546" lon="15.873996500238587"><ele>453.4</ele><time>2026-04-26T15:12:58.999Z</time></trkpt><trkpt lat="39.66696978293744" lon="15.873894869054356"><ele>448.79999999999995</ele><time>2026-04-26T15:12:59.999Z</time></trkpt><trkpt lat="39.6670113008908" lon="15.87381894491775"><ele>444.2</ele><time>2026-04-26T15:13:00.999Z</time></trkpt><trkpt lat="39.6671002752827" lon="15.87374441866207"><ele>439.6</ele><time>2026-04-26T15:13:02.999Z</time></trkpt><trkpt lat="39.667249669634295" lon="15.873663929979553"><ele>435.0</ele><time>2026-04-26T15:13:04.999Z</time></trkpt><trkpt lat="39.66732840533696" lon="15.873626116397327"><ele>435.0</ele><time>2026-04-26T15:13:05.999Z</time></trkpt><trkpt lat="39.6673920175931" lon="15.873512243450195"><ele>435.0</ele><time>2026-04-26T15:13:07.999Z</time></trkpt><trkpt lat="39.667399233642605" lon="15.873414605022779"><ele>435.0</ele><time>2026-04-26T15:13:08.999Z</time></trkpt><trkpt lat="39.66738629260869" lon="15.873284693397506"><ele>435.0</ele><time>2026-04-26T15:13:09.999Z</time></trkpt><trkpt lat="39.66736923355507" lon="15.87316574787749"><ele>435.0</ele><time>2026-04-26T15:13:10.999Z</time></trkpt><trkpt lat="39.667351234070466" lon="15.873073215543238"><ele>436.75</ele><time>2026-04-26T15:13:11.999Z</time></trkpt><trkpt lat="39.66725029981156" lon="15.872905965104632"><ele>438.5</ele><time>2026-04-26T15:13:13.999Z</time></trkpt><trkpt lat="39.66720016530257" lon="15.872815336590673"><ele>440.25</ele><time>2026-04-26T15:13:14.999Z</time></trkpt><trkpt lat="39.667207600721" lon="15.872691214999834"><ele>442.0</ele><time>2026-04-26T15:13:16.999Z</time></trkpt><trkpt lat="39.667317410954425" lon="15.872601138900256"><ele>442.8</ele><time>2026-04-26T15:13:18.999Z</time></trkpt><trkpt lat="39.6673914674079" lon="15.87257218501719"><ele>443.6</ele><time>2026-04-26T15:13:19.999Z</time></trkpt><trkpt lat="39.66745938199747" lon="15.872525977786628"><ele>444.40000000000003</ele><time>2026-04-26T15:13:20.999Z</time></trkpt><trkpt lat="39.66753344814416" lon="15.87243791682871"><ele>445.20000000000005</ele><time>2026-04-26T15:13:21.999Z</time></trkpt><trkpt lat="39.66760864066935" lon="15.87232966429289"><ele>446.0</ele><time>2026-04-26T15:13:22.999Z</time></trkpt><trkpt lat="39.6676986466342" lon="15.872221284324295"><ele>445.99999999999994</ele><time>2026-04-26T15:13:23.999Z</time></trkpt><trkpt lat="39.66777633205482" lon="15.872137123609756"><ele>446.0</ele><time>2026-04-26T15:13:24.999Z</time></trkpt><trkpt lat="39.6678298882579" lon="15.87206720308267"><ele>446.0</ele><time>2026-04-26T15:13:25.999Z</time></trkpt><trkpt lat="39.66786712559818" lon="15.871990017687162"><ele>446.0</ele><time>2026-04-26T15:13:26.999Z</time></trkpt><trkpt lat="39.66789003345014" lon="15.871900176200123"><ele>445.99999999999994</ele><time>2026-04-26T15:13:27.999Z</time></trkpt><trkpt lat="39.667921062923625" lon="15.871759464555295"><ele>446.0</ele><time>2026-04-26T15:13:28.999Z</time></trkpt><trkpt lat="39.667955018621875" lon="15.871577948494354"><ele>443.4</ele><time>2026-04-26T15:13:29.999Z</time></trkpt><trkpt lat="39.66798734544798" lon="15.871436448020361"><ele>440.8</ele><time>2026-04-26T15:13:30.999Z</time></trkpt><trkpt lat="39.66798627807987" lon="15.871317414547887"><ele>438.19999999999993</ele><time>2026-04-26T15:13:31.999Z</time></trkpt><trkpt lat="39.6680158205422" lon="15.871226977305689"><ele>435.59999999999997</ele><time>2026-04-26T15:13:33Z</time></trkpt><trkpt lat="39.6680456276233" lon="15.871097738268789"><ele>433.0</ele><time>2026-04-26T15:13:34Z</time></trkpt><trkpt lat="39.668101941300144" lon="15.870931964935076"><ele>433.0</ele><time>2026-04-26T15:13:35Z</time></trkpt><trkpt lat="39.6681504066369" lon="15.870782840708843"><ele>432.99999999999994</ele><time>2026-04-26T15:13:36Z</time></trkpt><trkpt lat="39.668184347503505" lon="15.870644987166765"><ele>432.99999999999994</ele><time>2026-04-26T15:13:37Z</time></trkpt><trkpt lat="39.668211044589924" lon="15.870528658826688"><ele>433.0</ele><time>2026-04-26T15:13:38Z</time></trkpt><trkpt lat="39.66824725173846" lon="15.870426754248518"><ele>433.0</ele><time>2026-04-26T15:13:39Z</time></trkpt><trkpt lat="39.66829741836464" lon="15.870327771020438"><ele>433.00000000000006</ele><time>2026-04-26T15:13:40Z</time></trkpt><trkpt lat="39.66835605187901" lon="15.870230252203713"><ele>433.0</ele><time>2026-04-26T15:13:41Z</time></trkpt><trkpt lat="39.6684070489879" lon="15.870148566577337"><ele>433.0</ele><time>2026-04-26T15:13:42Z</time></trkpt><trkpt lat="39.668486344521206" lon="15.870109309584322"><ele>433.0</ele><time>2026-04-26T15:13:44Z</time></trkpt><trkpt lat="39.66855099215317" lon="15.87007182698601"><ele>433.00000000000006</ele><time>2026-04-26T15:13:45Z</time></trkpt><trkpt lat="39.66861189968002" lon="15.870003190447907"><ele>433.0</ele><time>2026-04-26T15:13:46Z</time></trkpt><trkpt lat="39.66864342250085" lon="15.869854289330721"><ele>428.75</ele><time>2026-04-26T15:13:47Z</time></trkpt><trkpt lat="39.668690994711746" lon="15.869700615593079"><ele>424.5</ele><time>2026-04-26T15:13:48Z</time></trkpt><trkpt lat="39.668747019197085" lon="15.869559081174346"><ele>420.25</ele><time>2026-04-26T15:13:49Z</time></trkpt><trkpt lat="39.668805585854976" lon="15.869447874341377"><ele>416.0</ele><time>2026-04-26T15:13:50Z</time></trkpt><trkpt lat="39.668848744266995" lon="15.869332279270859"><ele>418.8</ele><time>2026-04-26T15:13:51Z</time></trkpt><trkpt lat="39.66887749026728" lon="15.869206151624203"><ele>421.6</ele><time>2026-04-26T15:13:52Z</time></trkpt><trkpt lat="39.668914716784315" lon="15.869076970355415"><ele>424.4</ele><time>2026-04-26T15:13:53Z</time></trkpt><trkpt lat="39.6689521899712" lon="15.868938068191074"><ele>427.2</ele><time>2026-04-26T15:13:54Z</time></trkpt><trkpt lat="39.66900184823602" lon="15.868797430841504"><ele>430.0</ele><time>2026-04-26T15:13:55Z</time></trkpt><trkpt lat="39.66906275119733" lon="15.868690539333263"><ele>430.00000000000006</ele><time>2026-04-26T15:13:56Z</time></trkpt><trkpt lat="39.66911146189007" lon="15.868596510852116"><ele>430.0</ele><time>2026-04-26T15:13:57Z</time></trkpt><trkpt lat="39.66910233888309" lon="15.868440489851347"><ele>430.0</ele><time>2026-04-26T15:13:59Z</time></trkpt><trkpt lat="39.66906501097724" lon="15.868351132887536"><ele>430.0</ele><time>2026-04-26T15:14:00Z</time></trkpt><trkpt lat="39.669019184776914" lon="15.868248592527728"><ele>430.00000000000006</ele><time>2026-04-26T15:14:01Z</time></trkpt><trkpt lat="39.66899161622667" lon="15.86816400137037"><ele>430.0</ele><time>2026-04-26T15:14:03Z</time></trkpt><trkpt lat="39.66906040676991" lon="15.868077878136148"><ele>431.6</ele><time>2026-04-26T15:14:05Z</time></trkpt><trkpt lat="39.6691127542038" lon="15.86800865153929"><ele>433.2</ele><time>2026-04-26T15:14:06Z</time></trkpt><trkpt lat="39.669171314622425" lon="15.867877397663582"><ele>434.79999999999995</ele><time>2026-04-26T15:14:07Z</time></trkpt><trkpt lat="39.669228137454795" lon="15.867740353037963"><ele>436.4</ele><time>2026-04-26T15:14:08Z</time></trkpt><trkpt lat="39.66928387861398" lon="15.867659679954592"><ele>438.0</ele><time>2026-04-26T15:14:09Z</time></trkpt><trkpt lat="39.66936041028187" lon="15.867598816484714"><ele>440.79999999999995</ele><time>2026-04-26T15:14:10Z</time></trkpt><trkpt lat="39.66941324523813" lon="15.867516900068683"><ele>443.59999999999997</ele><time>2026-04-26T15:14:11Z</time></trkpt><trkpt lat="39.66947767137884" lon="15.867434437895994"><ele>446.40000000000003</ele><time>2026-04-26T15:14:12Z</time></trkpt><trkpt lat="39.66954523902525" lon="15.867338357368242"><ele>449.20000000000005</ele><time>2026-04-26T15:14:13Z</time></trkpt><trkpt lat="39.669600942766806" lon="15.867244341208451"><ele>452.0</ele><time>2026-04-26T15:14:14Z</time></trkpt><trkpt lat="39.66965072394739" lon="15.867147429892539"><ele>446.6</ele><time>2026-04-26T15:14:15Z</time></trkpt><trkpt lat="39.66970761358576" lon="15.867022064243523"><ele>441.20000000000005</ele><time>2026-04-26T15:14:16Z</time></trkpt><trkpt lat="39.66977437766228" lon="15.866905964187753"><ele>435.8</ele><time>2026-04-26T15:14:17Z</time></trkpt><trkpt lat="39.66983449249287" lon="15.866803592314294"><ele>430.4</ele><time>2026-04-26T15:14:18Z</time></trkpt><trkpt lat="39.6698850748093" lon="15.866724291787357"><ele>425.0</ele><time>2026-04-26T15:14:19Z</time></trkpt><trkpt lat="39.66993427555016" lon="15.866640548313672"><ele>425.0</ele><time>2026-04-26T15:14:20Z</time></trkpt><trkpt lat="39.66996819627576" lon="15.866546615488724"><ele>425.0</ele><time>2026-04-26T15:14:21Z</time></trkpt><trkpt lat="39.66996933420628" lon="15.866464147039984"><ele>425.0</ele><time>2026-04-26T15:14:22Z</time></trkpt><trkpt lat="39.669864299745655" lon="15.866287262524532"><ele>425.0</ele><time>2026-04-26T15:15:13.999Z</time></trkpt><trkpt lat="39.669756329952364" lon="15.866212966695658"><ele>425.0</ele><time>2026-04-26T15:15:15.999Z</time></trkpt><trkpt lat="39.66971917021234" lon="15.866146020392607"><ele>425.0</ele><time>2026-04-26T15:15:17.999Z</time></trkpt><trkpt lat="39.66971586183112" lon="15.866006316061322"><ele>425.0</ele><time>2026-04-26T15:15:19.999Z</time></trkpt><trkpt lat="39.66971876038005" lon="15.865923319818855"><ele>425.0</ele><time>2026-04-26T15:15:20.999Z</time></trkpt><trkpt lat="39.6696946524411" lon="15.865819263983589"><ele>425.0</ele><time>2026-04-26T15:15:22.999Z</time></trkpt><trkpt lat="39.66968133812074" lon="15.865699041623037"><ele>425.0</ele><time>2026-04-26T15:15:24.999Z</time></trkpt><trkpt lat="39.66978283346159" lon="15.865594675930218"><ele>425.6</ele><time>2026-04-26T15:15:26.999Z</time></trkpt><trkpt lat="39.66983181218814" lon="15.865510214508852"><ele>426.2</ele><time>2026-04-26T15:15:29.999Z</time></trkpt><trkpt lat="39.66985245556086" lon="15.865356807624632"><ele>426.79999999999995</ele><time>2026-04-26T15:15:31.999Z</time></trkpt><trkpt lat="39.66984221868605" lon="15.865245725246726"><ele>427.4</ele><time>2026-04-26T15:15:33.999Z</time></trkpt><trkpt lat="39.66981667543291" lon="15.865072009475837"><ele>428.0</ele><time>2026-04-26T15:15:35.999Z</time></trkpt><trkpt lat="39.66980683226505" lon="15.86497595967757"><ele>428.66666666666663</ele><time>2026-04-26T15:15:36.999Z</time></trkpt><trkpt lat="39.66980300151677" lon="15.864875192495242"><ele>429.3333333333333</ele><time>2026-04-26T15:15:37.999Z</time></trkpt><trkpt lat="39.66979730948538" lon="15.864758988370706"><ele>430.0</ele><time>2026-04-26T15:15:39Z</time></trkpt><trkpt lat="39.669794103090254" lon="15.864649394685095"><ele>430.66666666666663</ele><time>2026-04-26T15:15:40Z</time></trkpt><trkpt lat="39.66978602839095" lon="15.864554499636148"><ele>431.3333333333333</ele><time>2026-04-26T15:15:41Z</time></trkpt><trkpt lat="39.669775270028204" lon="15.864458079195165"><ele>432.0</ele><time>2026-04-26T15:15:42Z</time></trkpt><trkpt lat="39.669754727437635" lon="15.864374886395526"><ele>432.0</ele><time>2026-04-26T15:15:43Z</time></trkpt><trkpt lat="39.66970261139737" lon="15.864301994962892"><ele>432.0</ele><time>2026-04-26T15:15:46Z</time></trkpt><trkpt lat="39.66964537944575" lon="15.864251752162849"><ele>432.0</ele><time>2026-04-26T15:15:49Z</time></trkpt><trkpt lat="39.66957831717988" lon="15.864239510660036"><ele>432.0</ele><time>2026-04-26T15:15:52Z</time></trkpt><trkpt lat="39.66933387910972" lon="15.864039119851313"><ele>436.5</ele><time>2026-04-26T15:15:54Z</time></trkpt><trkpt lat="39.66927518527237" lon="15.864122118404056"><ele>441.0</ele><time>2026-04-26T15:15:58Z</time></trkpt><trkpt lat="39.66928784010421" lon="15.864219339971385"><ele>445.5</ele><time>2026-04-26T15:16:00Z</time></trkpt><trkpt lat="39.6693023760765" lon="15.864335550362705"><ele>450.0</ele><time>2026-04-26T15:16:02Z</time></trkpt><trkpt lat="39.66931876789987" lon="15.864489829289054"><ele>454.5</ele><time>2026-04-26T15:16:04Z</time></trkpt><trkpt lat="39.66932727925804" lon="15.864583814484927"><ele>459.0</ele><time>2026-04-26T15:16:05Z</time></trkpt><trkpt lat="39.66931087190769" lon="15.86467612750302"><ele>459.0</ele><time>2026-04-26T15:16:07Z</time></trkpt><trkpt lat="39.66924398649259" lon="15.864699881019481"><ele>459.0</ele><time>2026-04-26T15:16:10Z</time></trkpt><trkpt lat="39.66923720554437" lon="15.864517110785552"><ele>459.0</ele><time>2026-04-26T15:16:13Z</time></trkpt><trkpt lat="39.66920932295734" lon="15.864418099210718"><ele>459.0</ele><time>2026-04-26T15:16:14Z</time></trkpt><trkpt lat="39.66913103550639" lon="15.864332157722915"><ele>459.0</ele><time>2026-04-26T15:16:16Z</time></trkpt><trkpt lat="39.669064497929824" lon="15.8643136906214"><ele>459.4</ele><time>2026-04-26T15:16:18Z</time></trkpt><trkpt lat="39.669014996690024" lon="15.864250774185047"><ele>459.79999999999995</ele><time>2026-04-26T15:16:19Z</time></trkpt><trkpt lat="39.66900793535775" lon="15.864089467542891"><ele>460.20000000000005</ele><time>2026-04-26T15:16:21Z</time></trkpt><trkpt lat="39.66902650764768" lon="15.863969716914143"><ele>460.6</ele><time>2026-04-26T15:16:22Z</time></trkpt><trkpt lat="39.669048554434305" lon="15.863860870021423"><ele>461.0</ele><time>2026-04-26T15:16:24Z</time></trkpt><trkpt lat="39.66913509963631" lon="15.863791199412738"><ele>460.99999999999994</ele><time>2026-04-26T15:16:26Z</time></trkpt><trkpt lat="39.66919822392527" lon="15.863757858018664"><ele>461.0</ele><time>2026-04-26T15:16:27Z</time></trkpt><trkpt lat="39.66927079016109" lon="15.863690003059089"><ele>461.0</ele><time>2026-04-26T15:16:28Z</time></trkpt><trkpt lat="39.66930906597776" lon="15.863598630322313"><ele>461.0</ele><time>2026-04-26T15:16:30Z</time></trkpt><trkpt lat="39.66929627996779" lon="15.863421448454094"><ele>460.99999999999994</ele><time>2026-04-26T15:16:32Z</time></trkpt><trkpt lat="39.66929523186812" lon="15.863331420337415"><ele>461.0</ele><time>2026-04-26T15:16:33Z</time></trkpt><trkpt lat="39.669224362918165" lon="15.863175196827841"><ele>462.4</ele><time>2026-04-26T15:16:35Z</time></trkpt><trkpt lat="39.66918938222473" lon="15.86306261563615"><ele>463.8</ele><time>2026-04-26T15:16:36Z</time></trkpt><trkpt lat="39.669163520181975" lon="15.862967162998613"><ele>465.19999999999993</ele><time>2026-04-26T15:16:37Z</time></trkpt><trkpt lat="39.669146284026695" lon="15.862879141028483"><ele>466.59999999999997</ele><time>2026-04-26T15:16:38Z</time></trkpt><trkpt lat="39.66906324350415" lon="15.862690816902207"><ele>468.0</ele><time>2026-04-26T15:19:55Z</time></trkpt><trkpt lat="39.66902200256833" lon="15.86275377950271"><ele>468.0</ele><time>2026-04-26T15:26:11Z</time></trkpt><trkpt lat="39.66897127619614" lon="15.862814877931312"><ele>468.00000000000006</ele><time>2026-04-26T15:26:19Z</time></trkpt><trkpt lat="39.668916664431286" lon="15.86285836262452"><ele>468.0</ele><time>2026-04-26T15:26:29Z</time></trkpt><trkpt lat="39.66885893991835" lon="15.862892027401227"><ele>468.0</ele><time>2026-04-26T15:26:39Z</time></trkpt><trkpt lat="39.668792514150454" lon="15.862921871505064"><ele>468.00000000000006</ele><time>2026-04-26T15:26:47Z</time></trkpt><trkpt lat="39.668726116858174" lon="15.86293280816704"><ele>468.0</ele><time>2026-04-26T15:26:57Z</time></trkpt><trkpt lat="39.668657976043015" lon="15.862940787524005"><ele>468.0</ele><time>2026-04-26T15:27:07Z</time></trkpt><trkpt lat="39.66872497589044" lon="15.86290451956098"><ele>468.0</ele><time>2026-04-26T15:27:40.999Z</time></trkpt><trkpt lat="39.668794922385736" lon="15.862894982054248"><ele>468.0</ele><time>2026-04-26T15:27:45.999Z</time></trkpt><trkpt lat="39.66886418546222" lon="15.862866024859944"><ele>468.0</ele><time>2026-04-26T15:27:50.999Z</time></trkpt><trkpt lat="39.668935220559014" lon="15.862830527629999"><ele>468.0</ele><time>2026-04-26T15:27:55.999Z</time></trkpt><trkpt lat="39.66898925523544" lon="15.862776579157977"><ele>468.0</ele><time>2026-04-26T15:28:00.999Z</time></trkpt><trkpt lat="39.66903531798772" lon="15.86271771650943"><ele>468.0</ele><time>2026-04-26T15:28:05.999Z</time></trkpt><trkpt lat="39.66915870272813" lon="15.86248431155874"><ele>469.2</ele><time>2026-04-26T15:29:35.999Z</time></trkpt><trkpt lat="39.669199464335435" lon="15.862404449957968"><ele>470.4</ele><time>2026-04-26T15:29:36.999Z</time></trkpt><trkpt lat="39.6692665618197" lon="15.862281869049557"><ele>471.59999999999997</ele><time>2026-04-26T15:29:38.999Z</time></trkpt><trkpt lat="39.66932148819565" lon="15.862135414162779"><ele>472.79999999999995</ele><time>2026-04-26T15:29:40.999Z</time></trkpt><trkpt lat="39.66936810520311" lon="15.862042751620978"><ele>474.0</ele><time>2026-04-26T15:29:42.999Z</time></trkpt><trkpt lat="39.66931389708897" lon="15.862138672318043"><ele>474.0</ele><time>2026-04-26T15:29:49.999Z</time></trkpt><trkpt lat="39.66928752640671" lon="15.862232219840479"><ele>474.0</ele><time>2026-04-26T15:29:51.999Z</time></trkpt><trkpt lat="39.66925268547646" lon="15.862310461706896"><ele>474.0</ele><time>2026-04-26T15:29:53.999Z</time></trkpt><trkpt lat="39.66917921476278" lon="15.862448799057107"><ele>474.0</ele><time>2026-04-26T15:29:55.999Z</time></trkpt><trkpt lat="39.669131729493685" lon="15.86253112563202"><ele>474.0</ele><time>2026-04-26T15:29:56.999Z</time></trkpt><trkpt lat="39.66909196564215" lon="15.862611755875355"><ele>474.0</ele><time>2026-04-26T15:29:57.999Z</time></trkpt><trkpt lat="39.6690208094999" lon="15.862745732955261"><ele>473.1428571428571</ele><time>2026-04-26T15:29:59.999Z</time></trkpt><trkpt lat="39.668978762803164" lon="15.862809168404388"><ele>472.2857142857143</ele><time>2026-04-26T15:30:00.999Z</time></trkpt><trkpt lat="39.668929923564576" lon="15.862861864792421"><ele>471.42857142857144</ele><time>2026-04-26T15:30:01.999Z</time></trkpt><trkpt lat="39.66885831530366" lon="15.8629000411231"><ele>470.57142857142856</ele><time>2026-04-26T15:30:02.999Z</time></trkpt><trkpt lat="39.668787403003634" lon="15.86292549528632"><ele>469.7142857142858</ele><time>2026-04-26T15:30:03.999Z</time></trkpt><trkpt lat="39.668716028399004" lon="15.862947356684463"><ele>468.8571428571429</ele><time>2026-04-26T15:30:04.999Z</time></trkpt><trkpt lat="39.668640061199355" lon="15.862952984697175"><ele>468.0</ele><time>2026-04-26T15:30:05.999Z</time></trkpt><trkpt lat="39.66852916452779" lon="15.862987726107763"><ele>468.0</ele><time>2026-04-26T15:30:07.999Z</time></trkpt><trkpt lat="39.668476395699656" lon="15.86305626120882"><ele>468.0</ele><time>2026-04-26T15:30:09.999Z</time></trkpt><trkpt lat="39.668432452005725" lon="15.863158719069041"><ele>468.0</ele><time>2026-04-26T15:30:12.999Z</time></trkpt><trkpt lat="39.668466730844884" lon="15.863078889728829"><ele>468.0</ele><time>2026-04-26T15:31:50.999Z</time></trkpt><trkpt lat="39.668528539645486" lon="15.863044386584924"><ele>468.0</ele><time>2026-04-26T15:32:22.999Z</time></trkpt><trkpt lat="39.66856322645581" lon="15.862969079110448"><ele>468.0</ele><time>2026-04-26T15:32:33Z</time></trkpt><trkpt lat="39.66864733663141" lon="15.862931591854295"><ele>468.0</ele><time>2026-04-26T15:32:41Z</time></trkpt><trkpt lat="39.66872066269091" lon="15.862928206130686"><ele>467.99999999999994</ele><time>2026-04-26T15:32:44Z</time></trkpt><trkpt lat="39.66883835037638" lon="15.862886885570424"><ele>467.99999999999994</ele><time>2026-04-26T15:32:49Z</time></trkpt><trkpt lat="39.6689201299657" lon="15.862834683876233"><ele>468.0</ele><time>2026-04-26T15:32:52Z</time></trkpt><trkpt lat="39.66898254683315" lon="15.862787386360814"><ele>468.0</ele><time>2026-04-26T15:32:56Z</time></trkpt><trkpt lat="39.66911702882394" lon="15.862551057507202"><ele>469.0</ele><time>2026-04-26T15:34:29.999Z</time></trkpt><trkpt lat="39.6691859058129" lon="15.862402295825964"><ele>470.0</ele><time>2026-04-26T15:34:31.999Z</time></trkpt><trkpt lat="39.66923338079549" lon="15.862317591330378"><ele>471.0</ele><time>2026-04-26T15:34:33Z</time></trkpt><trkpt lat="39.66927771873817" lon="15.862234433846927"><ele>472.0</ele><time>2026-04-26T15:34:34Z</time></trkpt><trkpt lat="39.66931143443946" lon="15.862148626127377"><ele>473.0</ele><time>2026-04-26T15:34:35Z</time></trkpt><trkpt lat="39.66934562190568" lon="15.86206364284982"><ele>474.0</ele><time>2026-04-26T15:34:36Z</time></trkpt><trkpt lat="39.66939270595306" lon="15.861969069483262"><ele>474.0</ele><time>2026-04-26T15:34:37Z</time></trkpt><trkpt lat="39.669441315620645" lon="15.861897612792488"><ele>474.0</ele><time>2026-04-26T15:34:38Z</time></trkpt><trkpt lat="39.6694936346199" lon="15.861840325848705"><ele>474.0</ele><time>2026-04-26T15:34:39Z</time></trkpt><trkpt lat="39.669543310531346" lon="15.861773482666564"><ele>474.0</ele><time>2026-04-26T15:34:40Z</time></trkpt><trkpt lat="39.66960983929575" lon="15.8617067163548"><ele>474.0</ele><time>2026-04-26T15:34:41Z</time></trkpt><trkpt lat="39.669664537853194" lon="15.861654948938959"><ele>474.0</ele><time>2026-04-26T15:34:42Z</time></trkpt><trkpt lat="39.66973555559142" lon="15.861586470425745"><ele>473.79999999999995</ele><time>2026-04-26T15:34:44Z</time></trkpt><trkpt lat="39.669772758571746" lon="15.861430799811677"><ele>473.59999999999997</ele><time>2026-04-26T15:34:46Z</time></trkpt><trkpt lat="39.66977661712236" lon="15.861294487116918"><ele>473.4</ele><time>2026-04-26T15:34:47Z</time></trkpt><trkpt lat="39.669781113235935" lon="15.861157124901133"><ele>473.2</ele><time>2026-04-26T15:34:48Z</time></trkpt><trkpt lat="39.66979503412922" lon="15.861045296870236"><ele>473.0</ele><time>2026-04-26T15:34:49Z</time></trkpt><trkpt lat="39.66982174160676" lon="15.860924023480806"><ele>472.99999999999994</ele><time>2026-04-26T15:34:50Z</time></trkpt><trkpt lat="39.66985526368929" lon="15.860791372754028"><ele>473.0</ele><time>2026-04-26T15:34:51Z</time></trkpt><trkpt lat="39.66988980914649" lon="15.860670223043833"><ele>473.0</ele><time>2026-04-26T15:34:52Z</time></trkpt><trkpt lat="39.669928942310925" lon="15.860565515013493"><ele>473.0</ele><time>2026-04-26T15:34:53Z</time></trkpt><trkpt lat="39.66996569372029" lon="15.860482208084523"><ele>472.99999999999994</ele><time>2026-04-26T15:34:54Z</time></trkpt><trkpt lat="39.670012724578285" lon="15.860409985324896"><ele>473.0</ele><time>2026-04-26T15:34:56Z</time></trkpt><trkpt lat="39.67008572798578" lon="15.860374331944374"><ele>473.0</ele><time>2026-04-26T15:35:00Z</time></trkpt><trkpt lat="39.67015637993707" lon="15.860399103983788"><ele>473.0</ele><time>2026-04-26T15:35:04Z</time></trkpt><trkpt lat="39.670222022100404" lon="15.860385066335084"><ele>473.0</ele><time>2026-04-26T15:35:08Z</time></trkpt><trkpt lat="39.67027383163432" lon="15.860327913004102"><ele>473.0</ele><time>2026-04-26T15:35:13Z</time></trkpt><trkpt lat="39.67031623999637" lon="15.860264869856996"><ele>473.0</ele><time>2026-04-26T15:35:16Z</time></trkpt><trkpt lat="39.670360312864595" lon="15.860179487338364"><ele>473.0</ele><time>2026-04-26T15:35:19Z</time></trkpt><trkpt lat="39.670387725995106" lon="15.860093359039428"><ele>473.0</ele><time>2026-04-26T15:35:22Z</time></trkpt><trkpt lat="39.67041218635315" lon="15.859989378342513"><ele>467.75</ele><time>2026-04-26T15:35:24Z</time></trkpt><trkpt lat="39.67045855241432" lon="15.859906630172443"><ele>462.5</ele><time>2026-04-26T15:35:28Z</time></trkpt><trkpt lat="39.67053164488871" lon="15.859867325045878"><ele>457.25</ele><time>2026-04-26T15:35:31Z</time></trkpt><trkpt lat="39.670689106406044" lon="15.859659322607321"><ele>452.0</ele><time>2026-04-26T15:35:34Z</time></trkpt><trkpt lat="39.67078269657569" lon="15.859616224582114"><ele>451.99999999999994</ele><time>2026-04-26T15:35:36Z</time></trkpt><trkpt lat="39.67085196999553" lon="15.85957480458798"><ele>452.0</ele><time>2026-04-26T15:35:37.999Z</time></trkpt><trkpt lat="39.670913021268014" lon="15.859522369262057"><ele>452.0</ele><time>2026-04-26T15:35:39.999Z</time></trkpt><trkpt lat="39.67098514459168" lon="15.859448504453038"><ele>452.0</ele><time>2026-04-26T15:35:41.999Z</time></trkpt><trkpt lat="39.67107602703042" lon="15.859394172014401"><ele>451.99999999999994</ele><time>2026-04-26T15:35:43.999Z</time></trkpt><trkpt lat="39.67115627908878" lon="15.859305577446177"><ele>452.0</ele><time>2026-04-26T15:35:45.999Z</time></trkpt><trkpt lat="39.671216283194475" lon="15.859229518697354"><ele>448.20000000000005</ele><time>2026-04-26T15:35:47.999Z</time></trkpt><trkpt lat="39.67126491828874" lon="15.859138351506425"><ele>444.40000000000003</ele><time>2026-04-26T15:35:49.999Z</time></trkpt><trkpt lat="39.67131638694489" lon="15.859029403099676"><ele>440.59999999999997</ele><time>2026-04-26T15:35:51.999Z</time></trkpt><trkpt lat="39.671403725122225" lon="15.858875838248425"><ele>436.79999999999995</ele><time>2026-04-26T15:35:54.999Z</time></trkpt><trkpt lat="39.67147084890608" lon="15.858816872048912"><ele>433.0</ele><time>2026-04-26T15:36:00.999Z</time></trkpt><trkpt lat="39.67163187525835" lon="15.858544902114335"><ele>433.79999999999995</ele><time>2026-04-26T15:36:01.999Z</time></trkpt><trkpt lat="39.67169254655534" lon="15.858421440591963"><ele>434.59999999999997</ele><time>2026-04-26T15:36:03.999Z</time></trkpt><trkpt lat="39.6717373085927" lon="15.858311395230912"><ele>435.40000000000003</ele><time>2026-04-26T15:36:05.999Z</time></trkpt><trkpt lat="39.671778999130616" lon="15.858195023439142"><ele>436.20000000000005</ele><time>2026-04-26T15:36:07.999Z</time></trkpt><trkpt lat="39.67182030076353" lon="15.858064910178395"><ele>437.0</ele><time>2026-04-26T15:36:09.999Z</time></trkpt><trkpt lat="39.6718991970728" lon="15.857961055784687"><ele>437.0</ele><time>2026-04-26T15:36:11.999Z</time></trkpt><trkpt lat="39.67196522081712" lon="15.857857196817436"><ele>437.00000000000006</ele><time>2026-04-26T15:36:13.999Z</time></trkpt><trkpt lat="39.671976054932735" lon="15.857736386114253"><ele>437.00000000000006</ele><time>2026-04-26T15:36:15.999Z</time></trkpt><trkpt lat="39.671946750879314" lon="15.85757916552679"><ele>437.0</ele><time>2026-04-26T15:36:17.999Z</time></trkpt><trkpt lat="39.67192246114856" lon="15.857492558303694"><ele>437.0</ele><time>2026-04-26T15:36:18.999Z</time></trkpt><trkpt lat="39.67190075088014" lon="15.857407013920787"><ele>436.99999999999994</ele><time>2026-04-26T15:36:19.999Z</time></trkpt><trkpt lat="39.671881466646724" lon="15.857320597847744"><ele>437.0</ele><time>2026-04-26T15:36:20.999Z</time></trkpt><trkpt lat="39.67180510160575" lon="15.85730093857129"><ele>437.0</ele><time>2026-04-26T15:36:21.999Z</time></trkpt><trkpt lat="39.671823923463045" lon="15.857215719265835"><ele>437.0</ele><time>2026-04-26T15:36:22.999Z</time></trkpt><trkpt lat="39.671844189671084" lon="15.857075650745488"><ele>436.99999999999994</ele><time>2026-04-26T15:36:24.999Z</time></trkpt><trkpt lat="39.67184472064603" lon="15.856946575934282"><ele>437.0</ele><time>2026-04-26T15:36:26.999Z</time></trkpt><trkpt lat="39.67186616429111" lon="15.8568168306079"><ele>436.40000000000003</ele><time>2026-04-26T15:36:28.999Z</time></trkpt><trkpt lat="39.671872711174146" lon="15.856670707135867"><ele>435.80000000000007</ele><time>2026-04-26T15:36:30.999Z</time></trkpt><trkpt lat="39.67188027168483" lon="15.85658817120863"><ele>435.2</ele><time>2026-04-26T15:36:34.999Z</time></trkpt><trkpt lat="39.671862416601336" lon="15.856481512013069"><ele>434.6</ele><time>2026-04-26T15:37:29Z</time></trkpt><trkpt lat="39.67188178628261" lon="15.856376404528445"><ele>434.0</ele><time>2026-04-26T15:37:31Z</time></trkpt><trkpt lat="39.67193691988476" lon="15.856224460687509"><ele>429.0</ele><time>2026-04-26T15:37:33Z</time></trkpt><trkpt lat="39.67197028927171" lon="15.85614515105251"><ele>424.0</ele><time>2026-04-26T15:37:34Z</time></trkpt><trkpt lat="39.67200952119449" lon="15.85605966193314"><ele>419.0</ele><time>2026-04-26T15:37:35Z</time></trkpt><trkpt lat="39.6720608014022" lon="15.855995825329913"><ele>414.0</ele><time>2026-04-26T15:37:36Z</time></trkpt><trkpt lat="39.6721204026282" lon="15.855958501484045"><ele>409.0</ele><time>2026-04-26T15:37:37Z</time></trkpt><trkpt lat="39.67219491168362" lon="15.8559048642365"><ele>404.0</ele><time>2026-04-26T15:37:38Z</time></trkpt><trkpt lat="39.67224506163881" lon="15.85584215695523"><ele>399.0</ele><time>2026-04-26T15:37:39Z</time></trkpt><trkpt lat="39.672285896787976" lon="15.855775598336157"><ele>398.79999999999995</ele><time>2026-04-26T15:37:40Z</time></trkpt><trkpt lat="39.672326465376976" lon="15.855670635495871"><ele>398.59999999999997</ele><time>2026-04-26T15:37:41Z</time></trkpt><trkpt lat="39.67235962571645" lon="15.855577792241625"><ele>398.4</ele><time>2026-04-26T15:37:42Z</time></trkpt><trkpt lat="39.67239877141204" lon="15.855482859166537"><ele>398.2</ele><time>2026-04-26T15:37:43.999Z</time></trkpt><trkpt lat="39.6724039923803" lon="15.85527231297742"><ele>398.0</ele><time>2026-04-26T15:38:29.999Z</time></trkpt><trkpt lat="39.672384437880936" lon="15.855193474099018"><ele>398.0</ele><time>2026-04-26T15:38:30.999Z</time></trkpt><trkpt lat="39.672336780547106" lon="15.855109405554488"><ele>398.0</ele><time>2026-04-26T15:38:32.999Z</time></trkpt><trkpt lat="39.67225072961845" lon="15.855025193377458"><ele>398.0</ele><time>2026-04-26T15:38:34.999Z</time></trkpt><trkpt lat="39.67217005982997" lon="15.854907272185484"><ele>398.0</ele><time>2026-04-26T15:38:36.999Z</time></trkpt><trkpt lat="39.67210226997045" lon="15.854790192203229"><ele>398.0</ele><time>2026-04-26T15:38:38.999Z</time></trkpt><trkpt lat="39.67206248626875" lon="15.854719531169385"><ele>398.0</ele><time>2026-04-26T15:38:39.999Z</time></trkpt><trkpt lat="39.67203714594381" lon="15.854633792557959"><ele>398.0</ele><time>2026-04-26T15:38:40.999Z</time></trkpt><trkpt lat="39.67201486202605" lon="15.854500012245808"><ele>398.0</ele><time>2026-04-26T15:38:42.999Z</time></trkpt><trkpt lat="39.671994266944665" lon="15.854396343011631"><ele>398.0</ele><time>2026-04-26T15:38:46Z</time></trkpt><trkpt lat="39.67187045272808" lon="15.85434634055488"><ele>398.0</ele><time>2026-04-26T15:39:08Z</time></trkpt><trkpt lat="39.67180497112689" lon="15.854373105267886"><ele>402.4</ele><time>2026-04-26T15:39:09Z</time></trkpt><trkpt lat="39.67169832080015" lon="15.85437276122631"><ele>406.79999999999995</ele><time>2026-04-26T15:39:11Z</time></trkpt><trkpt lat="39.6716153424969" lon="15.854386477822239"><ele>411.2</ele><time>2026-04-26T15:39:13Z</time></trkpt><trkpt lat="39.67149450820687" lon="15.854395694336173"><ele>415.6</ele><time>2026-04-26T15:39:15Z</time></trkpt><trkpt lat="39.67141001917894" lon="15.85440730778214"><ele>420.0</ele><time>2026-04-26T15:39:16Z</time></trkpt><trkpt lat="39.671332401345595" lon="15.85443420381251"><ele>420.0</ele><time>2026-04-26T15:39:17Z</time></trkpt><trkpt lat="39.67123782465008" lon="15.854468025127114"><ele>420.0</ele><time>2026-04-26T15:39:19Z</time></trkpt><trkpt lat="39.67117657999187" lon="15.854488427418195"><ele>420.0</ele><time>2026-04-26T15:39:21Z</time></trkpt><trkpt lat="39.67107501872692" lon="15.854497340811534"><ele>420.0</ele><time>2026-04-26T15:39:23Z</time></trkpt><trkpt lat="39.670974409625394" lon="15.854466196981374"><ele>420.0</ele><time>2026-04-26T15:39:25Z</time></trkpt><trkpt lat="39.67093103505967" lon="15.854385510331117"><ele>420.0</ele><time>2026-04-26T15:39:29Z</time></trkpt><trkpt lat="39.67100770588947" lon="15.85433079227607"><ele>419.6666666666667</ele><time>2026-04-26T15:39:32Z</time></trkpt><trkpt lat="39.67107930023348" lon="15.854291278512584"><ele>419.33333333333337</ele><time>2026-04-26T15:39:34Z</time></trkpt><trkpt lat="39.67114908119984" lon="15.854230167127197"><ele>419.0</ele><time>2026-04-26T15:39:37Z</time></trkpt><trkpt lat="39.67114577183458" lon="15.854139162073432"><ele>418.6666666666667</ele><time>2026-04-26T15:39:39Z</time></trkpt><trkpt lat="39.67107191668369" lon="15.854079488426084"><ele>418.33333333333337</ele><time>2026-04-26T15:39:40Z</time></trkpt><trkpt lat="39.67099499776307" lon="15.854024623249318"><ele>418.0</ele><time>2026-04-26T15:39:41Z</time></trkpt><trkpt lat="39.670910363100866" lon="15.853982037104752"><ele>412.83333333333337</ele><time>2026-04-26T15:39:42Z</time></trkpt><trkpt lat="39.67082784586023" lon="15.853949149834422"><ele>407.6666666666667</ele><time>2026-04-26T15:39:43Z</time></trkpt><trkpt lat="39.67075980344705" lon="15.853920233803159"><ele>402.5</ele><time>2026-04-26T15:39:44Z</time></trkpt><trkpt lat="39.67064395810706" lon="15.853851064897636"><ele>397.33333333333337</ele><time>2026-04-26T15:39:46Z</time></trkpt><trkpt lat="39.67058359446038" lon="15.853798863497197"><ele>392.1666666666667</ele><time>2026-04-26T15:39:47Z</time></trkpt><trkpt lat="39.6705084209012" lon="15.85374091308251"><ele>387.0</ele><time>2026-04-26T15:39:49Z</time></trkpt><trkpt lat="39.67044621656879" lon="15.853686087028148"><ele>387.0</ele><time>2026-04-26T15:39:50.999Z</time></trkpt><trkpt lat="39.67038981129256" lon="15.853628945176638"><ele>387.0</ele><time>2026-04-26T15:39:52.999Z</time></trkpt><trkpt lat="39.67031647894451" lon="15.853551349674483"><ele>387.0</ele><time>2026-04-26T15:39:54.999Z</time></trkpt><trkpt lat="39.67026305046708" lon="15.853485952028258"><ele>387.0</ele><time>2026-04-26T15:39:56.999Z</time></trkpt><trkpt lat="39.67031225476502" lon="15.853606484214733"><ele>387.0</ele><time>2026-04-26T15:40:16.999Z</time></trkpt><trkpt lat="39.670406908845145" lon="15.853683068487602"><ele>387.0</ele><time>2026-04-26T15:40:18.999Z</time></trkpt><trkpt lat="39.67048831152449" lon="15.853774464945914"><ele>387.0</ele><time>2026-04-26T15:40:20.999Z</time></trkpt><trkpt lat="39.67059435318846" lon="15.853817234644033"><ele>387.0</ele><time>2026-04-26T15:40:22.999Z</time></trkpt><trkpt lat="39.670654526740236" lon="15.853865928890228"><ele>387.0</ele><time>2026-04-26T15:40:23.999Z</time></trkpt><trkpt lat="39.670713730153274" lon="15.853944487485402"><ele>387.0</ele><time>2026-04-26T15:40:24.999Z</time></trkpt><trkpt lat="39.670791895896095" lon="15.85398070173086"><ele>387.0</ele><time>2026-04-26T15:40:25.999Z</time></trkpt><trkpt lat="39.670882500547656" lon="15.854016601011043"><ele>387.0</ele><time>2026-04-26T15:40:26.999Z</time></trkpt><trkpt lat="39.67097451616746" lon="15.85406058975364"><ele>387.0</ele><time>2026-04-26T15:40:27.999Z</time></trkpt><trkpt lat="39.67104758209279" lon="15.854109753321987"><ele>387.0</ele><time>2026-04-26T15:40:28.999Z</time></trkpt><trkpt lat="39.67112524679807" lon="15.854178220700062"><ele>387.0</ele><time>2026-04-26T15:40:30.999Z</time></trkpt><trkpt lat="39.6710410407526" lon="15.854289187719043"><ele>393.20000000000005</ele><time>2026-04-26T15:40:34.999Z</time></trkpt><trkpt lat="39.67096377334064" lon="15.85433671216105"><ele>399.4</ele><time>2026-04-26T15:40:35.999Z</time></trkpt><trkpt lat="39.67088709163807" lon="15.854393711468447"><ele>405.6</ele><time>2026-04-26T15:40:37.999Z</time></trkpt><trkpt lat="39.6710076453016" lon="15.854510656429088"><ele>411.79999999999995</ele><time>2026-04-26T15:40:40.999Z</time></trkpt><trkpt lat="39.67107063538074" lon="15.854542392675487"><ele>418.0</ele><time>2026-04-26T15:40:41.999Z</time></trkpt><trkpt lat="39.67116969047654" lon="15.854513153953825"><ele>418.0</ele><time>2026-04-26T15:40:43.999Z</time></trkpt><trkpt lat="39.671089370892645" lon="15.854598626585881"><ele>418.0</ele><time>2026-04-26T15:42:22.999Z</time></trkpt><trkpt lat="39.67101675370105" lon="15.85461631088358"><ele>418.0</ele><time>2026-04-26T15:42:23.999Z</time></trkpt><trkpt lat="39.67092286239622" lon="15.854620247480826"><ele>418.0</ele><time>2026-04-26T15:42:25.999Z</time></trkpt><trkpt lat="39.670831307544674" lon="15.854572171724486"><ele>418.0</ele><time>2026-04-26T15:42:27.999Z</time></trkpt><trkpt lat="39.67074245847386" lon="15.854485711101459"><ele>418.0</ele><time>2026-04-26T15:42:29.999Z</time></trkpt><trkpt lat="39.670632097920475" lon="15.85440737487348"><ele>418.0</ele><time>2026-04-26T15:42:31.999Z</time></trkpt><trkpt lat="39.67050979826937" lon="15.854393989375813"><ele>418.0</ele><time>2026-04-26T15:42:33.999Z</time></trkpt><trkpt lat="39.67044025517544" lon="15.85440680834589"><ele>418.0</ele><time>2026-04-26T15:42:34.999Z</time></trkpt><trkpt lat="39.670366046985045" lon="15.854439829994513"><ele>418.0</ele><time>2026-04-26T15:42:35.999Z</time></trkpt><trkpt lat="39.67032652519423" lon="15.854546171480768"><ele>415.33333333333337</ele><time>2026-04-26T15:42:36.999Z</time></trkpt><trkpt lat="39.67026795522522" lon="15.85458687148477"><ele>412.6666666666667</ele><time>2026-04-26T15:42:37.999Z</time></trkpt><trkpt lat="39.67019948023949" lon="15.854596695112136"><ele>410.0</ele><time>2026-04-26T15:42:38.999Z</time></trkpt><trkpt lat="39.6701206613056" lon="15.854552645370767"><ele>407.33333333333337</ele><time>2026-04-26T15:42:39.999Z</time></trkpt><trkpt lat="39.670018143376865" lon="15.854633027584246"><ele>404.6666666666667</ele><time>2026-04-26T15:42:41.999Z</time></trkpt><trkpt lat="39.670014575798284" lon="15.854734573555088"><ele>402.0</ele><time>2026-04-26T15:43:29Z</time></trkpt><trkpt lat="39.66997796456122" lon="15.854835405879347"><ele>402.0</ele><time>2026-04-26T15:43:31Z</time></trkpt><trkpt lat="39.66988840267613" lon="15.854858301701245"><ele>402.0</ele><time>2026-04-26T15:43:34Z</time></trkpt><trkpt lat="39.669826274583905" lon="15.854842293836834"><ele>402.0</ele><time>2026-04-26T15:43:35Z</time></trkpt><trkpt lat="39.66971526260905" lon="15.85485217346343"><ele>402.0</ele><time>2026-04-26T15:43:37Z</time></trkpt><trkpt lat="39.6696454917652" lon="15.854819609844226"><ele>402.0</ele><time>2026-04-26T15:43:39Z</time></trkpt><trkpt lat="39.66959094766075" lon="15.854771363206881"><ele>402.0</ele><time>2026-04-26T15:43:41Z</time></trkpt><trkpt lat="39.66952983598691" lon="15.854728444287854"><ele>402.0</ele><time>2026-04-26T15:43:43Z</time></trkpt><trkpt lat="39.669469424630776" lon="15.85467383304937"><ele>402.0</ele><time>2026-04-26T15:43:45Z</time></trkpt><trkpt lat="39.66940389406407" lon="15.854634375084053"><ele>402.0</ele><time>2026-04-26T15:43:47Z</time></trkpt><trkpt lat="39.66932013238372" lon="15.854637518964806"><ele>402.0</ele><time>2026-04-26T15:43:50Z</time></trkpt><trkpt lat="39.669262414656934" lon="15.854670435396683"><ele>402.0</ele><time>2026-04-26T15:43:52Z</time></trkpt><trkpt lat="39.6691962034438" lon="15.854716440296095"><ele>402.0</ele><time>2026-04-26T15:43:54Z</time></trkpt><trkpt lat="39.66913194093542" lon="15.854728473127489"><ele>402.0</ele><time>2026-04-26T15:43:57Z</time></trkpt><trkpt lat="39.669056658820715" lon="15.854759774732207"><ele>399.3333333333333</ele><time>2026-04-26T15:44:00Z</time></trkpt><trkpt lat="39.66899657852368" lon="15.854785453775476"><ele>396.66666666666663</ele><time>2026-04-26T15:44:02Z</time></trkpt><trkpt lat="39.66889159632493" lon="15.854833692162915"><ele>394.0</ele><time>2026-04-26T15:44:04.999Z</time></trkpt><trkpt lat="39.66881689259232" lon="15.854849857441867"><ele>391.3333333333333</ele><time>2026-04-26T15:44:07.999Z</time></trkpt><trkpt lat="39.668746068389986" lon="15.854846162183375"><ele>388.66666666666663</ele><time>2026-04-26T15:44:10.999Z</time></trkpt><trkpt lat="39.668674964933004" lon="15.854861199914764"><ele>386.0</ele><time>2026-04-26T15:44:12.999Z</time></trkpt><trkpt lat="39.668607186902996" lon="15.85489673347495"><ele>380.5</ele><time>2026-04-26T15:44:17.999Z</time></trkpt><trkpt lat="39.6685342879413" lon="15.854932931451934"><ele>375.0</ele><time>2026-04-26T15:44:19.999Z</time></trkpt><trkpt lat="39.6682860728668" lon="15.854940834362973"><ele>369.5</ele><time>2026-04-26T15:44:20.999Z</time></trkpt><trkpt lat="39.66820970006413" lon="15.854934156044605"><ele>364.0</ele><time>2026-04-26T15:44:22.999Z</time></trkpt><trkpt lat="39.668276087177084" lon="15.854931528525093"><ele>364.0</ele><time>2026-04-26T15:44:45.999Z</time></trkpt><trkpt lat="39.66814746234012" lon="15.854877229870308"><ele>364.0</ele><time>2026-04-26T15:45:11Z</time></trkpt><trkpt lat="39.6680889229082" lon="15.854797320184925"><ele>364.0</ele><time>2026-04-26T15:45:14Z</time></trkpt><trkpt lat="39.66801879922047" lon="15.854735713655154"><ele>364.0</ele><time>2026-04-26T15:45:16Z</time></trkpt><trkpt lat="39.66794741475645" lon="15.854772425025148"><ele>364.0</ele><time>2026-04-26T15:45:19Z</time></trkpt><trkpt lat="39.66791401471979" lon="15.854844152425345"><ele>364.0</ele><time>2026-04-26T15:45:21Z</time></trkpt><trkpt lat="39.66787808219055" lon="15.854928806375447"><ele>364.0</ele><time>2026-04-26T15:45:24Z</time></trkpt><trkpt lat="39.667874276754986" lon="15.855012512542398"><ele>364.0</ele><time>2026-04-26T15:45:26Z</time></trkpt><trkpt lat="39.66782753475742" lon="15.855181426124037"><ele>364.0</ele><time>2026-04-26T15:45:28Z</time></trkpt><trkpt lat="39.66782097465528" lon="15.855318404361144"><ele>364.0</ele><time>2026-04-26T15:45:30Z</time></trkpt><trkpt lat="39.66782356927339" lon="15.855413747340036"><ele>364.0</ele><time>2026-04-26T15:45:32Z</time></trkpt><trkpt lat="39.667805904538305" lon="15.855504593783003"><ele>359.14285714285717</ele><time>2026-04-26T15:45:35Z</time></trkpt><trkpt lat="39.667745301759524" lon="15.855454022975438"><ele>354.2857142857143</ele><time>2026-04-26T15:45:38Z</time></trkpt><trkpt lat="39.66777631199311" lon="15.855376111802334"><ele>349.42857142857144</ele><time>2026-04-26T15:45:58Z</time></trkpt><trkpt lat="39.66775937895053" lon="15.855295753919174"><ele>344.57142857142856</ele><time>2026-04-26T15:46:01Z</time></trkpt><trkpt lat="39.66773424555769" lon="15.85521652134261"><ele>339.7142857142857</ele><time>2026-04-26T15:46:03Z</time></trkpt><trkpt lat="39.667694299852876" lon="15.855139187763758"><ele>334.8571428571429</ele><time>2026-04-26T15:46:06Z</time></trkpt><trkpt lat="39.66762877484429" lon="15.855133533833143"><ele>330.0</ele><time>2026-04-26T15:46:13.999Z</time></trkpt><trkpt lat="39.6676331688204" lon="15.855226691885058"><ele>330.00000000000006</ele><time>2026-04-26T15:46:21.999Z</time></trkpt><trkpt lat="39.66762776254232" lon="15.855313307955996"><ele>330.0</ele><time>2026-04-26T15:46:24.999Z</time></trkpt><trkpt lat="39.66759583564349" lon="15.855410198701085"><ele>330.0</ele><time>2026-04-26T15:46:28.999Z</time></trkpt><trkpt lat="39.66757914113123" lon="15.855498579853416"><ele>330.0</ele><time>2026-04-26T15:46:31.999Z</time></trkpt><trkpt lat="39.66755874716523" lon="15.855583182159197"><ele>330.0</ele><time>2026-04-26T15:46:34.999Z</time></trkpt><trkpt lat="39.667543505035226" lon="15.855667330177532"><ele>330.00000000000006</ele><time>2026-04-26T15:46:37.999Z</time></trkpt><trkpt lat="39.66752421762327" lon="15.855753999792178"><ele>330.0</ele><time>2026-04-26T15:46:40.999Z</time></trkpt><trkpt lat="39.667495621586994" lon="15.855834468647267"><ele>330.00000000000006</ele><time>2026-04-26T15:46:43.999Z</time></trkpt><trkpt lat="39.66746749710381" lon="15.855936168062918"><ele>330.0</ele><time>2026-04-26T15:46:47.999Z</time></trkpt><trkpt lat="39.66744951129715" lon="15.856018084006468"><ele>330.0</ele><time>2026-04-26T15:46:50.999Z</time></trkpt><trkpt lat="39.667426958782364" lon="15.856114824387546"><ele>330.0</ele><time>2026-04-26T15:46:53.999Z</time></trkpt><trkpt lat="39.667394201412215" lon="15.856185396037977"><ele>330.0</ele><time>2026-04-26T15:46:56.999Z</time></trkpt><trkpt lat="39.66735351441395" lon="15.856254129615802"><ele>330.00000000000006</ele><time>2026-04-26T15:46:59.999Z</time></trkpt><trkpt lat="39.66731328519177" lon="15.85632582213999"><ele>330.0</ele><time>2026-04-26T15:47:02.999Z</time></trkpt><trkpt lat="39.667277645674744" lon="15.856398002806232"><ele>330.6666666666667</ele><time>2026-04-26T15:47:05.999Z</time></trkpt><trkpt lat="39.66723864211496" lon="15.856481742689498"><ele>331.3333333333333</ele><time>2026-04-26T15:47:09Z</time></trkpt><trkpt lat="39.667195352084775" lon="15.856558096476077"><ele>332.0</ele><time>2026-04-26T15:47:12Z</time></trkpt><trkpt lat="39.66714983515018" lon="15.856635057668814"><ele>332.66666666666663</ele><time>2026-04-26T15:47:15Z</time></trkpt><trkpt lat="39.6670836744104" lon="15.856708421803106"><ele>333.3333333333333</ele><time>2026-04-26T15:47:19Z</time></trkpt><trkpt lat="39.667019554734104" lon="15.856743880290502"><ele>334.0</ele><time>2026-04-26T15:47:22Z</time></trkpt><trkpt lat="39.6669489192287" lon="15.856751356850257"><ele>332.0</ele><time>2026-04-26T15:47:25Z</time></trkpt><trkpt lat="39.66688321084093" lon="15.856770186006603"><ele>330.0</ele><time>2026-04-26T15:47:28Z</time></trkpt><trkpt lat="39.666817468179715" lon="15.856794182456502"><ele>328.0</ele><time>2026-04-26T15:47:31Z</time></trkpt><trkpt lat="39.666745642919835" lon="15.856789647953564"><ele>326.0</ele><time>2026-04-26T15:47:34Z</time></trkpt><trkpt lat="39.66667185190881" lon="15.856778096803385"><ele>324.0</ele><time>2026-04-26T15:47:37Z</time></trkpt><trkpt lat="39.666557897017384" lon="15.856727352133152"><ele>322.0</ele><time>2026-04-26T15:47:40Z</time></trkpt><trkpt lat="39.666487160249574" lon="15.856703242123245"><ele>322.0</ele><time>2026-04-26T15:47:42Z</time></trkpt><trkpt lat="39.666417369913624" lon="15.856710577862744"><ele>322.0</ele><time>2026-04-26T15:47:44Z</time></trkpt><trkpt lat="39.66635746175587" lon="15.85673685883486"><ele>322.0</ele><time>2026-04-26T15:47:46Z</time></trkpt><trkpt lat="39.66629614355077" lon="15.856790333644208"><ele>322.0</ele><time>2026-04-26T15:47:48Z</time></trkpt><trkpt lat="39.6662141525014" lon="15.856832022596322"><ele>322.0</ele><time>2026-04-26T15:47:51Z</time></trkpt><trkpt lat="39.66614275257637" lon="15.856846770445514"><ele>322.0</ele><time>2026-04-26T15:47:53Z</time></trkpt><trkpt lat="39.66607320967028" lon="15.856853444710284"><ele>322.0</ele><time>2026-04-26T15:47:55Z</time></trkpt><trkpt lat="39.66597922474241" lon="15.856860619826122"><ele>318.3333333333333</ele><time>2026-04-26T15:47:58Z</time></trkpt><trkpt lat="39.665913915527945" lon="15.856879448995176"><ele>314.66666666666663</ele><time>2026-04-26T15:48:00Z</time></trkpt><trkpt lat="39.66582561190061" lon="15.856930238932543"><ele>311.0</ele><time>2026-04-26T15:48:02Z</time></trkpt><trkpt lat="39.66580227507521" lon="15.85704174844643"><ele>307.3333333333333</ele><time>2026-04-26T15:48:04Z</time></trkpt><trkpt lat="39.66581679690305" lon="15.857142464118727"><ele>303.6666666666667</ele><time>2026-04-26T15:48:06Z</time></trkpt><trkpt lat="39.665754938260626" lon="15.857181344750488"><ele>300.0</ele><time>2026-04-26T15:48:08Z</time></trkpt><trkpt lat="39.665688769105266" lon="15.85714060130676"><ele>300.0</ele><time>2026-04-26T15:48:10Z</time></trkpt><trkpt lat="39.665638156854826" lon="15.857074040393176"><ele>300.0</ele><time>2026-04-26T15:48:12Z</time></trkpt><trkpt lat="39.66558115533593" lon="15.8570335748097"><ele>300.0</ele><time>2026-04-26T15:48:13.999Z</time></trkpt><trkpt lat="39.66550699561335" lon="15.857010084116293"><ele>300.0</ele><time>2026-04-26T15:48:16.999Z</time></trkpt><trkpt lat="39.665412756848816" lon="15.857001349262413"><ele>300.0</ele><time>2026-04-26T15:48:19.999Z</time></trkpt><trkpt lat="39.665334011300786" lon="15.857027059732776"><ele>300.0</ele><time>2026-04-26T15:48:21.999Z</time></trkpt><trkpt lat="39.66526773253792" lon="15.85707122413514"><ele>297.0</ele><time>2026-04-26T15:48:23.999Z</time></trkpt><trkpt lat="39.665183165738355" lon="15.857087457852826"><ele>294.0</ele><time>2026-04-26T15:48:26.999Z</time></trkpt><trkpt lat="39.66515271578743" lon="15.85699744933516"><ele>291.0</ele><time>2026-04-26T15:48:30.999Z</time></trkpt><trkpt lat="39.66518585610873" lon="15.856919945588409"><ele>288.0</ele><time>2026-04-26T15:48:33.999Z</time></trkpt><trkpt lat="39.66522935733765" lon="15.856830514096751"><ele>285.0</ele><time>2026-04-26T15:48:36.999Z</time></trkpt><trkpt lat="39.665262553577705" lon="15.856719195052413"><ele>282.0</ele><time>2026-04-26T15:48:38.999Z</time></trkpt><trkpt lat="39.665276555914716" lon="15.85662943080598"><ele>279.1666666666667</ele><time>2026-04-26T15:48:47.999Z</time></trkpt><trkpt lat="39.66527846208654" lon="15.856546900319358"><ele>276.3333333333333</ele><time>2026-04-26T15:49:57Z</time></trkpt><trkpt lat="39.665256452438165" lon="15.856463595307357"><ele>273.5</ele><time>2026-04-26T15:49:59Z</time></trkpt><trkpt lat="39.66520683832315" lon="15.856397845134978"><ele>270.66666666666663</ele><time>2026-04-26T15:50:01Z</time></trkpt><trkpt lat="39.66512910780957" lon="15.856333311337401"><ele>267.8333333333333</ele><time>2026-04-26T15:50:04Z</time></trkpt><trkpt lat="39.66504942831676" lon="15.856269674897296"><ele>265.0</ele><time>2026-04-26T15:50:07Z</time></trkpt><trkpt lat="39.66499512387009" lon="15.856216776499624"><ele>264.99999999999994</ele><time>2026-04-26T15:50:10Z</time></trkpt><trkpt lat="39.664941829353026" lon="15.856169230863625"><ele>265.0</ele><time>2026-04-26T15:50:11Z</time></trkpt><trkpt lat="39.664878897033226" lon="15.8561192651839"><ele>265.0</ele><time>2026-04-26T15:50:12Z</time></trkpt><trkpt lat="39.6648226316927" lon="15.856081610235295"><ele>265.0</ele><time>2026-04-26T15:50:13Z</time></trkpt><trkpt lat="39.66476627299496" lon="15.856039725490794"><ele>265.0</ele><time>2026-04-26T15:50:14Z</time></trkpt><trkpt lat="39.664709236207436" lon="15.855996447743337"><ele>264.99999999999994</ele><time>2026-04-26T15:50:15Z</time></trkpt><trkpt lat="39.664625757053166" lon="15.855960825504582"><ele>265.0</ele><time>2026-04-26T15:50:16.999Z</time></trkpt><trkpt lat="39.66455840963653" lon="15.85594989481878"><ele>262.4</ele><time>2026-04-26T15:50:19.999Z</time></trkpt><trkpt lat="39.6645005688636" lon="15.8558755773983"><ele>259.8</ele><time>2026-04-26T15:50:22.999Z</time></trkpt><trkpt lat="39.664517580883135" lon="15.855729425526338"><ele>257.2</ele><time>2026-04-26T15:50:24.999Z</time></trkpt><trkpt lat="39.66442416630924" lon="15.855704768807158"><ele>254.6</ele><time>2026-04-26T15:50:25.999Z</time></trkpt><trkpt lat="39.66444216598653" lon="15.855538797858337"><ele>252.0</ele><time>2026-04-26T15:50:27.999Z</time></trkpt><trkpt lat="39.664455385831964" lon="15.855426533419422"><ele>252.0</ele><time>2026-04-26T15:50:28.999Z</time></trkpt><trkpt lat="39.664479495766955" lon="15.855304438675622"><ele>252.0</ele><time>2026-04-26T15:50:29.999Z</time></trkpt><trkpt lat="39.664479914301936" lon="15.855192507628834"><ele>252.0</ele><time>2026-04-26T15:50:30.999Z</time></trkpt><trkpt lat="39.66446632293475" lon="15.855086017725618"><ele>252.0</ele><time>2026-04-26T15:50:31.999Z</time></trkpt><trkpt lat="39.66444130769263" lon="15.854977695415105"><ele>252.0</ele><time>2026-04-26T15:50:32.999Z</time></trkpt><trkpt lat="39.66439625211047" lon="15.854895637570927"><ele>252.0</ele><time>2026-04-26T15:50:33.999Z</time></trkpt><trkpt lat="39.664347359350224" lon="15.854820161977361"><ele>248.0</ele><time>2026-04-26T15:50:34.999Z</time></trkpt><trkpt lat="39.66429087496603" lon="15.854736614407384"><ele>244.0</ele><time>2026-04-26T15:50:35.999Z</time></trkpt><trkpt lat="39.66419778870188" lon="15.854676465959662"><ele>240.0</ele><time>2026-04-26T15:50:36.999Z</time></trkpt><trkpt lat="39.66412441171652" lon="15.854601811511854"><ele>236.0</ele><time>2026-04-26T15:50:37.999Z</time></trkpt><trkpt lat="39.664059672227914" lon="15.854518477310739"><ele>232.0</ele><time>2026-04-26T15:50:38.999Z</time></trkpt><trkpt lat="39.663990552115365" lon="15.854431665250983"><ele>232.0</ele><time>2026-04-26T15:50:39.999Z</time></trkpt><trkpt lat="39.66391863071624" lon="15.854351756234148"><ele>232.0</ele><time>2026-04-26T15:50:40.999Z</time></trkpt><trkpt lat="39.663824710989466" lon="15.854283186190344"><ele>232.0</ele><time>2026-04-26T15:50:41.999Z</time></trkpt><trkpt lat="39.66372420289069" lon="15.8542295488175"><ele>232.0</ele><time>2026-04-26T15:50:42.999Z</time></trkpt><trkpt lat="39.663597240353326" lon="15.854206733368965"><ele>232.0</ele><time>2026-04-26T15:50:43.999Z</time></trkpt><trkpt lat="39.6635073347999" lon="15.854155082785116"><ele>229.39999999999998</ele><time>2026-04-26T15:50:44.999Z</time></trkpt><trkpt lat="39.6634670009123" lon="15.854067311589308"><ele>226.79999999999998</ele><time>2026-04-26T15:50:47.999Z</time></trkpt><trkpt lat="39.663396837763244" lon="15.853964146706637"><ele>224.2</ele><time>2026-04-26T15:50:51.999Z</time></trkpt><trkpt lat="39.66328473243886" lon="15.853861128265734"><ele>221.6</ele><time>2026-04-26T15:50:52.999Z</time></trkpt><trkpt lat="39.663210648964295" lon="15.853740196670806"><ele>219.0</ele><time>2026-04-26T15:50:54.999Z</time></trkpt><trkpt lat="39.66314084242104" lon="15.853632905142366"><ele>219.0</ele><time>2026-04-26T15:50:56.999Z</time></trkpt><trkpt lat="39.66305178389742" lon="15.85351229531947"><ele>218.99999999999997</ele><time>2026-04-26T15:50:58.999Z</time></trkpt><trkpt lat="39.662985892730525" lon="15.85346147706684"><ele>218.99999999999997</ele><time>2026-04-26T15:50:59.999Z</time></trkpt><trkpt lat="39.66291124988935" lon="15.853419329352873"><ele>219.0</ele><time>2026-04-26T15:51:00.999Z</time></trkpt><trkpt lat="39.662818321173056" lon="15.853420996864136"><ele>219.0</ele><time>2026-04-26T15:51:01.999Z</time></trkpt><trkpt lat="39.6627234510974" lon="15.853433657355536"><ele>218.6</ele><time>2026-04-26T15:51:02.999Z</time></trkpt><trkpt lat="39.66262814651611" lon="15.853466173651295"><ele>218.2</ele><time>2026-04-26T15:51:03.999Z</time></trkpt><trkpt lat="39.66253196712711" lon="15.85349558518165"><ele>217.79999999999998</ele><time>2026-04-26T15:51:04.999Z</time></trkpt><trkpt lat="39.66244257100376" lon="15.853533052201973"><ele>217.39999999999998</ele><time>2026-04-26T15:51:05.999Z</time></trkpt><trkpt lat="39.66236660586369" lon="15.853572778066368"><ele>217.0</ele><time>2026-04-26T15:51:06.999Z</time></trkpt><trkpt lat="39.66228170342389" lon="15.853661036427873"><ele>217.0</ele><time>2026-04-26T15:51:08.999Z</time></trkpt><trkpt lat="39.662224198607156" lon="15.853705754594731"><ele>217.0</ele><time>2026-04-26T15:51:09.999Z</time></trkpt><trkpt lat="39.66216165252132" lon="15.853761541360853"><ele>217.0</ele><time>2026-04-26T15:51:10.999Z</time></trkpt><trkpt lat="39.662102687341495" lon="15.85385170662085"><ele>217.0</ele><time>2026-04-26T15:51:11.999Z</time></trkpt><trkpt lat="39.66205276827572" lon="15.853967653005734"><ele>217.0</ele><time>2026-04-26T15:51:12.999Z</time></trkpt><trkpt lat="39.66207475843636" lon="15.854171038142978"><ele>217.0</ele><time>2026-04-26T15:51:13.999Z</time></trkpt><trkpt lat="39.662078202596106" lon="15.854276068218509"><ele>217.0</ele><time>2026-04-26T15:51:14.999Z</time></trkpt><trkpt lat="39.6620598626866" lon="15.854362202917235"><ele>217.0</ele><time>2026-04-26T15:51:15.999Z</time></trkpt><trkpt lat="39.662027478773766" lon="15.854442032596443"><ele>217.0</ele><time>2026-04-26T15:51:16.999Z</time></trkpt><trkpt lat="39.66198144706536" lon="15.854518741153118"><ele>217.0</ele><time>2026-04-26T15:51:18Z</time></trkpt><trkpt lat="39.661926246500315" lon="15.854589310663265"><ele>217.0</ele><time>2026-04-26T15:51:19Z</time></trkpt><trkpt lat="39.66186992261836" lon="15.854635616327243"><ele>217.0</ele><time>2026-04-26T15:51:20Z</time></trkpt><trkpt lat="39.66179273867065" lon="15.854628414398963"><ele>216.25</ele><time>2026-04-26T15:51:21Z</time></trkpt><trkpt lat="39.6616828676006" lon="15.854643352789154"><ele>215.5</ele><time>2026-04-26T15:51:23Z</time></trkpt><trkpt lat="39.661674153020506" lon="15.854503066587187"><ele>214.75</ele><time>2026-04-26T15:51:24Z</time></trkpt><trkpt lat="39.661639926729116" lon="15.854365173567519"><ele>214.0</ele><time>2026-04-26T15:51:25Z</time></trkpt><trkpt lat="39.661595756048676" lon="15.854204414303409"><ele>211.6</ele><time>2026-04-26T15:51:26Z</time></trkpt><trkpt lat="39.66155296569665" lon="15.854060009780031"><ele>209.2</ele><time>2026-04-26T15:51:27Z</time></trkpt><trkpt lat="39.66148614678989" lon="15.853941391424645"><ele>206.79999999999998</ele><time>2026-04-26T15:51:28Z</time></trkpt><trkpt lat="39.661428398677025" lon="15.85382855534322"><ele>204.39999999999998</ele><time>2026-04-26T15:51:29Z</time></trkpt><trkpt lat="39.661371629429475" lon="15.853744253762821"><ele>202.0</ele><time>2026-04-26T15:51:30Z</time></trkpt><trkpt lat="39.661295627158495" lon="15.853684172700683"><ele>202.0</ele><time>2026-04-26T15:51:31Z</time></trkpt><trkpt lat="39.66118432714097" lon="15.85363778095812"><ele>202.0</ele><time>2026-04-26T15:51:32Z</time></trkpt><trkpt lat="39.66106369093437" lon="15.853597037208406"><ele>202.0</ele><time>2026-04-26T15:51:33Z</time></trkpt><trkpt lat="39.66095897893333" lon="15.853537030651081"><ele>202.0</ele><time>2026-04-26T15:51:34Z</time></trkpt><trkpt lat="39.660854614576216" lon="15.853496334200107"><ele>200.33333333333331</ele><time>2026-04-26T15:51:35Z</time></trkpt><trkpt lat="39.66075217576373" lon="15.853460315784424"><ele>198.66666666666666</ele><time>2026-04-26T15:51:36Z</time></trkpt><trkpt lat="39.66066279255453" lon="15.853429419755233"><ele>197.0</ele><time>2026-04-26T15:51:37Z</time></trkpt><trkpt lat="39.66058630974764" lon="15.85339396192308"><ele>195.33333333333331</ele><time>2026-04-26T15:51:38Z</time></trkpt><trkpt lat="39.66052904847291" lon="15.85333934558143"><ele>193.66666666666666</ele><time>2026-04-26T15:51:39Z</time></trkpt><trkpt lat="39.660512644896706" lon="15.853253685424693"><ele>192.0</ele><time>2026-04-26T15:51:40Z</time></trkpt><trkpt lat="39.66045892634783" lon="15.853107980660747"><ele>192.0</ele><time>2026-04-26T15:51:41Z</time></trkpt><trkpt lat="39.660397066903535" lon="15.8529812443768"><ele>192.0</ele><time>2026-04-26T15:51:42Z</time></trkpt><trkpt lat="39.6603532464603" lon="15.85288239921553"><ele>192.0</ele><time>2026-04-26T15:51:43Z</time></trkpt><trkpt lat="39.660313538894" lon="15.852778088191293"><ele>192.0</ele><time>2026-04-26T15:51:44Z</time></trkpt><trkpt lat="39.66026490258953" lon="15.8526695443403"><ele>192.0</ele><time>2026-04-26T15:51:45Z</time></trkpt><trkpt lat="39.660218260438384" lon="15.85255513176856"><ele>186.75</ele><time>2026-04-26T15:51:46Z</time></trkpt><trkpt lat="39.66016523451" lon="15.852421264952309"><ele>181.5</ele><time>2026-04-26T15:51:47Z</time></trkpt><trkpt lat="39.66011987092178" lon="15.852277610152152"><ele>176.25</ele><time>2026-04-26T15:51:48Z</time></trkpt><trkpt lat="39.66008842382637" lon="15.852140152266465"><ele>171.0</ele><time>2026-04-26T15:51:49Z</time></trkpt><trkpt lat="39.66007591300311" lon="15.852001534110123"><ele>171.0</ele><time>2026-04-26T15:51:50Z</time></trkpt><trkpt lat="39.660089138199744" lon="15.85186607702357"><ele>171.0</ele><time>2026-04-26T15:51:51Z</time></trkpt><trkpt lat="39.660110310156014" lon="15.851743433608693"><ele>171.0</ele><time>2026-04-26T15:51:52Z</time></trkpt><trkpt lat="39.66012186652177" lon="15.851638932489033"><ele>171.0</ele><time>2026-04-26T15:51:53Z</time></trkpt><trkpt lat="39.66011553513318" lon="15.851537032088654"><ele>171.0</ele><time>2026-04-26T15:51:54Z</time></trkpt><trkpt lat="39.660084428737214" lon="15.851438143099742"><ele>171.0</ele><time>2026-04-26T15:51:55Z</time></trkpt><trkpt lat="39.660035079162945" lon="15.851348230369076"><ele>169.83333333333334</ele><time>2026-04-26T15:51:56Z</time></trkpt><trkpt lat="39.65997372909948" lon="15.85127128482977"><ele>168.66666666666666</ele><time>2026-04-26T15:51:57Z</time></trkpt><trkpt lat="39.65992017063701" lon="15.85119245608671"><ele>167.5</ele><time>2026-04-26T15:51:58Z</time></trkpt><trkpt lat="39.659849398875416" lon="15.851151887224763"><ele>166.33333333333331</ele><time>2026-04-26T15:51:59Z</time></trkpt><trkpt lat="39.65975907461011" lon="15.851152549806773"><ele>165.16666666666666</ele><time>2026-04-26T15:52:00Z</time></trkpt><trkpt lat="39.65969182762299" lon="15.851098845109094"><ele>164.0</ele><time>2026-04-26T15:52:01Z</time></trkpt><trkpt lat="39.6596096753514" lon="15.851033383786756"><ele>163.0</ele><time>2026-04-26T15:52:02Z</time></trkpt><trkpt lat="39.65952335569875" lon="15.850956121568213"><ele>162.0</ele><time>2026-04-26T15:52:03Z</time></trkpt><trkpt lat="39.65943514041517" lon="15.850893433467204"><ele>161.0</ele><time>2026-04-26T15:52:04Z</time></trkpt><trkpt lat="39.65936902143999" lon="15.850804299714728"><ele>160.0</ele><time>2026-04-26T15:52:05Z</time></trkpt><trkpt lat="39.65931832858829" lon="15.850694743214495"><ele>159.0</ele><time>2026-04-26T15:52:06Z</time></trkpt><trkpt lat="39.65928472093507" lon="15.850561634247107"><ele>156.4</ele><time>2026-04-26T15:52:07Z</time></trkpt><trkpt lat="39.659257477798604" lon="15.850429994075684"><ele>153.8</ele><time>2026-04-26T15:52:08Z</time></trkpt><trkpt lat="39.65923803611429" lon="15.850301547631615"><ele>151.2</ele><time>2026-04-26T15:52:09Z</time></trkpt><trkpt lat="39.65922544528344" lon="15.850179685482177"><ele>148.6</ele><time>2026-04-26T15:52:10Z</time></trkpt><trkpt lat="39.65921634224273" lon="15.850073080800193"><ele>146.0</ele><time>2026-04-26T15:52:11Z</time></trkpt><trkpt lat="39.65919632534349" lon="15.849964363642068"><ele>145.6</ele><time>2026-04-26T15:52:12Z</time></trkpt><trkpt lat="39.65915612173414" lon="15.849862118853835"><ele>145.2</ele><time>2026-04-26T15:52:13Z</time></trkpt><trkpt lat="39.659097840774926" lon="15.849769567885675"><ele>144.8</ele><time>2026-04-26T15:52:14Z</time></trkpt><trkpt lat="39.65902532178844" lon="15.84968651229997"><ele>144.4</ele><time>2026-04-26T15:52:15Z</time></trkpt><trkpt lat="39.65895440339845" lon="15.849600264396571"><ele>144.0</ele><time>2026-04-26T15:52:16Z</time></trkpt><trkpt lat="39.658888630677794" lon="15.849516478612045"><ele>144.0</ele><time>2026-04-26T15:52:17Z</time></trkpt><trkpt lat="39.65881789113253" lon="15.849445713576696"><ele>144.0</ele><time>2026-04-26T15:52:18Z</time></trkpt><trkpt lat="39.65871958831257" lon="15.849395382369261"><ele>144.0</ele><time>2026-04-26T15:52:18.999Z</time></trkpt><trkpt lat="39.65860773440658" lon="15.849340077736967"><ele>144.0</ele><time>2026-04-26T15:52:19.999Z</time></trkpt><trkpt lat="39.6584772768542" lon="15.849328723512324"><ele>144.0</ele><time>2026-04-26T15:52:20.999Z</time></trkpt><trkpt lat="39.65834797156189" lon="15.849330379438776"><ele>143.0</ele><time>2026-04-26T15:52:21.999Z</time></trkpt><trkpt lat="39.65821987717196" lon="15.849332120441053"><ele>142.0</ele><time>2026-04-26T15:52:22.999Z</time></trkpt><trkpt lat="39.65810533540235" lon="15.849332187656273"><ele>141.0</ele><time>2026-04-26T15:52:23.999Z</time></trkpt><trkpt lat="39.65801507153636" lon="15.84931927879706"><ele>140.0</ele><time>2026-04-26T15:52:24.999Z</time></trkpt><trkpt lat="39.65791767881559" lon="15.849282160184464"><ele>139.0</ele><time>2026-04-26T15:52:25.999Z</time></trkpt><trkpt lat="39.657803834013656" lon="15.849239204861258"><ele>138.0</ele><time>2026-04-26T15:52:26.999Z</time></trkpt><trkpt lat="39.657703040545705" lon="15.849154659017865"><ele>137.0</ele><time>2026-04-26T15:52:27.999Z</time></trkpt><trkpt lat="39.65761521047252" lon="15.849070446000566"><ele>136.0</ele><time>2026-04-26T15:52:28.999Z</time></trkpt><trkpt lat="39.657523407096456" lon="15.848994890147377"><ele>135.0</ele><time>2026-04-26T15:52:29.999Z</time></trkpt><trkpt lat="39.657411694531575" lon="15.84896153417394"><ele>135.0</ele><time>2026-04-26T15:52:30.999Z</time></trkpt><trkpt lat="39.65728218141948" lon="15.848928811940294"><ele>135.0</ele><time>2026-04-26T15:52:31.999Z</time></trkpt><trkpt lat="39.65715187692398" lon="15.848921672131022"><ele>135.0</ele><time>2026-04-26T15:52:32.999Z</time></trkpt><trkpt lat="39.65703733154125" lon="15.848918683747097"><ele>135.0</ele><time>2026-04-26T15:52:33.999Z</time></trkpt><trkpt lat="39.65693517948499" lon="15.848913400356457"><ele>131.8</ele><time>2026-04-26T15:52:34.999Z</time></trkpt><trkpt lat="39.6568392485785" lon="15.848895576813955"><ele>128.6</ele><time>2026-04-26T15:52:35.999Z</time></trkpt><trkpt lat="39.6567505990545" lon="15.848861421902631"><ele>125.4</ele><time>2026-04-26T15:52:36.999Z</time></trkpt><trkpt lat="39.65667527420169" lon="15.848820905677313"><ele>122.2</ele><time>2026-04-26T15:52:37.999Z</time></trkpt><trkpt lat="39.65665135809658" lon="15.848698752301152"><ele>119.0</ele><time>2026-04-26T15:52:38.999Z</time></trkpt><trkpt lat="39.65661936985132" lon="15.848557438322159"><ele>120.80000000000001</ele><time>2026-04-26T15:52:39.999Z</time></trkpt><trkpt lat="39.65660921978392" lon="15.848414846844005"><ele>122.60000000000001</ele><time>2026-04-26T15:52:40.999Z</time></trkpt><trkpt lat="39.656603026794954" lon="15.848279736849918"><ele>124.4</ele><time>2026-04-26T15:52:41.999Z</time></trkpt><trkpt lat="39.65661898047905" lon="15.848137025274134"><ele>126.2</ele><time>2026-04-26T15:52:42.999Z</time></trkpt><trkpt lat="39.6566381975388" lon="15.847999640421571"><ele>128.0</ele><time>2026-04-26T15:52:43.999Z</time></trkpt><trkpt lat="39.656645382962346" lon="15.84787456912712"><ele>128.0</ele><time>2026-04-26T15:52:44.999Z</time></trkpt><trkpt lat="39.65663451804826" lon="15.847758604410194"><ele>128.0</ele><time>2026-04-26T15:52:45.999Z</time></trkpt><trkpt lat="39.656595515588606" lon="15.84763939564794"><ele>128.0</ele><time>2026-04-26T15:52:46.999Z</time></trkpt><trkpt lat="39.656534300287696" lon="15.847517593778873"><ele>128.0</ele><time>2026-04-26T15:52:47.999Z</time></trkpt><trkpt lat="39.65645564372551" lon="15.847400736449199"><ele>128.0</ele><time>2026-04-26T15:52:48.999Z</time></trkpt><trkpt lat="39.656379649249054" lon="15.847307592571157"><ele>126.80000000000001</ele><time>2026-04-26T15:52:49.999Z</time></trkpt><trkpt lat="39.656313710201225" lon="15.847216603422869"><ele>125.60000000000001</ele><time>2026-04-26T15:52:50.999Z</time></trkpt><trkpt lat="39.65625687070453" lon="15.847122330463884"><ele>124.39999999999999</ele><time>2026-04-26T15:52:51.999Z</time></trkpt><trkpt lat="39.65620736528368" lon="15.847011744217774"><ele>123.19999999999999</ele><time>2026-04-26T15:52:52.999Z</time></trkpt><trkpt lat="39.65616460867728" lon="15.846866469522613"><ele>122.0</ele><time>2026-04-26T15:52:53.999Z</time></trkpt><trkpt lat="39.65612040305109" lon="15.846713280925481"><ele>117.0</ele><time>2026-04-26T15:52:54.999Z</time></trkpt><trkpt lat="39.656074497384395" lon="15.846563648352113"><ele>112.0</ele><time>2026-04-26T15:52:55.999Z</time></trkpt><trkpt lat="39.656027283717634" lon="15.846412458761145"><ele>107.0</ele><time>2026-04-26T15:52:56.999Z</time></trkpt><trkpt lat="39.6559814769646" lon="15.846257025984263"><ele>102.0</ele><time>2026-04-26T15:52:57.999Z</time></trkpt><trkpt lat="39.65594379941065" lon="15.846092547111946"><ele>100.0</ele><time>2026-04-26T15:52:58.999Z</time></trkpt><trkpt lat="39.65590496760693" lon="15.845921384108907"><ele>98.0</ele><time>2026-04-26T15:52:59.999Z</time></trkpt><trkpt lat="39.655862013103544" lon="15.845733378055078"><ele>96.0</ele><time>2026-04-26T15:53:00.999Z</time></trkpt><trkpt lat="39.65582224618684" lon="15.845545253314144"><ele>94.0</ele><time>2026-04-26T15:53:01.999Z</time></trkpt><trkpt lat="39.655787501811844" lon="15.845364672463047"><ele>94.0</ele><time>2026-04-26T15:53:02.999Z</time></trkpt><trkpt lat="39.65574828112383" lon="15.845199861315793"><ele>94.0</ele><time>2026-04-26T15:53:03.999Z</time></trkpt><trkpt lat="39.65568146714623" lon="15.8450474059472"><ele>94.0</ele><time>2026-04-26T15:53:04.999Z</time></trkpt><trkpt lat="39.65556780038614" lon="15.844904144128222"><ele>94.0</ele><time>2026-04-26T15:53:05.999Z</time></trkpt><trkpt lat="39.65542209436611" lon="15.844771635885227"><ele>90.66666666666666</ele><time>2026-04-26T15:53:06.999Z</time></trkpt><trkpt lat="39.65528922656217" lon="15.844655485532233"><ele>87.33333333333333</ele><time>2026-04-26T15:53:07.999Z</time></trkpt><trkpt lat="39.65517709308946" lon="15.84452611309274"><ele>84.0</ele><time>2026-04-26T15:53:08.999Z</time></trkpt><trkpt lat="39.65508391157803" lon="15.844387680624262"><ele>81.25</ele><time>2026-04-26T15:53:09.999Z</time></trkpt><trkpt lat="39.65499558903391" lon="15.844266783228404"><ele>78.5</ele><time>2026-04-26T15:53:10.999Z</time></trkpt><trkpt lat="39.654879126060756" lon="15.844163912667133"><ele>75.75</ele><time>2026-04-26T15:53:11.999Z</time></trkpt><trkpt lat="39.65476376640249" lon="15.844074386667927"><ele>73.0</ele><time>2026-04-26T15:53:12.999Z</time></trkpt><trkpt lat="39.65466851093687" lon="15.843970663011312"><ele>73.0</ele><time>2026-04-26T15:53:13.999Z</time></trkpt><trkpt lat="39.65457843027299" lon="15.843889093491603"><ele>73.0</ele><time>2026-04-26T15:53:14.999Z</time></trkpt><trkpt lat="39.65451001756353" lon="15.84381711248763"><ele>73.0</ele><time>2026-04-26T15:53:15.999Z</time></trkpt><trkpt lat="39.6544486323705" lon="15.843739437991111"><ele>73.0</ele><time>2026-04-26T15:53:16.999Z</time></trkpt><trkpt lat="39.65443222507833" lon="15.843596911897954"><ele>73.0</ele><time>2026-04-26T15:53:17.999Z</time></trkpt><trkpt lat="39.65442903383593" lon="15.843431550234607"><ele>68.5</ele><time>2026-04-26T15:53:18.999Z</time></trkpt><trkpt lat="39.654418791377594" lon="15.843269161799387"><ele>64.0</ele><time>2026-04-26T15:53:19.999Z</time></trkpt><trkpt lat="39.65441132001871" lon="15.843121868801354"><ele>59.5</ele><time>2026-04-26T15:53:20.999Z</time></trkpt><trkpt lat="39.65441462579271" lon="15.842980409766247"><ele>55.0</ele><time>2026-04-26T15:53:21.999Z</time></trkpt><trkpt lat="39.654429886245026" lon="15.842847386661319"><ele>54.99999999999999</ele><time>2026-04-26T15:53:22.999Z</time></trkpt><trkpt lat="39.65445174727128" lon="15.842736293258374"><ele>55.0</ele><time>2026-04-26T15:53:24Z</time></trkpt><trkpt lat="39.65447269388066" lon="15.8426465612632"><ele>55.0</ele><time>2026-04-26T15:53:25Z</time></trkpt><trkpt lat="39.65447363892246" lon="15.842562039714178"><ele>55.0</ele><time>2026-04-26T15:53:26Z</time></trkpt><trkpt lat="39.654430375628245" lon="15.842488536914665"><ele>54.99999999999999</ele><time>2026-04-26T15:53:27Z</time></trkpt><trkpt lat="39.65435084030615" lon="15.842455913722398"><ele>55.0</ele><time>2026-04-26T15:53:28Z</time></trkpt><trkpt lat="39.65425963542661" lon="15.842489190054383"><ele>55.0</ele><time>2026-04-26T15:53:29Z</time></trkpt><trkpt lat="39.65417528872848" lon="15.842574773400424"><ele>55.0</ele><time>2026-04-26T15:53:30Z</time></trkpt><trkpt lat="39.654149826078545" lon="15.842746475981757"><ele>55.0</ele><time>2026-04-26T15:53:31Z</time></trkpt><trkpt lat="39.654116590602925" lon="15.842904701708989"><ele>55.0</ele><time>2026-04-26T15:53:32Z</time></trkpt><trkpt lat="39.65408597957265" lon="15.84306166899733"><ele>55.0</ele><time>2026-04-26T15:53:33Z</time></trkpt><trkpt lat="39.65405113163875" lon="15.843230088378123"><ele>55.0</ele><time>2026-04-26T15:53:34Z</time></trkpt><trkpt lat="39.65401409362708" lon="15.843399925254086"><ele>55.0</ele><time>2026-04-26T15:53:35Z</time></trkpt><trkpt lat="39.65398170898704" lon="15.843544673841443"><ele>55.0</ele><time>2026-04-26T15:53:36Z</time></trkpt><trkpt lat="39.65395190746294" lon="15.843671454367202"><ele>55.666666666666664</ele><time>2026-04-26T15:53:37Z</time></trkpt><trkpt lat="39.653925686790046" lon="15.843778012832914"><ele>56.33333333333333</ele><time>2026-04-26T15:53:38Z</time></trkpt><trkpt lat="39.65390310540932" lon="15.843863103759192"><ele>57.0</ele><time>2026-04-26T15:53:39Z</time></trkpt><trkpt lat="39.65386601702657" lon="15.843940863821796"><ele>57.66666666666667</ele><time>2026-04-26T15:53:40Z</time></trkpt><trkpt lat="39.65379343857218" lon="15.844003025765671"><ele>58.333333333333336</ele><time>2026-04-26T15:53:41Z</time></trkpt><trkpt lat="39.65370705124963" lon="15.844072526581517"><ele>59.0</ele><time>2026-04-26T15:53:42Z</time></trkpt><trkpt lat="39.65364475922625" lon="15.84412669518185"><ele>59.0</ele><time>2026-04-26T15:53:43Z</time></trkpt><trkpt lat="39.65356601160763" lon="15.844174479922959"><ele>59.00000000000001</ele><time>2026-04-26T15:53:45Z</time></trkpt><trkpt lat="39.653505764994115" lon="15.844130920976298"><ele>59.00000000000001</ele><time>2026-04-26T15:53:47Z</time></trkpt><trkpt lat="39.653522364845344" lon="15.844026097881885"><ele>59.0</ele><time>2026-04-26T15:53:48Z</time></trkpt><trkpt lat="39.65358805067271" lon="15.843902552097061"><ele>59.0</ele><time>2026-04-26T15:53:49Z</time></trkpt><trkpt lat="39.65365609478147" lon="15.843770537932725"><ele>59.0</ele><time>2026-04-26T15:53:50Z</time></trkpt><trkpt lat="39.65367539138419" lon="15.843621375402325"><ele>59.0</ele><time>2026-04-26T15:53:51Z</time></trkpt><trkpt lat="39.653674493504745" lon="15.843464155619676"><ele>59.0</ele><time>2026-04-26T15:53:52Z</time></trkpt><trkpt lat="39.65367523861327" lon="15.84330783809823"><ele>59.0</ele><time>2026-04-26T15:53:53Z</time></trkpt><trkpt lat="39.653669034878305" lon="15.843138603723638"><ele>58.0</ele><time>2026-04-26T15:53:54Z</time></trkpt><trkpt lat="39.653649988618234" lon="15.84297247947148"><ele>57.0</ele><time>2026-04-26T15:53:55Z</time></trkpt><trkpt lat="39.65362787843619" lon="15.842810235040805"><ele>56.0</ele><time>2026-04-26T15:53:56Z</time></trkpt><trkpt lat="39.65361270259688" lon="15.84265351194363"><ele>55.0</ele><time>2026-04-26T15:53:57Z</time></trkpt><trkpt lat="39.65359858830834" lon="15.84249212270464"><ele>48.25</ele><time>2026-04-26T15:53:58Z</time></trkpt><trkpt lat="39.653581933023965" lon="15.842334286761707"><ele>41.5</ele><time>2026-04-26T15:53:59Z</time></trkpt><trkpt lat="39.65356772362281" lon="15.84217324374216"><ele>34.75</ele><time>2026-04-26T15:54:00Z</time></trkpt><trkpt lat="39.65355804026886" lon="15.842001523084152"><ele>28.0</ele><time>2026-04-26T15:54:01Z</time></trkpt><trkpt lat="39.65355048163381" lon="15.841823401020061"><ele>27.25</ele><time>2026-04-26T15:54:02Z</time></trkpt><trkpt lat="39.65354430476084" lon="15.841655356127868"><ele>26.5</ele><time>2026-04-26T15:54:03Z</time></trkpt><trkpt lat="39.653540577355976" lon="15.841496256215642"><ele>25.75</ele><time>2026-04-26T15:54:04Z</time></trkpt><trkpt lat="39.65353968107373" lon="15.841343259406882"><ele>25.0</ele><time>2026-04-26T15:54:05Z</time></trkpt><trkpt lat="39.65353574866982" lon="15.841190358463535"><ele>25.0</ele><time>2026-04-26T15:54:06Z</time></trkpt><trkpt lat="39.65353071074241" lon="15.841022411667964"><ele>25.0</ele><time>2026-04-26T15:54:07Z</time></trkpt><trkpt lat="39.65353527442284" lon="15.840838837594594"><ele>25.0</ele><time>2026-04-26T15:54:08Z</time></trkpt><trkpt lat="39.653550402131" lon="15.84065306219443"><ele>25.0</ele><time>2026-04-26T15:54:09Z</time></trkpt><trkpt lat="39.65356081389912" lon="15.840462783118037"><ele>24.0</ele><time>2026-04-26T15:54:10Z</time></trkpt><trkpt lat="39.653554399903854" lon="15.840279510858906"><ele>23.0</ele><time>2026-04-26T15:54:11Z</time></trkpt><trkpt lat="39.65353866792653" lon="15.840099437905252"><ele>22.0</ele><time>2026-04-26T15:54:12Z</time></trkpt><trkpt lat="39.6535145902322" lon="15.839933227293105"><ele>21.0</ele><time>2026-04-26T15:54:13Z</time></trkpt><trkpt lat="39.65348335152256" lon="15.839782177945706"><ele>19.75</ele><time>2026-04-26T15:54:14Z</time></trkpt><trkpt lat="39.65343756273766" lon="15.839640418875158"><ele>18.5</ele><time>2026-04-26T15:54:15Z</time></trkpt><trkpt lat="39.653360107827275" lon="15.839505727731689"><ele>17.25</ele><time>2026-04-26T15:54:16Z</time></trkpt><trkpt lat="39.6532749078642" lon="15.839393472800365"><ele>16.0</ele><time>2026-04-26T15:54:17Z</time></trkpt><trkpt lat="39.653208613745655" lon="15.839283475595654"><ele>15.999999999999998</ele><time>2026-04-26T15:54:18Z</time></trkpt><trkpt lat="39.653154643229676" lon="15.839183208274452"><ele>16.0</ele><time>2026-04-26T15:54:19Z</time></trkpt><trkpt lat="39.65311450495622" lon="15.83910385771545"><ele>16.0</ele><time>2026-04-26T15:54:20Z</time></trkpt><trkpt lat="39.653068633154945" lon="15.839008124026893"><ele>16.0</ele><time>2026-04-26T15:54:22Z</time></trkpt><trkpt lat="39.65302468644741" lon="15.838937802691195"><ele>15.999999999999998</ele><time>2026-04-26T15:54:43.999Z</time></trkpt><trkpt lat="39.65294049240023" lon="15.838917626250074"><ele>16.0</ele><time>2026-04-26T15:54:45.999Z</time></trkpt><trkpt lat="39.6528741319198" lon="15.838961174140596"><ele>16.0</ele><time>2026-04-26T15:54:46.999Z</time></trkpt><trkpt lat="39.65280573452609" lon="15.839026110226863"><ele>16.0</ele><time>2026-04-26T15:54:47.999Z</time></trkpt><trkpt lat="39.65272624260914" lon="15.839087953376982"><ele>16.0</ele><time>2026-04-26T15:54:48.999Z</time></trkpt><trkpt lat="39.6526499512105" lon="15.839146982565973"><ele>16.0</ele><time>2026-04-26T15:54:49.999Z</time></trkpt><trkpt lat="39.65256896282821" lon="15.839215624057625"><ele>16.0</ele><time>2026-04-26T15:54:50.999Z</time></trkpt><trkpt lat="39.652485941430385" lon="15.839276900373573"><ele>17.200000000000003</ele><time>2026-04-26T15:54:51.999Z</time></trkpt><trkpt lat="39.65239545079974" lon="15.83934040586001"><ele>18.400000000000002</ele><time>2026-04-26T15:54:52.999Z</time></trkpt><trkpt lat="39.65229714955742" lon="15.839405533613757"><ele>19.6</ele><time>2026-04-26T15:54:53.999Z</time></trkpt><trkpt lat="39.65219958255424" lon="15.839464429648263"><ele>20.8</ele><time>2026-04-26T15:54:54.999Z</time></trkpt><trkpt lat="39.65210837386159" lon="15.839517646907609"><ele>22.0</ele><time>2026-04-26T15:54:55.999Z</time></trkpt><trkpt lat="39.65200085736991" lon="15.839568308967864"><ele>21.5</ele><time>2026-04-26T15:54:56.999Z</time></trkpt><trkpt lat="39.65189487078548" lon="15.839617532363567"><ele>21.0</ele><time>2026-04-26T15:54:57.999Z</time></trkpt><trkpt lat="39.651782940684775" lon="15.83966438152666"><ele>20.5</ele><time>2026-04-26T15:54:58.999Z</time></trkpt><trkpt lat="39.65166686632452" lon="15.839710423368967"><ele>20.0</ele><time>2026-04-26T15:54:59.999Z</time></trkpt><trkpt lat="39.65154463328417" lon="15.839753436859587"><ele>20.0</ele><time>2026-04-26T15:55:00.999Z</time></trkpt><trkpt lat="39.651424844358836" lon="15.83979053402495"><ele>20.0</ele><time>2026-04-26T15:55:01.999Z</time></trkpt><trkpt lat="39.65130594529374" lon="15.839824104283643"><ele>20.0</ele><time>2026-04-26T15:55:02.999Z</time></trkpt><trkpt lat="39.65117874640482" lon="15.83985648463652"><ele>20.0</ele><time>2026-04-26T15:55:03.999Z</time></trkpt><trkpt lat="39.6510618936186" lon="15.839885019030458"><ele>18.5</ele><time>2026-04-26T15:55:04.999Z</time></trkpt><trkpt lat="39.6509500476106" lon="15.839907234427235"><ele>17.0</ele><time>2026-04-26T15:55:05.999Z</time></trkpt><trkpt lat="39.65081469061955" lon="15.839920008805699"><ele>15.5</ele><time>2026-04-26T15:55:06.999Z</time></trkpt><trkpt lat="39.65065757130088" lon="15.839930491948648"><ele>14.0</ele><time>2026-04-26T15:55:07.999Z</time></trkpt><trkpt lat="39.65050878640564" lon="15.839935035692648"><ele>14.0</ele><time>2026-04-26T15:55:08.999Z</time></trkpt><trkpt lat="39.650351880003626" lon="15.839941926472173"><ele>14.0</ele><time>2026-04-26T15:55:09.999Z</time></trkpt><trkpt lat="39.6501870765861" lon="15.83994138190177"><ele>14.0</ele><time>2026-04-26T15:55:10.999Z</time></trkpt><trkpt lat="39.650022514954344" lon="15.839942704777048"><ele>14.0</ele><time>2026-04-26T15:55:11.999Z</time></trkpt><trkpt lat="39.649855245094216" lon="15.839940301480633"><ele>14.0</ele><time>2026-04-26T15:55:12.999Z</time></trkpt><trkpt lat="39.64968010622057" lon="15.83994112670891"><ele>14.0</ele><time>2026-04-26T15:55:13.999Z</time></trkpt><trkpt lat="39.64950510619913" lon="15.839939111594024"><ele>13.333333333333334</ele><time>2026-04-26T15:55:14.999Z</time></trkpt><trkpt lat="39.64932949983333" lon="15.83993995026044"><ele>12.666666666666668</ele><time>2026-04-26T15:55:15.999Z</time></trkpt><trkpt lat="39.64914750807547" lon="15.8399437919141"><ele>12.0</ele><time>2026-04-26T15:55:16.999Z</time></trkpt><trkpt lat="39.64896253524085" lon="15.839936958429742"><ele>12.0</ele><time>2026-04-26T15:55:17.999Z</time></trkpt><trkpt lat="39.6487825604253" lon="15.839938239189745"><ele>12.0</ele><time>2026-04-26T15:55:18.999Z</time></trkpt><trkpt lat="39.64860673474847" lon="15.83994164733609"><ele>12.0</ele><time>2026-04-26T15:55:19.999Z</time></trkpt><trkpt lat="39.64842629105471" lon="15.839939577504516"><ele>12.0</ele><time>2026-04-26T15:55:20.999Z</time></trkpt><trkpt lat="39.64824632741356" lon="15.839932268766113"><ele>12.0</ele><time>2026-04-26T15:55:21.999Z</time></trkpt><trkpt lat="39.64806611041794" lon="15.839930705994146"><ele>12.0</ele><time>2026-04-26T15:55:22.999Z</time></trkpt><trkpt lat="39.64787813626885" lon="15.839912468953294"><ele>11.666666666666666</ele><time>2026-04-26T15:55:23.999Z</time></trkpt><trkpt lat="39.647683811913865" lon="15.839910389260197"><ele>11.333333333333332</ele><time>2026-04-26T15:55:24.999Z</time></trkpt><trkpt lat="39.64748988923464" lon="15.839908256796036"><ele>11.0</ele><time>2026-04-26T15:55:25.999Z</time></trkpt><trkpt lat="39.64728417940731" lon="15.839905960923739"><ele>11.0</ele><time>2026-04-26T15:55:26.999Z</time></trkpt><trkpt lat="39.64706706068367" lon="15.839902944992321"><ele>11.0</ele><time>2026-04-26T15:55:27.999Z</time></trkpt><trkpt lat="39.64683744458383" lon="15.839936398502244"><ele>11.0</ele><time>2026-04-26T15:55:28.999Z</time></trkpt><trkpt lat="39.646617248522105" lon="15.839919109455932"><ele>11.0</ele><time>2026-04-26T15:55:30Z</time></trkpt><trkpt lat="39.6464181402185" lon="15.839914379160177"><ele>11.0</ele><time>2026-04-26T15:55:31Z</time></trkpt><trkpt lat="39.6462157023478" lon="15.839921422338229"><ele>11.0</ele><time>2026-04-26T15:55:32Z</time></trkpt><trkpt lat="39.64601099658122" lon="15.839943033371316"><ele>11.0</ele><time>2026-04-26T15:55:33Z</time></trkpt><trkpt lat="39.645805049882455" lon="15.839973899353124"><ele>11.0</ele><time>2026-04-26T15:55:34Z</time></trkpt><trkpt lat="39.64560520960602" lon="15.840001223014065"><ele>11.0</ele><time>2026-04-26T15:55:35Z</time></trkpt><trkpt lat="39.64540858662485" lon="15.840024325276769"><ele>11.333333333333332</ele><time>2026-04-26T15:55:36Z</time></trkpt><trkpt lat="39.6452142977778" lon="15.840044847144622"><ele>11.666666666666666</ele><time>2026-04-26T15:55:37Z</time></trkpt><trkpt lat="39.64502664533624" lon="15.840069105634564"><ele>12.0</ele><time>2026-04-26T15:55:38Z</time></trkpt><trkpt lat="39.644842112178836" lon="15.840092955959088"><ele>12.0</ele><time>2026-04-26T15:55:39Z</time></trkpt><trkpt lat="39.6446524463709" lon="15.840114266849339"><ele>12.0</ele><time>2026-04-26T15:55:40Z</time></trkpt><trkpt lat="39.64446199941515" lon="15.840136807639142"><ele>12.0</ele><time>2026-04-26T15:55:41Z</time></trkpt><trkpt lat="39.644270365706284" lon="15.840162738811891"><ele>13.666666666666668</ele><time>2026-04-26T15:55:42Z</time></trkpt><trkpt lat="39.644075738923476" lon="15.840194627791456"><ele>15.333333333333334</ele><time>2026-04-26T15:55:43Z</time></trkpt><trkpt lat="39.64387807078647" lon="15.840234755794967"><ele>17.0</ele><time>2026-04-26T15:55:44Z</time></trkpt><trkpt lat="39.643680796518474" lon="15.840285652422043"><ele>16.666666666666668</ele><time>2026-04-26T15:55:45Z</time></trkpt><trkpt lat="39.643485536304844" lon="15.840345009451921"><ele>16.333333333333332</ele><time>2026-04-26T15:55:46Z</time></trkpt><trkpt lat="39.643292250121426" lon="15.840411542785722"><ele>16.0</ele><time>2026-04-26T15:55:47Z</time></trkpt><trkpt lat="39.64310409442255" lon="15.840483196329613"><ele>16.0</ele><time>2026-04-26T15:55:48Z</time></trkpt><trkpt lat="39.6429198130857" lon="15.840556702162866"><ele>16.0</ele><time>2026-04-26T15:55:49Z</time></trkpt><trkpt lat="39.642736070715934" lon="15.840634190328736"><ele>16.0</ele><time>2026-04-26T15:55:50Z</time></trkpt><trkpt lat="39.64255334115736" lon="15.840716912354802"><ele>16.333333333333332</ele><time>2026-04-26T15:55:51Z</time></trkpt><trkpt lat="39.64236707442539" lon="15.840800082272876"><ele>16.666666666666668</ele><time>2026-04-26T15:55:52Z</time></trkpt><trkpt lat="39.642180192277564" lon="15.840888794401813"><ele>17.0</ele><time>2026-04-26T15:55:53Z</time></trkpt><trkpt lat="39.641990768021564" lon="15.840982956557774"><ele>15.666666666666668</ele><time>2026-04-26T15:55:54Z</time></trkpt><trkpt lat="39.64179523178122" lon="15.841073326512882"><ele>14.333333333333332</ele><time>2026-04-26T15:55:55Z</time></trkpt><trkpt lat="39.641600961301336" lon="15.84116212132825"><ele>13.0</ele><time>2026-04-26T15:55:56Z</time></trkpt><trkpt lat="39.64140632361839" lon="15.841252140326453"><ele>13.0</ele><time>2026-04-26T15:55:57Z</time></trkpt><trkpt lat="39.64121761736598" lon="15.841343940599742"><ele>13.0</ele><time>2026-04-26T15:55:58Z</time></trkpt><trkpt lat="39.64103159631004" lon="15.841427395594046"><ele>13.0</ele><time>2026-04-26T15:55:59Z</time></trkpt><trkpt lat="39.640853884108296" lon="15.84151019228488"><ele>12.0</ele><time>2026-04-26T15:56:00Z</time></trkpt><trkpt lat="39.640676169397466" lon="15.84160153510279"><ele>11.0</ele><time>2026-04-26T15:56:01Z</time></trkpt><trkpt lat="39.640497570994484" lon="15.84168801010897"><ele>10.0</ele><time>2026-04-26T15:56:02Z</time></trkpt><trkpt lat="39.64031858493814" lon="15.841768093418477"><ele>10.666666666666668</ele><time>2026-04-26T15:56:03Z</time></trkpt><trkpt lat="39.64013915199248" lon="15.841851496528676"><ele>11.333333333333334</ele><time>2026-04-26T15:56:04Z</time></trkpt><trkpt lat="39.639959902438406" lon="15.841934038217888"><ele>12.0</ele><time>2026-04-26T15:56:05Z</time></trkpt><trkpt lat="39.63977884477764" lon="15.842016741844883"><ele>12.0</ele><time>2026-04-26T15:56:06Z</time></trkpt><trkpt lat="39.63959913787834" lon="15.842095299682857"><ele>12.0</ele><time>2026-04-26T15:56:07Z</time></trkpt><trkpt lat="39.639424717069474" lon="15.842169215175534"><ele>12.0</ele><time>2026-04-26T15:56:08Z</time></trkpt><trkpt lat="39.63924766216735" lon="15.842240526407693"><ele>12.0</ele><time>2026-04-26T15:56:09Z</time></trkpt><trkpt lat="39.63906417563674" lon="15.842308663458187"><ele>12.0</ele><time>2026-04-26T15:56:10Z</time></trkpt><trkpt lat="39.638875614288715" lon="15.842369625261298"><ele>12.0</ele><time>2026-04-26T15:56:11Z</time></trkpt><trkpt lat="39.638682411663574" lon="15.842419567184619"><ele>12.0</ele><time>2026-04-26T15:56:12Z</time></trkpt><trkpt lat="39.638487540816975" lon="15.842461996442266"><ele>12.0</ele><time>2026-04-26T15:56:13Z</time></trkpt><trkpt lat="39.63830599221554" lon="15.842491992831139"><ele>12.0</ele><time>2026-04-26T15:56:14Z</time></trkpt><trkpt lat="39.63813349827168" lon="15.842514924575884"><ele>12.0</ele><time>2026-04-26T15:56:15Z</time></trkpt><trkpt lat="39.63796803631233" lon="15.842529716318566"><ele>12.0</ele><time>2026-04-26T15:56:16Z</time></trkpt><trkpt lat="39.637814319923855" lon="15.842545049820734"><ele>12.0</ele><time>2026-04-26T15:56:17Z</time></trkpt><trkpt lat="39.63765786615954" lon="15.842563712779961"><ele>10.333333333333334</ele><time>2026-04-26T15:56:18Z</time></trkpt><trkpt lat="39.637498139364354" lon="15.842583142928177"><ele>8.666666666666668</ele><time>2026-04-26T15:56:19Z</time></trkpt><trkpt lat="39.637336847623104" lon="15.842604137813966"><ele>7.0</ele><time>2026-04-26T15:56:20Z</time></trkpt><trkpt lat="39.63717514957305" lon="15.842630497613785"><ele>8.666666666666668</ele><time>2026-04-26T15:56:21Z</time></trkpt><trkpt lat="39.637012413864625" lon="15.842662808541586"><ele>10.333333333333334</ele><time>2026-04-26T15:56:22Z</time></trkpt><trkpt lat="39.636852756088075" lon="15.842698605603815"><ele>12.0</ele><time>2026-04-26T15:56:23Z</time></trkpt><trkpt lat="39.636687695149725" lon="15.842717383393571"><ele>12.0</ele><time>2026-04-26T15:56:24Z</time></trkpt><trkpt lat="39.63652769744278" lon="15.842761657958297"><ele>12.0</ele><time>2026-04-26T15:56:25Z</time></trkpt><trkpt lat="39.636368171550714" lon="15.84280595076311"><ele>12.0</ele><time>2026-04-26T15:56:26Z</time></trkpt><trkpt lat="39.636219139738174" lon="15.842865975618304"><ele>11.75</ele><time>2026-04-26T15:56:27Z</time></trkpt><trkpt lat="39.63608373121775" lon="15.842898035065367"><ele>11.5</ele><time>2026-04-26T15:56:28Z</time></trkpt><trkpt lat="39.635963166370786" lon="15.842930493597573"><ele>11.25</ele><time>2026-04-26T15:56:28.999Z</time></trkpt><trkpt lat="39.6358515232104" lon="15.842962807840614"><ele>11.0</ele><time>2026-04-26T15:56:29.999Z</time></trkpt><trkpt lat="39.63574572292253" lon="15.842993352538919"><ele>11.0</ele><time>2026-04-26T15:56:30.999Z</time></trkpt><trkpt lat="39.63564289222161" lon="15.843021916666945"><ele>11.0</ele><time>2026-04-26T15:56:31.999Z</time></trkpt><trkpt lat="39.635545132180326" lon="15.843049546092285"><ele>11.0</ele><time>2026-04-26T15:56:32.999Z</time></trkpt><trkpt lat="39.63545041188587" lon="15.843079779668283"><ele>11.0</ele><time>2026-04-26T15:56:33.999Z</time></trkpt><trkpt lat="39.63535466131083" lon="15.843106673129865"><ele>11.0</ele><time>2026-04-26T15:56:34.999Z</time></trkpt><trkpt lat="39.63526594597059" lon="15.843126421988316"><ele>10.600000000000001</ele><time>2026-04-26T15:56:35.999Z</time></trkpt><trkpt lat="39.63519678953871" lon="15.84314133146419"><ele>10.200000000000001</ele><time>2026-04-26T15:56:36.999Z</time></trkpt><trkpt lat="39.635096853922576" lon="15.843178699691558"><ele>9.8</ele><time>2026-04-26T15:56:38.999Z</time></trkpt><trkpt lat="39.63500517630126" lon="15.84318167794276"><ele>9.4</ele><time>2026-04-26T15:56:40.999Z</time></trkpt><trkpt lat="39.63490682350658" lon="15.843207670977845"><ele>9.0</ele><time>2026-04-26T15:56:42.999Z</time></trkpt><trkpt lat="39.63493143027444" lon="15.843403967669957"><ele>9.0</ele><time>2026-04-26T15:56:45.999Z</time></trkpt><trkpt lat="39.63500956837809" lon="15.84345841241752"><ele>9.0</ele><time>2026-04-26T15:56:48.999Z</time></trkpt><trkpt lat="39.63508641403379" lon="15.843452928874404"><ele>9.0</ele><time>2026-04-26T15:56:51.999Z</time></trkpt><trkpt lat="39.635107882146954" lon="15.843332009095942"><ele>9.0</ele><time>2026-04-26T16:03:40.999Z</time></trkpt><trkpt lat="39.63503549855469" lon="15.843324607542801"><ele>9.0</ele><time>2026-04-26T16:03:48.999Z</time></trkpt><trkpt lat="39.634969116294876" lon="15.843347362646062"><ele>9.0</ele><time>2026-04-26T16:03:51.999Z</time></trkpt><trkpt lat="39.634903629933724" lon="15.843327393784733"><ele>9.0</ele><time>2026-04-26T16:04:06Z</time></trkpt><trkpt lat="39.634721403544525" lon="15.843295051566939"><ele>9.0</ele><time>2026-04-26T16:04:38Z</time></trkpt><trkpt lat="39.63459830517774" lon="15.843302736894715"><ele>9.0</ele><time>2026-04-26T16:04:39Z</time></trkpt><trkpt lat="39.634491479242016" lon="15.843325541663729"><ele>9.0</ele><time>2026-04-26T16:04:40Z</time></trkpt><trkpt lat="39.63440137818407" lon="15.843348083906724"><ele>9.0</ele><time>2026-04-26T16:04:41Z</time></trkpt><trkpt lat="39.63431657113136" lon="15.84336766881701"><ele>9.0</ele><time>2026-04-26T16:04:42Z</time></trkpt><trkpt lat="39.63423080921788" lon="15.843385428808805"><ele>9.0</ele><time>2026-04-26T16:04:43Z</time></trkpt><trkpt lat="39.63415260038221" lon="15.843409204022867"><ele>9.0</ele><time>2026-04-26T16:04:44Z</time></trkpt><trkpt lat="39.634076625148126" lon="15.843429805092347"><ele>9.0</ele><time>2026-04-26T16:04:45Z</time></trkpt><trkpt lat="39.63400382108541" lon="15.843449791192972"><ele>9.0</ele><time>2026-04-26T16:04:46Z</time></trkpt><trkpt lat="39.63393122757777" lon="15.843470174815648"><ele>9.000000000000002</ele><time>2026-04-26T16:04:47Z</time></trkpt><trkpt lat="39.63386137722838" lon="15.843489658690421"><ele>9.0</ele><time>2026-04-26T16:04:48Z</time></trkpt><trkpt lat="39.633793188025905" lon="15.843506668332852"><ele>9.0</ele><time>2026-04-26T16:04:49Z</time></trkpt><trkpt lat="39.63372796109246" lon="15.843523302442444"><ele>9.0</ele><time>2026-04-26T16:04:50Z</time></trkpt><trkpt lat="39.63366388698866" lon="15.84354279719924"><ele>9.0</ele><time>2026-04-26T16:04:51Z</time></trkpt><trkpt lat="39.633599063966024" lon="15.843561473245062"><ele>9.000000000000002</ele><time>2026-04-26T16:04:52Z</time></trkpt><trkpt lat="39.63353487137805" lon="15.843578689035116"><ele>9.0</ele><time>2026-04-26T16:04:52.999Z</time></trkpt><trkpt lat="39.63346922571686" lon="15.84359448197621"><ele>9.0</ele><time>2026-04-26T16:04:53.999Z</time></trkpt><trkpt lat="39.63340606473897" lon="15.84361364257091"><ele>9.0</ele><time>2026-04-26T16:04:54.999Z</time></trkpt><trkpt lat="39.633342080890884" lon="15.843634831943358"><ele>9.0</ele><time>2026-04-26T16:04:55.999Z</time></trkpt><trkpt lat="39.63327882119298" lon="15.843649416116223"><ele>9.0</ele><time>2026-04-26T16:04:56.999Z</time></trkpt><trkpt lat="39.633206381995954" lon="15.843667018263229"><ele>9.0</ele><time>2026-04-26T16:04:57.999Z</time></trkpt><trkpt lat="39.63311971198408" lon="15.843691727113924"><ele>9.0</ele><time>2026-04-26T16:04:58.999Z</time></trkpt><trkpt lat="39.63302068852156" lon="15.843721387295469"><ele>9.0</ele><time>2026-04-26T16:04:59.999Z</time></trkpt><trkpt lat="39.63290143196962" lon="15.843760374736537"><ele>9.0</ele><time>2026-04-26T16:05:00.999Z</time></trkpt><trkpt lat="39.63277453704897" lon="15.843790517454606"><ele>9.0</ele><time>2026-04-26T16:05:01.999Z</time></trkpt><trkpt lat="39.6326420208798" lon="15.843830006764467"><ele>9.0</ele><time>2026-04-26T16:05:02.999Z</time></trkpt><trkpt lat="39.63250383901641" lon="15.843883901110868"><ele>9.0</ele><time>2026-04-26T16:05:03.999Z</time></trkpt><trkpt lat="39.632367446635165" lon="15.843940633761372"><ele>9.0</ele><time>2026-04-26T16:05:04.999Z</time></trkpt><trkpt lat="39.63222342514046" lon="15.844004497695238"><ele>9.0</ele><time>2026-04-26T16:05:05.999Z</time></trkpt><trkpt lat="39.63206856074603" lon="15.844077611557788"><ele>9.333333333333334</ele><time>2026-04-26T16:05:06.999Z</time></trkpt><trkpt lat="39.63190482483606" lon="15.844156929004212"><ele>9.666666666666668</ele><time>2026-04-26T16:05:07.999Z</time></trkpt><trkpt lat="39.63174500584588" lon="15.84423402680479"><ele>10.0</ele><time>2026-04-26T16:05:08.999Z</time></trkpt><trkpt lat="39.63158574927219" lon="15.844310197303914"><ele>10.0</ele><time>2026-04-26T16:05:09.999Z</time></trkpt><trkpt lat="39.631439766262616" lon="15.844379639176005"><ele>10.0</ele><time>2026-04-26T16:05:10.999Z</time></trkpt><trkpt lat="39.63130467845672" lon="15.844451528038086"><ele>10.0</ele><time>2026-04-26T16:05:11.999Z</time></trkpt><trkpt lat="39.63117298161488" lon="15.844535846573676"><ele>10.0</ele><time>2026-04-26T16:05:12.999Z</time></trkpt><trkpt lat="39.63104349479499" lon="15.844628020787615"><ele>10.333333333333334</ele><time>2026-04-26T16:05:13.999Z</time></trkpt><trkpt lat="39.63091388678047" lon="15.844732877648088"><ele>10.666666666666666</ele><time>2026-04-26T16:05:14.999Z</time></trkpt><trkpt lat="39.63078620552487" lon="15.844858664702604"><ele>11.0</ele><time>2026-04-26T16:05:15.999Z</time></trkpt><trkpt lat="39.630665251149914" lon="15.844996443981367"><ele>12.333333333333332</ele><time>2026-04-26T16:05:16.999Z</time></trkpt><trkpt lat="39.63055052169238" lon="15.84513292198548"><ele>13.666666666666666</ele><time>2026-04-26T16:05:17.999Z</time></trkpt><trkpt lat="39.63043960117583" lon="15.84527534059669"><ele>15.0</ele><time>2026-04-26T16:05:18.999Z</time></trkpt><trkpt lat="39.63033409108142" lon="15.845430678932827"><ele>15.0</ele><time>2026-04-26T16:05:19.999Z</time></trkpt><trkpt lat="39.63023320614284" lon="15.845595581147707"><ele>15.0</ele><time>2026-04-26T16:05:20.999Z</time></trkpt><trkpt lat="39.63014314160708" lon="15.84577375613432"><ele>15.0</ele><time>2026-04-26T16:05:21.999Z</time></trkpt><trkpt lat="39.63004573572037" lon="15.845944548480878"><ele>16.333333333333332</ele><time>2026-04-26T16:05:22.999Z</time></trkpt><trkpt lat="39.62996950791964" lon="15.846128103128764"><ele>17.666666666666664</ele><time>2026-04-26T16:05:23.999Z</time></trkpt><trkpt lat="39.62990092529207" lon="15.846295827328758"><ele>19.0</ele><time>2026-04-26T16:05:24.999Z</time></trkpt><trkpt lat="39.62983344599109" lon="15.846464177764101"><ele>19.0</ele><time>2026-04-26T16:05:25.999Z</time></trkpt><trkpt lat="39.62976320837008" lon="15.846639308977155"><ele>19.0</ele><time>2026-04-26T16:05:26.999Z</time></trkpt><trkpt lat="39.62971488921278" lon="15.846830800383596"><ele>19.0</ele><time>2026-04-26T16:05:27.999Z</time></trkpt><trkpt lat="39.629641794098646" lon="15.847014647078426"><ele>19.333333333333332</ele><time>2026-04-26T16:05:28.999Z</time></trkpt><trkpt lat="39.62956838872217" lon="15.84720242123975"><ele>19.666666666666668</ele><time>2026-04-26T16:05:29.999Z</time></trkpt><trkpt lat="39.62949050688974" lon="15.847389207751917"><ele>20.0</ele><time>2026-04-26T16:05:30.999Z</time></trkpt><trkpt lat="39.629419477844834" lon="15.847563320199214"><ele>22.5</ele><time>2026-04-26T16:05:31.999Z</time></trkpt><trkpt lat="39.629355115436894" lon="15.847711379346055"><ele>25.0</ele><time>2026-04-26T16:05:32.999Z</time></trkpt><trkpt lat="39.62929369971551" lon="15.84785070644878"><ele>27.5</ele><time>2026-04-26T16:05:33.999Z</time></trkpt><trkpt lat="39.62924072277977" lon="15.84798145391236"><ele>30.0</ele><time>2026-04-26T16:05:34.999Z</time></trkpt><trkpt lat="39.62919638556872" lon="15.848098685275646"><ele>30.0</ele><time>2026-04-26T16:05:35.999Z</time></trkpt><trkpt lat="39.62915893112023" lon="15.848192447957294"><ele>30.0</ele><time>2026-04-26T16:05:36.999Z</time></trkpt><trkpt lat="39.629125669873744" lon="15.848273178413187"><ele>30.0</ele><time>2026-04-26T16:05:37.999Z</time></trkpt><trkpt lat="39.62907609305172" lon="15.848421689802073"><ele>30.0</ele><time>2026-04-26T16:05:39.999Z</time></trkpt><trkpt lat="39.62902792434023" lon="15.848538241333404"><ele>30.0</ele><time>2026-04-26T16:05:41.999Z</time></trkpt><trkpt lat="39.628986020639964" lon="15.848627430070486"><ele>30.333333333333332</ele><time>2026-04-26T16:05:43.999Z</time></trkpt><trkpt lat="39.62895194257011" lon="15.848718213454255"><ele>30.666666666666664</ele><time>2026-04-26T16:05:45.999Z</time></trkpt><trkpt lat="39.62888783825594" lon="15.8488014296281"><ele>31.0</ele><time>2026-04-26T16:05:56.999Z</time></trkpt><trkpt lat="39.628856378764354" lon="15.848880631600228"><ele>31.333333333333332</ele><time>2026-04-26T16:05:57.999Z</time></trkpt><trkpt lat="39.62881663945113" lon="15.84897952625179"><ele>31.666666666666664</ele><time>2026-04-26T16:05:58.999Z</time></trkpt><trkpt lat="39.62876100482568" lon="15.84911822652682"><ele>32.0</ele><time>2026-04-26T16:06:00Z</time></trkpt><trkpt lat="39.62868313859535" lon="15.849308694531365"><ele>33.75</ele><time>2026-04-26T16:06:01Z</time></trkpt><trkpt lat="39.62861329104649" lon="15.849480545074359"><ele>35.5</ele><time>2026-04-26T16:06:02Z</time></trkpt><trkpt lat="39.62856118354442" lon="15.849608756136279"><ele>37.25</ele><time>2026-04-26T16:06:03Z</time></trkpt><trkpt lat="39.6285112200352" lon="15.849731879892227"><ele>39.0</ele><time>2026-04-26T16:06:04Z</time></trkpt><trkpt lat="39.62845161538545" lon="15.849879888849557"><ele>39.0</ele><time>2026-04-26T16:06:05Z</time></trkpt><trkpt lat="39.628377384885994" lon="15.850065549835707"><ele>39.0</ele><time>2026-04-26T16:06:06Z</time></trkpt><trkpt lat="39.628295038804154" lon="15.850271444487316"><ele>39.0</ele><time>2026-04-26T16:06:07Z</time></trkpt><trkpt lat="39.62821832130512" lon="15.850461061153892"><ele>40.333333333333336</ele><time>2026-04-26T16:06:08Z</time></trkpt><trkpt lat="39.6281437374576" lon="15.85063907273529"><ele>41.66666666666667</ele><time>2026-04-26T16:06:09Z</time></trkpt><trkpt lat="39.62806207714406" lon="15.850816819712886"><ele>43.0</ele><time>2026-04-26T16:06:10Z</time></trkpt><trkpt lat="39.627972605189676" lon="15.851002352242618"><ele>42.66666666666667</ele><time>2026-04-26T16:06:11Z</time></trkpt><trkpt lat="39.62787679561432" lon="15.851187262788404"><ele>42.333333333333336</ele><time>2026-04-26T16:06:12Z</time></trkpt><trkpt lat="39.62777318985257" lon="15.851361894433063"><ele>42.0</ele><time>2026-04-26T16:06:13Z</time></trkpt><trkpt lat="39.62766508529872" lon="15.8515348255377"><ele>42.0</ele><time>2026-04-26T16:06:14Z</time></trkpt><trkpt lat="39.62755212353886" lon="15.851702794858806"><ele>42.0</ele><time>2026-04-26T16:06:15Z</time></trkpt><trkpt lat="39.62743428490615" lon="15.851867174291616"><ele>42.0</ele><time>2026-04-26T16:06:16Z</time></trkpt><trkpt lat="39.62730905518846" lon="15.852027114776714"><ele>42.666666666666664</ele><time>2026-04-26T16:06:17Z</time></trkpt><trkpt lat="39.62717292093528" lon="15.852197570136775"><ele>43.33333333333333</ele><time>2026-04-26T16:06:18Z</time></trkpt><trkpt lat="39.62703587636253" lon="15.852369165552021"><ele>44.0</ele><time>2026-04-26T16:06:19Z</time></trkpt><trkpt lat="39.62689722281715" lon="15.85254282295013"><ele>45.0</ele><time>2026-04-26T16:06:20Z</time></trkpt><trkpt lat="39.62676067736638" lon="15.852714385150312"><ele>46.0</ele><time>2026-04-26T16:06:21Z</time></trkpt><trkpt lat="39.626625794940594" lon="15.852883856790479"><ele>47.0</ele><time>2026-04-26T16:06:22Z</time></trkpt><trkpt lat="39.62649278945852" lon="15.853050970322128"><ele>47.0</ele><time>2026-04-26T16:06:23Z</time></trkpt><trkpt lat="39.626359215469506" lon="15.85321819389053"><ele>47.0</ele><time>2026-04-26T16:06:24Z</time></trkpt><trkpt lat="39.62622586219763" lon="15.853384554111662"><ele>47.0</ele><time>2026-04-26T16:06:25Z</time></trkpt><trkpt lat="39.62609352585039" lon="15.85354994250603"><ele>46.0</ele><time>2026-04-26T16:06:26Z</time></trkpt><trkpt lat="39.62595218465811" lon="15.85372658479041"><ele>45.0</ele><time>2026-04-26T16:06:27Z</time></trkpt><trkpt lat="39.62580761885055" lon="15.85390691116314"><ele>44.0</ele><time>2026-04-26T16:06:28Z</time></trkpt><trkpt lat="39.6256668578142" lon="15.85408237721277"><ele>44.0</ele><time>2026-04-26T16:06:29Z</time></trkpt><trkpt lat="39.62552794345913" lon="15.8542557481942"><ele>44.0</ele><time>2026-04-26T16:06:30Z</time></trkpt><trkpt lat="39.625384147312325" lon="15.8544361891819"><ele>44.0</ele><time>2026-04-26T16:06:31Z</time></trkpt><trkpt lat="39.62523937318158" lon="15.854618184162437"><ele>39.33333333333333</ele><time>2026-04-26T16:06:32Z</time></trkpt><trkpt lat="39.6250945285547" lon="15.854800391038212"><ele>34.666666666666664</ele><time>2026-04-26T16:06:33Z</time></trkpt><trkpt lat="39.62494815793595" lon="15.854983731382989"><ele>30.0</ele><time>2026-04-26T16:06:34Z</time></trkpt><trkpt lat="39.62480325093367" lon="15.855164148110449"><ele>29.333333333333336</ele><time>2026-04-26T16:06:35Z</time></trkpt><trkpt lat="39.62465695793041" lon="15.85534729388331"><ele>28.666666666666668</ele><time>2026-04-26T16:06:36Z</time></trkpt><trkpt lat="39.624509937514574" lon="15.855531367611334"><ele>28.0</ele><time>2026-04-26T16:06:37Z</time></trkpt><trkpt lat="39.62436298234536" lon="15.855714360657853"><ele>28.0</ele><time>2026-04-26T16:06:38Z</time></trkpt><trkpt lat="39.624218970890986" lon="15.855893688057808"><ele>28.0</ele><time>2026-04-26T16:06:39Z</time></trkpt><trkpt lat="39.62407498516079" lon="15.856065673285064"><ele>28.0</ele><time>2026-04-26T16:06:40Z</time></trkpt><trkpt lat="39.62391788838011" lon="15.856229529817854"><ele>29.0</ele><time>2026-04-26T16:06:41Z</time></trkpt><trkpt lat="39.62374929091844" lon="15.856383431209021"><ele>30.0</ele><time>2026-04-26T16:06:42Z</time></trkpt><trkpt lat="39.62356110696444" lon="15.856528522156855"><ele>31.0</ele><time>2026-04-26T16:06:43Z</time></trkpt><trkpt lat="39.62336383959807" lon="15.85665880915666"><ele>31.0</ele><time>2026-04-26T16:06:44Z</time></trkpt><trkpt lat="39.623165834925054" lon="15.856784278319433"><ele>31.0</ele><time>2026-04-26T16:06:45Z</time></trkpt><trkpt lat="39.622977610635566" lon="15.856904943100188"><ele>31.0</ele><time>2026-04-26T16:06:46Z</time></trkpt><trkpt lat="39.6227959236579" lon="15.857019667406355"><ele>35.0</ele><time>2026-04-26T16:06:47Z</time></trkpt><trkpt lat="39.622614738809055" lon="15.857129576487706"><ele>39.0</ele><time>2026-04-26T16:06:48Z</time></trkpt><trkpt lat="39.62243019120618" lon="15.857221916607367"><ele>43.0</ele><time>2026-04-26T16:06:49Z</time></trkpt><trkpt lat="39.622235748808386" lon="15.857296594094953"><ele>43.0</ele><time>2026-04-26T16:06:50Z</time></trkpt><trkpt lat="39.62203942876549" lon="15.857349507059002"><ele>43.0</ele><time>2026-04-26T16:06:51Z</time></trkpt><trkpt lat="39.62185038492034" lon="15.857382498633179"><ele>43.0</ele><time>2026-04-26T16:06:52Z</time></trkpt><trkpt lat="39.62165819433012" lon="15.857394725482127"><ele>43.333333333333336</ele><time>2026-04-26T16:06:53Z</time></trkpt><trkpt lat="39.62147035691412" lon="15.857400634397282"><ele>43.666666666666664</ele><time>2026-04-26T16:06:54Z</time></trkpt><trkpt lat="39.62128685633066" lon="15.857405100066668"><ele>44.0</ele><time>2026-04-26T16:06:55Z</time></trkpt><trkpt lat="39.621110196411614" lon="15.857409399261039"><ele>46.666666666666664</ele><time>2026-04-26T16:06:56Z</time></trkpt><trkpt lat="39.62093823341712" lon="15.857413584151965"><ele>49.33333333333333</ele><time>2026-04-26T16:06:57Z</time></trkpt><trkpt lat="39.62076942629202" lon="15.857417692224898"><ele>52.0</ele><time>2026-04-26T16:06:58Z</time></trkpt><trkpt lat="39.620592554605366" lon="15.857421070580319"><ele>52.0</ele><time>2026-04-26T16:06:58.999Z</time></trkpt><trkpt lat="39.6204125165271" lon="15.857425619934704"><ele>52.0</ele><time>2026-04-26T16:06:59.999Z</time></trkpt><trkpt lat="39.62022888982831" lon="15.857430174187293"><ele>52.0</ele><time>2026-04-26T16:07:00.999Z</time></trkpt><trkpt lat="39.620042862157234" lon="15.857434699709064"><ele>54.666666666666664</ele><time>2026-04-26T16:07:01.999Z</time></trkpt><trkpt lat="39.6198582341891" lon="15.85743835998413"><ele>57.33333333333333</ele><time>2026-04-26T16:07:02.999Z</time></trkpt><trkpt lat="39.61967716639382" lon="15.857440769405114"><ele>60.0</ele><time>2026-04-26T16:07:03.999Z</time></trkpt><trkpt lat="39.61949690079155" lon="15.857465699266665"><ele>61.66666666666667</ele><time>2026-04-26T16:07:04.999Z</time></trkpt><trkpt lat="39.61931884289434" lon="15.857468359081812"><ele>63.333333333333336</ele><time>2026-04-26T16:07:05.999Z</time></trkpt><trkpt lat="39.61914382617761" lon="15.85745245342384"><ele>65.0</ele><time>2026-04-26T16:07:06.999Z</time></trkpt><trkpt lat="39.61896933075407" lon="15.857456411410478"><ele>65.0</ele><time>2026-04-26T16:07:07.999Z</time></trkpt><trkpt lat="39.6187952759242" lon="15.857461689772695"><ele>65.0</ele><time>2026-04-26T16:07:08.999Z</time></trkpt><trkpt lat="39.61862313832715" lon="15.85748779782384"><ele>65.0</ele><time>2026-04-26T16:07:09.999Z</time></trkpt><trkpt lat="39.61845760794932" lon="15.85749900319723"><ele>66.33333333333334</ele><time>2026-04-26T16:07:10.999Z</time></trkpt><trkpt lat="39.618301046857844" lon="15.857498584641213"><ele>67.66666666666667</ele><time>2026-04-26T16:07:11.999Z</time></trkpt><trkpt lat="39.61814997011385" lon="15.857527364344117"><ele>69.0</ele><time>2026-04-26T16:07:12.999Z</time></trkpt><trkpt lat="39.61799609805965" lon="15.857566621491417"><ele>69.0</ele><time>2026-04-26T16:07:13.999Z</time></trkpt><trkpt lat="39.61784176521053" lon="15.857615796781834"><ele>69.0</ele><time>2026-04-26T16:07:14.999Z</time></trkpt><trkpt lat="39.617682043272374" lon="15.857670385945022"><ele>69.0</ele><time>2026-04-26T16:07:15.999Z</time></trkpt><trkpt lat="39.617521065354275" lon="15.857733046391294"><ele>71.33333333333333</ele><time>2026-04-26T16:07:16.999Z</time></trkpt><trkpt lat="39.61735970580306" lon="15.857801691485038"><ele>73.66666666666666</ele><time>2026-04-26T16:07:17.999Z</time></trkpt><trkpt lat="39.61720341959858" lon="15.85787843176387"><ele>76.0</ele><time>2026-04-26T16:07:18.999Z</time></trkpt><trkpt lat="39.61704962939761" lon="15.857965623850935"><ele>76.33333333333333</ele><time>2026-04-26T16:07:19.999Z</time></trkpt><trkpt lat="39.616900481235284" lon="15.858059957972474"><ele>76.66666666666667</ele><time>2026-04-26T16:07:20.999Z</time></trkpt><trkpt lat="39.61674925401872" lon="15.858157634475486"><ele>77.0</ele><time>2026-04-26T16:07:21.999Z</time></trkpt><trkpt lat="39.61659907640099" lon="15.858256843038106"><ele>77.0</ele><time>2026-04-26T16:07:22.999Z</time></trkpt><trkpt lat="39.61644913831288" lon="15.85835550815342"><ele>77.0</ele><time>2026-04-26T16:07:23.999Z</time></trkpt><trkpt lat="39.61630931381637" lon="15.858448978176877"><ele>77.0</ele><time>2026-04-26T16:07:24.999Z</time></trkpt><trkpt lat="39.61617431813874" lon="15.858539220229352"><ele>78.33333333333334</ele><time>2026-04-26T16:07:25.999Z</time></trkpt><trkpt lat="39.61604540752583" lon="15.858625394523914"><ele>79.66666666666667</ele><time>2026-04-26T16:07:26.999Z</time></trkpt><trkpt lat="39.61590238398892" lon="15.858721003051524"><ele>81.0</ele><time>2026-04-26T16:07:27.999Z</time></trkpt><trkpt lat="39.615750121060415" lon="15.858822952501031"><ele>81.0</ele><time>2026-04-26T16:07:28.999Z</time></trkpt><trkpt lat="39.6155997116947" lon="15.858923714253208"><ele>81.0</ele><time>2026-04-26T16:07:29.999Z</time></trkpt><trkpt lat="39.615443397342844" lon="15.859028423157735"><ele>81.0</ele><time>2026-04-26T16:07:30.999Z</time></trkpt><trkpt lat="39.6152815898694" lon="15.859135224124588"><ele>80.66666666666667</ele><time>2026-04-26T16:07:31.999Z</time></trkpt><trkpt lat="39.61511781091753" lon="15.859244406679931"><ele>80.33333333333334</ele><time>2026-04-26T16:07:32.999Z</time></trkpt><trkpt lat="39.61496122856323" lon="15.859350023828757"><ele>80.0</ele><time>2026-04-26T16:07:33.999Z</time></trkpt><trkpt lat="39.61480785331208" lon="15.85945393072928"><ele>79.0</ele><time>2026-04-26T16:07:34.999Z</time></trkpt><trkpt lat="39.614647763898816" lon="15.859560715357913"><ele>78.0</ele><time>2026-04-26T16:07:35.999Z</time></trkpt><trkpt lat="39.614487931867394" lon="15.859661514506012"><ele>77.0</ele><time>2026-04-26T16:07:36.999Z</time></trkpt><trkpt lat="39.61433037335235" lon="15.859742913863347"><ele>77.0</ele><time>2026-04-26T16:07:37.999Z</time></trkpt><trkpt lat="39.614174436308446" lon="15.859814571441687"><ele>77.0</ele><time>2026-04-26T16:07:38.999Z</time></trkpt><trkpt lat="39.61401955467786" lon="15.859874368161504"><ele>77.0</ele><time>2026-04-26T16:07:39.999Z</time></trkpt><trkpt lat="39.61386431963516" lon="15.85991853521567"><ele>77.0</ele><time>2026-04-26T16:07:40.999Z</time></trkpt><trkpt lat="39.613688740617555" lon="15.859958005699683"><ele>77.0</ele><time>2026-04-26T16:07:41.999Z</time></trkpt><trkpt lat="39.61350717139262" lon="15.859995252294892"><ele>77.0</ele><time>2026-04-26T16:07:42.999Z</time></trkpt><trkpt lat="39.61332649516127" lon="15.860031822536763"><ele>73.33333333333334</ele><time>2026-04-26T16:07:43.999Z</time></trkpt><trkpt lat="39.61313848939893" lon="15.860069431419065"><ele>69.66666666666667</ele><time>2026-04-26T16:07:44.999Z</time></trkpt><trkpt lat="39.612950238103416" lon="15.860107089429677"><ele>66.0</ele><time>2026-04-26T16:07:45.999Z</time></trkpt><trkpt lat="39.61275826405256" lon="15.860145492130291"><ele>59.0</ele><time>2026-04-26T16:07:46.999Z</time></trkpt><trkpt lat="39.61256349036188" lon="15.86018445488066"><ele>52.0</ele><time>2026-04-26T16:07:47.999Z</time></trkpt><trkpt lat="39.612367574814336" lon="15.860223905198247"><ele>45.0</ele><time>2026-04-26T16:07:48.999Z</time></trkpt><trkpt lat="39.612172076541086" lon="15.86026447737915"><ele>45.0</ele><time>2026-04-26T16:07:49.999Z</time></trkpt><trkpt lat="39.611976342950676" lon="15.860303914495548"><ele>45.0</ele><time>2026-04-26T16:07:50.999Z</time></trkpt><trkpt lat="39.611781267698824" lon="15.860342002197346"><ele>45.0</ele><time>2026-04-26T16:07:51.999Z</time></trkpt><trkpt lat="39.61159191501177" lon="15.860379301911463"><ele>45.0</ele><time>2026-04-26T16:07:52.999Z</time></trkpt><trkpt lat="39.61140205578481" lon="15.860417284447566"><ele>45.0</ele><time>2026-04-26T16:07:53.999Z</time></trkpt><trkpt lat="39.6112147813526" lon="15.860455316261142"><ele>45.0</ele><time>2026-04-26T16:07:54.999Z</time></trkpt><trkpt lat="39.611030053990376" lon="15.860493432973541"><ele>50.0</ele><time>2026-04-26T16:07:55.999Z</time></trkpt><trkpt lat="39.61085475063942" lon="15.8605296051295"><ele>55.0</ele><time>2026-04-26T16:07:56.999Z</time></trkpt><trkpt lat="39.61069031311091" lon="15.860562910340176"><ele>60.0</ele><time>2026-04-26T16:07:57.999Z</time></trkpt><trkpt lat="39.610528627228675" lon="15.860594929304309"><ele>60.0</ele><time>2026-04-26T16:07:58.999Z</time></trkpt><trkpt lat="39.61036803680552" lon="15.860625088694176"><ele>60.0</ele><time>2026-04-26T16:07:59.999Z</time></trkpt><trkpt lat="39.61020501837398" lon="15.8606565979793"><ele>60.0</ele><time>2026-04-26T16:08:00.999Z</time></trkpt><trkpt lat="39.61004543781907" lon="15.860687256679535"><ele>61.33333333333333</ele><time>2026-04-26T16:08:01.999Z</time></trkpt><trkpt lat="39.60988449733285" lon="15.860719613992977"><ele>62.666666666666664</ele><time>2026-04-26T16:08:02.999Z</time></trkpt><trkpt lat="39.609724173068386" lon="15.860753127881768"><ele>64.0</ele><time>2026-04-26T16:08:03.999Z</time></trkpt><trkpt lat="39.60956816387933" lon="15.860785539003361"><ele>64.0</ele><time>2026-04-26T16:08:04.999Z</time></trkpt><trkpt lat="39.609413800853154" lon="15.860816310905356"><ele>64.0</ele><time>2026-04-26T16:08:06Z</time></trkpt><trkpt lat="39.60926009915445" lon="15.860846950962461"><ele>64.0</ele><time>2026-04-26T16:08:07Z</time></trkpt><trkpt lat="39.60910660914226" lon="15.860877548827283"><ele>64.0</ele><time>2026-04-26T16:08:08Z</time></trkpt><trkpt lat="39.608951693736316" lon="15.860908462252654"><ele>64.0</ele><time>2026-04-26T16:08:09Z</time></trkpt><trkpt lat="39.60879378280867" lon="15.860940004284396"><ele>64.0</ele><time>2026-04-26T16:08:10Z</time></trkpt><trkpt lat="39.60864030052858" lon="15.860970661717351"><ele>62.0</ele><time>2026-04-26T16:08:11Z</time></trkpt><trkpt lat="39.60848778422331" lon="15.861001126202721"><ele>60.0</ele><time>2026-04-26T16:08:12Z</time></trkpt><trkpt lat="39.608343096539016" lon="15.86102976112504"><ele>58.0</ele><time>2026-04-26T16:08:13Z</time></trkpt><trkpt lat="39.60819814127431" lon="15.861058433597378"><ele>56.0</ele><time>2026-04-26T16:08:14Z</time></trkpt><trkpt lat="39.608057438312834" lon="15.861086576768296"><ele>56.0</ele><time>2026-04-26T16:08:15Z</time></trkpt><trkpt lat="39.60791314702116" lon="15.86111603047876"><ele>56.0</ele><time>2026-04-26T16:08:16Z</time></trkpt><trkpt lat="39.60776905941996" lon="15.86114544261408"><ele>56.0</ele><time>2026-04-26T16:08:17Z</time></trkpt><trkpt lat="39.607623750288006" lon="15.861175104198015"><ele>56.0</ele><time>2026-04-26T16:08:18Z</time></trkpt><trkpt lat="39.60748151696309" lon="15.861204234696915"><ele>53.75</ele><time>2026-04-26T16:08:19Z</time></trkpt><trkpt lat="39.607345323590586" lon="15.861231974767293"><ele>51.5</ele><time>2026-04-26T16:08:20Z</time></trkpt><trkpt lat="39.60720814791598" lon="15.86125934180087"><ele>49.25</ele><time>2026-04-26T16:08:21Z</time></trkpt><trkpt lat="39.60706683417" lon="15.861287781162886"><ele>47.0</ele><time>2026-04-26T16:08:22Z</time></trkpt><trkpt lat="39.6069256222671" lon="15.86131630894519"><ele>42.666666666666664</ele><time>2026-04-26T16:08:23Z</time></trkpt><trkpt lat="39.60677789225038" lon="15.861346286013859"><ele>38.333333333333336</ele><time>2026-04-26T16:08:24Z</time></trkpt><trkpt lat="39.60662265282375" lon="15.861377786879258"><ele>34.0</ele><time>2026-04-26T16:08:25Z</time></trkpt><trkpt lat="39.60646587092349" lon="15.861409600744084"><ele>34.0</ele><time>2026-04-26T16:08:26Z</time></trkpt><trkpt lat="39.6063108355225" lon="15.861441060204093"><ele>34.0</ele><time>2026-04-26T16:08:27Z</time></trkpt><trkpt lat="39.60615091907106" lon="15.861472955318016"><ele>34.0</ele><time>2026-04-26T16:08:28Z</time></trkpt><trkpt lat="39.60599400117561" lon="15.861503699502707"><ele>33.0</ele><time>2026-04-26T16:08:29Z</time></trkpt><trkpt lat="39.60584467419104" lon="15.861533648042665"><ele>32.0</ele><time>2026-04-26T16:08:30Z</time></trkpt><trkpt lat="39.60569935673132" lon="15.861563222849405"><ele>31.0</ele><time>2026-04-26T16:08:31Z</time></trkpt><trkpt lat="39.60555837105164" lon="15.86159196576027"><ele>30.0</ele><time>2026-04-26T16:08:32Z</time></trkpt><trkpt lat="39.60541433540384" lon="15.86162133596534"><ele>34.0</ele><time>2026-04-26T16:08:33Z</time></trkpt><trkpt lat="39.60527432276974" lon="15.861649885835417"><ele>38.0</ele><time>2026-04-26T16:08:34Z</time></trkpt><trkpt lat="39.60513574406529" lon="15.86167788842171"><ele>42.0</ele><time>2026-04-26T16:08:35Z</time></trkpt><trkpt lat="39.60499554916612" lon="15.861706211679099"><ele>46.0</ele><time>2026-04-26T16:08:36Z</time></trkpt><trkpt lat="39.604853322045116" lon="15.861734945500636"><ele>46.0</ele><time>2026-04-26T16:08:37Z</time></trkpt><trkpt lat="39.604707294683664" lon="15.86176444707533"><ele>46.0</ele><time>2026-04-26T16:08:38Z</time></trkpt><trkpt lat="39.604559719808485" lon="15.861793931247472"><ele>46.0</ele><time>2026-04-26T16:08:39Z</time></trkpt><trkpt lat="39.604414007182434" lon="15.8618221922011"><ele>46.0</ele><time>2026-04-26T16:08:40Z</time></trkpt><trkpt lat="39.60427128775889" lon="15.861849872622845"><ele>49.5</ele><time>2026-04-26T16:08:41Z</time></trkpt><trkpt lat="39.60412630140082" lon="15.861877992715891"><ele>53.0</ele><time>2026-04-26T16:08:42Z</time></trkpt><trkpt lat="39.60398164328511" lon="15.861906049144997"><ele>56.5</ele><time>2026-04-26T16:08:43Z</time></trkpt><trkpt lat="39.60383575206809" lon="15.861934426690022"><ele>60.0</ele><time>2026-04-26T16:08:44Z</time></trkpt><trkpt lat="39.60369100368129" lon="15.861963169059456"><ele>58.25</ele><time>2026-04-26T16:08:45Z</time></trkpt><trkpt lat="39.60354561702461" lon="15.86199203817391"><ele>56.5</ele><time>2026-04-26T16:08:46Z</time></trkpt><trkpt lat="39.603397841904716" lon="15.862021381554772"><ele>54.75</ele><time>2026-04-26T16:08:47Z</time></trkpt><trkpt lat="39.60325119724158" lon="15.862050500465914"><ele>53.0</ele><time>2026-04-26T16:08:48Z</time></trkpt><trkpt lat="39.60310925825861" lon="15.862078684982487"><ele>53.0</ele><time>2026-04-26T16:08:49Z</time></trkpt><trkpt lat="39.6029699425524" lon="15.862106348598758"><ele>53.0</ele><time>2026-04-26T16:08:50Z</time></trkpt><trkpt lat="39.60282773587564" lon="15.862134586258762"><ele>53.0</ele><time>2026-04-26T16:08:51Z</time></trkpt><trkpt lat="39.60268481053722" lon="15.862163324807392"><ele>53.0</ele><time>2026-04-26T16:08:52Z</time></trkpt><trkpt lat="39.60254117005815" lon="15.86219222908304"><ele>51.25</ele><time>2026-04-26T16:08:53Z</time></trkpt><trkpt lat="39.60239500316457" lon="15.862221640221442"><ele>49.5</ele><time>2026-04-26T16:08:54Z</time></trkpt><trkpt lat="39.6022472631578" lon="15.862251367885252"><ele>47.75</ele><time>2026-04-26T16:08:55Z</time></trkpt><trkpt lat="39.60210245123139" lon="15.86228050643255"><ele>46.0</ele><time>2026-04-26T16:08:56Z</time></trkpt><trkpt lat="39.60195953338796" lon="15.862311153005574"><ele>44.25</ele><time>2026-04-26T16:08:57Z</time></trkpt><trkpt lat="39.60181750796696" lon="15.862341959274145"><ele>42.5</ele><time>2026-04-26T16:08:58Z</time></trkpt><trkpt lat="39.60167482415048" lon="15.862375427823368"><ele>40.75</ele><time>2026-04-26T16:08:59Z</time></trkpt><trkpt lat="39.601519378981536" lon="15.862413756252037"><ele>39.0</ele><time>2026-04-26T16:09:00Z</time></trkpt><trkpt lat="39.60136732734201" lon="15.862451723911489"><ele>39.0</ele><time>2026-04-26T16:09:01Z</time></trkpt><trkpt lat="39.601220691373285" lon="15.862488339266074"><ele>39.0</ele><time>2026-04-26T16:09:02Z</time></trkpt><trkpt lat="39.601079440638834" lon="15.862523609887127"><ele>39.0</ele><time>2026-04-26T16:09:03Z</time></trkpt><trkpt lat="39.600939841891915" lon="15.86255846802717"><ele>39.0</ele><time>2026-04-26T16:09:04Z</time></trkpt><trkpt lat="39.60079941811758" lon="15.862593532165151"><ele>37.75</ele><time>2026-04-26T16:09:05Z</time></trkpt><trkpt lat="39.60065763181003" lon="15.862628850403553"><ele>36.5</ele><time>2026-04-26T16:09:06Z</time></trkpt><trkpt lat="39.600522452927365" lon="15.862662173022757"><ele>35.25</ele><time>2026-04-26T16:09:06.999Z</time></trkpt><trkpt lat="39.600389546651385" lon="15.862694620715983"><ele>34.0</ele><time>2026-04-26T16:09:07.999Z</time></trkpt><trkpt lat="39.600267670349986" lon="15.862724375563266"><ele>34.0</ele><time>2026-04-26T16:09:08.999Z</time></trkpt><trkpt lat="39.60016009065075" lon="15.862750427621824"><ele>34.0</ele><time>2026-04-26T16:09:09.999Z</time></trkpt><trkpt lat="39.600054994568474" lon="15.862774886196139"><ele>34.0</ele><time>2026-04-26T16:09:10.999Z</time></trkpt><trkpt lat="39.599950755369846" lon="15.862799431525529"><ele>34.0</ele><time>2026-04-26T16:09:11.999Z</time></trkpt><trkpt lat="39.5998495817148" lon="15.862823370875514"><ele>34.0</ele><time>2026-04-26T16:09:12.999Z</time></trkpt><trkpt lat="39.59975353372319" lon="15.862846150980841"><ele>34.0</ele><time>2026-04-26T16:09:13.999Z</time></trkpt><trkpt lat="39.59966552024123" lon="15.862867066479561"><ele>34.0</ele><time>2026-04-26T16:09:14.999Z</time></trkpt><trkpt lat="39.599581249440114" lon="15.862884260802872"><ele>34.0</ele><time>2026-04-26T16:09:15.999Z</time></trkpt><trkpt lat="39.5995118869854" lon="15.862898413270385"><ele>34.0</ele><time>2026-04-26T16:09:16.999Z</time></trkpt><trkpt lat="39.59944122408827" lon="15.862912831098003"><ele>34.0</ele><time>2026-04-26T16:09:18.999Z</time></trkpt><trkpt lat="39.599475643945375" lon="15.863248110903006"><ele>34.0</ele><time>2026-04-26T16:09:20.999Z</time></trkpt><trkpt lat="39.5995759238407" lon="15.863299713510468"><ele>34.0</ele><time>2026-04-26T16:09:21.999Z</time></trkpt><trkpt lat="39.59966250496459" lon="15.863272877277794"><ele>34.0</ele><time>2026-04-26T16:09:22.999Z</time></trkpt><trkpt lat="39.59972847765602" lon="15.863197028352111"><ele>34.0</ele><time>2026-04-26T16:09:23.999Z</time></trkpt><trkpt lat="39.59983623197075" lon="15.863106648390131"><ele>34.0</ele><time>2026-04-26T16:09:24.999Z</time></trkpt><trkpt lat="39.599955121127984" lon="15.863065682343132"><ele>34.0</ele><time>2026-04-26T16:09:25.999Z</time></trkpt><trkpt lat="39.600067534228224" lon="15.863062150841989"><ele>34.0</ele><time>2026-04-26T16:09:26.999Z</time></trkpt><trkpt lat="39.60016813563917" lon="15.863052254796802"><ele>34.0</ele><time>2026-04-26T16:09:27.999Z</time></trkpt><trkpt lat="39.60025894298179" lon="15.863050952691198"><ele>34.0</ele><time>2026-04-26T16:09:28.999Z</time></trkpt><trkpt lat="39.60032510295851" lon="15.863007131920334"><ele>34.0</ele><time>2026-04-26T16:09:29.999Z</time></trkpt><trkpt lat="39.60039119002948" lon="15.862970815992519"><ele>33.333333333333336</ele><time>2026-04-26T16:09:30.999Z</time></trkpt><trkpt lat="39.60045897221167" lon="15.862913994588407"><ele>32.66666666666667</ele><time>2026-04-26T16:09:31.999Z</time></trkpt><trkpt lat="39.60051812278996" lon="15.862848118071721"><ele>32.0</ele><time>2026-04-26T16:09:32.999Z</time></trkpt><trkpt lat="39.60057537174414" lon="15.86278490771809"><ele>31.333333333333336</ele><time>2026-04-26T16:09:34.999Z</time></trkpt><trkpt lat="39.60060712482599" lon="15.86269754855226"><ele>30.666666666666668</ele><time>2026-04-26T16:09:38.999Z</time></trkpt><trkpt lat="39.60057860393067" lon="15.862526377625098"><ele>30.0</ele><time>2026-04-26T16:09:40.999Z</time></trkpt><trkpt lat="39.6005141139741" lon="15.862549336957366"><ele>30.8</ele><time>2026-04-26T16:09:41.999Z</time></trkpt><trkpt lat="39.600451148335644" lon="15.862578018071142"><ele>31.6</ele><time>2026-04-26T16:09:42.999Z</time></trkpt><trkpt lat="39.60035527144969" lon="15.86259132831018"><ele>32.4</ele><time>2026-04-26T16:09:44.999Z</time></trkpt><trkpt lat="39.60026836365814" lon="15.862611080558267"><ele>33.2</ele><time>2026-04-26T16:09:46.999Z</time></trkpt><trkpt lat="39.600233994306514" lon="15.862732983364587"><ele>34.0</ele><time>2026-04-26T16:09:48.999Z</time></trkpt><trkpt lat="39.600190446900214" lon="15.862563060387172"><ele>30.25</ele><time>2026-04-26T16:09:49.999Z</time></trkpt><trkpt lat="39.60009799006245" lon="15.862392513740774"><ele>26.5</ele><time>2026-04-26T16:09:50.999Z</time></trkpt><trkpt lat="39.60002410593209" lon="15.862253683135354"><ele>22.75</ele><time>2026-04-26T16:09:51.999Z</time></trkpt><trkpt lat="39.59998085932552" lon="15.862123478170952"><ele>19.0</ele><time>2026-04-26T16:09:52.999Z</time></trkpt><trkpt lat="39.59996517183933" lon="15.861966816073977"><ele>19.0</ele><time>2026-04-26T16:09:53.999Z</time></trkpt><trkpt lat="39.599954406440965" lon="15.861838970260322"><ele>19.0</ele><time>2026-04-26T16:09:54.999Z</time></trkpt><trkpt lat="39.599922335312115" lon="15.861744439918262"><ele>19.0</ele><time>2026-04-26T16:09:55.999Z</time></trkpt><trkpt lat="39.59990775539024" lon="15.861657994429144"><ele>19.0</ele><time>2026-04-26T16:09:56.999Z</time></trkpt><trkpt lat="39.59989353037679" lon="15.86157700872268"><ele>19.0</ele><time>2026-04-26T16:09:57.999Z</time></trkpt><trkpt lat="39.59988392189136" lon="15.86144894417689"><ele>19.0</ele><time>2026-04-26T16:09:59.999Z</time></trkpt><trkpt lat="39.59987483513991" lon="15.861348376962438"><ele>17.0</ele><time>2026-04-26T16:10:01.999Z</time></trkpt><trkpt lat="39.59986293313095" lon="15.861241797826713"><ele>15.0</ele><time>2026-04-26T16:10:03.999Z</time></trkpt><trkpt lat="39.599929613219516" lon="15.861013453531926"><ele>13.0</ele><time>2026-04-26T16:10:05.999Z</time></trkpt><trkpt lat="39.59992257182202" lon="15.860845787296727"><ele>11.0</ele><time>2026-04-26T16:10:06.999Z</time></trkpt><trkpt lat="39.59990440535114" lon="15.860703663990138"><ele>10.25</ele><time>2026-04-26T16:10:07.999Z</time></trkpt><trkpt lat="39.59989178569036" lon="15.860598699622091"><ele>9.5</ele><time>2026-04-26T16:10:08.999Z</time></trkpt><trkpt lat="39.59982557171907" lon="15.860496184250074"><ele>8.75</ele><time>2026-04-26T16:10:10.999Z</time></trkpt><trkpt lat="39.5999706049472" lon="15.860526387976037"><ele>8.0</ele><time>2026-04-26T16:10:15Z</time></trkpt><trkpt lat="39.599977356572914" lon="15.860368609239707"><ele>8.0</ele><time>2026-04-26T16:10:16Z</time></trkpt><trkpt lat="39.60004916834287" lon="15.860343195804358"><ele>8.0</ele><time>2026-04-26T16:10:19Z</time></trkpt><trkpt lat="39.59998203260457" lon="15.8603631602561"><ele>8.0</ele><time>2026-04-26T16:13:26.999Z</time></trkpt><trkpt lat="39.599889161170694" lon="15.860396217213825"><ele>8.0</ele><time>2026-04-26T16:14:09.999Z</time></trkpt><trkpt lat="39.599941262440225" lon="15.860280623308675"><ele>8.0</ele><time>2026-04-26T16:14:40Z</time></trkpt><trkpt lat="39.59985998233339" lon="15.86027589730083"><ele>8.0</ele><time>2026-04-26T16:14:54.999Z</time></trkpt></trkseg></trk></gpx>